<?xml version="1.0" encoding="UTF-8" standalone="no" ?>
<gpx xmlns="http://www.topografix.com/GPX/1/1" xmlns:xsi="http://www.w3.org/2001/XMLSchema-instance" xsi:schemaLocation="http://www.topografix.com/GPX/1/1 http://www.topografix.com/GPX/1/1/gpx.xsd" version="1.1" creator="VisuGPX - https://www.visugpx.com">
  <metadata>
    <name>Wallabies Tet Adriatique Juillet 2025/1</name>
    <desc><![CDATA[Les Wallabies Adriatique 2025]]></desc>
  </metadata>
  <trk>
    <name><![CDATA[3.3 ACT MNE_AL]]></name>
    <extensions>
      <line xmlns="http://www.topografix.com/GPX/gpx_style/0/2">
        <color>ff2600</color>
        <width>4</width>
      </line>
    </extensions>
    <trkseg>
      <trkpt lat="42.26462" lon="20.00987">
        <ele>183.27000427246</ele>
        <time>2023-10-01T09:09:04.000Z</time>
      </trkpt>
      <trkpt lat="42.26467" lon="20.0099">
        <ele>183.75</ele>
        <time>2023-10-01T09:09:03.000Z</time>
      </trkpt>
      <trkpt lat="42.26471" lon="20.00994">
        <ele>184.22999572754</ele>
        <time>2023-10-01T09:09:02.000Z</time>
      </trkpt>
      <trkpt lat="42.26476" lon="20.01">
        <ele>184.22999572754</ele>
        <time>2023-10-01T09:09:01.000Z</time>
      </trkpt>
      <trkpt lat="42.26479" lon="20.01007">
        <ele>184.71000671387</ele>
        <time>2023-10-01T09:09:00.000Z</time>
      </trkpt>
      <trkpt lat="42.2648" lon="20.01013">
        <ele>184.71000671387</ele>
        <time>2023-10-01T09:08:59.000Z</time>
      </trkpt>
      <trkpt lat="42.26484" lon="20.01031">
        <ele>185.66999816895</ele>
        <time>2023-10-01T09:08:57.000Z</time>
      </trkpt>
      <trkpt lat="42.26487" lon="20.01045">
        <ele>186.14999389648</ele>
        <time>2023-10-01T09:08:56.000Z</time>
      </trkpt>
      <trkpt lat="42.26488" lon="20.01049">
        <ele>186.14999389648</ele>
        <time>2023-10-01T09:08:55.000Z</time>
      </trkpt>
      <trkpt lat="42.26494" lon="20.01066">
        <ele>187.11000061035</ele>
        <time>2023-10-01T09:08:53.000Z</time>
      </trkpt>
      <trkpt lat="42.26508" lon="20.01116">
        <ele>190</ele>
        <time>2023-10-01T09:08:49.000Z</time>
      </trkpt>
      <trkpt lat="42.26512" lon="20.01127">
        <ele>190.47999572754</ele>
        <time>2023-10-01T09:08:48.000Z</time>
      </trkpt>
      <trkpt lat="42.26513" lon="20.01129">
        <ele>190.96000671387</ele>
        <time>2023-10-01T09:08:47.000Z</time>
      </trkpt>
      <trkpt lat="42.26519" lon="20.01142">
        <ele>191.44000244141</ele>
        <time>2023-10-01T09:08:46.000Z</time>
      </trkpt>
      <trkpt lat="42.26525" lon="20.01153">
        <ele>192.39999389648</ele>
        <time>2023-10-01T09:08:45.000Z</time>
      </trkpt>
      <trkpt lat="42.26529" lon="20.0116">
        <ele>192.88000488281</ele>
        <time>2023-10-01T09:08:44.000Z</time>
      </trkpt>
      <trkpt lat="42.26531" lon="20.01164">
        <ele>192.88000488281</ele>
        <time>2023-10-01T09:08:43.000Z</time>
      </trkpt>
      <trkpt lat="42.26534" lon="20.01168">
        <ele>193.36000061035</ele>
        <time>2023-10-01T09:08:42.000Z</time>
      </trkpt>
      <trkpt lat="42.26538" lon="20.01172">
        <ele>193.36000061035</ele>
        <time>2023-10-01T09:08:40.000Z</time>
      </trkpt>
      <trkpt lat="42.2655" lon="20.01188">
        <ele>193.83999633789</ele>
        <time>2023-10-01T09:08:34.000Z</time>
      </trkpt>
      <trkpt lat="42.26555" lon="20.01196">
        <ele>193.83999633789</ele>
        <time>2023-10-01T09:08:33.000Z</time>
      </trkpt>
      <trkpt lat="42.26582" lon="20.01243">
        <ele>192.88000488281</ele>
        <time>2023-10-01T09:08:28.000Z</time>
      </trkpt>
      <trkpt lat="42.26603" lon="20.01282">
        <ele>193.36000061035</ele>
        <time>2023-10-01T09:08:24.000Z</time>
      </trkpt>
      <trkpt lat="42.26612" lon="20.013">
        <ele>193.36000061035</ele>
        <time>2023-10-01T09:08:23.000Z</time>
      </trkpt>
      <trkpt lat="42.26616" lon="20.01312">
        <ele>193.36000061035</ele>
        <time>2023-10-01T09:08:22.000Z</time>
      </trkpt>
      <trkpt lat="42.26618" lon="20.01323">
        <ele>192.88000488281</ele>
        <time>2023-10-01T09:08:21.000Z</time>
      </trkpt>
      <trkpt lat="42.26619" lon="20.01333">
        <ele>192.88000488281</ele>
        <time>2023-10-01T09:08:20.000Z</time>
      </trkpt>
      <trkpt lat="42.26619" lon="20.01336">
        <ele>192.88000488281</ele>
        <time>2023-10-01T09:08:19.000Z</time>
      </trkpt>
      <trkpt lat="42.2662" lon="20.01354">
        <ele>192.88000488281</ele>
        <time>2023-10-01T09:08:18.000Z</time>
      </trkpt>
      <trkpt lat="42.2662" lon="20.01364">
        <ele>192.39999389648</ele>
        <time>2023-10-01T09:08:17.000Z</time>
      </trkpt>
      <trkpt lat="42.26618" lon="20.01385">
        <ele>192.39999389648</ele>
        <time>2023-10-01T09:08:15.000Z</time>
      </trkpt>
      <trkpt lat="42.26617" lon="20.0141">
        <ele>192.88000488281</ele>
        <time>2023-10-01T09:08:13.000Z</time>
      </trkpt>
      <trkpt lat="42.26614" lon="20.01528">
        <ele>193.36000061035</ele>
        <time>2023-10-01T09:08:05.000Z</time>
      </trkpt>
      <trkpt lat="42.26615" lon="20.01547">
        <ele>192.88000488281</ele>
        <time>2023-10-01T09:08:03.000Z</time>
      </trkpt>
      <trkpt lat="42.26617" lon="20.01569">
        <ele>192.39999389648</ele>
        <time>2023-10-01T09:08:02.000Z</time>
      </trkpt>
      <trkpt lat="42.26619" lon="20.01582">
        <ele>192.39999389648</ele>
        <time>2023-10-01T09:08:01.000Z</time>
      </trkpt>
      <trkpt lat="42.26622" lon="20.01592">
        <ele>191.91999816895</ele>
        <time>2023-10-01T09:08:00.000Z</time>
      </trkpt>
      <trkpt lat="42.26625" lon="20.01601">
        <ele>191.44000244141</ele>
        <time>2023-10-01T09:07:59.000Z</time>
      </trkpt>
      <trkpt lat="42.2663" lon="20.01613">
        <ele>190.96000671387</ele>
        <time>2023-10-01T09:07:58.000Z</time>
      </trkpt>
      <trkpt lat="42.26635" lon="20.01629">
        <ele>190.47999572754</ele>
        <time>2023-10-01T09:07:57.000Z</time>
      </trkpt>
      <trkpt lat="42.26637" lon="20.0164">
        <ele>190</ele>
        <time>2023-10-01T09:07:56.000Z</time>
      </trkpt>
      <trkpt lat="42.26647" lon="20.01691">
        <ele>188.55999755859</ele>
        <time>2023-10-01T09:07:53.000Z</time>
      </trkpt>
      <trkpt lat="42.26666" lon="20.01782">
        <ele>188.08000183105</ele>
        <time>2023-10-01T09:07:49.000Z</time>
      </trkpt>
      <trkpt lat="42.26674" lon="20.01826">
        <ele>187.58999633789</ele>
        <time>2023-10-01T09:07:47.000Z</time>
      </trkpt>
      <trkpt lat="42.26677" lon="20.01844">
        <ele>187.58999633789</ele>
        <time>2023-10-01T09:07:46.000Z</time>
      </trkpt>
      <trkpt lat="42.26678" lon="20.01866">
        <ele>187.11000061035</ele>
        <time>2023-10-01T09:07:45.000Z</time>
      </trkpt>
      <trkpt lat="42.26681" lon="20.01965">
        <ele>186.14999389648</ele>
        <time>2023-10-01T09:07:40.000Z</time>
      </trkpt>
      <trkpt lat="42.26679" lon="20.01981">
        <ele>186.14999389648</ele>
        <time>2023-10-01T09:07:39.000Z</time>
      </trkpt>
      <trkpt lat="42.26678" lon="20.01987">
        <ele>186.63000488281</ele>
        <time>2023-10-01T09:07:38.000Z</time>
      </trkpt>
      <trkpt lat="42.26673" lon="20.0202">
        <ele>186.14999389648</ele>
        <time>2023-10-01T09:07:37.000Z</time>
      </trkpt>
      <trkpt lat="42.26671" lon="20.02037">
        <ele>186.14999389648</ele>
        <time>2023-10-01T09:07:36.000Z</time>
      </trkpt>
      <trkpt lat="42.26672" lon="20.02054">
        <ele>186.14999389648</ele>
        <time>2023-10-01T09:07:35.000Z</time>
      </trkpt>
      <trkpt lat="42.26675" lon="20.02068">
        <ele>186.14999389648</ele>
        <time>2023-10-01T09:07:34.000Z</time>
      </trkpt>
      <trkpt lat="42.26677" lon="20.02077">
        <ele>186.14999389648</ele>
        <time>2023-10-01T09:07:33.000Z</time>
      </trkpt>
      <trkpt lat="42.26683" lon="20.02099">
        <ele>186.14999389648</ele>
        <time>2023-10-01T09:07:32.000Z</time>
      </trkpt>
      <trkpt lat="42.26689" lon="20.02111">
        <ele>186.14999389648</ele>
        <time>2023-10-01T09:07:31.000Z</time>
      </trkpt>
      <trkpt lat="42.26694" lon="20.02122">
        <ele>186.63000488281</ele>
        <time>2023-10-01T09:07:30.000Z</time>
      </trkpt>
      <trkpt lat="42.26701" lon="20.02131">
        <ele>186.63000488281</ele>
        <time>2023-10-01T09:07:29.000Z</time>
      </trkpt>
      <trkpt lat="42.26709" lon="20.02137">
        <ele>187.11000061035</ele>
        <time>2023-10-01T09:07:28.000Z</time>
      </trkpt>
      <trkpt lat="42.26717" lon="20.02141">
        <ele>187.58999633789</ele>
        <time>2023-10-01T09:07:27.000Z</time>
      </trkpt>
      <trkpt lat="42.26727" lon="20.02144">
        <ele>188.08000183105</ele>
        <time>2023-10-01T09:07:26.000Z</time>
      </trkpt>
      <trkpt lat="42.26737" lon="20.02149">
        <ele>188.55999755859</ele>
        <time>2023-10-01T09:07:25.000Z</time>
      </trkpt>
      <trkpt lat="42.26746" lon="20.02157">
        <ele>188.55999755859</ele>
        <time>2023-10-01T09:07:24.000Z</time>
      </trkpt>
      <trkpt lat="42.26751" lon="20.02163">
        <ele>189.03999328613</ele>
        <time>2023-10-01T09:07:23.000Z</time>
      </trkpt>
      <trkpt lat="42.26762" lon="20.0218">
        <ele>189.03999328613</ele>
        <time>2023-10-01T09:07:22.000Z</time>
      </trkpt>
      <trkpt lat="42.26771" lon="20.0219">
        <ele>188.55999755859</ele>
        <time>2023-10-01T09:07:21.000Z</time>
      </trkpt>
      <trkpt lat="42.2678" lon="20.02197">
        <ele>188.55999755859</ele>
        <time>2023-10-01T09:07:20.000Z</time>
      </trkpt>
      <trkpt lat="42.26803" lon="20.02211">
        <ele>187.58999633789</ele>
        <time>2023-10-01T09:07:18.000Z</time>
      </trkpt>
      <trkpt lat="42.26805" lon="20.02212">
        <ele>187.58999633789</ele>
        <time>2023-10-01T09:07:17.000Z</time>
      </trkpt>
      <trkpt lat="42.26896" lon="20.02247">
        <ele>184.22999572754</ele>
        <time>2023-10-01T09:07:10.000Z</time>
      </trkpt>
      <trkpt lat="42.26909" lon="20.02249">
        <ele>184.22999572754</ele>
        <time>2023-10-01T09:07:09.000Z</time>
      </trkpt>
      <trkpt lat="42.2692" lon="20.02249">
        <ele>184.22999572754</ele>
        <time>2023-10-01T09:07:08.000Z</time>
      </trkpt>
      <trkpt lat="42.26933" lon="20.02247">
        <ele>184.22999572754</ele>
        <time>2023-10-01T09:07:07.000Z</time>
      </trkpt>
      <trkpt lat="42.26945" lon="20.02241">
        <ele>184.71000671387</ele>
        <time>2023-10-01T09:07:06.000Z</time>
      </trkpt>
      <trkpt lat="42.26956" lon="20.02233">
        <ele>185.19000244141</ele>
        <time>2023-10-01T09:07:05.000Z</time>
      </trkpt>
      <trkpt lat="42.26976" lon="20.02214">
        <ele>185.66999816895</ele>
        <time>2023-10-01T09:07:03.000Z</time>
      </trkpt>
      <trkpt lat="42.26988" lon="20.02202">
        <ele>185.66999816895</ele>
        <time>2023-10-01T09:07:02.000Z</time>
      </trkpt>
      <trkpt lat="42.26994" lon="20.02195">
        <ele>185.66999816895</ele>
        <time>2023-10-01T09:07:01.000Z</time>
      </trkpt>
      <trkpt lat="42.27033" lon="20.02144">
        <ele>186.14999389648</ele>
        <time>2023-10-01T09:06:58.000Z</time>
      </trkpt>
      <trkpt lat="42.27039" lon="20.02133">
        <ele>185.66999816895</ele>
        <time>2023-10-01T09:06:57.000Z</time>
      </trkpt>
      <trkpt lat="42.27048" lon="20.02113">
        <ele>185.66999816895</ele>
        <time>2023-10-01T09:06:56.000Z</time>
      </trkpt>
      <trkpt lat="42.27055" lon="20.02098">
        <ele>185.66999816895</ele>
        <time>2023-10-01T09:06:55.000Z</time>
      </trkpt>
      <trkpt lat="42.27065" lon="20.02082">
        <ele>185.66999816895</ele>
        <time>2023-10-01T09:06:54.000Z</time>
      </trkpt>
      <trkpt lat="42.27076" lon="20.02068">
        <ele>185.19000244141</ele>
        <time>2023-10-01T09:06:53.000Z</time>
      </trkpt>
      <trkpt lat="42.27086" lon="20.02058">
        <ele>185.66999816895</ele>
        <time>2023-10-01T09:06:52.000Z</time>
      </trkpt>
      <trkpt lat="42.27097" lon="20.02048">
        <ele>185.66999816895</ele>
        <time>2023-10-01T09:06:51.000Z</time>
      </trkpt>
      <trkpt lat="42.27109" lon="20.02041">
        <ele>186.14999389648</ele>
        <time>2023-10-01T09:06:50.000Z</time>
      </trkpt>
      <trkpt lat="42.27122" lon="20.02037">
        <ele>186.63000488281</ele>
        <time>2023-10-01T09:06:49.000Z</time>
      </trkpt>
      <trkpt lat="42.27134" lon="20.02036">
        <ele>187.11000061035</ele>
        <time>2023-10-01T09:06:48.000Z</time>
      </trkpt>
      <trkpt lat="42.27144" lon="20.02037">
        <ele>187.58999633789</ele>
        <time>2023-10-01T09:06:47.000Z</time>
      </trkpt>
      <trkpt lat="42.27263" lon="20.02065">
        <ele>191.91999816895</ele>
        <time>2023-10-01T09:06:38.000Z</time>
      </trkpt>
      <trkpt lat="42.27277" lon="20.02071">
        <ele>191.91999816895</ele>
        <time>2023-10-01T09:06:37.000Z</time>
      </trkpt>
      <trkpt lat="42.27288" lon="20.02078">
        <ele>191.91999816895</ele>
        <time>2023-10-01T09:06:36.000Z</time>
      </trkpt>
      <trkpt lat="42.27298" lon="20.02088">
        <ele>191.91999816895</ele>
        <time>2023-10-01T09:06:35.000Z</time>
      </trkpt>
      <trkpt lat="42.27304" lon="20.02096">
        <ele>191.91999816895</ele>
        <time>2023-10-01T09:06:34.000Z</time>
      </trkpt>
      <trkpt lat="42.27316" lon="20.02111">
        <ele>191.44000244141</ele>
        <time>2023-10-01T09:06:33.000Z</time>
      </trkpt>
      <trkpt lat="42.27324" lon="20.02121">
        <ele>190.96000671387</ele>
        <time>2023-10-01T09:06:32.000Z</time>
      </trkpt>
      <trkpt lat="42.27335" lon="20.02131">
        <ele>190.47999572754</ele>
        <time>2023-10-01T09:06:31.000Z</time>
      </trkpt>
      <trkpt lat="42.27339" lon="20.02134">
        <ele>190.47999572754</ele>
        <time>2023-10-01T09:06:30.000Z</time>
      </trkpt>
      <trkpt lat="42.27381" lon="20.02166">
        <ele>188.55999755859</ele>
        <time>2023-10-01T09:06:27.000Z</time>
      </trkpt>
      <trkpt lat="42.27388" lon="20.02173">
        <ele>188.08000183105</ele>
        <time>2023-10-01T09:06:26.000Z</time>
      </trkpt>
      <trkpt lat="42.27453" lon="20.02243">
        <ele>184.71000671387</ele>
        <time>2023-10-01T09:06:20.000Z</time>
      </trkpt>
      <trkpt lat="42.27458" lon="20.02247">
        <ele>184.71000671387</ele>
        <time>2023-10-01T09:06:19.000Z</time>
      </trkpt>
      <trkpt lat="42.27475" lon="20.0226">
        <ele>184.71000671387</ele>
        <time>2023-10-01T09:06:18.000Z</time>
      </trkpt>
      <trkpt lat="42.27484" lon="20.02268">
        <ele>184.71000671387</ele>
        <time>2023-10-01T09:06:17.000Z</time>
      </trkpt>
      <trkpt lat="42.27493" lon="20.02278">
        <ele>184.71000671387</ele>
        <time>2023-10-01T09:06:16.000Z</time>
      </trkpt>
      <trkpt lat="42.27494" lon="20.02281">
        <ele>184.71000671387</ele>
        <time>2023-10-01T09:06:15.000Z</time>
      </trkpt>
      <trkpt lat="42.27508" lon="20.023">
        <ele>185.19000244141</ele>
        <time>2023-10-01T09:06:14.000Z</time>
      </trkpt>
      <trkpt lat="42.27516" lon="20.02308">
        <ele>185.19000244141</ele>
        <time>2023-10-01T09:06:13.000Z</time>
      </trkpt>
      <trkpt lat="42.27525" lon="20.02314">
        <ele>185.66999816895</ele>
        <time>2023-10-01T09:06:12.000Z</time>
      </trkpt>
      <trkpt lat="42.27535" lon="20.02315">
        <ele>186.14999389648</ele>
        <time>2023-10-01T09:06:11.000Z</time>
      </trkpt>
      <trkpt lat="42.27546" lon="20.02314">
        <ele>186.14999389648</ele>
        <time>2023-10-01T09:06:10.000Z</time>
      </trkpt>
      <trkpt lat="42.27555" lon="20.02313">
        <ele>186.14999389648</ele>
        <time>2023-10-01T09:06:09.000Z</time>
      </trkpt>
      <trkpt lat="42.27564" lon="20.02311">
        <ele>186.14999389648</ele>
        <time>2023-10-01T09:06:08.000Z</time>
      </trkpt>
      <trkpt lat="42.27576" lon="20.0231">
        <ele>186.14999389648</ele>
        <time>2023-10-01T09:06:07.000Z</time>
      </trkpt>
      <trkpt lat="42.27586" lon="20.02313">
        <ele>186.14999389648</ele>
        <time>2023-10-01T09:06:06.000Z</time>
      </trkpt>
      <trkpt lat="42.27595" lon="20.02318">
        <ele>186.14999389648</ele>
        <time>2023-10-01T09:06:05.000Z</time>
      </trkpt>
      <trkpt lat="42.27601" lon="20.02324">
        <ele>186.63000488281</ele>
        <time>2023-10-01T09:06:04.000Z</time>
      </trkpt>
      <trkpt lat="42.27612" lon="20.02335">
        <ele>186.63000488281</ele>
        <time>2023-10-01T09:06:03.000Z</time>
      </trkpt>
      <trkpt lat="42.27624" lon="20.0235">
        <ele>186.63000488281</ele>
        <time>2023-10-01T09:06:01.000Z</time>
      </trkpt>
      <trkpt lat="42.27656" lon="20.0239">
        <ele>187.11000061035</ele>
        <time>2023-10-01T09:05:57.000Z</time>
      </trkpt>
      <trkpt lat="42.27663" lon="20.02398">
        <ele>187.11000061035</ele>
        <time>2023-10-01T09:05:56.000Z</time>
      </trkpt>
      <trkpt lat="42.27683" lon="20.02422">
        <ele>187.58999633789</ele>
        <time>2023-10-01T09:05:53.000Z</time>
      </trkpt>
      <trkpt lat="42.2769" lon="20.02431">
        <ele>188.08000183105</ele>
        <time>2023-10-01T09:05:52.000Z</time>
      </trkpt>
      <trkpt lat="42.27703" lon="20.02448">
        <ele>188.08000183105</ele>
        <time>2023-10-01T09:05:51.000Z</time>
      </trkpt>
      <trkpt lat="42.27708" lon="20.02453">
        <ele>188.08000183105</ele>
        <time>2023-10-01T09:05:50.000Z</time>
      </trkpt>
      <trkpt lat="42.27719" lon="20.02463">
        <ele>188.08000183105</ele>
        <time>2023-10-01T09:05:49.000Z</time>
      </trkpt>
      <trkpt lat="42.27726" lon="20.02467">
        <ele>188.55999755859</ele>
        <time>2023-10-01T09:05:48.000Z</time>
      </trkpt>
      <trkpt lat="42.27837" lon="20.0252">
        <ele>188.08000183105</ele>
        <time>2023-10-01T09:05:36.000Z</time>
      </trkpt>
      <trkpt lat="42.27845" lon="20.02522">
        <ele>188.08000183105</ele>
        <time>2023-10-01T09:05:35.000Z</time>
      </trkpt>
      <trkpt lat="42.27849" lon="20.02524">
        <ele>188.08000183105</ele>
        <time>2023-10-01T09:05:34.000Z</time>
      </trkpt>
      <trkpt lat="42.27861" lon="20.02527">
        <ele>187.58999633789</ele>
        <time>2023-10-01T09:05:33.000Z</time>
      </trkpt>
      <trkpt lat="42.27878" lon="20.02531">
        <ele>187.11000061035</ele>
        <time>2023-10-01T09:05:31.000Z</time>
      </trkpt>
      <trkpt lat="42.27886" lon="20.02533">
        <ele>186.63000488281</ele>
        <time>2023-10-01T09:05:30.000Z</time>
      </trkpt>
      <trkpt lat="42.27889" lon="20.02534">
        <ele>186.63000488281</ele>
        <time>2023-10-01T09:05:29.000Z</time>
      </trkpt>
      <trkpt lat="42.27906" lon="20.02538">
        <ele>186.14999389648</ele>
        <time>2023-10-01T09:05:27.000Z</time>
      </trkpt>
      <trkpt lat="42.27911" lon="20.02539">
        <ele>186.14999389648</ele>
        <time>2023-10-01T09:05:26.000Z</time>
      </trkpt>
      <trkpt lat="42.27921" lon="20.02543">
        <ele>186.14999389648</ele>
        <time>2023-10-01T09:05:25.000Z</time>
      </trkpt>
      <trkpt lat="42.2793" lon="20.02546">
        <ele>185.66999816895</ele>
        <time>2023-10-01T09:05:24.000Z</time>
      </trkpt>
      <trkpt lat="42.27942" lon="20.02549">
        <ele>185.66999816895</ele>
        <time>2023-10-01T09:05:22.000Z</time>
      </trkpt>
      <trkpt lat="42.27948" lon="20.02551">
        <ele>185.19000244141</ele>
        <time>2023-10-01T09:05:21.000Z</time>
      </trkpt>
      <trkpt lat="42.27952" lon="20.02552">
        <ele>185.19000244141</ele>
        <time>2023-10-01T09:05:20.000Z</time>
      </trkpt>
      <trkpt lat="42.27963" lon="20.02554">
        <ele>185.19000244141</ele>
        <time>2023-10-01T09:05:19.000Z</time>
      </trkpt>
      <trkpt lat="42.2797" lon="20.02556">
        <ele>184.71000671387</ele>
        <time>2023-10-01T09:05:18.000Z</time>
      </trkpt>
      <trkpt lat="42.27971" lon="20.02557">
        <ele>184.71000671387</ele>
        <time>2023-10-01T09:05:17.000Z</time>
      </trkpt>
      <trkpt lat="42.27985" lon="20.02563">
        <ele>184.71000671387</ele>
        <time>2023-10-01T09:05:16.000Z</time>
      </trkpt>
      <trkpt lat="42.27991" lon="20.02566">
        <ele>184.71000671387</ele>
        <time>2023-10-01T09:05:15.000Z</time>
      </trkpt>
      <trkpt lat="42.27997" lon="20.02571">
        <ele>184.71000671387</ele>
        <time>2023-10-01T09:05:14.000Z</time>
      </trkpt>
      <trkpt lat="42.28009" lon="20.0258">
        <ele>184.71000671387</ele>
        <time>2023-10-01T09:05:12.000Z</time>
      </trkpt>
      <trkpt lat="42.28013" lon="20.02583">
        <ele>185.19000244141</ele>
        <time>2023-10-01T09:05:11.000Z</time>
      </trkpt>
      <trkpt lat="42.28015" lon="20.02646">
        <ele>184.71000671387</ele>
        <time>2023-10-01T09:04:20.000Z</time>
      </trkpt>
      <trkpt lat="42.28013" lon="20.02654">
        <ele>184.71000671387</ele>
        <time>2023-10-01T09:04:19.000Z</time>
      </trkpt>
      <trkpt lat="42.28012" lon="20.0266">
        <ele>184.71000671387</ele>
        <time>2023-10-01T09:04:18.000Z</time>
      </trkpt>
      <trkpt lat="42.28011" lon="20.02666">
        <ele>184.71000671387</ele>
        <time>2023-10-01T09:04:17.000Z</time>
      </trkpt>
      <trkpt lat="42.2801" lon="20.02677">
        <ele>185.19000244141</ele>
        <time>2023-10-01T09:04:16.000Z</time>
      </trkpt>
      <trkpt lat="42.28009" lon="20.02685">
        <ele>185.19000244141</ele>
        <time>2023-10-01T09:04:15.000Z</time>
      </trkpt>
      <trkpt lat="42.28009" lon="20.02693">
        <ele>185.19000244141</ele>
        <time>2023-10-01T09:04:14.000Z</time>
      </trkpt>
      <trkpt lat="42.28004" lon="20.02799">
        <ele>184.22999572754</ele>
        <time>2023-10-01T09:04:06.000Z</time>
      </trkpt>
      <trkpt lat="42.28002" lon="20.02815">
        <ele>183.75</ele>
        <time>2023-10-01T09:04:05.000Z</time>
      </trkpt>
      <trkpt lat="42.27999" lon="20.02832">
        <ele>183.75</ele>
        <time>2023-10-01T09:04:04.000Z</time>
      </trkpt>
      <trkpt lat="42.27994" lon="20.02848">
        <ele>183.75</ele>
        <time>2023-10-01T09:04:03.000Z</time>
      </trkpt>
      <trkpt lat="42.27988" lon="20.02863">
        <ele>183.75</ele>
        <time>2023-10-01T09:04:02.000Z</time>
      </trkpt>
      <trkpt lat="42.2798" lon="20.02876">
        <ele>183.75</ele>
        <time>2023-10-01T09:04:01.000Z</time>
      </trkpt>
      <trkpt lat="42.2797" lon="20.02887">
        <ele>184.22999572754</ele>
        <time>2023-10-01T09:04:00.000Z</time>
      </trkpt>
      <trkpt lat="42.27959" lon="20.02896">
        <ele>184.71000671387</ele>
        <time>2023-10-01T09:03:59.000Z</time>
      </trkpt>
      <trkpt lat="42.27947" lon="20.02901">
        <ele>185.19000244141</ele>
        <time>2023-10-01T09:03:58.000Z</time>
      </trkpt>
      <trkpt lat="42.27934" lon="20.02902">
        <ele>185.66999816895</ele>
        <time>2023-10-01T09:03:57.000Z</time>
      </trkpt>
      <trkpt lat="42.2792" lon="20.029">
        <ele>185.66999816895</ele>
        <time>2023-10-01T09:03:56.000Z</time>
      </trkpt>
      <trkpt lat="42.27907" lon="20.02896">
        <ele>185.66999816895</ele>
        <time>2023-10-01T09:03:55.000Z</time>
      </trkpt>
      <trkpt lat="42.27904" lon="20.02895">
        <ele>185.66999816895</ele>
        <time>2023-10-01T09:03:54.000Z</time>
      </trkpt>
      <trkpt lat="42.27815" lon="20.02853">
        <ele>185.19000244141</ele>
        <time>2023-10-01T09:03:49.000Z</time>
      </trkpt>
      <trkpt lat="42.27697" lon="20.02801">
        <ele>186.14999389648</ele>
        <time>2023-10-01T09:03:42.000Z</time>
      </trkpt>
      <trkpt lat="42.27682" lon="20.02793">
        <ele>186.63000488281</ele>
        <time>2023-10-01T09:03:41.000Z</time>
      </trkpt>
      <trkpt lat="42.27667" lon="20.02781">
        <ele>187.11000061035</ele>
        <time>2023-10-01T09:03:40.000Z</time>
      </trkpt>
      <trkpt lat="42.27654" lon="20.02766">
        <ele>187.11000061035</ele>
        <time>2023-10-01T09:03:39.000Z</time>
      </trkpt>
      <trkpt lat="42.27647" lon="20.02758">
        <ele>187.11000061035</ele>
        <time>2023-10-01T09:03:38.000Z</time>
      </trkpt>
      <trkpt lat="42.27599" lon="20.02687">
        <ele>188.55999755859</ele>
        <time>2023-10-01T09:03:35.000Z</time>
      </trkpt>
      <trkpt lat="42.27545" lon="20.02581">
        <ele>191.44000244141</ele>
        <time>2023-10-01T09:03:30.000Z</time>
      </trkpt>
      <trkpt lat="42.27541" lon="20.02573">
        <ele>191.44000244141</ele>
        <time>2023-10-01T09:03:29.000Z</time>
      </trkpt>
      <trkpt lat="42.27502" lon="20.0251">
        <ele>193.36000061035</ele>
        <time>2023-10-01T09:03:26.000Z</time>
      </trkpt>
      <trkpt lat="42.2749" lon="20.02496">
        <ele>193.83999633789</ele>
        <time>2023-10-01T09:03:25.000Z</time>
      </trkpt>
      <trkpt lat="42.27486" lon="20.02492">
        <ele>193.83999633789</ele>
        <time>2023-10-01T09:03:24.000Z</time>
      </trkpt>
      <trkpt lat="42.27464" lon="20.02471">
        <ele>194.80000305176</ele>
        <time>2023-10-01T09:03:23.000Z</time>
      </trkpt>
      <trkpt lat="42.27453" lon="20.02459">
        <ele>194.80000305176</ele>
        <time>2023-10-01T09:03:22.000Z</time>
      </trkpt>
      <trkpt lat="42.27445" lon="20.02448">
        <ele>195.2799987793</ele>
        <time>2023-10-01T09:03:21.000Z</time>
      </trkpt>
      <trkpt lat="42.27438" lon="20.02434">
        <ele>196.25</ele>
        <time>2023-10-01T09:03:20.000Z</time>
      </trkpt>
      <trkpt lat="42.27425" lon="20.02407">
        <ele>197.69000244141</ele>
        <time>2023-10-01T09:03:18.000Z</time>
      </trkpt>
      <trkpt lat="42.27417" lon="20.02394">
        <ele>198.64999389648</ele>
        <time>2023-10-01T09:03:17.000Z</time>
      </trkpt>
      <trkpt lat="42.27402" lon="20.02375">
        <ele>199.61000061035</ele>
        <time>2023-10-01T09:03:16.000Z</time>
      </trkpt>
      <trkpt lat="42.27387" lon="20.02359">
        <ele>200.08999633789</ele>
        <time>2023-10-01T09:03:15.000Z</time>
      </trkpt>
      <trkpt lat="42.27295" lon="20.02272">
        <ele>206.33999633789</ele>
        <time>2023-10-01T09:03:09.000Z</time>
      </trkpt>
      <trkpt lat="42.27282" lon="20.02262">
        <ele>207.30000305176</ele>
        <time>2023-10-01T09:03:08.000Z</time>
      </trkpt>
      <trkpt lat="42.2727" lon="20.02257">
        <ele>207.7799987793</ele>
        <time>2023-10-01T09:03:07.000Z</time>
      </trkpt>
      <trkpt lat="42.27258" lon="20.02257">
        <ele>207.30000305176</ele>
        <time>2023-10-01T09:03:06.000Z</time>
      </trkpt>
      <trkpt lat="42.27246" lon="20.02261">
        <ele>207.30000305176</ele>
        <time>2023-10-01T09:03:05.000Z</time>
      </trkpt>
      <trkpt lat="42.27235" lon="20.0227">
        <ele>207.30000305176</ele>
        <time>2023-10-01T09:03:04.000Z</time>
      </trkpt>
      <trkpt lat="42.27212" lon="20.02294">
        <ele>206.82000732422</ele>
        <time>2023-10-01T09:03:02.000Z</time>
      </trkpt>
      <trkpt lat="42.27194" lon="20.02314">
        <ele>206.82000732422</ele>
        <time>2023-10-01T09:03:00.000Z</time>
      </trkpt>
      <trkpt lat="42.27171" lon="20.02347">
        <ele>207.30000305176</ele>
        <time>2023-10-01T09:02:58.000Z</time>
      </trkpt>
      <trkpt lat="42.27137" lon="20.02392">
        <ele>207.7799987793</ele>
        <time>2023-10-01T09:02:56.000Z</time>
      </trkpt>
      <trkpt lat="42.27125" lon="20.02405">
        <ele>208.25999450684</ele>
        <time>2023-10-01T09:02:55.000Z</time>
      </trkpt>
      <trkpt lat="42.27086" lon="20.02443">
        <ele>209.2200012207</ele>
        <time>2023-10-01T09:02:53.000Z</time>
      </trkpt>
      <trkpt lat="42.27061" lon="20.02466">
        <ele>210.66999816895</ele>
        <time>2023-10-01T09:02:51.000Z</time>
      </trkpt>
      <trkpt lat="42.27042" lon="20.02485">
        <ele>211.14999389648</ele>
        <time>2023-10-01T09:02:50.000Z</time>
      </trkpt>
      <trkpt lat="42.26933" lon="20.02586">
        <ele>217.39999389648</ele>
        <time>2023-10-01T09:02:43.000Z</time>
      </trkpt>
      <trkpt lat="42.26918" lon="20.02596">
        <ele>218.36000061035</ele>
        <time>2023-10-01T09:02:42.000Z</time>
      </trkpt>
      <trkpt lat="42.26904" lon="20.02604">
        <ele>218.83999633789</ele>
        <time>2023-10-01T09:02:41.000Z</time>
      </trkpt>
      <trkpt lat="42.26893" lon="20.02608">
        <ele>219.32000732422</ele>
        <time>2023-10-01T09:02:40.000Z</time>
      </trkpt>
      <trkpt lat="42.26871" lon="20.02614">
        <ele>219.80000305176</ele>
        <time>2023-10-01T09:02:39.000Z</time>
      </trkpt>
      <trkpt lat="42.2686" lon="20.02616">
        <ele>220.2799987793</ele>
        <time>2023-10-01T09:02:38.000Z</time>
      </trkpt>
      <trkpt lat="42.26841" lon="20.02617">
        <ele>220.75999450684</ele>
        <time>2023-10-01T09:02:37.000Z</time>
      </trkpt>
      <trkpt lat="42.26827" lon="20.0262">
        <ele>221.24000549316</ele>
        <time>2023-10-01T09:02:36.000Z</time>
      </trkpt>
      <trkpt lat="42.26812" lon="20.02626">
        <ele>222.19999694824</ele>
        <time>2023-10-01T09:02:35.000Z</time>
      </trkpt>
      <trkpt lat="42.26799" lon="20.02635">
        <ele>222.67999267578</ele>
        <time>2023-10-01T09:02:34.000Z</time>
      </trkpt>
      <trkpt lat="42.26786" lon="20.02646">
        <ele>223.16000366211</ele>
        <time>2023-10-01T09:02:33.000Z</time>
      </trkpt>
      <trkpt lat="42.26773" lon="20.02654">
        <ele>223.63999938965</ele>
        <time>2023-10-01T09:02:32.000Z</time>
      </trkpt>
      <trkpt lat="42.26759" lon="20.02658">
        <ele>224.11999511719</ele>
        <time>2023-10-01T09:02:31.000Z</time>
      </trkpt>
      <trkpt lat="42.26745" lon="20.0266">
        <ele>225.08999633789</ele>
        <time>2023-10-01T09:02:30.000Z</time>
      </trkpt>
      <trkpt lat="42.26734" lon="20.02659">
        <ele>226.05000305176</ele>
        <time>2023-10-01T09:02:29.000Z</time>
      </trkpt>
      <trkpt lat="42.26716" lon="20.02655">
        <ele>226.05000305176</ele>
        <time>2023-10-01T09:02:28.000Z</time>
      </trkpt>
      <trkpt lat="42.267" lon="20.02652">
        <ele>226.5299987793</ele>
        <time>2023-10-01T09:02:27.000Z</time>
      </trkpt>
      <trkpt lat="42.26685" lon="20.02652">
        <ele>227.49000549316</ele>
        <time>2023-10-01T09:02:26.000Z</time>
      </trkpt>
      <trkpt lat="42.26669" lon="20.02655">
        <ele>228.92999267578</ele>
        <time>2023-10-01T09:02:25.000Z</time>
      </trkpt>
      <trkpt lat="42.26654" lon="20.02659">
        <ele>229.41000366211</ele>
        <time>2023-10-01T09:02:24.000Z</time>
      </trkpt>
      <trkpt lat="42.26643" lon="20.02659">
        <ele>230.36999511719</ele>
        <time>2023-10-01T09:02:23.000Z</time>
      </trkpt>
      <trkpt lat="42.26626" lon="20.02657">
        <ele>230.85000610352</ele>
        <time>2023-10-01T09:02:22.000Z</time>
      </trkpt>
      <trkpt lat="42.26616" lon="20.02655">
        <ele>231.33000183105</ele>
        <time>2023-10-01T09:02:21.000Z</time>
      </trkpt>
      <trkpt lat="42.26601" lon="20.0265">
        <ele>232.30000305176</ele>
        <time>2023-10-01T09:02:20.000Z</time>
      </trkpt>
      <trkpt lat="42.26589" lon="20.02649">
        <ele>232.7799987793</ele>
        <time>2023-10-01T09:02:19.000Z</time>
      </trkpt>
      <trkpt lat="42.26578" lon="20.02653">
        <ele>233.25999450684</ele>
        <time>2023-10-01T09:02:18.000Z</time>
      </trkpt>
      <trkpt lat="42.26573" lon="20.02655">
        <ele>233.74000549316</ele>
        <time>2023-10-01T09:02:17.000Z</time>
      </trkpt>
      <trkpt lat="42.26553" lon="20.02668">
        <ele>233.74000549316</ele>
        <time>2023-10-01T09:02:16.000Z</time>
      </trkpt>
      <trkpt lat="42.26543" lon="20.02676">
        <ele>233.74000549316</ele>
        <time>2023-10-01T09:02:15.000Z</time>
      </trkpt>
      <trkpt lat="42.26528" lon="20.02687">
        <ele>234.2200012207</ele>
        <time>2023-10-01T09:02:14.000Z</time>
      </trkpt>
      <trkpt lat="42.26515" lon="20.02695">
        <ele>234.2200012207</ele>
        <time>2023-10-01T09:02:13.000Z</time>
      </trkpt>
      <trkpt lat="42.26503" lon="20.02699">
        <ele>234.69999694824</ele>
        <time>2023-10-01T09:02:12.000Z</time>
      </trkpt>
      <trkpt lat="42.26496" lon="20.027">
        <ele>234.69999694824</ele>
        <time>2023-10-01T09:02:11.000Z</time>
      </trkpt>
      <trkpt lat="42.26481" lon="20.02702">
        <ele>234.2200012207</ele>
        <time>2023-10-01T09:02:10.000Z</time>
      </trkpt>
      <trkpt lat="42.26469" lon="20.02703">
        <ele>233.74000549316</ele>
        <time>2023-10-01T09:02:09.000Z</time>
      </trkpt>
      <trkpt lat="42.26458" lon="20.02704">
        <ele>233.74000549316</ele>
        <time>2023-10-01T09:02:08.000Z</time>
      </trkpt>
      <trkpt lat="42.26407" lon="20.02704">
        <ele>232.30000305176</ele>
        <time>2023-10-01T09:02:05.000Z</time>
      </trkpt>
      <trkpt lat="42.26388" lon="20.02706">
        <ele>231.33000183105</ele>
        <time>2023-10-01T09:02:04.000Z</time>
      </trkpt>
      <trkpt lat="42.26372" lon="20.02711">
        <ele>231.33000183105</ele>
        <time>2023-10-01T09:02:03.000Z</time>
      </trkpt>
      <trkpt lat="42.26367" lon="20.02713">
        <ele>231.33000183105</ele>
        <time>2023-10-01T09:02:02.000Z</time>
      </trkpt>
      <trkpt lat="42.26353" lon="20.02721">
        <ele>231.33000183105</ele>
        <time>2023-10-01T09:02:01.000Z</time>
      </trkpt>
      <trkpt lat="42.26282" lon="20.02766">
        <ele>229.88999938965</ele>
        <time>2023-10-01T09:01:57.000Z</time>
      </trkpt>
      <trkpt lat="42.26271" lon="20.02773">
        <ele>229.41000366211</ele>
        <time>2023-10-01T09:01:56.000Z</time>
      </trkpt>
      <trkpt lat="42.26263" lon="20.02782">
        <ele>228.92999267578</ele>
        <time>2023-10-01T09:01:55.000Z</time>
      </trkpt>
      <trkpt lat="42.26257" lon="20.02793">
        <ele>228.44999694824</ele>
        <time>2023-10-01T09:01:54.000Z</time>
      </trkpt>
      <trkpt lat="42.26253" lon="20.02807">
        <ele>228.44999694824</ele>
        <time>2023-10-01T09:01:53.000Z</time>
      </trkpt>
      <trkpt lat="42.2625" lon="20.02823">
        <ele>228.44999694824</ele>
        <time>2023-10-01T09:01:52.000Z</time>
      </trkpt>
      <trkpt lat="42.2625" lon="20.02832">
        <ele>227.9700012207</ele>
        <time>2023-10-01T09:01:51.000Z</time>
      </trkpt>
      <trkpt lat="42.26249" lon="20.02851">
        <ele>227.49000549316</ele>
        <time>2023-10-01T09:01:50.000Z</time>
      </trkpt>
      <trkpt lat="42.26247" lon="20.02866">
        <ele>227.00999450684</ele>
        <time>2023-10-01T09:01:49.000Z</time>
      </trkpt>
      <trkpt lat="42.26244" lon="20.02878">
        <ele>226.5299987793</ele>
        <time>2023-10-01T09:01:48.000Z</time>
      </trkpt>
      <trkpt lat="42.26238" lon="20.02895">
        <ele>225.57000732422</ele>
        <time>2023-10-01T09:01:47.000Z</time>
      </trkpt>
      <trkpt lat="42.26232" lon="20.02908">
        <ele>225.08999633789</ele>
        <time>2023-10-01T09:01:46.000Z</time>
      </trkpt>
      <trkpt lat="42.26224" lon="20.0292">
        <ele>224.61000061035</ele>
        <time>2023-10-01T09:01:45.000Z</time>
      </trkpt>
      <trkpt lat="42.26217" lon="20.0293">
        <ele>224.61000061035</ele>
        <time>2023-10-01T09:01:44.000Z</time>
      </trkpt>
      <trkpt lat="42.26209" lon="20.02939">
        <ele>224.11999511719</ele>
        <time>2023-10-01T09:01:43.000Z</time>
      </trkpt>
      <trkpt lat="42.26207" lon="20.0294">
        <ele>224.11999511719</ele>
        <time>2023-10-01T09:01:42.000Z</time>
      </trkpt>
      <trkpt lat="42.26168" lon="20.0297">
        <ele>223.63999938965</ele>
        <time>2023-10-01T09:01:38.000Z</time>
      </trkpt>
      <trkpt lat="42.26158" lon="20.02978">
        <ele>223.16000366211</ele>
        <time>2023-10-01T09:01:37.000Z</time>
      </trkpt>
      <trkpt lat="42.26147" lon="20.02989">
        <ele>222.67999267578</ele>
        <time>2023-10-01T09:01:36.000Z</time>
      </trkpt>
      <trkpt lat="42.26146" lon="20.02991">
        <ele>222.67999267578</ele>
        <time>2023-10-01T09:01:35.000Z</time>
      </trkpt>
      <trkpt lat="42.26138" lon="20.03003">
        <ele>222.67999267578</ele>
        <time>2023-10-01T09:01:34.000Z</time>
      </trkpt>
      <trkpt lat="42.2612" lon="20.03034">
        <ele>221.24000549316</ele>
        <time>2023-10-01T09:01:32.000Z</time>
      </trkpt>
      <trkpt lat="42.26116" lon="20.0304">
        <ele>221.24000549316</ele>
        <time>2023-10-01T09:01:31.000Z</time>
      </trkpt>
      <trkpt lat="42.26105" lon="20.03055">
        <ele>220.2799987793</ele>
        <time>2023-10-01T09:01:30.000Z</time>
      </trkpt>
      <trkpt lat="42.26099" lon="20.03063">
        <ele>219.80000305176</ele>
        <time>2023-10-01T09:01:29.000Z</time>
      </trkpt>
      <trkpt lat="42.26039" lon="20.03124">
        <ele>214.99000549316</ele>
        <time>2023-10-01T09:01:22.000Z</time>
      </trkpt>
      <trkpt lat="42.25983" lon="20.03176">
        <ele>211.63000488281</ele>
        <time>2023-10-01T09:01:16.000Z</time>
      </trkpt>
      <trkpt lat="42.25981" lon="20.03178">
        <ele>211.63000488281</ele>
        <time>2023-10-01T09:01:15.000Z</time>
      </trkpt>
      <trkpt lat="42.25966" lon="20.03188">
        <ele>210.66999816895</ele>
        <time>2023-10-01T09:01:14.000Z</time>
      </trkpt>
      <trkpt lat="42.25958" lon="20.03193">
        <ele>210.19000244141</ele>
        <time>2023-10-01T09:01:13.000Z</time>
      </trkpt>
      <trkpt lat="42.2595" lon="20.03196">
        <ele>209.2200012207</ele>
        <time>2023-10-01T09:01:12.000Z</time>
      </trkpt>
      <trkpt lat="42.25944" lon="20.03198">
        <ele>208.74000549316</ele>
        <time>2023-10-01T09:01:11.000Z</time>
      </trkpt>
      <trkpt lat="42.25881" lon="20.03218">
        <ele>202.49000549316</ele>
        <time>2023-10-01T09:01:04.000Z</time>
      </trkpt>
      <trkpt lat="42.25874" lon="20.03221">
        <ele>201.5299987793</ele>
        <time>2023-10-01T09:01:03.000Z</time>
      </trkpt>
      <trkpt lat="42.25866" lon="20.03227">
        <ele>200.57000732422</ele>
        <time>2023-10-01T09:01:02.000Z</time>
      </trkpt>
      <trkpt lat="42.2586" lon="20.03233">
        <ele>199.61000061035</ele>
        <time>2023-10-01T09:01:01.000Z</time>
      </trkpt>
      <trkpt lat="42.25855" lon="20.03239">
        <ele>199.13000488281</ele>
        <time>2023-10-01T09:01:00.000Z</time>
      </trkpt>
      <trkpt lat="42.25848" lon="20.03248">
        <ele>197.69000244141</ele>
        <time>2023-10-01T09:00:59.000Z</time>
      </trkpt>
      <trkpt lat="42.25801" lon="20.03342">
        <ele>187.58999633789</ele>
        <time>2023-10-01T09:00:49.000Z</time>
      </trkpt>
      <trkpt lat="42.25797" lon="20.03349">
        <ele>187.11000061035</ele>
        <time>2023-10-01T09:00:48.000Z</time>
      </trkpt>
      <trkpt lat="42.25788" lon="20.03362">
        <ele>186.14999389648</ele>
        <time>2023-10-01T09:00:46.000Z</time>
      </trkpt>
      <trkpt lat="42.25779" lon="20.03373">
        <ele>185.66999816895</ele>
        <time>2023-10-01T09:00:45.000Z</time>
      </trkpt>
      <trkpt lat="42.25775" lon="20.0338">
        <ele>185.66999816895</ele>
        <time>2023-10-01T09:00:44.000Z</time>
      </trkpt>
      <trkpt lat="42.25763" lon="20.034">
        <ele>184.71000671387</ele>
        <time>2023-10-01T09:00:41.000Z</time>
      </trkpt>
      <trkpt lat="42.25756" lon="20.0341">
        <ele>184.71000671387</ele>
        <time>2023-10-01T09:00:40.000Z</time>
      </trkpt>
      <trkpt lat="42.25749" lon="20.03421">
        <ele>184.71000671387</ele>
        <time>2023-10-01T09:00:38.000Z</time>
      </trkpt>
      <trkpt lat="42.25743" lon="20.03429">
        <ele>185.19000244141</ele>
        <time>2023-10-01T09:00:37.000Z</time>
      </trkpt>
      <trkpt lat="42.2574" lon="20.03434">
        <ele>185.19000244141</ele>
        <time>2023-10-01T09:00:36.000Z</time>
      </trkpt>
      <trkpt lat="42.25735" lon="20.03438">
        <ele>184.71000671387</ele>
        <time>2023-10-01T09:00:35.000Z</time>
      </trkpt>
      <trkpt lat="42.2573" lon="20.03441">
        <ele>185.19000244141</ele>
        <time>2023-10-01T09:00:34.000Z</time>
      </trkpt>
      <trkpt lat="42.25724" lon="20.03441">
        <ele>185.19000244141</ele>
        <time>2023-10-01T09:00:33.000Z</time>
      </trkpt>
      <trkpt lat="42.2572" lon="20.0344">
        <ele>185.19000244141</ele>
        <time>2023-10-01T09:00:32.000Z</time>
      </trkpt>
      <trkpt lat="42.25717" lon="20.03439">
        <ele>184.71000671387</ele>
        <time>2023-10-01T09:00:31.000Z</time>
      </trkpt>
      <trkpt lat="42.25709" lon="20.03432">
        <ele>184.22999572754</ele>
        <time>2023-10-01T09:00:29.000Z</time>
      </trkpt>
      <trkpt lat="42.25707" lon="20.0343">
        <ele>184.22999572754</ele>
        <time>2023-10-01T09:00:28.000Z</time>
      </trkpt>
      <trkpt lat="42.25691" lon="20.0341">
        <ele>183.75</ele>
        <time>2023-10-01T09:00:24.000Z</time>
      </trkpt>
      <trkpt lat="42.25689" lon="20.03408">
        <ele>183.27000427246</ele>
        <time>2023-10-01T09:00:23.000Z</time>
      </trkpt>
      <trkpt lat="42.25683" lon="20.034">
        <ele>183.27000427246</ele>
        <time>2023-10-01T09:00:21.000Z</time>
      </trkpt>
      <trkpt lat="42.25664" lon="20.03381">
        <ele>182.30999755859</ele>
        <time>2023-10-01T09:00:13.000Z</time>
      </trkpt>
      <trkpt lat="42.25664" lon="20.03381">
        <ele>184.71000671387</ele>
        <time>2023-10-01T08:59:46.000Z</time>
      </trkpt>
      <trkpt lat="42.25657" lon="20.03369">
        <ele>184.71000671387</ele>
        <time>2023-10-01T08:59:40.000Z</time>
      </trkpt>
      <trkpt lat="42.25656" lon="20.03367">
        <ele>184.71000671387</ele>
        <time>2023-10-01T08:59:39.000Z</time>
      </trkpt>
      <trkpt lat="42.25647" lon="20.03357">
        <ele>185.19000244141</ele>
        <time>2023-10-01T08:59:37.000Z</time>
      </trkpt>
      <trkpt lat="42.25628" lon="20.03333">
        <ele>185.66999816895</ele>
        <time>2023-10-01T08:59:33.000Z</time>
      </trkpt>
      <trkpt lat="42.25616" lon="20.03317">
        <ele>186.14999389648</ele>
        <time>2023-10-01T08:59:31.000Z</time>
      </trkpt>
      <trkpt lat="42.25613" lon="20.03313">
        <ele>186.63000488281</ele>
        <time>2023-10-01T08:59:30.000Z</time>
      </trkpt>
      <trkpt lat="42.25606" lon="20.033">
        <ele>187.11000061035</ele>
        <time>2023-10-01T08:59:29.000Z</time>
      </trkpt>
      <trkpt lat="42.256" lon="20.03292">
        <ele>187.58999633789</ele>
        <time>2023-10-01T08:59:28.000Z</time>
      </trkpt>
      <trkpt lat="42.25593" lon="20.03287">
        <ele>188.08000183105</ele>
        <time>2023-10-01T08:59:27.000Z</time>
      </trkpt>
      <trkpt lat="42.25585" lon="20.03286">
        <ele>188.55999755859</ele>
        <time>2023-10-01T08:59:26.000Z</time>
      </trkpt>
      <trkpt lat="42.25577" lon="20.03288">
        <ele>189.03999328613</ele>
        <time>2023-10-01T08:59:25.000Z</time>
      </trkpt>
      <trkpt lat="42.2557" lon="20.03294">
        <ele>189.52000427246</ele>
        <time>2023-10-01T08:59:24.000Z</time>
      </trkpt>
      <trkpt lat="42.25563" lon="20.03302">
        <ele>190.47999572754</ele>
        <time>2023-10-01T08:59:23.000Z</time>
      </trkpt>
      <trkpt lat="42.25558" lon="20.03312">
        <ele>191.44000244141</ele>
        <time>2023-10-01T08:59:22.000Z</time>
      </trkpt>
      <trkpt lat="42.25553" lon="20.03323">
        <ele>191.91999816895</ele>
        <time>2023-10-01T08:59:21.000Z</time>
      </trkpt>
      <trkpt lat="42.25548" lon="20.03333">
        <ele>192.88000488281</ele>
        <time>2023-10-01T08:59:20.000Z</time>
      </trkpt>
      <trkpt lat="42.25533" lon="20.03362">
        <ele>194.32000732422</ele>
        <time>2023-10-01T08:59:17.000Z</time>
      </trkpt>
      <trkpt lat="42.25478" lon="20.03446">
        <ele>200.08999633789</ele>
        <time>2023-10-01T08:59:09.000Z</time>
      </trkpt>
      <trkpt lat="42.25472" lon="20.03453">
        <ele>201.05000305176</ele>
        <time>2023-10-01T08:59:08.000Z</time>
      </trkpt>
      <trkpt lat="42.25466" lon="20.03459">
        <ele>201.5299987793</ele>
        <time>2023-10-01T08:59:07.000Z</time>
      </trkpt>
      <trkpt lat="42.25463" lon="20.03462">
        <ele>202.00999450684</ele>
        <time>2023-10-01T08:59:06.000Z</time>
      </trkpt>
      <trkpt lat="42.25452" lon="20.0347">
        <ele>203.46000671387</ele>
        <time>2023-10-01T08:59:05.000Z</time>
      </trkpt>
      <trkpt lat="42.25448" lon="20.03473">
        <ele>203.46000671387</ele>
        <time>2023-10-01T08:59:04.000Z</time>
      </trkpt>
      <trkpt lat="42.25439" lon="20.03477">
        <ele>204.89999389648</ele>
        <time>2023-10-01T08:59:03.000Z</time>
      </trkpt>
      <trkpt lat="42.25431" lon="20.03481">
        <ele>205.86000061035</ele>
        <time>2023-10-01T08:59:02.000Z</time>
      </trkpt>
      <trkpt lat="42.25424" lon="20.03483">
        <ele>206.82000732422</ele>
        <time>2023-10-01T08:59:01.000Z</time>
      </trkpt>
      <trkpt lat="42.25411" lon="20.03487">
        <ele>207.7799987793</ele>
        <time>2023-10-01T08:58:59.000Z</time>
      </trkpt>
      <trkpt lat="42.2538" lon="20.03498">
        <ele>210.19000244141</ele>
        <time>2023-10-01T08:58:55.000Z</time>
      </trkpt>
      <trkpt lat="42.25375" lon="20.035">
        <ele>210.19000244141</ele>
        <time>2023-10-01T08:58:54.000Z</time>
      </trkpt>
      <trkpt lat="42.2537" lon="20.03504">
        <ele>210.66999816895</ele>
        <time>2023-10-01T08:58:53.000Z</time>
      </trkpt>
      <trkpt lat="42.25358" lon="20.03514">
        <ele>211.63000488281</ele>
        <time>2023-10-01T08:58:51.000Z</time>
      </trkpt>
      <trkpt lat="42.25349" lon="20.03521">
        <ele>212.58999633789</ele>
        <time>2023-10-01T08:58:50.000Z</time>
      </trkpt>
      <trkpt lat="42.25342" lon="20.03526">
        <ele>213.55000305176</ele>
        <time>2023-10-01T08:58:49.000Z</time>
      </trkpt>
      <trkpt lat="42.25335" lon="20.03529">
        <ele>214.50999450684</ele>
        <time>2023-10-01T08:58:48.000Z</time>
      </trkpt>
      <trkpt lat="42.25328" lon="20.03532">
        <ele>215.4700012207</ele>
        <time>2023-10-01T08:58:47.000Z</time>
      </trkpt>
      <trkpt lat="42.25321" lon="20.03533">
        <ele>215.94999694824</ele>
        <time>2023-10-01T08:58:46.000Z</time>
      </trkpt>
      <trkpt lat="42.25319" lon="20.03533">
        <ele>215.94999694824</ele>
        <time>2023-10-01T08:58:45.000Z</time>
      </trkpt>
      <trkpt lat="42.25305" lon="20.03535">
        <ele>216.91000366211</ele>
        <time>2023-10-01T08:58:44.000Z</time>
      </trkpt>
      <trkpt lat="42.25297" lon="20.03536">
        <ele>217.88000488281</ele>
        <time>2023-10-01T08:58:43.000Z</time>
      </trkpt>
      <trkpt lat="42.25265" lon="20.03543">
        <ele>219.80000305176</ele>
        <time>2023-10-01T08:58:38.000Z</time>
      </trkpt>
      <trkpt lat="42.25255" lon="20.03546">
        <ele>220.75999450684</ele>
        <time>2023-10-01T08:58:37.000Z</time>
      </trkpt>
      <trkpt lat="42.25248" lon="20.03549">
        <ele>221.24000549316</ele>
        <time>2023-10-01T08:58:36.000Z</time>
      </trkpt>
      <trkpt lat="42.25237" lon="20.03552">
        <ele>222.19999694824</ele>
        <time>2023-10-01T08:58:34.000Z</time>
      </trkpt>
      <trkpt lat="42.25234" lon="20.03553">
        <ele>222.19999694824</ele>
        <time>2023-10-01T08:58:33.000Z</time>
      </trkpt>
      <trkpt lat="42.25227" lon="20.03557">
        <ele>223.16000366211</ele>
        <time>2023-10-01T08:58:32.000Z</time>
      </trkpt>
      <trkpt lat="42.25224" lon="20.03557">
        <ele>223.16000366211</ele>
        <time>2023-10-01T08:58:31.000Z</time>
      </trkpt>
      <trkpt lat="42.25209" lon="20.03548">
        <ele>224.11999511719</ele>
        <time>2023-10-01T08:58:24.000Z</time>
      </trkpt>
      <trkpt lat="42.2521" lon="20.03545">
        <ele>224.61000061035</ele>
        <time>2023-10-01T08:58:22.000Z</time>
      </trkpt>
      <trkpt lat="42.25214" lon="20.03545">
        <ele>224.11999511719</ele>
        <time>2023-10-01T08:58:16.000Z</time>
      </trkpt>
      <trkpt lat="42.25218" lon="20.03543">
        <ele>224.61000061035</ele>
        <time>2023-10-01T08:58:15.000Z</time>
      </trkpt>
      <trkpt lat="42.25223" lon="20.0354">
        <ele>224.61000061035</ele>
        <time>2023-10-01T08:58:14.000Z</time>
      </trkpt>
      <trkpt lat="42.25235" lon="20.03533">
        <ele>225.57000732422</ele>
        <time>2023-10-01T08:58:13.000Z</time>
      </trkpt>
      <trkpt lat="42.25237" lon="20.03532">
        <ele>226.05000305176</ele>
        <time>2023-10-01T08:58:12.000Z</time>
      </trkpt>
      <trkpt lat="42.25291" lon="20.0351">
        <ele>232.7799987793</ele>
        <time>2023-10-01T08:58:07.000Z</time>
      </trkpt>
      <trkpt lat="42.25311" lon="20.03502">
        <ele>234.69999694824</ele>
        <time>2023-10-01T08:58:06.000Z</time>
      </trkpt>
      <trkpt lat="42.25321" lon="20.03495">
        <ele>235.66000366211</ele>
        <time>2023-10-01T08:58:05.000Z</time>
      </trkpt>
      <trkpt lat="42.25328" lon="20.03489">
        <ele>236.61999511719</ele>
        <time>2023-10-01T08:58:04.000Z</time>
      </trkpt>
      <trkpt lat="42.25335" lon="20.0348">
        <ele>237.58000183105</ele>
        <time>2023-10-01T08:58:03.000Z</time>
      </trkpt>
      <trkpt lat="42.25342" lon="20.03471">
        <ele>238.53999328613</ele>
        <time>2023-10-01T08:58:02.000Z</time>
      </trkpt>
      <trkpt lat="42.25345" lon="20.03466">
        <ele>239.02000427246</ele>
        <time>2023-10-01T08:58:01.000Z</time>
      </trkpt>
      <trkpt lat="42.25361" lon="20.03437">
        <ele>240.4700012207</ele>
        <time>2023-10-01T08:57:59.000Z</time>
      </trkpt>
      <trkpt lat="42.25368" lon="20.03427">
        <ele>240.94999694824</ele>
        <time>2023-10-01T08:57:58.000Z</time>
      </trkpt>
      <trkpt lat="42.25375" lon="20.0342">
        <ele>241.91000366211</ele>
        <time>2023-10-01T08:57:57.000Z</time>
      </trkpt>
      <trkpt lat="42.25383" lon="20.03414">
        <ele>242.38999938965</ele>
        <time>2023-10-01T08:57:56.000Z</time>
      </trkpt>
      <trkpt lat="42.25386" lon="20.03412">
        <ele>242.38999938965</ele>
        <time>2023-10-01T08:57:55.000Z</time>
      </trkpt>
      <trkpt lat="42.25397" lon="20.03407">
        <ele>244.30999755859</ele>
        <time>2023-10-01T08:57:54.000Z</time>
      </trkpt>
      <trkpt lat="42.25403" lon="20.03404">
        <ele>245.27000427246</ele>
        <time>2023-10-01T08:57:53.000Z</time>
      </trkpt>
      <trkpt lat="42.25407" lon="20.03399">
        <ele>246.22999572754</ele>
        <time>2023-10-01T08:57:52.000Z</time>
      </trkpt>
      <trkpt lat="42.25409" lon="20.03393">
        <ele>246.22999572754</ele>
        <time>2023-10-01T08:57:51.000Z</time>
      </trkpt>
      <trkpt lat="42.25406" lon="20.03388">
        <ele>247.19999694824</ele>
        <time>2023-10-01T08:57:50.000Z</time>
      </trkpt>
      <trkpt lat="42.25402" lon="20.03386">
        <ele>247.67999267578</ele>
        <time>2023-10-01T08:57:49.000Z</time>
      </trkpt>
      <trkpt lat="42.25395" lon="20.03387">
        <ele>248.63999938965</ele>
        <time>2023-10-01T08:57:48.000Z</time>
      </trkpt>
      <trkpt lat="42.25387" lon="20.0339">
        <ele>249.60000610352</ele>
        <time>2023-10-01T08:57:47.000Z</time>
      </trkpt>
      <trkpt lat="42.25377" lon="20.03395">
        <ele>250.55999755859</ele>
        <time>2023-10-01T08:57:46.000Z</time>
      </trkpt>
      <trkpt lat="42.25367" lon="20.03402">
        <ele>252</ele>
        <time>2023-10-01T08:57:45.000Z</time>
      </trkpt>
      <trkpt lat="42.2536" lon="20.03407">
        <ele>252.96000671387</ele>
        <time>2023-10-01T08:57:44.000Z</time>
      </trkpt>
      <trkpt lat="42.25344" lon="20.0342">
        <ele>255.36999511719</ele>
        <time>2023-10-01T08:57:43.000Z</time>
      </trkpt>
      <trkpt lat="42.25332" lon="20.03428">
        <ele>256.80999755859</ele>
        <time>2023-10-01T08:57:42.000Z</time>
      </trkpt>
      <trkpt lat="42.2532" lon="20.03435">
        <ele>258.25</ele>
        <time>2023-10-01T08:57:41.000Z</time>
      </trkpt>
      <trkpt lat="42.2531" lon="20.03439">
        <ele>259.69000244141</ele>
        <time>2023-10-01T08:57:40.000Z</time>
      </trkpt>
      <trkpt lat="42.25295" lon="20.03443">
        <ele>261.14001464844</ele>
        <time>2023-10-01T08:57:39.000Z</time>
      </trkpt>
      <trkpt lat="42.25283" lon="20.03445">
        <ele>262.10000610352</ele>
        <time>2023-10-01T08:57:38.000Z</time>
      </trkpt>
      <trkpt lat="42.25279" lon="20.03446">
        <ele>263.05999755859</ele>
        <time>2023-10-01T08:57:37.000Z</time>
      </trkpt>
      <trkpt lat="42.25262" lon="20.03446">
        <ele>264.98001098633</ele>
        <time>2023-10-01T08:57:36.000Z</time>
      </trkpt>
      <trkpt lat="42.2526" lon="20.03446">
        <ele>265.45999145508</ele>
        <time>2023-10-01T08:57:35.000Z</time>
      </trkpt>
      <trkpt lat="42.25246" lon="20.03448">
        <ele>266.89999389648</ele>
        <time>2023-10-01T08:57:34.000Z</time>
      </trkpt>
      <trkpt lat="42.2524" lon="20.03447">
        <ele>267.38000488281</ele>
        <time>2023-10-01T08:57:33.000Z</time>
      </trkpt>
      <trkpt lat="42.25237" lon="20.03443">
        <ele>268.35000610352</ele>
        <time>2023-10-01T08:57:32.000Z</time>
      </trkpt>
      <trkpt lat="42.25236" lon="20.03437">
        <ele>268.82998657227</ele>
        <time>2023-10-01T08:57:31.000Z</time>
      </trkpt>
      <trkpt lat="42.25238" lon="20.03431">
        <ele>268.82998657227</ele>
        <time>2023-10-01T08:57:30.000Z</time>
      </trkpt>
      <trkpt lat="42.25244" lon="20.03426">
        <ele>269.30999755859</ele>
        <time>2023-10-01T08:57:29.000Z</time>
      </trkpt>
      <trkpt lat="42.25251" lon="20.03424">
        <ele>269.79000854492</ele>
        <time>2023-10-01T08:57:28.000Z</time>
      </trkpt>
      <trkpt lat="42.25258" lon="20.03423">
        <ele>270.26998901367</ele>
        <time>2023-10-01T08:57:27.000Z</time>
      </trkpt>
      <trkpt lat="42.25269" lon="20.03421">
        <ele>271.70999145508</ele>
        <time>2023-10-01T08:57:26.000Z</time>
      </trkpt>
      <trkpt lat="42.2528" lon="20.03418">
        <ele>272.67001342773</ele>
        <time>2023-10-01T08:57:25.000Z</time>
      </trkpt>
      <trkpt lat="42.25289" lon="20.03413">
        <ele>273.63000488281</ele>
        <time>2023-10-01T08:57:24.000Z</time>
      </trkpt>
      <trkpt lat="42.25296" lon="20.03407">
        <ele>274.10998535156</ele>
        <time>2023-10-01T08:57:23.000Z</time>
      </trkpt>
      <trkpt lat="42.25306" lon="20.03398">
        <ele>275.07000732422</ele>
        <time>2023-10-01T08:57:22.000Z</time>
      </trkpt>
      <trkpt lat="42.25319" lon="20.03382">
        <ele>276.04000854492</ele>
        <time>2023-10-01T08:57:20.000Z</time>
      </trkpt>
      <trkpt lat="42.25335" lon="20.0336">
        <ele>277.48001098633</ele>
        <time>2023-10-01T08:57:18.000Z</time>
      </trkpt>
      <trkpt lat="42.25343" lon="20.0335">
        <ele>277.95999145508</ele>
        <time>2023-10-01T08:57:17.000Z</time>
      </trkpt>
      <trkpt lat="42.25349" lon="20.03344">
        <ele>278.44000244141</ele>
        <time>2023-10-01T08:57:16.000Z</time>
      </trkpt>
      <trkpt lat="42.25356" lon="20.0334">
        <ele>278.92001342773</ele>
        <time>2023-10-01T08:57:15.000Z</time>
      </trkpt>
      <trkpt lat="42.25357" lon="20.03339">
        <ele>279.39999389648</ele>
        <time>2023-10-01T08:57:14.000Z</time>
      </trkpt>
      <trkpt lat="42.25369" lon="20.03333">
        <ele>280.35998535156</ele>
        <time>2023-10-01T08:57:13.000Z</time>
      </trkpt>
      <trkpt lat="42.25389" lon="20.03321">
        <ele>281.79998779297</ele>
        <time>2023-10-01T08:57:10.000Z</time>
      </trkpt>
      <trkpt lat="42.25394" lon="20.03316">
        <ele>282.2799987793</ele>
        <time>2023-10-01T08:57:09.000Z</time>
      </trkpt>
      <trkpt lat="42.25399" lon="20.03309">
        <ele>282.76998901367</ele>
        <time>2023-10-01T08:57:08.000Z</time>
      </trkpt>
      <trkpt lat="42.25402" lon="20.03304">
        <ele>282.76998901367</ele>
        <time>2023-10-01T08:57:07.000Z</time>
      </trkpt>
      <trkpt lat="42.25405" lon="20.03297">
        <ele>283.25</ele>
        <time>2023-10-01T08:57:06.000Z</time>
      </trkpt>
      <trkpt lat="42.25413" lon="20.03279">
        <ele>283.73001098633</ele>
        <time>2023-10-01T08:57:05.000Z</time>
      </trkpt>
      <trkpt lat="42.25417" lon="20.0327">
        <ele>284.20999145508</ele>
        <time>2023-10-01T08:57:04.000Z</time>
      </trkpt>
      <trkpt lat="42.25424" lon="20.03241">
        <ele>285.17001342773</ele>
        <time>2023-10-01T08:57:01.000Z</time>
      </trkpt>
      <trkpt lat="42.25427" lon="20.03232">
        <ele>285.64999389648</ele>
        <time>2023-10-01T08:57:00.000Z</time>
      </trkpt>
      <trkpt lat="42.25429" lon="20.03225">
        <ele>286.13000488281</ele>
        <time>2023-10-01T08:56:59.000Z</time>
      </trkpt>
      <trkpt lat="42.25429" lon="20.0322">
        <ele>286.13000488281</ele>
        <time>2023-10-01T08:56:58.000Z</time>
      </trkpt>
      <trkpt lat="42.25426" lon="20.03217">
        <ele>286.13000488281</ele>
        <time>2023-10-01T08:56:57.000Z</time>
      </trkpt>
      <trkpt lat="42.25422" lon="20.03218">
        <ele>286.60998535156</ele>
        <time>2023-10-01T08:56:56.000Z</time>
      </trkpt>
      <trkpt lat="42.25419" lon="20.03223">
        <ele>287.08999633789</ele>
        <time>2023-10-01T08:56:55.000Z</time>
      </trkpt>
      <trkpt lat="42.25415" lon="20.03232">
        <ele>288.04998779297</ele>
        <time>2023-10-01T08:56:54.000Z</time>
      </trkpt>
      <trkpt lat="42.25406" lon="20.03255">
        <ele>289.48999023438</ele>
        <time>2023-10-01T08:56:52.000Z</time>
      </trkpt>
      <trkpt lat="42.25401" lon="20.03267">
        <ele>289.9700012207</ele>
        <time>2023-10-01T08:56:51.000Z</time>
      </trkpt>
      <trkpt lat="42.25395" lon="20.03277">
        <ele>290.94000244141</ele>
        <time>2023-10-01T08:56:50.000Z</time>
      </trkpt>
      <trkpt lat="42.25387" lon="20.03285">
        <ele>291.89999389648</ele>
        <time>2023-10-01T08:56:49.000Z</time>
      </trkpt>
      <trkpt lat="42.25379" lon="20.03291">
        <ele>292.85998535156</ele>
        <time>2023-10-01T08:56:48.000Z</time>
      </trkpt>
      <trkpt lat="42.25378" lon="20.03291">
        <ele>292.85998535156</ele>
        <time>2023-10-01T08:56:47.000Z</time>
      </trkpt>
      <trkpt lat="42.2537" lon="20.03295">
        <ele>293.33999633789</ele>
        <time>2023-10-01T08:56:46.000Z</time>
      </trkpt>
      <trkpt lat="42.25345" lon="20.03307">
        <ele>295.73999023438</ele>
        <time>2023-10-01T08:56:44.000Z</time>
      </trkpt>
      <trkpt lat="42.25342" lon="20.03308">
        <ele>296.2200012207</ele>
        <time>2023-10-01T08:56:43.000Z</time>
      </trkpt>
      <trkpt lat="42.25306" lon="20.03324">
        <ele>299.10998535156</ele>
        <time>2023-10-01T08:56:40.000Z</time>
      </trkpt>
      <trkpt lat="42.25301" lon="20.03327">
        <ele>299.58999633789</ele>
        <time>2023-10-01T08:56:39.000Z</time>
      </trkpt>
      <trkpt lat="42.25273" lon="20.03337">
        <ele>302.4700012207</ele>
        <time>2023-10-01T08:56:36.000Z</time>
      </trkpt>
      <trkpt lat="42.25232" lon="20.03351">
        <ele>304.88000488281</ele>
        <time>2023-10-01T08:56:32.000Z</time>
      </trkpt>
      <trkpt lat="42.25206" lon="20.0336">
        <ele>307.2799987793</ele>
        <time>2023-10-01T08:56:29.000Z</time>
      </trkpt>
      <trkpt lat="42.25199" lon="20.03362">
        <ele>307.76000976562</ele>
        <time>2023-10-01T08:56:28.000Z</time>
      </trkpt>
      <trkpt lat="42.25193" lon="20.03363">
        <ele>308.23999023438</ele>
        <time>2023-10-01T08:56:27.000Z</time>
      </trkpt>
      <trkpt lat="42.25186" lon="20.03362">
        <ele>308.7200012207</ele>
        <time>2023-10-01T08:56:26.000Z</time>
      </trkpt>
      <trkpt lat="42.25181" lon="20.03357">
        <ele>309.67999267578</ele>
        <time>2023-10-01T08:56:25.000Z</time>
      </trkpt>
      <trkpt lat="42.25176" lon="20.0335">
        <ele>310.16000366211</ele>
        <time>2023-10-01T08:56:24.000Z</time>
      </trkpt>
      <trkpt lat="42.25172" lon="20.0334">
        <ele>311.11999511719</ele>
        <time>2023-10-01T08:56:23.000Z</time>
      </trkpt>
      <trkpt lat="42.25169" lon="20.03333">
        <ele>311.60000610352</ele>
        <time>2023-10-01T08:56:22.000Z</time>
      </trkpt>
      <trkpt lat="42.25165" lon="20.03318">
        <ele>312.57000732422</ele>
        <time>2023-10-01T08:56:21.000Z</time>
      </trkpt>
      <trkpt lat="42.25159" lon="20.03301">
        <ele>313.5299987793</ele>
        <time>2023-10-01T08:56:20.000Z</time>
      </trkpt>
      <trkpt lat="42.25154" lon="20.03289">
        <ele>314.48999023438</ele>
        <time>2023-10-01T08:56:19.000Z</time>
      </trkpt>
      <trkpt lat="42.25148" lon="20.03279">
        <ele>315.45001220703</ele>
        <time>2023-10-01T08:56:18.000Z</time>
      </trkpt>
      <trkpt lat="42.2514" lon="20.03264">
        <ele>317.36999511719</ele>
        <time>2023-10-01T08:56:17.000Z</time>
      </trkpt>
      <trkpt lat="42.25121" lon="20.03229">
        <ele>318.80999755859</ele>
        <time>2023-10-01T08:56:14.000Z</time>
      </trkpt>
      <trkpt lat="42.25116" lon="20.0322">
        <ele>319.29998779297</ele>
        <time>2023-10-01T08:56:13.000Z</time>
      </trkpt>
      <trkpt lat="42.25113" lon="20.03215">
        <ele>319.29998779297</ele>
        <time>2023-10-01T08:56:12.000Z</time>
      </trkpt>
      <trkpt lat="42.25101" lon="20.03201">
        <ele>319.7799987793</ele>
        <time>2023-10-01T08:56:11.000Z</time>
      </trkpt>
      <trkpt lat="42.25094" lon="20.03192">
        <ele>320.26000976562</ele>
        <time>2023-10-01T08:56:10.000Z</time>
      </trkpt>
      <trkpt lat="42.25086" lon="20.03186">
        <ele>320.73999023438</ele>
        <time>2023-10-01T08:56:09.000Z</time>
      </trkpt>
      <trkpt lat="42.25079" lon="20.03181">
        <ele>320.73999023438</ele>
        <time>2023-10-01T08:56:08.000Z</time>
      </trkpt>
      <trkpt lat="42.25072" lon="20.03178">
        <ele>320.73999023438</ele>
        <time>2023-10-01T08:56:07.000Z</time>
      </trkpt>
      <trkpt lat="42.25065" lon="20.03178">
        <ele>320.73999023438</ele>
        <time>2023-10-01T08:56:06.000Z</time>
      </trkpt>
      <trkpt lat="42.25058" lon="20.03183">
        <ele>320.73999023438</ele>
        <time>2023-10-01T08:56:05.000Z</time>
      </trkpt>
      <trkpt lat="42.25053" lon="20.0319">
        <ele>320.73999023438</ele>
        <time>2023-10-01T08:56:04.000Z</time>
      </trkpt>
      <trkpt lat="42.2505" lon="20.03196">
        <ele>320.73999023438</ele>
        <time>2023-10-01T08:56:03.000Z</time>
      </trkpt>
      <trkpt lat="42.25047" lon="20.03205">
        <ele>320.73999023438</ele>
        <time>2023-10-01T08:56:02.000Z</time>
      </trkpt>
      <trkpt lat="42.25045" lon="20.03214">
        <ele>321.2200012207</ele>
        <time>2023-10-01T08:56:01.000Z</time>
      </trkpt>
      <trkpt lat="42.25045" lon="20.03222">
        <ele>321.2200012207</ele>
        <time>2023-10-01T08:56:00.000Z</time>
      </trkpt>
      <trkpt lat="42.25044" lon="20.03234">
        <ele>321.70001220703</ele>
        <time>2023-10-01T08:55:59.000Z</time>
      </trkpt>
      <trkpt lat="42.25044" lon="20.03245">
        <ele>321.70001220703</ele>
        <time>2023-10-01T08:55:58.000Z</time>
      </trkpt>
      <trkpt lat="42.25042" lon="20.03255">
        <ele>321.70001220703</ele>
        <time>2023-10-01T08:55:57.000Z</time>
      </trkpt>
      <trkpt lat="42.25039" lon="20.03266">
        <ele>321.70001220703</ele>
        <time>2023-10-01T08:55:56.000Z</time>
      </trkpt>
      <trkpt lat="42.25036" lon="20.03275">
        <ele>321.70001220703</ele>
        <time>2023-10-01T08:55:55.000Z</time>
      </trkpt>
      <trkpt lat="42.25031" lon="20.03284">
        <ele>321.70001220703</ele>
        <time>2023-10-01T08:55:54.000Z</time>
      </trkpt>
      <trkpt lat="42.25014" lon="20.03319">
        <ele>322.66000366211</ele>
        <time>2023-10-01T08:55:51.000Z</time>
      </trkpt>
      <trkpt lat="42.25008" lon="20.03329">
        <ele>323.61999511719</ele>
        <time>2023-10-01T08:55:50.000Z</time>
      </trkpt>
      <trkpt lat="42.25004" lon="20.03334">
        <ele>323.61999511719</ele>
        <time>2023-10-01T08:55:49.000Z</time>
      </trkpt>
      <trkpt lat="42.24993" lon="20.03344">
        <ele>324.57998657227</ele>
        <time>2023-10-01T08:55:48.000Z</time>
      </trkpt>
      <trkpt lat="42.24986" lon="20.0335">
        <ele>325.54000854492</ele>
        <time>2023-10-01T08:55:47.000Z</time>
      </trkpt>
      <trkpt lat="42.24978" lon="20.03354">
        <ele>326.01998901367</ele>
        <time>2023-10-01T08:55:46.000Z</time>
      </trkpt>
      <trkpt lat="42.24973" lon="20.03355">
        <ele>326.5</ele>
        <time>2023-10-01T08:55:45.000Z</time>
      </trkpt>
      <trkpt lat="42.24943" lon="20.03362">
        <ele>327.95001220703</ele>
        <time>2023-10-01T08:55:42.000Z</time>
      </trkpt>
      <trkpt lat="42.24934" lon="20.03366">
        <ele>327.95001220703</ele>
        <time>2023-10-01T08:55:41.000Z</time>
      </trkpt>
      <trkpt lat="42.24926" lon="20.03373">
        <ele>327.95001220703</ele>
        <time>2023-10-01T08:55:40.000Z</time>
      </trkpt>
      <trkpt lat="42.24919" lon="20.03382">
        <ele>327.95001220703</ele>
        <time>2023-10-01T08:55:39.000Z</time>
      </trkpt>
      <trkpt lat="42.24915" lon="20.03391">
        <ele>327.95001220703</ele>
        <time>2023-10-01T08:55:38.000Z</time>
      </trkpt>
      <trkpt lat="42.24905" lon="20.03418">
        <ele>327.95001220703</ele>
        <time>2023-10-01T08:55:36.000Z</time>
      </trkpt>
      <trkpt lat="42.249" lon="20.03428">
        <ele>327.95001220703</ele>
        <time>2023-10-01T08:55:35.000Z</time>
      </trkpt>
      <trkpt lat="42.24894" lon="20.03438">
        <ele>327.95001220703</ele>
        <time>2023-10-01T08:55:34.000Z</time>
      </trkpt>
      <trkpt lat="42.24887" lon="20.03447">
        <ele>327.95001220703</ele>
        <time>2023-10-01T08:55:33.000Z</time>
      </trkpt>
      <trkpt lat="42.24879" lon="20.03455">
        <ele>327.95001220703</ele>
        <time>2023-10-01T08:55:32.000Z</time>
      </trkpt>
      <trkpt lat="42.24871" lon="20.0346">
        <ele>327.95001220703</ele>
        <time>2023-10-01T08:55:31.000Z</time>
      </trkpt>
      <trkpt lat="42.24867" lon="20.03461">
        <ele>327.95001220703</ele>
        <time>2023-10-01T08:55:30.000Z</time>
      </trkpt>
      <trkpt lat="42.24829" lon="20.0347">
        <ele>326.98999023438</ele>
        <time>2023-10-01T08:55:26.000Z</time>
      </trkpt>
      <trkpt lat="42.2482" lon="20.03472">
        <ele>326.98999023438</ele>
        <time>2023-10-01T08:55:25.000Z</time>
      </trkpt>
      <trkpt lat="42.24809" lon="20.03471">
        <ele>326.98999023438</ele>
        <time>2023-10-01T08:55:24.000Z</time>
      </trkpt>
      <trkpt lat="42.24801" lon="20.03469">
        <ele>327.4700012207</ele>
        <time>2023-10-01T08:55:23.000Z</time>
      </trkpt>
      <trkpt lat="42.24798" lon="20.03468">
        <ele>327.4700012207</ele>
        <time>2023-10-01T08:55:22.000Z</time>
      </trkpt>
      <trkpt lat="42.24783" lon="20.03462">
        <ele>327.95001220703</ele>
        <time>2023-10-01T08:55:21.000Z</time>
      </trkpt>
      <trkpt lat="42.24777" lon="20.03459">
        <ele>328.42999267578</ele>
        <time>2023-10-01T08:55:20.000Z</time>
      </trkpt>
      <trkpt lat="42.24766" lon="20.03453">
        <ele>328.42999267578</ele>
        <time>2023-10-01T08:55:19.000Z</time>
      </trkpt>
      <trkpt lat="42.24757" lon="20.03448">
        <ele>329.39001464844</ele>
        <time>2023-10-01T08:55:18.000Z</time>
      </trkpt>
      <trkpt lat="42.2475" lon="20.03446">
        <ele>329.39001464844</ele>
        <time>2023-10-01T08:55:17.000Z</time>
      </trkpt>
      <trkpt lat="42.24743" lon="20.03446">
        <ele>329.39001464844</ele>
        <time>2023-10-01T08:55:16.000Z</time>
      </trkpt>
      <trkpt lat="42.24738" lon="20.03448">
        <ele>329.86999511719</ele>
        <time>2023-10-01T08:55:15.000Z</time>
      </trkpt>
      <trkpt lat="42.24733" lon="20.03452">
        <ele>329.86999511719</ele>
        <time>2023-10-01T08:55:14.000Z</time>
      </trkpt>
      <trkpt lat="42.2473" lon="20.03457">
        <ele>329.86999511719</ele>
        <time>2023-10-01T08:55:13.000Z</time>
      </trkpt>
      <trkpt lat="42.24727" lon="20.03462">
        <ele>330.35000610352</ele>
        <time>2023-10-01T08:55:12.000Z</time>
      </trkpt>
      <trkpt lat="42.24725" lon="20.03469">
        <ele>330.35000610352</ele>
        <time>2023-10-01T08:55:11.000Z</time>
      </trkpt>
      <trkpt lat="42.24725" lon="20.03478">
        <ele>330.35000610352</ele>
        <time>2023-10-01T08:55:10.000Z</time>
      </trkpt>
      <trkpt lat="42.24727" lon="20.03487">
        <ele>330.82998657227</ele>
        <time>2023-10-01T08:55:09.000Z</time>
      </trkpt>
      <trkpt lat="42.24729" lon="20.03498">
        <ele>330.82998657227</ele>
        <time>2023-10-01T08:55:08.000Z</time>
      </trkpt>
      <trkpt lat="42.24731" lon="20.03504">
        <ele>331.30999755859</ele>
        <time>2023-10-01T08:55:07.000Z</time>
      </trkpt>
      <trkpt lat="42.24739" lon="20.03526">
        <ele>332.26998901367</ele>
        <time>2023-10-01T08:55:05.000Z</time>
      </trkpt>
      <trkpt lat="42.24741" lon="20.03532">
        <ele>332.26998901367</ele>
        <time>2023-10-01T08:55:04.000Z</time>
      </trkpt>
      <trkpt lat="42.24745" lon="20.03545">
        <ele>332.75</ele>
        <time>2023-10-01T08:55:03.000Z</time>
      </trkpt>
      <trkpt lat="42.24747" lon="20.0355">
        <ele>332.75</ele>
        <time>2023-10-01T08:55:02.000Z</time>
      </trkpt>
      <trkpt lat="42.24752" lon="20.03566">
        <ele>332.75</ele>
        <time>2023-10-01T08:55:00.000Z</time>
      </trkpt>
      <trkpt lat="42.24758" lon="20.03583">
        <ele>333.23001098633</ele>
        <time>2023-10-01T08:54:59.000Z</time>
      </trkpt>
      <trkpt lat="42.24761" lon="20.03592">
        <ele>333.70999145508</ele>
        <time>2023-10-01T08:54:58.000Z</time>
      </trkpt>
      <trkpt lat="42.24766" lon="20.03597">
        <ele>335.16000366211</ele>
        <time>2023-10-01T08:54:57.000Z</time>
      </trkpt>
      <trkpt lat="42.24772" lon="20.03601">
        <ele>336.60000610352</ele>
        <time>2023-10-01T08:54:56.000Z</time>
      </trkpt>
      <trkpt lat="42.24778" lon="20.03605">
        <ele>337.07998657227</ele>
        <time>2023-10-01T08:54:55.000Z</time>
      </trkpt>
      <trkpt lat="42.2479" lon="20.03609">
        <ele>337.55999755859</ele>
        <time>2023-10-01T08:54:54.000Z</time>
      </trkpt>
      <trkpt lat="42.248" lon="20.03615">
        <ele>338.51998901367</ele>
        <time>2023-10-01T08:54:53.000Z</time>
      </trkpt>
      <trkpt lat="42.24808" lon="20.03621">
        <ele>339.48001098633</ele>
        <time>2023-10-01T08:54:52.000Z</time>
      </trkpt>
      <trkpt lat="42.24811" lon="20.03623">
        <ele>339.95999145508</ele>
        <time>2023-10-01T08:54:51.000Z</time>
      </trkpt>
      <trkpt lat="42.24827" lon="20.03638">
        <ele>341.89001464844</ele>
        <time>2023-10-01T08:54:49.000Z</time>
      </trkpt>
      <trkpt lat="42.24842" lon="20.03654">
        <ele>343.32998657227</ele>
        <time>2023-10-01T08:54:47.000Z</time>
      </trkpt>
      <trkpt lat="42.24846" lon="20.03661">
        <ele>343.80999755859</ele>
        <time>2023-10-01T08:54:46.000Z</time>
      </trkpt>
      <trkpt lat="42.24848" lon="20.03669">
        <ele>344.29000854492</ele>
        <time>2023-10-01T08:54:45.000Z</time>
      </trkpt>
      <trkpt lat="42.24849" lon="20.03677">
        <ele>344.76998901367</ele>
        <time>2023-10-01T08:54:44.000Z</time>
      </trkpt>
      <trkpt lat="42.24848" lon="20.03686">
        <ele>345.25</ele>
        <time>2023-10-01T08:54:43.000Z</time>
      </trkpt>
      <trkpt lat="42.24844" lon="20.03695">
        <ele>346.20999145508</ele>
        <time>2023-10-01T08:54:42.000Z</time>
      </trkpt>
      <trkpt lat="42.2484" lon="20.03702">
        <ele>347.17001342773</ele>
        <time>2023-10-01T08:54:41.000Z</time>
      </trkpt>
      <trkpt lat="42.24834" lon="20.03711">
        <ele>348.61999511719</ele>
        <time>2023-10-01T08:54:40.000Z</time>
      </trkpt>
      <trkpt lat="42.24826" lon="20.03722">
        <ele>349.57998657227</ele>
        <time>2023-10-01T08:54:39.000Z</time>
      </trkpt>
      <trkpt lat="42.24821" lon="20.0373">
        <ele>350.54000854492</ele>
        <time>2023-10-01T08:54:38.000Z</time>
      </trkpt>
      <trkpt lat="42.24817" lon="20.03736">
        <ele>351.01998901367</ele>
        <time>2023-10-01T08:54:37.000Z</time>
      </trkpt>
      <trkpt lat="42.24811" lon="20.03747">
        <ele>352.45999145508</ele>
        <time>2023-10-01T08:54:36.000Z</time>
      </trkpt>
      <trkpt lat="42.24805" lon="20.03758">
        <ele>353.42001342773</ele>
        <time>2023-10-01T08:54:35.000Z</time>
      </trkpt>
      <trkpt lat="42.24804" lon="20.03762">
        <ele>353.42001342773</ele>
        <time>2023-10-01T08:54:34.000Z</time>
      </trkpt>
      <trkpt lat="42.24798" lon="20.03774">
        <ele>354.38000488281</ele>
        <time>2023-10-01T08:54:33.000Z</time>
      </trkpt>
      <trkpt lat="42.24788" lon="20.03793">
        <ele>356.30999755859</ele>
        <time>2023-10-01T08:54:31.000Z</time>
      </trkpt>
      <trkpt lat="42.24784" lon="20.03804">
        <ele>356.79000854492</ele>
        <time>2023-10-01T08:54:30.000Z</time>
      </trkpt>
      <trkpt lat="42.2478" lon="20.03818">
        <ele>357.75</ele>
        <time>2023-10-01T08:54:29.000Z</time>
      </trkpt>
      <trkpt lat="42.2478" lon="20.03833">
        <ele>358.70999145508</ele>
        <time>2023-10-01T08:54:28.000Z</time>
      </trkpt>
      <trkpt lat="42.2478" lon="20.03839">
        <ele>358.70999145508</ele>
        <time>2023-10-01T08:54:27.000Z</time>
      </trkpt>
      <trkpt lat="42.2479" lon="20.03905">
        <ele>362.54998779297</ele>
        <time>2023-10-01T08:54:23.000Z</time>
      </trkpt>
      <trkpt lat="42.2479" lon="20.03911">
        <ele>363.04000854492</ele>
        <time>2023-10-01T08:54:22.000Z</time>
      </trkpt>
      <trkpt lat="42.24792" lon="20.03934">
        <ele>364</ele>
        <time>2023-10-01T08:54:21.000Z</time>
      </trkpt>
      <trkpt lat="42.24793" lon="20.03973">
        <ele>364.48001098633</ele>
        <time>2023-10-01T08:54:18.000Z</time>
      </trkpt>
      <trkpt lat="42.24792" lon="20.03999">
        <ele>364.48001098633</ele>
        <time>2023-10-01T08:54:17.000Z</time>
      </trkpt>
      <trkpt lat="42.24792" lon="20.04013">
        <ele>364.95999145508</ele>
        <time>2023-10-01T08:54:16.000Z</time>
      </trkpt>
      <trkpt lat="42.24794" lon="20.04027">
        <ele>365.44000244141</ele>
        <time>2023-10-01T08:54:15.000Z</time>
      </trkpt>
      <trkpt lat="42.24797" lon="20.0404">
        <ele>365.92001342773</ele>
        <time>2023-10-01T08:54:14.000Z</time>
      </trkpt>
      <trkpt lat="42.24799" lon="20.04047">
        <ele>366.39999389648</ele>
        <time>2023-10-01T08:54:13.000Z</time>
      </trkpt>
      <trkpt lat="42.24807" lon="20.04067">
        <ele>367.83999633789</ele>
        <time>2023-10-01T08:54:12.000Z</time>
      </trkpt>
      <trkpt lat="42.24813" lon="20.0408">
        <ele>368.79998779297</ele>
        <time>2023-10-01T08:54:11.000Z</time>
      </trkpt>
      <trkpt lat="42.2482" lon="20.04094">
        <ele>369.76000976562</ele>
        <time>2023-10-01T08:54:10.000Z</time>
      </trkpt>
      <trkpt lat="42.24828" lon="20.04106">
        <ele>371.20999145508</ele>
        <time>2023-10-01T08:54:09.000Z</time>
      </trkpt>
      <trkpt lat="42.24831" lon="20.0411">
        <ele>371.69000244141</ele>
        <time>2023-10-01T08:54:08.000Z</time>
      </trkpt>
      <trkpt lat="42.24858" lon="20.04142">
        <ele>375.04998779297</ele>
        <time>2023-10-01T08:54:05.000Z</time>
      </trkpt>
      <trkpt lat="42.24871" lon="20.04154">
        <ele>376.01000976562</ele>
        <time>2023-10-01T08:54:03.000Z</time>
      </trkpt>
      <trkpt lat="42.24881" lon="20.04161">
        <ele>376.9700012207</ele>
        <time>2023-10-01T08:54:02.000Z</time>
      </trkpt>
      <trkpt lat="42.24893" lon="20.0417">
        <ele>378.42001342773</ele>
        <time>2023-10-01T08:54:01.000Z</time>
      </trkpt>
      <trkpt lat="42.24899" lon="20.04176">
        <ele>378.89999389648</ele>
        <time>2023-10-01T08:54:00.000Z</time>
      </trkpt>
      <trkpt lat="42.24903" lon="20.04184">
        <ele>379.38000488281</ele>
        <time>2023-10-01T08:53:59.000Z</time>
      </trkpt>
      <trkpt lat="42.24904" lon="20.04192">
        <ele>380.33999633789</ele>
        <time>2023-10-01T08:53:58.000Z</time>
      </trkpt>
      <trkpt lat="42.24902" lon="20.04198">
        <ele>380.82000732422</ele>
        <time>2023-10-01T08:53:57.000Z</time>
      </trkpt>
      <trkpt lat="42.24897" lon="20.04201">
        <ele>381.7799987793</ele>
        <time>2023-10-01T08:53:56.000Z</time>
      </trkpt>
      <trkpt lat="42.24891" lon="20.04201">
        <ele>382.73999023438</ele>
        <time>2023-10-01T08:53:55.000Z</time>
      </trkpt>
      <trkpt lat="42.24883" lon="20.04196">
        <ele>383.70001220703</ele>
        <time>2023-10-01T08:53:54.000Z</time>
      </trkpt>
      <trkpt lat="42.24876" lon="20.04189">
        <ele>384.66000366211</ele>
        <time>2023-10-01T08:53:53.000Z</time>
      </trkpt>
      <trkpt lat="42.24867" lon="20.04181">
        <ele>385.14999389648</ele>
        <time>2023-10-01T08:53:52.000Z</time>
      </trkpt>
      <trkpt lat="42.24861" lon="20.04176">
        <ele>385.63000488281</ele>
        <time>2023-10-01T08:53:51.000Z</time>
      </trkpt>
      <trkpt lat="42.24841" lon="20.04163">
        <ele>387.07000732422</ele>
        <time>2023-10-01T08:53:49.000Z</time>
      </trkpt>
      <trkpt lat="42.24827" lon="20.04152">
        <ele>388.0299987793</ele>
        <time>2023-10-01T08:53:48.000Z</time>
      </trkpt>
      <trkpt lat="42.2482" lon="20.04145">
        <ele>388.51000976562</ele>
        <time>2023-10-01T08:53:47.000Z</time>
      </trkpt>
      <trkpt lat="42.24815" lon="20.04139">
        <ele>388.98999023438</ele>
        <time>2023-10-01T08:53:46.000Z</time>
      </trkpt>
      <trkpt lat="42.24793" lon="20.04112">
        <ele>390.91000366211</ele>
        <time>2023-10-01T08:53:43.000Z</time>
      </trkpt>
      <trkpt lat="42.24787" lon="20.04108">
        <ele>391.39001464844</ele>
        <time>2023-10-01T08:53:42.000Z</time>
      </trkpt>
      <trkpt lat="42.24783" lon="20.04108">
        <ele>392.35998535156</ele>
        <time>2023-10-01T08:53:41.000Z</time>
      </trkpt>
      <trkpt lat="42.2478" lon="20.04112">
        <ele>392.83999633789</ele>
        <time>2023-10-01T08:53:40.000Z</time>
      </trkpt>
      <trkpt lat="42.2478" lon="20.04118">
        <ele>393.79998779297</ele>
        <time>2023-10-01T08:53:39.000Z</time>
      </trkpt>
      <trkpt lat="42.24784" lon="20.04124">
        <ele>395.23999023438</ele>
        <time>2023-10-01T08:53:38.000Z</time>
      </trkpt>
      <trkpt lat="42.24788" lon="20.04129">
        <ele>395.7200012207</ele>
        <time>2023-10-01T08:53:37.000Z</time>
      </trkpt>
      <trkpt lat="42.248" lon="20.04143">
        <ele>398.11999511719</ele>
        <time>2023-10-01T08:53:35.000Z</time>
      </trkpt>
      <trkpt lat="42.24812" lon="20.04158">
        <ele>400.04998779297</ele>
        <time>2023-10-01T08:53:34.000Z</time>
      </trkpt>
      <trkpt lat="42.24815" lon="20.04163">
        <ele>400.5299987793</ele>
        <time>2023-10-01T08:53:33.000Z</time>
      </trkpt>
      <trkpt lat="42.2483" lon="20.04186">
        <ele>403.41000366211</ele>
        <time>2023-10-01T08:53:31.000Z</time>
      </trkpt>
      <trkpt lat="42.24832" lon="20.04193">
        <ele>403.89001464844</ele>
        <time>2023-10-01T08:53:30.000Z</time>
      </trkpt>
      <trkpt lat="42.24832" lon="20.042">
        <ele>404.85000610352</ele>
        <time>2023-10-01T08:53:29.000Z</time>
      </trkpt>
      <trkpt lat="42.24828" lon="20.04206">
        <ele>405.80999755859</ele>
        <time>2023-10-01T08:53:28.000Z</time>
      </trkpt>
      <trkpt lat="42.24822" lon="20.0421">
        <ele>406.76998901367</ele>
        <time>2023-10-01T08:53:27.000Z</time>
      </trkpt>
      <trkpt lat="42.24813" lon="20.04213">
        <ele>408.2200012207</ele>
        <time>2023-10-01T08:53:26.000Z</time>
      </trkpt>
      <trkpt lat="42.24804" lon="20.04215">
        <ele>409.66000366211</ele>
        <time>2023-10-01T08:53:25.000Z</time>
      </trkpt>
      <trkpt lat="42.24793" lon="20.04215">
        <ele>411.10000610352</ele>
        <time>2023-10-01T08:53:24.000Z</time>
      </trkpt>
      <trkpt lat="42.24784" lon="20.04214">
        <ele>412.54000854492</ele>
        <time>2023-10-01T08:53:23.000Z</time>
      </trkpt>
      <trkpt lat="42.24719" lon="20.04199">
        <ele>420.70999145508</ele>
        <time>2023-10-01T08:53:18.000Z</time>
      </trkpt>
      <trkpt lat="42.24706" lon="20.04198">
        <ele>422.16000366211</ele>
        <time>2023-10-01T08:53:17.000Z</time>
      </trkpt>
      <trkpt lat="42.24694" lon="20.042">
        <ele>423.60000610352</ele>
        <time>2023-10-01T08:53:16.000Z</time>
      </trkpt>
      <trkpt lat="42.24683" lon="20.04208">
        <ele>424.55999755859</ele>
        <time>2023-10-01T08:53:15.000Z</time>
      </trkpt>
      <trkpt lat="42.24674" lon="20.04219">
        <ele>426</ele>
        <time>2023-10-01T08:53:14.000Z</time>
      </trkpt>
      <trkpt lat="42.24669" lon="20.0423">
        <ele>427.44000244141</ele>
        <time>2023-10-01T08:53:13.000Z</time>
      </trkpt>
      <trkpt lat="42.2466" lon="20.04245">
        <ele>429.36999511719</ele>
        <time>2023-10-01T08:53:12.000Z</time>
      </trkpt>
      <trkpt lat="42.24651" lon="20.04256">
        <ele>431.29000854492</ele>
        <time>2023-10-01T08:53:11.000Z</time>
      </trkpt>
      <trkpt lat="42.24639" lon="20.04264">
        <ele>433.69000244141</ele>
        <time>2023-10-01T08:53:10.000Z</time>
      </trkpt>
      <trkpt lat="42.24612" lon="20.04278">
        <ele>437.54000854492</ele>
        <time>2023-10-01T08:53:08.000Z</time>
      </trkpt>
      <trkpt lat="42.24606" lon="20.04281">
        <ele>438.5</ele>
        <time>2023-10-01T08:53:07.000Z</time>
      </trkpt>
      <trkpt lat="42.24586" lon="20.04294">
        <ele>440.89999389648</ele>
        <time>2023-10-01T08:53:06.000Z</time>
      </trkpt>
      <trkpt lat="42.24574" lon="20.04304">
        <ele>441.85998535156</ele>
        <time>2023-10-01T08:53:05.000Z</time>
      </trkpt>
      <trkpt lat="42.24565" lon="20.04314">
        <ele>442.33999633789</ele>
        <time>2023-10-01T08:53:04.000Z</time>
      </trkpt>
      <trkpt lat="42.24539" lon="20.04349">
        <ele>446.19000244141</ele>
        <time>2023-10-01T08:53:01.000Z</time>
      </trkpt>
      <trkpt lat="42.24525" lon="20.0437">
        <ele>448.58999633789</ele>
        <time>2023-10-01T08:53:00.000Z</time>
      </trkpt>
      <trkpt lat="42.24518" lon="20.04385">
        <ele>449.54998779297</ele>
        <time>2023-10-01T08:52:59.000Z</time>
      </trkpt>
      <trkpt lat="42.24513" lon="20.04402">
        <ele>451.48001098633</ele>
        <time>2023-10-01T08:52:58.000Z</time>
      </trkpt>
      <trkpt lat="42.24511" lon="20.0441">
        <ele>451.95999145508</ele>
        <time>2023-10-01T08:52:57.000Z</time>
      </trkpt>
      <trkpt lat="42.24507" lon="20.04435">
        <ele>454.35998535156</ele>
        <time>2023-10-01T08:52:56.000Z</time>
      </trkpt>
      <trkpt lat="42.24503" lon="20.04454">
        <ele>455.79998779297</ele>
        <time>2023-10-01T08:52:55.000Z</time>
      </trkpt>
      <trkpt lat="42.24499" lon="20.0447">
        <ele>457.23999023438</ele>
        <time>2023-10-01T08:52:54.000Z</time>
      </trkpt>
      <trkpt lat="42.2448" lon="20.04522">
        <ele>461.57000732422</ele>
        <time>2023-10-01T08:52:51.000Z</time>
      </trkpt>
      <trkpt lat="42.24474" lon="20.04536">
        <ele>462.5299987793</ele>
        <time>2023-10-01T08:52:50.000Z</time>
      </trkpt>
      <trkpt lat="42.24469" lon="20.04546">
        <ele>463.48999023438</ele>
        <time>2023-10-01T08:52:49.000Z</time>
      </trkpt>
      <trkpt lat="42.2446" lon="20.0456">
        <ele>464.92999267578</ele>
        <time>2023-10-01T08:52:48.000Z</time>
      </trkpt>
      <trkpt lat="42.24453" lon="20.04566">
        <ele>465.89999389648</ele>
        <time>2023-10-01T08:52:47.000Z</time>
      </trkpt>
      <trkpt lat="42.24444" lon="20.0457">
        <ele>466.85998535156</ele>
        <time>2023-10-01T08:52:46.000Z</time>
      </trkpt>
      <trkpt lat="42.24422" lon="20.04572">
        <ele>468.29998779297</ele>
        <time>2023-10-01T08:52:44.000Z</time>
      </trkpt>
      <trkpt lat="42.24411" lon="20.04575">
        <ele>469.26000976562</ele>
        <time>2023-10-01T08:52:43.000Z</time>
      </trkpt>
      <trkpt lat="42.24385" lon="20.04586">
        <ele>472.14001464844</ele>
        <time>2023-10-01T08:52:41.000Z</time>
      </trkpt>
      <trkpt lat="42.24374" lon="20.04593">
        <ele>473.58999633789</ele>
        <time>2023-10-01T08:52:40.000Z</time>
      </trkpt>
      <trkpt lat="42.24362" lon="20.04602">
        <ele>474.07000732422</ele>
        <time>2023-10-01T08:52:39.000Z</time>
      </trkpt>
      <trkpt lat="42.24353" lon="20.04612">
        <ele>475.0299987793</ele>
        <time>2023-10-01T08:52:38.000Z</time>
      </trkpt>
      <trkpt lat="42.24338" lon="20.04629">
        <ele>476.95001220703</ele>
        <time>2023-10-01T08:52:36.000Z</time>
      </trkpt>
      <trkpt lat="42.24329" lon="20.0464">
        <ele>478.86999511719</ele>
        <time>2023-10-01T08:52:35.000Z</time>
      </trkpt>
      <trkpt lat="42.24321" lon="20.04645">
        <ele>479.83999633789</ele>
        <time>2023-10-01T08:52:34.000Z</time>
      </trkpt>
      <trkpt lat="42.24312" lon="20.04647">
        <ele>480.79998779297</ele>
        <time>2023-10-01T08:52:33.000Z</time>
      </trkpt>
      <trkpt lat="42.24302" lon="20.04647">
        <ele>482.7200012207</ele>
        <time>2023-10-01T08:52:32.000Z</time>
      </trkpt>
      <trkpt lat="42.24291" lon="20.04645">
        <ele>484.64001464844</ele>
        <time>2023-10-01T08:52:31.000Z</time>
      </trkpt>
      <trkpt lat="42.24279" lon="20.04642">
        <ele>485.60000610352</ele>
        <time>2023-10-01T08:52:30.000Z</time>
      </trkpt>
      <trkpt lat="42.24268" lon="20.04637">
        <ele>486.55999755859</ele>
        <time>2023-10-01T08:52:29.000Z</time>
      </trkpt>
      <trkpt lat="42.24258" lon="20.04632">
        <ele>487.5299987793</ele>
        <time>2023-10-01T08:52:28.000Z</time>
      </trkpt>
      <trkpt lat="42.24212" lon="20.04597">
        <ele>490.89001464844</ele>
        <time>2023-10-01T08:52:24.000Z</time>
      </trkpt>
      <trkpt lat="42.242" lon="20.0459">
        <ele>491.36999511719</ele>
        <time>2023-10-01T08:52:23.000Z</time>
      </trkpt>
      <trkpt lat="42.24188" lon="20.04587">
        <ele>492.32998657227</ele>
        <time>2023-10-01T08:52:22.000Z</time>
      </trkpt>
      <trkpt lat="42.24175" lon="20.04586">
        <ele>492.80999755859</ele>
        <time>2023-10-01T08:52:21.000Z</time>
      </trkpt>
      <trkpt lat="42.24166" lon="20.04587">
        <ele>493.76998901367</ele>
        <time>2023-10-01T08:52:20.000Z</time>
      </trkpt>
      <trkpt lat="42.24149" lon="20.0459">
        <ele>494.26000976562</ele>
        <time>2023-10-01T08:52:19.000Z</time>
      </trkpt>
      <trkpt lat="42.24138" lon="20.04594">
        <ele>495.2200012207</ele>
        <time>2023-10-01T08:52:18.000Z</time>
      </trkpt>
      <trkpt lat="42.24129" lon="20.046">
        <ele>496.17999267578</ele>
        <time>2023-10-01T08:52:17.000Z</time>
      </trkpt>
      <trkpt lat="42.24124" lon="20.04609">
        <ele>497.14001464844</ele>
        <time>2023-10-01T08:52:16.000Z</time>
      </trkpt>
      <trkpt lat="42.24121" lon="20.0462">
        <ele>498.10000610352</ele>
        <time>2023-10-01T08:52:15.000Z</time>
      </trkpt>
      <trkpt lat="42.24121" lon="20.04632">
        <ele>499.05999755859</ele>
        <time>2023-10-01T08:52:14.000Z</time>
      </trkpt>
      <trkpt lat="42.24125" lon="20.04645">
        <ele>500.01998901367</ele>
        <time>2023-10-01T08:52:13.000Z</time>
      </trkpt>
      <trkpt lat="42.2413" lon="20.04658">
        <ele>501.45999145508</ele>
        <time>2023-10-01T08:52:12.000Z</time>
      </trkpt>
      <trkpt lat="42.24134" lon="20.04664">
        <ele>501.95001220703</ele>
        <time>2023-10-01T08:52:11.000Z</time>
      </trkpt>
      <trkpt lat="42.24145" lon="20.04679">
        <ele>503.39001464844</ele>
        <time>2023-10-01T08:52:10.000Z</time>
      </trkpt>
      <trkpt lat="42.24152" lon="20.04689">
        <ele>504.82998657227</ele>
        <time>2023-10-01T08:52:09.000Z</time>
      </trkpt>
      <trkpt lat="42.24157" lon="20.04702">
        <ele>505.79000854492</ele>
        <time>2023-10-01T08:52:08.000Z</time>
      </trkpt>
      <trkpt lat="42.2416" lon="20.04708">
        <ele>506.75</ele>
        <time>2023-10-01T08:52:07.000Z</time>
      </trkpt>
      <trkpt lat="42.2417" lon="20.0474">
        <ele>509.16000366211</ele>
        <time>2023-10-01T08:52:05.000Z</time>
      </trkpt>
      <trkpt lat="42.24173" lon="20.04753">
        <ele>510.11999511719</ele>
        <time>2023-10-01T08:52:04.000Z</time>
      </trkpt>
      <trkpt lat="42.24173" lon="20.04767">
        <ele>511.07998657227</ele>
        <time>2023-10-01T08:52:03.000Z</time>
      </trkpt>
      <trkpt lat="42.24171" lon="20.04782">
        <ele>512.52001953125</ele>
        <time>2023-10-01T08:52:02.000Z</time>
      </trkpt>
      <trkpt lat="42.24165" lon="20.04808">
        <ele>513.96002197266</ele>
        <time>2023-10-01T08:52:00.000Z</time>
      </trkpt>
      <trkpt lat="42.24163" lon="20.04821">
        <ele>514.44000244141</ele>
        <time>2023-10-01T08:51:59.000Z</time>
      </trkpt>
      <trkpt lat="42.24164" lon="20.04831">
        <ele>515.40002441406</ele>
        <time>2023-10-01T08:51:58.000Z</time>
      </trkpt>
      <trkpt lat="42.24165" lon="20.0484">
        <ele>515.88000488281</ele>
        <time>2023-10-01T08:51:57.000Z</time>
      </trkpt>
      <trkpt lat="42.24167" lon="20.04856">
        <ele>516.36999511719</ele>
        <time>2023-10-01T08:51:56.000Z</time>
      </trkpt>
      <trkpt lat="42.2417" lon="20.04866">
        <ele>517.33001708984</ele>
        <time>2023-10-01T08:51:55.000Z</time>
      </trkpt>
      <trkpt lat="42.24173" lon="20.04875">
        <ele>517.80999755859</ele>
        <time>2023-10-01T08:51:54.000Z</time>
      </trkpt>
      <trkpt lat="42.24179" lon="20.04882">
        <ele>518.28997802734</ele>
        <time>2023-10-01T08:51:53.000Z</time>
      </trkpt>
      <trkpt lat="42.24186" lon="20.04887">
        <ele>518.77001953125</ele>
        <time>2023-10-01T08:51:52.000Z</time>
      </trkpt>
      <trkpt lat="42.24193" lon="20.0489">
        <ele>519.25</ele>
        <time>2023-10-01T08:51:51.000Z</time>
      </trkpt>
      <trkpt lat="42.24209" lon="20.04896">
        <ele>520.21002197266</ele>
        <time>2023-10-01T08:51:49.000Z</time>
      </trkpt>
      <trkpt lat="42.24215" lon="20.049">
        <ele>520.69000244141</ele>
        <time>2023-10-01T08:51:48.000Z</time>
      </trkpt>
      <trkpt lat="42.24217" lon="20.04906">
        <ele>521.16998291016</ele>
        <time>2023-10-01T08:51:47.000Z</time>
      </trkpt>
      <trkpt lat="42.24216" lon="20.04913">
        <ele>522.13000488281</ele>
        <time>2023-10-01T08:51:46.000Z</time>
      </trkpt>
      <trkpt lat="42.24212" lon="20.04918">
        <ele>522.60998535156</ele>
        <time>2023-10-01T08:51:45.000Z</time>
      </trkpt>
      <trkpt lat="42.24204" lon="20.0492">
        <ele>523.09002685547</ele>
        <time>2023-10-01T08:51:44.000Z</time>
      </trkpt>
      <trkpt lat="42.24196" lon="20.04919">
        <ele>524.05999755859</ele>
        <time>2023-10-01T08:51:43.000Z</time>
      </trkpt>
      <trkpt lat="42.24188" lon="20.04916">
        <ele>524.53997802734</ele>
        <time>2023-10-01T08:51:42.000Z</time>
      </trkpt>
      <trkpt lat="42.24184" lon="20.04913">
        <ele>525.02001953125</ele>
        <time>2023-10-01T08:51:41.000Z</time>
      </trkpt>
      <trkpt lat="42.2417" lon="20.04902">
        <ele>526.46002197266</ele>
        <time>2023-10-01T08:51:40.000Z</time>
      </trkpt>
      <trkpt lat="42.24162" lon="20.04894">
        <ele>526.94000244141</ele>
        <time>2023-10-01T08:51:39.000Z</time>
      </trkpt>
      <trkpt lat="42.24156" lon="20.04884">
        <ele>527.90002441406</ele>
        <time>2023-10-01T08:51:38.000Z</time>
      </trkpt>
      <trkpt lat="42.24152" lon="20.04875">
        <ele>528.38000488281</ele>
        <time>2023-10-01T08:51:37.000Z</time>
      </trkpt>
      <trkpt lat="42.2415" lon="20.04868">
        <ele>528.38000488281</ele>
        <time>2023-10-01T08:51:36.000Z</time>
      </trkpt>
      <trkpt lat="42.24143" lon="20.04847">
        <ele>529.34002685547</ele>
        <time>2023-10-01T08:51:35.000Z</time>
      </trkpt>
      <trkpt lat="42.2414" lon="20.04833">
        <ele>529.82000732422</ele>
        <time>2023-10-01T08:51:34.000Z</time>
      </trkpt>
      <trkpt lat="42.24138" lon="20.0482">
        <ele>530.78997802734</ele>
        <time>2023-10-01T08:51:33.000Z</time>
      </trkpt>
      <trkpt lat="42.24137" lon="20.04806">
        <ele>531.75</ele>
        <time>2023-10-01T08:51:32.000Z</time>
      </trkpt>
      <trkpt lat="42.24138" lon="20.04794">
        <ele>532.71002197266</ele>
        <time>2023-10-01T08:51:31.000Z</time>
      </trkpt>
      <trkpt lat="42.24138" lon="20.0479">
        <ele>533.19000244141</ele>
        <time>2023-10-01T08:51:30.000Z</time>
      </trkpt>
      <trkpt lat="42.24141" lon="20.04773">
        <ele>535.10998535156</ele>
        <time>2023-10-01T08:51:29.000Z</time>
      </trkpt>
      <trkpt lat="42.24141" lon="20.04765">
        <ele>536.54998779297</ele>
        <time>2023-10-01T08:51:28.000Z</time>
      </trkpt>
      <trkpt lat="42.24138" lon="20.04758">
        <ele>536.54998779297</ele>
        <time>2023-10-01T08:51:27.000Z</time>
      </trkpt>
      <trkpt lat="42.24133" lon="20.04757">
        <ele>537.51000976562</ele>
        <time>2023-10-01T08:51:26.000Z</time>
      </trkpt>
      <trkpt lat="42.24128" lon="20.0476">
        <ele>538.47998046875</ele>
        <time>2023-10-01T08:51:25.000Z</time>
      </trkpt>
      <trkpt lat="42.24124" lon="20.04768">
        <ele>539.44000244141</ele>
        <time>2023-10-01T08:51:24.000Z</time>
      </trkpt>
      <trkpt lat="42.24121" lon="20.04777">
        <ele>540.40002441406</ele>
        <time>2023-10-01T08:51:23.000Z</time>
      </trkpt>
      <trkpt lat="42.2412" lon="20.04784">
        <ele>540.88000488281</ele>
        <time>2023-10-01T08:51:22.000Z</time>
      </trkpt>
      <trkpt lat="42.24116" lon="20.04805">
        <ele>542.32000732422</ele>
        <time>2023-10-01T08:51:21.000Z</time>
      </trkpt>
      <trkpt lat="42.24113" lon="20.04818">
        <ele>543.76000976562</ele>
        <time>2023-10-01T08:51:20.000Z</time>
      </trkpt>
      <trkpt lat="42.24113" lon="20.04821">
        <ele>543.76000976562</ele>
        <time>2023-10-01T08:51:19.000Z</time>
      </trkpt>
      <trkpt lat="42.24112" lon="20.04849">
        <ele>546.65002441406</ele>
        <time>2023-10-01T08:51:18.000Z</time>
      </trkpt>
      <trkpt lat="42.24112" lon="20.04852">
        <ele>546.65002441406</ele>
        <time>2023-10-01T08:51:17.000Z</time>
      </trkpt>
      <trkpt lat="42.24114" lon="20.04879">
        <ele>549.04998779297</ele>
        <time>2023-10-01T08:51:16.000Z</time>
      </trkpt>
      <trkpt lat="42.24116" lon="20.04894">
        <ele>550.01000976562</ele>
        <time>2023-10-01T08:51:15.000Z</time>
      </trkpt>
      <trkpt lat="42.24121" lon="20.04908">
        <ele>550.96997070312</ele>
        <time>2023-10-01T08:51:14.000Z</time>
      </trkpt>
      <trkpt lat="42.24126" lon="20.0492">
        <ele>552.40997314453</ele>
        <time>2023-10-01T08:51:13.000Z</time>
      </trkpt>
      <trkpt lat="42.24134" lon="20.04932">
        <ele>553.38000488281</ele>
        <time>2023-10-01T08:51:12.000Z</time>
      </trkpt>
      <trkpt lat="42.24142" lon="20.04942">
        <ele>554.82000732422</ele>
        <time>2023-10-01T08:51:11.000Z</time>
      </trkpt>
      <trkpt lat="42.24152" lon="20.04949">
        <ele>556.26000976562</ele>
        <time>2023-10-01T08:51:10.000Z</time>
      </trkpt>
      <trkpt lat="42.24153" lon="20.0495">
        <ele>556.26000976562</ele>
        <time>2023-10-01T08:51:09.000Z</time>
      </trkpt>
      <trkpt lat="42.24187" lon="20.04966">
        <ele>560.10998535156</ele>
        <time>2023-10-01T08:51:06.000Z</time>
      </trkpt>
      <trkpt lat="42.24215" lon="20.04981">
        <ele>563.95001220703</ele>
        <time>2023-10-01T08:51:03.000Z</time>
      </trkpt>
      <trkpt lat="42.24223" lon="20.04986">
        <ele>564.90997314453</ele>
        <time>2023-10-01T08:51:02.000Z</time>
      </trkpt>
      <trkpt lat="42.24234" lon="20.04992">
        <ele>565.86999511719</ele>
        <time>2023-10-01T08:51:01.000Z</time>
      </trkpt>
      <trkpt lat="42.24255" lon="20.05003">
        <ele>567.79998779297</ele>
        <time>2023-10-01T08:50:59.000Z</time>
      </trkpt>
      <trkpt lat="42.24262" lon="20.05008">
        <ele>568.76000976562</ele>
        <time>2023-10-01T08:50:58.000Z</time>
      </trkpt>
      <trkpt lat="42.24269" lon="20.05014">
        <ele>569.23999023438</ele>
        <time>2023-10-01T08:50:57.000Z</time>
      </trkpt>
      <trkpt lat="42.24273" lon="20.0502">
        <ele>570.20001220703</ele>
        <time>2023-10-01T08:50:56.000Z</time>
      </trkpt>
      <trkpt lat="42.2428" lon="20.05029">
        <ele>571.15997314453</ele>
        <time>2023-10-01T08:50:55.000Z</time>
      </trkpt>
      <trkpt lat="42.24286" lon="20.05033">
        <ele>571.64001464844</ele>
        <time>2023-10-01T08:50:54.000Z</time>
      </trkpt>
      <trkpt lat="42.24294" lon="20.05038">
        <ele>572.59997558594</ele>
        <time>2023-10-01T08:50:53.000Z</time>
      </trkpt>
      <trkpt lat="42.24301" lon="20.05043">
        <ele>573.55999755859</ele>
        <time>2023-10-01T08:50:52.000Z</time>
      </trkpt>
      <trkpt lat="42.24305" lon="20.05048">
        <ele>574.03997802734</ele>
        <time>2023-10-01T08:50:51.000Z</time>
      </trkpt>
      <trkpt lat="42.24317" lon="20.05062">
        <ele>575.48999023438</ele>
        <time>2023-10-01T08:50:49.000Z</time>
      </trkpt>
      <trkpt lat="42.24323" lon="20.05067">
        <ele>576.45001220703</ele>
        <time>2023-10-01T08:50:48.000Z</time>
      </trkpt>
      <trkpt lat="42.2433" lon="20.05067">
        <ele>576.92999267578</ele>
        <time>2023-10-01T08:50:47.000Z</time>
      </trkpt>
      <trkpt lat="42.24336" lon="20.05066">
        <ele>577.40997314453</ele>
        <time>2023-10-01T08:50:46.000Z</time>
      </trkpt>
      <trkpt lat="42.24352" lon="20.05062">
        <ele>578.36999511719</ele>
        <time>2023-10-01T08:50:44.000Z</time>
      </trkpt>
      <trkpt lat="42.24359" lon="20.05062">
        <ele>579.33001708984</ele>
        <time>2023-10-01T08:50:43.000Z</time>
      </trkpt>
      <trkpt lat="42.24365" lon="20.05063">
        <ele>579.80999755859</ele>
        <time>2023-10-01T08:50:42.000Z</time>
      </trkpt>
      <trkpt lat="42.24371" lon="20.05066">
        <ele>580.28997802734</ele>
        <time>2023-10-01T08:50:41.000Z</time>
      </trkpt>
      <trkpt lat="42.24374" lon="20.05071">
        <ele>580.77001953125</ele>
        <time>2023-10-01T08:50:40.000Z</time>
      </trkpt>
      <trkpt lat="42.24376" lon="20.05079">
        <ele>581.72998046875</ele>
        <time>2023-10-01T08:50:39.000Z</time>
      </trkpt>
      <trkpt lat="42.24376" lon="20.05087">
        <ele>582.21997070312</ele>
        <time>2023-10-01T08:50:38.000Z</time>
      </trkpt>
      <trkpt lat="42.24376" lon="20.05098">
        <ele>582.70001220703</ele>
        <time>2023-10-01T08:50:37.000Z</time>
      </trkpt>
      <trkpt lat="42.24375" lon="20.05106">
        <ele>582.70001220703</ele>
        <time>2023-10-01T08:50:36.000Z</time>
      </trkpt>
      <trkpt lat="42.24374" lon="20.05112">
        <ele>582.70001220703</ele>
        <time>2023-10-01T08:50:35.000Z</time>
      </trkpt>
      <trkpt lat="42.24367" lon="20.05139">
        <ele>583.65997314453</ele>
        <time>2023-10-01T08:50:33.000Z</time>
      </trkpt>
      <trkpt lat="42.24366" lon="20.05148">
        <ele>584.14001464844</ele>
        <time>2023-10-01T08:50:32.000Z</time>
      </trkpt>
      <trkpt lat="42.24365" lon="20.05158">
        <ele>584.61999511719</ele>
        <time>2023-10-01T08:50:31.000Z</time>
      </trkpt>
      <trkpt lat="42.24365" lon="20.05169">
        <ele>585.09997558594</ele>
        <time>2023-10-01T08:50:30.000Z</time>
      </trkpt>
      <trkpt lat="42.24365" lon="20.05176">
        <ele>585.58001708984</ele>
        <time>2023-10-01T08:50:29.000Z</time>
      </trkpt>
      <trkpt lat="42.24368" lon="20.05193">
        <ele>586.05999755859</ele>
        <time>2023-10-01T08:50:27.000Z</time>
      </trkpt>
      <trkpt lat="42.24368" lon="20.052">
        <ele>586.53997802734</ele>
        <time>2023-10-01T08:50:26.000Z</time>
      </trkpt>
      <trkpt lat="42.2437" lon="20.05232">
        <ele>587.97998046875</ele>
        <time>2023-10-01T08:50:23.000Z</time>
      </trkpt>
      <trkpt lat="42.2437" lon="20.05241">
        <ele>588.46002197266</ele>
        <time>2023-10-01T08:50:22.000Z</time>
      </trkpt>
      <trkpt lat="42.24371" lon="20.05262">
        <ele>588.95001220703</ele>
        <time>2023-10-01T08:50:17.000Z</time>
      </trkpt>
      <trkpt lat="42.2437" lon="20.05263">
        <ele>588.46002197266</ele>
        <time>2023-10-01T08:50:01.000Z</time>
      </trkpt>
      <trkpt lat="42.24368" lon="20.05268">
        <ele>587.97998046875</ele>
        <time>2023-10-01T08:36:19.000Z</time>
      </trkpt>
      <trkpt lat="42.24355" lon="20.05269">
        <ele>588.95001220703</ele>
        <time>2023-10-01T08:36:13.000Z</time>
      </trkpt>
      <trkpt lat="42.24348" lon="20.05267">
        <ele>588.95001220703</ele>
        <time>2023-10-01T08:36:12.000Z</time>
      </trkpt>
      <trkpt lat="42.2434" lon="20.05265">
        <ele>588.95001220703</ele>
        <time>2023-10-01T08:36:11.000Z</time>
      </trkpt>
      <trkpt lat="42.24333" lon="20.05264">
        <ele>589.42999267578</ele>
        <time>2023-10-01T08:36:10.000Z</time>
      </trkpt>
      <trkpt lat="42.24329" lon="20.05264">
        <ele>589.42999267578</ele>
        <time>2023-10-01T08:36:09.000Z</time>
      </trkpt>
      <trkpt lat="42.24311" lon="20.05265">
        <ele>589.90997314453</ele>
        <time>2023-10-01T08:36:08.000Z</time>
      </trkpt>
      <trkpt lat="42.243" lon="20.05264">
        <ele>590.86999511719</ele>
        <time>2023-10-01T08:36:07.000Z</time>
      </trkpt>
      <trkpt lat="42.2429" lon="20.05259">
        <ele>591.34997558594</ele>
        <time>2023-10-01T08:36:06.000Z</time>
      </trkpt>
      <trkpt lat="42.24286" lon="20.05257">
        <ele>591.83001708984</ele>
        <time>2023-10-01T08:36:05.000Z</time>
      </trkpt>
      <trkpt lat="42.2421" lon="20.052">
        <ele>596.15002441406</ele>
        <time>2023-10-01T08:36:00.000Z</time>
      </trkpt>
      <trkpt lat="42.24192" lon="20.0519">
        <ele>597.59997558594</ele>
        <time>2023-10-01T08:35:58.000Z</time>
      </trkpt>
      <trkpt lat="42.24172" lon="20.05181">
        <ele>598.55999755859</ele>
        <time>2023-10-01T08:35:57.000Z</time>
      </trkpt>
      <trkpt lat="42.24159" lon="20.05177">
        <ele>599.52001953125</ele>
        <time>2023-10-01T08:35:56.000Z</time>
      </trkpt>
      <trkpt lat="42.24149" lon="20.05175">
        <ele>600</ele>
        <time>2023-10-01T08:35:55.000Z</time>
      </trkpt>
      <trkpt lat="42.24136" lon="20.05177">
        <ele>600</ele>
        <time>2023-10-01T08:35:54.000Z</time>
      </trkpt>
      <trkpt lat="42.24128" lon="20.05181">
        <ele>600</ele>
        <time>2023-10-01T08:35:53.000Z</time>
      </trkpt>
      <trkpt lat="42.24122" lon="20.05189">
        <ele>600.47998046875</ele>
        <time>2023-10-01T08:35:52.000Z</time>
      </trkpt>
      <trkpt lat="42.24118" lon="20.052">
        <ele>601.44000244141</ele>
        <time>2023-10-01T08:35:51.000Z</time>
      </trkpt>
      <trkpt lat="42.24117" lon="20.05206">
        <ele>601.44000244141</ele>
        <time>2023-10-01T08:35:50.000Z</time>
      </trkpt>
      <trkpt lat="42.2411" lon="20.05244">
        <ele>602.40002441406</ele>
        <time>2023-10-01T08:35:48.000Z</time>
      </trkpt>
      <trkpt lat="42.24106" lon="20.05257">
        <ele>603.35998535156</ele>
        <time>2023-10-01T08:35:47.000Z</time>
      </trkpt>
      <trkpt lat="42.24099" lon="20.05268">
        <ele>603.84997558594</ele>
        <time>2023-10-01T08:35:46.000Z</time>
      </trkpt>
      <trkpt lat="42.24089" lon="20.05278">
        <ele>604.80999755859</ele>
        <time>2023-10-01T08:35:45.000Z</time>
      </trkpt>
      <trkpt lat="42.24083" lon="20.05282">
        <ele>604.80999755859</ele>
        <time>2023-10-01T08:35:44.000Z</time>
      </trkpt>
      <trkpt lat="42.24067" lon="20.05294">
        <ele>605.28997802734</ele>
        <time>2023-10-01T08:35:43.000Z</time>
      </trkpt>
      <trkpt lat="42.24057" lon="20.05305">
        <ele>604.80999755859</ele>
        <time>2023-10-01T08:35:42.000Z</time>
      </trkpt>
      <trkpt lat="42.24048" lon="20.0532">
        <ele>603.84997558594</ele>
        <time>2023-10-01T08:35:41.000Z</time>
      </trkpt>
      <trkpt lat="42.24039" lon="20.0534">
        <ele>603.35998535156</ele>
        <time>2023-10-01T08:35:40.000Z</time>
      </trkpt>
      <trkpt lat="42.2402" lon="20.05393">
        <ele>601.91998291016</ele>
        <time>2023-10-01T08:35:37.000Z</time>
      </trkpt>
      <trkpt lat="42.24014" lon="20.05405">
        <ele>600.96002197266</ele>
        <time>2023-10-01T08:35:36.000Z</time>
      </trkpt>
      <trkpt lat="42.24006" lon="20.05412">
        <ele>600.47998046875</ele>
        <time>2023-10-01T08:35:35.000Z</time>
      </trkpt>
      <trkpt lat="42.24" lon="20.05415">
        <ele>600.47998046875</ele>
        <time>2023-10-01T08:35:34.000Z</time>
      </trkpt>
      <trkpt lat="42.23984" lon="20.05423">
        <ele>600</ele>
        <time>2023-10-01T08:35:33.000Z</time>
      </trkpt>
      <trkpt lat="42.23971" lon="20.05431">
        <ele>600.47998046875</ele>
        <time>2023-10-01T08:35:32.000Z</time>
      </trkpt>
      <trkpt lat="42.23956" lon="20.05442">
        <ele>600.96002197266</ele>
        <time>2023-10-01T08:35:31.000Z</time>
      </trkpt>
      <trkpt lat="42.23932" lon="20.05463">
        <ele>602.88000488281</ele>
        <time>2023-10-01T08:35:29.000Z</time>
      </trkpt>
      <trkpt lat="42.23921" lon="20.05468">
        <ele>604.33001708984</ele>
        <time>2023-10-01T08:35:28.000Z</time>
      </trkpt>
      <trkpt lat="42.2391" lon="20.05468">
        <ele>605.28997802734</ele>
        <time>2023-10-01T08:35:27.000Z</time>
      </trkpt>
      <trkpt lat="42.239" lon="20.05468">
        <ele>606.72998046875</ele>
        <time>2023-10-01T08:35:26.000Z</time>
      </trkpt>
      <trkpt lat="42.23883" lon="20.0547">
        <ele>608.16998291016</ele>
        <time>2023-10-01T08:35:25.000Z</time>
      </trkpt>
      <trkpt lat="42.23868" lon="20.05476">
        <ele>610.57000732422</ele>
        <time>2023-10-01T08:35:24.000Z</time>
      </trkpt>
      <trkpt lat="42.23854" lon="20.05485">
        <ele>612.02001953125</ele>
        <time>2023-10-01T08:35:23.000Z</time>
      </trkpt>
      <trkpt lat="42.23841" lon="20.05492">
        <ele>613.94000244141</ele>
        <time>2023-10-01T08:35:22.000Z</time>
      </trkpt>
      <trkpt lat="42.23825" lon="20.05498">
        <ele>615.38000488281</ele>
        <time>2023-10-01T08:35:21.000Z</time>
      </trkpt>
      <trkpt lat="42.23798" lon="20.05506">
        <ele>617.29998779297</ele>
        <time>2023-10-01T08:35:19.000Z</time>
      </trkpt>
      <trkpt lat="42.23786" lon="20.05514">
        <ele>617.78002929688</ele>
        <time>2023-10-01T08:35:18.000Z</time>
      </trkpt>
      <trkpt lat="42.23776" lon="20.05527">
        <ele>618.75</ele>
        <time>2023-10-01T08:35:17.000Z</time>
      </trkpt>
      <trkpt lat="42.2377" lon="20.05538">
        <ele>619.71002197266</ele>
        <time>2023-10-01T08:35:16.000Z</time>
      </trkpt>
      <trkpt lat="42.23747" lon="20.05583">
        <ele>621.63000488281</ele>
        <time>2023-10-01T08:35:14.000Z</time>
      </trkpt>
      <trkpt lat="42.23739" lon="20.05603">
        <ele>622.59002685547</ele>
        <time>2023-10-01T08:35:13.000Z</time>
      </trkpt>
      <trkpt lat="42.23733" lon="20.05624">
        <ele>624.03002929688</ele>
        <time>2023-10-01T08:35:12.000Z</time>
      </trkpt>
      <trkpt lat="42.2373" lon="20.05639">
        <ele>624.51000976562</ele>
        <time>2023-10-01T08:35:11.000Z</time>
      </trkpt>
      <trkpt lat="42.23722" lon="20.05712">
        <ele>626.44000244141</ele>
        <time>2023-10-01T08:35:08.000Z</time>
      </trkpt>
      <trkpt lat="42.23722" lon="20.05738">
        <ele>626.44000244141</ele>
        <time>2023-10-01T08:35:07.000Z</time>
      </trkpt>
      <trkpt lat="42.23725" lon="20.05763">
        <ele>626.44000244141</ele>
        <time>2023-10-01T08:35:06.000Z</time>
      </trkpt>
      <trkpt lat="42.23729" lon="20.05783">
        <ele>626.44000244141</ele>
        <time>2023-10-01T08:35:05.000Z</time>
      </trkpt>
      <trkpt lat="42.23734" lon="20.05802">
        <ele>625.96002197266</ele>
        <time>2023-10-01T08:35:04.000Z</time>
      </trkpt>
      <trkpt lat="42.23742" lon="20.05823">
        <ele>625.96002197266</ele>
        <time>2023-10-01T08:35:03.000Z</time>
      </trkpt>
      <trkpt lat="42.23746" lon="20.05832">
        <ele>625.96002197266</ele>
        <time>2023-10-01T08:35:02.000Z</time>
      </trkpt>
      <trkpt lat="42.23757" lon="20.05851">
        <ele>625.96002197266</ele>
        <time>2023-10-01T08:35:01.000Z</time>
      </trkpt>
      <trkpt lat="42.23761" lon="20.05863">
        <ele>625.96002197266</ele>
        <time>2023-10-01T08:35:00.000Z</time>
      </trkpt>
      <trkpt lat="42.23763" lon="20.05876">
        <ele>625.96002197266</ele>
        <time>2023-10-01T08:34:59.000Z</time>
      </trkpt>
      <trkpt lat="42.23763" lon="20.05889">
        <ele>625.46997070312</ele>
        <time>2023-10-01T08:34:58.000Z</time>
      </trkpt>
      <trkpt lat="42.23759" lon="20.059">
        <ele>624.98999023438</ele>
        <time>2023-10-01T08:34:57.000Z</time>
      </trkpt>
      <trkpt lat="42.23753" lon="20.0591">
        <ele>624.03002929688</ele>
        <time>2023-10-01T08:34:56.000Z</time>
      </trkpt>
      <trkpt lat="42.23748" lon="20.05916">
        <ele>623.54998779297</ele>
        <time>2023-10-01T08:34:55.000Z</time>
      </trkpt>
      <trkpt lat="42.23711" lon="20.05949">
        <ele>622.59002685547</ele>
        <time>2023-10-01T08:34:52.000Z</time>
      </trkpt>
      <trkpt lat="42.237" lon="20.05955">
        <ele>622.10998535156</ele>
        <time>2023-10-01T08:34:51.000Z</time>
      </trkpt>
      <trkpt lat="42.23691" lon="20.05957">
        <ele>621.63000488281</ele>
        <time>2023-10-01T08:34:50.000Z</time>
      </trkpt>
      <trkpt lat="42.23683" lon="20.05955">
        <ele>621.63000488281</ele>
        <time>2023-10-01T08:34:49.000Z</time>
      </trkpt>
      <trkpt lat="42.23675" lon="20.05948">
        <ele>620.66998291016</ele>
        <time>2023-10-01T08:34:48.000Z</time>
      </trkpt>
      <trkpt lat="42.23646" lon="20.05913">
        <ele>618.26000976562</ele>
        <time>2023-10-01T08:34:45.000Z</time>
      </trkpt>
      <trkpt lat="42.23636" lon="20.05899">
        <ele>616.82000732422</ele>
        <time>2023-10-01T08:34:44.000Z</time>
      </trkpt>
      <trkpt lat="42.23624" lon="20.05878">
        <ele>615.38000488281</ele>
        <time>2023-10-01T08:34:43.000Z</time>
      </trkpt>
      <trkpt lat="42.23615" lon="20.05865">
        <ele>614.41998291016</ele>
        <time>2023-10-01T08:34:42.000Z</time>
      </trkpt>
      <trkpt lat="42.23603" lon="20.05855">
        <ele>613.94000244141</ele>
        <time>2023-10-01T08:34:41.000Z</time>
      </trkpt>
      <trkpt lat="42.2359" lon="20.05849">
        <ele>613.46002197266</ele>
        <time>2023-10-01T08:34:40.000Z</time>
      </trkpt>
      <trkpt lat="42.23575" lon="20.05846">
        <ele>612.5</ele>
        <time>2023-10-01T08:34:39.000Z</time>
      </trkpt>
      <trkpt lat="42.23569" lon="20.05846">
        <ele>612.5</ele>
        <time>2023-10-01T08:34:38.000Z</time>
      </trkpt>
      <trkpt lat="42.23547" lon="20.05847">
        <ele>612.02001953125</ele>
        <time>2023-10-01T08:34:37.000Z</time>
      </trkpt>
      <trkpt lat="42.23534" lon="20.05845">
        <ele>611.53997802734</ele>
        <time>2023-10-01T08:34:36.000Z</time>
      </trkpt>
      <trkpt lat="42.23522" lon="20.05839">
        <ele>611.05999755859</ele>
        <time>2023-10-01T08:34:35.000Z</time>
      </trkpt>
      <trkpt lat="42.23514" lon="20.05834">
        <ele>610.57000732422</ele>
        <time>2023-10-01T08:34:34.000Z</time>
      </trkpt>
      <trkpt lat="42.23496" lon="20.05819">
        <ele>608.65002441406</ele>
        <time>2023-10-01T08:34:33.000Z</time>
      </trkpt>
      <trkpt lat="42.23486" lon="20.05813">
        <ele>606.72998046875</ele>
        <time>2023-10-01T08:34:32.000Z</time>
      </trkpt>
      <trkpt lat="42.23475" lon="20.05813">
        <ele>606.25</ele>
        <time>2023-10-01T08:34:31.000Z</time>
      </trkpt>
      <trkpt lat="42.23466" lon="20.05816">
        <ele>605.28997802734</ele>
        <time>2023-10-01T08:34:30.000Z</time>
      </trkpt>
      <trkpt lat="42.23456" lon="20.05824">
        <ele>604.33001708984</ele>
        <time>2023-10-01T08:34:29.000Z</time>
      </trkpt>
      <trkpt lat="42.23445" lon="20.05838">
        <ele>603.84997558594</ele>
        <time>2023-10-01T08:34:28.000Z</time>
      </trkpt>
      <trkpt lat="42.23434" lon="20.05855">
        <ele>603.35998535156</ele>
        <time>2023-10-01T08:34:27.000Z</time>
      </trkpt>
      <trkpt lat="42.23424" lon="20.05867">
        <ele>602.88000488281</ele>
        <time>2023-10-01T08:34:26.000Z</time>
      </trkpt>
      <trkpt lat="42.23414" lon="20.05875">
        <ele>602.88000488281</ele>
        <time>2023-10-01T08:34:25.000Z</time>
      </trkpt>
      <trkpt lat="42.23404" lon="20.05879">
        <ele>602.40002441406</ele>
        <time>2023-10-01T08:34:24.000Z</time>
      </trkpt>
      <trkpt lat="42.23389" lon="20.05885">
        <ele>601.44000244141</ele>
        <time>2023-10-01T08:34:23.000Z</time>
      </trkpt>
      <trkpt lat="42.23378" lon="20.05886">
        <ele>600.47998046875</ele>
        <time>2023-10-01T08:34:22.000Z</time>
      </trkpt>
      <trkpt lat="42.23369" lon="20.05885">
        <ele>600</ele>
        <time>2023-10-01T08:34:21.000Z</time>
      </trkpt>
      <trkpt lat="42.23361" lon="20.05878">
        <ele>599.03997802734</ele>
        <time>2023-10-01T08:34:20.000Z</time>
      </trkpt>
      <trkpt lat="42.23353" lon="20.05867">
        <ele>597.11999511719</ele>
        <time>2023-10-01T08:34:19.000Z</time>
      </trkpt>
      <trkpt lat="42.23345" lon="20.05852">
        <ele>596.15002441406</ele>
        <time>2023-10-01T08:34:18.000Z</time>
      </trkpt>
      <trkpt lat="42.23337" lon="20.0584">
        <ele>596.15002441406</ele>
        <time>2023-10-01T08:34:17.000Z</time>
      </trkpt>
      <trkpt lat="42.2333" lon="20.05833">
        <ele>596.15002441406</ele>
        <time>2023-10-01T08:34:16.000Z</time>
      </trkpt>
      <trkpt lat="42.23323" lon="20.05831">
        <ele>596.64001464844</ele>
        <time>2023-10-01T08:34:15.000Z</time>
      </trkpt>
      <trkpt lat="42.23315" lon="20.05833">
        <ele>597.11999511719</ele>
        <time>2023-10-01T08:34:14.000Z</time>
      </trkpt>
      <trkpt lat="42.23308" lon="20.0584">
        <ele>597.11999511719</ele>
        <time>2023-10-01T08:34:13.000Z</time>
      </trkpt>
      <trkpt lat="42.233" lon="20.05851">
        <ele>597.59997558594</ele>
        <time>2023-10-01T08:34:12.000Z</time>
      </trkpt>
      <trkpt lat="42.23298" lon="20.05854">
        <ele>597.59997558594</ele>
        <time>2023-10-01T08:34:11.000Z</time>
      </trkpt>
      <trkpt lat="42.23289" lon="20.05874">
        <ele>599.03997802734</ele>
        <time>2023-10-01T08:34:10.000Z</time>
      </trkpt>
      <trkpt lat="42.23277" lon="20.05895">
        <ele>599.52001953125</ele>
        <time>2023-10-01T08:34:09.000Z</time>
      </trkpt>
      <trkpt lat="42.23269" lon="20.05911">
        <ele>600.47998046875</ele>
        <time>2023-10-01T08:34:08.000Z</time>
      </trkpt>
      <trkpt lat="42.23264" lon="20.05929">
        <ele>601.44000244141</ele>
        <time>2023-10-01T08:34:07.000Z</time>
      </trkpt>
      <trkpt lat="42.23261" lon="20.05946">
        <ele>602.88000488281</ele>
        <time>2023-10-01T08:34:06.000Z</time>
      </trkpt>
      <trkpt lat="42.23261" lon="20.05962">
        <ele>603.84997558594</ele>
        <time>2023-10-01T08:34:05.000Z</time>
      </trkpt>
      <trkpt lat="42.23263" lon="20.05977">
        <ele>604.33001708984</ele>
        <time>2023-10-01T08:34:04.000Z</time>
      </trkpt>
      <trkpt lat="42.23269" lon="20.05991">
        <ele>604.80999755859</ele>
        <time>2023-10-01T08:34:03.000Z</time>
      </trkpt>
      <trkpt lat="42.23276" lon="20.06002">
        <ele>605.77001953125</ele>
        <time>2023-10-01T08:34:02.000Z</time>
      </trkpt>
      <trkpt lat="42.23284" lon="20.06012">
        <ele>605.77001953125</ele>
        <time>2023-10-01T08:34:01.000Z</time>
      </trkpt>
      <trkpt lat="42.23295" lon="20.06022">
        <ele>605.28997802734</ele>
        <time>2023-10-01T08:34:00.000Z</time>
      </trkpt>
      <trkpt lat="42.23303" lon="20.06028">
        <ele>605.28997802734</ele>
        <time>2023-10-01T08:33:59.000Z</time>
      </trkpt>
      <trkpt lat="42.23309" lon="20.06032">
        <ele>605.28997802734</ele>
        <time>2023-10-01T08:33:58.000Z</time>
      </trkpt>
      <trkpt lat="42.23387" lon="20.0607">
        <ele>608.16998291016</ele>
        <time>2023-10-01T08:33:53.000Z</time>
      </trkpt>
      <trkpt lat="42.23396" lon="20.06078">
        <ele>608.65002441406</ele>
        <time>2023-10-01T08:33:52.000Z</time>
      </trkpt>
      <trkpt lat="42.23403" lon="20.06089">
        <ele>609.60998535156</ele>
        <time>2023-10-01T08:33:51.000Z</time>
      </trkpt>
      <trkpt lat="42.23409" lon="20.06102">
        <ele>610.09002685547</ele>
        <time>2023-10-01T08:33:50.000Z</time>
      </trkpt>
      <trkpt lat="42.23413" lon="20.06117">
        <ele>611.05999755859</ele>
        <time>2023-10-01T08:33:49.000Z</time>
      </trkpt>
      <trkpt lat="42.23415" lon="20.06135">
        <ele>611.53997802734</ele>
        <time>2023-10-01T08:33:48.000Z</time>
      </trkpt>
      <trkpt lat="42.23415" lon="20.06143">
        <ele>611.53997802734</ele>
        <time>2023-10-01T08:33:47.000Z</time>
      </trkpt>
      <trkpt lat="42.23416" lon="20.06175">
        <ele>612.5</ele>
        <time>2023-10-01T08:33:46.000Z</time>
      </trkpt>
      <trkpt lat="42.23417" lon="20.06179">
        <ele>612.5</ele>
        <time>2023-10-01T08:33:45.000Z</time>
      </trkpt>
      <trkpt lat="42.23421" lon="20.06214">
        <ele>613.46002197266</ele>
        <time>2023-10-01T08:33:44.000Z</time>
      </trkpt>
      <trkpt lat="42.23426" lon="20.06233">
        <ele>614.41998291016</ele>
        <time>2023-10-01T08:33:43.000Z</time>
      </trkpt>
      <trkpt lat="42.2343" lon="20.06246">
        <ele>614.41998291016</ele>
        <time>2023-10-01T08:33:42.000Z</time>
      </trkpt>
      <trkpt lat="42.23438" lon="20.06265">
        <ele>614.90002441406</ele>
        <time>2023-10-01T08:33:41.000Z</time>
      </trkpt>
      <trkpt lat="42.23444" lon="20.06283">
        <ele>614.90002441406</ele>
        <time>2023-10-01T08:33:40.000Z</time>
      </trkpt>
      <trkpt lat="42.23448" lon="20.06296">
        <ele>615.38000488281</ele>
        <time>2023-10-01T08:33:39.000Z</time>
      </trkpt>
      <trkpt lat="42.23449" lon="20.06308">
        <ele>615.85998535156</ele>
        <time>2023-10-01T08:33:38.000Z</time>
      </trkpt>
      <trkpt lat="42.23449" lon="20.06318">
        <ele>615.85998535156</ele>
        <time>2023-10-01T08:33:37.000Z</time>
      </trkpt>
      <trkpt lat="42.23446" lon="20.06328">
        <ele>615.85998535156</ele>
        <time>2023-10-01T08:33:36.000Z</time>
      </trkpt>
      <trkpt lat="42.2344" lon="20.06337">
        <ele>616.34002685547</ele>
        <time>2023-10-01T08:33:35.000Z</time>
      </trkpt>
      <trkpt lat="42.23432" lon="20.06342">
        <ele>616.34002685547</ele>
        <time>2023-10-01T08:33:34.000Z</time>
      </trkpt>
      <trkpt lat="42.23423" lon="20.06344">
        <ele>616.34002685547</ele>
        <time>2023-10-01T08:33:33.000Z</time>
      </trkpt>
      <trkpt lat="42.23411" lon="20.06343">
        <ele>616.34002685547</ele>
        <time>2023-10-01T08:33:32.000Z</time>
      </trkpt>
      <trkpt lat="42.23399" lon="20.06341">
        <ele>616.34002685547</ele>
        <time>2023-10-01T08:33:31.000Z</time>
      </trkpt>
      <trkpt lat="42.23384" lon="20.0634">
        <ele>614.90002441406</ele>
        <time>2023-10-01T08:33:30.000Z</time>
      </trkpt>
      <trkpt lat="42.23372" lon="20.06343">
        <ele>613.94000244141</ele>
        <time>2023-10-01T08:33:29.000Z</time>
      </trkpt>
      <trkpt lat="42.23334" lon="20.06358">
        <ele>610.57000732422</ele>
        <time>2023-10-01T08:33:27.000Z</time>
      </trkpt>
      <trkpt lat="42.23318" lon="20.06367">
        <ele>609.13000488281</ele>
        <time>2023-10-01T08:33:26.000Z</time>
      </trkpt>
      <trkpt lat="42.23303" lon="20.0638">
        <ele>607.69000244141</ele>
        <time>2023-10-01T08:33:25.000Z</time>
      </trkpt>
      <trkpt lat="42.23291" lon="20.06393">
        <ele>605.77001953125</ele>
        <time>2023-10-01T08:33:24.000Z</time>
      </trkpt>
      <trkpt lat="42.23275" lon="20.06406">
        <ele>604.80999755859</ele>
        <time>2023-10-01T08:33:23.000Z</time>
      </trkpt>
      <trkpt lat="42.23258" lon="20.06417">
        <ele>604.33001708984</ele>
        <time>2023-10-01T08:33:22.000Z</time>
      </trkpt>
      <trkpt lat="42.23245" lon="20.06428">
        <ele>603.35998535156</ele>
        <time>2023-10-01T08:33:21.000Z</time>
      </trkpt>
      <trkpt lat="42.23234" lon="20.06441">
        <ele>601.91998291016</ele>
        <time>2023-10-01T08:33:20.000Z</time>
      </trkpt>
      <trkpt lat="42.23223" lon="20.06458">
        <ele>600</ele>
        <time>2023-10-01T08:33:19.000Z</time>
      </trkpt>
      <trkpt lat="42.23212" lon="20.06479">
        <ele>598.55999755859</ele>
        <time>2023-10-01T08:33:18.000Z</time>
      </trkpt>
      <trkpt lat="42.23203" lon="20.06503">
        <ele>597.11999511719</ele>
        <time>2023-10-01T08:33:17.000Z</time>
      </trkpt>
      <trkpt lat="42.23197" lon="20.06523">
        <ele>596.15002441406</ele>
        <time>2023-10-01T08:33:16.000Z</time>
      </trkpt>
      <trkpt lat="42.2318" lon="20.06605">
        <ele>593.27001953125</ele>
        <time>2023-10-01T08:33:12.000Z</time>
      </trkpt>
      <trkpt lat="42.23176" lon="20.06616">
        <ele>592.78997802734</ele>
        <time>2023-10-01T08:33:11.000Z</time>
      </trkpt>
      <trkpt lat="42.2317" lon="20.06622">
        <ele>592.30999755859</ele>
        <time>2023-10-01T08:33:10.000Z</time>
      </trkpt>
      <trkpt lat="42.23161" lon="20.06625">
        <ele>591.34997558594</ele>
        <time>2023-10-01T08:33:09.000Z</time>
      </trkpt>
      <trkpt lat="42.23149" lon="20.06622">
        <ele>590.86999511719</ele>
        <time>2023-10-01T08:33:08.000Z</time>
      </trkpt>
      <trkpt lat="42.23138" lon="20.06614">
        <ele>590.39001464844</ele>
        <time>2023-10-01T08:33:07.000Z</time>
      </trkpt>
      <trkpt lat="42.23127" lon="20.06603">
        <ele>589.90997314453</ele>
        <time>2023-10-01T08:33:06.000Z</time>
      </trkpt>
      <trkpt lat="42.23114" lon="20.06591">
        <ele>589.90997314453</ele>
        <time>2023-10-01T08:33:05.000Z</time>
      </trkpt>
      <trkpt lat="42.23101" lon="20.06581">
        <ele>588.46002197266</ele>
        <time>2023-10-01T08:33:04.000Z</time>
      </trkpt>
      <trkpt lat="42.23089" lon="20.06577">
        <ele>587.97998046875</ele>
        <time>2023-10-01T08:33:03.000Z</time>
      </trkpt>
      <trkpt lat="42.23079" lon="20.06578">
        <ele>587.97998046875</ele>
        <time>2023-10-01T08:33:02.000Z</time>
      </trkpt>
      <trkpt lat="42.23071" lon="20.06583">
        <ele>587.97998046875</ele>
        <time>2023-10-01T08:33:01.000Z</time>
      </trkpt>
      <trkpt lat="42.23067" lon="20.06591">
        <ele>587.97998046875</ele>
        <time>2023-10-01T08:33:00.000Z</time>
      </trkpt>
      <trkpt lat="42.23067" lon="20.06601">
        <ele>587.5</ele>
        <time>2023-10-01T08:32:59.000Z</time>
      </trkpt>
      <trkpt lat="42.2307" lon="20.06611">
        <ele>587.5</ele>
        <time>2023-10-01T08:32:58.000Z</time>
      </trkpt>
      <trkpt lat="42.23075" lon="20.0662">
        <ele>587.02001953125</ele>
        <time>2023-10-01T08:32:57.000Z</time>
      </trkpt>
      <trkpt lat="42.23082" lon="20.06634">
        <ele>587.02001953125</ele>
        <time>2023-10-01T08:32:56.000Z</time>
      </trkpt>
      <trkpt lat="42.23087" lon="20.06652">
        <ele>586.53997802734</ele>
        <time>2023-10-01T08:32:55.000Z</time>
      </trkpt>
      <trkpt lat="42.2309" lon="20.06672">
        <ele>587.02001953125</ele>
        <time>2023-10-01T08:32:54.000Z</time>
      </trkpt>
      <trkpt lat="42.23093" lon="20.06691">
        <ele>587.5</ele>
        <time>2023-10-01T08:32:53.000Z</time>
      </trkpt>
      <trkpt lat="42.23099" lon="20.06709">
        <ele>587.5</ele>
        <time>2023-10-01T08:32:52.000Z</time>
      </trkpt>
      <trkpt lat="42.23107" lon="20.06724">
        <ele>587.5</ele>
        <time>2023-10-01T08:32:51.000Z</time>
      </trkpt>
      <trkpt lat="42.23118" lon="20.06735">
        <ele>587.97998046875</ele>
        <time>2023-10-01T08:32:50.000Z</time>
      </trkpt>
      <trkpt lat="42.23123" lon="20.06739">
        <ele>587.97998046875</ele>
        <time>2023-10-01T08:32:49.000Z</time>
      </trkpt>
      <trkpt lat="42.23156" lon="20.06763">
        <ele>589.42999267578</ele>
        <time>2023-10-01T08:32:47.000Z</time>
      </trkpt>
      <trkpt lat="42.2317" lon="20.06769">
        <ele>590.39001464844</ele>
        <time>2023-10-01T08:32:46.000Z</time>
      </trkpt>
      <trkpt lat="42.23184" lon="20.06771">
        <ele>590.86999511719</ele>
        <time>2023-10-01T08:32:45.000Z</time>
      </trkpt>
      <trkpt lat="42.23198" lon="20.06769">
        <ele>590.86999511719</ele>
        <time>2023-10-01T08:32:44.000Z</time>
      </trkpt>
      <trkpt lat="42.23205" lon="20.06767">
        <ele>591.34997558594</ele>
        <time>2023-10-01T08:32:43.000Z</time>
      </trkpt>
      <trkpt lat="42.23225" lon="20.06761">
        <ele>591.83001708984</ele>
        <time>2023-10-01T08:32:42.000Z</time>
      </trkpt>
      <trkpt lat="42.23235" lon="20.06761">
        <ele>592.30999755859</ele>
        <time>2023-10-01T08:32:41.000Z</time>
      </trkpt>
      <trkpt lat="42.23242" lon="20.06764">
        <ele>592.78997802734</ele>
        <time>2023-10-01T08:32:40.000Z</time>
      </trkpt>
      <trkpt lat="42.23246" lon="20.0677">
        <ele>593.27001953125</ele>
        <time>2023-10-01T08:32:39.000Z</time>
      </trkpt>
      <trkpt lat="42.23246" lon="20.06776">
        <ele>593.75</ele>
        <time>2023-10-01T08:32:38.000Z</time>
      </trkpt>
      <trkpt lat="42.23243" lon="20.06784">
        <ele>594.22998046875</ele>
        <time>2023-10-01T08:32:37.000Z</time>
      </trkpt>
      <trkpt lat="42.23236" lon="20.0679">
        <ele>594.71002197266</ele>
        <time>2023-10-01T08:32:36.000Z</time>
      </trkpt>
      <trkpt lat="42.23233" lon="20.06792">
        <ele>595.19000244141</ele>
        <time>2023-10-01T08:32:35.000Z</time>
      </trkpt>
      <trkpt lat="42.23215" lon="20.06802">
        <ele>595.66998291016</ele>
        <time>2023-10-01T08:32:34.000Z</time>
      </trkpt>
      <trkpt lat="42.23204" lon="20.06811">
        <ele>596.15002441406</ele>
        <time>2023-10-01T08:32:33.000Z</time>
      </trkpt>
      <trkpt lat="42.23195" lon="20.06824">
        <ele>596.15002441406</ele>
        <time>2023-10-01T08:32:32.000Z</time>
      </trkpt>
      <trkpt lat="42.23192" lon="20.0683">
        <ele>596.64001464844</ele>
        <time>2023-10-01T08:32:31.000Z</time>
      </trkpt>
      <trkpt lat="42.23181" lon="20.06854">
        <ele>597.11999511719</ele>
        <time>2023-10-01T08:32:30.000Z</time>
      </trkpt>
      <trkpt lat="42.23174" lon="20.06866">
        <ele>597.11999511719</ele>
        <time>2023-10-01T08:32:29.000Z</time>
      </trkpt>
      <trkpt lat="42.23168" lon="20.06875">
        <ele>597.59997558594</ele>
        <time>2023-10-01T08:32:28.000Z</time>
      </trkpt>
      <trkpt lat="42.2316" lon="20.06882">
        <ele>597.11999511719</ele>
        <time>2023-10-01T08:32:27.000Z</time>
      </trkpt>
      <trkpt lat="42.23152" lon="20.06888">
        <ele>597.11999511719</ele>
        <time>2023-10-01T08:32:26.000Z</time>
      </trkpt>
      <trkpt lat="42.23142" lon="20.06892">
        <ele>596.64001464844</ele>
        <time>2023-10-01T08:32:25.000Z</time>
      </trkpt>
      <trkpt lat="42.23136" lon="20.06893">
        <ele>596.64001464844</ele>
        <time>2023-10-01T08:32:24.000Z</time>
      </trkpt>
      <trkpt lat="42.23113" lon="20.06898">
        <ele>596.64001464844</ele>
        <time>2023-10-01T08:32:23.000Z</time>
      </trkpt>
      <trkpt lat="42.23099" lon="20.06905">
        <ele>596.64001464844</ele>
        <time>2023-10-01T08:32:22.000Z</time>
      </trkpt>
      <trkpt lat="42.23087" lon="20.06915">
        <ele>597.11999511719</ele>
        <time>2023-10-01T08:32:21.000Z</time>
      </trkpt>
      <trkpt lat="42.23076" lon="20.0693">
        <ele>596.64001464844</ele>
        <time>2023-10-01T08:32:20.000Z</time>
      </trkpt>
      <trkpt lat="42.23068" lon="20.06946">
        <ele>597.11999511719</ele>
        <time>2023-10-01T08:32:19.000Z</time>
      </trkpt>
      <trkpt lat="42.23063" lon="20.06963">
        <ele>596.64001464844</ele>
        <time>2023-10-01T08:32:18.000Z</time>
      </trkpt>
      <trkpt lat="42.23061" lon="20.0698">
        <ele>596.64001464844</ele>
        <time>2023-10-01T08:32:17.000Z</time>
      </trkpt>
      <trkpt lat="42.23063" lon="20.06998">
        <ele>596.15002441406</ele>
        <time>2023-10-01T08:32:16.000Z</time>
      </trkpt>
      <trkpt lat="42.23066" lon="20.07011">
        <ele>596.15002441406</ele>
        <time>2023-10-01T08:32:15.000Z</time>
      </trkpt>
      <trkpt lat="42.2307" lon="20.07023">
        <ele>595.66998291016</ele>
        <time>2023-10-01T08:32:14.000Z</time>
      </trkpt>
      <trkpt lat="42.23077" lon="20.07043">
        <ele>595.19000244141</ele>
        <time>2023-10-01T08:32:13.000Z</time>
      </trkpt>
      <trkpt lat="42.23094" lon="20.07081">
        <ele>592.30999755859</ele>
        <time>2023-10-01T08:32:11.000Z</time>
      </trkpt>
      <trkpt lat="42.23099" lon="20.07093">
        <ele>591.83001708984</ele>
        <time>2023-10-01T08:32:10.000Z</time>
      </trkpt>
      <trkpt lat="42.23109" lon="20.0712">
        <ele>590.39001464844</ele>
        <time>2023-10-01T08:32:09.000Z</time>
      </trkpt>
      <trkpt lat="42.23116" lon="20.07136">
        <ele>589.42999267578</ele>
        <time>2023-10-01T08:32:08.000Z</time>
      </trkpt>
      <trkpt lat="42.23124" lon="20.0715">
        <ele>588.95001220703</ele>
        <time>2023-10-01T08:32:07.000Z</time>
      </trkpt>
      <trkpt lat="42.23134" lon="20.07164">
        <ele>587.97998046875</ele>
        <time>2023-10-01T08:32:06.000Z</time>
      </trkpt>
      <trkpt lat="42.23145" lon="20.07176">
        <ele>587.97998046875</ele>
        <time>2023-10-01T08:32:05.000Z</time>
      </trkpt>
      <trkpt lat="42.23155" lon="20.07186">
        <ele>587.5</ele>
        <time>2023-10-01T08:32:04.000Z</time>
      </trkpt>
      <trkpt lat="42.23175" lon="20.07202">
        <ele>585.58001708984</ele>
        <time>2023-10-01T08:32:03.000Z</time>
      </trkpt>
      <trkpt lat="42.23189" lon="20.07209">
        <ele>585.09997558594</ele>
        <time>2023-10-01T08:32:02.000Z</time>
      </trkpt>
      <trkpt lat="42.23201" lon="20.07213">
        <ele>584.14001464844</ele>
        <time>2023-10-01T08:32:01.000Z</time>
      </trkpt>
      <trkpt lat="42.23214" lon="20.07218">
        <ele>582.70001220703</ele>
        <time>2023-10-01T08:32:00.000Z</time>
      </trkpt>
      <trkpt lat="42.23224" lon="20.07226">
        <ele>581.72998046875</ele>
        <time>2023-10-01T08:31:59.000Z</time>
      </trkpt>
      <trkpt lat="42.23226" lon="20.07228">
        <ele>581.72998046875</ele>
        <time>2023-10-01T08:31:58.000Z</time>
      </trkpt>
      <trkpt lat="42.2327" lon="20.07278">
        <ele>578.36999511719</ele>
        <time>2023-10-01T08:31:54.000Z</time>
      </trkpt>
      <trkpt lat="42.23276" lon="20.07285">
        <ele>577.89001464844</ele>
        <time>2023-10-01T08:31:53.000Z</time>
      </trkpt>
      <trkpt lat="42.2328" lon="20.07294">
        <ele>577.89001464844</ele>
        <time>2023-10-01T08:31:52.000Z</time>
      </trkpt>
      <trkpt lat="42.2328" lon="20.07304">
        <ele>577.40997314453</ele>
        <time>2023-10-01T08:31:51.000Z</time>
      </trkpt>
      <trkpt lat="42.23277" lon="20.07313">
        <ele>576.92999267578</ele>
        <time>2023-10-01T08:31:50.000Z</time>
      </trkpt>
      <trkpt lat="42.23271" lon="20.07324">
        <ele>575.48999023438</ele>
        <time>2023-10-01T08:31:49.000Z</time>
      </trkpt>
      <trkpt lat="42.23261" lon="20.07335">
        <ele>574.53002929688</ele>
        <time>2023-10-01T08:31:48.000Z</time>
      </trkpt>
      <trkpt lat="42.23247" lon="20.07346">
        <ele>573.08001708984</ele>
        <time>2023-10-01T08:31:47.000Z</time>
      </trkpt>
      <trkpt lat="42.23235" lon="20.07354">
        <ele>572.11999511719</ele>
        <time>2023-10-01T08:31:46.000Z</time>
      </trkpt>
      <trkpt lat="42.2318" lon="20.07376">
        <ele>568.28002929688</ele>
        <time>2023-10-01T08:31:43.000Z</time>
      </trkpt>
      <trkpt lat="42.23165" lon="20.07385">
        <ele>567.79998779297</ele>
        <time>2023-10-01T08:31:42.000Z</time>
      </trkpt>
      <trkpt lat="42.23157" lon="20.07391">
        <ele>567.79998779297</ele>
        <time>2023-10-01T08:31:41.000Z</time>
      </trkpt>
      <trkpt lat="42.23141" lon="20.07408">
        <ele>567.79998779297</ele>
        <time>2023-10-01T08:31:40.000Z</time>
      </trkpt>
      <trkpt lat="42.23128" lon="20.07417">
        <ele>567.79998779297</ele>
        <time>2023-10-01T08:31:39.000Z</time>
      </trkpt>
      <trkpt lat="42.23114" lon="20.07423">
        <ele>567.32000732422</ele>
        <time>2023-10-01T08:31:38.000Z</time>
      </trkpt>
      <trkpt lat="42.23031" lon="20.07465">
        <ele>569.23999023438</ele>
        <time>2023-10-01T08:31:33.000Z</time>
      </trkpt>
      <trkpt lat="42.23018" lon="20.07473">
        <ele>569.23999023438</ele>
        <time>2023-10-01T08:31:32.000Z</time>
      </trkpt>
      <trkpt lat="42.23008" lon="20.07484">
        <ele>569.23999023438</ele>
        <time>2023-10-01T08:31:31.000Z</time>
      </trkpt>
      <trkpt lat="42.23001" lon="20.07497">
        <ele>569.23999023438</ele>
        <time>2023-10-01T08:31:30.000Z</time>
      </trkpt>
      <trkpt lat="42.22997" lon="20.07514">
        <ele>569.71997070312</ele>
        <time>2023-10-01T08:31:29.000Z</time>
      </trkpt>
      <trkpt lat="42.22996" lon="20.07531">
        <ele>570.67999267578</ele>
        <time>2023-10-01T08:31:28.000Z</time>
      </trkpt>
      <trkpt lat="42.23" lon="20.07548">
        <ele>571.15997314453</ele>
        <time>2023-10-01T08:31:27.000Z</time>
      </trkpt>
      <trkpt lat="42.23002" lon="20.07554">
        <ele>571.15997314453</ele>
        <time>2023-10-01T08:31:26.000Z</time>
      </trkpt>
      <trkpt lat="42.2301" lon="20.07574">
        <ele>571.64001464844</ele>
        <time>2023-10-01T08:31:25.000Z</time>
      </trkpt>
      <trkpt lat="42.23012" lon="20.07586">
        <ele>571.64001464844</ele>
        <time>2023-10-01T08:31:24.000Z</time>
      </trkpt>
      <trkpt lat="42.2301" lon="20.07597">
        <ele>571.64001464844</ele>
        <time>2023-10-01T08:31:23.000Z</time>
      </trkpt>
      <trkpt lat="42.23004" lon="20.07613">
        <ele>571.64001464844</ele>
        <time>2023-10-01T08:31:22.000Z</time>
      </trkpt>
      <trkpt lat="42.22999" lon="20.07628">
        <ele>572.59997558594</ele>
        <time>2023-10-01T08:31:21.000Z</time>
      </trkpt>
      <trkpt lat="42.22996" lon="20.07645">
        <ele>573.55999755859</ele>
        <time>2023-10-01T08:31:20.000Z</time>
      </trkpt>
      <trkpt lat="42.22996" lon="20.07661">
        <ele>575.01000976562</ele>
        <time>2023-10-01T08:31:19.000Z</time>
      </trkpt>
      <trkpt lat="42.22999" lon="20.07677">
        <ele>575.96997070312</ele>
        <time>2023-10-01T08:31:18.000Z</time>
      </trkpt>
      <trkpt lat="42.23004" lon="20.07691">
        <ele>576.45001220703</ele>
        <time>2023-10-01T08:31:17.000Z</time>
      </trkpt>
      <trkpt lat="42.23011" lon="20.07702">
        <ele>577.40997314453</ele>
        <time>2023-10-01T08:31:16.000Z</time>
      </trkpt>
      <trkpt lat="42.23019" lon="20.07711">
        <ele>577.89001464844</ele>
        <time>2023-10-01T08:31:15.000Z</time>
      </trkpt>
      <trkpt lat="42.23022" lon="20.07715">
        <ele>577.89001464844</ele>
        <time>2023-10-01T08:31:14.000Z</time>
      </trkpt>
      <trkpt lat="42.23063" lon="20.07755">
        <ele>578.36999511719</ele>
        <time>2023-10-01T08:31:11.000Z</time>
      </trkpt>
      <trkpt lat="42.23085" lon="20.07774">
        <ele>578.84997558594</ele>
        <time>2023-10-01T08:31:10.000Z</time>
      </trkpt>
      <trkpt lat="42.23098" lon="20.07787">
        <ele>578.84997558594</ele>
        <time>2023-10-01T08:31:09.000Z</time>
      </trkpt>
      <trkpt lat="42.23102" lon="20.07793">
        <ele>578.36999511719</ele>
        <time>2023-10-01T08:31:08.000Z</time>
      </trkpt>
      <trkpt lat="42.23139" lon="20.07849">
        <ele>578.36999511719</ele>
        <time>2023-10-01T08:31:05.000Z</time>
      </trkpt>
      <trkpt lat="42.23147" lon="20.07863">
        <ele>577.89001464844</ele>
        <time>2023-10-01T08:31:04.000Z</time>
      </trkpt>
      <trkpt lat="42.23155" lon="20.07882">
        <ele>577.89001464844</ele>
        <time>2023-10-01T08:31:03.000Z</time>
      </trkpt>
      <trkpt lat="42.23158" lon="20.07892">
        <ele>577.40997314453</ele>
        <time>2023-10-01T08:31:02.000Z</time>
      </trkpt>
      <trkpt lat="42.23173" lon="20.07946">
        <ele>575.96997070312</ele>
        <time>2023-10-01T08:30:59.000Z</time>
      </trkpt>
      <trkpt lat="42.23175" lon="20.07959">
        <ele>575.48999023438</ele>
        <time>2023-10-01T08:30:58.000Z</time>
      </trkpt>
      <trkpt lat="42.23174" lon="20.0797">
        <ele>575.01000976562</ele>
        <time>2023-10-01T08:30:57.000Z</time>
      </trkpt>
      <trkpt lat="42.23169" lon="20.0798">
        <ele>574.03997802734</ele>
        <time>2023-10-01T08:30:56.000Z</time>
      </trkpt>
      <trkpt lat="42.23161" lon="20.0799">
        <ele>573.55999755859</ele>
        <time>2023-10-01T08:30:55.000Z</time>
      </trkpt>
      <trkpt lat="42.2314" lon="20.08018">
        <ele>573.08001708984</ele>
        <time>2023-10-01T08:30:53.000Z</time>
      </trkpt>
      <trkpt lat="42.23131" lon="20.08035">
        <ele>572.59997558594</ele>
        <time>2023-10-01T08:30:52.000Z</time>
      </trkpt>
      <trkpt lat="42.23124" lon="20.08053">
        <ele>573.08001708984</ele>
        <time>2023-10-01T08:30:51.000Z</time>
      </trkpt>
      <trkpt lat="42.23121" lon="20.08071">
        <ele>573.55999755859</ele>
        <time>2023-10-01T08:30:50.000Z</time>
      </trkpt>
      <trkpt lat="42.2312" lon="20.08082">
        <ele>574.03997802734</ele>
        <time>2023-10-01T08:30:49.000Z</time>
      </trkpt>
      <trkpt lat="42.23119" lon="20.08129">
        <ele>575.96997070312</ele>
        <time>2023-10-01T08:30:47.000Z</time>
      </trkpt>
      <trkpt lat="42.2312" lon="20.08149">
        <ele>576.92999267578</ele>
        <time>2023-10-01T08:30:46.000Z</time>
      </trkpt>
      <trkpt lat="42.23121" lon="20.08166">
        <ele>577.40997314453</ele>
        <time>2023-10-01T08:30:45.000Z</time>
      </trkpt>
      <trkpt lat="42.23125" lon="20.08181">
        <ele>577.89001464844</ele>
        <time>2023-10-01T08:30:44.000Z</time>
      </trkpt>
      <trkpt lat="42.2313" lon="20.08194">
        <ele>578.36999511719</ele>
        <time>2023-10-01T08:30:43.000Z</time>
      </trkpt>
      <trkpt lat="42.23137" lon="20.08205">
        <ele>578.36999511719</ele>
        <time>2023-10-01T08:30:42.000Z</time>
      </trkpt>
      <trkpt lat="42.23141" lon="20.08216">
        <ele>578.84997558594</ele>
        <time>2023-10-01T08:30:41.000Z</time>
      </trkpt>
      <trkpt lat="42.23143" lon="20.0823">
        <ele>579.33001708984</ele>
        <time>2023-10-01T08:30:40.000Z</time>
      </trkpt>
      <trkpt lat="42.23143" lon="20.08244">
        <ele>579.33001708984</ele>
        <time>2023-10-01T08:30:39.000Z</time>
      </trkpt>
      <trkpt lat="42.23141" lon="20.08261">
        <ele>579.80999755859</ele>
        <time>2023-10-01T08:30:38.000Z</time>
      </trkpt>
      <trkpt lat="42.2314" lon="20.08281">
        <ele>581.25</ele>
        <time>2023-10-01T08:30:37.000Z</time>
      </trkpt>
      <trkpt lat="42.2314" lon="20.08288">
        <ele>581.72998046875</ele>
        <time>2023-10-01T08:30:36.000Z</time>
      </trkpt>
      <trkpt lat="42.23143" lon="20.08321">
        <ele>583.65997314453</ele>
        <time>2023-10-01T08:30:35.000Z</time>
      </trkpt>
      <trkpt lat="42.23147" lon="20.08339">
        <ele>584.61999511719</ele>
        <time>2023-10-01T08:30:34.000Z</time>
      </trkpt>
      <trkpt lat="42.23151" lon="20.08351">
        <ele>585.09997558594</ele>
        <time>2023-10-01T08:30:33.000Z</time>
      </trkpt>
      <trkpt lat="42.23153" lon="20.08358">
        <ele>585.09997558594</ele>
        <time>2023-10-01T08:30:32.000Z</time>
      </trkpt>
      <trkpt lat="42.23166" lon="20.08388">
        <ele>585.58001708984</ele>
        <time>2023-10-01T08:30:31.000Z</time>
      </trkpt>
      <trkpt lat="42.23189" lon="20.08436">
        <ele>585.58001708984</ele>
        <time>2023-10-01T08:30:28.000Z</time>
      </trkpt>
      <trkpt lat="42.23197" lon="20.08449">
        <ele>585.09997558594</ele>
        <time>2023-10-01T08:30:27.000Z</time>
      </trkpt>
      <trkpt lat="42.23205" lon="20.08463">
        <ele>585.09997558594</ele>
        <time>2023-10-01T08:30:26.000Z</time>
      </trkpt>
      <trkpt lat="42.23209" lon="20.08473">
        <ele>585.09997558594</ele>
        <time>2023-10-01T08:30:25.000Z</time>
      </trkpt>
      <trkpt lat="42.2321" lon="20.08484">
        <ele>584.61999511719</ele>
        <time>2023-10-01T08:30:24.000Z</time>
      </trkpt>
      <trkpt lat="42.23208" lon="20.08495">
        <ele>584.14001464844</ele>
        <time>2023-10-01T08:30:23.000Z</time>
      </trkpt>
      <trkpt lat="42.23199" lon="20.08524">
        <ele>583.17999267578</ele>
        <time>2023-10-01T08:30:21.000Z</time>
      </trkpt>
      <trkpt lat="42.23195" lon="20.08539">
        <ele>583.17999267578</ele>
        <time>2023-10-01T08:30:20.000Z</time>
      </trkpt>
      <trkpt lat="42.23185" lon="20.08602">
        <ele>582.70001220703</ele>
        <time>2023-10-01T08:30:17.000Z</time>
      </trkpt>
      <trkpt lat="42.2318" lon="20.08621">
        <ele>582.70001220703</ele>
        <time>2023-10-01T08:30:16.000Z</time>
      </trkpt>
      <trkpt lat="42.23175" lon="20.08637">
        <ele>582.70001220703</ele>
        <time>2023-10-01T08:30:15.000Z</time>
      </trkpt>
      <trkpt lat="42.23169" lon="20.0865">
        <ele>582.21997070312</ele>
        <time>2023-10-01T08:30:14.000Z</time>
      </trkpt>
      <trkpt lat="42.2316" lon="20.08659">
        <ele>581.72998046875</ele>
        <time>2023-10-01T08:30:13.000Z</time>
      </trkpt>
      <trkpt lat="42.23149" lon="20.08665">
        <ele>581.25</ele>
        <time>2023-10-01T08:30:12.000Z</time>
      </trkpt>
      <trkpt lat="42.23139" lon="20.08669">
        <ele>580.77001953125</ele>
        <time>2023-10-01T08:30:11.000Z</time>
      </trkpt>
      <trkpt lat="42.23128" lon="20.08672">
        <ele>580.28997802734</ele>
        <time>2023-10-01T08:30:10.000Z</time>
      </trkpt>
      <trkpt lat="42.23067" lon="20.08683">
        <ele>576.45001220703</ele>
        <time>2023-10-01T08:30:06.000Z</time>
      </trkpt>
      <trkpt lat="42.23047" lon="20.08685">
        <ele>575.48999023438</ele>
        <time>2023-10-01T08:30:05.000Z</time>
      </trkpt>
      <trkpt lat="42.23033" lon="20.08688">
        <ele>574.03997802734</ele>
        <time>2023-10-01T08:30:04.000Z</time>
      </trkpt>
      <trkpt lat="42.23019" lon="20.08695">
        <ele>573.08001708984</ele>
        <time>2023-10-01T08:30:03.000Z</time>
      </trkpt>
      <trkpt lat="42.23013" lon="20.08698">
        <ele>572.59997558594</ele>
        <time>2023-10-01T08:30:02.000Z</time>
      </trkpt>
      <trkpt lat="42.22963" lon="20.08736">
        <ele>569.71997070312</ele>
        <time>2023-10-01T08:29:59.000Z</time>
      </trkpt>
      <trkpt lat="42.22951" lon="20.08743">
        <ele>569.23999023438</ele>
        <time>2023-10-01T08:29:58.000Z</time>
      </trkpt>
      <trkpt lat="42.22938" lon="20.08746">
        <ele>568.76000976562</ele>
        <time>2023-10-01T08:29:57.000Z</time>
      </trkpt>
      <trkpt lat="42.22933" lon="20.08746">
        <ele>568.76000976562</ele>
        <time>2023-10-01T08:29:56.000Z</time>
      </trkpt>
      <trkpt lat="42.22912" lon="20.08746">
        <ele>567.32000732422</ele>
        <time>2023-10-01T08:29:55.000Z</time>
      </trkpt>
      <trkpt lat="42.22898" lon="20.08749">
        <ele>567.32000732422</ele>
        <time>2023-10-01T08:29:54.000Z</time>
      </trkpt>
      <trkpt lat="42.22895" lon="20.0875">
        <ele>567.32000732422</ele>
        <time>2023-10-01T08:29:53.000Z</time>
      </trkpt>
      <trkpt lat="42.22876" lon="20.08759">
        <ele>567.79998779297</ele>
        <time>2023-10-01T08:29:52.000Z</time>
      </trkpt>
      <trkpt lat="42.22862" lon="20.08763">
        <ele>567.79998779297</ele>
        <time>2023-10-01T08:29:51.000Z</time>
      </trkpt>
      <trkpt lat="42.22844" lon="20.08766">
        <ele>567.79998779297</ele>
        <time>2023-10-01T08:29:50.000Z</time>
      </trkpt>
      <trkpt lat="42.22841" lon="20.08767">
        <ele>567.79998779297</ele>
        <time>2023-10-01T08:29:49.000Z</time>
      </trkpt>
      <trkpt lat="42.22795" lon="20.08778">
        <ele>566.83001708984</ele>
        <time>2023-10-01T08:29:46.000Z</time>
      </trkpt>
      <trkpt lat="42.22779" lon="20.08782">
        <ele>566.83001708984</ele>
        <time>2023-10-01T08:29:45.000Z</time>
      </trkpt>
      <trkpt lat="42.22768" lon="20.08785">
        <ele>566.83001708984</ele>
        <time>2023-10-01T08:29:44.000Z</time>
      </trkpt>
      <trkpt lat="42.22761" lon="20.08789">
        <ele>566.83001708984</ele>
        <time>2023-10-01T08:29:43.000Z</time>
      </trkpt>
      <trkpt lat="42.22756" lon="20.08795">
        <ele>566.83001708984</ele>
        <time>2023-10-01T08:29:42.000Z</time>
      </trkpt>
      <trkpt lat="42.22754" lon="20.08804">
        <ele>567.32000732422</ele>
        <time>2023-10-01T08:29:41.000Z</time>
      </trkpt>
      <trkpt lat="42.22754" lon="20.08815">
        <ele>567.32000732422</ele>
        <time>2023-10-01T08:29:40.000Z</time>
      </trkpt>
      <trkpt lat="42.22757" lon="20.08827">
        <ele>567.32000732422</ele>
        <time>2023-10-01T08:29:39.000Z</time>
      </trkpt>
      <trkpt lat="42.22758" lon="20.0883">
        <ele>567.32000732422</ele>
        <time>2023-10-01T08:29:38.000Z</time>
      </trkpt>
      <trkpt lat="42.22766" lon="20.0885">
        <ele>567.32000732422</ele>
        <time>2023-10-01T08:29:37.000Z</time>
      </trkpt>
      <trkpt lat="42.22769" lon="20.08862">
        <ele>567.32000732422</ele>
        <time>2023-10-01T08:29:36.000Z</time>
      </trkpt>
      <trkpt lat="42.22769" lon="20.08874">
        <ele>567.32000732422</ele>
        <time>2023-10-01T08:29:35.000Z</time>
      </trkpt>
      <trkpt lat="42.22766" lon="20.08886">
        <ele>567.79998779297</ele>
        <time>2023-10-01T08:29:34.000Z</time>
      </trkpt>
      <trkpt lat="42.22763" lon="20.08898">
        <ele>567.79998779297</ele>
        <time>2023-10-01T08:29:33.000Z</time>
      </trkpt>
      <trkpt lat="42.22762" lon="20.08912">
        <ele>567.79998779297</ele>
        <time>2023-10-01T08:29:32.000Z</time>
      </trkpt>
      <trkpt lat="42.22762" lon="20.08927">
        <ele>567.79998779297</ele>
        <time>2023-10-01T08:29:31.000Z</time>
      </trkpt>
      <trkpt lat="42.22761" lon="20.08941">
        <ele>567.32000732422</ele>
        <time>2023-10-01T08:29:30.000Z</time>
      </trkpt>
      <trkpt lat="42.22758" lon="20.08954">
        <ele>567.32000732422</ele>
        <time>2023-10-01T08:29:29.000Z</time>
      </trkpt>
      <trkpt lat="42.22752" lon="20.08965">
        <ele>567.32000732422</ele>
        <time>2023-10-01T08:29:28.000Z</time>
      </trkpt>
      <trkpt lat="42.22746" lon="20.08973">
        <ele>567.79998779297</ele>
        <time>2023-10-01T08:29:27.000Z</time>
      </trkpt>
      <trkpt lat="42.2274" lon="20.08978">
        <ele>567.79998779297</ele>
        <time>2023-10-01T08:29:26.000Z</time>
      </trkpt>
      <trkpt lat="42.22733" lon="20.08979">
        <ele>567.79998779297</ele>
        <time>2023-10-01T08:29:25.000Z</time>
      </trkpt>
      <trkpt lat="42.22725" lon="20.08977">
        <ele>568.28002929688</ele>
        <time>2023-10-01T08:29:24.000Z</time>
      </trkpt>
      <trkpt lat="42.22724" lon="20.08976">
        <ele>568.28002929688</ele>
        <time>2023-10-01T08:29:23.000Z</time>
      </trkpt>
      <trkpt lat="42.22696" lon="20.08955">
        <ele>569.71997070312</ele>
        <time>2023-10-01T08:29:21.000Z</time>
      </trkpt>
      <trkpt lat="42.22685" lon="20.08947">
        <ele>570.20001220703</ele>
        <time>2023-10-01T08:29:20.000Z</time>
      </trkpt>
      <trkpt lat="42.22675" lon="20.08944">
        <ele>570.20001220703</ele>
        <time>2023-10-01T08:29:19.000Z</time>
      </trkpt>
      <trkpt lat="42.22665" lon="20.08946">
        <ele>570.20001220703</ele>
        <time>2023-10-01T08:29:18.000Z</time>
      </trkpt>
      <trkpt lat="42.22655" lon="20.08952">
        <ele>570.67999267578</ele>
        <time>2023-10-01T08:29:17.000Z</time>
      </trkpt>
      <trkpt lat="42.22649" lon="20.08957">
        <ele>571.15997314453</ele>
        <time>2023-10-01T08:29:16.000Z</time>
      </trkpt>
      <trkpt lat="42.22635" lon="20.08971">
        <ele>571.64001464844</ele>
        <time>2023-10-01T08:29:15.000Z</time>
      </trkpt>
      <trkpt lat="42.22604" lon="20.08997">
        <ele>572.59997558594</ele>
        <time>2023-10-01T08:29:13.000Z</time>
      </trkpt>
      <trkpt lat="42.22599" lon="20.09002">
        <ele>572.59997558594</ele>
        <time>2023-10-01T08:29:12.000Z</time>
      </trkpt>
      <trkpt lat="42.22502" lon="20.09106">
        <ele>576.92999267578</ele>
        <time>2023-10-01T08:29:06.000Z</time>
      </trkpt>
      <trkpt lat="42.22487" lon="20.09128">
        <ele>577.89001464844</ele>
        <time>2023-10-01T08:29:05.000Z</time>
      </trkpt>
      <trkpt lat="42.22476" lon="20.09148">
        <ele>578.36999511719</ele>
        <time>2023-10-01T08:29:04.000Z</time>
      </trkpt>
      <trkpt lat="42.22461" lon="20.09182">
        <ele>579.33001708984</ele>
        <time>2023-10-01T08:29:02.000Z</time>
      </trkpt>
      <trkpt lat="42.22411" lon="20.09318">
        <ele>583.65997314453</ele>
        <time>2023-10-01T08:28:56.000Z</time>
      </trkpt>
      <trkpt lat="42.22396" lon="20.09381">
        <ele>585.58001708984</ele>
        <time>2023-10-01T08:28:53.000Z</time>
      </trkpt>
      <trkpt lat="42.22387" lon="20.09408">
        <ele>586.53997802734</ele>
        <time>2023-10-01T08:28:52.000Z</time>
      </trkpt>
      <trkpt lat="42.2238" lon="20.09427">
        <ele>586.53997802734</ele>
        <time>2023-10-01T08:28:51.000Z</time>
      </trkpt>
      <trkpt lat="42.22377" lon="20.09432">
        <ele>586.53997802734</ele>
        <time>2023-10-01T08:28:50.000Z</time>
      </trkpt>
      <trkpt lat="42.2237" lon="20.09446">
        <ele>587.02001953125</ele>
        <time>2023-10-01T08:28:49.000Z</time>
      </trkpt>
      <trkpt lat="42.2231" lon="20.09555">
        <ele>587.5</ele>
        <time>2023-10-01T08:28:43.000Z</time>
      </trkpt>
      <trkpt lat="42.22304" lon="20.09571">
        <ele>587.02001953125</ele>
        <time>2023-10-01T08:28:42.000Z</time>
      </trkpt>
      <trkpt lat="42.223" lon="20.09586">
        <ele>587.02001953125</ele>
        <time>2023-10-01T08:28:41.000Z</time>
      </trkpt>
      <trkpt lat="42.22298" lon="20.09599">
        <ele>586.53997802734</ele>
        <time>2023-10-01T08:28:40.000Z</time>
      </trkpt>
      <trkpt lat="42.22296" lon="20.0962">
        <ele>586.05999755859</ele>
        <time>2023-10-01T08:28:39.000Z</time>
      </trkpt>
      <trkpt lat="42.22296" lon="20.0964">
        <ele>585.58001708984</ele>
        <time>2023-10-01T08:28:38.000Z</time>
      </trkpt>
      <trkpt lat="42.22296" lon="20.09656">
        <ele>585.58001708984</ele>
        <time>2023-10-01T08:28:37.000Z</time>
      </trkpt>
      <trkpt lat="42.22298" lon="20.09672">
        <ele>585.58001708984</ele>
        <time>2023-10-01T08:28:36.000Z</time>
      </trkpt>
      <trkpt lat="42.22299" lon="20.09691">
        <ele>585.58001708984</ele>
        <time>2023-10-01T08:28:35.000Z</time>
      </trkpt>
      <trkpt lat="42.223" lon="20.0971">
        <ele>585.58001708984</ele>
        <time>2023-10-01T08:28:34.000Z</time>
      </trkpt>
      <trkpt lat="42.22299" lon="20.09727">
        <ele>585.09997558594</ele>
        <time>2023-10-01T08:28:33.000Z</time>
      </trkpt>
      <trkpt lat="42.22297" lon="20.09741">
        <ele>585.09997558594</ele>
        <time>2023-10-01T08:28:32.000Z</time>
      </trkpt>
      <trkpt lat="42.22295" lon="20.09749">
        <ele>585.09997558594</ele>
        <time>2023-10-01T08:28:31.000Z</time>
      </trkpt>
      <trkpt lat="42.22283" lon="20.09804">
        <ele>584.61999511719</ele>
        <time>2023-10-01T08:28:28.000Z</time>
      </trkpt>
      <trkpt lat="42.22279" lon="20.09823">
        <ele>584.61999511719</ele>
        <time>2023-10-01T08:28:27.000Z</time>
      </trkpt>
      <trkpt lat="42.22274" lon="20.09839">
        <ele>584.61999511719</ele>
        <time>2023-10-01T08:28:26.000Z</time>
      </trkpt>
      <trkpt lat="42.22268" lon="20.09852">
        <ele>585.09997558594</ele>
        <time>2023-10-01T08:28:25.000Z</time>
      </trkpt>
      <trkpt lat="42.22261" lon="20.09864">
        <ele>585.09997558594</ele>
        <time>2023-10-01T08:28:24.000Z</time>
      </trkpt>
      <trkpt lat="42.22252" lon="20.09874">
        <ele>585.58001708984</ele>
        <time>2023-10-01T08:28:23.000Z</time>
      </trkpt>
      <trkpt lat="42.22244" lon="20.09881">
        <ele>586.05999755859</ele>
        <time>2023-10-01T08:28:22.000Z</time>
      </trkpt>
      <trkpt lat="42.22235" lon="20.09884">
        <ele>586.53997802734</ele>
        <time>2023-10-01T08:28:21.000Z</time>
      </trkpt>
      <trkpt lat="42.22227" lon="20.09882">
        <ele>586.53997802734</ele>
        <time>2023-10-01T08:28:20.000Z</time>
      </trkpt>
      <trkpt lat="42.22221" lon="20.0988">
        <ele>587.02001953125</ele>
        <time>2023-10-01T08:28:19.000Z</time>
      </trkpt>
      <trkpt lat="42.22184" lon="20.09857">
        <ele>587.97998046875</ele>
        <time>2023-10-01T08:28:16.000Z</time>
      </trkpt>
      <trkpt lat="42.22176" lon="20.09853">
        <ele>588.46002197266</ele>
        <time>2023-10-01T08:28:15.000Z</time>
      </trkpt>
      <trkpt lat="42.22159" lon="20.09844">
        <ele>588.46002197266</ele>
        <time>2023-10-01T08:28:14.000Z</time>
      </trkpt>
      <trkpt lat="42.22147" lon="20.09836">
        <ele>588.95001220703</ele>
        <time>2023-10-01T08:28:13.000Z</time>
      </trkpt>
      <trkpt lat="42.22137" lon="20.09828">
        <ele>589.42999267578</ele>
        <time>2023-10-01T08:28:12.000Z</time>
      </trkpt>
      <trkpt lat="42.22132" lon="20.09822">
        <ele>589.42999267578</ele>
        <time>2023-10-01T08:28:11.000Z</time>
      </trkpt>
      <trkpt lat="42.22117" lon="20.09801">
        <ele>589.42999267578</ele>
        <time>2023-10-01T08:28:09.000Z</time>
      </trkpt>
      <trkpt lat="42.2211" lon="20.09794">
        <ele>589.42999267578</ele>
        <time>2023-10-01T08:28:08.000Z</time>
      </trkpt>
      <trkpt lat="42.22104" lon="20.0979">
        <ele>589.42999267578</ele>
        <time>2023-10-01T08:28:07.000Z</time>
      </trkpt>
      <trkpt lat="42.22096" lon="20.09788">
        <ele>588.95001220703</ele>
        <time>2023-10-01T08:28:06.000Z</time>
      </trkpt>
      <trkpt lat="42.22087" lon="20.09787">
        <ele>588.95001220703</ele>
        <time>2023-10-01T08:28:05.000Z</time>
      </trkpt>
      <trkpt lat="42.22077" lon="20.09789">
        <ele>588.95001220703</ele>
        <time>2023-10-01T08:28:04.000Z</time>
      </trkpt>
      <trkpt lat="42.22069" lon="20.09788">
        <ele>588.46002197266</ele>
        <time>2023-10-01T08:28:03.000Z</time>
      </trkpt>
      <trkpt lat="42.22061" lon="20.09784">
        <ele>587.97998046875</ele>
        <time>2023-10-01T08:28:02.000Z</time>
      </trkpt>
      <trkpt lat="42.22057" lon="20.09776">
        <ele>587.97998046875</ele>
        <time>2023-10-01T08:28:01.000Z</time>
      </trkpt>
      <trkpt lat="42.22053" lon="20.09765">
        <ele>587.02001953125</ele>
        <time>2023-10-01T08:28:00.000Z</time>
      </trkpt>
      <trkpt lat="42.22047" lon="20.09755">
        <ele>585.58001708984</ele>
        <time>2023-10-01T08:27:59.000Z</time>
      </trkpt>
      <trkpt lat="42.22037" lon="20.09749">
        <ele>583.65997314453</ele>
        <time>2023-10-01T08:27:58.000Z</time>
      </trkpt>
      <trkpt lat="42.22024" lon="20.09749">
        <ele>582.21997070312</ele>
        <time>2023-10-01T08:27:57.000Z</time>
      </trkpt>
      <trkpt lat="42.2201" lon="20.0975">
        <ele>581.25</ele>
        <time>2023-10-01T08:27:56.000Z</time>
      </trkpt>
      <trkpt lat="42.21994" lon="20.09749">
        <ele>579.80999755859</ele>
        <time>2023-10-01T08:27:55.000Z</time>
      </trkpt>
      <trkpt lat="42.21979" lon="20.09743">
        <ele>578.36999511719</ele>
        <time>2023-10-01T08:27:54.000Z</time>
      </trkpt>
      <trkpt lat="42.21974" lon="20.0974">
        <ele>577.40997314453</ele>
        <time>2023-10-01T08:27:53.000Z</time>
      </trkpt>
      <trkpt lat="42.21953" lon="20.09729">
        <ele>573.08001708984</ele>
        <time>2023-10-01T08:27:52.000Z</time>
      </trkpt>
      <trkpt lat="42.21944" lon="20.09729">
        <ele>572.11999511719</ele>
        <time>2023-10-01T08:27:51.000Z</time>
      </trkpt>
      <trkpt lat="42.2193" lon="20.09732">
        <ele>570.20001220703</ele>
        <time>2023-10-01T08:27:50.000Z</time>
      </trkpt>
      <trkpt lat="42.2192" lon="20.09731">
        <ele>569.23999023438</ele>
        <time>2023-10-01T08:27:49.000Z</time>
      </trkpt>
      <trkpt lat="42.2191" lon="20.09724">
        <ele>567.79998779297</ele>
        <time>2023-10-01T08:27:48.000Z</time>
      </trkpt>
      <trkpt lat="42.21898" lon="20.09713">
        <ele>566.34997558594</ele>
        <time>2023-10-01T08:27:47.000Z</time>
      </trkpt>
      <trkpt lat="42.2189" lon="20.09701">
        <ele>565.39001464844</ele>
        <time>2023-10-01T08:27:46.000Z</time>
      </trkpt>
      <trkpt lat="42.21885" lon="20.0969">
        <ele>563.95001220703</ele>
        <time>2023-10-01T08:27:45.000Z</time>
      </trkpt>
      <trkpt lat="42.21879" lon="20.09671">
        <ele>561.07000732422</ele>
        <time>2023-10-01T08:27:44.000Z</time>
      </trkpt>
      <trkpt lat="42.21877" lon="20.09667">
        <ele>560.59002685547</ele>
        <time>2023-10-01T08:27:43.000Z</time>
      </trkpt>
      <trkpt lat="42.21861" lon="20.09633">
        <ele>556.73999023438</ele>
        <time>2023-10-01T08:27:42.000Z</time>
      </trkpt>
      <trkpt lat="42.21855" lon="20.09615">
        <ele>555.78002929688</ele>
        <time>2023-10-01T08:27:41.000Z</time>
      </trkpt>
      <trkpt lat="42.21851" lon="20.09596">
        <ele>554.82000732422</ele>
        <time>2023-10-01T08:27:40.000Z</time>
      </trkpt>
      <trkpt lat="42.21851" lon="20.09576">
        <ele>553.38000488281</ele>
        <time>2023-10-01T08:27:39.000Z</time>
      </trkpt>
      <trkpt lat="42.21851" lon="20.09568">
        <ele>552.90002441406</ele>
        <time>2023-10-01T08:27:38.000Z</time>
      </trkpt>
      <trkpt lat="42.21859" lon="20.09517">
        <ele>550.48999023438</ele>
        <time>2023-10-01T08:27:36.000Z</time>
      </trkpt>
      <trkpt lat="42.21864" lon="20.09496">
        <ele>549.53002929688</ele>
        <time>2023-10-01T08:27:35.000Z</time>
      </trkpt>
      <trkpt lat="42.21867" lon="20.09488">
        <ele>549.53002929688</ele>
        <time>2023-10-01T08:27:34.000Z</time>
      </trkpt>
      <trkpt lat="42.21876" lon="20.09463">
        <ele>547.60998535156</ele>
        <time>2023-10-01T08:27:33.000Z</time>
      </trkpt>
      <trkpt lat="42.21881" lon="20.09441">
        <ele>545.69000244141</ele>
        <time>2023-10-01T08:27:32.000Z</time>
      </trkpt>
      <trkpt lat="42.21884" lon="20.09423">
        <ele>543.76000976562</ele>
        <time>2023-10-01T08:27:31.000Z</time>
      </trkpt>
      <trkpt lat="42.21883" lon="20.09408">
        <ele>542.32000732422</ele>
        <time>2023-10-01T08:27:30.000Z</time>
      </trkpt>
      <trkpt lat="42.2188" lon="20.09394">
        <ele>540.88000488281</ele>
        <time>2023-10-01T08:27:29.000Z</time>
      </trkpt>
      <trkpt lat="42.21875" lon="20.09382">
        <ele>539.44000244141</ele>
        <time>2023-10-01T08:27:28.000Z</time>
      </trkpt>
      <trkpt lat="42.21868" lon="20.09372">
        <ele>537.98999023438</ele>
        <time>2023-10-01T08:27:27.000Z</time>
      </trkpt>
      <trkpt lat="42.21855" lon="20.09364">
        <ele>536.07000732422</ele>
        <time>2023-10-01T08:27:26.000Z</time>
      </trkpt>
      <trkpt lat="42.21841" lon="20.09361">
        <ele>535.10998535156</ele>
        <time>2023-10-01T08:27:25.000Z</time>
      </trkpt>
      <trkpt lat="42.21828" lon="20.09361">
        <ele>534.15002441406</ele>
        <time>2023-10-01T08:27:24.000Z</time>
      </trkpt>
      <trkpt lat="42.21815" lon="20.0936">
        <ele>533.19000244141</ele>
        <time>2023-10-01T08:27:23.000Z</time>
      </trkpt>
      <trkpt lat="42.21803" lon="20.09354">
        <ele>532.71002197266</ele>
        <time>2023-10-01T08:27:22.000Z</time>
      </trkpt>
      <trkpt lat="42.21793" lon="20.09343">
        <ele>531.75</ele>
        <time>2023-10-01T08:27:21.000Z</time>
      </trkpt>
      <trkpt lat="42.21784" lon="20.09331">
        <ele>530.78997802734</ele>
        <time>2023-10-01T08:27:20.000Z</time>
      </trkpt>
      <trkpt lat="42.21773" lon="20.09314">
        <ele>529.34002685547</ele>
        <time>2023-10-01T08:27:19.000Z</time>
      </trkpt>
      <trkpt lat="42.21764" lon="20.09298">
        <ele>528.38000488281</ele>
        <time>2023-10-01T08:27:18.000Z</time>
      </trkpt>
      <trkpt lat="42.21758" lon="20.09283">
        <ele>527.41998291016</ele>
        <time>2023-10-01T08:27:17.000Z</time>
      </trkpt>
      <trkpt lat="42.21755" lon="20.09266">
        <ele>526.46002197266</ele>
        <time>2023-10-01T08:27:16.000Z</time>
      </trkpt>
      <trkpt lat="42.21754" lon="20.09247">
        <ele>525.5</ele>
        <time>2023-10-01T08:27:15.000Z</time>
      </trkpt>
      <trkpt lat="42.21754" lon="20.09226">
        <ele>525.02001953125</ele>
        <time>2023-10-01T08:27:14.000Z</time>
      </trkpt>
      <trkpt lat="42.21757" lon="20.09208">
        <ele>523.58001708984</ele>
        <time>2023-10-01T08:27:13.000Z</time>
      </trkpt>
      <trkpt lat="42.21758" lon="20.0919">
        <ele>521.65002441406</ele>
        <time>2023-10-01T08:27:12.000Z</time>
      </trkpt>
      <trkpt lat="42.21756" lon="20.09167">
        <ele>519.72998046875</ele>
        <time>2023-10-01T08:27:11.000Z</time>
      </trkpt>
      <trkpt lat="42.21755" lon="20.09162">
        <ele>519.72998046875</ele>
        <time>2023-10-01T08:27:10.000Z</time>
      </trkpt>
      <trkpt lat="42.21741" lon="20.09092">
        <ele>515.88000488281</ele>
        <time>2023-10-01T08:27:08.000Z</time>
      </trkpt>
      <trkpt lat="42.21738" lon="20.09069">
        <ele>514.91998291016</ele>
        <time>2023-10-01T08:27:07.000Z</time>
      </trkpt>
      <trkpt lat="42.21737" lon="20.09051">
        <ele>514.91998291016</ele>
        <time>2023-10-01T08:27:06.000Z</time>
      </trkpt>
      <trkpt lat="42.21737" lon="20.09026">
        <ele>513.96002197266</ele>
        <time>2023-10-01T08:27:05.000Z</time>
      </trkpt>
      <trkpt lat="42.21736" lon="20.09009">
        <ele>513.47998046875</ele>
        <time>2023-10-01T08:27:04.000Z</time>
      </trkpt>
      <trkpt lat="42.21733" lon="20.08991">
        <ele>513.47998046875</ele>
        <time>2023-10-01T08:27:03.000Z</time>
      </trkpt>
      <trkpt lat="42.2173" lon="20.08974">
        <ele>513</ele>
        <time>2023-10-01T08:27:02.000Z</time>
      </trkpt>
      <trkpt lat="42.21732" lon="20.08955">
        <ele>513</ele>
        <time>2023-10-01T08:27:01.000Z</time>
      </trkpt>
      <trkpt lat="42.21735" lon="20.0894">
        <ele>513</ele>
        <time>2023-10-01T08:27:00.000Z</time>
      </trkpt>
      <trkpt lat="42.21738" lon="20.08924">
        <ele>513</ele>
        <time>2023-10-01T08:26:59.000Z</time>
      </trkpt>
      <trkpt lat="42.21743" lon="20.08897">
        <ele>512.52001953125</ele>
        <time>2023-10-01T08:26:58.000Z</time>
      </trkpt>
      <trkpt lat="42.21743" lon="20.08883">
        <ele>513</ele>
        <time>2023-10-01T08:26:57.000Z</time>
      </trkpt>
      <trkpt lat="42.21742" lon="20.0886">
        <ele>514.91998291016</ele>
        <time>2023-10-01T08:26:56.000Z</time>
      </trkpt>
      <trkpt lat="42.21742" lon="20.08837">
        <ele>515.40002441406</ele>
        <time>2023-10-01T08:26:55.000Z</time>
      </trkpt>
      <trkpt lat="42.2174" lon="20.08819">
        <ele>515.40002441406</ele>
        <time>2023-10-01T08:26:54.000Z</time>
      </trkpt>
      <trkpt lat="42.21737" lon="20.08807">
        <ele>515.40002441406</ele>
        <time>2023-10-01T08:26:53.000Z</time>
      </trkpt>
      <trkpt lat="42.21731" lon="20.08786">
        <ele>515.40002441406</ele>
        <time>2023-10-01T08:26:52.000Z</time>
      </trkpt>
      <trkpt lat="42.21726" lon="20.08768">
        <ele>515.40002441406</ele>
        <time>2023-10-01T08:26:51.000Z</time>
      </trkpt>
      <trkpt lat="42.21725" lon="20.08749">
        <ele>516.36999511719</ele>
        <time>2023-10-01T08:26:50.000Z</time>
      </trkpt>
      <trkpt lat="42.21728" lon="20.08731">
        <ele>516.36999511719</ele>
        <time>2023-10-01T08:26:49.000Z</time>
      </trkpt>
      <trkpt lat="42.21737" lon="20.08689">
        <ele>517.80999755859</ele>
        <time>2023-10-01T08:26:47.000Z</time>
      </trkpt>
      <trkpt lat="42.21739" lon="20.08664">
        <ele>519.72998046875</ele>
        <time>2023-10-01T08:26:46.000Z</time>
      </trkpt>
      <trkpt lat="42.21739" lon="20.08644">
        <ele>521.65002441406</ele>
        <time>2023-10-01T08:26:45.000Z</time>
      </trkpt>
      <trkpt lat="42.21738" lon="20.08631">
        <ele>522.60998535156</ele>
        <time>2023-10-01T08:26:44.000Z</time>
      </trkpt>
      <trkpt lat="42.21731" lon="20.08579">
        <ele>526.94000244141</ele>
        <time>2023-10-01T08:26:42.000Z</time>
      </trkpt>
      <trkpt lat="42.2173" lon="20.08562">
        <ele>528.38000488281</ele>
        <time>2023-10-01T08:26:41.000Z</time>
      </trkpt>
      <trkpt lat="42.21729" lon="20.08543">
        <ele>528.85998535156</ele>
        <time>2023-10-01T08:26:40.000Z</time>
      </trkpt>
      <trkpt lat="42.21723" lon="20.08526">
        <ele>530.29998779297</ele>
        <time>2023-10-01T08:26:39.000Z</time>
      </trkpt>
      <trkpt lat="42.21716" lon="20.0851">
        <ele>532.22998046875</ele>
        <time>2023-10-01T08:26:38.000Z</time>
      </trkpt>
      <trkpt lat="42.21709" lon="20.08494">
        <ele>534.15002441406</ele>
        <time>2023-10-01T08:26:37.000Z</time>
      </trkpt>
      <trkpt lat="42.21707" lon="20.08479">
        <ele>536.07000732422</ele>
        <time>2023-10-01T08:26:36.000Z</time>
      </trkpt>
      <trkpt lat="42.21708" lon="20.08465">
        <ele>537.98999023438</ele>
        <time>2023-10-01T08:26:35.000Z</time>
      </trkpt>
      <trkpt lat="42.21712" lon="20.08451">
        <ele>539.44000244141</ele>
        <time>2023-10-01T08:26:34.000Z</time>
      </trkpt>
      <trkpt lat="42.21718" lon="20.08435">
        <ele>540.40002441406</ele>
        <time>2023-10-01T08:26:33.000Z</time>
      </trkpt>
      <trkpt lat="42.21721" lon="20.08422">
        <ele>540.88000488281</ele>
        <time>2023-10-01T08:26:32.000Z</time>
      </trkpt>
      <trkpt lat="42.21721" lon="20.08411">
        <ele>540.88000488281</ele>
        <time>2023-10-01T08:26:31.000Z</time>
      </trkpt>
      <trkpt lat="42.21718" lon="20.08401">
        <ele>541.35998535156</ele>
        <time>2023-10-01T08:26:30.000Z</time>
      </trkpt>
      <trkpt lat="42.21714" lon="20.08394">
        <ele>542.32000732422</ele>
        <time>2023-10-01T08:26:29.000Z</time>
      </trkpt>
      <trkpt lat="42.21702" lon="20.08378">
        <ele>543.76000976562</ele>
        <time>2023-10-01T08:26:28.000Z</time>
      </trkpt>
      <trkpt lat="42.21693" lon="20.08361">
        <ele>544.71997070312</ele>
        <time>2023-10-01T08:26:27.000Z</time>
      </trkpt>
      <trkpt lat="42.21689" lon="20.08351">
        <ele>545.69000244141</ele>
        <time>2023-10-01T08:26:26.000Z</time>
      </trkpt>
      <trkpt lat="42.21671" lon="20.08301">
        <ele>548.57000732422</ele>
        <time>2023-10-01T08:26:24.000Z</time>
      </trkpt>
      <trkpt lat="42.2166" lon="20.08278">
        <ele>550.48999023438</ele>
        <time>2023-10-01T08:26:23.000Z</time>
      </trkpt>
      <trkpt lat="42.21642" lon="20.08246">
        <ele>553.85998535156</ele>
        <time>2023-10-01T08:26:21.000Z</time>
      </trkpt>
      <trkpt lat="42.21639" lon="20.08232">
        <ele>555.78002929688</ele>
        <time>2023-10-01T08:26:20.000Z</time>
      </trkpt>
      <trkpt lat="42.21639" lon="20.08218">
        <ele>557.70001220703</ele>
        <time>2023-10-01T08:26:19.000Z</time>
      </trkpt>
      <trkpt lat="42.2164" lon="20.08209">
        <ele>557.70001220703</ele>
        <time>2023-10-01T08:26:18.000Z</time>
      </trkpt>
      <trkpt lat="42.21643" lon="20.0818">
        <ele>558.17999267578</ele>
        <time>2023-10-01T08:26:17.000Z</time>
      </trkpt>
      <trkpt lat="42.21644" lon="20.08159">
        <ele>558.65997314453</ele>
        <time>2023-10-01T08:26:16.000Z</time>
      </trkpt>
      <trkpt lat="42.21643" lon="20.08138">
        <ele>559.61999511719</ele>
        <time>2023-10-01T08:26:15.000Z</time>
      </trkpt>
      <trkpt lat="42.2164" lon="20.08121">
        <ele>560.59002685547</ele>
        <time>2023-10-01T08:26:14.000Z</time>
      </trkpt>
      <trkpt lat="42.21637" lon="20.0811">
        <ele>561.54998779297</ele>
        <time>2023-10-01T08:26:13.000Z</time>
      </trkpt>
      <trkpt lat="42.21626" lon="20.08076">
        <ele>563.95001220703</ele>
        <time>2023-10-01T08:26:12.000Z</time>
      </trkpt>
      <trkpt lat="42.21621" lon="20.08059">
        <ele>565.39001464844</ele>
        <time>2023-10-01T08:26:11.000Z</time>
      </trkpt>
      <trkpt lat="42.21617" lon="20.0804">
        <ele>566.34997558594</ele>
        <time>2023-10-01T08:26:10.000Z</time>
      </trkpt>
      <trkpt lat="42.21611" lon="20.08022">
        <ele>566.83001708984</ele>
        <time>2023-10-01T08:26:09.000Z</time>
      </trkpt>
      <trkpt lat="42.21602" lon="20.08005">
        <ele>568.28002929688</ele>
        <time>2023-10-01T08:26:08.000Z</time>
      </trkpt>
      <trkpt lat="42.21594" lon="20.07995">
        <ele>569.23999023438</ele>
        <time>2023-10-01T08:26:07.000Z</time>
      </trkpt>
      <trkpt lat="42.21581" lon="20.07979">
        <ele>571.15997314453</ele>
        <time>2023-10-01T08:26:06.000Z</time>
      </trkpt>
      <trkpt lat="42.21568" lon="20.07965">
        <ele>572.11999511719</ele>
        <time>2023-10-01T08:26:05.000Z</time>
      </trkpt>
      <trkpt lat="42.21554" lon="20.07953">
        <ele>572.59997558594</ele>
        <time>2023-10-01T08:26:04.000Z</time>
      </trkpt>
      <trkpt lat="42.21539" lon="20.07943">
        <ele>572.59997558594</ele>
        <time>2023-10-01T08:26:03.000Z</time>
      </trkpt>
      <trkpt lat="42.21525" lon="20.07938">
        <ele>572.11999511719</ele>
        <time>2023-10-01T08:26:02.000Z</time>
      </trkpt>
      <trkpt lat="42.21512" lon="20.07935">
        <ele>572.11999511719</ele>
        <time>2023-10-01T08:26:01.000Z</time>
      </trkpt>
      <trkpt lat="42.21496" lon="20.0793">
        <ele>573.08001708984</ele>
        <time>2023-10-01T08:26:00.000Z</time>
      </trkpt>
      <trkpt lat="42.21482" lon="20.07925">
        <ele>574.53002929688</ele>
        <time>2023-10-01T08:25:59.000Z</time>
      </trkpt>
      <trkpt lat="42.21468" lon="20.07917">
        <ele>575.48999023438</ele>
        <time>2023-10-01T08:25:58.000Z</time>
      </trkpt>
      <trkpt lat="42.21442" lon="20.07901">
        <ele>577.40997314453</ele>
        <time>2023-10-01T08:25:56.000Z</time>
      </trkpt>
      <trkpt lat="42.21432" lon="20.07892">
        <ele>578.36999511719</ele>
        <time>2023-10-01T08:25:55.000Z</time>
      </trkpt>
      <trkpt lat="42.21424" lon="20.07881">
        <ele>579.80999755859</ele>
        <time>2023-10-01T08:25:54.000Z</time>
      </trkpt>
      <trkpt lat="42.2142" lon="20.07867">
        <ele>581.25</ele>
        <time>2023-10-01T08:25:53.000Z</time>
      </trkpt>
      <trkpt lat="42.21418" lon="20.07856">
        <ele>582.21997070312</ele>
        <time>2023-10-01T08:25:52.000Z</time>
      </trkpt>
      <trkpt lat="42.21411" lon="20.07798">
        <ele>587.97998046875</ele>
        <time>2023-10-01T08:25:49.000Z</time>
      </trkpt>
      <trkpt lat="42.21412" lon="20.07781">
        <ele>589.90997314453</ele>
        <time>2023-10-01T08:25:48.000Z</time>
      </trkpt>
      <trkpt lat="42.21415" lon="20.07764">
        <ele>592.30999755859</ele>
        <time>2023-10-01T08:25:47.000Z</time>
      </trkpt>
      <trkpt lat="42.21416" lon="20.07751">
        <ele>592.78997802734</ele>
        <time>2023-10-01T08:25:46.000Z</time>
      </trkpt>
      <trkpt lat="42.21415" lon="20.07738">
        <ele>593.75</ele>
        <time>2023-10-01T08:25:45.000Z</time>
      </trkpt>
      <trkpt lat="42.21413" lon="20.07731">
        <ele>594.71002197266</ele>
        <time>2023-10-01T08:25:44.000Z</time>
      </trkpt>
      <trkpt lat="42.21409" lon="20.07722">
        <ele>595.66998291016</ele>
        <time>2023-10-01T08:25:43.000Z</time>
      </trkpt>
      <trkpt lat="42.21402" lon="20.07701">
        <ele>597.59997558594</ele>
        <time>2023-10-01T08:25:42.000Z</time>
      </trkpt>
      <trkpt lat="42.21398" lon="20.07691">
        <ele>598.08001708984</ele>
        <time>2023-10-01T08:25:41.000Z</time>
      </trkpt>
      <trkpt lat="42.21391" lon="20.07667">
        <ele>599.52001953125</ele>
        <time>2023-10-01T08:25:40.000Z</time>
      </trkpt>
      <trkpt lat="42.21386" lon="20.07655">
        <ele>600.47998046875</ele>
        <time>2023-10-01T08:25:39.000Z</time>
      </trkpt>
      <trkpt lat="42.21379" lon="20.07648">
        <ele>601.44000244141</ele>
        <time>2023-10-01T08:25:38.000Z</time>
      </trkpt>
      <trkpt lat="42.21373" lon="20.07647">
        <ele>601.91998291016</ele>
        <time>2023-10-01T08:25:37.000Z</time>
      </trkpt>
      <trkpt lat="42.21367" lon="20.0765">
        <ele>602.40002441406</ele>
        <time>2023-10-01T08:25:36.000Z</time>
      </trkpt>
      <trkpt lat="42.21363" lon="20.07659">
        <ele>603.35998535156</ele>
        <time>2023-10-01T08:25:35.000Z</time>
      </trkpt>
      <trkpt lat="42.21362" lon="20.0767">
        <ele>603.84997558594</ele>
        <time>2023-10-01T08:25:34.000Z</time>
      </trkpt>
      <trkpt lat="42.21362" lon="20.07681">
        <ele>604.33001708984</ele>
        <time>2023-10-01T08:25:33.000Z</time>
      </trkpt>
      <trkpt lat="42.21363" lon="20.07695">
        <ele>604.80999755859</ele>
        <time>2023-10-01T08:25:32.000Z</time>
      </trkpt>
      <trkpt lat="42.21365" lon="20.07716">
        <ele>605.28997802734</ele>
        <time>2023-10-01T08:25:31.000Z</time>
      </trkpt>
      <trkpt lat="42.21365" lon="20.07734">
        <ele>605.77001953125</ele>
        <time>2023-10-01T08:25:30.000Z</time>
      </trkpt>
      <trkpt lat="42.21362" lon="20.07748">
        <ele>606.72998046875</ele>
        <time>2023-10-01T08:25:29.000Z</time>
      </trkpt>
      <trkpt lat="42.21357" lon="20.07769">
        <ele>607.69000244141</ele>
        <time>2023-10-01T08:25:28.000Z</time>
      </trkpt>
      <trkpt lat="42.21355" lon="20.07783">
        <ele>608.16998291016</ele>
        <time>2023-10-01T08:25:27.000Z</time>
      </trkpt>
      <trkpt lat="42.21353" lon="20.07804">
        <ele>609.60998535156</ele>
        <time>2023-10-01T08:25:26.000Z</time>
      </trkpt>
      <trkpt lat="42.2135" lon="20.07817">
        <ele>610.09002685547</ele>
        <time>2023-10-01T08:25:25.000Z</time>
      </trkpt>
      <trkpt lat="42.21344" lon="20.07827">
        <ele>611.05999755859</ele>
        <time>2023-10-01T08:25:24.000Z</time>
      </trkpt>
      <trkpt lat="42.21326" lon="20.07847">
        <ele>613.46002197266</ele>
        <time>2023-10-01T08:25:22.000Z</time>
      </trkpt>
      <trkpt lat="42.21318" lon="20.07859">
        <ele>614.90002441406</ele>
        <time>2023-10-01T08:25:21.000Z</time>
      </trkpt>
      <trkpt lat="42.21314" lon="20.07872">
        <ele>615.85998535156</ele>
        <time>2023-10-01T08:25:20.000Z</time>
      </trkpt>
      <trkpt lat="42.21312" lon="20.07886">
        <ele>617.29998779297</ele>
        <time>2023-10-01T08:25:19.000Z</time>
      </trkpt>
      <trkpt lat="42.21316" lon="20.07898">
        <ele>618.26000976562</ele>
        <time>2023-10-01T08:25:18.000Z</time>
      </trkpt>
      <trkpt lat="42.2132" lon="20.07904">
        <ele>618.75</ele>
        <time>2023-10-01T08:25:17.000Z</time>
      </trkpt>
      <trkpt lat="42.21329" lon="20.07919">
        <ele>619.71002197266</ele>
        <time>2023-10-01T08:25:16.000Z</time>
      </trkpt>
      <trkpt lat="42.21333" lon="20.07932">
        <ele>620.19000244141</ele>
        <time>2023-10-01T08:25:15.000Z</time>
      </trkpt>
      <trkpt lat="42.21335" lon="20.07946">
        <ele>621.63000488281</ele>
        <time>2023-10-01T08:25:14.000Z</time>
      </trkpt>
      <trkpt lat="42.21336" lon="20.07961">
        <ele>623.07000732422</ele>
        <time>2023-10-01T08:25:13.000Z</time>
      </trkpt>
      <trkpt lat="42.21335" lon="20.07979">
        <ele>624.51000976562</ele>
        <time>2023-10-01T08:25:12.000Z</time>
      </trkpt>
      <trkpt lat="42.21335" lon="20.07999">
        <ele>625.46997070312</ele>
        <time>2023-10-01T08:25:11.000Z</time>
      </trkpt>
      <trkpt lat="42.21338" lon="20.08014">
        <ele>625.96002197266</ele>
        <time>2023-10-01T08:25:10.000Z</time>
      </trkpt>
      <trkpt lat="42.21343" lon="20.08028">
        <ele>626.91998291016</ele>
        <time>2023-10-01T08:25:09.000Z</time>
      </trkpt>
      <trkpt lat="42.2135" lon="20.0804">
        <ele>626.91998291016</ele>
        <time>2023-10-01T08:25:08.000Z</time>
      </trkpt>
      <trkpt lat="42.21359" lon="20.08049">
        <ele>627.40002441406</ele>
        <time>2023-10-01T08:25:07.000Z</time>
      </trkpt>
      <trkpt lat="42.21367" lon="20.08055">
        <ele>627.88000488281</ele>
        <time>2023-10-01T08:25:06.000Z</time>
      </trkpt>
      <trkpt lat="42.21375" lon="20.08063">
        <ele>627.88000488281</ele>
        <time>2023-10-01T08:25:05.000Z</time>
      </trkpt>
      <trkpt lat="42.21381" lon="20.08073">
        <ele>627.88000488281</ele>
        <time>2023-10-01T08:25:04.000Z</time>
      </trkpt>
      <trkpt lat="42.21383" lon="20.08085">
        <ele>627.40002441406</ele>
        <time>2023-10-01T08:25:03.000Z</time>
      </trkpt>
      <trkpt lat="42.21383" lon="20.08097">
        <ele>627.40002441406</ele>
        <time>2023-10-01T08:25:02.000Z</time>
      </trkpt>
      <trkpt lat="42.21378" lon="20.08176">
        <ele>628.35998535156</ele>
        <time>2023-10-01T08:24:57.000Z</time>
      </trkpt>
      <trkpt lat="42.21376" lon="20.0819">
        <ele>628.84002685547</ele>
        <time>2023-10-01T08:24:56.000Z</time>
      </trkpt>
      <trkpt lat="42.21372" lon="20.08201">
        <ele>628.84002685547</ele>
        <time>2023-10-01T08:24:55.000Z</time>
      </trkpt>
      <trkpt lat="42.21365" lon="20.08211">
        <ele>628.84002685547</ele>
        <time>2023-10-01T08:24:54.000Z</time>
      </trkpt>
      <trkpt lat="42.21359" lon="20.08223">
        <ele>629.79998779297</ele>
        <time>2023-10-01T08:24:53.000Z</time>
      </trkpt>
      <trkpt lat="42.21324" lon="20.08297">
        <ele>635.57000732422</ele>
        <time>2023-10-01T08:24:48.000Z</time>
      </trkpt>
      <trkpt lat="42.21319" lon="20.08313">
        <ele>636.04998779297</ele>
        <time>2023-10-01T08:24:47.000Z</time>
      </trkpt>
      <trkpt lat="42.21315" lon="20.08329">
        <ele>637.01000976562</ele>
        <time>2023-10-01T08:24:46.000Z</time>
      </trkpt>
      <trkpt lat="42.21315" lon="20.08346">
        <ele>637.96997070312</ele>
        <time>2023-10-01T08:24:45.000Z</time>
      </trkpt>
      <trkpt lat="42.21319" lon="20.08361">
        <ele>638.92999267578</ele>
        <time>2023-10-01T08:24:44.000Z</time>
      </trkpt>
      <trkpt lat="42.21326" lon="20.08375">
        <ele>639.89001464844</ele>
        <time>2023-10-01T08:24:43.000Z</time>
      </trkpt>
      <trkpt lat="42.21335" lon="20.08385">
        <ele>641.34002685547</ele>
        <time>2023-10-01T08:24:42.000Z</time>
      </trkpt>
      <trkpt lat="42.21344" lon="20.08392">
        <ele>642.29998779297</ele>
        <time>2023-10-01T08:24:41.000Z</time>
      </trkpt>
      <trkpt lat="42.21368" lon="20.08411">
        <ele>644.70001220703</ele>
        <time>2023-10-01T08:24:39.000Z</time>
      </trkpt>
      <trkpt lat="42.21377" lon="20.0842">
        <ele>645.65997314453</ele>
        <time>2023-10-01T08:24:38.000Z</time>
      </trkpt>
      <trkpt lat="42.21383" lon="20.08431">
        <ele>646.61999511719</ele>
        <time>2023-10-01T08:24:37.000Z</time>
      </trkpt>
      <trkpt lat="42.21385" lon="20.08442">
        <ele>647.09997558594</ele>
        <time>2023-10-01T08:24:36.000Z</time>
      </trkpt>
      <trkpt lat="42.21384" lon="20.08452">
        <ele>648.07000732422</ele>
        <time>2023-10-01T08:24:35.000Z</time>
      </trkpt>
      <trkpt lat="42.21378" lon="20.08483">
        <ele>649.51000976562</ele>
        <time>2023-10-01T08:24:33.000Z</time>
      </trkpt>
      <trkpt lat="42.21375" lon="20.08502">
        <ele>649.98999023438</ele>
        <time>2023-10-01T08:24:32.000Z</time>
      </trkpt>
      <trkpt lat="42.21371" lon="20.08518">
        <ele>650.95001220703</ele>
        <time>2023-10-01T08:24:31.000Z</time>
      </trkpt>
      <trkpt lat="42.21365" lon="20.0853">
        <ele>650.95001220703</ele>
        <time>2023-10-01T08:24:30.000Z</time>
      </trkpt>
      <trkpt lat="42.21356" lon="20.0854">
        <ele>650.95001220703</ele>
        <time>2023-10-01T08:24:29.000Z</time>
      </trkpt>
      <trkpt lat="42.21348" lon="20.08547">
        <ele>650.95001220703</ele>
        <time>2023-10-01T08:24:28.000Z</time>
      </trkpt>
      <trkpt lat="42.21334" lon="20.08556">
        <ele>650.95001220703</ele>
        <time>2023-10-01T08:24:27.000Z</time>
      </trkpt>
      <trkpt lat="42.21303" lon="20.08575">
        <ele>650.46997070312</ele>
        <time>2023-10-01T08:24:25.000Z</time>
      </trkpt>
      <trkpt lat="42.21291" lon="20.08585">
        <ele>650.46997070312</ele>
        <time>2023-10-01T08:24:24.000Z</time>
      </trkpt>
      <trkpt lat="42.2128" lon="20.08596">
        <ele>650.46997070312</ele>
        <time>2023-10-01T08:24:23.000Z</time>
      </trkpt>
      <trkpt lat="42.21272" lon="20.08607">
        <ele>649.98999023438</ele>
        <time>2023-10-01T08:24:22.000Z</time>
      </trkpt>
      <trkpt lat="42.21268" lon="20.08621">
        <ele>649.51000976562</ele>
        <time>2023-10-01T08:24:21.000Z</time>
      </trkpt>
      <trkpt lat="42.21267" lon="20.08637">
        <ele>649.51000976562</ele>
        <time>2023-10-01T08:24:20.000Z</time>
      </trkpt>
      <trkpt lat="42.21269" lon="20.08653">
        <ele>649.03002929688</ele>
        <time>2023-10-01T08:24:19.000Z</time>
      </trkpt>
      <trkpt lat="42.21272" lon="20.08668">
        <ele>648.07000732422</ele>
        <time>2023-10-01T08:24:18.000Z</time>
      </trkpt>
      <trkpt lat="42.21274" lon="20.08682">
        <ele>647.09997558594</ele>
        <time>2023-10-01T08:24:17.000Z</time>
      </trkpt>
      <trkpt lat="42.21274" lon="20.08694">
        <ele>646.61999511719</ele>
        <time>2023-10-01T08:24:16.000Z</time>
      </trkpt>
      <trkpt lat="42.21269" lon="20.08706">
        <ele>645.65997314453</ele>
        <time>2023-10-01T08:24:15.000Z</time>
      </trkpt>
      <trkpt lat="42.21262" lon="20.08717">
        <ele>645.17999267578</ele>
        <time>2023-10-01T08:24:14.000Z</time>
      </trkpt>
      <trkpt lat="42.21257" lon="20.08722">
        <ele>644.70001220703</ele>
        <time>2023-10-01T08:24:13.000Z</time>
      </trkpt>
      <trkpt lat="42.21243" lon="20.08733">
        <ele>643.26000976562</ele>
        <time>2023-10-01T08:24:12.000Z</time>
      </trkpt>
      <trkpt lat="42.21233" lon="20.08742">
        <ele>641.82000732422</ele>
        <time>2023-10-01T08:24:11.000Z</time>
      </trkpt>
      <trkpt lat="42.21221" lon="20.08756">
        <ele>641.34002685547</ele>
        <time>2023-10-01T08:24:10.000Z</time>
      </trkpt>
      <trkpt lat="42.2121" lon="20.0877">
        <ele>640.85998535156</ele>
        <time>2023-10-01T08:24:09.000Z</time>
      </trkpt>
      <trkpt lat="42.21202" lon="20.08784">
        <ele>640.85998535156</ele>
        <time>2023-10-01T08:24:08.000Z</time>
      </trkpt>
      <trkpt lat="42.21198" lon="20.08798">
        <ele>640.85998535156</ele>
        <time>2023-10-01T08:24:07.000Z</time>
      </trkpt>
      <trkpt lat="42.21195" lon="20.08812">
        <ele>640.85998535156</ele>
        <time>2023-10-01T08:24:06.000Z</time>
      </trkpt>
      <trkpt lat="42.21196" lon="20.08825">
        <ele>640.85998535156</ele>
        <time>2023-10-01T08:24:05.000Z</time>
      </trkpt>
      <trkpt lat="42.21201" lon="20.08837">
        <ele>641.34002685547</ele>
        <time>2023-10-01T08:24:04.000Z</time>
      </trkpt>
      <trkpt lat="42.21209" lon="20.08849">
        <ele>641.82000732422</ele>
        <time>2023-10-01T08:24:03.000Z</time>
      </trkpt>
      <trkpt lat="42.21214" lon="20.08855">
        <ele>641.82000732422</ele>
        <time>2023-10-01T08:24:02.000Z</time>
      </trkpt>
      <trkpt lat="42.2123" lon="20.08869">
        <ele>642.29998779297</ele>
        <time>2023-10-01T08:24:01.000Z</time>
      </trkpt>
      <trkpt lat="42.21237" lon="20.08879">
        <ele>642.29998779297</ele>
        <time>2023-10-01T08:24:00.000Z</time>
      </trkpt>
      <trkpt lat="42.2124" lon="20.08889">
        <ele>643.26000976562</ele>
        <time>2023-10-01T08:23:59.000Z</time>
      </trkpt>
      <trkpt lat="42.21239" lon="20.08902">
        <ele>644.21997070312</ele>
        <time>2023-10-01T08:23:58.000Z</time>
      </trkpt>
      <trkpt lat="42.21234" lon="20.08915">
        <ele>644.70001220703</ele>
        <time>2023-10-01T08:23:57.000Z</time>
      </trkpt>
      <trkpt lat="42.21226" lon="20.08927">
        <ele>645.65997314453</ele>
        <time>2023-10-01T08:23:56.000Z</time>
      </trkpt>
      <trkpt lat="42.21221" lon="20.08934">
        <ele>646.14001464844</ele>
        <time>2023-10-01T08:23:55.000Z</time>
      </trkpt>
      <trkpt lat="42.21207" lon="20.08948">
        <ele>646.61999511719</ele>
        <time>2023-10-01T08:23:54.000Z</time>
      </trkpt>
      <trkpt lat="42.212" lon="20.08958">
        <ele>647.09997558594</ele>
        <time>2023-10-01T08:23:53.000Z</time>
      </trkpt>
      <trkpt lat="42.21196" lon="20.08972">
        <ele>647.59002685547</ele>
        <time>2023-10-01T08:23:52.000Z</time>
      </trkpt>
      <trkpt lat="42.21194" lon="20.08988">
        <ele>647.59002685547</ele>
        <time>2023-10-01T08:23:51.000Z</time>
      </trkpt>
      <trkpt lat="42.2119" lon="20.09005">
        <ele>647.09997558594</ele>
        <time>2023-10-01T08:23:50.000Z</time>
      </trkpt>
      <trkpt lat="42.21189" lon="20.0901">
        <ele>647.09997558594</ele>
        <time>2023-10-01T08:23:49.000Z</time>
      </trkpt>
      <trkpt lat="42.21172" lon="20.09057">
        <ele>647.59002685547</ele>
        <time>2023-10-01T08:23:47.000Z</time>
      </trkpt>
      <trkpt lat="42.2116" lon="20.09099">
        <ele>648.54998779297</ele>
        <time>2023-10-01T08:23:45.000Z</time>
      </trkpt>
      <trkpt lat="42.21156" lon="20.09113">
        <ele>649.03002929688</ele>
        <time>2023-10-01T08:23:44.000Z</time>
      </trkpt>
      <trkpt lat="42.21153" lon="20.09131">
        <ele>649.98999023438</ele>
        <time>2023-10-01T08:23:43.000Z</time>
      </trkpt>
      <trkpt lat="42.21152" lon="20.09147">
        <ele>650.46997070312</ele>
        <time>2023-10-01T08:23:42.000Z</time>
      </trkpt>
      <trkpt lat="42.21154" lon="20.09161">
        <ele>650.95001220703</ele>
        <time>2023-10-01T08:23:41.000Z</time>
      </trkpt>
      <trkpt lat="42.21157" lon="20.09172">
        <ele>651.90997314453</ele>
        <time>2023-10-01T08:23:40.000Z</time>
      </trkpt>
      <trkpt lat="42.21164" lon="20.09189">
        <ele>652.86999511719</ele>
        <time>2023-10-01T08:23:39.000Z</time>
      </trkpt>
      <trkpt lat="42.21168" lon="20.09201">
        <ele>654.30999755859</ele>
        <time>2023-10-01T08:23:38.000Z</time>
      </trkpt>
      <trkpt lat="42.2117" lon="20.09213">
        <ele>655.28002929688</ele>
        <time>2023-10-01T08:23:37.000Z</time>
      </trkpt>
      <trkpt lat="42.21168" lon="20.09224">
        <ele>656.71997070312</ele>
        <time>2023-10-01T08:23:36.000Z</time>
      </trkpt>
      <trkpt lat="42.21162" lon="20.09232">
        <ele>657.67999267578</ele>
        <time>2023-10-01T08:23:35.000Z</time>
      </trkpt>
      <trkpt lat="42.21153" lon="20.09237">
        <ele>659.11999511719</ele>
        <time>2023-10-01T08:23:34.000Z</time>
      </trkpt>
      <trkpt lat="42.21143" lon="20.09239">
        <ele>659.59997558594</ele>
        <time>2023-10-01T08:23:33.000Z</time>
      </trkpt>
      <trkpt lat="42.21137" lon="20.09238">
        <ele>660.08001708984</ele>
        <time>2023-10-01T08:23:32.000Z</time>
      </trkpt>
      <trkpt lat="42.2112" lon="20.09237">
        <ele>660.55999755859</ele>
        <time>2023-10-01T08:23:31.000Z</time>
      </trkpt>
      <trkpt lat="42.21108" lon="20.09237">
        <ele>661.52001953125</ele>
        <time>2023-10-01T08:23:30.000Z</time>
      </trkpt>
      <trkpt lat="42.21096" lon="20.09241">
        <ele>662.01000976562</ele>
        <time>2023-10-01T08:23:29.000Z</time>
      </trkpt>
      <trkpt lat="42.21085" lon="20.09249">
        <ele>662.96997070312</ele>
        <time>2023-10-01T08:23:28.000Z</time>
      </trkpt>
      <trkpt lat="42.21076" lon="20.09261">
        <ele>663.45001220703</ele>
        <time>2023-10-01T08:23:27.000Z</time>
      </trkpt>
      <trkpt lat="42.2107" lon="20.09276">
        <ele>664.89001464844</ele>
        <time>2023-10-01T08:23:26.000Z</time>
      </trkpt>
      <trkpt lat="42.21067" lon="20.09289">
        <ele>665.36999511719</ele>
        <time>2023-10-01T08:23:25.000Z</time>
      </trkpt>
      <trkpt lat="42.21063" lon="20.09309">
        <ele>666.33001708984</ele>
        <time>2023-10-01T08:23:24.000Z</time>
      </trkpt>
      <trkpt lat="42.21059" lon="20.09323">
        <ele>667.28997802734</ele>
        <time>2023-10-01T08:23:23.000Z</time>
      </trkpt>
      <trkpt lat="42.21053" lon="20.09334">
        <ele>668.25</ele>
        <time>2023-10-01T08:23:22.000Z</time>
      </trkpt>
      <trkpt lat="42.21045" lon="20.0934">
        <ele>668.72998046875</ele>
        <time>2023-10-01T08:23:21.000Z</time>
      </trkpt>
      <trkpt lat="42.21043" lon="20.09341">
        <ele>668.72998046875</ele>
        <time>2023-10-01T08:23:20.000Z</time>
      </trkpt>
      <trkpt lat="42.21024" lon="20.09352">
        <ele>670.65997314453</ele>
        <time>2023-10-01T08:23:19.000Z</time>
      </trkpt>
      <trkpt lat="42.21014" lon="20.09361">
        <ele>671.14001464844</ele>
        <time>2023-10-01T08:23:18.000Z</time>
      </trkpt>
      <trkpt lat="42.21005" lon="20.09372">
        <ele>671.61999511719</ele>
        <time>2023-10-01T08:23:17.000Z</time>
      </trkpt>
      <trkpt lat="42.20998" lon="20.09386">
        <ele>672.58001708984</ele>
        <time>2023-10-01T08:23:16.000Z</time>
      </trkpt>
      <trkpt lat="42.20993" lon="20.09401">
        <ele>672.58001708984</ele>
        <time>2023-10-01T08:23:15.000Z</time>
      </trkpt>
      <trkpt lat="42.20991" lon="20.09416">
        <ele>673.53997802734</ele>
        <time>2023-10-01T08:23:14.000Z</time>
      </trkpt>
      <trkpt lat="42.20993" lon="20.0943">
        <ele>674.02001953125</ele>
        <time>2023-10-01T08:23:13.000Z</time>
      </trkpt>
      <trkpt lat="42.20997" lon="20.0944">
        <ele>674.5</ele>
        <time>2023-10-01T08:23:12.000Z</time>
      </trkpt>
      <trkpt lat="42.21003" lon="20.09452">
        <ele>675.46002197266</ele>
        <time>2023-10-01T08:23:11.000Z</time>
      </trkpt>
      <trkpt lat="42.21006" lon="20.09462">
        <ele>675.46002197266</ele>
        <time>2023-10-01T08:23:10.000Z</time>
      </trkpt>
      <trkpt lat="42.21005" lon="20.09474">
        <ele>675.94000244141</ele>
        <time>2023-10-01T08:23:09.000Z</time>
      </trkpt>
      <trkpt lat="42.21001" lon="20.09487">
        <ele>676.90997314453</ele>
        <time>2023-10-01T08:23:08.000Z</time>
      </trkpt>
      <trkpt lat="42.20994" lon="20.09499">
        <ele>677.86999511719</ele>
        <time>2023-10-01T08:23:07.000Z</time>
      </trkpt>
      <trkpt lat="42.20986" lon="20.09509">
        <ele>679.30999755859</ele>
        <time>2023-10-01T08:23:06.000Z</time>
      </trkpt>
      <trkpt lat="42.20981" lon="20.09513">
        <ele>680.27001953125</ele>
        <time>2023-10-01T08:23:05.000Z</time>
      </trkpt>
      <trkpt lat="42.20967" lon="20.09526">
        <ele>681.71002197266</ele>
        <time>2023-10-01T08:23:04.000Z</time>
      </trkpt>
      <trkpt lat="42.20961" lon="20.09537">
        <ele>681.71002197266</ele>
        <time>2023-10-01T08:23:03.000Z</time>
      </trkpt>
      <trkpt lat="42.20956" lon="20.09551">
        <ele>682.66998291016</ele>
        <time>2023-10-01T08:23:02.000Z</time>
      </trkpt>
      <trkpt lat="42.20951" lon="20.09567">
        <ele>682.66998291016</ele>
        <time>2023-10-01T08:23:01.000Z</time>
      </trkpt>
      <trkpt lat="42.20944" lon="20.09583">
        <ele>683.63000488281</ele>
        <time>2023-10-01T08:23:00.000Z</time>
      </trkpt>
      <trkpt lat="42.2094" lon="20.09588">
        <ele>684.11999511719</ele>
        <time>2023-10-01T08:22:59.000Z</time>
      </trkpt>
      <trkpt lat="42.20928" lon="20.09604">
        <ele>685.08001708984</ele>
        <time>2023-10-01T08:22:58.000Z</time>
      </trkpt>
      <trkpt lat="42.20923" lon="20.09616">
        <ele>685.08001708984</ele>
        <time>2023-10-01T08:22:57.000Z</time>
      </trkpt>
      <trkpt lat="42.20922" lon="20.09629">
        <ele>685.55999755859</ele>
        <time>2023-10-01T08:22:56.000Z</time>
      </trkpt>
      <trkpt lat="42.20925" lon="20.09642">
        <ele>686.03997802734</ele>
        <time>2023-10-01T08:22:55.000Z</time>
      </trkpt>
      <trkpt lat="42.2093" lon="20.09657">
        <ele>686.52001953125</ele>
        <time>2023-10-01T08:22:54.000Z</time>
      </trkpt>
      <trkpt lat="42.20938" lon="20.09674">
        <ele>686.52001953125</ele>
        <time>2023-10-01T08:22:53.000Z</time>
      </trkpt>
      <trkpt lat="42.2094" lon="20.09677">
        <ele>686.52001953125</ele>
        <time>2023-10-01T08:22:52.000Z</time>
      </trkpt>
      <trkpt lat="42.20963" lon="20.09717">
        <ele>687.47998046875</ele>
        <time>2023-10-01T08:22:50.000Z</time>
      </trkpt>
      <trkpt lat="42.20967" lon="20.09729">
        <ele>687.47998046875</ele>
        <time>2023-10-01T08:22:49.000Z</time>
      </trkpt>
      <trkpt lat="42.20967" lon="20.09739">
        <ele>688.44000244141</ele>
        <time>2023-10-01T08:22:48.000Z</time>
      </trkpt>
      <trkpt lat="42.20966" lon="20.09754">
        <ele>687.96002197266</ele>
        <time>2023-10-01T08:22:47.000Z</time>
      </trkpt>
      <trkpt lat="42.20967" lon="20.09767">
        <ele>687.96002197266</ele>
        <time>2023-10-01T08:22:46.000Z</time>
      </trkpt>
      <trkpt lat="42.20972" lon="20.09777">
        <ele>687.96002197266</ele>
        <time>2023-10-01T08:22:45.000Z</time>
      </trkpt>
      <trkpt lat="42.20981" lon="20.09783">
        <ele>688.44000244141</ele>
        <time>2023-10-01T08:22:44.000Z</time>
      </trkpt>
      <trkpt lat="42.20992" lon="20.09787">
        <ele>688.91998291016</ele>
        <time>2023-10-01T08:22:43.000Z</time>
      </trkpt>
      <trkpt lat="42.21003" lon="20.0979">
        <ele>689.40002441406</ele>
        <time>2023-10-01T08:22:42.000Z</time>
      </trkpt>
      <trkpt lat="42.21019" lon="20.09791">
        <ele>689.88000488281</ele>
        <time>2023-10-01T08:22:41.000Z</time>
      </trkpt>
      <trkpt lat="42.21026" lon="20.09791">
        <ele>689.88000488281</ele>
        <time>2023-10-01T08:22:40.000Z</time>
      </trkpt>
      <trkpt lat="42.21048" lon="20.09789">
        <ele>691.33001708984</ele>
        <time>2023-10-01T08:22:39.000Z</time>
      </trkpt>
      <trkpt lat="42.21058" lon="20.09791">
        <ele>691.80999755859</ele>
        <time>2023-10-01T08:22:38.000Z</time>
      </trkpt>
      <trkpt lat="42.21066" lon="20.09795">
        <ele>692.77001953125</ele>
        <time>2023-10-01T08:22:37.000Z</time>
      </trkpt>
      <trkpt lat="42.21072" lon="20.09803">
        <ele>693.72998046875</ele>
        <time>2023-10-01T08:22:36.000Z</time>
      </trkpt>
      <trkpt lat="42.21075" lon="20.09815">
        <ele>695.16998291016</ele>
        <time>2023-10-01T08:22:35.000Z</time>
      </trkpt>
      <trkpt lat="42.21075" lon="20.09829">
        <ele>696.60998535156</ele>
        <time>2023-10-01T08:22:34.000Z</time>
      </trkpt>
      <trkpt lat="42.21077" lon="20.09841">
        <ele>697.09002685547</ele>
        <time>2023-10-01T08:22:33.000Z</time>
      </trkpt>
      <trkpt lat="42.21082" lon="20.09852">
        <ele>697.57000732422</ele>
        <time>2023-10-01T08:22:32.000Z</time>
      </trkpt>
      <trkpt lat="42.21091" lon="20.0986">
        <ele>698.04998779297</ele>
        <time>2023-10-01T08:22:31.000Z</time>
      </trkpt>
      <trkpt lat="42.21093" lon="20.09861">
        <ele>698.04998779297</ele>
        <time>2023-10-01T08:22:30.000Z</time>
      </trkpt>
      <trkpt lat="42.21113" lon="20.09872">
        <ele>699.02001953125</ele>
        <time>2023-10-01T08:22:29.000Z</time>
      </trkpt>
      <trkpt lat="42.21121" lon="20.09881">
        <ele>699.5</ele>
        <time>2023-10-01T08:22:28.000Z</time>
      </trkpt>
      <trkpt lat="42.21127" lon="20.09893">
        <ele>699.5</ele>
        <time>2023-10-01T08:22:27.000Z</time>
      </trkpt>
      <trkpt lat="42.21132" lon="20.09906">
        <ele>699.97998046875</ele>
        <time>2023-10-01T08:22:26.000Z</time>
      </trkpt>
      <trkpt lat="42.21136" lon="20.09922">
        <ele>699.97998046875</ele>
        <time>2023-10-01T08:22:25.000Z</time>
      </trkpt>
      <trkpt lat="42.21136" lon="20.09936">
        <ele>699.97998046875</ele>
        <time>2023-10-01T08:22:24.000Z</time>
      </trkpt>
      <trkpt lat="42.21136" lon="20.09944">
        <ele>700.46002197266</ele>
        <time>2023-10-01T08:22:23.000Z</time>
      </trkpt>
      <trkpt lat="42.21133" lon="20.0998">
        <ele>701.41998291016</ele>
        <time>2023-10-01T08:22:21.000Z</time>
      </trkpt>
      <trkpt lat="42.21133" lon="20.09992">
        <ele>701.90002441406</ele>
        <time>2023-10-01T08:22:20.000Z</time>
      </trkpt>
      <trkpt lat="42.21135" lon="20.10002">
        <ele>702.38000488281</ele>
        <time>2023-10-01T08:22:19.000Z</time>
      </trkpt>
      <trkpt lat="42.21138" lon="20.10012">
        <ele>702.85998535156</ele>
        <time>2023-10-01T08:22:18.000Z</time>
      </trkpt>
      <trkpt lat="42.21143" lon="20.10022">
        <ele>703.34002685547</ele>
        <time>2023-10-01T08:22:17.000Z</time>
      </trkpt>
      <trkpt lat="42.21147" lon="20.10031">
        <ele>703.82000732422</ele>
        <time>2023-10-01T08:22:16.000Z</time>
      </trkpt>
      <trkpt lat="42.21148" lon="20.10042">
        <ele>704.78002929688</ele>
        <time>2023-10-01T08:22:15.000Z</time>
      </trkpt>
      <trkpt lat="42.21144" lon="20.10051">
        <ele>705.26000976562</ele>
        <time>2023-10-01T08:22:14.000Z</time>
      </trkpt>
      <trkpt lat="42.21139" lon="20.10059">
        <ele>706.22998046875</ele>
        <time>2023-10-01T08:22:13.000Z</time>
      </trkpt>
      <trkpt lat="42.21136" lon="20.10069">
        <ele>706.71002197266</ele>
        <time>2023-10-01T08:22:12.000Z</time>
      </trkpt>
      <trkpt lat="42.21135" lon="20.10083">
        <ele>707.19000244141</ele>
        <time>2023-10-01T08:22:11.000Z</time>
      </trkpt>
      <trkpt lat="42.21135" lon="20.10085">
        <ele>707.19000244141</ele>
        <time>2023-10-01T08:22:10.000Z</time>
      </trkpt>
      <trkpt lat="42.21136" lon="20.10123">
        <ele>708.15002441406</ele>
        <time>2023-10-01T08:22:08.000Z</time>
      </trkpt>
      <trkpt lat="42.21135" lon="20.10135">
        <ele>708.15002441406</ele>
        <time>2023-10-01T08:22:07.000Z</time>
      </trkpt>
      <trkpt lat="42.21133" lon="20.10148">
        <ele>708.15002441406</ele>
        <time>2023-10-01T08:22:06.000Z</time>
      </trkpt>
      <trkpt lat="42.2113" lon="20.10161">
        <ele>708.63000488281</ele>
        <time>2023-10-01T08:22:05.000Z</time>
      </trkpt>
      <trkpt lat="42.21127" lon="20.10168">
        <ele>709.10998535156</ele>
        <time>2023-10-01T08:22:04.000Z</time>
      </trkpt>
      <trkpt lat="42.21124" lon="20.10178">
        <ele>709.59002685547</ele>
        <time>2023-10-01T08:22:03.000Z</time>
      </trkpt>
      <trkpt lat="42.21117" lon="20.10193">
        <ele>710.07000732422</ele>
        <time>2023-10-01T08:22:02.000Z</time>
      </trkpt>
      <trkpt lat="42.21113" lon="20.10203">
        <ele>711.03002929688</ele>
        <time>2023-10-01T08:22:01.000Z</time>
      </trkpt>
      <trkpt lat="42.21113" lon="20.10215">
        <ele>711.98999023438</ele>
        <time>2023-10-01T08:22:00.000Z</time>
      </trkpt>
      <trkpt lat="42.21117" lon="20.10226">
        <ele>713.44000244141</ele>
        <time>2023-10-01T08:21:59.000Z</time>
      </trkpt>
      <trkpt lat="42.21119" lon="20.1023">
        <ele>713.44000244141</ele>
        <time>2023-10-01T08:21:58.000Z</time>
      </trkpt>
      <trkpt lat="42.21128" lon="20.10245">
        <ele>714.88000488281</ele>
        <time>2023-10-01T08:21:57.000Z</time>
      </trkpt>
      <trkpt lat="42.21133" lon="20.10256">
        <ele>715.35998535156</ele>
        <time>2023-10-01T08:21:56.000Z</time>
      </trkpt>
      <trkpt lat="42.21134" lon="20.10267">
        <ele>715.84002685547</ele>
        <time>2023-10-01T08:21:55.000Z</time>
      </trkpt>
      <trkpt lat="42.21134" lon="20.10277">
        <ele>716.32000732422</ele>
        <time>2023-10-01T08:21:54.000Z</time>
      </trkpt>
      <trkpt lat="42.21133" lon="20.1029">
        <ele>716.79998779297</ele>
        <time>2023-10-01T08:21:53.000Z</time>
      </trkpt>
      <trkpt lat="42.21129" lon="20.10302">
        <ele>717.76000976562</ele>
        <time>2023-10-01T08:21:52.000Z</time>
      </trkpt>
      <trkpt lat="42.21123" lon="20.10313">
        <ele>718.71997070312</ele>
        <time>2023-10-01T08:21:51.000Z</time>
      </trkpt>
      <trkpt lat="42.21116" lon="20.10321">
        <ele>719.67999267578</ele>
        <time>2023-10-01T08:21:50.000Z</time>
      </trkpt>
      <trkpt lat="42.21104" lon="20.1033">
        <ele>720.65002441406</ele>
        <time>2023-10-01T08:21:49.000Z</time>
      </trkpt>
      <trkpt lat="42.21095" lon="20.10335">
        <ele>721.60998535156</ele>
        <time>2023-10-01T08:21:48.000Z</time>
      </trkpt>
      <trkpt lat="42.21086" lon="20.10335">
        <ele>722.09002685547</ele>
        <time>2023-10-01T08:21:47.000Z</time>
      </trkpt>
      <trkpt lat="42.21078" lon="20.10333">
        <ele>723.04998779297</ele>
        <time>2023-10-01T08:21:46.000Z</time>
      </trkpt>
      <trkpt lat="42.21067" lon="20.10328">
        <ele>724.01000976562</ele>
        <time>2023-10-01T08:21:45.000Z</time>
      </trkpt>
      <trkpt lat="42.21055" lon="20.10325">
        <ele>725.45001220703</ele>
        <time>2023-10-01T08:21:44.000Z</time>
      </trkpt>
      <trkpt lat="42.21044" lon="20.10325">
        <ele>726.89001464844</ele>
        <time>2023-10-01T08:21:43.000Z</time>
      </trkpt>
      <trkpt lat="42.21034" lon="20.10327">
        <ele>727.36999511719</ele>
        <time>2023-10-01T08:21:42.000Z</time>
      </trkpt>
      <trkpt lat="42.2102" lon="20.10331">
        <ele>728.34002685547</ele>
        <time>2023-10-01T08:21:41.000Z</time>
      </trkpt>
      <trkpt lat="42.21008" lon="20.10334">
        <ele>729.29998779297</ele>
        <time>2023-10-01T08:21:40.000Z</time>
      </trkpt>
      <trkpt lat="42.20997" lon="20.10334">
        <ele>730.26000976562</ele>
        <time>2023-10-01T08:21:39.000Z</time>
      </trkpt>
      <trkpt lat="42.20988" lon="20.10332">
        <ele>731.21997070312</ele>
        <time>2023-10-01T08:21:38.000Z</time>
      </trkpt>
      <trkpt lat="42.20979" lon="20.10327">
        <ele>732.17999267578</ele>
        <time>2023-10-01T08:21:37.000Z</time>
      </trkpt>
      <trkpt lat="42.20977" lon="20.10326">
        <ele>732.17999267578</ele>
        <time>2023-10-01T08:21:36.000Z</time>
      </trkpt>
      <trkpt lat="42.20966" lon="20.10317">
        <ele>733.14001464844</ele>
        <time>2023-10-01T08:21:35.000Z</time>
      </trkpt>
      <trkpt lat="42.20954" lon="20.1031">
        <ele>733.61999511719</ele>
        <time>2023-10-01T08:21:34.000Z</time>
      </trkpt>
      <trkpt lat="42.20944" lon="20.10304">
        <ele>734.58001708984</ele>
        <time>2023-10-01T08:21:33.000Z</time>
      </trkpt>
      <trkpt lat="42.20943" lon="20.10303">
        <ele>734.58001708984</ele>
        <time>2023-10-01T08:21:32.000Z</time>
      </trkpt>
      <trkpt lat="42.20925" lon="20.10295">
        <ele>736.51000976562</ele>
        <time>2023-10-01T08:21:31.000Z</time>
      </trkpt>
      <trkpt lat="42.20918" lon="20.10291">
        <ele>737.46997070312</ele>
        <time>2023-10-01T08:21:30.000Z</time>
      </trkpt>
      <trkpt lat="42.20913" lon="20.10285">
        <ele>738.42999267578</ele>
        <time>2023-10-01T08:21:29.000Z</time>
      </trkpt>
      <trkpt lat="42.2091" lon="20.10279">
        <ele>738.90997314453</ele>
        <time>2023-10-01T08:21:28.000Z</time>
      </trkpt>
      <trkpt lat="42.20906" lon="20.1027">
        <ele>739.39001464844</ele>
        <time>2023-10-01T08:21:27.000Z</time>
      </trkpt>
      <trkpt lat="42.20902" lon="20.10262">
        <ele>739.86999511719</ele>
        <time>2023-10-01T08:21:26.000Z</time>
      </trkpt>
      <trkpt lat="42.20897" lon="20.10255">
        <ele>739.86999511719</ele>
        <time>2023-10-01T08:21:25.000Z</time>
      </trkpt>
      <trkpt lat="42.20889" lon="20.10249">
        <ele>739.86999511719</ele>
        <time>2023-10-01T08:21:24.000Z</time>
      </trkpt>
      <trkpt lat="42.20879" lon="20.10248">
        <ele>739.86999511719</ele>
        <time>2023-10-01T08:21:23.000Z</time>
      </trkpt>
      <trkpt lat="42.20871" lon="20.1025">
        <ele>739.86999511719</ele>
        <time>2023-10-01T08:21:22.000Z</time>
      </trkpt>
      <trkpt lat="42.20859" lon="20.10253">
        <ele>740.34997558594</ele>
        <time>2023-10-01T08:21:21.000Z</time>
      </trkpt>
      <trkpt lat="42.20848" lon="20.10256">
        <ele>740.83001708984</ele>
        <time>2023-10-01T08:21:20.000Z</time>
      </trkpt>
      <trkpt lat="42.20839" lon="20.10256">
        <ele>741.30999755859</ele>
        <time>2023-10-01T08:21:19.000Z</time>
      </trkpt>
      <trkpt lat="42.20832" lon="20.10253">
        <ele>741.78997802734</ele>
        <time>2023-10-01T08:21:18.000Z</time>
      </trkpt>
      <trkpt lat="42.20825" lon="20.10247">
        <ele>741.78997802734</ele>
        <time>2023-10-01T08:21:17.000Z</time>
      </trkpt>
      <trkpt lat="42.20819" lon="20.1024">
        <ele>742.28002929688</ele>
        <time>2023-10-01T08:21:16.000Z</time>
      </trkpt>
      <trkpt lat="42.20812" lon="20.10234">
        <ele>742.28002929688</ele>
        <time>2023-10-01T08:21:15.000Z</time>
      </trkpt>
      <trkpt lat="42.20804" lon="20.10233">
        <ele>742.28002929688</ele>
        <time>2023-10-01T08:21:14.000Z</time>
      </trkpt>
      <trkpt lat="42.20798" lon="20.10235">
        <ele>742.28002929688</ele>
        <time>2023-10-01T08:21:13.000Z</time>
      </trkpt>
      <trkpt lat="42.20794" lon="20.10242">
        <ele>742.28002929688</ele>
        <time>2023-10-01T08:21:12.000Z</time>
      </trkpt>
      <trkpt lat="42.20792" lon="20.10246">
        <ele>742.28002929688</ele>
        <time>2023-10-01T08:21:11.000Z</time>
      </trkpt>
      <trkpt lat="42.20788" lon="20.10254">
        <ele>742.76000976562</ele>
        <time>2023-10-01T08:20:25.000Z</time>
      </trkpt>
      <trkpt lat="42.2078" lon="20.10259">
        <ele>742.76000976562</ele>
        <time>2023-10-01T08:20:18.000Z</time>
      </trkpt>
      <trkpt lat="42.20766" lon="20.10265">
        <ele>741.78997802734</ele>
        <time>2023-10-01T08:20:14.000Z</time>
      </trkpt>
      <trkpt lat="42.20761" lon="20.10267">
        <ele>741.78997802734</ele>
        <time>2023-10-01T08:20:13.000Z</time>
      </trkpt>
      <trkpt lat="42.20757" lon="20.1027">
        <ele>741.30999755859</ele>
        <time>2023-10-01T08:20:12.000Z</time>
      </trkpt>
      <trkpt lat="42.20753" lon="20.10273">
        <ele>741.30999755859</ele>
        <time>2023-10-01T08:20:11.000Z</time>
      </trkpt>
      <trkpt lat="42.20749" lon="20.10277">
        <ele>741.30999755859</ele>
        <time>2023-10-01T08:20:10.000Z</time>
      </trkpt>
      <trkpt lat="42.20745" lon="20.10281">
        <ele>740.83001708984</ele>
        <time>2023-10-01T08:20:09.000Z</time>
      </trkpt>
      <trkpt lat="42.20735" lon="20.10293">
        <ele>739.86999511719</ele>
        <time>2023-10-01T08:20:07.000Z</time>
      </trkpt>
      <trkpt lat="42.20731" lon="20.10299">
        <ele>739.39001464844</ele>
        <time>2023-10-01T08:20:06.000Z</time>
      </trkpt>
      <trkpt lat="42.20726" lon="20.10308">
        <ele>739.39001464844</ele>
        <time>2023-10-01T08:20:05.000Z</time>
      </trkpt>
      <trkpt lat="42.20722" lon="20.10317">
        <ele>738.90997314453</ele>
        <time>2023-10-01T08:20:04.000Z</time>
      </trkpt>
      <trkpt lat="42.20718" lon="20.10327">
        <ele>737.95001220703</ele>
        <time>2023-10-01T08:20:03.000Z</time>
      </trkpt>
      <trkpt lat="42.20715" lon="20.10334">
        <ele>737.95001220703</ele>
        <time>2023-10-01T08:20:02.000Z</time>
      </trkpt>
      <trkpt lat="42.20709" lon="20.10348">
        <ele>736.51000976562</ele>
        <time>2023-10-01T08:20:01.000Z</time>
      </trkpt>
      <trkpt lat="42.20703" lon="20.10357">
        <ele>735.54998779297</ele>
        <time>2023-10-01T08:20:00.000Z</time>
      </trkpt>
      <trkpt lat="42.20696" lon="20.10364">
        <ele>734.58001708984</ele>
        <time>2023-10-01T08:19:59.000Z</time>
      </trkpt>
      <trkpt lat="42.20689" lon="20.10369">
        <ele>734.09997558594</ele>
        <time>2023-10-01T08:19:58.000Z</time>
      </trkpt>
      <trkpt lat="42.2068" lon="20.1037">
        <ele>733.14001464844</ele>
        <time>2023-10-01T08:19:57.000Z</time>
      </trkpt>
      <trkpt lat="42.20671" lon="20.10369">
        <ele>732.17999267578</ele>
        <time>2023-10-01T08:19:56.000Z</time>
      </trkpt>
      <trkpt lat="42.20661" lon="20.10366">
        <ele>731.21997070312</ele>
        <time>2023-10-01T08:19:55.000Z</time>
      </trkpt>
      <trkpt lat="42.2065" lon="20.10361">
        <ele>730.26000976562</ele>
        <time>2023-10-01T08:19:54.000Z</time>
      </trkpt>
      <trkpt lat="42.20641" lon="20.10351">
        <ele>729.29998779297</ele>
        <time>2023-10-01T08:19:53.000Z</time>
      </trkpt>
      <trkpt lat="42.20638" lon="20.10347">
        <ele>729.29998779297</ele>
        <time>2023-10-01T08:19:52.000Z</time>
      </trkpt>
      <trkpt lat="42.20598" lon="20.10282">
        <ele>726.89001464844</ele>
        <time>2023-10-01T08:19:47.000Z</time>
      </trkpt>
      <trkpt lat="42.2056" lon="20.10223">
        <ele>725.45001220703</ele>
        <time>2023-10-01T08:19:43.000Z</time>
      </trkpt>
      <trkpt lat="42.20552" lon="20.10216">
        <ele>724.96997070312</ele>
        <time>2023-10-01T08:19:42.000Z</time>
      </trkpt>
      <trkpt lat="42.20543" lon="20.10212">
        <ele>724.48999023438</ele>
        <time>2023-10-01T08:19:41.000Z</time>
      </trkpt>
      <trkpt lat="42.20533" lon="20.10212">
        <ele>724.48999023438</ele>
        <time>2023-10-01T08:19:40.000Z</time>
      </trkpt>
      <trkpt lat="42.20526" lon="20.10214">
        <ele>724.01000976562</ele>
        <time>2023-10-01T08:19:39.000Z</time>
      </trkpt>
      <trkpt lat="42.2051" lon="20.1022">
        <ele>724.01000976562</ele>
        <time>2023-10-01T08:19:38.000Z</time>
      </trkpt>
      <trkpt lat="42.20501" lon="20.10222">
        <ele>723.04998779297</ele>
        <time>2023-10-01T08:19:37.000Z</time>
      </trkpt>
      <trkpt lat="42.20468" lon="20.1023">
        <ele>720.65002441406</ele>
        <time>2023-10-01T08:19:35.000Z</time>
      </trkpt>
      <trkpt lat="42.20445" lon="20.10239">
        <ele>719.20001220703</ele>
        <time>2023-10-01T08:19:34.000Z</time>
      </trkpt>
      <trkpt lat="42.20432" lon="20.10243">
        <ele>718.23999023438</ele>
        <time>2023-10-01T08:19:33.000Z</time>
      </trkpt>
      <trkpt lat="42.20423" lon="20.10245">
        <ele>717.28002929688</ele>
        <time>2023-10-01T08:19:32.000Z</time>
      </trkpt>
      <trkpt lat="42.20414" lon="20.10245">
        <ele>716.32000732422</ele>
        <time>2023-10-01T08:19:31.000Z</time>
      </trkpt>
      <trkpt lat="42.20407" lon="20.10242">
        <ele>715.35998535156</ele>
        <time>2023-10-01T08:19:30.000Z</time>
      </trkpt>
      <trkpt lat="42.204" lon="20.10237">
        <ele>714.88000488281</ele>
        <time>2023-10-01T08:19:29.000Z</time>
      </trkpt>
      <trkpt lat="42.20395" lon="20.10231">
        <ele>713.91998291016</ele>
        <time>2023-10-01T08:19:28.000Z</time>
      </trkpt>
      <trkpt lat="42.20392" lon="20.10229">
        <ele>713.91998291016</ele>
        <time>2023-10-01T08:19:27.000Z</time>
      </trkpt>
      <trkpt lat="42.2038" lon="20.10213">
        <ele>711.51000976562</ele>
        <time>2023-10-01T08:19:26.000Z</time>
      </trkpt>
      <trkpt lat="42.20372" lon="20.10205">
        <ele>710.07000732422</ele>
        <time>2023-10-01T08:19:25.000Z</time>
      </trkpt>
      <trkpt lat="42.20365" lon="20.10199">
        <ele>708.63000488281</ele>
        <time>2023-10-01T08:19:24.000Z</time>
      </trkpt>
      <trkpt lat="42.20357" lon="20.10198">
        <ele>707.66998291016</ele>
        <time>2023-10-01T08:19:23.000Z</time>
      </trkpt>
      <trkpt lat="42.20349" lon="20.10201">
        <ele>706.22998046875</ele>
        <time>2023-10-01T08:19:22.000Z</time>
      </trkpt>
      <trkpt lat="42.20341" lon="20.10208">
        <ele>704.78002929688</ele>
        <time>2023-10-01T08:19:21.000Z</time>
      </trkpt>
      <trkpt lat="42.20336" lon="20.10214">
        <ele>704.29998779297</ele>
        <time>2023-10-01T08:19:20.000Z</time>
      </trkpt>
      <trkpt lat="42.20324" lon="20.10231">
        <ele>703.82000732422</ele>
        <time>2023-10-01T08:19:19.000Z</time>
      </trkpt>
      <trkpt lat="42.20313" lon="20.10246">
        <ele>703.82000732422</ele>
        <time>2023-10-01T08:19:18.000Z</time>
      </trkpt>
      <trkpt lat="42.20305" lon="20.10254">
        <ele>703.82000732422</ele>
        <time>2023-10-01T08:19:17.000Z</time>
      </trkpt>
      <trkpt lat="42.2029" lon="20.10267">
        <ele>704.29998779297</ele>
        <time>2023-10-01T08:19:16.000Z</time>
      </trkpt>
      <trkpt lat="42.20276" lon="20.10277">
        <ele>704.78002929688</ele>
        <time>2023-10-01T08:19:15.000Z</time>
      </trkpt>
      <trkpt lat="42.20266" lon="20.10283">
        <ele>705.75</ele>
        <time>2023-10-01T08:19:14.000Z</time>
      </trkpt>
      <trkpt lat="42.20245" lon="20.10293">
        <ele>706.22998046875</ele>
        <time>2023-10-01T08:19:13.000Z</time>
      </trkpt>
      <trkpt lat="42.20235" lon="20.10298">
        <ele>706.71002197266</ele>
        <time>2023-10-01T08:19:12.000Z</time>
      </trkpt>
      <trkpt lat="42.20219" lon="20.10307">
        <ele>707.19000244141</ele>
        <time>2023-10-01T08:19:11.000Z</time>
      </trkpt>
      <trkpt lat="42.20209" lon="20.10312">
        <ele>707.19000244141</ele>
        <time>2023-10-01T08:19:10.000Z</time>
      </trkpt>
      <trkpt lat="42.20197" lon="20.10312">
        <ele>707.19000244141</ele>
        <time>2023-10-01T08:19:09.000Z</time>
      </trkpt>
      <trkpt lat="42.20185" lon="20.1031">
        <ele>706.22998046875</ele>
        <time>2023-10-01T08:19:08.000Z</time>
      </trkpt>
      <trkpt lat="42.20171" lon="20.10311">
        <ele>706.22998046875</ele>
        <time>2023-10-01T08:19:07.000Z</time>
      </trkpt>
      <trkpt lat="42.20169" lon="20.10311">
        <ele>706.22998046875</ele>
        <time>2023-10-01T08:19:06.000Z</time>
      </trkpt>
      <trkpt lat="42.20147" lon="20.10316">
        <ele>704.78002929688</ele>
        <time>2023-10-01T08:19:05.000Z</time>
      </trkpt>
      <trkpt lat="42.20137" lon="20.10319">
        <ele>703.82000732422</ele>
        <time>2023-10-01T08:19:04.000Z</time>
      </trkpt>
      <trkpt lat="42.20129" lon="20.10325">
        <ele>702.85998535156</ele>
        <time>2023-10-01T08:19:03.000Z</time>
      </trkpt>
      <trkpt lat="42.20123" lon="20.10334">
        <ele>702.38000488281</ele>
        <time>2023-10-01T08:19:02.000Z</time>
      </trkpt>
      <trkpt lat="42.2012" lon="20.1034">
        <ele>701.90002441406</ele>
        <time>2023-10-01T08:19:01.000Z</time>
      </trkpt>
      <trkpt lat="42.20115" lon="20.10356">
        <ele>700.94000244141</ele>
        <time>2023-10-01T08:19:00.000Z</time>
      </trkpt>
      <trkpt lat="42.20109" lon="20.1037">
        <ele>699.97998046875</ele>
        <time>2023-10-01T08:18:59.000Z</time>
      </trkpt>
      <trkpt lat="42.20102" lon="20.10382">
        <ele>699.02001953125</ele>
        <time>2023-10-01T08:18:58.000Z</time>
      </trkpt>
      <trkpt lat="42.20096" lon="20.10389">
        <ele>698.53002929688</ele>
        <time>2023-10-01T08:18:57.000Z</time>
      </trkpt>
      <trkpt lat="42.20088" lon="20.10391">
        <ele>698.04998779297</ele>
        <time>2023-10-01T08:18:56.000Z</time>
      </trkpt>
      <trkpt lat="42.20079" lon="20.10387">
        <ele>697.09002685547</ele>
        <time>2023-10-01T08:18:55.000Z</time>
      </trkpt>
      <trkpt lat="42.20073" lon="20.10382">
        <ele>696.60998535156</ele>
        <time>2023-10-01T08:18:54.000Z</time>
      </trkpt>
      <trkpt lat="42.20062" lon="20.1037">
        <ele>694.69000244141</ele>
        <time>2023-10-01T08:18:53.000Z</time>
      </trkpt>
      <trkpt lat="42.20051" lon="20.10363">
        <ele>693.25</ele>
        <time>2023-10-01T08:18:52.000Z</time>
      </trkpt>
      <trkpt lat="42.20038" lon="20.10361">
        <ele>692.77001953125</ele>
        <time>2023-10-01T08:18:51.000Z</time>
      </trkpt>
      <trkpt lat="42.20032" lon="20.10361">
        <ele>692.77001953125</ele>
        <time>2023-10-01T08:18:50.000Z</time>
      </trkpt>
      <trkpt lat="42.20008" lon="20.10364">
        <ele>691.80999755859</ele>
        <time>2023-10-01T08:18:49.000Z</time>
      </trkpt>
      <trkpt lat="42.19996" lon="20.10363">
        <ele>690.84002685547</ele>
        <time>2023-10-01T08:18:48.000Z</time>
      </trkpt>
      <trkpt lat="42.19983" lon="20.10361">
        <ele>689.88000488281</ele>
        <time>2023-10-01T08:18:47.000Z</time>
      </trkpt>
      <trkpt lat="42.1997" lon="20.10357">
        <ele>687.96002197266</ele>
        <time>2023-10-01T08:18:46.000Z</time>
      </trkpt>
      <trkpt lat="42.19959" lon="20.10349">
        <ele>687</ele>
        <time>2023-10-01T08:18:45.000Z</time>
      </trkpt>
      <trkpt lat="42.19957" lon="20.10347">
        <ele>687</ele>
        <time>2023-10-01T08:18:44.000Z</time>
      </trkpt>
      <trkpt lat="42.19936" lon="20.10326">
        <ele>685.08001708984</ele>
        <time>2023-10-01T08:18:43.000Z</time>
      </trkpt>
      <trkpt lat="42.19922" lon="20.10319">
        <ele>683.63000488281</ele>
        <time>2023-10-01T08:18:42.000Z</time>
      </trkpt>
      <trkpt lat="42.19908" lon="20.10317">
        <ele>683.15002441406</ele>
        <time>2023-10-01T08:18:41.000Z</time>
      </trkpt>
      <trkpt lat="42.19903" lon="20.10316">
        <ele>682.66998291016</ele>
        <time>2023-10-01T08:18:40.000Z</time>
      </trkpt>
      <trkpt lat="42.19885" lon="20.10317">
        <ele>680.75</ele>
        <time>2023-10-01T08:18:39.000Z</time>
      </trkpt>
      <trkpt lat="42.19876" lon="20.10314">
        <ele>679.78997802734</ele>
        <time>2023-10-01T08:18:38.000Z</time>
      </trkpt>
      <trkpt lat="42.19868" lon="20.10306">
        <ele>678.83001708984</ele>
        <time>2023-10-01T08:18:37.000Z</time>
      </trkpt>
      <trkpt lat="42.1986" lon="20.10295">
        <ele>677.86999511719</ele>
        <time>2023-10-01T08:18:36.000Z</time>
      </trkpt>
      <trkpt lat="42.19851" lon="20.10279">
        <ele>676.90997314453</ele>
        <time>2023-10-01T08:18:35.000Z</time>
      </trkpt>
      <trkpt lat="42.19843" lon="20.10261">
        <ele>675.46002197266</ele>
        <time>2023-10-01T08:18:34.000Z</time>
      </trkpt>
      <trkpt lat="42.19837" lon="20.10242">
        <ele>674.02001953125</ele>
        <time>2023-10-01T08:18:33.000Z</time>
      </trkpt>
      <trkpt lat="42.19829" lon="20.10223">
        <ele>672.58001708984</ele>
        <time>2023-10-01T08:18:32.000Z</time>
      </trkpt>
      <trkpt lat="42.19818" lon="20.10207">
        <ele>671.14001464844</ele>
        <time>2023-10-01T08:18:31.000Z</time>
      </trkpt>
      <trkpt lat="42.19813" lon="20.10201">
        <ele>670.65997314453</ele>
        <time>2023-10-01T08:18:30.000Z</time>
      </trkpt>
      <trkpt lat="42.19796" lon="20.10183">
        <ele>669.21997070312</ele>
        <time>2023-10-01T08:18:29.000Z</time>
      </trkpt>
      <trkpt lat="42.19789" lon="20.10173">
        <ele>668.72998046875</ele>
        <time>2023-10-01T08:18:28.000Z</time>
      </trkpt>
      <trkpt lat="42.19767" lon="20.10136">
        <ele>666.80999755859</ele>
        <time>2023-10-01T08:18:25.000Z</time>
      </trkpt>
      <trkpt lat="42.19762" lon="20.10127">
        <ele>666.33001708984</ele>
        <time>2023-10-01T08:18:24.000Z</time>
      </trkpt>
      <trkpt lat="42.19742" lon="20.10097">
        <ele>664.40997314453</ele>
        <time>2023-10-01T08:18:22.000Z</time>
      </trkpt>
      <trkpt lat="42.19739" lon="20.10087">
        <ele>663.45001220703</ele>
        <time>2023-10-01T08:18:21.000Z</time>
      </trkpt>
      <trkpt lat="42.19738" lon="20.10077">
        <ele>662.01000976562</ele>
        <time>2023-10-01T08:18:20.000Z</time>
      </trkpt>
      <trkpt lat="42.19741" lon="20.10065">
        <ele>661.52001953125</ele>
        <time>2023-10-01T08:18:19.000Z</time>
      </trkpt>
      <trkpt lat="42.19746" lon="20.10053">
        <ele>660.08001708984</ele>
        <time>2023-10-01T08:18:18.000Z</time>
      </trkpt>
      <trkpt lat="42.19754" lon="20.10042">
        <ele>659.11999511719</ele>
        <time>2023-10-01T08:18:17.000Z</time>
      </trkpt>
      <trkpt lat="42.19762" lon="20.10034">
        <ele>658.15997314453</ele>
        <time>2023-10-01T08:18:16.000Z</time>
      </trkpt>
      <trkpt lat="42.19771" lon="20.1003">
        <ele>656.71997070312</ele>
        <time>2023-10-01T08:18:15.000Z</time>
      </trkpt>
      <trkpt lat="42.19782" lon="20.10026">
        <ele>655.76000976562</ele>
        <time>2023-10-01T08:18:14.000Z</time>
      </trkpt>
      <trkpt lat="42.1979" lon="20.10021">
        <ele>655.28002929688</ele>
        <time>2023-10-01T08:18:13.000Z</time>
      </trkpt>
      <trkpt lat="42.19795" lon="20.10013">
        <ele>655.28002929688</ele>
        <time>2023-10-01T08:18:12.000Z</time>
      </trkpt>
      <trkpt lat="42.19797" lon="20.10002">
        <ele>655.28002929688</ele>
        <time>2023-10-01T08:18:11.000Z</time>
      </trkpt>
      <trkpt lat="42.19794" lon="20.09991">
        <ele>655.28002929688</ele>
        <time>2023-10-01T08:18:10.000Z</time>
      </trkpt>
      <trkpt lat="42.19786" lon="20.0998">
        <ele>655.28002929688</ele>
        <time>2023-10-01T08:18:09.000Z</time>
      </trkpt>
      <trkpt lat="42.19777" lon="20.0997">
        <ele>654.79998779297</ele>
        <time>2023-10-01T08:18:08.000Z</time>
      </trkpt>
      <trkpt lat="42.19769" lon="20.09962">
        <ele>654.30999755859</ele>
        <time>2023-10-01T08:18:07.000Z</time>
      </trkpt>
      <trkpt lat="42.1976" lon="20.09954">
        <ele>653.34997558594</ele>
        <time>2023-10-01T08:18:06.000Z</time>
      </trkpt>
      <trkpt lat="42.19746" lon="20.09944">
        <ele>651.90997314453</ele>
        <time>2023-10-01T08:18:05.000Z</time>
      </trkpt>
      <trkpt lat="42.19724" lon="20.09926">
        <ele>649.51000976562</ele>
        <time>2023-10-01T08:18:04.000Z</time>
      </trkpt>
      <trkpt lat="42.1971" lon="20.09919">
        <ele>648.54998779297</ele>
        <time>2023-10-01T08:18:03.000Z</time>
      </trkpt>
      <trkpt lat="42.19697" lon="20.09917">
        <ele>647.59002685547</ele>
        <time>2023-10-01T08:18:02.000Z</time>
      </trkpt>
      <trkpt lat="42.19684" lon="20.09915">
        <ele>646.14001464844</ele>
        <time>2023-10-01T08:18:01.000Z</time>
      </trkpt>
      <trkpt lat="42.19673" lon="20.09909">
        <ele>645.17999267578</ele>
        <time>2023-10-01T08:18:00.000Z</time>
      </trkpt>
      <trkpt lat="42.19664" lon="20.09898">
        <ele>644.21997070312</ele>
        <time>2023-10-01T08:17:59.000Z</time>
      </trkpt>
      <trkpt lat="42.19659" lon="20.0989">
        <ele>643.73999023438</ele>
        <time>2023-10-01T08:17:58.000Z</time>
      </trkpt>
      <trkpt lat="42.19642" lon="20.09857">
        <ele>641.34002685547</ele>
        <time>2023-10-01T08:17:56.000Z</time>
      </trkpt>
      <trkpt lat="42.19638" lon="20.09842">
        <ele>640.85998535156</ele>
        <time>2023-10-01T08:17:55.000Z</time>
      </trkpt>
      <trkpt lat="42.19637" lon="20.09836">
        <ele>641.34002685547</ele>
        <time>2023-10-01T08:17:54.000Z</time>
      </trkpt>
      <trkpt lat="42.19637" lon="20.09814">
        <ele>641.34002685547</ele>
        <time>2023-10-01T08:17:53.000Z</time>
      </trkpt>
      <trkpt lat="42.19633" lon="20.098">
        <ele>640.85998535156</ele>
        <time>2023-10-01T08:17:52.000Z</time>
      </trkpt>
      <trkpt lat="42.19627" lon="20.09787">
        <ele>640.38000488281</ele>
        <time>2023-10-01T08:17:51.000Z</time>
      </trkpt>
      <trkpt lat="42.19616" lon="20.09776">
        <ele>639.89001464844</ele>
        <time>2023-10-01T08:17:50.000Z</time>
      </trkpt>
      <trkpt lat="42.19604" lon="20.09768">
        <ele>639.40997314453</ele>
        <time>2023-10-01T08:17:49.000Z</time>
      </trkpt>
      <trkpt lat="42.19593" lon="20.0976">
        <ele>638.92999267578</ele>
        <time>2023-10-01T08:17:48.000Z</time>
      </trkpt>
      <trkpt lat="42.19584" lon="20.09749">
        <ele>638.92999267578</ele>
        <time>2023-10-01T08:17:47.000Z</time>
      </trkpt>
      <trkpt lat="42.19577" lon="20.09736">
        <ele>637.96997070312</ele>
        <time>2023-10-01T08:17:46.000Z</time>
      </trkpt>
      <trkpt lat="42.19568" lon="20.09726">
        <ele>637.01000976562</ele>
        <time>2023-10-01T08:17:45.000Z</time>
      </trkpt>
      <trkpt lat="42.19556" lon="20.09722">
        <ele>636.04998779297</ele>
        <time>2023-10-01T08:17:44.000Z</time>
      </trkpt>
      <trkpt lat="42.19541" lon="20.09723">
        <ele>635.09002685547</ele>
        <time>2023-10-01T08:17:43.000Z</time>
      </trkpt>
      <trkpt lat="42.19508" lon="20.09728">
        <ele>632.67999267578</ele>
        <time>2023-10-01T08:17:41.000Z</time>
      </trkpt>
      <trkpt lat="42.19467" lon="20.09728">
        <ele>630.28002929688</ele>
        <time>2023-10-01T08:17:38.000Z</time>
      </trkpt>
      <trkpt lat="42.19455" lon="20.09726">
        <ele>629.79998779297</ele>
        <time>2023-10-01T08:17:37.000Z</time>
      </trkpt>
      <trkpt lat="42.19433" lon="20.09722">
        <ele>628.35998535156</ele>
        <time>2023-10-01T08:17:36.000Z</time>
      </trkpt>
      <trkpt lat="42.19424" lon="20.09717">
        <ele>628.35998535156</ele>
        <time>2023-10-01T08:17:35.000Z</time>
      </trkpt>
      <trkpt lat="42.19418" lon="20.09709">
        <ele>627.88000488281</ele>
        <time>2023-10-01T08:17:34.000Z</time>
      </trkpt>
      <trkpt lat="42.19415" lon="20.09698">
        <ele>627.40002441406</ele>
        <time>2023-10-01T08:17:33.000Z</time>
      </trkpt>
      <trkpt lat="42.19415" lon="20.09687">
        <ele>627.40002441406</ele>
        <time>2023-10-01T08:17:32.000Z</time>
      </trkpt>
      <trkpt lat="42.19418" lon="20.09665">
        <ele>626.91998291016</ele>
        <time>2023-10-01T08:17:31.000Z</time>
      </trkpt>
      <trkpt lat="42.19418" lon="20.0965">
        <ele>625.96002197266</ele>
        <time>2023-10-01T08:17:30.000Z</time>
      </trkpt>
      <trkpt lat="42.19417" lon="20.09634">
        <ele>624.98999023438</ele>
        <time>2023-10-01T08:17:29.000Z</time>
      </trkpt>
      <trkpt lat="42.19412" lon="20.09621">
        <ele>624.51000976562</ele>
        <time>2023-10-01T08:17:28.000Z</time>
      </trkpt>
      <trkpt lat="42.19404" lon="20.09614">
        <ele>624.03002929688</ele>
        <time>2023-10-01T08:17:27.000Z</time>
      </trkpt>
      <trkpt lat="42.19392" lon="20.09611">
        <ele>623.54998779297</ele>
        <time>2023-10-01T08:17:26.000Z</time>
      </trkpt>
      <trkpt lat="42.19383" lon="20.09606">
        <ele>622.59002685547</ele>
        <time>2023-10-01T08:17:25.000Z</time>
      </trkpt>
      <trkpt lat="42.19375" lon="20.09597">
        <ele>622.10998535156</ele>
        <time>2023-10-01T08:17:24.000Z</time>
      </trkpt>
      <trkpt lat="42.19373" lon="20.09594">
        <ele>621.63000488281</ele>
        <time>2023-10-01T08:17:23.000Z</time>
      </trkpt>
      <trkpt lat="42.19363" lon="20.09575">
        <ele>621.15002441406</ele>
        <time>2023-10-01T08:17:22.000Z</time>
      </trkpt>
      <trkpt lat="42.19357" lon="20.09563">
        <ele>620.66998291016</ele>
        <time>2023-10-01T08:17:21.000Z</time>
      </trkpt>
      <trkpt lat="42.19347" lon="20.09546">
        <ele>619.71002197266</ele>
        <time>2023-10-01T08:17:20.000Z</time>
      </trkpt>
      <trkpt lat="42.19335" lon="20.09524">
        <ele>618.26000976562</ele>
        <time>2023-10-01T08:17:19.000Z</time>
      </trkpt>
      <trkpt lat="42.1933" lon="20.0951">
        <ele>617.78002929688</ele>
        <time>2023-10-01T08:17:18.000Z</time>
      </trkpt>
      <trkpt lat="42.19329" lon="20.09496">
        <ele>616.82000732422</ele>
        <time>2023-10-01T08:17:17.000Z</time>
      </trkpt>
      <trkpt lat="42.19331" lon="20.09482">
        <ele>615.85998535156</ele>
        <time>2023-10-01T08:17:16.000Z</time>
      </trkpt>
      <trkpt lat="42.19332" lon="20.09463">
        <ele>615.38000488281</ele>
        <time>2023-10-01T08:17:15.000Z</time>
      </trkpt>
      <trkpt lat="42.1933" lon="20.09447">
        <ele>615.38000488281</ele>
        <time>2023-10-01T08:17:14.000Z</time>
      </trkpt>
      <trkpt lat="42.19325" lon="20.09433">
        <ele>615.38000488281</ele>
        <time>2023-10-01T08:17:13.000Z</time>
      </trkpt>
      <trkpt lat="42.19317" lon="20.0942">
        <ele>615.38000488281</ele>
        <time>2023-10-01T08:17:12.000Z</time>
      </trkpt>
      <trkpt lat="42.19306" lon="20.0941">
        <ele>615.38000488281</ele>
        <time>2023-10-01T08:17:11.000Z</time>
      </trkpt>
      <trkpt lat="42.19296" lon="20.09399">
        <ele>615.85998535156</ele>
        <time>2023-10-01T08:17:10.000Z</time>
      </trkpt>
      <trkpt lat="42.19288" lon="20.09387">
        <ele>615.85998535156</ele>
        <time>2023-10-01T08:17:09.000Z</time>
      </trkpt>
      <trkpt lat="42.19281" lon="20.09371">
        <ele>616.82000732422</ele>
        <time>2023-10-01T08:17:08.000Z</time>
      </trkpt>
      <trkpt lat="42.19274" lon="20.09357">
        <ele>617.29998779297</ele>
        <time>2023-10-01T08:17:07.000Z</time>
      </trkpt>
      <trkpt lat="42.19266" lon="20.09346">
        <ele>618.26000976562</ele>
        <time>2023-10-01T08:17:06.000Z</time>
      </trkpt>
      <trkpt lat="42.19257" lon="20.09334">
        <ele>618.75</ele>
        <time>2023-10-01T08:17:05.000Z</time>
      </trkpt>
      <trkpt lat="42.19247" lon="20.09323">
        <ele>618.26000976562</ele>
        <time>2023-10-01T08:17:04.000Z</time>
      </trkpt>
      <trkpt lat="42.19236" lon="20.09316">
        <ele>618.26000976562</ele>
        <time>2023-10-01T08:17:03.000Z</time>
      </trkpt>
      <trkpt lat="42.19224" lon="20.09307">
        <ele>618.26000976562</ele>
        <time>2023-10-01T08:17:02.000Z</time>
      </trkpt>
      <trkpt lat="42.19212" lon="20.09298">
        <ele>617.78002929688</ele>
        <time>2023-10-01T08:17:01.000Z</time>
      </trkpt>
      <trkpt lat="42.19208" lon="20.09295">
        <ele>617.78002929688</ele>
        <time>2023-10-01T08:17:00.000Z</time>
      </trkpt>
      <trkpt lat="42.19192" lon="20.09287">
        <ele>616.82000732422</ele>
        <time>2023-10-01T08:16:59.000Z</time>
      </trkpt>
      <trkpt lat="42.19185" lon="20.09281">
        <ele>615.85998535156</ele>
        <time>2023-10-01T08:16:58.000Z</time>
      </trkpt>
      <trkpt lat="42.19181" lon="20.09273">
        <ele>615.38000488281</ele>
        <time>2023-10-01T08:16:57.000Z</time>
      </trkpt>
      <trkpt lat="42.1918" lon="20.09262">
        <ele>614.41998291016</ele>
        <time>2023-10-01T08:16:56.000Z</time>
      </trkpt>
      <trkpt lat="42.19183" lon="20.09248">
        <ele>613.46002197266</ele>
        <time>2023-10-01T08:16:55.000Z</time>
      </trkpt>
      <trkpt lat="42.19186" lon="20.09235">
        <ele>612.5</ele>
        <time>2023-10-01T08:16:54.000Z</time>
      </trkpt>
      <trkpt lat="42.19187" lon="20.0922">
        <ele>612.02001953125</ele>
        <time>2023-10-01T08:16:53.000Z</time>
      </trkpt>
      <trkpt lat="42.19186" lon="20.09204">
        <ele>611.05999755859</ele>
        <time>2023-10-01T08:16:52.000Z</time>
      </trkpt>
      <trkpt lat="42.19183" lon="20.09187">
        <ele>609.13000488281</ele>
        <time>2023-10-01T08:16:51.000Z</time>
      </trkpt>
      <trkpt lat="42.1918" lon="20.09175">
        <ele>608.16998291016</ele>
        <time>2023-10-01T08:16:50.000Z</time>
      </trkpt>
      <trkpt lat="42.19176" lon="20.0916">
        <ele>607.21002197266</ele>
        <time>2023-10-01T08:16:49.000Z</time>
      </trkpt>
      <trkpt lat="42.19172" lon="20.0915">
        <ele>607.21002197266</ele>
        <time>2023-10-01T08:16:48.000Z</time>
      </trkpt>
      <trkpt lat="42.19166" lon="20.09144">
        <ele>607.69000244141</ele>
        <time>2023-10-01T08:16:47.000Z</time>
      </trkpt>
      <trkpt lat="42.19161" lon="20.09143">
        <ele>607.69000244141</ele>
        <time>2023-10-01T08:16:46.000Z</time>
      </trkpt>
      <trkpt lat="42.19155" lon="20.09144">
        <ele>608.16998291016</ele>
        <time>2023-10-01T08:16:45.000Z</time>
      </trkpt>
      <trkpt lat="42.19151" lon="20.09148">
        <ele>608.16998291016</ele>
        <time>2023-10-01T08:16:44.000Z</time>
      </trkpt>
      <trkpt lat="42.19148" lon="20.09155">
        <ele>608.65002441406</ele>
        <time>2023-10-01T08:16:43.000Z</time>
      </trkpt>
      <trkpt lat="42.19146" lon="20.0916">
        <ele>609.13000488281</ele>
        <time>2023-10-01T08:16:42.000Z</time>
      </trkpt>
      <trkpt lat="42.19145" lon="20.0917">
        <ele>609.60998535156</ele>
        <time>2023-10-01T08:16:41.000Z</time>
      </trkpt>
      <trkpt lat="42.19142" lon="20.09194">
        <ele>611.53997802734</ele>
        <time>2023-10-01T08:16:40.000Z</time>
      </trkpt>
      <trkpt lat="42.19138" lon="20.0921">
        <ele>612.97998046875</ele>
        <time>2023-10-01T08:16:39.000Z</time>
      </trkpt>
      <trkpt lat="42.19134" lon="20.09221">
        <ele>613.94000244141</ele>
        <time>2023-10-01T08:16:38.000Z</time>
      </trkpt>
      <trkpt lat="42.19118" lon="20.09252">
        <ele>616.82000732422</ele>
        <time>2023-10-01T08:16:36.000Z</time>
      </trkpt>
      <trkpt lat="42.19111" lon="20.09267">
        <ele>618.26000976562</ele>
        <time>2023-10-01T08:16:35.000Z</time>
      </trkpt>
      <trkpt lat="42.19107" lon="20.09282">
        <ele>619.71002197266</ele>
        <time>2023-10-01T08:16:34.000Z</time>
      </trkpt>
      <trkpt lat="42.19105" lon="20.09297">
        <ele>621.15002441406</ele>
        <time>2023-10-01T08:16:33.000Z</time>
      </trkpt>
      <trkpt lat="42.19105" lon="20.09313">
        <ele>622.59002685547</ele>
        <time>2023-10-01T08:16:32.000Z</time>
      </trkpt>
      <trkpt lat="42.19107" lon="20.09329">
        <ele>623.54998779297</ele>
        <time>2023-10-01T08:16:31.000Z</time>
      </trkpt>
      <trkpt lat="42.19112" lon="20.09342">
        <ele>624.51000976562</ele>
        <time>2023-10-01T08:16:30.000Z</time>
      </trkpt>
      <trkpt lat="42.19119" lon="20.09357">
        <ele>625.96002197266</ele>
        <time>2023-10-01T08:16:29.000Z</time>
      </trkpt>
      <trkpt lat="42.19125" lon="20.0937">
        <ele>626.91998291016</ele>
        <time>2023-10-01T08:16:28.000Z</time>
      </trkpt>
      <trkpt lat="42.19133" lon="20.09384">
        <ele>628.35998535156</ele>
        <time>2023-10-01T08:16:27.000Z</time>
      </trkpt>
      <trkpt lat="42.1914" lon="20.09394">
        <ele>629.32000732422</ele>
        <time>2023-10-01T08:16:26.000Z</time>
      </trkpt>
      <trkpt lat="42.19147" lon="20.09405">
        <ele>630.28002929688</ele>
        <time>2023-10-01T08:16:25.000Z</time>
      </trkpt>
      <trkpt lat="42.1915" lon="20.09414">
        <ele>631.23999023438</ele>
        <time>2023-10-01T08:16:24.000Z</time>
      </trkpt>
      <trkpt lat="42.19149" lon="20.09425">
        <ele>632.67999267578</ele>
        <time>2023-10-01T08:16:23.000Z</time>
      </trkpt>
      <trkpt lat="42.19145" lon="20.09432">
        <ele>633.65002441406</ele>
        <time>2023-10-01T08:16:22.000Z</time>
      </trkpt>
      <trkpt lat="42.1914" lon="20.09437">
        <ele>634.60998535156</ele>
        <time>2023-10-01T08:16:21.000Z</time>
      </trkpt>
      <trkpt lat="42.19129" lon="20.09445">
        <ele>636.04998779297</ele>
        <time>2023-10-01T08:16:20.000Z</time>
      </trkpt>
      <trkpt lat="42.19122" lon="20.09453">
        <ele>636.53002929688</ele>
        <time>2023-10-01T08:16:19.000Z</time>
      </trkpt>
      <trkpt lat="42.19118" lon="20.09463">
        <ele>637.96997070312</ele>
        <time>2023-10-01T08:16:18.000Z</time>
      </trkpt>
      <trkpt lat="42.19117" lon="20.0947">
        <ele>638.45001220703</ele>
        <time>2023-10-01T08:16:17.000Z</time>
      </trkpt>
      <trkpt lat="42.19115" lon="20.09494">
        <ele>639.40997314453</ele>
        <time>2023-10-01T08:16:16.000Z</time>
      </trkpt>
      <trkpt lat="42.19112" lon="20.09511">
        <ele>640.38000488281</ele>
        <time>2023-10-01T08:16:15.000Z</time>
      </trkpt>
      <trkpt lat="42.19107" lon="20.09527">
        <ele>641.34002685547</ele>
        <time>2023-10-01T08:16:14.000Z</time>
      </trkpt>
      <trkpt lat="42.19094" lon="20.09554">
        <ele>641.82000732422</ele>
        <time>2023-10-01T08:16:12.000Z</time>
      </trkpt>
      <trkpt lat="42.19084" lon="20.0957">
        <ele>641.82000732422</ele>
        <time>2023-10-01T08:16:11.000Z</time>
      </trkpt>
      <trkpt lat="42.19072" lon="20.0959">
        <ele>642.29998779297</ele>
        <time>2023-10-01T08:16:09.000Z</time>
      </trkpt>
      <trkpt lat="42.19061" lon="20.09609">
        <ele>642.29998779297</ele>
        <time>2023-10-01T08:16:08.000Z</time>
      </trkpt>
      <trkpt lat="42.19036" lon="20.09657">
        <ele>642.29998779297</ele>
        <time>2023-10-01T08:16:05.000Z</time>
      </trkpt>
      <trkpt lat="42.19028" lon="20.09673">
        <ele>642.78002929688</ele>
        <time>2023-10-01T08:16:04.000Z</time>
      </trkpt>
      <trkpt lat="42.19014" lon="20.09711">
        <ele>642.78002929688</ele>
        <time>2023-10-01T08:16:01.000Z</time>
      </trkpt>
      <trkpt lat="42.19013" lon="20.09721">
        <ele>643.73999023438</ele>
        <time>2023-10-01T08:16:00.000Z</time>
      </trkpt>
      <trkpt lat="42.19016" lon="20.0973">
        <ele>643.73999023438</ele>
        <time>2023-10-01T08:15:59.000Z</time>
      </trkpt>
      <trkpt lat="42.19021" lon="20.09737">
        <ele>643.73999023438</ele>
        <time>2023-10-01T08:15:58.000Z</time>
      </trkpt>
      <trkpt lat="42.19028" lon="20.09742">
        <ele>644.21997070312</ele>
        <time>2023-10-01T08:15:57.000Z</time>
      </trkpt>
      <trkpt lat="42.19036" lon="20.09744">
        <ele>644.21997070312</ele>
        <time>2023-10-01T08:15:56.000Z</time>
      </trkpt>
      <trkpt lat="42.19045" lon="20.09742">
        <ele>644.21997070312</ele>
        <time>2023-10-01T08:15:55.000Z</time>
      </trkpt>
      <trkpt lat="42.19052" lon="20.09739">
        <ele>644.21997070312</ele>
        <time>2023-10-01T08:15:54.000Z</time>
      </trkpt>
      <trkpt lat="42.19063" lon="20.09731">
        <ele>643.73999023438</ele>
        <time>2023-10-01T08:15:53.000Z</time>
      </trkpt>
      <trkpt lat="42.19072" lon="20.09727">
        <ele>643.26000976562</ele>
        <time>2023-10-01T08:15:52.000Z</time>
      </trkpt>
      <trkpt lat="42.19083" lon="20.09728">
        <ele>642.29998779297</ele>
        <time>2023-10-01T08:15:51.000Z</time>
      </trkpt>
      <trkpt lat="42.19093" lon="20.09731">
        <ele>642.78002929688</ele>
        <time>2023-10-01T08:15:50.000Z</time>
      </trkpt>
      <trkpt lat="42.19104" lon="20.09736">
        <ele>642.29998779297</ele>
        <time>2023-10-01T08:15:49.000Z</time>
      </trkpt>
      <trkpt lat="42.19118" lon="20.0974">
        <ele>642.29998779297</ele>
        <time>2023-10-01T08:15:48.000Z</time>
      </trkpt>
      <trkpt lat="42.1913" lon="20.09741">
        <ele>641.82000732422</ele>
        <time>2023-10-01T08:15:47.000Z</time>
      </trkpt>
      <trkpt lat="42.19142" lon="20.0974">
        <ele>641.34002685547</ele>
        <time>2023-10-01T08:15:46.000Z</time>
      </trkpt>
      <trkpt lat="42.19153" lon="20.09738">
        <ele>641.34002685547</ele>
        <time>2023-10-01T08:15:45.000Z</time>
      </trkpt>
      <trkpt lat="42.19164" lon="20.09734">
        <ele>640.85998535156</ele>
        <time>2023-10-01T08:15:44.000Z</time>
      </trkpt>
      <trkpt lat="42.19175" lon="20.09731">
        <ele>640.38000488281</ele>
        <time>2023-10-01T08:15:43.000Z</time>
      </trkpt>
      <trkpt lat="42.19185" lon="20.09732">
        <ele>639.89001464844</ele>
        <time>2023-10-01T08:15:42.000Z</time>
      </trkpt>
      <trkpt lat="42.19195" lon="20.09737">
        <ele>639.40997314453</ele>
        <time>2023-10-01T08:15:41.000Z</time>
      </trkpt>
      <trkpt lat="42.19203" lon="20.09745">
        <ele>638.92999267578</ele>
        <time>2023-10-01T08:15:40.000Z</time>
      </trkpt>
      <trkpt lat="42.19209" lon="20.09757">
        <ele>638.92999267578</ele>
        <time>2023-10-01T08:15:39.000Z</time>
      </trkpt>
      <trkpt lat="42.19213" lon="20.09772">
        <ele>639.40997314453</ele>
        <time>2023-10-01T08:15:38.000Z</time>
      </trkpt>
      <trkpt lat="42.19214" lon="20.09789">
        <ele>639.89001464844</ele>
        <time>2023-10-01T08:15:37.000Z</time>
      </trkpt>
      <trkpt lat="42.19213" lon="20.09807">
        <ele>640.38000488281</ele>
        <time>2023-10-01T08:15:36.000Z</time>
      </trkpt>
      <trkpt lat="42.19211" lon="20.0982">
        <ele>641.34002685547</ele>
        <time>2023-10-01T08:15:35.000Z</time>
      </trkpt>
      <trkpt lat="42.19207" lon="20.09833">
        <ele>642.29998779297</ele>
        <time>2023-10-01T08:15:34.000Z</time>
      </trkpt>
      <trkpt lat="42.1919" lon="20.09885">
        <ele>644.21997070312</ele>
        <time>2023-10-01T08:15:31.000Z</time>
      </trkpt>
      <trkpt lat="42.19186" lon="20.09902">
        <ele>645.65997314453</ele>
        <time>2023-10-01T08:15:30.000Z</time>
      </trkpt>
      <trkpt lat="42.19185" lon="20.09907">
        <ele>646.14001464844</ele>
        <time>2023-10-01T08:15:29.000Z</time>
      </trkpt>
      <trkpt lat="42.19181" lon="20.09935">
        <ele>647.59002685547</ele>
        <time>2023-10-01T08:15:28.000Z</time>
      </trkpt>
      <trkpt lat="42.19178" lon="20.09951">
        <ele>649.51000976562</ele>
        <time>2023-10-01T08:15:27.000Z</time>
      </trkpt>
      <trkpt lat="42.19175" lon="20.09959">
        <ele>650.46997070312</ele>
        <time>2023-10-01T08:15:26.000Z</time>
      </trkpt>
      <trkpt lat="42.19168" lon="20.09977">
        <ele>652.39001464844</ele>
        <time>2023-10-01T08:15:25.000Z</time>
      </trkpt>
      <trkpt lat="42.19165" lon="20.09988">
        <ele>654.30999755859</ele>
        <time>2023-10-01T08:15:24.000Z</time>
      </trkpt>
      <trkpt lat="42.19166" lon="20.09998">
        <ele>655.76000976562</ele>
        <time>2023-10-01T08:15:23.000Z</time>
      </trkpt>
      <trkpt lat="42.19171" lon="20.10008">
        <ele>656.23999023438</ele>
        <time>2023-10-01T08:15:22.000Z</time>
      </trkpt>
      <trkpt lat="42.19178" lon="20.10013">
        <ele>657.20001220703</ele>
        <time>2023-10-01T08:15:21.000Z</time>
      </trkpt>
      <trkpt lat="42.19187" lon="20.10015">
        <ele>658.15997314453</ele>
        <time>2023-10-01T08:15:20.000Z</time>
      </trkpt>
      <trkpt lat="42.192" lon="20.10015">
        <ele>659.59997558594</ele>
        <time>2023-10-01T08:15:19.000Z</time>
      </trkpt>
      <trkpt lat="42.19213" lon="20.10014">
        <ele>660.55999755859</ele>
        <time>2023-10-01T08:15:18.000Z</time>
      </trkpt>
      <trkpt lat="42.19225" lon="20.1001">
        <ele>662.01000976562</ele>
        <time>2023-10-01T08:15:17.000Z</time>
      </trkpt>
      <trkpt lat="42.19235" lon="20.10005">
        <ele>662.48999023438</ele>
        <time>2023-10-01T08:15:16.000Z</time>
      </trkpt>
      <trkpt lat="42.19246" lon="20.09998">
        <ele>663.45001220703</ele>
        <time>2023-10-01T08:15:15.000Z</time>
      </trkpt>
      <trkpt lat="42.19256" lon="20.09994">
        <ele>664.40997314453</ele>
        <time>2023-10-01T08:15:14.000Z</time>
      </trkpt>
      <trkpt lat="42.19265" lon="20.09994">
        <ele>665.36999511719</ele>
        <time>2023-10-01T08:15:13.000Z</time>
      </trkpt>
      <trkpt lat="42.19273" lon="20.09999">
        <ele>666.33001708984</ele>
        <time>2023-10-01T08:15:12.000Z</time>
      </trkpt>
      <trkpt lat="42.19281" lon="20.10008">
        <ele>666.80999755859</ele>
        <time>2023-10-01T08:15:11.000Z</time>
      </trkpt>
      <trkpt lat="42.19289" lon="20.10021">
        <ele>667.77001953125</ele>
        <time>2023-10-01T08:15:10.000Z</time>
      </trkpt>
      <trkpt lat="42.19299" lon="20.10034">
        <ele>668.72998046875</ele>
        <time>2023-10-01T08:15:09.000Z</time>
      </trkpt>
      <trkpt lat="42.19307" lon="20.10042">
        <ele>669.21997070312</ele>
        <time>2023-10-01T08:15:08.000Z</time>
      </trkpt>
      <trkpt lat="42.19321" lon="20.10054">
        <ele>670.17999267578</ele>
        <time>2023-10-01T08:15:07.000Z</time>
      </trkpt>
      <trkpt lat="42.1933" lon="20.10064">
        <ele>670.65997314453</ele>
        <time>2023-10-01T08:15:06.000Z</time>
      </trkpt>
      <trkpt lat="42.19336" lon="20.10077">
        <ele>671.14001464844</ele>
        <time>2023-10-01T08:15:05.000Z</time>
      </trkpt>
      <trkpt lat="42.1934" lon="20.1009">
        <ele>671.14001464844</ele>
        <time>2023-10-01T08:15:04.000Z</time>
      </trkpt>
      <trkpt lat="42.19342" lon="20.10104">
        <ele>671.14001464844</ele>
        <time>2023-10-01T08:15:03.000Z</time>
      </trkpt>
      <trkpt lat="42.19342" lon="20.10121">
        <ele>671.14001464844</ele>
        <time>2023-10-01T08:15:02.000Z</time>
      </trkpt>
      <trkpt lat="42.19343" lon="20.10137">
        <ele>672.09997558594</ele>
        <time>2023-10-01T08:15:01.000Z</time>
      </trkpt>
      <trkpt lat="42.19343" lon="20.10151">
        <ele>672.09997558594</ele>
        <time>2023-10-01T08:15:00.000Z</time>
      </trkpt>
      <trkpt lat="42.19342" lon="20.10163">
        <ele>672.58001708984</ele>
        <time>2023-10-01T08:14:59.000Z</time>
      </trkpt>
      <trkpt lat="42.19336" lon="20.10176">
        <ele>672.58001708984</ele>
        <time>2023-10-01T08:14:58.000Z</time>
      </trkpt>
      <trkpt lat="42.19327" lon="20.10193">
        <ele>673.53997802734</ele>
        <time>2023-10-01T08:14:56.000Z</time>
      </trkpt>
      <trkpt lat="42.193" lon="20.10231">
        <ele>676.90997314453</ele>
        <time>2023-10-01T08:14:53.000Z</time>
      </trkpt>
      <trkpt lat="42.19284" lon="20.10258">
        <ele>680.27001953125</ele>
        <time>2023-10-01T08:14:52.000Z</time>
      </trkpt>
      <trkpt lat="42.19277" lon="20.10273">
        <ele>682.19000244141</ele>
        <time>2023-10-01T08:14:51.000Z</time>
      </trkpt>
      <trkpt lat="42.19272" lon="20.10289">
        <ele>684.11999511719</ele>
        <time>2023-10-01T08:14:50.000Z</time>
      </trkpt>
      <trkpt lat="42.19269" lon="20.10303">
        <ele>685.08001708984</ele>
        <time>2023-10-01T08:14:49.000Z</time>
      </trkpt>
      <trkpt lat="42.19267" lon="20.10322">
        <ele>686.03997802734</ele>
        <time>2023-10-01T08:14:48.000Z</time>
      </trkpt>
      <trkpt lat="42.19267" lon="20.10338">
        <ele>687.47998046875</ele>
        <time>2023-10-01T08:14:47.000Z</time>
      </trkpt>
      <trkpt lat="42.19268" lon="20.10354">
        <ele>689.40002441406</ele>
        <time>2023-10-01T08:14:46.000Z</time>
      </trkpt>
      <trkpt lat="42.19273" lon="20.10367">
        <ele>689.88000488281</ele>
        <time>2023-10-01T08:14:45.000Z</time>
      </trkpt>
      <trkpt lat="42.19281" lon="20.10377">
        <ele>690.84002685547</ele>
        <time>2023-10-01T08:14:44.000Z</time>
      </trkpt>
      <trkpt lat="42.19293" lon="20.10385">
        <ele>691.80999755859</ele>
        <time>2023-10-01T08:14:43.000Z</time>
      </trkpt>
      <trkpt lat="42.19298" lon="20.10387">
        <ele>691.80999755859</ele>
        <time>2023-10-01T08:14:42.000Z</time>
      </trkpt>
      <trkpt lat="42.1932" lon="20.10393">
        <ele>693.25</ele>
        <time>2023-10-01T08:14:41.000Z</time>
      </trkpt>
      <trkpt lat="42.19331" lon="20.10395">
        <ele>693.72998046875</ele>
        <time>2023-10-01T08:14:40.000Z</time>
      </trkpt>
      <trkpt lat="42.19346" lon="20.10398">
        <ele>694.21002197266</ele>
        <time>2023-10-01T08:14:39.000Z</time>
      </trkpt>
      <trkpt lat="42.19361" lon="20.104">
        <ele>694.69000244141</ele>
        <time>2023-10-01T08:14:38.000Z</time>
      </trkpt>
      <trkpt lat="42.19369" lon="20.10403">
        <ele>694.69000244141</ele>
        <time>2023-10-01T08:14:37.000Z</time>
      </trkpt>
      <trkpt lat="42.19377" lon="20.10409">
        <ele>694.69000244141</ele>
        <time>2023-10-01T08:14:36.000Z</time>
      </trkpt>
      <trkpt lat="42.19382" lon="20.1042">
        <ele>694.69000244141</ele>
        <time>2023-10-01T08:14:35.000Z</time>
      </trkpt>
      <trkpt lat="42.1939" lon="20.10448">
        <ele>695.16998291016</ele>
        <time>2023-10-01T08:14:33.000Z</time>
      </trkpt>
      <trkpt lat="42.19393" lon="20.10462">
        <ele>695.16998291016</ele>
        <time>2023-10-01T08:14:32.000Z</time>
      </trkpt>
      <trkpt lat="42.19394" lon="20.10478">
        <ele>696.13000488281</ele>
        <time>2023-10-01T08:14:31.000Z</time>
      </trkpt>
      <trkpt lat="42.19393" lon="20.10493">
        <ele>696.60998535156</ele>
        <time>2023-10-01T08:14:30.000Z</time>
      </trkpt>
      <trkpt lat="42.19392" lon="20.10507">
        <ele>697.09002685547</ele>
        <time>2023-10-01T08:14:29.000Z</time>
      </trkpt>
      <trkpt lat="42.19392" lon="20.10521">
        <ele>697.57000732422</ele>
        <time>2023-10-01T08:14:28.000Z</time>
      </trkpt>
      <trkpt lat="42.19395" lon="20.10547">
        <ele>699.02001953125</ele>
        <time>2023-10-01T08:14:27.000Z</time>
      </trkpt>
      <trkpt lat="42.19394" lon="20.10563">
        <ele>699.97998046875</ele>
        <time>2023-10-01T08:14:26.000Z</time>
      </trkpt>
      <trkpt lat="42.19391" lon="20.10577">
        <ele>699.97998046875</ele>
        <time>2023-10-01T08:14:25.000Z</time>
      </trkpt>
      <trkpt lat="42.19386" lon="20.10591">
        <ele>700.94000244141</ele>
        <time>2023-10-01T08:14:24.000Z</time>
      </trkpt>
      <trkpt lat="42.19384" lon="20.10594">
        <ele>700.94000244141</ele>
        <time>2023-10-01T08:14:23.000Z</time>
      </trkpt>
      <trkpt lat="42.19372" lon="20.10614">
        <ele>702.38000488281</ele>
        <time>2023-10-01T08:14:22.000Z</time>
      </trkpt>
      <trkpt lat="42.19367" lon="20.10627">
        <ele>702.85998535156</ele>
        <time>2023-10-01T08:14:21.000Z</time>
      </trkpt>
      <trkpt lat="42.19365" lon="20.1064">
        <ele>703.82000732422</ele>
        <time>2023-10-01T08:14:20.000Z</time>
      </trkpt>
      <trkpt lat="42.19366" lon="20.10653">
        <ele>704.78002929688</ele>
        <time>2023-10-01T08:14:19.000Z</time>
      </trkpt>
      <trkpt lat="42.1937" lon="20.10666">
        <ele>705.75</ele>
        <time>2023-10-01T08:14:18.000Z</time>
      </trkpt>
      <trkpt lat="42.19375" lon="20.10674">
        <ele>706.22998046875</ele>
        <time>2023-10-01T08:14:17.000Z</time>
      </trkpt>
      <trkpt lat="42.19391" lon="20.10701">
        <ele>707.66998291016</ele>
        <time>2023-10-01T08:14:15.000Z</time>
      </trkpt>
      <trkpt lat="42.19403" lon="20.10719">
        <ele>708.63000488281</ele>
        <time>2023-10-01T08:14:14.000Z</time>
      </trkpt>
      <trkpt lat="42.19412" lon="20.1073">
        <ele>709.59002685547</ele>
        <time>2023-10-01T08:14:13.000Z</time>
      </trkpt>
      <trkpt lat="42.19423" lon="20.10737">
        <ele>709.59002685547</ele>
        <time>2023-10-01T08:14:12.000Z</time>
      </trkpt>
      <trkpt lat="42.19433" lon="20.10741">
        <ele>710.07000732422</ele>
        <time>2023-10-01T08:14:11.000Z</time>
      </trkpt>
      <trkpt lat="42.19443" lon="20.10746">
        <ele>710.54998779297</ele>
        <time>2023-10-01T08:14:10.000Z</time>
      </trkpt>
      <trkpt lat="42.1945" lon="20.10752">
        <ele>710.54998779297</ele>
        <time>2023-10-01T08:14:09.000Z</time>
      </trkpt>
      <trkpt lat="42.19454" lon="20.10764">
        <ele>711.03002929688</ele>
        <time>2023-10-01T08:14:08.000Z</time>
      </trkpt>
      <trkpt lat="42.19456" lon="20.10776">
        <ele>711.03002929688</ele>
        <time>2023-10-01T08:14:07.000Z</time>
      </trkpt>
      <trkpt lat="42.19458" lon="20.1079">
        <ele>711.03002929688</ele>
        <time>2023-10-01T08:14:06.000Z</time>
      </trkpt>
      <trkpt lat="42.19462" lon="20.10816">
        <ele>711.98999023438</ele>
        <time>2023-10-01T08:14:05.000Z</time>
      </trkpt>
      <trkpt lat="42.19462" lon="20.10832">
        <ele>711.98999023438</ele>
        <time>2023-10-01T08:14:04.000Z</time>
      </trkpt>
      <trkpt lat="42.19462" lon="20.10853">
        <ele>711.98999023438</ele>
        <time>2023-10-01T08:14:03.000Z</time>
      </trkpt>
      <trkpt lat="42.19465" lon="20.10869">
        <ele>713.44000244141</ele>
        <time>2023-10-01T08:14:02.000Z</time>
      </trkpt>
      <trkpt lat="42.19471" lon="20.10884">
        <ele>713.91998291016</ele>
        <time>2023-10-01T08:14:01.000Z</time>
      </trkpt>
      <trkpt lat="42.19477" lon="20.10898">
        <ele>714.88000488281</ele>
        <time>2023-10-01T08:14:00.000Z</time>
      </trkpt>
      <trkpt lat="42.19481" lon="20.10912">
        <ele>715.35998535156</ele>
        <time>2023-10-01T08:13:59.000Z</time>
      </trkpt>
      <trkpt lat="42.19482" lon="20.10925">
        <ele>715.84002685547</ele>
        <time>2023-10-01T08:13:58.000Z</time>
      </trkpt>
      <trkpt lat="42.19479" lon="20.10938">
        <ele>716.32000732422</ele>
        <time>2023-10-01T08:13:57.000Z</time>
      </trkpt>
      <trkpt lat="42.19472" lon="20.10953">
        <ele>716.79998779297</ele>
        <time>2023-10-01T08:13:56.000Z</time>
      </trkpt>
      <trkpt lat="42.1946" lon="20.10976">
        <ele>717.28002929688</ele>
        <time>2023-10-01T08:13:54.000Z</time>
      </trkpt>
      <trkpt lat="42.19446" lon="20.11001">
        <ele>718.23999023438</ele>
        <time>2023-10-01T08:13:53.000Z</time>
      </trkpt>
      <trkpt lat="42.19429" lon="20.11033">
        <ele>720.65002441406</ele>
        <time>2023-10-01T08:13:51.000Z</time>
      </trkpt>
      <trkpt lat="42.19417" lon="20.11055">
        <ele>721.60998535156</ele>
        <time>2023-10-01T08:13:50.000Z</time>
      </trkpt>
      <trkpt lat="42.1941" lon="20.11072">
        <ele>722.57000732422</ele>
        <time>2023-10-01T08:13:49.000Z</time>
      </trkpt>
      <trkpt lat="42.19409" lon="20.11088">
        <ele>723.53002929688</ele>
        <time>2023-10-01T08:13:48.000Z</time>
      </trkpt>
      <trkpt lat="42.19411" lon="20.11102">
        <ele>724.48999023438</ele>
        <time>2023-10-01T08:13:47.000Z</time>
      </trkpt>
      <trkpt lat="42.19417" lon="20.11115">
        <ele>724.48999023438</ele>
        <time>2023-10-01T08:13:46.000Z</time>
      </trkpt>
      <trkpt lat="42.19424" lon="20.11128">
        <ele>724.96997070312</ele>
        <time>2023-10-01T08:13:45.000Z</time>
      </trkpt>
      <trkpt lat="42.19431" lon="20.11143">
        <ele>725.45001220703</ele>
        <time>2023-10-01T08:13:44.000Z</time>
      </trkpt>
      <trkpt lat="42.19437" lon="20.11158">
        <ele>725.92999267578</ele>
        <time>2023-10-01T08:13:43.000Z</time>
      </trkpt>
      <trkpt lat="42.1944" lon="20.11173">
        <ele>725.92999267578</ele>
        <time>2023-10-01T08:13:42.000Z</time>
      </trkpt>
      <trkpt lat="42.1944" lon="20.1118">
        <ele>725.92999267578</ele>
        <time>2023-10-01T08:13:41.000Z</time>
      </trkpt>
      <trkpt lat="42.19441" lon="20.11229">
        <ele>727.36999511719</ele>
        <time>2023-10-01T08:13:39.000Z</time>
      </trkpt>
      <trkpt lat="42.19439" lon="20.11245">
        <ele>727.36999511719</ele>
        <time>2023-10-01T08:13:38.000Z</time>
      </trkpt>
      <trkpt lat="42.19437" lon="20.1126">
        <ele>727.36999511719</ele>
        <time>2023-10-01T08:13:37.000Z</time>
      </trkpt>
      <trkpt lat="42.19432" lon="20.11272">
        <ele>727.85998535156</ele>
        <time>2023-10-01T08:13:36.000Z</time>
      </trkpt>
      <trkpt lat="42.19425" lon="20.11278">
        <ele>727.36999511719</ele>
        <time>2023-10-01T08:13:35.000Z</time>
      </trkpt>
      <trkpt lat="42.19416" lon="20.11282">
        <ele>727.36999511719</ele>
        <time>2023-10-01T08:13:34.000Z</time>
      </trkpt>
      <trkpt lat="42.19409" lon="20.11282">
        <ele>727.36999511719</ele>
        <time>2023-10-01T08:13:33.000Z</time>
      </trkpt>
      <trkpt lat="42.1939" lon="20.11282">
        <ele>728.34002685547</ele>
        <time>2023-10-01T08:13:32.000Z</time>
      </trkpt>
      <trkpt lat="42.19381" lon="20.1128">
        <ele>728.34002685547</ele>
        <time>2023-10-01T08:13:31.000Z</time>
      </trkpt>
      <trkpt lat="42.19364" lon="20.11275">
        <ele>729.29998779297</ele>
        <time>2023-10-01T08:13:30.000Z</time>
      </trkpt>
      <trkpt lat="42.19354" lon="20.11273">
        <ele>729.78002929688</ele>
        <time>2023-10-01T08:13:29.000Z</time>
      </trkpt>
      <trkpt lat="42.19344" lon="20.11277">
        <ele>730.73999023438</ele>
        <time>2023-10-01T08:13:28.000Z</time>
      </trkpt>
      <trkpt lat="42.19338" lon="20.11287">
        <ele>731.70001220703</ele>
        <time>2023-10-01T08:13:27.000Z</time>
      </trkpt>
      <trkpt lat="42.19334" lon="20.113">
        <ele>732.65997314453</ele>
        <time>2023-10-01T08:13:26.000Z</time>
      </trkpt>
      <trkpt lat="42.19328" lon="20.11313">
        <ele>733.14001464844</ele>
        <time>2023-10-01T08:13:25.000Z</time>
      </trkpt>
      <trkpt lat="42.19319" lon="20.11323">
        <ele>733.61999511719</ele>
        <time>2023-10-01T08:13:24.000Z</time>
      </trkpt>
      <trkpt lat="42.19307" lon="20.11331">
        <ele>735.07000732422</ele>
        <time>2023-10-01T08:13:23.000Z</time>
      </trkpt>
      <trkpt lat="42.19301" lon="20.11334">
        <ele>736.03002929688</ele>
        <time>2023-10-01T08:13:22.000Z</time>
      </trkpt>
      <trkpt lat="42.19283" lon="20.1134">
        <ele>737.95001220703</ele>
        <time>2023-10-01T08:13:21.000Z</time>
      </trkpt>
      <trkpt lat="42.19274" lon="20.11344">
        <ele>738.90997314453</ele>
        <time>2023-10-01T08:13:20.000Z</time>
      </trkpt>
      <trkpt lat="42.19268" lon="20.11351">
        <ele>739.86999511719</ele>
        <time>2023-10-01T08:13:19.000Z</time>
      </trkpt>
      <trkpt lat="42.19266" lon="20.11361">
        <ele>741.30999755859</ele>
        <time>2023-10-01T08:13:18.000Z</time>
      </trkpt>
      <trkpt lat="42.19267" lon="20.11371">
        <ele>742.76000976562</ele>
        <time>2023-10-01T08:13:17.000Z</time>
      </trkpt>
      <trkpt lat="42.19272" lon="20.11379">
        <ele>743.23999023438</ele>
        <time>2023-10-01T08:13:16.000Z</time>
      </trkpt>
      <trkpt lat="42.19279" lon="20.11384">
        <ele>743.71997070312</ele>
        <time>2023-10-01T08:13:15.000Z</time>
      </trkpt>
      <trkpt lat="42.19283" lon="20.11386">
        <ele>743.71997070312</ele>
        <time>2023-10-01T08:13:14.000Z</time>
      </trkpt>
      <trkpt lat="42.193" lon="20.11391">
        <ele>744.20001220703</ele>
        <time>2023-10-01T08:13:13.000Z</time>
      </trkpt>
      <trkpt lat="42.19313" lon="20.11395">
        <ele>744.67999267578</ele>
        <time>2023-10-01T08:13:12.000Z</time>
      </trkpt>
      <trkpt lat="42.19324" lon="20.114">
        <ele>745.15997314453</ele>
        <time>2023-10-01T08:13:11.000Z</time>
      </trkpt>
      <trkpt lat="42.19333" lon="20.11406">
        <ele>746.11999511719</ele>
        <time>2023-10-01T08:13:10.000Z</time>
      </trkpt>
      <trkpt lat="42.1934" lon="20.11414">
        <ele>746.59997558594</ele>
        <time>2023-10-01T08:13:09.000Z</time>
      </trkpt>
      <trkpt lat="42.19345" lon="20.11426">
        <ele>747.08001708984</ele>
        <time>2023-10-01T08:13:08.000Z</time>
      </trkpt>
      <trkpt lat="42.19347" lon="20.11439">
        <ele>747.55999755859</ele>
        <time>2023-10-01T08:13:07.000Z</time>
      </trkpt>
      <trkpt lat="42.19345" lon="20.11455">
        <ele>749</ele>
        <time>2023-10-01T08:13:06.000Z</time>
      </trkpt>
      <trkpt lat="42.19343" lon="20.11467">
        <ele>749.48999023438</ele>
        <time>2023-10-01T08:13:05.000Z</time>
      </trkpt>
      <trkpt lat="42.19345" lon="20.11482">
        <ele>751.89001464844</ele>
        <time>2023-10-01T08:13:04.000Z</time>
      </trkpt>
      <trkpt lat="42.1935" lon="20.11491">
        <ele>751.89001464844</ele>
        <time>2023-10-01T08:13:03.000Z</time>
      </trkpt>
      <trkpt lat="42.19361" lon="20.115">
        <ele>752.36999511719</ele>
        <time>2023-10-01T08:13:02.000Z</time>
      </trkpt>
      <trkpt lat="42.19372" lon="20.11507">
        <ele>752.84997558594</ele>
        <time>2023-10-01T08:13:01.000Z</time>
      </trkpt>
      <trkpt lat="42.19385" lon="20.11514">
        <ele>752.84997558594</ele>
        <time>2023-10-01T08:13:00.000Z</time>
      </trkpt>
      <trkpt lat="42.19387" lon="20.11516">
        <ele>753.33001708984</ele>
        <time>2023-10-01T08:12:59.000Z</time>
      </trkpt>
      <trkpt lat="42.19408" lon="20.11533">
        <ele>754.77001953125</ele>
        <time>2023-10-01T08:12:58.000Z</time>
      </trkpt>
      <trkpt lat="42.19418" lon="20.11544">
        <ele>756.21002197266</ele>
        <time>2023-10-01T08:12:57.000Z</time>
      </trkpt>
      <trkpt lat="42.19434" lon="20.11561">
        <ele>757.65997314453</ele>
        <time>2023-10-01T08:12:56.000Z</time>
      </trkpt>
      <trkpt lat="42.19447" lon="20.1157">
        <ele>758.61999511719</ele>
        <time>2023-10-01T08:12:55.000Z</time>
      </trkpt>
      <trkpt lat="42.19455" lon="20.11575">
        <ele>758.61999511719</ele>
        <time>2023-10-01T08:12:54.000Z</time>
      </trkpt>
      <trkpt lat="42.19476" lon="20.11585">
        <ele>758.61999511719</ele>
        <time>2023-10-01T08:12:53.000Z</time>
      </trkpt>
      <trkpt lat="42.19492" lon="20.11591">
        <ele>759.09997558594</ele>
        <time>2023-10-01T08:12:52.000Z</time>
      </trkpt>
      <trkpt lat="42.19511" lon="20.11596">
        <ele>759.58001708984</ele>
        <time>2023-10-01T08:12:51.000Z</time>
      </trkpt>
      <trkpt lat="42.19517" lon="20.11597">
        <ele>759.58001708984</ele>
        <time>2023-10-01T08:12:50.000Z</time>
      </trkpt>
      <trkpt lat="42.19543" lon="20.11599">
        <ele>760.05999755859</ele>
        <time>2023-10-01T08:12:49.000Z</time>
      </trkpt>
      <trkpt lat="42.19558" lon="20.11604">
        <ele>760.05999755859</ele>
        <time>2023-10-01T08:12:48.000Z</time>
      </trkpt>
      <trkpt lat="42.19567" lon="20.11608">
        <ele>760.53997802734</ele>
        <time>2023-10-01T08:12:47.000Z</time>
      </trkpt>
      <trkpt lat="42.19588" lon="20.11615">
        <ele>761.02001953125</ele>
        <time>2023-10-01T08:12:46.000Z</time>
      </trkpt>
      <trkpt lat="42.196" lon="20.11617">
        <ele>761.5</ele>
        <time>2023-10-01T08:12:45.000Z</time>
      </trkpt>
      <trkpt lat="42.19614" lon="20.11618">
        <ele>761.97998046875</ele>
        <time>2023-10-01T08:12:44.000Z</time>
      </trkpt>
      <trkpt lat="42.19629" lon="20.11619">
        <ele>762.46002197266</ele>
        <time>2023-10-01T08:12:43.000Z</time>
      </trkpt>
      <trkpt lat="42.19641" lon="20.11623">
        <ele>762.94000244141</ele>
        <time>2023-10-01T08:12:42.000Z</time>
      </trkpt>
      <trkpt lat="42.19651" lon="20.1163">
        <ele>763.41998291016</ele>
        <time>2023-10-01T08:12:41.000Z</time>
      </trkpt>
      <trkpt lat="42.1966" lon="20.1164">
        <ele>763.90002441406</ele>
        <time>2023-10-01T08:12:40.000Z</time>
      </trkpt>
      <trkpt lat="42.1967" lon="20.11652">
        <ele>764.39001464844</ele>
        <time>2023-10-01T08:12:39.000Z</time>
      </trkpt>
      <trkpt lat="42.19677" lon="20.11665">
        <ele>765.34997558594</ele>
        <time>2023-10-01T08:12:38.000Z</time>
      </trkpt>
      <trkpt lat="42.1968" lon="20.11678">
        <ele>765.83001708984</ele>
        <time>2023-10-01T08:12:37.000Z</time>
      </trkpt>
      <trkpt lat="42.1968" lon="20.11692">
        <ele>766.30999755859</ele>
        <time>2023-10-01T08:12:36.000Z</time>
      </trkpt>
      <trkpt lat="42.19678" lon="20.11706">
        <ele>767.27001953125</ele>
        <time>2023-10-01T08:12:35.000Z</time>
      </trkpt>
      <trkpt lat="42.19673" lon="20.11719">
        <ele>768.22998046875</ele>
        <time>2023-10-01T08:12:34.000Z</time>
      </trkpt>
      <trkpt lat="42.19666" lon="20.1173">
        <ele>768.22998046875</ele>
        <time>2023-10-01T08:12:33.000Z</time>
      </trkpt>
      <trkpt lat="42.19657" lon="20.11738">
        <ele>768.71002197266</ele>
        <time>2023-10-01T08:12:32.000Z</time>
      </trkpt>
      <trkpt lat="42.19646" lon="20.11743">
        <ele>769.19000244141</ele>
        <time>2023-10-01T08:12:31.000Z</time>
      </trkpt>
      <trkpt lat="42.19633" lon="20.11744">
        <ele>769.66998291016</ele>
        <time>2023-10-01T08:12:30.000Z</time>
      </trkpt>
      <trkpt lat="42.19619" lon="20.11744">
        <ele>770.63000488281</ele>
        <time>2023-10-01T08:12:29.000Z</time>
      </trkpt>
      <trkpt lat="42.19605" lon="20.11744">
        <ele>771.10998535156</ele>
        <time>2023-10-01T08:12:28.000Z</time>
      </trkpt>
      <trkpt lat="42.19586" lon="20.11747">
        <ele>771.59997558594</ele>
        <time>2023-10-01T08:12:27.000Z</time>
      </trkpt>
      <trkpt lat="42.19571" lon="20.1175">
        <ele>772.55999755859</ele>
        <time>2023-10-01T08:12:26.000Z</time>
      </trkpt>
      <trkpt lat="42.19559" lon="20.11755">
        <ele>773.52001953125</ele>
        <time>2023-10-01T08:12:25.000Z</time>
      </trkpt>
      <trkpt lat="42.19547" lon="20.11764">
        <ele>774</ele>
        <time>2023-10-01T08:12:24.000Z</time>
      </trkpt>
      <trkpt lat="42.19537" lon="20.11775">
        <ele>774.96002197266</ele>
        <time>2023-10-01T08:12:23.000Z</time>
      </trkpt>
      <trkpt lat="42.19529" lon="20.1179">
        <ele>775.91998291016</ele>
        <time>2023-10-01T08:12:22.000Z</time>
      </trkpt>
      <trkpt lat="42.19524" lon="20.11807">
        <ele>776.40002441406</ele>
        <time>2023-10-01T08:12:21.000Z</time>
      </trkpt>
      <trkpt lat="42.19521" lon="20.11826">
        <ele>776.88000488281</ele>
        <time>2023-10-01T08:12:20.000Z</time>
      </trkpt>
      <trkpt lat="42.19519" lon="20.11846">
        <ele>777.35998535156</ele>
        <time>2023-10-01T08:12:19.000Z</time>
      </trkpt>
      <trkpt lat="42.19517" lon="20.1186">
        <ele>777.35998535156</ele>
        <time>2023-10-01T08:12:18.000Z</time>
      </trkpt>
      <trkpt lat="42.19513" lon="20.11877">
        <ele>777.84002685547</ele>
        <time>2023-10-01T08:12:17.000Z</time>
      </trkpt>
      <trkpt lat="42.19508" lon="20.11891">
        <ele>777.84002685547</ele>
        <time>2023-10-01T08:12:16.000Z</time>
      </trkpt>
      <trkpt lat="42.19501" lon="20.11901">
        <ele>777.84002685547</ele>
        <time>2023-10-01T08:12:15.000Z</time>
      </trkpt>
      <trkpt lat="42.19491" lon="20.11909">
        <ele>778.80999755859</ele>
        <time>2023-10-01T08:12:14.000Z</time>
      </trkpt>
      <trkpt lat="42.19471" lon="20.1192">
        <ele>778.80999755859</ele>
        <time>2023-10-01T08:12:12.000Z</time>
      </trkpt>
      <trkpt lat="42.19457" lon="20.11926">
        <ele>779.77001953125</ele>
        <time>2023-10-01T08:12:11.000Z</time>
      </trkpt>
      <trkpt lat="42.19455" lon="20.11927">
        <ele>779.28997802734</ele>
        <time>2023-10-01T08:12:10.000Z</time>
      </trkpt>
      <trkpt lat="42.19429" lon="20.11937">
        <ele>778.32000732422</ele>
        <time>2023-10-01T08:12:09.000Z</time>
      </trkpt>
      <trkpt lat="42.19418" lon="20.11941">
        <ele>777.84002685547</ele>
        <time>2023-10-01T08:12:08.000Z</time>
      </trkpt>
      <trkpt lat="42.19407" lon="20.11947">
        <ele>777.84002685547</ele>
        <time>2023-10-01T08:12:07.000Z</time>
      </trkpt>
      <trkpt lat="42.19399" lon="20.11954">
        <ele>777.84002685547</ele>
        <time>2023-10-01T08:12:06.000Z</time>
      </trkpt>
      <trkpt lat="42.19388" lon="20.11968">
        <ele>777.35998535156</ele>
        <time>2023-10-01T08:12:05.000Z</time>
      </trkpt>
      <trkpt lat="42.19378" lon="20.11977">
        <ele>776.88000488281</ele>
        <time>2023-10-01T08:12:04.000Z</time>
      </trkpt>
      <trkpt lat="42.19366" lon="20.11985">
        <ele>776.40002441406</ele>
        <time>2023-10-01T08:12:03.000Z</time>
      </trkpt>
      <trkpt lat="42.19354" lon="20.1199">
        <ele>775.91998291016</ele>
        <time>2023-10-01T08:12:02.000Z</time>
      </trkpt>
      <trkpt lat="42.19344" lon="20.11992">
        <ele>774.96002197266</ele>
        <time>2023-10-01T08:12:01.000Z</time>
      </trkpt>
      <trkpt lat="42.19331" lon="20.11993">
        <ele>774.96002197266</ele>
        <time>2023-10-01T08:12:00.000Z</time>
      </trkpt>
      <trkpt lat="42.19316" lon="20.11997">
        <ele>775.44000244141</ele>
        <time>2023-10-01T08:11:59.000Z</time>
      </trkpt>
      <trkpt lat="42.19304" lon="20.12003">
        <ele>775.91998291016</ele>
        <time>2023-10-01T08:11:58.000Z</time>
      </trkpt>
      <trkpt lat="42.19294" lon="20.12011">
        <ele>776.88000488281</ele>
        <time>2023-10-01T08:11:57.000Z</time>
      </trkpt>
      <trkpt lat="42.19286" lon="20.12019">
        <ele>777.35998535156</ele>
        <time>2023-10-01T08:11:56.000Z</time>
      </trkpt>
      <trkpt lat="42.19259" lon="20.12052">
        <ele>779.77001953125</ele>
        <time>2023-10-01T08:11:53.000Z</time>
      </trkpt>
      <trkpt lat="42.19255" lon="20.12062">
        <ele>780.72998046875</ele>
        <time>2023-10-01T08:11:52.000Z</time>
      </trkpt>
      <trkpt lat="42.19254" lon="20.12075">
        <ele>781.69000244141</ele>
        <time>2023-10-01T08:11:51.000Z</time>
      </trkpt>
      <trkpt lat="42.19256" lon="20.12085">
        <ele>782.16998291016</ele>
        <time>2023-10-01T08:11:50.000Z</time>
      </trkpt>
      <trkpt lat="42.19261" lon="20.12102">
        <ele>783.13000488281</ele>
        <time>2023-10-01T08:11:49.000Z</time>
      </trkpt>
      <trkpt lat="42.19265" lon="20.12117">
        <ele>783.13000488281</ele>
        <time>2023-10-01T08:11:48.000Z</time>
      </trkpt>
      <trkpt lat="42.19268" lon="20.12132">
        <ele>784.09002685547</ele>
        <time>2023-10-01T08:11:47.000Z</time>
      </trkpt>
      <trkpt lat="42.19269" lon="20.12148">
        <ele>784.57000732422</ele>
        <time>2023-10-01T08:11:46.000Z</time>
      </trkpt>
      <trkpt lat="42.19271" lon="20.12182">
        <ele>786.5</ele>
        <time>2023-10-01T08:11:44.000Z</time>
      </trkpt>
      <trkpt lat="42.19271" lon="20.12194">
        <ele>786.5</ele>
        <time>2023-10-01T08:11:43.000Z</time>
      </trkpt>
      <trkpt lat="42.1927" lon="20.12217">
        <ele>786.5</ele>
        <time>2023-10-01T08:11:42.000Z</time>
      </trkpt>
      <trkpt lat="42.19269" lon="20.12233">
        <ele>786.97998046875</ele>
        <time>2023-10-01T08:11:41.000Z</time>
      </trkpt>
      <trkpt lat="42.19268" lon="20.12237">
        <ele>786.97998046875</ele>
        <time>2023-10-01T08:11:40.000Z</time>
      </trkpt>
      <trkpt lat="42.19262" lon="20.12289">
        <ele>788.41998291016</ele>
        <time>2023-10-01T08:11:38.000Z</time>
      </trkpt>
      <trkpt lat="42.19262" lon="20.12307">
        <ele>788.41998291016</ele>
        <time>2023-10-01T08:11:37.000Z</time>
      </trkpt>
      <trkpt lat="42.19263" lon="20.12317">
        <ele>788.90002441406</ele>
        <time>2023-10-01T08:11:36.000Z</time>
      </trkpt>
      <trkpt lat="42.19265" lon="20.12328">
        <ele>789.38000488281</ele>
        <time>2023-10-01T08:11:35.000Z</time>
      </trkpt>
      <trkpt lat="42.1927" lon="20.1236">
        <ele>790.34002685547</ele>
        <time>2023-10-01T08:11:34.000Z</time>
      </trkpt>
      <trkpt lat="42.19272" lon="20.12378">
        <ele>790.82000732422</ele>
        <time>2023-10-01T08:11:33.000Z</time>
      </trkpt>
      <trkpt lat="42.19271" lon="20.12395">
        <ele>791.29998779297</ele>
        <time>2023-10-01T08:11:32.000Z</time>
      </trkpt>
      <trkpt lat="42.19268" lon="20.1241">
        <ele>792.26000976562</ele>
        <time>2023-10-01T08:11:31.000Z</time>
      </trkpt>
      <trkpt lat="42.19252" lon="20.12465">
        <ele>792.73999023438</ele>
        <time>2023-10-01T08:11:27.000Z</time>
      </trkpt>
      <trkpt lat="42.1925" lon="20.12471">
        <ele>792.73999023438</ele>
        <time>2023-10-01T08:11:26.000Z</time>
      </trkpt>
      <trkpt lat="42.19245" lon="20.12487">
        <ele>792.73999023438</ele>
        <time>2023-10-01T08:11:25.000Z</time>
      </trkpt>
      <trkpt lat="42.19243" lon="20.12497">
        <ele>792.73999023438</ele>
        <time>2023-10-01T08:11:24.000Z</time>
      </trkpt>
      <trkpt lat="42.19245" lon="20.12508">
        <ele>793.71002197266</ele>
        <time>2023-10-01T08:11:23.000Z</time>
      </trkpt>
      <trkpt lat="42.1925" lon="20.12518">
        <ele>794.19000244141</ele>
        <time>2023-10-01T08:11:22.000Z</time>
      </trkpt>
      <trkpt lat="42.19253" lon="20.12522">
        <ele>794.19000244141</ele>
        <time>2023-10-01T08:11:21.000Z</time>
      </trkpt>
      <trkpt lat="42.19267" lon="20.12538">
        <ele>794.19000244141</ele>
        <time>2023-10-01T08:11:20.000Z</time>
      </trkpt>
      <trkpt lat="42.19275" lon="20.12547">
        <ele>794.19000244141</ele>
        <time>2023-10-01T08:11:19.000Z</time>
      </trkpt>
      <trkpt lat="42.19288" lon="20.12557">
        <ele>794.19000244141</ele>
        <time>2023-10-01T08:11:18.000Z</time>
      </trkpt>
      <trkpt lat="42.193" lon="20.12564">
        <ele>794.19000244141</ele>
        <time>2023-10-01T08:11:17.000Z</time>
      </trkpt>
      <trkpt lat="42.19311" lon="20.12569">
        <ele>794.19000244141</ele>
        <time>2023-10-01T08:11:16.000Z</time>
      </trkpt>
      <trkpt lat="42.19319" lon="20.12572">
        <ele>794.19000244141</ele>
        <time>2023-10-01T08:11:15.000Z</time>
      </trkpt>
      <trkpt lat="42.19342" lon="20.12578">
        <ele>794.19000244141</ele>
        <time>2023-10-01T08:11:14.000Z</time>
      </trkpt>
      <trkpt lat="42.19353" lon="20.12584">
        <ele>794.19000244141</ele>
        <time>2023-10-01T08:11:13.000Z</time>
      </trkpt>
      <trkpt lat="42.19363" lon="20.12592">
        <ele>794.19000244141</ele>
        <time>2023-10-01T08:11:12.000Z</time>
      </trkpt>
      <trkpt lat="42.19365" lon="20.12594">
        <ele>794.66998291016</ele>
        <time>2023-10-01T08:11:11.000Z</time>
      </trkpt>
      <trkpt lat="42.19388" lon="20.12622">
        <ele>793.21997070312</ele>
        <time>2023-10-01T08:11:09.000Z</time>
      </trkpt>
      <trkpt lat="42.19397" lon="20.12627">
        <ele>793.71002197266</ele>
        <time>2023-10-01T08:11:08.000Z</time>
      </trkpt>
      <trkpt lat="42.19405" lon="20.12627">
        <ele>794.66998291016</ele>
        <time>2023-10-01T08:11:07.000Z</time>
      </trkpt>
      <trkpt lat="42.19414" lon="20.12624">
        <ele>794.66998291016</ele>
        <time>2023-10-01T08:11:06.000Z</time>
      </trkpt>
      <trkpt lat="42.19416" lon="20.12622">
        <ele>794.66998291016</ele>
        <time>2023-10-01T08:11:05.000Z</time>
      </trkpt>
      <trkpt lat="42.19438" lon="20.12608">
        <ele>795.15002441406</ele>
        <time>2023-10-01T08:11:04.000Z</time>
      </trkpt>
      <trkpt lat="42.19451" lon="20.12601">
        <ele>795.15002441406</ele>
        <time>2023-10-01T08:11:03.000Z</time>
      </trkpt>
      <trkpt lat="42.19465" lon="20.12594">
        <ele>795.63000488281</ele>
        <time>2023-10-01T08:11:02.000Z</time>
      </trkpt>
      <trkpt lat="42.19477" lon="20.12586">
        <ele>796.10998535156</ele>
        <time>2023-10-01T08:11:01.000Z</time>
      </trkpt>
      <trkpt lat="42.19487" lon="20.12574">
        <ele>796.59002685547</ele>
        <time>2023-10-01T08:11:00.000Z</time>
      </trkpt>
      <trkpt lat="42.19489" lon="20.12571">
        <ele>797.07000732422</ele>
        <time>2023-10-01T08:10:59.000Z</time>
      </trkpt>
      <trkpt lat="42.19505" lon="20.12546">
        <ele>797.54998779297</ele>
        <time>2023-10-01T08:10:58.000Z</time>
      </trkpt>
      <trkpt lat="42.19516" lon="20.12534">
        <ele>798.03002929688</ele>
        <time>2023-10-01T08:10:57.000Z</time>
      </trkpt>
      <trkpt lat="42.19528" lon="20.12527">
        <ele>798.03002929688</ele>
        <time>2023-10-01T08:10:56.000Z</time>
      </trkpt>
      <trkpt lat="42.1953" lon="20.12525">
        <ele>798.03002929688</ele>
        <time>2023-10-01T08:10:55.000Z</time>
      </trkpt>
      <trkpt lat="42.19568" lon="20.1251">
        <ele>798.51000976562</ele>
        <time>2023-10-01T08:10:53.000Z</time>
      </trkpt>
      <trkpt lat="42.196" lon="20.12495">
        <ele>798.03002929688</ele>
        <time>2023-10-01T08:10:51.000Z</time>
      </trkpt>
      <trkpt lat="42.19615" lon="20.12491">
        <ele>798.51000976562</ele>
        <time>2023-10-01T08:10:50.000Z</time>
      </trkpt>
      <trkpt lat="42.19629" lon="20.1249">
        <ele>798.51000976562</ele>
        <time>2023-10-01T08:10:49.000Z</time>
      </trkpt>
      <trkpt lat="42.19641" lon="20.12492">
        <ele>798.51000976562</ele>
        <time>2023-10-01T08:10:48.000Z</time>
      </trkpt>
      <trkpt lat="42.19646" lon="20.12494">
        <ele>798.51000976562</ele>
        <time>2023-10-01T08:10:47.000Z</time>
      </trkpt>
      <trkpt lat="42.19698" lon="20.12515">
        <ele>798.51000976562</ele>
        <time>2023-10-01T08:10:44.000Z</time>
      </trkpt>
      <trkpt lat="42.19713" lon="20.12523">
        <ele>798.98999023438</ele>
        <time>2023-10-01T08:10:43.000Z</time>
      </trkpt>
      <trkpt lat="42.19725" lon="20.12533">
        <ele>798.98999023438</ele>
        <time>2023-10-01T08:10:42.000Z</time>
      </trkpt>
      <trkpt lat="42.19736" lon="20.12544">
        <ele>798.98999023438</ele>
        <time>2023-10-01T08:10:41.000Z</time>
      </trkpt>
      <trkpt lat="42.19746" lon="20.12555">
        <ele>798.51000976562</ele>
        <time>2023-10-01T08:10:40.000Z</time>
      </trkpt>
      <trkpt lat="42.19755" lon="20.12568">
        <ele>798.03002929688</ele>
        <time>2023-10-01T08:10:39.000Z</time>
      </trkpt>
      <trkpt lat="42.19764" lon="20.12585">
        <ele>798.03002929688</ele>
        <time>2023-10-01T08:10:38.000Z</time>
      </trkpt>
      <trkpt lat="42.19774" lon="20.12599">
        <ele>797.54998779297</ele>
        <time>2023-10-01T08:10:37.000Z</time>
      </trkpt>
      <trkpt lat="42.19786" lon="20.12612">
        <ele>797.54998779297</ele>
        <time>2023-10-01T08:10:36.000Z</time>
      </trkpt>
      <trkpt lat="42.19796" lon="20.12621">
        <ele>797.07000732422</ele>
        <time>2023-10-01T08:10:35.000Z</time>
      </trkpt>
      <trkpt lat="42.19835" lon="20.12647">
        <ele>796.10998535156</ele>
        <time>2023-10-01T08:10:32.000Z</time>
      </trkpt>
      <trkpt lat="42.199" lon="20.12683">
        <ele>794.66998291016</ele>
        <time>2023-10-01T08:10:27.000Z</time>
      </trkpt>
      <trkpt lat="42.19907" lon="20.12686">
        <ele>794.19000244141</ele>
        <time>2023-10-01T08:10:26.000Z</time>
      </trkpt>
      <trkpt lat="42.19913" lon="20.12689">
        <ele>794.19000244141</ele>
        <time>2023-10-01T08:10:25.000Z</time>
      </trkpt>
      <trkpt lat="42.19918" lon="20.12694">
        <ele>794.19000244141</ele>
        <time>2023-10-01T08:10:24.000Z</time>
      </trkpt>
      <trkpt lat="42.19921" lon="20.127">
        <ele>794.19000244141</ele>
        <time>2023-10-01T08:10:23.000Z</time>
      </trkpt>
      <trkpt lat="42.19922" lon="20.12704">
        <ele>794.19000244141</ele>
        <time>2023-10-01T08:10:22.000Z</time>
      </trkpt>
      <trkpt lat="42.19924" lon="20.12711">
        <ele>794.19000244141</ele>
        <time>2023-10-01T08:10:21.000Z</time>
      </trkpt>
      <trkpt lat="42.19925" lon="20.12714">
        <ele>793.71002197266</ele>
        <time>2023-10-01T08:10:20.000Z</time>
      </trkpt>
      <trkpt lat="42.19926" lon="20.12722">
        <ele>793.71002197266</ele>
        <time>2023-10-01T08:10:19.000Z</time>
      </trkpt>
      <trkpt lat="42.19928" lon="20.12732">
        <ele>793.71002197266</ele>
        <time>2023-10-01T08:10:18.000Z</time>
      </trkpt>
      <trkpt lat="42.1993" lon="20.1274">
        <ele>793.71002197266</ele>
        <time>2023-10-01T08:10:17.000Z</time>
      </trkpt>
      <trkpt lat="42.19931" lon="20.12745">
        <ele>793.71002197266</ele>
        <time>2023-10-01T08:10:16.000Z</time>
      </trkpt>
      <trkpt lat="42.19932" lon="20.12749">
        <ele>793.71002197266</ele>
        <time>2023-10-01T08:10:15.000Z</time>
      </trkpt>
      <trkpt lat="42.19935" lon="20.12756">
        <ele>793.71002197266</ele>
        <time>2023-10-01T08:10:14.000Z</time>
      </trkpt>
      <trkpt lat="42.19937" lon="20.12763">
        <ele>793.71002197266</ele>
        <time>2023-10-01T08:10:13.000Z</time>
      </trkpt>
      <trkpt lat="42.1994" lon="20.1277">
        <ele>793.71002197266</ele>
        <time>2023-10-01T08:10:12.000Z</time>
      </trkpt>
      <trkpt lat="42.19945" lon="20.12787">
        <ele>793.71002197266</ele>
        <time>2023-10-01T08:10:10.000Z</time>
      </trkpt>
      <trkpt lat="42.19946" lon="20.12793">
        <ele>793.71002197266</ele>
        <time>2023-10-01T08:10:09.000Z</time>
      </trkpt>
      <trkpt lat="42.19946" lon="20.128">
        <ele>793.71002197266</ele>
        <time>2023-10-01T08:10:08.000Z</time>
      </trkpt>
      <trkpt lat="42.19946" lon="20.12809">
        <ele>793.71002197266</ele>
        <time>2023-10-01T08:10:07.000Z</time>
      </trkpt>
      <trkpt lat="42.19944" lon="20.12822">
        <ele>793.71002197266</ele>
        <time>2023-10-01T08:10:06.000Z</time>
      </trkpt>
      <trkpt lat="42.19938" lon="20.12836">
        <ele>794.19000244141</ele>
        <time>2023-10-01T08:10:05.000Z</time>
      </trkpt>
      <trkpt lat="42.19929" lon="20.12853">
        <ele>794.19000244141</ele>
        <time>2023-10-01T08:10:04.000Z</time>
      </trkpt>
      <trkpt lat="42.19922" lon="20.12866">
        <ele>794.66998291016</ele>
        <time>2023-10-01T08:10:03.000Z</time>
      </trkpt>
      <trkpt lat="42.19911" lon="20.12882">
        <ele>794.66998291016</ele>
        <time>2023-10-01T08:10:02.000Z</time>
      </trkpt>
      <trkpt lat="42.19902" lon="20.12897">
        <ele>795.15002441406</ele>
        <time>2023-10-01T08:10:01.000Z</time>
      </trkpt>
      <trkpt lat="42.19895" lon="20.12914">
        <ele>795.63000488281</ele>
        <time>2023-10-01T08:10:00.000Z</time>
      </trkpt>
      <trkpt lat="42.1989" lon="20.12932">
        <ele>796.10998535156</ele>
        <time>2023-10-01T08:09:59.000Z</time>
      </trkpt>
      <trkpt lat="42.19887" lon="20.12951">
        <ele>796.10998535156</ele>
        <time>2023-10-01T08:09:58.000Z</time>
      </trkpt>
      <trkpt lat="42.19886" lon="20.1297">
        <ele>796.10998535156</ele>
        <time>2023-10-01T08:09:57.000Z</time>
      </trkpt>
      <trkpt lat="42.19886" lon="20.12981">
        <ele>796.10998535156</ele>
        <time>2023-10-01T08:09:56.000Z</time>
      </trkpt>
      <trkpt lat="42.19889" lon="20.13006">
        <ele>796.59002685547</ele>
        <time>2023-10-01T08:09:55.000Z</time>
      </trkpt>
      <trkpt lat="42.19887" lon="20.13021">
        <ele>797.07000732422</ele>
        <time>2023-10-01T08:09:54.000Z</time>
      </trkpt>
      <trkpt lat="42.19883" lon="20.13035">
        <ele>797.07000732422</ele>
        <time>2023-10-01T08:09:53.000Z</time>
      </trkpt>
      <trkpt lat="42.19876" lon="20.13048">
        <ele>797.54998779297</ele>
        <time>2023-10-01T08:09:52.000Z</time>
      </trkpt>
      <trkpt lat="42.19866" lon="20.1306">
        <ele>798.03002929688</ele>
        <time>2023-10-01T08:09:51.000Z</time>
      </trkpt>
      <trkpt lat="42.19864" lon="20.13062">
        <ele>798.03002929688</ele>
        <time>2023-10-01T08:09:50.000Z</time>
      </trkpt>
      <trkpt lat="42.1985" lon="20.13074">
        <ele>798.51000976562</ele>
        <time>2023-10-01T08:09:49.000Z</time>
      </trkpt>
      <trkpt lat="42.19832" lon="20.13091">
        <ele>799.46997070312</ele>
        <time>2023-10-01T08:09:48.000Z</time>
      </trkpt>
      <trkpt lat="42.19821" lon="20.13103">
        <ele>799.95001220703</ele>
        <time>2023-10-01T08:09:47.000Z</time>
      </trkpt>
      <trkpt lat="42.19814" lon="20.13116">
        <ele>799.95001220703</ele>
        <time>2023-10-01T08:09:46.000Z</time>
      </trkpt>
      <trkpt lat="42.1981" lon="20.13129">
        <ele>800.44000244141</ele>
        <time>2023-10-01T08:09:45.000Z</time>
      </trkpt>
      <trkpt lat="42.1981" lon="20.13143">
        <ele>800.91998291016</ele>
        <time>2023-10-01T08:09:44.000Z</time>
      </trkpt>
      <trkpt lat="42.19814" lon="20.13158">
        <ele>800.91998291016</ele>
        <time>2023-10-01T08:09:43.000Z</time>
      </trkpt>
      <trkpt lat="42.19818" lon="20.13167">
        <ele>801.40002441406</ele>
        <time>2023-10-01T08:09:42.000Z</time>
      </trkpt>
      <trkpt lat="42.19828" lon="20.13187">
        <ele>801.88000488281</ele>
        <time>2023-10-01T08:09:41.000Z</time>
      </trkpt>
      <trkpt lat="42.19838" lon="20.1321">
        <ele>802.35998535156</ele>
        <time>2023-10-01T08:09:40.000Z</time>
      </trkpt>
      <trkpt lat="42.19847" lon="20.13228">
        <ele>802.35998535156</ele>
        <time>2023-10-01T08:09:39.000Z</time>
      </trkpt>
      <trkpt lat="42.19849" lon="20.13231">
        <ele>802.35998535156</ele>
        <time>2023-10-01T08:09:38.000Z</time>
      </trkpt>
      <trkpt lat="42.1987" lon="20.13262">
        <ele>801.88000488281</ele>
        <time>2023-10-01T08:09:37.000Z</time>
      </trkpt>
      <trkpt lat="42.19881" lon="20.13286">
        <ele>801.88000488281</ele>
        <time>2023-10-01T08:09:36.000Z</time>
      </trkpt>
      <trkpt lat="42.19891" lon="20.1331">
        <ele>801.88000488281</ele>
        <time>2023-10-01T08:09:35.000Z</time>
      </trkpt>
      <trkpt lat="42.19898" lon="20.13333">
        <ele>801.88000488281</ele>
        <time>2023-10-01T08:09:34.000Z</time>
      </trkpt>
      <trkpt lat="42.19904" lon="20.13353">
        <ele>802.35998535156</ele>
        <time>2023-10-01T08:09:33.000Z</time>
      </trkpt>
      <trkpt lat="42.19909" lon="20.13375">
        <ele>802.35998535156</ele>
        <time>2023-10-01T08:09:32.000Z</time>
      </trkpt>
      <trkpt lat="42.19912" lon="20.13392">
        <ele>802.35998535156</ele>
        <time>2023-10-01T08:09:31.000Z</time>
      </trkpt>
      <trkpt lat="42.19911" lon="20.13408">
        <ele>801.88000488281</ele>
        <time>2023-10-01T08:09:30.000Z</time>
      </trkpt>
      <trkpt lat="42.19907" lon="20.13423">
        <ele>801.40002441406</ele>
        <time>2023-10-01T08:09:29.000Z</time>
      </trkpt>
      <trkpt lat="42.19902" lon="20.13436">
        <ele>801.40002441406</ele>
        <time>2023-10-01T08:09:28.000Z</time>
      </trkpt>
      <trkpt lat="42.19897" lon="20.13453">
        <ele>801.88000488281</ele>
        <time>2023-10-01T08:09:27.000Z</time>
      </trkpt>
      <trkpt lat="42.19896" lon="20.1347">
        <ele>801.88000488281</ele>
        <time>2023-10-01T08:09:26.000Z</time>
      </trkpt>
      <trkpt lat="42.19899" lon="20.13487">
        <ele>802.35998535156</ele>
        <time>2023-10-01T08:09:25.000Z</time>
      </trkpt>
      <trkpt lat="42.19904" lon="20.135">
        <ele>802.35998535156</ele>
        <time>2023-10-01T08:09:24.000Z</time>
      </trkpt>
      <trkpt lat="42.19914" lon="20.13522">
        <ele>802.35998535156</ele>
        <time>2023-10-01T08:09:23.000Z</time>
      </trkpt>
      <trkpt lat="42.19918" lon="20.13534">
        <ele>802.84002685547</ele>
        <time>2023-10-01T08:09:22.000Z</time>
      </trkpt>
      <trkpt lat="42.19942" lon="20.13633">
        <ele>803.32000732422</ele>
        <time>2023-10-01T08:09:18.000Z</time>
      </trkpt>
      <trkpt lat="42.19948" lon="20.13648">
        <ele>803.32000732422</ele>
        <time>2023-10-01T08:09:17.000Z</time>
      </trkpt>
      <trkpt lat="42.19958" lon="20.1366">
        <ele>803.32000732422</ele>
        <time>2023-10-01T08:09:16.000Z</time>
      </trkpt>
      <trkpt lat="42.19968" lon="20.13666">
        <ele>803.32000732422</ele>
        <time>2023-10-01T08:09:15.000Z</time>
      </trkpt>
      <trkpt lat="42.19982" lon="20.13674">
        <ele>803.32000732422</ele>
        <time>2023-10-01T08:09:14.000Z</time>
      </trkpt>
      <trkpt lat="42.19993" lon="20.13683">
        <ele>802.84002685547</ele>
        <time>2023-10-01T08:09:13.000Z</time>
      </trkpt>
      <trkpt lat="42.20001" lon="20.13694">
        <ele>802.84002685547</ele>
        <time>2023-10-01T08:09:12.000Z</time>
      </trkpt>
      <trkpt lat="42.20007" lon="20.13709">
        <ele>802.84002685547</ele>
        <time>2023-10-01T08:09:11.000Z</time>
      </trkpt>
      <trkpt lat="42.2001" lon="20.13724">
        <ele>802.84002685547</ele>
        <time>2023-10-01T08:09:10.000Z</time>
      </trkpt>
      <trkpt lat="42.2001" lon="20.1374">
        <ele>802.84002685547</ele>
        <time>2023-10-01T08:09:09.000Z</time>
      </trkpt>
      <trkpt lat="42.20009" lon="20.13758">
        <ele>802.84002685547</ele>
        <time>2023-10-01T08:09:08.000Z</time>
      </trkpt>
      <trkpt lat="42.20007" lon="20.13782">
        <ele>803.32000732422</ele>
        <time>2023-10-01T08:09:07.000Z</time>
      </trkpt>
      <trkpt lat="42.20008" lon="20.13801">
        <ele>803.79998779297</ele>
        <time>2023-10-01T08:09:06.000Z</time>
      </trkpt>
      <trkpt lat="42.20012" lon="20.13818">
        <ele>803.79998779297</ele>
        <time>2023-10-01T08:09:05.000Z</time>
      </trkpt>
      <trkpt lat="42.20019" lon="20.13833">
        <ele>803.32000732422</ele>
        <time>2023-10-01T08:09:04.000Z</time>
      </trkpt>
      <trkpt lat="42.20026" lon="20.13847">
        <ele>802.84002685547</ele>
        <time>2023-10-01T08:09:03.000Z</time>
      </trkpt>
      <trkpt lat="42.2003" lon="20.13859">
        <ele>802.35998535156</ele>
        <time>2023-10-01T08:09:02.000Z</time>
      </trkpt>
      <trkpt lat="42.20031" lon="20.13872">
        <ele>801.40002441406</ele>
        <time>2023-10-01T08:09:01.000Z</time>
      </trkpt>
      <trkpt lat="42.20028" lon="20.13885">
        <ele>801.40002441406</ele>
        <time>2023-10-01T08:09:00.000Z</time>
      </trkpt>
      <trkpt lat="42.20021" lon="20.13899">
        <ele>800.91998291016</ele>
        <time>2023-10-01T08:08:59.000Z</time>
      </trkpt>
      <trkpt lat="42.20003" lon="20.13928">
        <ele>799.95001220703</ele>
        <time>2023-10-01T08:08:57.000Z</time>
      </trkpt>
      <trkpt lat="42.19992" lon="20.13947">
        <ele>799.46997070312</ele>
        <time>2023-10-01T08:08:56.000Z</time>
      </trkpt>
      <trkpt lat="42.19988" lon="20.13958">
        <ele>798.98999023438</ele>
        <time>2023-10-01T08:08:55.000Z</time>
      </trkpt>
      <trkpt lat="42.19964" lon="20.14017">
        <ele>798.98999023438</ele>
        <time>2023-10-01T08:08:53.000Z</time>
      </trkpt>
      <trkpt lat="42.19958" lon="20.14033">
        <ele>798.98999023438</ele>
        <time>2023-10-01T08:08:52.000Z</time>
      </trkpt>
      <trkpt lat="42.19953" lon="20.14054">
        <ele>798.98999023438</ele>
        <time>2023-10-01T08:08:51.000Z</time>
      </trkpt>
      <trkpt lat="42.19949" lon="20.1408">
        <ele>798.03002929688</ele>
        <time>2023-10-01T08:08:50.000Z</time>
      </trkpt>
      <trkpt lat="42.19946" lon="20.14095">
        <ele>797.54998779297</ele>
        <time>2023-10-01T08:08:49.000Z</time>
      </trkpt>
      <trkpt lat="42.19937" lon="20.14118">
        <ele>797.07000732422</ele>
        <time>2023-10-01T08:08:48.000Z</time>
      </trkpt>
      <trkpt lat="42.19928" lon="20.14136">
        <ele>797.07000732422</ele>
        <time>2023-10-01T08:08:47.000Z</time>
      </trkpt>
      <trkpt lat="42.19919" lon="20.14151">
        <ele>797.07000732422</ele>
        <time>2023-10-01T08:08:46.000Z</time>
      </trkpt>
      <trkpt lat="42.19909" lon="20.14162">
        <ele>797.07000732422</ele>
        <time>2023-10-01T08:08:45.000Z</time>
      </trkpt>
      <trkpt lat="42.19896" lon="20.14171">
        <ele>796.59002685547</ele>
        <time>2023-10-01T08:08:44.000Z</time>
      </trkpt>
      <trkpt lat="42.19883" lon="20.14178">
        <ele>796.59002685547</ele>
        <time>2023-10-01T08:08:43.000Z</time>
      </trkpt>
      <trkpt lat="42.19871" lon="20.14182">
        <ele>796.10998535156</ele>
        <time>2023-10-01T08:08:42.000Z</time>
      </trkpt>
      <trkpt lat="42.19858" lon="20.14181">
        <ele>796.10998535156</ele>
        <time>2023-10-01T08:08:41.000Z</time>
      </trkpt>
      <trkpt lat="42.19846" lon="20.14176">
        <ele>795.63000488281</ele>
        <time>2023-10-01T08:08:40.000Z</time>
      </trkpt>
      <trkpt lat="42.19838" lon="20.14171">
        <ele>795.15002441406</ele>
        <time>2023-10-01T08:08:39.000Z</time>
      </trkpt>
      <trkpt lat="42.19832" lon="20.1416">
        <ele>795.15002441406</ele>
        <time>2023-10-01T08:08:38.000Z</time>
      </trkpt>
      <trkpt lat="42.19826" lon="20.14144">
        <ele>795.15002441406</ele>
        <time>2023-10-01T08:08:37.000Z</time>
      </trkpt>
      <trkpt lat="42.19824" lon="20.14131">
        <ele>795.15002441406</ele>
        <time>2023-10-01T08:08:36.000Z</time>
      </trkpt>
      <trkpt lat="42.1982" lon="20.14101">
        <ele>794.66998291016</ele>
        <time>2023-10-01T08:08:35.000Z</time>
      </trkpt>
      <trkpt lat="42.19814" lon="20.14076">
        <ele>794.66998291016</ele>
        <time>2023-10-01T08:08:34.000Z</time>
      </trkpt>
      <trkpt lat="42.19809" lon="20.1406">
        <ele>794.19000244141</ele>
        <time>2023-10-01T08:08:33.000Z</time>
      </trkpt>
      <trkpt lat="42.19803" lon="20.14048">
        <ele>794.19000244141</ele>
        <time>2023-10-01T08:08:32.000Z</time>
      </trkpt>
      <trkpt lat="42.19784" lon="20.14009">
        <ele>793.71002197266</ele>
        <time>2023-10-01T08:08:30.000Z</time>
      </trkpt>
      <trkpt lat="42.19778" lon="20.13999">
        <ele>794.19000244141</ele>
        <time>2023-10-01T08:08:29.000Z</time>
      </trkpt>
      <trkpt lat="42.19773" lon="20.13994">
        <ele>793.71002197266</ele>
        <time>2023-10-01T08:08:28.000Z</time>
      </trkpt>
      <trkpt lat="42.19767" lon="20.13992">
        <ele>793.71002197266</ele>
        <time>2023-10-01T08:08:27.000Z</time>
      </trkpt>
      <trkpt lat="42.1976" lon="20.13995">
        <ele>793.21997070312</ele>
        <time>2023-10-01T08:08:26.000Z</time>
      </trkpt>
      <trkpt lat="42.19754" lon="20.14004">
        <ele>793.21997070312</ele>
        <time>2023-10-01T08:08:25.000Z</time>
      </trkpt>
      <trkpt lat="42.1975" lon="20.14017">
        <ele>792.73999023438</ele>
        <time>2023-10-01T08:08:24.000Z</time>
      </trkpt>
      <trkpt lat="42.19748" lon="20.14034">
        <ele>791.78002929688</ele>
        <time>2023-10-01T08:08:23.000Z</time>
      </trkpt>
      <trkpt lat="42.19748" lon="20.14041">
        <ele>791.78002929688</ele>
        <time>2023-10-01T08:08:22.000Z</time>
      </trkpt>
      <trkpt lat="42.19749" lon="20.14067">
        <ele>791.29998779297</ele>
        <time>2023-10-01T08:08:21.000Z</time>
      </trkpt>
      <trkpt lat="42.19748" lon="20.14081">
        <ele>791.29998779297</ele>
        <time>2023-10-01T08:08:20.000Z</time>
      </trkpt>
      <trkpt lat="42.19745" lon="20.14093">
        <ele>790.82000732422</ele>
        <time>2023-10-01T08:08:19.000Z</time>
      </trkpt>
      <trkpt lat="42.1974" lon="20.14102">
        <ele>790.82000732422</ele>
        <time>2023-10-01T08:08:18.000Z</time>
      </trkpt>
      <trkpt lat="42.1973" lon="20.14121">
        <ele>790.82000732422</ele>
        <time>2023-10-01T08:08:17.000Z</time>
      </trkpt>
      <trkpt lat="42.19718" lon="20.14146">
        <ele>790.82000732422</ele>
        <time>2023-10-01T08:08:16.000Z</time>
      </trkpt>
      <trkpt lat="42.19709" lon="20.14161">
        <ele>790.34002685547</ele>
        <time>2023-10-01T08:08:15.000Z</time>
      </trkpt>
      <trkpt lat="42.19698" lon="20.14177">
        <ele>789.85998535156</ele>
        <time>2023-10-01T08:08:14.000Z</time>
      </trkpt>
      <trkpt lat="42.19691" lon="20.14191">
        <ele>790.34002685547</ele>
        <time>2023-10-01T08:08:13.000Z</time>
      </trkpt>
      <trkpt lat="42.19688" lon="20.14196">
        <ele>790.34002685547</ele>
        <time>2023-10-01T08:08:12.000Z</time>
      </trkpt>
      <trkpt lat="42.19672" lon="20.14234">
        <ele>790.34002685547</ele>
        <time>2023-10-01T08:08:11.000Z</time>
      </trkpt>
      <trkpt lat="42.19664" lon="20.14251">
        <ele>790.34002685547</ele>
        <time>2023-10-01T08:08:10.000Z</time>
      </trkpt>
      <trkpt lat="42.19644" lon="20.14287">
        <ele>791.29998779297</ele>
        <time>2023-10-01T08:08:08.000Z</time>
      </trkpt>
      <trkpt lat="42.19636" lon="20.14304">
        <ele>793.21997070312</ele>
        <time>2023-10-01T08:08:07.000Z</time>
      </trkpt>
      <trkpt lat="42.1963" lon="20.14325">
        <ele>793.71002197266</ele>
        <time>2023-10-01T08:08:06.000Z</time>
      </trkpt>
      <trkpt lat="42.19627" lon="20.14345">
        <ele>793.71002197266</ele>
        <time>2023-10-01T08:08:05.000Z</time>
      </trkpt>
      <trkpt lat="42.19625" lon="20.14365">
        <ele>794.19000244141</ele>
        <time>2023-10-01T08:08:04.000Z</time>
      </trkpt>
      <trkpt lat="42.19626" lon="20.14386">
        <ele>794.19000244141</ele>
        <time>2023-10-01T08:08:03.000Z</time>
      </trkpt>
      <trkpt lat="42.19626" lon="20.14395">
        <ele>794.19000244141</ele>
        <time>2023-10-01T08:08:02.000Z</time>
      </trkpt>
      <trkpt lat="42.19628" lon="20.14419">
        <ele>794.66998291016</ele>
        <time>2023-10-01T08:08:01.000Z</time>
      </trkpt>
      <trkpt lat="42.19627" lon="20.14432">
        <ele>794.66998291016</ele>
        <time>2023-10-01T08:08:00.000Z</time>
      </trkpt>
      <trkpt lat="42.19622" lon="20.14442">
        <ele>794.66998291016</ele>
        <time>2023-10-01T08:07:59.000Z</time>
      </trkpt>
      <trkpt lat="42.19615" lon="20.1445">
        <ele>794.66998291016</ele>
        <time>2023-10-01T08:07:58.000Z</time>
      </trkpt>
      <trkpt lat="42.19603" lon="20.14459">
        <ele>795.15002441406</ele>
        <time>2023-10-01T08:07:57.000Z</time>
      </trkpt>
      <trkpt lat="42.19591" lon="20.14469">
        <ele>795.15002441406</ele>
        <time>2023-10-01T08:07:56.000Z</time>
      </trkpt>
      <trkpt lat="42.19581" lon="20.14479">
        <ele>795.63000488281</ele>
        <time>2023-10-01T08:07:55.000Z</time>
      </trkpt>
      <trkpt lat="42.19572" lon="20.14489">
        <ele>796.10998535156</ele>
        <time>2023-10-01T08:07:54.000Z</time>
      </trkpt>
      <trkpt lat="42.19569" lon="20.14493">
        <ele>796.10998535156</ele>
        <time>2023-10-01T08:07:53.000Z</time>
      </trkpt>
      <trkpt lat="42.19554" lon="20.14512">
        <ele>796.59002685547</ele>
        <time>2023-10-01T08:07:52.000Z</time>
      </trkpt>
      <trkpt lat="42.19547" lon="20.14519">
        <ele>796.59002685547</ele>
        <time>2023-10-01T08:07:51.000Z</time>
      </trkpt>
      <trkpt lat="42.1954" lon="20.14527">
        <ele>796.59002685547</ele>
        <time>2023-10-01T08:07:50.000Z</time>
      </trkpt>
      <trkpt lat="42.19536" lon="20.14536">
        <ele>797.07000732422</ele>
        <time>2023-10-01T08:07:49.000Z</time>
      </trkpt>
      <trkpt lat="42.19533" lon="20.14544">
        <ele>797.07000732422</ele>
        <time>2023-10-01T08:07:48.000Z</time>
      </trkpt>
      <trkpt lat="42.19531" lon="20.14556">
        <ele>797.07000732422</ele>
        <time>2023-10-01T08:07:47.000Z</time>
      </trkpt>
      <trkpt lat="42.19528" lon="20.14566">
        <ele>797.07000732422</ele>
        <time>2023-10-01T08:07:46.000Z</time>
      </trkpt>
      <trkpt lat="42.19524" lon="20.14574">
        <ele>797.07000732422</ele>
        <time>2023-10-01T08:07:45.000Z</time>
      </trkpt>
      <trkpt lat="42.19522" lon="20.14578">
        <ele>797.07000732422</ele>
        <time>2023-10-01T08:07:44.000Z</time>
      </trkpt>
      <trkpt lat="42.19514" lon="20.14588">
        <ele>796.59002685547</ele>
        <time>2023-10-01T08:07:43.000Z</time>
      </trkpt>
      <trkpt lat="42.19505" lon="20.14599">
        <ele>795.63000488281</ele>
        <time>2023-10-01T08:07:42.000Z</time>
      </trkpt>
      <trkpt lat="42.19499" lon="20.14606">
        <ele>795.63000488281</ele>
        <time>2023-10-01T08:07:41.000Z</time>
      </trkpt>
      <trkpt lat="42.19485" lon="20.14615">
        <ele>795.15002441406</ele>
        <time>2023-10-01T08:07:40.000Z</time>
      </trkpt>
      <trkpt lat="42.19481" lon="20.14617">
        <ele>795.15002441406</ele>
        <time>2023-10-01T08:07:39.000Z</time>
      </trkpt>
      <trkpt lat="42.19463" lon="20.14625">
        <ele>794.19000244141</ele>
        <time>2023-10-01T08:07:38.000Z</time>
      </trkpt>
      <trkpt lat="42.19449" lon="20.14633">
        <ele>793.71002197266</ele>
        <time>2023-10-01T08:07:37.000Z</time>
      </trkpt>
      <trkpt lat="42.1944" lon="20.14644">
        <ele>793.21997070312</ele>
        <time>2023-10-01T08:07:36.000Z</time>
      </trkpt>
      <trkpt lat="42.19435" lon="20.14657">
        <ele>793.21997070312</ele>
        <time>2023-10-01T08:07:35.000Z</time>
      </trkpt>
      <trkpt lat="42.19433" lon="20.14666">
        <ele>793.21997070312</ele>
        <time>2023-10-01T08:07:34.000Z</time>
      </trkpt>
      <trkpt lat="42.19431" lon="20.14688">
        <ele>792.73999023438</ele>
        <time>2023-10-01T08:07:33.000Z</time>
      </trkpt>
      <trkpt lat="42.19427" lon="20.14702">
        <ele>792.26000976562</ele>
        <time>2023-10-01T08:07:32.000Z</time>
      </trkpt>
      <trkpt lat="42.19421" lon="20.14714">
        <ele>791.29998779297</ele>
        <time>2023-10-01T08:07:31.000Z</time>
      </trkpt>
      <trkpt lat="42.1941" lon="20.14725">
        <ele>790.82000732422</ele>
        <time>2023-10-01T08:07:30.000Z</time>
      </trkpt>
      <trkpt lat="42.19401" lon="20.14736">
        <ele>790.34002685547</ele>
        <time>2023-10-01T08:07:29.000Z</time>
      </trkpt>
      <trkpt lat="42.19388" lon="20.14752">
        <ele>790.34002685547</ele>
        <time>2023-10-01T08:07:28.000Z</time>
      </trkpt>
      <trkpt lat="42.19376" lon="20.14767">
        <ele>789.85998535156</ele>
        <time>2023-10-01T08:07:27.000Z</time>
      </trkpt>
      <trkpt lat="42.19364" lon="20.14779">
        <ele>789.38000488281</ele>
        <time>2023-10-01T08:07:26.000Z</time>
      </trkpt>
      <trkpt lat="42.19351" lon="20.14787">
        <ele>789.38000488281</ele>
        <time>2023-10-01T08:07:25.000Z</time>
      </trkpt>
      <trkpt lat="42.19336" lon="20.14792">
        <ele>789.38000488281</ele>
        <time>2023-10-01T08:07:24.000Z</time>
      </trkpt>
      <trkpt lat="42.19324" lon="20.14793">
        <ele>789.38000488281</ele>
        <time>2023-10-01T08:07:23.000Z</time>
      </trkpt>
      <trkpt lat="42.19311" lon="20.1479">
        <ele>789.38000488281</ele>
        <time>2023-10-01T08:07:22.000Z</time>
      </trkpt>
      <trkpt lat="42.19303" lon="20.14786">
        <ele>789.38000488281</ele>
        <time>2023-10-01T08:07:21.000Z</time>
      </trkpt>
      <trkpt lat="42.19284" lon="20.14774">
        <ele>788.90002441406</ele>
        <time>2023-10-01T08:07:20.000Z</time>
      </trkpt>
      <trkpt lat="42.1927" lon="20.14768">
        <ele>789.38000488281</ele>
        <time>2023-10-01T08:07:19.000Z</time>
      </trkpt>
      <trkpt lat="42.19256" lon="20.14767">
        <ele>789.38000488281</ele>
        <time>2023-10-01T08:07:18.000Z</time>
      </trkpt>
      <trkpt lat="42.19241" lon="20.14771">
        <ele>789.85998535156</ele>
        <time>2023-10-01T08:07:17.000Z</time>
      </trkpt>
      <trkpt lat="42.19232" lon="20.14776">
        <ele>790.34002685547</ele>
        <time>2023-10-01T08:07:16.000Z</time>
      </trkpt>
      <trkpt lat="42.19212" lon="20.1479">
        <ele>791.78002929688</ele>
        <time>2023-10-01T08:07:15.000Z</time>
      </trkpt>
      <trkpt lat="42.19197" lon="20.14798">
        <ele>792.26000976562</ele>
        <time>2023-10-01T08:07:14.000Z</time>
      </trkpt>
      <trkpt lat="42.19182" lon="20.14802">
        <ele>793.21997070312</ele>
        <time>2023-10-01T08:07:13.000Z</time>
      </trkpt>
      <trkpt lat="42.19169" lon="20.14802">
        <ele>794.19000244141</ele>
        <time>2023-10-01T08:07:12.000Z</time>
      </trkpt>
      <trkpt lat="42.19157" lon="20.14797">
        <ele>795.15002441406</ele>
        <time>2023-10-01T08:07:11.000Z</time>
      </trkpt>
      <trkpt lat="42.19145" lon="20.14788">
        <ele>796.10998535156</ele>
        <time>2023-10-01T08:07:10.000Z</time>
      </trkpt>
      <trkpt lat="42.19135" lon="20.14775">
        <ele>796.59002685547</ele>
        <time>2023-10-01T08:07:09.000Z</time>
      </trkpt>
      <trkpt lat="42.19126" lon="20.1476">
        <ele>797.54998779297</ele>
        <time>2023-10-01T08:07:08.000Z</time>
      </trkpt>
      <trkpt lat="42.1912" lon="20.14747">
        <ele>798.03002929688</ele>
        <time>2023-10-01T08:07:07.000Z</time>
      </trkpt>
      <trkpt lat="42.19105" lon="20.14703">
        <ele>800.44000244141</ele>
        <time>2023-10-01T08:07:05.000Z</time>
      </trkpt>
      <trkpt lat="42.19094" lon="20.1467">
        <ele>800.91998291016</ele>
        <time>2023-10-01T08:07:04.000Z</time>
      </trkpt>
      <trkpt lat="42.19088" lon="20.14649">
        <ele>801.88000488281</ele>
        <time>2023-10-01T08:07:03.000Z</time>
      </trkpt>
      <trkpt lat="42.19086" lon="20.14642">
        <ele>802.35998535156</ele>
        <time>2023-10-01T08:07:02.000Z</time>
      </trkpt>
      <trkpt lat="42.19076" lon="20.14589">
        <ele>802.84002685547</ele>
        <time>2023-10-01T08:07:00.000Z</time>
      </trkpt>
      <trkpt lat="42.19072" lon="20.1457">
        <ele>803.32000732422</ele>
        <time>2023-10-01T08:06:59.000Z</time>
      </trkpt>
      <trkpt lat="42.19067" lon="20.1456">
        <ele>803.32000732422</ele>
        <time>2023-10-01T08:06:58.000Z</time>
      </trkpt>
      <trkpt lat="42.19055" lon="20.14551">
        <ele>803.79998779297</ele>
        <time>2023-10-01T08:06:57.000Z</time>
      </trkpt>
      <trkpt lat="42.19044" lon="20.14547">
        <ele>804.28002929688</ele>
        <time>2023-10-01T08:06:56.000Z</time>
      </trkpt>
      <trkpt lat="42.19034" lon="20.14541">
        <ele>804.28002929688</ele>
        <time>2023-10-01T08:06:55.000Z</time>
      </trkpt>
      <trkpt lat="42.19026" lon="20.14531">
        <ele>805.23999023438</ele>
        <time>2023-10-01T08:06:54.000Z</time>
      </trkpt>
      <trkpt lat="42.19021" lon="20.1452">
        <ele>805.71997070312</ele>
        <time>2023-10-01T08:06:53.000Z</time>
      </trkpt>
      <trkpt lat="42.1902" lon="20.14507">
        <ele>806.20001220703</ele>
        <time>2023-10-01T08:06:52.000Z</time>
      </trkpt>
      <trkpt lat="42.19023" lon="20.14495">
        <ele>806.67999267578</ele>
        <time>2023-10-01T08:06:51.000Z</time>
      </trkpt>
      <trkpt lat="42.19026" lon="20.14486">
        <ele>806.67999267578</ele>
        <time>2023-10-01T08:06:50.000Z</time>
      </trkpt>
      <trkpt lat="42.19049" lon="20.1443">
        <ele>808.13000488281</ele>
        <time>2023-10-01T08:06:47.000Z</time>
      </trkpt>
      <trkpt lat="42.19053" lon="20.14413">
        <ele>808.13000488281</ele>
        <time>2023-10-01T08:06:46.000Z</time>
      </trkpt>
      <trkpt lat="42.19053" lon="20.14399">
        <ele>809.09002685547</ele>
        <time>2023-10-01T08:06:45.000Z</time>
      </trkpt>
      <trkpt lat="42.19048" lon="20.14388">
        <ele>809.57000732422</ele>
        <time>2023-10-01T08:06:44.000Z</time>
      </trkpt>
      <trkpt lat="42.19041" lon="20.1438">
        <ele>810.04998779297</ele>
        <time>2023-10-01T08:06:43.000Z</time>
      </trkpt>
      <trkpt lat="42.19033" lon="20.14375">
        <ele>810.53002929688</ele>
        <time>2023-10-01T08:06:42.000Z</time>
      </trkpt>
      <trkpt lat="42.19025" lon="20.14372">
        <ele>811.01000976562</ele>
        <time>2023-10-01T08:06:41.000Z</time>
      </trkpt>
      <trkpt lat="42.1899" lon="20.14362">
        <ele>811.96997070312</ele>
        <time>2023-10-01T08:06:39.000Z</time>
      </trkpt>
      <trkpt lat="42.18976" lon="20.14357">
        <ele>812.45001220703</ele>
        <time>2023-10-01T08:06:38.000Z</time>
      </trkpt>
      <trkpt lat="42.18966" lon="20.14349">
        <ele>812.45001220703</ele>
        <time>2023-10-01T08:06:37.000Z</time>
      </trkpt>
      <trkpt lat="42.18959" lon="20.14338">
        <ele>812.92999267578</ele>
        <time>2023-10-01T08:06:36.000Z</time>
      </trkpt>
      <trkpt lat="42.18952" lon="20.14321">
        <ele>813.40997314453</ele>
        <time>2023-10-01T08:06:35.000Z</time>
      </trkpt>
      <trkpt lat="42.18951" lon="20.14318">
        <ele>813.40997314453</ele>
        <time>2023-10-01T08:06:34.000Z</time>
      </trkpt>
      <trkpt lat="42.18933" lon="20.14241">
        <ele>815.82000732422</ele>
        <time>2023-10-01T08:06:31.000Z</time>
      </trkpt>
      <trkpt lat="42.18931" lon="20.14227">
        <ele>816.29998779297</ele>
        <time>2023-10-01T08:06:30.000Z</time>
      </trkpt>
      <trkpt lat="42.18929" lon="20.142">
        <ele>817.73999023438</ele>
        <time>2023-10-01T08:06:29.000Z</time>
      </trkpt>
      <trkpt lat="42.18928" lon="20.14191">
        <ele>817.73999023438</ele>
        <time>2023-10-01T08:06:28.000Z</time>
      </trkpt>
      <trkpt lat="42.18928" lon="20.14166">
        <ele>818.70001220703</ele>
        <time>2023-10-01T08:06:27.000Z</time>
      </trkpt>
      <trkpt lat="42.18925" lon="20.14151">
        <ele>818.70001220703</ele>
        <time>2023-10-01T08:06:26.000Z</time>
      </trkpt>
      <trkpt lat="42.18918" lon="20.14138">
        <ele>819.65997314453</ele>
        <time>2023-10-01T08:06:25.000Z</time>
      </trkpt>
      <trkpt lat="42.18909" lon="20.1413">
        <ele>820.14001464844</ele>
        <time>2023-10-01T08:06:24.000Z</time>
      </trkpt>
      <trkpt lat="42.18896" lon="20.1412">
        <ele>820.61999511719</ele>
        <time>2023-10-01T08:06:23.000Z</time>
      </trkpt>
      <trkpt lat="42.18885" lon="20.14111">
        <ele>821.09997558594</ele>
        <time>2023-10-01T08:06:22.000Z</time>
      </trkpt>
      <trkpt lat="42.18865" lon="20.14095">
        <ele>821.09997558594</ele>
        <time>2023-10-01T08:06:21.000Z</time>
      </trkpt>
      <trkpt lat="42.18854" lon="20.1409">
        <ele>821.58001708984</ele>
        <time>2023-10-01T08:06:20.000Z</time>
      </trkpt>
      <trkpt lat="42.18836" lon="20.14084">
        <ele>822.05999755859</ele>
        <time>2023-10-01T08:06:19.000Z</time>
      </trkpt>
      <trkpt lat="42.18824" lon="20.14079">
        <ele>822.54998779297</ele>
        <time>2023-10-01T08:06:18.000Z</time>
      </trkpt>
      <trkpt lat="42.18814" lon="20.14071">
        <ele>822.54998779297</ele>
        <time>2023-10-01T08:06:17.000Z</time>
      </trkpt>
      <trkpt lat="42.18807" lon="20.14061">
        <ele>823.03002929688</ele>
        <time>2023-10-01T08:06:16.000Z</time>
      </trkpt>
      <trkpt lat="42.18802" lon="20.14049">
        <ele>823.51000976562</ele>
        <time>2023-10-01T08:06:15.000Z</time>
      </trkpt>
      <trkpt lat="42.18799" lon="20.14038">
        <ele>823.51000976562</ele>
        <time>2023-10-01T08:06:14.000Z</time>
      </trkpt>
      <trkpt lat="42.188" lon="20.14026">
        <ele>823.51000976562</ele>
        <time>2023-10-01T08:06:13.000Z</time>
      </trkpt>
      <trkpt lat="42.18804" lon="20.14014">
        <ele>823.51000976562</ele>
        <time>2023-10-01T08:06:12.000Z</time>
      </trkpt>
      <trkpt lat="42.18828" lon="20.13958">
        <ele>824.46997070312</ele>
        <time>2023-10-01T08:06:08.000Z</time>
      </trkpt>
      <trkpt lat="42.18834" lon="20.13947">
        <ele>824.95001220703</ele>
        <time>2023-10-01T08:06:07.000Z</time>
      </trkpt>
      <trkpt lat="42.18849" lon="20.13923">
        <ele>826.86999511719</ele>
        <time>2023-10-01T08:06:05.000Z</time>
      </trkpt>
      <trkpt lat="42.18853" lon="20.13913">
        <ele>826.86999511719</ele>
        <time>2023-10-01T08:06:04.000Z</time>
      </trkpt>
      <trkpt lat="42.18854" lon="20.13902">
        <ele>827.34997558594</ele>
        <time>2023-10-01T08:06:03.000Z</time>
      </trkpt>
      <trkpt lat="42.18851" lon="20.13892">
        <ele>827.83001708984</ele>
        <time>2023-10-01T08:06:02.000Z</time>
      </trkpt>
      <trkpt lat="42.18845" lon="20.13882">
        <ele>828.78997802734</ele>
        <time>2023-10-01T08:06:01.000Z</time>
      </trkpt>
      <trkpt lat="42.18836" lon="20.13873">
        <ele>829.27001953125</ele>
        <time>2023-10-01T08:06:00.000Z</time>
      </trkpt>
      <trkpt lat="42.18828" lon="20.13861">
        <ele>829.76000976562</ele>
        <time>2023-10-01T08:05:59.000Z</time>
      </trkpt>
      <trkpt lat="42.18822" lon="20.13847">
        <ele>829.76000976562</ele>
        <time>2023-10-01T08:05:58.000Z</time>
      </trkpt>
      <trkpt lat="42.18821" lon="20.13844">
        <ele>829.76000976562</ele>
        <time>2023-10-01T08:05:57.000Z</time>
      </trkpt>
      <trkpt lat="42.18812" lon="20.13818">
        <ele>830.23999023438</ele>
        <time>2023-10-01T08:05:56.000Z</time>
      </trkpt>
      <trkpt lat="42.18794" lon="20.13769">
        <ele>830.71997070312</ele>
        <time>2023-10-01T08:05:54.000Z</time>
      </trkpt>
      <trkpt lat="42.18789" lon="20.13753">
        <ele>830.23999023438</ele>
        <time>2023-10-01T08:05:53.000Z</time>
      </trkpt>
      <trkpt lat="42.18783" lon="20.13731">
        <ele>830.71997070312</ele>
        <time>2023-10-01T08:05:52.000Z</time>
      </trkpt>
      <trkpt lat="42.18777" lon="20.13715">
        <ele>831.20001220703</ele>
        <time>2023-10-01T08:05:51.000Z</time>
      </trkpt>
      <trkpt lat="42.18768" lon="20.13703">
        <ele>830.71997070312</ele>
        <time>2023-10-01T08:05:50.000Z</time>
      </trkpt>
      <trkpt lat="42.18765" lon="20.13701">
        <ele>830.71997070312</ele>
        <time>2023-10-01T08:05:49.000Z</time>
      </trkpt>
      <trkpt lat="42.18742" lon="20.13679">
        <ele>831.20001220703</ele>
        <time>2023-10-01T08:05:48.000Z</time>
      </trkpt>
      <trkpt lat="42.18736" lon="20.13672">
        <ele>831.20001220703</ele>
        <time>2023-10-01T08:05:47.000Z</time>
      </trkpt>
      <trkpt lat="42.18704" lon="20.13632">
        <ele>831.67999267578</ele>
        <time>2023-10-01T08:05:45.000Z</time>
      </trkpt>
      <trkpt lat="42.18697" lon="20.13619">
        <ele>831.67999267578</ele>
        <time>2023-10-01T08:05:44.000Z</time>
      </trkpt>
      <trkpt lat="42.18677" lon="20.13582">
        <ele>832.15997314453</ele>
        <time>2023-10-01T08:05:42.000Z</time>
      </trkpt>
      <trkpt lat="42.18673" lon="20.13577">
        <ele>832.15997314453</ele>
        <time>2023-10-01T08:05:41.000Z</time>
      </trkpt>
      <trkpt lat="42.18657" lon="20.1356">
        <ele>832.64001464844</ele>
        <time>2023-10-01T08:05:40.000Z</time>
      </trkpt>
      <trkpt lat="42.1865" lon="20.13549">
        <ele>832.64001464844</ele>
        <time>2023-10-01T08:05:39.000Z</time>
      </trkpt>
      <trkpt lat="42.18646" lon="20.13535">
        <ele>833.59997558594</ele>
        <time>2023-10-01T08:05:38.000Z</time>
      </trkpt>
      <trkpt lat="42.18644" lon="20.13521">
        <ele>834.08001708984</ele>
        <time>2023-10-01T08:05:37.000Z</time>
      </trkpt>
      <trkpt lat="42.18641" lon="20.13506">
        <ele>834.08001708984</ele>
        <time>2023-10-01T08:05:36.000Z</time>
      </trkpt>
      <trkpt lat="42.18633" lon="20.13492">
        <ele>834.55999755859</ele>
        <time>2023-10-01T08:05:35.000Z</time>
      </trkpt>
      <trkpt lat="42.18622" lon="20.1348">
        <ele>835.03997802734</ele>
        <time>2023-10-01T08:05:34.000Z</time>
      </trkpt>
      <trkpt lat="42.18616" lon="20.13474">
        <ele>835.03997802734</ele>
        <time>2023-10-01T08:05:33.000Z</time>
      </trkpt>
      <trkpt lat="42.18595" lon="20.13457">
        <ele>835.03997802734</ele>
        <time>2023-10-01T08:05:32.000Z</time>
      </trkpt>
      <trkpt lat="42.18585" lon="20.13444">
        <ele>835.52001953125</ele>
        <time>2023-10-01T08:05:31.000Z</time>
      </trkpt>
      <trkpt lat="42.1858" lon="20.13435">
        <ele>835.52001953125</ele>
        <time>2023-10-01T08:05:30.000Z</time>
      </trkpt>
      <trkpt lat="42.18575" lon="20.13427">
        <ele>835.03997802734</ele>
        <time>2023-10-01T08:05:29.000Z</time>
      </trkpt>
      <trkpt lat="42.18561" lon="20.13397">
        <ele>834.55999755859</ele>
        <time>2023-10-01T08:05:28.000Z</time>
      </trkpt>
      <trkpt lat="42.18552" lon="20.13375">
        <ele>835.03997802734</ele>
        <time>2023-10-01T08:05:27.000Z</time>
      </trkpt>
      <trkpt lat="42.18547" lon="20.13359">
        <ele>835.03997802734</ele>
        <time>2023-10-01T08:05:26.000Z</time>
      </trkpt>
      <trkpt lat="42.18538" lon="20.13317">
        <ele>837.45001220703</ele>
        <time>2023-10-01T08:05:24.000Z</time>
      </trkpt>
      <trkpt lat="42.18533" lon="20.13298">
        <ele>838.89001464844</ele>
        <time>2023-10-01T08:05:23.000Z</time>
      </trkpt>
      <trkpt lat="42.18526" lon="20.13285">
        <ele>839.84997558594</ele>
        <time>2023-10-01T08:05:22.000Z</time>
      </trkpt>
      <trkpt lat="42.18516" lon="20.13277">
        <ele>839.84997558594</ele>
        <time>2023-10-01T08:05:21.000Z</time>
      </trkpt>
      <trkpt lat="42.18511" lon="20.13275">
        <ele>840.33001708984</ele>
        <time>2023-10-01T08:05:20.000Z</time>
      </trkpt>
      <trkpt lat="42.18491" lon="20.13269">
        <ele>840.80999755859</ele>
        <time>2023-10-01T08:05:19.000Z</time>
      </trkpt>
      <trkpt lat="42.18479" lon="20.13267">
        <ele>841.77001953125</ele>
        <time>2023-10-01T08:05:18.000Z</time>
      </trkpt>
      <trkpt lat="42.18468" lon="20.1327">
        <ele>842.25</ele>
        <time>2023-10-01T08:05:17.000Z</time>
      </trkpt>
      <trkpt lat="42.18458" lon="20.13278">
        <ele>842.25</ele>
        <time>2023-10-01T08:05:16.000Z</time>
      </trkpt>
      <trkpt lat="42.18454" lon="20.13283">
        <ele>842.25</ele>
        <time>2023-10-01T08:05:15.000Z</time>
      </trkpt>
      <trkpt lat="42.18438" lon="20.13305">
        <ele>842.25</ele>
        <time>2023-10-01T08:05:14.000Z</time>
      </trkpt>
      <trkpt lat="42.18433" lon="20.13311">
        <ele>842.72998046875</ele>
        <time>2023-10-01T08:05:13.000Z</time>
      </trkpt>
      <trkpt lat="42.18413" lon="20.13339">
        <ele>842.25</ele>
        <time>2023-10-01T08:05:12.000Z</time>
      </trkpt>
      <trkpt lat="42.18407" lon="20.1335">
        <ele>842.72998046875</ele>
        <time>2023-10-01T08:05:11.000Z</time>
      </trkpt>
      <trkpt lat="42.18399" lon="20.1337">
        <ele>842.72998046875</ele>
        <time>2023-10-01T08:05:10.000Z</time>
      </trkpt>
      <trkpt lat="42.18393" lon="20.13382">
        <ele>843.21002197266</ele>
        <time>2023-10-01T08:05:09.000Z</time>
      </trkpt>
      <trkpt lat="42.18384" lon="20.13391">
        <ele>843.69000244141</ele>
        <time>2023-10-01T08:05:08.000Z</time>
      </trkpt>
      <trkpt lat="42.18374" lon="20.13395">
        <ele>844.65997314453</ele>
        <time>2023-10-01T08:05:07.000Z</time>
      </trkpt>
      <trkpt lat="42.18364" lon="20.13396">
        <ele>844.65997314453</ele>
        <time>2023-10-01T08:05:06.000Z</time>
      </trkpt>
      <trkpt lat="42.18355" lon="20.13394">
        <ele>844.17999267578</ele>
        <time>2023-10-01T08:05:05.000Z</time>
      </trkpt>
      <trkpt lat="42.18335" lon="20.13387">
        <ele>844.65997314453</ele>
        <time>2023-10-01T08:05:04.000Z</time>
      </trkpt>
      <trkpt lat="42.18326" lon="20.13388">
        <ele>844.65997314453</ele>
        <time>2023-10-01T08:05:03.000Z</time>
      </trkpt>
      <trkpt lat="42.1832" lon="20.13393">
        <ele>845.14001464844</ele>
        <time>2023-10-01T08:05:02.000Z</time>
      </trkpt>
      <trkpt lat="42.18314" lon="20.134">
        <ele>845.61999511719</ele>
        <time>2023-10-01T08:05:01.000Z</time>
      </trkpt>
      <trkpt lat="42.1831" lon="20.13411">
        <ele>845.61999511719</ele>
        <time>2023-10-01T08:05:00.000Z</time>
      </trkpt>
      <trkpt lat="42.18307" lon="20.13423">
        <ele>846.09997558594</ele>
        <time>2023-10-01T08:04:59.000Z</time>
      </trkpt>
      <trkpt lat="42.18303" lon="20.13436">
        <ele>846.09997558594</ele>
        <time>2023-10-01T08:04:58.000Z</time>
      </trkpt>
      <trkpt lat="42.18296" lon="20.13448">
        <ele>846.09997558594</ele>
        <time>2023-10-01T08:04:57.000Z</time>
      </trkpt>
      <trkpt lat="42.18287" lon="20.13458">
        <ele>846.09997558594</ele>
        <time>2023-10-01T08:04:56.000Z</time>
      </trkpt>
      <trkpt lat="42.18283" lon="20.13462">
        <ele>846.09997558594</ele>
        <time>2023-10-01T08:04:55.000Z</time>
      </trkpt>
      <trkpt lat="42.18262" lon="20.1348">
        <ele>846.09997558594</ele>
        <time>2023-10-01T08:04:54.000Z</time>
      </trkpt>
      <trkpt lat="42.18251" lon="20.13492">
        <ele>845.61999511719</ele>
        <time>2023-10-01T08:04:53.000Z</time>
      </trkpt>
      <trkpt lat="42.18244" lon="20.13506">
        <ele>845.14001464844</ele>
        <time>2023-10-01T08:04:52.000Z</time>
      </trkpt>
      <trkpt lat="42.18237" lon="20.13521">
        <ele>844.17999267578</ele>
        <time>2023-10-01T08:04:51.000Z</time>
      </trkpt>
      <trkpt lat="42.18229" lon="20.13534">
        <ele>843.21002197266</ele>
        <time>2023-10-01T08:04:50.000Z</time>
      </trkpt>
      <trkpt lat="42.1822" lon="20.13545">
        <ele>842.72998046875</ele>
        <time>2023-10-01T08:04:49.000Z</time>
      </trkpt>
      <trkpt lat="42.18214" lon="20.13551">
        <ele>842.25</ele>
        <time>2023-10-01T08:04:48.000Z</time>
      </trkpt>
      <trkpt lat="42.18197" lon="20.13563">
        <ele>841.77001953125</ele>
        <time>2023-10-01T08:04:47.000Z</time>
      </trkpt>
      <trkpt lat="42.1819" lon="20.13569">
        <ele>841.77001953125</ele>
        <time>2023-10-01T08:04:46.000Z</time>
      </trkpt>
      <trkpt lat="42.18179" lon="20.1358">
        <ele>841.28997802734</ele>
        <time>2023-10-01T08:04:45.000Z</time>
      </trkpt>
      <trkpt lat="42.1817" lon="20.13588">
        <ele>840.80999755859</ele>
        <time>2023-10-01T08:04:44.000Z</time>
      </trkpt>
      <trkpt lat="42.18161" lon="20.13593">
        <ele>840.33001708984</ele>
        <time>2023-10-01T08:04:43.000Z</time>
      </trkpt>
      <trkpt lat="42.18153" lon="20.13593">
        <ele>839.84997558594</ele>
        <time>2023-10-01T08:04:42.000Z</time>
      </trkpt>
      <trkpt lat="42.18144" lon="20.13588">
        <ele>839.84997558594</ele>
        <time>2023-10-01T08:04:41.000Z</time>
      </trkpt>
      <trkpt lat="42.18136" lon="20.13579">
        <ele>839.36999511719</ele>
        <time>2023-10-01T08:04:40.000Z</time>
      </trkpt>
      <trkpt lat="42.18131" lon="20.13573">
        <ele>839.36999511719</ele>
        <time>2023-10-01T08:04:39.000Z</time>
      </trkpt>
      <trkpt lat="42.1812" lon="20.13555">
        <ele>838.89001464844</ele>
        <time>2023-10-01T08:04:38.000Z</time>
      </trkpt>
      <trkpt lat="42.18111" lon="20.13542">
        <ele>838.40997314453</ele>
        <time>2023-10-01T08:04:37.000Z</time>
      </trkpt>
      <trkpt lat="42.18102" lon="20.1353">
        <ele>836.96002197266</ele>
        <time>2023-10-01T08:04:36.000Z</time>
      </trkpt>
      <trkpt lat="42.18091" lon="20.13522">
        <ele>836.47998046875</ele>
        <time>2023-10-01T08:04:35.000Z</time>
      </trkpt>
      <trkpt lat="42.18081" lon="20.13517">
        <ele>836</ele>
        <time>2023-10-01T08:04:34.000Z</time>
      </trkpt>
      <trkpt lat="42.18074" lon="20.13511">
        <ele>835.52001953125</ele>
        <time>2023-10-01T08:04:33.000Z</time>
      </trkpt>
      <trkpt lat="42.18069" lon="20.13503">
        <ele>834.55999755859</ele>
        <time>2023-10-01T08:04:32.000Z</time>
      </trkpt>
      <trkpt lat="42.18067" lon="20.13492">
        <ele>834.55999755859</ele>
        <time>2023-10-01T08:04:31.000Z</time>
      </trkpt>
      <trkpt lat="42.18063" lon="20.13452">
        <ele>832.64001464844</ele>
        <time>2023-10-01T08:04:29.000Z</time>
      </trkpt>
      <trkpt lat="42.18058" lon="20.13431">
        <ele>831.67999267578</ele>
        <time>2023-10-01T08:04:28.000Z</time>
      </trkpt>
      <trkpt lat="42.18051" lon="20.13416">
        <ele>831.67999267578</ele>
        <time>2023-10-01T08:04:27.000Z</time>
      </trkpt>
      <trkpt lat="42.18044" lon="20.13406">
        <ele>831.20001220703</ele>
        <time>2023-10-01T08:04:26.000Z</time>
      </trkpt>
      <trkpt lat="42.1803" lon="20.13392">
        <ele>831.20001220703</ele>
        <time>2023-10-01T08:04:25.000Z</time>
      </trkpt>
      <trkpt lat="42.18021" lon="20.13379">
        <ele>831.20001220703</ele>
        <time>2023-10-01T08:04:24.000Z</time>
      </trkpt>
      <trkpt lat="42.18013" lon="20.13364">
        <ele>831.20001220703</ele>
        <time>2023-10-01T08:04:23.000Z</time>
      </trkpt>
      <trkpt lat="42.18006" lon="20.13348">
        <ele>831.20001220703</ele>
        <time>2023-10-01T08:04:22.000Z</time>
      </trkpt>
      <trkpt lat="42.18003" lon="20.13338">
        <ele>831.20001220703</ele>
        <time>2023-10-01T08:04:21.000Z</time>
      </trkpt>
      <trkpt lat="42.17999" lon="20.13321">
        <ele>830.23999023438</ele>
        <time>2023-10-01T08:04:20.000Z</time>
      </trkpt>
      <trkpt lat="42.17994" lon="20.13311">
        <ele>830.23999023438</ele>
        <time>2023-10-01T08:04:19.000Z</time>
      </trkpt>
      <trkpt lat="42.17988" lon="20.13307">
        <ele>830.23999023438</ele>
        <time>2023-10-01T08:04:18.000Z</time>
      </trkpt>
      <trkpt lat="42.17979" lon="20.13309">
        <ele>830.23999023438</ele>
        <time>2023-10-01T08:04:17.000Z</time>
      </trkpt>
      <trkpt lat="42.1797" lon="20.13315">
        <ele>830.23999023438</ele>
        <time>2023-10-01T08:04:16.000Z</time>
      </trkpt>
      <trkpt lat="42.17962" lon="20.13325">
        <ele>829.76000976562</ele>
        <time>2023-10-01T08:04:15.000Z</time>
      </trkpt>
      <trkpt lat="42.17953" lon="20.13334">
        <ele>829.76000976562</ele>
        <time>2023-10-01T08:04:14.000Z</time>
      </trkpt>
      <trkpt lat="42.17943" lon="20.13342">
        <ele>829.76000976562</ele>
        <time>2023-10-01T08:04:13.000Z</time>
      </trkpt>
      <trkpt lat="42.17932" lon="20.13346">
        <ele>830.23999023438</ele>
        <time>2023-10-01T08:04:12.000Z</time>
      </trkpt>
      <trkpt lat="42.17923" lon="20.13346">
        <ele>830.23999023438</ele>
        <time>2023-10-01T08:04:11.000Z</time>
      </trkpt>
      <trkpt lat="42.17915" lon="20.13343">
        <ele>830.71997070312</ele>
        <time>2023-10-01T08:04:10.000Z</time>
      </trkpt>
      <trkpt lat="42.17907" lon="20.13334">
        <ele>830.71997070312</ele>
        <time>2023-10-01T08:04:09.000Z</time>
      </trkpt>
      <trkpt lat="42.17901" lon="20.1332">
        <ele>830.71997070312</ele>
        <time>2023-10-01T08:04:08.000Z</time>
      </trkpt>
      <trkpt lat="42.17894" lon="20.1331">
        <ele>830.23999023438</ele>
        <time>2023-10-01T08:04:07.000Z</time>
      </trkpt>
      <trkpt lat="42.17886" lon="20.13305">
        <ele>829.27001953125</ele>
        <time>2023-10-01T08:04:06.000Z</time>
      </trkpt>
      <trkpt lat="42.17874" lon="20.13304">
        <ele>829.27001953125</ele>
        <time>2023-10-01T08:04:05.000Z</time>
      </trkpt>
      <trkpt lat="42.17862" lon="20.13305">
        <ele>829.27001953125</ele>
        <time>2023-10-01T08:04:04.000Z</time>
      </trkpt>
      <trkpt lat="42.17848" lon="20.13307">
        <ele>828.78997802734</ele>
        <time>2023-10-01T08:04:03.000Z</time>
      </trkpt>
      <trkpt lat="42.17835" lon="20.13312">
        <ele>828.30999755859</ele>
        <time>2023-10-01T08:04:02.000Z</time>
      </trkpt>
      <trkpt lat="42.17824" lon="20.1332">
        <ele>827.83001708984</ele>
        <time>2023-10-01T08:04:01.000Z</time>
      </trkpt>
      <trkpt lat="42.17814" lon="20.13329">
        <ele>827.34997558594</ele>
        <time>2023-10-01T08:04:00.000Z</time>
      </trkpt>
      <trkpt lat="42.17805" lon="20.13336">
        <ele>827.34997558594</ele>
        <time>2023-10-01T08:03:59.000Z</time>
      </trkpt>
      <trkpt lat="42.17795" lon="20.13337">
        <ele>827.34997558594</ele>
        <time>2023-10-01T08:03:58.000Z</time>
      </trkpt>
      <trkpt lat="42.17785" lon="20.13334">
        <ele>826.86999511719</ele>
        <time>2023-10-01T08:03:57.000Z</time>
      </trkpt>
      <trkpt lat="42.1778" lon="20.13332">
        <ele>826.86999511719</ele>
        <time>2023-10-01T08:03:56.000Z</time>
      </trkpt>
      <trkpt lat="42.17762" lon="20.13325">
        <ele>826.86999511719</ele>
        <time>2023-10-01T08:03:55.000Z</time>
      </trkpt>
      <trkpt lat="42.17752" lon="20.13319">
        <ele>827.34997558594</ele>
        <time>2023-10-01T08:03:54.000Z</time>
      </trkpt>
      <trkpt lat="42.17746" lon="20.1331">
        <ele>827.83001708984</ele>
        <time>2023-10-01T08:03:53.000Z</time>
      </trkpt>
      <trkpt lat="42.17739" lon="20.13298">
        <ele>827.34997558594</ele>
        <time>2023-10-01T08:03:52.000Z</time>
      </trkpt>
      <trkpt lat="42.17731" lon="20.13288">
        <ele>827.83001708984</ele>
        <time>2023-10-01T08:03:51.000Z</time>
      </trkpt>
      <trkpt lat="42.1772" lon="20.13282">
        <ele>827.83001708984</ele>
        <time>2023-10-01T08:03:50.000Z</time>
      </trkpt>
      <trkpt lat="42.17707" lon="20.13277">
        <ele>827.34997558594</ele>
        <time>2023-10-01T08:03:49.000Z</time>
      </trkpt>
      <trkpt lat="42.17697" lon="20.13273">
        <ele>826.86999511719</ele>
        <time>2023-10-01T08:03:48.000Z</time>
      </trkpt>
      <trkpt lat="42.17688" lon="20.13267">
        <ele>826.39001464844</ele>
        <time>2023-10-01T08:03:47.000Z</time>
      </trkpt>
      <trkpt lat="42.1768" lon="20.1326">
        <ele>825.42999267578</ele>
        <time>2023-10-01T08:03:46.000Z</time>
      </trkpt>
      <trkpt lat="42.17675" lon="20.1325">
        <ele>823.98999023438</ele>
        <time>2023-10-01T08:03:45.000Z</time>
      </trkpt>
      <trkpt lat="42.17672" lon="20.13238">
        <ele>823.03002929688</ele>
        <time>2023-10-01T08:03:44.000Z</time>
      </trkpt>
      <trkpt lat="42.17669" lon="20.13226">
        <ele>822.05999755859</ele>
        <time>2023-10-01T08:03:43.000Z</time>
      </trkpt>
      <trkpt lat="42.1767" lon="20.13217">
        <ele>821.58001708984</ele>
        <time>2023-10-01T08:03:42.000Z</time>
      </trkpt>
      <trkpt lat="42.17673" lon="20.13209">
        <ele>821.09997558594</ele>
        <time>2023-10-01T08:03:41.000Z</time>
      </trkpt>
      <trkpt lat="42.17677" lon="20.13199">
        <ele>819.17999267578</ele>
        <time>2023-10-01T08:03:40.000Z</time>
      </trkpt>
      <trkpt lat="42.17678" lon="20.13187">
        <ele>818.21997070312</ele>
        <time>2023-10-01T08:03:39.000Z</time>
      </trkpt>
      <trkpt lat="42.17676" lon="20.13173">
        <ele>818.21997070312</ele>
        <time>2023-10-01T08:03:38.000Z</time>
      </trkpt>
      <trkpt lat="42.17673" lon="20.1316">
        <ele>818.21997070312</ele>
        <time>2023-10-01T08:03:37.000Z</time>
      </trkpt>
      <trkpt lat="42.17666" lon="20.13149">
        <ele>817.73999023438</ele>
        <time>2023-10-01T08:03:36.000Z</time>
      </trkpt>
      <trkpt lat="42.17658" lon="20.1314">
        <ele>817.26000976562</ele>
        <time>2023-10-01T08:03:35.000Z</time>
      </trkpt>
      <trkpt lat="42.17649" lon="20.13134">
        <ele>816.78002929688</ele>
        <time>2023-10-01T08:03:34.000Z</time>
      </trkpt>
      <trkpt lat="42.17642" lon="20.1313">
        <ele>815.82000732422</ele>
        <time>2023-10-01T08:03:33.000Z</time>
      </trkpt>
      <trkpt lat="42.17632" lon="20.13125">
        <ele>814.84997558594</ele>
        <time>2023-10-01T08:03:32.000Z</time>
      </trkpt>
      <trkpt lat="42.17617" lon="20.13119">
        <ele>813.40997314453</ele>
        <time>2023-10-01T08:03:31.000Z</time>
      </trkpt>
      <trkpt lat="42.17607" lon="20.13115">
        <ele>812.92999267578</ele>
        <time>2023-10-01T08:03:30.000Z</time>
      </trkpt>
      <trkpt lat="42.176" lon="20.13109">
        <ele>812.45001220703</ele>
        <time>2023-10-01T08:03:29.000Z</time>
      </trkpt>
      <trkpt lat="42.17595" lon="20.13101">
        <ele>811.48999023438</ele>
        <time>2023-10-01T08:03:28.000Z</time>
      </trkpt>
      <trkpt lat="42.17592" lon="20.1309">
        <ele>810.53002929688</ele>
        <time>2023-10-01T08:03:27.000Z</time>
      </trkpt>
      <trkpt lat="42.17586" lon="20.13058">
        <ele>809.57000732422</ele>
        <time>2023-10-01T08:03:25.000Z</time>
      </trkpt>
      <trkpt lat="42.17585" lon="20.13042">
        <ele>809.57000732422</ele>
        <time>2023-10-01T08:03:24.000Z</time>
      </trkpt>
      <trkpt lat="42.17585" lon="20.13034">
        <ele>809.57000732422</ele>
        <time>2023-10-01T08:03:23.000Z</time>
      </trkpt>
      <trkpt lat="42.1759" lon="20.12978">
        <ele>807.15997314453</ele>
        <time>2023-10-01T08:03:20.000Z</time>
      </trkpt>
      <trkpt lat="42.17593" lon="20.12954">
        <ele>806.20001220703</ele>
        <time>2023-10-01T08:03:19.000Z</time>
      </trkpt>
      <trkpt lat="42.17593" lon="20.12941">
        <ele>805.23999023438</ele>
        <time>2023-10-01T08:03:18.000Z</time>
      </trkpt>
      <trkpt lat="42.17591" lon="20.12931">
        <ele>805.23999023438</ele>
        <time>2023-10-01T08:03:17.000Z</time>
      </trkpt>
      <trkpt lat="42.17586" lon="20.12923">
        <ele>806.20001220703</ele>
        <time>2023-10-01T08:03:16.000Z</time>
      </trkpt>
      <trkpt lat="42.17578" lon="20.12917">
        <ele>806.20001220703</ele>
        <time>2023-10-01T08:03:15.000Z</time>
      </trkpt>
      <trkpt lat="42.17569" lon="20.12915">
        <ele>806.20001220703</ele>
        <time>2023-10-01T08:03:14.000Z</time>
      </trkpt>
      <trkpt lat="42.1756" lon="20.12915">
        <ele>805.71997070312</ele>
        <time>2023-10-01T08:03:13.000Z</time>
      </trkpt>
      <trkpt lat="42.17554" lon="20.1292">
        <ele>805.71997070312</ele>
        <time>2023-10-01T08:03:12.000Z</time>
      </trkpt>
      <trkpt lat="42.17549" lon="20.12929">
        <ele>805.71997070312</ele>
        <time>2023-10-01T08:03:11.000Z</time>
      </trkpt>
      <trkpt lat="42.17549" lon="20.12931">
        <ele>805.71997070312</ele>
        <time>2023-10-01T08:03:10.000Z</time>
      </trkpt>
      <trkpt lat="42.17523" lon="20.13008">
        <ele>809.09002685547</ele>
        <time>2023-10-01T08:03:06.000Z</time>
      </trkpt>
      <trkpt lat="42.17518" lon="20.13027">
        <ele>810.53002929688</ele>
        <time>2023-10-01T08:03:05.000Z</time>
      </trkpt>
      <trkpt lat="42.17512" lon="20.13063">
        <ele>814.36999511719</ele>
        <time>2023-10-01T08:03:03.000Z</time>
      </trkpt>
      <trkpt lat="42.1751" lon="20.13076">
        <ele>814.36999511719</ele>
        <time>2023-10-01T08:03:02.000Z</time>
      </trkpt>
      <trkpt lat="42.17508" lon="20.131">
        <ele>815.34002685547</ele>
        <time>2023-10-01T08:03:01.000Z</time>
      </trkpt>
      <trkpt lat="42.17507" lon="20.13144">
        <ele>818.21997070312</ele>
        <time>2023-10-01T08:02:59.000Z</time>
      </trkpt>
      <trkpt lat="42.17506" lon="20.13166">
        <ele>819.17999267578</ele>
        <time>2023-10-01T08:02:58.000Z</time>
      </trkpt>
      <trkpt lat="42.17506" lon="20.13186">
        <ele>820.14001464844</ele>
        <time>2023-10-01T08:02:57.000Z</time>
      </trkpt>
      <trkpt lat="42.17507" lon="20.13203">
        <ele>821.09997558594</ele>
        <time>2023-10-01T08:02:56.000Z</time>
      </trkpt>
      <trkpt lat="42.1751" lon="20.13218">
        <ele>821.58001708984</ele>
        <time>2023-10-01T08:02:55.000Z</time>
      </trkpt>
      <trkpt lat="42.17515" lon="20.13231">
        <ele>822.05999755859</ele>
        <time>2023-10-01T08:02:54.000Z</time>
      </trkpt>
      <trkpt lat="42.17519" lon="20.13237">
        <ele>822.05999755859</ele>
        <time>2023-10-01T08:02:53.000Z</time>
      </trkpt>
      <trkpt lat="42.17528" lon="20.13252">
        <ele>822.54998779297</ele>
        <time>2023-10-01T08:02:52.000Z</time>
      </trkpt>
      <trkpt lat="42.17532" lon="20.13262">
        <ele>822.54998779297</ele>
        <time>2023-10-01T08:02:51.000Z</time>
      </trkpt>
      <trkpt lat="42.17534" lon="20.13274">
        <ele>823.51000976562</ele>
        <time>2023-10-01T08:02:50.000Z</time>
      </trkpt>
      <trkpt lat="42.17534" lon="20.13288">
        <ele>824.46997070312</ele>
        <time>2023-10-01T08:02:49.000Z</time>
      </trkpt>
      <trkpt lat="42.17532" lon="20.133">
        <ele>824.95001220703</ele>
        <time>2023-10-01T08:02:48.000Z</time>
      </trkpt>
      <trkpt lat="42.17531" lon="20.13305">
        <ele>824.95001220703</ele>
        <time>2023-10-01T08:02:47.000Z</time>
      </trkpt>
      <trkpt lat="42.17524" lon="20.13323">
        <ele>825.42999267578</ele>
        <time>2023-10-01T08:02:46.000Z</time>
      </trkpt>
      <trkpt lat="42.17522" lon="20.13334">
        <ele>825.90997314453</ele>
        <time>2023-10-01T08:02:45.000Z</time>
      </trkpt>
      <trkpt lat="42.17522" lon="20.13343">
        <ele>825.90997314453</ele>
        <time>2023-10-01T08:02:44.000Z</time>
      </trkpt>
      <trkpt lat="42.17524" lon="20.13352">
        <ele>825.90997314453</ele>
        <time>2023-10-01T08:02:43.000Z</time>
      </trkpt>
      <trkpt lat="42.17529" lon="20.13363">
        <ele>825.42999267578</ele>
        <time>2023-10-01T08:02:42.000Z</time>
      </trkpt>
      <trkpt lat="42.17536" lon="20.13374">
        <ele>824.46997070312</ele>
        <time>2023-10-01T08:02:41.000Z</time>
      </trkpt>
      <trkpt lat="42.17546" lon="20.13382">
        <ele>823.03002929688</ele>
        <time>2023-10-01T08:02:40.000Z</time>
      </trkpt>
      <trkpt lat="42.17548" lon="20.13383">
        <ele>823.03002929688</ele>
        <time>2023-10-01T08:02:39.000Z</time>
      </trkpt>
      <trkpt lat="42.17566" lon="20.13393">
        <ele>820.61999511719</ele>
        <time>2023-10-01T08:02:38.000Z</time>
      </trkpt>
      <trkpt lat="42.17582" lon="20.13402">
        <ele>818.70001220703</ele>
        <time>2023-10-01T08:02:37.000Z</time>
      </trkpt>
      <trkpt lat="42.17605" lon="20.13419">
        <ele>815.34002685547</ele>
        <time>2023-10-01T08:02:35.000Z</time>
      </trkpt>
      <trkpt lat="42.17616" lon="20.13427">
        <ele>813.89001464844</ele>
        <time>2023-10-01T08:02:34.000Z</time>
      </trkpt>
      <trkpt lat="42.17628" lon="20.13431">
        <ele>812.45001220703</ele>
        <time>2023-10-01T08:02:33.000Z</time>
      </trkpt>
      <trkpt lat="42.17637" lon="20.13436">
        <ele>811.01000976562</ele>
        <time>2023-10-01T08:02:32.000Z</time>
      </trkpt>
      <trkpt lat="42.17644" lon="20.13442">
        <ele>810.04998779297</ele>
        <time>2023-10-01T08:02:31.000Z</time>
      </trkpt>
      <trkpt lat="42.17648" lon="20.13452">
        <ele>808.60998535156</ele>
        <time>2023-10-01T08:02:30.000Z</time>
      </trkpt>
      <trkpt lat="42.17651" lon="20.13465">
        <ele>807.15997314453</ele>
        <time>2023-10-01T08:02:29.000Z</time>
      </trkpt>
      <trkpt lat="42.17652" lon="20.13469">
        <ele>806.67999267578</ele>
        <time>2023-10-01T08:02:28.000Z</time>
      </trkpt>
      <trkpt lat="42.17654" lon="20.13496">
        <ele>805.23999023438</ele>
        <time>2023-10-01T08:02:27.000Z</time>
      </trkpt>
      <trkpt lat="42.17656" lon="20.13505">
        <ele>804.28002929688</ele>
        <time>2023-10-01T08:02:26.000Z</time>
      </trkpt>
      <trkpt lat="42.1766" lon="20.13525">
        <ele>803.79998779297</ele>
        <time>2023-10-01T08:02:25.000Z</time>
      </trkpt>
      <trkpt lat="42.17665" lon="20.13537">
        <ele>803.32000732422</ele>
        <time>2023-10-01T08:02:24.000Z</time>
      </trkpt>
      <trkpt lat="42.1767" lon="20.13546">
        <ele>803.32000732422</ele>
        <time>2023-10-01T08:02:23.000Z</time>
      </trkpt>
      <trkpt lat="42.17679" lon="20.13554">
        <ele>802.84002685547</ele>
        <time>2023-10-01T08:02:22.000Z</time>
      </trkpt>
      <trkpt lat="42.17687" lon="20.1356">
        <ele>802.84002685547</ele>
        <time>2023-10-01T08:02:21.000Z</time>
      </trkpt>
      <trkpt lat="42.177" lon="20.1357">
        <ele>801.88000488281</ele>
        <time>2023-10-01T08:02:20.000Z</time>
      </trkpt>
      <trkpt lat="42.17709" lon="20.13581">
        <ele>801.40002441406</ele>
        <time>2023-10-01T08:02:19.000Z</time>
      </trkpt>
      <trkpt lat="42.17716" lon="20.13594">
        <ele>801.40002441406</ele>
        <time>2023-10-01T08:02:18.000Z</time>
      </trkpt>
      <trkpt lat="42.17722" lon="20.13606">
        <ele>801.40002441406</ele>
        <time>2023-10-01T08:02:17.000Z</time>
      </trkpt>
      <trkpt lat="42.17728" lon="20.13621">
        <ele>801.88000488281</ele>
        <time>2023-10-01T08:02:16.000Z</time>
      </trkpt>
      <trkpt lat="42.17732" lon="20.1363">
        <ele>802.35998535156</ele>
        <time>2023-10-01T08:02:15.000Z</time>
      </trkpt>
      <trkpt lat="42.17736" lon="20.13645">
        <ele>802.35998535156</ele>
        <time>2023-10-01T08:02:14.000Z</time>
      </trkpt>
      <trkpt lat="42.17744" lon="20.13669">
        <ele>804.28002929688</ele>
        <time>2023-10-01T08:02:13.000Z</time>
      </trkpt>
      <trkpt lat="42.17747" lon="20.1368">
        <ele>805.23999023438</ele>
        <time>2023-10-01T08:02:12.000Z</time>
      </trkpt>
      <trkpt lat="42.17753" lon="20.13703">
        <ele>806.67999267578</ele>
        <time>2023-10-01T08:02:11.000Z</time>
      </trkpt>
      <trkpt lat="42.17757" lon="20.13715">
        <ele>807.64001464844</ele>
        <time>2023-10-01T08:02:10.000Z</time>
      </trkpt>
      <trkpt lat="42.17763" lon="20.13723">
        <ele>808.13000488281</ele>
        <time>2023-10-01T08:02:09.000Z</time>
      </trkpt>
      <trkpt lat="42.17774" lon="20.13733">
        <ele>808.60998535156</ele>
        <time>2023-10-01T08:02:08.000Z</time>
      </trkpt>
      <trkpt lat="42.17782" lon="20.1374">
        <ele>809.09002685547</ele>
        <time>2023-10-01T08:02:07.000Z</time>
      </trkpt>
      <trkpt lat="42.17789" lon="20.1375">
        <ele>809.09002685547</ele>
        <time>2023-10-01T08:02:06.000Z</time>
      </trkpt>
      <trkpt lat="42.17795" lon="20.13762">
        <ele>809.09002685547</ele>
        <time>2023-10-01T08:02:05.000Z</time>
      </trkpt>
      <trkpt lat="42.17798" lon="20.1377">
        <ele>809.09002685547</ele>
        <time>2023-10-01T08:02:04.000Z</time>
      </trkpt>
      <trkpt lat="42.17807" lon="20.13798">
        <ele>811.01000976562</ele>
        <time>2023-10-01T08:02:03.000Z</time>
      </trkpt>
      <trkpt lat="42.17814" lon="20.13816">
        <ele>811.96997070312</ele>
        <time>2023-10-01T08:02:02.000Z</time>
      </trkpt>
      <trkpt lat="42.17822" lon="20.13832">
        <ele>813.89001464844</ele>
        <time>2023-10-01T08:02:01.000Z</time>
      </trkpt>
      <trkpt lat="42.17827" lon="20.13841">
        <ele>814.84997558594</ele>
        <time>2023-10-01T08:02:00.000Z</time>
      </trkpt>
      <trkpt lat="42.17835" lon="20.13855">
        <ele>816.29998779297</ele>
        <time>2023-10-01T08:01:59.000Z</time>
      </trkpt>
      <trkpt lat="42.17845" lon="20.1387">
        <ele>817.26000976562</ele>
        <time>2023-10-01T08:01:58.000Z</time>
      </trkpt>
      <trkpt lat="42.17858" lon="20.13885">
        <ele>818.21997070312</ele>
        <time>2023-10-01T08:01:57.000Z</time>
      </trkpt>
      <trkpt lat="42.17865" lon="20.13894">
        <ele>818.21997070312</ele>
        <time>2023-10-01T08:01:56.000Z</time>
      </trkpt>
      <trkpt lat="42.1787" lon="20.13903">
        <ele>818.21997070312</ele>
        <time>2023-10-01T08:01:55.000Z</time>
      </trkpt>
      <trkpt lat="42.17872" lon="20.13915">
        <ele>818.70001220703</ele>
        <time>2023-10-01T08:01:54.000Z</time>
      </trkpt>
      <trkpt lat="42.17871" lon="20.13922">
        <ele>818.70001220703</ele>
        <time>2023-10-01T08:01:53.000Z</time>
      </trkpt>
      <trkpt lat="42.17869" lon="20.13938">
        <ele>818.21997070312</ele>
        <time>2023-10-01T08:01:52.000Z</time>
      </trkpt>
      <trkpt lat="42.17869" lon="20.13952">
        <ele>817.26000976562</ele>
        <time>2023-10-01T08:01:51.000Z</time>
      </trkpt>
      <trkpt lat="42.17871" lon="20.13959">
        <ele>816.78002929688</ele>
        <time>2023-10-01T08:01:50.000Z</time>
      </trkpt>
      <trkpt lat="42.17882" lon="20.14007">
        <ele>815.34002685547</ele>
        <time>2023-10-01T08:01:47.000Z</time>
      </trkpt>
      <trkpt lat="42.17885" lon="20.14024">
        <ele>815.34002685547</ele>
        <time>2023-10-01T08:01:46.000Z</time>
      </trkpt>
      <trkpt lat="42.17886" lon="20.14035">
        <ele>814.84997558594</ele>
        <time>2023-10-01T08:01:45.000Z</time>
      </trkpt>
      <trkpt lat="42.17884" lon="20.14045">
        <ele>814.36999511719</ele>
        <time>2023-10-01T08:01:44.000Z</time>
      </trkpt>
      <trkpt lat="42.17878" lon="20.14054">
        <ele>814.36999511719</ele>
        <time>2023-10-01T08:01:43.000Z</time>
      </trkpt>
      <trkpt lat="42.17877" lon="20.14055">
        <ele>814.84997558594</ele>
        <time>2023-10-01T08:01:42.000Z</time>
      </trkpt>
      <trkpt lat="42.17843" lon="20.1409">
        <ele>817.73999023438</ele>
        <time>2023-10-01T08:01:39.000Z</time>
      </trkpt>
      <trkpt lat="42.17834" lon="20.14096">
        <ele>818.70001220703</ele>
        <time>2023-10-01T08:01:38.000Z</time>
      </trkpt>
      <trkpt lat="42.17824" lon="20.14099">
        <ele>820.61999511719</ele>
        <time>2023-10-01T08:01:37.000Z</time>
      </trkpt>
      <trkpt lat="42.17819" lon="20.14099">
        <ele>820.61999511719</ele>
        <time>2023-10-01T08:01:36.000Z</time>
      </trkpt>
      <trkpt lat="42.17798" lon="20.14097">
        <ele>821.58001708984</ele>
        <time>2023-10-01T08:01:34.000Z</time>
      </trkpt>
      <trkpt lat="42.17736" lon="20.14101">
        <ele>825.90997314453</ele>
        <time>2023-10-01T08:01:29.000Z</time>
      </trkpt>
      <trkpt lat="42.17729" lon="20.14103">
        <ele>825.42999267578</ele>
        <time>2023-10-01T08:01:28.000Z</time>
      </trkpt>
      <trkpt lat="42.17723" lon="20.14109">
        <ele>824.95001220703</ele>
        <time>2023-10-01T08:01:27.000Z</time>
      </trkpt>
      <trkpt lat="42.17723" lon="20.14118">
        <ele>824.95001220703</ele>
        <time>2023-10-01T08:01:26.000Z</time>
      </trkpt>
      <trkpt lat="42.17726" lon="20.14128">
        <ele>824.95001220703</ele>
        <time>2023-10-01T08:01:25.000Z</time>
      </trkpt>
      <trkpt lat="42.17727" lon="20.1413">
        <ele>824.95001220703</ele>
        <time>2023-10-01T08:01:24.000Z</time>
      </trkpt>
      <trkpt lat="42.17737" lon="20.1415">
        <ele>824.46997070312</ele>
        <time>2023-10-01T08:01:23.000Z</time>
      </trkpt>
      <trkpt lat="42.1774" lon="20.14157">
        <ele>824.46997070312</ele>
        <time>2023-10-01T08:01:22.000Z</time>
      </trkpt>
      <trkpt lat="42.17748" lon="20.14178">
        <ele>824.46997070312</ele>
        <time>2023-10-01T08:01:21.000Z</time>
      </trkpt>
      <trkpt lat="42.17757" lon="20.142">
        <ele>824.46997070312</ele>
        <time>2023-10-01T08:01:19.000Z</time>
      </trkpt>
      <trkpt lat="42.1776" lon="20.14211">
        <ele>824.46997070312</ele>
        <time>2023-10-01T08:01:18.000Z</time>
      </trkpt>
      <trkpt lat="42.17759" lon="20.14221">
        <ele>824.46997070312</ele>
        <time>2023-10-01T08:01:17.000Z</time>
      </trkpt>
      <trkpt lat="42.17756" lon="20.14232">
        <ele>824.95001220703</ele>
        <time>2023-10-01T08:01:16.000Z</time>
      </trkpt>
      <trkpt lat="42.1775" lon="20.14245">
        <ele>824.95001220703</ele>
        <time>2023-10-01T08:01:15.000Z</time>
      </trkpt>
      <trkpt lat="42.17743" lon="20.14254">
        <ele>825.42999267578</ele>
        <time>2023-10-01T08:01:14.000Z</time>
      </trkpt>
      <trkpt lat="42.17739" lon="20.14257">
        <ele>825.42999267578</ele>
        <time>2023-10-01T08:01:13.000Z</time>
      </trkpt>
      <trkpt lat="42.17723" lon="20.1427">
        <ele>826.86999511719</ele>
        <time>2023-10-01T08:01:12.000Z</time>
      </trkpt>
      <trkpt lat="42.17712" lon="20.14276">
        <ele>828.30999755859</ele>
        <time>2023-10-01T08:01:11.000Z</time>
      </trkpt>
      <trkpt lat="42.17702" lon="20.14279">
        <ele>829.27001953125</ele>
        <time>2023-10-01T08:01:10.000Z</time>
      </trkpt>
      <trkpt lat="42.17688" lon="20.1428">
        <ele>830.23999023438</ele>
        <time>2023-10-01T08:01:09.000Z</time>
      </trkpt>
      <trkpt lat="42.17678" lon="20.14281">
        <ele>830.71997070312</ele>
        <time>2023-10-01T08:01:08.000Z</time>
      </trkpt>
      <trkpt lat="42.17663" lon="20.14285">
        <ele>831.67999267578</ele>
        <time>2023-10-01T08:01:07.000Z</time>
      </trkpt>
      <trkpt lat="42.17652" lon="20.14291">
        <ele>831.20001220703</ele>
        <time>2023-10-01T08:01:06.000Z</time>
      </trkpt>
      <trkpt lat="42.17642" lon="20.143">
        <ele>830.71997070312</ele>
        <time>2023-10-01T08:01:05.000Z</time>
      </trkpt>
      <trkpt lat="42.17633" lon="20.14311">
        <ele>830.23999023438</ele>
        <time>2023-10-01T08:01:04.000Z</time>
      </trkpt>
      <trkpt lat="42.17626" lon="20.14324">
        <ele>828.78997802734</ele>
        <time>2023-10-01T08:01:03.000Z</time>
      </trkpt>
      <trkpt lat="42.17612" lon="20.1435">
        <ele>827.34997558594</ele>
        <time>2023-10-01T08:01:01.000Z</time>
      </trkpt>
      <trkpt lat="42.17606" lon="20.14359">
        <ele>826.86999511719</ele>
        <time>2023-10-01T08:01:00.000Z</time>
      </trkpt>
      <trkpt lat="42.17597" lon="20.14363">
        <ele>826.39001464844</ele>
        <time>2023-10-01T08:00:59.000Z</time>
      </trkpt>
      <trkpt lat="42.17595" lon="20.14364">
        <ele>826.39001464844</ele>
        <time>2023-10-01T08:00:58.000Z</time>
      </trkpt>
      <trkpt lat="42.17576" lon="20.14368">
        <ele>826.39001464844</ele>
        <time>2023-10-01T08:00:57.000Z</time>
      </trkpt>
      <trkpt lat="42.17567" lon="20.14372">
        <ele>826.86999511719</ele>
        <time>2023-10-01T08:00:56.000Z</time>
      </trkpt>
      <trkpt lat="42.17539" lon="20.1439">
        <ele>827.83001708984</ele>
        <time>2023-10-01T08:00:53.000Z</time>
      </trkpt>
      <trkpt lat="42.17522" lon="20.14398">
        <ele>829.27001953125</ele>
        <time>2023-10-01T08:00:52.000Z</time>
      </trkpt>
      <trkpt lat="42.17512" lon="20.14398">
        <ele>828.78997802734</ele>
        <time>2023-10-01T08:00:51.000Z</time>
      </trkpt>
      <trkpt lat="42.17503" lon="20.14394">
        <ele>828.78997802734</ele>
        <time>2023-10-01T08:00:50.000Z</time>
      </trkpt>
      <trkpt lat="42.17494" lon="20.14388">
        <ele>829.27001953125</ele>
        <time>2023-10-01T08:00:49.000Z</time>
      </trkpt>
      <trkpt lat="42.1748" lon="20.14379">
        <ele>828.78997802734</ele>
        <time>2023-10-01T08:00:48.000Z</time>
      </trkpt>
      <trkpt lat="42.17469" lon="20.14372">
        <ele>828.30999755859</ele>
        <time>2023-10-01T08:00:47.000Z</time>
      </trkpt>
      <trkpt lat="42.17461" lon="20.14372">
        <ele>827.83001708984</ele>
        <time>2023-10-01T08:00:46.000Z</time>
      </trkpt>
      <trkpt lat="42.17454" lon="20.14377">
        <ele>827.34997558594</ele>
        <time>2023-10-01T08:00:45.000Z</time>
      </trkpt>
      <trkpt lat="42.1745" lon="20.14386">
        <ele>826.86999511719</ele>
        <time>2023-10-01T08:00:44.000Z</time>
      </trkpt>
      <trkpt lat="42.17445" lon="20.14398">
        <ele>826.39001464844</ele>
        <time>2023-10-01T08:00:43.000Z</time>
      </trkpt>
      <trkpt lat="42.17443" lon="20.14413">
        <ele>825.42999267578</ele>
        <time>2023-10-01T08:00:42.000Z</time>
      </trkpt>
      <trkpt lat="42.17442" lon="20.1443">
        <ele>824.46997070312</ele>
        <time>2023-10-01T08:00:41.000Z</time>
      </trkpt>
      <trkpt lat="42.1744" lon="20.14446">
        <ele>823.98999023438</ele>
        <time>2023-10-01T08:00:40.000Z</time>
      </trkpt>
      <trkpt lat="42.17436" lon="20.14459">
        <ele>823.51000976562</ele>
        <time>2023-10-01T08:00:39.000Z</time>
      </trkpt>
      <trkpt lat="42.17429" lon="20.1447">
        <ele>822.54998779297</ele>
        <time>2023-10-01T08:00:38.000Z</time>
      </trkpt>
      <trkpt lat="42.1742" lon="20.14477">
        <ele>822.54998779297</ele>
        <time>2023-10-01T08:00:37.000Z</time>
      </trkpt>
      <trkpt lat="42.17414" lon="20.1448">
        <ele>823.03002929688</ele>
        <time>2023-10-01T08:00:36.000Z</time>
      </trkpt>
      <trkpt lat="42.174" lon="20.14486">
        <ele>822.54998779297</ele>
        <time>2023-10-01T08:00:35.000Z</time>
      </trkpt>
      <trkpt lat="42.1739" lon="20.14492">
        <ele>821.09997558594</ele>
        <time>2023-10-01T08:00:34.000Z</time>
      </trkpt>
      <trkpt lat="42.17386" lon="20.145">
        <ele>820.14001464844</ele>
        <time>2023-10-01T08:00:33.000Z</time>
      </trkpt>
      <trkpt lat="42.17384" lon="20.14512">
        <ele>819.65997314453</ele>
        <time>2023-10-01T08:00:32.000Z</time>
      </trkpt>
      <trkpt lat="42.17386" lon="20.14524">
        <ele>819.65997314453</ele>
        <time>2023-10-01T08:00:31.000Z</time>
      </trkpt>
      <trkpt lat="42.17391" lon="20.14537">
        <ele>818.70001220703</ele>
        <time>2023-10-01T08:00:30.000Z</time>
      </trkpt>
      <trkpt lat="42.17394" lon="20.14544">
        <ele>818.21997070312</ele>
        <time>2023-10-01T08:00:29.000Z</time>
      </trkpt>
      <trkpt lat="42.174" lon="20.14556">
        <ele>817.26000976562</ele>
        <time>2023-10-01T08:00:28.000Z</time>
      </trkpt>
      <trkpt lat="42.17402" lon="20.14567">
        <ele>816.29998779297</ele>
        <time>2023-10-01T08:00:27.000Z</time>
      </trkpt>
      <trkpt lat="42.17401" lon="20.14576">
        <ele>814.84997558594</ele>
        <time>2023-10-01T08:00:26.000Z</time>
      </trkpt>
      <trkpt lat="42.17396" lon="20.14586">
        <ele>813.89001464844</ele>
        <time>2023-10-01T08:00:25.000Z</time>
      </trkpt>
      <trkpt lat="42.17388" lon="20.14595">
        <ele>813.40997314453</ele>
        <time>2023-10-01T08:00:24.000Z</time>
      </trkpt>
      <trkpt lat="42.17378" lon="20.14608">
        <ele>811.96997070312</ele>
        <time>2023-10-01T08:00:23.000Z</time>
      </trkpt>
      <trkpt lat="42.17372" lon="20.14621">
        <ele>812.45001220703</ele>
        <time>2023-10-01T08:00:22.000Z</time>
      </trkpt>
      <trkpt lat="42.17369" lon="20.14634">
        <ele>812.45001220703</ele>
        <time>2023-10-01T08:00:21.000Z</time>
      </trkpt>
      <trkpt lat="42.17371" lon="20.14647">
        <ele>812.45001220703</ele>
        <time>2023-10-01T08:00:20.000Z</time>
      </trkpt>
      <trkpt lat="42.17376" lon="20.14659">
        <ele>812.92999267578</ele>
        <time>2023-10-01T08:00:19.000Z</time>
      </trkpt>
      <trkpt lat="42.17382" lon="20.14667">
        <ele>813.40997314453</ele>
        <time>2023-10-01T08:00:18.000Z</time>
      </trkpt>
      <trkpt lat="42.17394" lon="20.1468">
        <ele>813.40997314453</ele>
        <time>2023-10-01T08:00:17.000Z</time>
      </trkpt>
      <trkpt lat="42.17398" lon="20.14686">
        <ele>813.89001464844</ele>
        <time>2023-10-01T08:00:16.000Z</time>
      </trkpt>
      <trkpt lat="42.17405" lon="20.14696">
        <ele>814.36999511719</ele>
        <time>2023-10-01T08:00:15.000Z</time>
      </trkpt>
      <trkpt lat="42.17411" lon="20.14707">
        <ele>814.36999511719</ele>
        <time>2023-10-01T08:00:14.000Z</time>
      </trkpt>
      <trkpt lat="42.17412" lon="20.14714">
        <ele>814.36999511719</ele>
        <time>2023-10-01T08:00:13.000Z</time>
      </trkpt>
      <trkpt lat="42.17411" lon="20.14721">
        <ele>814.36999511719</ele>
        <time>2023-10-01T08:00:12.000Z</time>
      </trkpt>
      <trkpt lat="42.17409" lon="20.14726">
        <ele>814.36999511719</ele>
        <time>2023-10-01T08:00:11.000Z</time>
      </trkpt>
      <trkpt lat="42.17403" lon="20.1474">
        <ele>814.84997558594</ele>
        <time>2023-10-01T08:00:10.000Z</time>
      </trkpt>
      <trkpt lat="42.17399" lon="20.14749">
        <ele>815.34002685547</ele>
        <time>2023-10-01T08:00:09.000Z</time>
      </trkpt>
      <trkpt lat="42.17396" lon="20.14759">
        <ele>814.84997558594</ele>
        <time>2023-10-01T08:00:08.000Z</time>
      </trkpt>
      <trkpt lat="42.17394" lon="20.14765">
        <ele>815.34002685547</ele>
        <time>2023-10-01T08:00:07.000Z</time>
      </trkpt>
      <trkpt lat="42.17391" lon="20.14779">
        <ele>815.34002685547</ele>
        <time>2023-10-01T08:00:06.000Z</time>
      </trkpt>
      <trkpt lat="42.1739" lon="20.14785">
        <ele>814.84997558594</ele>
        <time>2023-10-01T08:00:05.000Z</time>
      </trkpt>
      <trkpt lat="42.17386" lon="20.14801">
        <ele>814.84997558594</ele>
        <time>2023-10-01T08:00:04.000Z</time>
      </trkpt>
      <trkpt lat="42.17384" lon="20.1481">
        <ele>814.84997558594</ele>
        <time>2023-10-01T08:00:03.000Z</time>
      </trkpt>
      <trkpt lat="42.17381" lon="20.14823">
        <ele>814.84997558594</ele>
        <time>2023-10-01T08:00:02.000Z</time>
      </trkpt>
      <trkpt lat="42.1738" lon="20.14828">
        <ele>814.84997558594</ele>
        <time>2023-10-01T08:00:01.000Z</time>
      </trkpt>
      <trkpt lat="42.17374" lon="20.14844">
        <ele>814.36999511719</ele>
        <time>2023-10-01T08:00:00.000Z</time>
      </trkpt>
      <trkpt lat="42.17369" lon="20.14854">
        <ele>813.89001464844</ele>
        <time>2023-10-01T07:59:59.000Z</time>
      </trkpt>
      <trkpt lat="42.17366" lon="20.14864">
        <ele>812.92999267578</ele>
        <time>2023-10-01T07:59:58.000Z</time>
      </trkpt>
      <trkpt lat="42.17364" lon="20.14874">
        <ele>812.92999267578</ele>
        <time>2023-10-01T07:59:57.000Z</time>
      </trkpt>
      <trkpt lat="42.17365" lon="20.14881">
        <ele>812.92999267578</ele>
        <time>2023-10-01T07:59:56.000Z</time>
      </trkpt>
      <trkpt lat="42.17367" lon="20.14894">
        <ele>812.45001220703</ele>
        <time>2023-10-01T07:59:55.000Z</time>
      </trkpt>
      <trkpt lat="42.17369" lon="20.14909">
        <ele>811.96997070312</ele>
        <time>2023-10-01T07:59:54.000Z</time>
      </trkpt>
      <trkpt lat="42.1737" lon="20.14923">
        <ele>811.48999023438</ele>
        <time>2023-10-01T07:59:53.000Z</time>
      </trkpt>
      <trkpt lat="42.1737" lon="20.14936">
        <ele>811.01000976562</ele>
        <time>2023-10-01T07:59:52.000Z</time>
      </trkpt>
      <trkpt lat="42.17371" lon="20.14948">
        <ele>811.01000976562</ele>
        <time>2023-10-01T07:59:51.000Z</time>
      </trkpt>
      <trkpt lat="42.17375" lon="20.14959">
        <ele>811.48999023438</ele>
        <time>2023-10-01T07:59:50.000Z</time>
      </trkpt>
      <trkpt lat="42.17381" lon="20.14969">
        <ele>811.48999023438</ele>
        <time>2023-10-01T07:59:49.000Z</time>
      </trkpt>
      <trkpt lat="42.1739" lon="20.14977">
        <ele>811.01000976562</ele>
        <time>2023-10-01T07:59:48.000Z</time>
      </trkpt>
      <trkpt lat="42.17394" lon="20.1498">
        <ele>810.53002929688</ele>
        <time>2023-10-01T07:59:47.000Z</time>
      </trkpt>
      <trkpt lat="42.17409" lon="20.14989">
        <ele>809.57000732422</ele>
        <time>2023-10-01T07:59:46.000Z</time>
      </trkpt>
      <trkpt lat="42.17424" lon="20.14996">
        <ele>808.60998535156</ele>
        <time>2023-10-01T07:59:45.000Z</time>
      </trkpt>
      <trkpt lat="42.17437" lon="20.15001">
        <ele>808.60998535156</ele>
        <time>2023-10-01T07:59:44.000Z</time>
      </trkpt>
      <trkpt lat="42.17444" lon="20.15002">
        <ele>808.13000488281</ele>
        <time>2023-10-01T07:59:43.000Z</time>
      </trkpt>
      <trkpt lat="42.17461" lon="20.15006">
        <ele>807.64001464844</ele>
        <time>2023-10-01T07:59:42.000Z</time>
      </trkpt>
      <trkpt lat="42.17472" lon="20.15009">
        <ele>807.64001464844</ele>
        <time>2023-10-01T07:59:41.000Z</time>
      </trkpt>
      <trkpt lat="42.17502" lon="20.15021">
        <ele>805.71997070312</ele>
        <time>2023-10-01T07:59:39.000Z</time>
      </trkpt>
      <trkpt lat="42.17506" lon="20.15022">
        <ele>805.71997070312</ele>
        <time>2023-10-01T07:59:38.000Z</time>
      </trkpt>
      <trkpt lat="42.17544" lon="20.15033">
        <ele>805.71997070312</ele>
        <time>2023-10-01T07:59:35.000Z</time>
      </trkpt>
      <trkpt lat="42.17593" lon="20.15043">
        <ele>806.20001220703</ele>
        <time>2023-10-01T07:59:32.000Z</time>
      </trkpt>
      <trkpt lat="42.17601" lon="20.15046">
        <ele>805.71997070312</ele>
        <time>2023-10-01T07:59:31.000Z</time>
      </trkpt>
      <trkpt lat="42.17659" lon="20.15071">
        <ele>803.79998779297</ele>
        <time>2023-10-01T07:59:27.000Z</time>
      </trkpt>
      <trkpt lat="42.1767" lon="20.15078">
        <ele>804.28002929688</ele>
        <time>2023-10-01T07:59:26.000Z</time>
      </trkpt>
      <trkpt lat="42.17678" lon="20.15083">
        <ele>804.28002929688</ele>
        <time>2023-10-01T07:59:25.000Z</time>
      </trkpt>
      <trkpt lat="42.1769" lon="20.15094">
        <ele>804.28002929688</ele>
        <time>2023-10-01T07:59:24.000Z</time>
      </trkpt>
      <trkpt lat="42.17697" lon="20.15101">
        <ele>804.28002929688</ele>
        <time>2023-10-01T07:59:23.000Z</time>
      </trkpt>
      <trkpt lat="42.17702" lon="20.1511">
        <ele>804.28002929688</ele>
        <time>2023-10-01T07:59:22.000Z</time>
      </trkpt>
      <trkpt lat="42.17705" lon="20.15117">
        <ele>804.76000976562</ele>
        <time>2023-10-01T07:59:21.000Z</time>
      </trkpt>
      <trkpt lat="42.17706" lon="20.15125">
        <ele>804.28002929688</ele>
        <time>2023-10-01T07:59:20.000Z</time>
      </trkpt>
      <trkpt lat="42.17703" lon="20.15134">
        <ele>804.28002929688</ele>
        <time>2023-10-01T07:59:19.000Z</time>
      </trkpt>
      <trkpt lat="42.17698" lon="20.15141">
        <ele>804.76000976562</ele>
        <time>2023-10-01T07:59:18.000Z</time>
      </trkpt>
      <trkpt lat="42.17684" lon="20.15159">
        <ele>804.76000976562</ele>
        <time>2023-10-01T07:59:16.000Z</time>
      </trkpt>
      <trkpt lat="42.17677" lon="20.15167">
        <ele>803.79998779297</ele>
        <time>2023-10-01T07:59:15.000Z</time>
      </trkpt>
      <trkpt lat="42.17668" lon="20.15174">
        <ele>802.84002685547</ele>
        <time>2023-10-01T07:59:14.000Z</time>
      </trkpt>
      <trkpt lat="42.17661" lon="20.15179">
        <ele>801.88000488281</ele>
        <time>2023-10-01T07:59:13.000Z</time>
      </trkpt>
      <trkpt lat="42.17652" lon="20.15184">
        <ele>801.40002441406</ele>
        <time>2023-10-01T07:59:12.000Z</time>
      </trkpt>
      <trkpt lat="42.17645" lon="20.15191">
        <ele>800.91998291016</ele>
        <time>2023-10-01T07:59:11.000Z</time>
      </trkpt>
      <trkpt lat="42.1764" lon="20.15198">
        <ele>800.91998291016</ele>
        <time>2023-10-01T07:59:10.000Z</time>
      </trkpt>
      <trkpt lat="42.17638" lon="20.15206">
        <ele>800.91998291016</ele>
        <time>2023-10-01T07:59:09.000Z</time>
      </trkpt>
      <trkpt lat="42.17638" lon="20.15215">
        <ele>801.40002441406</ele>
        <time>2023-10-01T07:59:08.000Z</time>
      </trkpt>
      <trkpt lat="42.17639" lon="20.15225">
        <ele>801.88000488281</ele>
        <time>2023-10-01T07:59:07.000Z</time>
      </trkpt>
      <trkpt lat="42.17641" lon="20.15232">
        <ele>801.88000488281</ele>
        <time>2023-10-01T07:59:06.000Z</time>
      </trkpt>
      <trkpt lat="42.17645" lon="20.15242">
        <ele>801.88000488281</ele>
        <time>2023-10-01T07:59:05.000Z</time>
      </trkpt>
      <trkpt lat="42.17646" lon="20.15244">
        <ele>801.88000488281</ele>
        <time>2023-10-01T07:59:04.000Z</time>
      </trkpt>
      <trkpt lat="42.1765" lon="20.15255">
        <ele>801.88000488281</ele>
        <time>2023-10-01T07:59:03.000Z</time>
      </trkpt>
      <trkpt lat="42.17652" lon="20.15262">
        <ele>801.88000488281</ele>
        <time>2023-10-01T07:59:02.000Z</time>
      </trkpt>
      <trkpt lat="42.17653" lon="20.15265">
        <ele>801.88000488281</ele>
        <time>2023-10-01T07:59:01.000Z</time>
      </trkpt>
      <trkpt lat="42.17655" lon="20.15276">
        <ele>801.40002441406</ele>
        <time>2023-10-01T07:59:00.000Z</time>
      </trkpt>
      <trkpt lat="42.17655" lon="20.15288">
        <ele>800.44000244141</ele>
        <time>2023-10-01T07:58:59.000Z</time>
      </trkpt>
      <trkpt lat="42.17654" lon="20.1532">
        <ele>797.54998779297</ele>
        <time>2023-10-01T07:58:56.000Z</time>
      </trkpt>
      <trkpt lat="42.17654" lon="20.1534">
        <ele>796.59002685547</ele>
        <time>2023-10-01T07:58:55.000Z</time>
      </trkpt>
      <trkpt lat="42.17654" lon="20.15349">
        <ele>796.10998535156</ele>
        <time>2023-10-01T07:58:54.000Z</time>
      </trkpt>
      <trkpt lat="42.17653" lon="20.15356">
        <ele>795.63000488281</ele>
        <time>2023-10-01T07:58:53.000Z</time>
      </trkpt>
      <trkpt lat="42.17652" lon="20.15371">
        <ele>794.66998291016</ele>
        <time>2023-10-01T07:58:52.000Z</time>
      </trkpt>
      <trkpt lat="42.17651" lon="20.15381">
        <ele>794.19000244141</ele>
        <time>2023-10-01T07:58:51.000Z</time>
      </trkpt>
      <trkpt lat="42.17649" lon="20.15391">
        <ele>793.71002197266</ele>
        <time>2023-10-01T07:58:50.000Z</time>
      </trkpt>
      <trkpt lat="42.17646" lon="20.154">
        <ele>793.71002197266</ele>
        <time>2023-10-01T07:58:49.000Z</time>
      </trkpt>
      <trkpt lat="42.17632" lon="20.15429">
        <ele>792.26000976562</ele>
        <time>2023-10-01T07:58:46.000Z</time>
      </trkpt>
      <trkpt lat="42.17613" lon="20.15467">
        <ele>791.29998779297</ele>
        <time>2023-10-01T07:58:44.000Z</time>
      </trkpt>
      <trkpt lat="42.17607" lon="20.15482">
        <ele>791.29998779297</ele>
        <time>2023-10-01T07:58:43.000Z</time>
      </trkpt>
      <trkpt lat="42.17605" lon="20.15487">
        <ele>791.29998779297</ele>
        <time>2023-10-01T07:58:42.000Z</time>
      </trkpt>
      <trkpt lat="42.17593" lon="20.1551">
        <ele>790.82000732422</ele>
        <time>2023-10-01T07:58:41.000Z</time>
      </trkpt>
      <trkpt lat="42.17586" lon="20.1552">
        <ele>790.34002685547</ele>
        <time>2023-10-01T07:58:40.000Z</time>
      </trkpt>
      <trkpt lat="42.17575" lon="20.15531">
        <ele>788.41998291016</ele>
        <time>2023-10-01T07:58:39.000Z</time>
      </trkpt>
      <trkpt lat="42.17566" lon="20.1554">
        <ele>787.94000244141</ele>
        <time>2023-10-01T07:58:38.000Z</time>
      </trkpt>
      <trkpt lat="42.17558" lon="20.15552">
        <ele>787.94000244141</ele>
        <time>2023-10-01T07:58:37.000Z</time>
      </trkpt>
      <trkpt lat="42.17553" lon="20.15566">
        <ele>787.94000244141</ele>
        <time>2023-10-01T07:58:36.000Z</time>
      </trkpt>
      <trkpt lat="42.17552" lon="20.15581">
        <ele>788.41998291016</ele>
        <time>2023-10-01T07:58:35.000Z</time>
      </trkpt>
      <trkpt lat="42.17553" lon="20.15595">
        <ele>788.90002441406</ele>
        <time>2023-10-01T07:58:34.000Z</time>
      </trkpt>
      <trkpt lat="42.17558" lon="20.15606">
        <ele>789.38000488281</ele>
        <time>2023-10-01T07:58:33.000Z</time>
      </trkpt>
      <trkpt lat="42.17564" lon="20.15615">
        <ele>789.85998535156</ele>
        <time>2023-10-01T07:58:32.000Z</time>
      </trkpt>
      <trkpt lat="42.17571" lon="20.15626">
        <ele>789.85998535156</ele>
        <time>2023-10-01T07:58:31.000Z</time>
      </trkpt>
      <trkpt lat="42.17575" lon="20.15638">
        <ele>789.85998535156</ele>
        <time>2023-10-01T07:58:30.000Z</time>
      </trkpt>
      <trkpt lat="42.17576" lon="20.15649">
        <ele>790.34002685547</ele>
        <time>2023-10-01T07:58:29.000Z</time>
      </trkpt>
      <trkpt lat="42.17577" lon="20.15659">
        <ele>790.34002685547</ele>
        <time>2023-10-01T07:58:28.000Z</time>
      </trkpt>
      <trkpt lat="42.17578" lon="20.15706">
        <ele>792.26000976562</ele>
        <time>2023-10-01T07:58:26.000Z</time>
      </trkpt>
      <trkpt lat="42.17578" lon="20.1572">
        <ele>792.73999023438</ele>
        <time>2023-10-01T07:58:25.000Z</time>
      </trkpt>
      <trkpt lat="42.17576" lon="20.15732">
        <ele>793.71002197266</ele>
        <time>2023-10-01T07:58:24.000Z</time>
      </trkpt>
      <trkpt lat="42.17573" lon="20.15742">
        <ele>794.19000244141</ele>
        <time>2023-10-01T07:58:23.000Z</time>
      </trkpt>
      <trkpt lat="42.1757" lon="20.1575">
        <ele>794.66998291016</ele>
        <time>2023-10-01T07:58:22.000Z</time>
      </trkpt>
      <trkpt lat="42.17565" lon="20.15759">
        <ele>794.66998291016</ele>
        <time>2023-10-01T07:58:21.000Z</time>
      </trkpt>
      <trkpt lat="42.17561" lon="20.15767">
        <ele>794.66998291016</ele>
        <time>2023-10-01T07:58:20.000Z</time>
      </trkpt>
      <trkpt lat="42.17555" lon="20.15776">
        <ele>795.15002441406</ele>
        <time>2023-10-01T07:58:19.000Z</time>
      </trkpt>
      <trkpt lat="42.17548" lon="20.15784">
        <ele>795.15002441406</ele>
        <time>2023-10-01T07:58:18.000Z</time>
      </trkpt>
      <trkpt lat="42.1754" lon="20.15793">
        <ele>795.15002441406</ele>
        <time>2023-10-01T07:58:17.000Z</time>
      </trkpt>
      <trkpt lat="42.17533" lon="20.15802">
        <ele>795.63000488281</ele>
        <time>2023-10-01T07:58:16.000Z</time>
      </trkpt>
      <trkpt lat="42.17526" lon="20.15815">
        <ele>796.59002685547</ele>
        <time>2023-10-01T07:58:15.000Z</time>
      </trkpt>
      <trkpt lat="42.17521" lon="20.1583">
        <ele>797.07000732422</ele>
        <time>2023-10-01T07:58:14.000Z</time>
      </trkpt>
      <trkpt lat="42.17519" lon="20.15838">
        <ele>797.54998779297</ele>
        <time>2023-10-01T07:58:13.000Z</time>
      </trkpt>
      <trkpt lat="42.17515" lon="20.1586">
        <ele>798.51000976562</ele>
        <time>2023-10-01T07:58:12.000Z</time>
      </trkpt>
      <trkpt lat="42.17511" lon="20.15872">
        <ele>798.98999023438</ele>
        <time>2023-10-01T07:58:11.000Z</time>
      </trkpt>
      <trkpt lat="42.17505" lon="20.15879">
        <ele>799.46997070312</ele>
        <time>2023-10-01T07:58:10.000Z</time>
      </trkpt>
      <trkpt lat="42.17497" lon="20.15881">
        <ele>799.95001220703</ele>
        <time>2023-10-01T07:58:09.000Z</time>
      </trkpt>
      <trkpt lat="42.17489" lon="20.1588">
        <ele>800.44000244141</ele>
        <time>2023-10-01T07:58:08.000Z</time>
      </trkpt>
      <trkpt lat="42.1748" lon="20.15877">
        <ele>800.91998291016</ele>
        <time>2023-10-01T07:58:07.000Z</time>
      </trkpt>
      <trkpt lat="42.17469" lon="20.15878">
        <ele>801.40002441406</ele>
        <time>2023-10-01T07:58:06.000Z</time>
      </trkpt>
      <trkpt lat="42.1746" lon="20.15885">
        <ele>801.88000488281</ele>
        <time>2023-10-01T07:58:05.000Z</time>
      </trkpt>
      <trkpt lat="42.17457" lon="20.15888">
        <ele>801.88000488281</ele>
        <time>2023-10-01T07:58:04.000Z</time>
      </trkpt>
      <trkpt lat="42.17446" lon="20.15903">
        <ele>802.84002685547</ele>
        <time>2023-10-01T07:58:03.000Z</time>
      </trkpt>
      <trkpt lat="42.17438" lon="20.15911">
        <ele>802.84002685547</ele>
        <time>2023-10-01T07:58:02.000Z</time>
      </trkpt>
      <trkpt lat="42.1743" lon="20.15914">
        <ele>802.35998535156</ele>
        <time>2023-10-01T07:58:01.000Z</time>
      </trkpt>
      <trkpt lat="42.1742" lon="20.15913">
        <ele>801.40002441406</ele>
        <time>2023-10-01T07:58:00.000Z</time>
      </trkpt>
      <trkpt lat="42.1741" lon="20.15908">
        <ele>800.91998291016</ele>
        <time>2023-10-01T07:57:59.000Z</time>
      </trkpt>
      <trkpt lat="42.17399" lon="20.15903">
        <ele>800.91998291016</ele>
        <time>2023-10-01T07:57:58.000Z</time>
      </trkpt>
      <trkpt lat="42.1739" lon="20.15901">
        <ele>801.40002441406</ele>
        <time>2023-10-01T07:57:57.000Z</time>
      </trkpt>
      <trkpt lat="42.17383" lon="20.15902">
        <ele>801.40002441406</ele>
        <time>2023-10-01T07:57:56.000Z</time>
      </trkpt>
      <trkpt lat="42.17376" lon="20.1591">
        <ele>801.88000488281</ele>
        <time>2023-10-01T07:57:55.000Z</time>
      </trkpt>
      <trkpt lat="42.17371" lon="20.15922">
        <ele>802.35998535156</ele>
        <time>2023-10-01T07:57:54.000Z</time>
      </trkpt>
      <trkpt lat="42.17369" lon="20.15928">
        <ele>802.35998535156</ele>
        <time>2023-10-01T07:57:53.000Z</time>
      </trkpt>
      <trkpt lat="42.17365" lon="20.15944">
        <ele>803.32000732422</ele>
        <time>2023-10-01T07:57:52.000Z</time>
      </trkpt>
      <trkpt lat="42.1736" lon="20.15974">
        <ele>804.76000976562</ele>
        <time>2023-10-01T07:57:51.000Z</time>
      </trkpt>
      <trkpt lat="42.17356" lon="20.1599">
        <ele>805.71997070312</ele>
        <time>2023-10-01T07:57:50.000Z</time>
      </trkpt>
      <trkpt lat="42.1735" lon="20.16">
        <ele>806.67999267578</ele>
        <time>2023-10-01T07:57:49.000Z</time>
      </trkpt>
      <trkpt lat="42.17342" lon="20.16007">
        <ele>807.15997314453</ele>
        <time>2023-10-01T07:57:48.000Z</time>
      </trkpt>
      <trkpt lat="42.17336" lon="20.16011">
        <ele>807.64001464844</ele>
        <time>2023-10-01T07:57:47.000Z</time>
      </trkpt>
      <trkpt lat="42.17323" lon="20.16016">
        <ele>807.64001464844</ele>
        <time>2023-10-01T07:57:46.000Z</time>
      </trkpt>
      <trkpt lat="42.17243" lon="20.16051">
        <ele>808.13000488281</ele>
        <time>2023-10-01T07:57:40.000Z</time>
      </trkpt>
      <trkpt lat="42.17228" lon="20.16058">
        <ele>808.13000488281</ele>
        <time>2023-10-01T07:57:39.000Z</time>
      </trkpt>
      <trkpt lat="42.17217" lon="20.16065">
        <ele>807.64001464844</ele>
        <time>2023-10-01T07:57:38.000Z</time>
      </trkpt>
      <trkpt lat="42.17207" lon="20.16072">
        <ele>807.64001464844</ele>
        <time>2023-10-01T07:57:37.000Z</time>
      </trkpt>
      <trkpt lat="42.17197" lon="20.16079">
        <ele>807.15997314453</ele>
        <time>2023-10-01T07:57:36.000Z</time>
      </trkpt>
      <trkpt lat="42.17187" lon="20.16082">
        <ele>807.15997314453</ele>
        <time>2023-10-01T07:57:35.000Z</time>
      </trkpt>
      <trkpt lat="42.17177" lon="20.16081">
        <ele>806.67999267578</ele>
        <time>2023-10-01T07:57:34.000Z</time>
      </trkpt>
      <trkpt lat="42.17166" lon="20.16075">
        <ele>806.20001220703</ele>
        <time>2023-10-01T07:57:33.000Z</time>
      </trkpt>
      <trkpt lat="42.17157" lon="20.16069">
        <ele>805.23999023438</ele>
        <time>2023-10-01T07:57:32.000Z</time>
      </trkpt>
      <trkpt lat="42.17147" lon="20.16064">
        <ele>804.28002929688</ele>
        <time>2023-10-01T07:57:31.000Z</time>
      </trkpt>
      <trkpt lat="42.17136" lon="20.16064">
        <ele>803.32000732422</ele>
        <time>2023-10-01T07:57:30.000Z</time>
      </trkpt>
      <trkpt lat="42.17124" lon="20.16068">
        <ele>802.35998535156</ele>
        <time>2023-10-01T07:57:29.000Z</time>
      </trkpt>
      <trkpt lat="42.17116" lon="20.16073">
        <ele>802.35998535156</ele>
        <time>2023-10-01T07:57:28.000Z</time>
      </trkpt>
      <trkpt lat="42.17104" lon="20.16082">
        <ele>802.35998535156</ele>
        <time>2023-10-01T07:57:27.000Z</time>
      </trkpt>
      <trkpt lat="42.17092" lon="20.1609">
        <ele>801.88000488281</ele>
        <time>2023-10-01T07:57:26.000Z</time>
      </trkpt>
      <trkpt lat="42.17082" lon="20.16094">
        <ele>801.88000488281</ele>
        <time>2023-10-01T07:57:25.000Z</time>
      </trkpt>
      <trkpt lat="42.17071" lon="20.16097">
        <ele>801.88000488281</ele>
        <time>2023-10-01T07:57:24.000Z</time>
      </trkpt>
      <trkpt lat="42.17061" lon="20.16096">
        <ele>801.88000488281</ele>
        <time>2023-10-01T07:57:23.000Z</time>
      </trkpt>
      <trkpt lat="42.17051" lon="20.16091">
        <ele>801.88000488281</ele>
        <time>2023-10-01T07:57:22.000Z</time>
      </trkpt>
      <trkpt lat="42.17041" lon="20.16085">
        <ele>801.88000488281</ele>
        <time>2023-10-01T07:57:21.000Z</time>
      </trkpt>
      <trkpt lat="42.17029" lon="20.16077">
        <ele>801.40002441406</ele>
        <time>2023-10-01T07:57:20.000Z</time>
      </trkpt>
      <trkpt lat="42.17018" lon="20.16068">
        <ele>801.40002441406</ele>
        <time>2023-10-01T07:57:19.000Z</time>
      </trkpt>
      <trkpt lat="42.1701" lon="20.16057">
        <ele>801.40002441406</ele>
        <time>2023-10-01T07:57:18.000Z</time>
      </trkpt>
      <trkpt lat="42.17005" lon="20.16046">
        <ele>801.40002441406</ele>
        <time>2023-10-01T07:57:17.000Z</time>
      </trkpt>
      <trkpt lat="42.17002" lon="20.16033">
        <ele>800.44000244141</ele>
        <time>2023-10-01T07:57:16.000Z</time>
      </trkpt>
      <trkpt lat="42.16997" lon="20.16003">
        <ele>798.98999023438</ele>
        <time>2023-10-01T07:57:14.000Z</time>
      </trkpt>
      <trkpt lat="42.16985" lon="20.15948">
        <ele>797.54998779297</ele>
        <time>2023-10-01T07:57:10.000Z</time>
      </trkpt>
      <trkpt lat="42.1698" lon="20.15938">
        <ele>797.07000732422</ele>
        <time>2023-10-01T07:57:09.000Z</time>
      </trkpt>
      <trkpt lat="42.16974" lon="20.15931">
        <ele>797.07000732422</ele>
        <time>2023-10-01T07:57:08.000Z</time>
      </trkpt>
      <trkpt lat="42.16965" lon="20.1593">
        <ele>797.07000732422</ele>
        <time>2023-10-01T07:57:07.000Z</time>
      </trkpt>
      <trkpt lat="42.16961" lon="20.15931">
        <ele>797.07000732422</ele>
        <time>2023-10-01T07:57:06.000Z</time>
      </trkpt>
      <trkpt lat="42.16944" lon="20.15935">
        <ele>796.59002685547</ele>
        <time>2023-10-01T07:57:05.000Z</time>
      </trkpt>
      <trkpt lat="42.16933" lon="20.15933">
        <ele>796.10998535156</ele>
        <time>2023-10-01T07:57:04.000Z</time>
      </trkpt>
      <trkpt lat="42.16921" lon="20.15927">
        <ele>795.15002441406</ele>
        <time>2023-10-01T07:57:03.000Z</time>
      </trkpt>
      <trkpt lat="42.16912" lon="20.15919">
        <ele>794.66998291016</ele>
        <time>2023-10-01T07:57:02.000Z</time>
      </trkpt>
      <trkpt lat="42.169" lon="20.15909">
        <ele>794.66998291016</ele>
        <time>2023-10-01T07:57:01.000Z</time>
      </trkpt>
      <trkpt lat="42.16888" lon="20.15901">
        <ele>794.66998291016</ele>
        <time>2023-10-01T07:57:00.000Z</time>
      </trkpt>
      <trkpt lat="42.16875" lon="20.15894">
        <ele>794.66998291016</ele>
        <time>2023-10-01T07:56:59.000Z</time>
      </trkpt>
      <trkpt lat="42.16869" lon="20.15892">
        <ele>794.66998291016</ele>
        <time>2023-10-01T07:56:58.000Z</time>
      </trkpt>
      <trkpt lat="42.16845" lon="20.15885">
        <ele>794.19000244141</ele>
        <time>2023-10-01T07:56:57.000Z</time>
      </trkpt>
      <trkpt lat="42.16831" lon="20.15878">
        <ele>793.71002197266</ele>
        <time>2023-10-01T07:56:56.000Z</time>
      </trkpt>
      <trkpt lat="42.1682" lon="20.1587">
        <ele>792.73999023438</ele>
        <time>2023-10-01T07:56:55.000Z</time>
      </trkpt>
      <trkpt lat="42.16813" lon="20.15863">
        <ele>792.26000976562</ele>
        <time>2023-10-01T07:56:54.000Z</time>
      </trkpt>
      <trkpt lat="42.1679" lon="20.15837">
        <ele>790.82000732422</ele>
        <time>2023-10-01T07:56:52.000Z</time>
      </trkpt>
      <trkpt lat="42.16746" lon="20.15794">
        <ele>787.94000244141</ele>
        <time>2023-10-01T07:56:49.000Z</time>
      </trkpt>
      <trkpt lat="42.16733" lon="20.15785">
        <ele>786.97998046875</ele>
        <time>2023-10-01T07:56:48.000Z</time>
      </trkpt>
      <trkpt lat="42.16731" lon="20.15784">
        <ele>786.5</ele>
        <time>2023-10-01T07:56:47.000Z</time>
      </trkpt>
      <trkpt lat="42.16705" lon="20.15772">
        <ele>784.57000732422</ele>
        <time>2023-10-01T07:56:46.000Z</time>
      </trkpt>
      <trkpt lat="42.16692" lon="20.15762">
        <ele>784.09002685547</ele>
        <time>2023-10-01T07:56:45.000Z</time>
      </trkpt>
      <trkpt lat="42.16679" lon="20.15747">
        <ele>783.60998535156</ele>
        <time>2023-10-01T07:56:44.000Z</time>
      </trkpt>
      <trkpt lat="42.16669" lon="20.15733">
        <ele>783.60998535156</ele>
        <time>2023-10-01T07:56:43.000Z</time>
      </trkpt>
      <trkpt lat="42.16659" lon="20.15722">
        <ele>783.13000488281</ele>
        <time>2023-10-01T07:56:42.000Z</time>
      </trkpt>
      <trkpt lat="42.16651" lon="20.15716">
        <ele>782.65002441406</ele>
        <time>2023-10-01T07:56:41.000Z</time>
      </trkpt>
      <trkpt lat="42.16642" lon="20.15715">
        <ele>782.16998291016</ele>
        <time>2023-10-01T07:56:40.000Z</time>
      </trkpt>
      <trkpt lat="42.16635" lon="20.1572">
        <ele>781.21002197266</ele>
        <time>2023-10-01T07:56:39.000Z</time>
      </trkpt>
      <trkpt lat="42.16627" lon="20.15729">
        <ele>780.72998046875</ele>
        <time>2023-10-01T07:56:38.000Z</time>
      </trkpt>
      <trkpt lat="42.1662" lon="20.15741">
        <ele>780.25</ele>
        <time>2023-10-01T07:56:37.000Z</time>
      </trkpt>
      <trkpt lat="42.16613" lon="20.15752">
        <ele>779.28997802734</ele>
        <time>2023-10-01T07:56:36.000Z</time>
      </trkpt>
      <trkpt lat="42.16605" lon="20.15759">
        <ele>778.80999755859</ele>
        <time>2023-10-01T07:56:35.000Z</time>
      </trkpt>
      <trkpt lat="42.16596" lon="20.1576">
        <ele>777.84002685547</ele>
        <time>2023-10-01T07:56:34.000Z</time>
      </trkpt>
      <trkpt lat="42.16587" lon="20.15756">
        <ele>776.88000488281</ele>
        <time>2023-10-01T07:56:33.000Z</time>
      </trkpt>
      <trkpt lat="42.16581" lon="20.1575">
        <ele>776.40002441406</ele>
        <time>2023-10-01T07:56:32.000Z</time>
      </trkpt>
      <trkpt lat="42.16566" lon="20.15735">
        <ele>776.40002441406</ele>
        <time>2023-10-01T07:56:31.000Z</time>
      </trkpt>
      <trkpt lat="42.16556" lon="20.15721">
        <ele>776.40002441406</ele>
        <time>2023-10-01T07:56:30.000Z</time>
      </trkpt>
      <trkpt lat="42.16548" lon="20.15704">
        <ele>775.91998291016</ele>
        <time>2023-10-01T07:56:29.000Z</time>
      </trkpt>
      <trkpt lat="42.16526" lon="20.1565">
        <ele>776.40002441406</ele>
        <time>2023-10-01T07:56:26.000Z</time>
      </trkpt>
      <trkpt lat="42.16521" lon="20.15632">
        <ele>777.35998535156</ele>
        <time>2023-10-01T07:56:25.000Z</time>
      </trkpt>
      <trkpt lat="42.1652" lon="20.15615">
        <ele>777.84002685547</ele>
        <time>2023-10-01T07:56:24.000Z</time>
      </trkpt>
      <trkpt lat="42.1652" lon="20.15606">
        <ele>778.32000732422</ele>
        <time>2023-10-01T07:56:23.000Z</time>
      </trkpt>
      <trkpt lat="42.16523" lon="20.15584">
        <ele>776.40002441406</ele>
        <time>2023-10-01T07:56:22.000Z</time>
      </trkpt>
      <trkpt lat="42.16522" lon="20.15572">
        <ele>775.91998291016</ele>
        <time>2023-10-01T07:56:21.000Z</time>
      </trkpt>
      <trkpt lat="42.16517" lon="20.15562">
        <ele>775.44000244141</ele>
        <time>2023-10-01T07:56:20.000Z</time>
      </trkpt>
      <trkpt lat="42.16508" lon="20.15555">
        <ele>775.44000244141</ele>
        <time>2023-10-01T07:56:19.000Z</time>
      </trkpt>
      <trkpt lat="42.16499" lon="20.15552">
        <ele>775.91998291016</ele>
        <time>2023-10-01T07:56:18.000Z</time>
      </trkpt>
      <trkpt lat="42.16491" lon="20.1555">
        <ele>775.91998291016</ele>
        <time>2023-10-01T07:56:17.000Z</time>
      </trkpt>
      <trkpt lat="42.16468" lon="20.15546">
        <ele>775.91998291016</ele>
        <time>2023-10-01T07:56:16.000Z</time>
      </trkpt>
      <trkpt lat="42.16452" lon="20.15541">
        <ele>775.91998291016</ele>
        <time>2023-10-01T07:56:15.000Z</time>
      </trkpt>
      <trkpt lat="42.16439" lon="20.15532">
        <ele>775.91998291016</ele>
        <time>2023-10-01T07:56:14.000Z</time>
      </trkpt>
      <trkpt lat="42.16429" lon="20.15521">
        <ele>775.91998291016</ele>
        <time>2023-10-01T07:56:13.000Z</time>
      </trkpt>
      <trkpt lat="42.16421" lon="20.15508">
        <ele>775.91998291016</ele>
        <time>2023-10-01T07:56:12.000Z</time>
      </trkpt>
      <trkpt lat="42.16412" lon="20.15495">
        <ele>775.44000244141</ele>
        <time>2023-10-01T07:56:11.000Z</time>
      </trkpt>
      <trkpt lat="42.16401" lon="20.15487">
        <ele>775.91998291016</ele>
        <time>2023-10-01T07:56:10.000Z</time>
      </trkpt>
      <trkpt lat="42.16386" lon="20.15482">
        <ele>777.35998535156</ele>
        <time>2023-10-01T07:56:09.000Z</time>
      </trkpt>
      <trkpt lat="42.1637" lon="20.15479">
        <ele>778.80999755859</ele>
        <time>2023-10-01T07:56:08.000Z</time>
      </trkpt>
      <trkpt lat="42.16358" lon="20.15474">
        <ele>780.25</ele>
        <time>2023-10-01T07:56:07.000Z</time>
      </trkpt>
      <trkpt lat="42.16347" lon="20.15467">
        <ele>780.72998046875</ele>
        <time>2023-10-01T07:56:06.000Z</time>
      </trkpt>
      <trkpt lat="42.1634" lon="20.15462">
        <ele>780.72998046875</ele>
        <time>2023-10-01T07:56:05.000Z</time>
      </trkpt>
      <trkpt lat="42.16268" lon="20.15423">
        <ele>782.16998291016</ele>
        <time>2023-10-01T07:56:01.000Z</time>
      </trkpt>
      <trkpt lat="42.16259" lon="20.1542">
        <ele>782.16998291016</ele>
        <time>2023-10-01T07:56:00.000Z</time>
      </trkpt>
      <trkpt lat="42.1623" lon="20.1541">
        <ele>782.16998291016</ele>
        <time>2023-10-01T07:55:59.000Z</time>
      </trkpt>
      <trkpt lat="42.16192" lon="20.15399">
        <ele>780.72998046875</ele>
        <time>2023-10-01T07:55:57.000Z</time>
      </trkpt>
      <trkpt lat="42.16175" lon="20.15392">
        <ele>779.77001953125</ele>
        <time>2023-10-01T07:55:56.000Z</time>
      </trkpt>
      <trkpt lat="42.16171" lon="20.1539">
        <ele>779.77001953125</ele>
        <time>2023-10-01T07:55:55.000Z</time>
      </trkpt>
      <trkpt lat="42.16151" lon="20.15379">
        <ele>779.28997802734</ele>
        <time>2023-10-01T07:55:54.000Z</time>
      </trkpt>
      <trkpt lat="42.16138" lon="20.15371">
        <ele>779.28997802734</ele>
        <time>2023-10-01T07:55:53.000Z</time>
      </trkpt>
      <trkpt lat="42.16112" lon="20.15358">
        <ele>779.28997802734</ele>
        <time>2023-10-01T07:55:52.000Z</time>
      </trkpt>
      <trkpt lat="42.16096" lon="20.15352">
        <ele>779.28997802734</ele>
        <time>2023-10-01T07:55:51.000Z</time>
      </trkpt>
      <trkpt lat="42.16083" lon="20.15347">
        <ele>779.77001953125</ele>
        <time>2023-10-01T07:55:50.000Z</time>
      </trkpt>
      <trkpt lat="42.16071" lon="20.1534">
        <ele>780.25</ele>
        <time>2023-10-01T07:55:49.000Z</time>
      </trkpt>
      <trkpt lat="42.16062" lon="20.15334">
        <ele>780.25</ele>
        <time>2023-10-01T07:55:48.000Z</time>
      </trkpt>
      <trkpt lat="42.16053" lon="20.15332">
        <ele>779.77001953125</ele>
        <time>2023-10-01T07:55:47.000Z</time>
      </trkpt>
      <trkpt lat="42.16047" lon="20.15334">
        <ele>780.25</ele>
        <time>2023-10-01T07:55:46.000Z</time>
      </trkpt>
      <trkpt lat="42.16042" lon="20.15341">
        <ele>780.25</ele>
        <time>2023-10-01T07:55:45.000Z</time>
      </trkpt>
      <trkpt lat="42.16039" lon="20.1535">
        <ele>780.25</ele>
        <time>2023-10-01T07:55:44.000Z</time>
      </trkpt>
      <trkpt lat="42.16038" lon="20.1536">
        <ele>780.72998046875</ele>
        <time>2023-10-01T07:55:43.000Z</time>
      </trkpt>
      <trkpt lat="42.1604" lon="20.15371">
        <ele>780.72998046875</ele>
        <time>2023-10-01T07:55:42.000Z</time>
      </trkpt>
      <trkpt lat="42.16043" lon="20.1538">
        <ele>781.21002197266</ele>
        <time>2023-10-01T07:55:41.000Z</time>
      </trkpt>
      <trkpt lat="42.16051" lon="20.15397">
        <ele>781.69000244141</ele>
        <time>2023-10-01T07:55:40.000Z</time>
      </trkpt>
      <trkpt lat="42.16058" lon="20.15408">
        <ele>782.16998291016</ele>
        <time>2023-10-01T07:55:39.000Z</time>
      </trkpt>
      <trkpt lat="42.16069" lon="20.15429">
        <ele>781.69000244141</ele>
        <time>2023-10-01T07:55:38.000Z</time>
      </trkpt>
      <trkpt lat="42.1608" lon="20.15451">
        <ele>782.16998291016</ele>
        <time>2023-10-01T07:55:37.000Z</time>
      </trkpt>
      <trkpt lat="42.16088" lon="20.15464">
        <ele>782.65002441406</ele>
        <time>2023-10-01T07:55:36.000Z</time>
      </trkpt>
      <trkpt lat="42.16101" lon="20.15481">
        <ele>783.60998535156</ele>
        <time>2023-10-01T07:55:35.000Z</time>
      </trkpt>
      <trkpt lat="42.16108" lon="20.1549">
        <ele>784.09002685547</ele>
        <time>2023-10-01T07:55:34.000Z</time>
      </trkpt>
      <trkpt lat="42.16125" lon="20.15509">
        <ele>786.02001953125</ele>
        <time>2023-10-01T07:55:33.000Z</time>
      </trkpt>
      <trkpt lat="42.1614" lon="20.15524">
        <ele>786.5</ele>
        <time>2023-10-01T07:55:32.000Z</time>
      </trkpt>
      <trkpt lat="42.16149" lon="20.15538">
        <ele>786.97998046875</ele>
        <time>2023-10-01T07:55:31.000Z</time>
      </trkpt>
      <trkpt lat="42.16154" lon="20.15549">
        <ele>787.46002197266</ele>
        <time>2023-10-01T07:55:30.000Z</time>
      </trkpt>
      <trkpt lat="42.16162" lon="20.15569">
        <ele>787.46002197266</ele>
        <time>2023-10-01T07:55:29.000Z</time>
      </trkpt>
      <trkpt lat="42.16168" lon="20.15577">
        <ele>787.94000244141</ele>
        <time>2023-10-01T07:55:28.000Z</time>
      </trkpt>
      <trkpt lat="42.16206" lon="20.15626">
        <ele>789.85998535156</ele>
        <time>2023-10-01T07:55:25.000Z</time>
      </trkpt>
      <trkpt lat="42.16216" lon="20.15637">
        <ele>790.82000732422</ele>
        <time>2023-10-01T07:55:24.000Z</time>
      </trkpt>
      <trkpt lat="42.16226" lon="20.15649">
        <ele>791.29998779297</ele>
        <time>2023-10-01T07:55:23.000Z</time>
      </trkpt>
      <trkpt lat="42.16242" lon="20.15667">
        <ele>792.73999023438</ele>
        <time>2023-10-01T07:55:22.000Z</time>
      </trkpt>
      <trkpt lat="42.16256" lon="20.15682">
        <ele>793.71002197266</ele>
        <time>2023-10-01T07:55:21.000Z</time>
      </trkpt>
      <trkpt lat="42.16268" lon="20.15699">
        <ele>795.63000488281</ele>
        <time>2023-10-01T07:55:20.000Z</time>
      </trkpt>
      <trkpt lat="42.16271" lon="20.15704">
        <ele>796.10998535156</ele>
        <time>2023-10-01T07:55:19.000Z</time>
      </trkpt>
      <trkpt lat="42.16277" lon="20.15716">
        <ele>796.59002685547</ele>
        <time>2023-10-01T07:55:18.000Z</time>
      </trkpt>
      <trkpt lat="42.16293" lon="20.15751">
        <ele>797.07000732422</ele>
        <time>2023-10-01T07:55:16.000Z</time>
      </trkpt>
      <trkpt lat="42.16297" lon="20.15768">
        <ele>797.07000732422</ele>
        <time>2023-10-01T07:55:15.000Z</time>
      </trkpt>
      <trkpt lat="42.16298" lon="20.15775">
        <ele>797.54998779297</ele>
        <time>2023-10-01T07:55:14.000Z</time>
      </trkpt>
      <trkpt lat="42.163" lon="20.15803">
        <ele>797.54998779297</ele>
        <time>2023-10-01T07:55:13.000Z</time>
      </trkpt>
      <trkpt lat="42.16307" lon="20.15838">
        <ele>799.46997070312</ele>
        <time>2023-10-01T07:55:11.000Z</time>
      </trkpt>
      <trkpt lat="42.16311" lon="20.15864">
        <ele>800.91998291016</ele>
        <time>2023-10-01T07:55:10.000Z</time>
      </trkpt>
      <trkpt lat="42.16311" lon="20.15881">
        <ele>801.40002441406</ele>
        <time>2023-10-01T07:55:09.000Z</time>
      </trkpt>
      <trkpt lat="42.1631" lon="20.15896">
        <ele>801.88000488281</ele>
        <time>2023-10-01T07:55:08.000Z</time>
      </trkpt>
      <trkpt lat="42.16306" lon="20.15912">
        <ele>801.88000488281</ele>
        <time>2023-10-01T07:55:07.000Z</time>
      </trkpt>
      <trkpt lat="42.16304" lon="20.15916">
        <ele>801.88000488281</ele>
        <time>2023-10-01T07:55:06.000Z</time>
      </trkpt>
      <trkpt lat="42.16296" lon="20.15945">
        <ele>802.84002685547</ele>
        <time>2023-10-01T07:55:05.000Z</time>
      </trkpt>
      <trkpt lat="42.16293" lon="20.1596">
        <ele>805.23999023438</ele>
        <time>2023-10-01T07:55:04.000Z</time>
      </trkpt>
      <trkpt lat="42.16292" lon="20.15974">
        <ele>806.20001220703</ele>
        <time>2023-10-01T07:55:03.000Z</time>
      </trkpt>
      <trkpt lat="42.16294" lon="20.15985">
        <ele>807.15997314453</ele>
        <time>2023-10-01T07:55:02.000Z</time>
      </trkpt>
      <trkpt lat="42.16299" lon="20.16001">
        <ele>808.13000488281</ele>
        <time>2023-10-01T07:55:01.000Z</time>
      </trkpt>
      <trkpt lat="42.16307" lon="20.16015">
        <ele>810.04998779297</ele>
        <time>2023-10-01T07:55:00.000Z</time>
      </trkpt>
      <trkpt lat="42.16316" lon="20.16027">
        <ele>811.01000976562</ele>
        <time>2023-10-01T07:54:59.000Z</time>
      </trkpt>
      <trkpt lat="42.16322" lon="20.16033">
        <ele>811.48999023438</ele>
        <time>2023-10-01T07:54:58.000Z</time>
      </trkpt>
      <trkpt lat="42.16337" lon="20.16044">
        <ele>812.92999267578</ele>
        <time>2023-10-01T07:54:57.000Z</time>
      </trkpt>
      <trkpt lat="42.16347" lon="20.16051">
        <ele>813.40997314453</ele>
        <time>2023-10-01T07:54:56.000Z</time>
      </trkpt>
      <trkpt lat="42.16354" lon="20.16058">
        <ele>814.36999511719</ele>
        <time>2023-10-01T07:54:55.000Z</time>
      </trkpt>
      <trkpt lat="42.16359" lon="20.16067">
        <ele>814.84997558594</ele>
        <time>2023-10-01T07:54:54.000Z</time>
      </trkpt>
      <trkpt lat="42.1636" lon="20.16078">
        <ele>814.36999511719</ele>
        <time>2023-10-01T07:54:53.000Z</time>
      </trkpt>
      <trkpt lat="42.16359" lon="20.16086">
        <ele>814.36999511719</ele>
        <time>2023-10-01T07:54:52.000Z</time>
      </trkpt>
      <trkpt lat="42.16356" lon="20.16111">
        <ele>813.89001464844</ele>
        <time>2023-10-01T07:54:51.000Z</time>
      </trkpt>
      <trkpt lat="42.16355" lon="20.16131">
        <ele>813.89001464844</ele>
        <time>2023-10-01T07:54:50.000Z</time>
      </trkpt>
      <trkpt lat="42.16355" lon="20.16147">
        <ele>813.89001464844</ele>
        <time>2023-10-01T07:54:49.000Z</time>
      </trkpt>
      <trkpt lat="42.16358" lon="20.16166">
        <ele>814.36999511719</ele>
        <time>2023-10-01T07:54:48.000Z</time>
      </trkpt>
      <trkpt lat="42.16363" lon="20.1618">
        <ele>814.84997558594</ele>
        <time>2023-10-01T07:54:47.000Z</time>
      </trkpt>
      <trkpt lat="42.1637" lon="20.16192">
        <ele>815.34002685547</ele>
        <time>2023-10-01T07:54:46.000Z</time>
      </trkpt>
      <trkpt lat="42.1638" lon="20.16201">
        <ele>815.82000732422</ele>
        <time>2023-10-01T07:54:45.000Z</time>
      </trkpt>
      <trkpt lat="42.16391" lon="20.16209">
        <ele>816.29998779297</ele>
        <time>2023-10-01T07:54:44.000Z</time>
      </trkpt>
      <trkpt lat="42.16403" lon="20.16216">
        <ele>816.78002929688</ele>
        <time>2023-10-01T07:54:43.000Z</time>
      </trkpt>
      <trkpt lat="42.1641" lon="20.1622">
        <ele>817.26000976562</ele>
        <time>2023-10-01T07:54:42.000Z</time>
      </trkpt>
      <trkpt lat="42.1643" lon="20.16228">
        <ele>818.21997070312</ele>
        <time>2023-10-01T07:54:41.000Z</time>
      </trkpt>
      <trkpt lat="42.16444" lon="20.16232">
        <ele>819.17999267578</ele>
        <time>2023-10-01T07:54:40.000Z</time>
      </trkpt>
      <trkpt lat="42.16453" lon="20.16237">
        <ele>819.65997314453</ele>
        <time>2023-10-01T07:54:39.000Z</time>
      </trkpt>
      <trkpt lat="42.16459" lon="20.16244">
        <ele>819.65997314453</ele>
        <time>2023-10-01T07:54:38.000Z</time>
      </trkpt>
      <trkpt lat="42.16462" lon="20.16254">
        <ele>820.14001464844</ele>
        <time>2023-10-01T07:54:37.000Z</time>
      </trkpt>
      <trkpt lat="42.16463" lon="20.16261">
        <ele>820.61999511719</ele>
        <time>2023-10-01T07:54:36.000Z</time>
      </trkpt>
      <trkpt lat="42.16466" lon="20.16308">
        <ele>822.05999755859</ele>
        <time>2023-10-01T07:54:33.000Z</time>
      </trkpt>
      <trkpt lat="42.16465" lon="20.1632">
        <ele>822.54998779297</ele>
        <time>2023-10-01T07:54:32.000Z</time>
      </trkpt>
      <trkpt lat="42.16462" lon="20.16334">
        <ele>822.05999755859</ele>
        <time>2023-10-01T07:54:31.000Z</time>
      </trkpt>
      <trkpt lat="42.16459" lon="20.16343">
        <ele>822.05999755859</ele>
        <time>2023-10-01T07:54:30.000Z</time>
      </trkpt>
      <trkpt lat="42.16456" lon="20.16352">
        <ele>822.05999755859</ele>
        <time>2023-10-01T07:54:29.000Z</time>
      </trkpt>
      <trkpt lat="42.16446" lon="20.16389">
        <ele>821.58001708984</ele>
        <time>2023-10-01T07:54:28.000Z</time>
      </trkpt>
      <trkpt lat="42.16442" lon="20.16409">
        <ele>821.58001708984</ele>
        <time>2023-10-01T07:54:27.000Z</time>
      </trkpt>
      <trkpt lat="42.1644" lon="20.1643">
        <ele>822.54998779297</ele>
        <time>2023-10-01T07:54:26.000Z</time>
      </trkpt>
      <trkpt lat="42.1644" lon="20.1645">
        <ele>823.51000976562</ele>
        <time>2023-10-01T07:54:25.000Z</time>
      </trkpt>
      <trkpt lat="42.16443" lon="20.16468">
        <ele>824.46997070312</ele>
        <time>2023-10-01T07:54:24.000Z</time>
      </trkpt>
      <trkpt lat="42.16448" lon="20.16484">
        <ele>825.42999267578</ele>
        <time>2023-10-01T07:54:23.000Z</time>
      </trkpt>
      <trkpt lat="42.16453" lon="20.16493">
        <ele>825.90997314453</ele>
        <time>2023-10-01T07:54:22.000Z</time>
      </trkpt>
      <trkpt lat="42.16484" lon="20.16536">
        <ele>827.34997558594</ele>
        <time>2023-10-01T07:54:19.000Z</time>
      </trkpt>
      <trkpt lat="42.16494" lon="20.16555">
        <ele>828.30999755859</ele>
        <time>2023-10-01T07:54:18.000Z</time>
      </trkpt>
      <trkpt lat="42.16499" lon="20.16569">
        <ele>828.30999755859</ele>
        <time>2023-10-01T07:54:17.000Z</time>
      </trkpt>
      <trkpt lat="42.165" lon="20.16578">
        <ele>828.78997802734</ele>
        <time>2023-10-01T07:54:16.000Z</time>
      </trkpt>
      <trkpt lat="42.16501" lon="20.166">
        <ele>828.30999755859</ele>
        <time>2023-10-01T07:54:15.000Z</time>
      </trkpt>
      <trkpt lat="42.16504" lon="20.16618">
        <ele>828.30999755859</ele>
        <time>2023-10-01T07:54:14.000Z</time>
      </trkpt>
      <trkpt lat="42.16511" lon="20.16634">
        <ele>828.30999755859</ele>
        <time>2023-10-01T07:54:13.000Z</time>
      </trkpt>
      <trkpt lat="42.16517" lon="20.16643">
        <ele>827.83001708984</ele>
        <time>2023-10-01T07:54:12.000Z</time>
      </trkpt>
      <trkpt lat="42.16528" lon="20.16659">
        <ele>828.30999755859</ele>
        <time>2023-10-01T07:54:11.000Z</time>
      </trkpt>
      <trkpt lat="42.16535" lon="20.16669">
        <ele>828.30999755859</ele>
        <time>2023-10-01T07:54:10.000Z</time>
      </trkpt>
      <trkpt lat="42.16538" lon="20.1668">
        <ele>828.30999755859</ele>
        <time>2023-10-01T07:54:09.000Z</time>
      </trkpt>
      <trkpt lat="42.16539" lon="20.16692">
        <ele>827.83001708984</ele>
        <time>2023-10-01T07:54:08.000Z</time>
      </trkpt>
      <trkpt lat="42.16536" lon="20.16707">
        <ele>827.83001708984</ele>
        <time>2023-10-01T07:54:07.000Z</time>
      </trkpt>
      <trkpt lat="42.16531" lon="20.16723">
        <ele>828.30999755859</ele>
        <time>2023-10-01T07:54:06.000Z</time>
      </trkpt>
      <trkpt lat="42.16525" lon="20.16739">
        <ele>828.30999755859</ele>
        <time>2023-10-01T07:54:05.000Z</time>
      </trkpt>
      <trkpt lat="42.16517" lon="20.16751">
        <ele>828.78997802734</ele>
        <time>2023-10-01T07:54:04.000Z</time>
      </trkpt>
      <trkpt lat="42.16507" lon="20.1676">
        <ele>828.78997802734</ele>
        <time>2023-10-01T07:54:03.000Z</time>
      </trkpt>
      <trkpt lat="42.165" lon="20.16765">
        <ele>828.78997802734</ele>
        <time>2023-10-01T07:54:02.000Z</time>
      </trkpt>
      <trkpt lat="42.1648" lon="20.16775">
        <ele>829.27001953125</ele>
        <time>2023-10-01T07:54:01.000Z</time>
      </trkpt>
      <trkpt lat="42.16468" lon="20.16783">
        <ele>829.27001953125</ele>
        <time>2023-10-01T07:54:00.000Z</time>
      </trkpt>
      <trkpt lat="42.16458" lon="20.16794">
        <ele>829.27001953125</ele>
        <time>2023-10-01T07:53:59.000Z</time>
      </trkpt>
      <trkpt lat="42.16452" lon="20.16809">
        <ele>830.71997070312</ele>
        <time>2023-10-01T07:53:58.000Z</time>
      </trkpt>
      <trkpt lat="42.1645" lon="20.16823">
        <ele>831.20001220703</ele>
        <time>2023-10-01T07:53:57.000Z</time>
      </trkpt>
      <trkpt lat="42.16449" lon="20.16839">
        <ele>831.67999267578</ele>
        <time>2023-10-01T07:53:56.000Z</time>
      </trkpt>
      <trkpt lat="42.16451" lon="20.16858">
        <ele>832.64001464844</ele>
        <time>2023-10-01T07:53:55.000Z</time>
      </trkpt>
      <trkpt lat="42.16451" lon="20.16874">
        <ele>833.59997558594</ele>
        <time>2023-10-01T07:53:54.000Z</time>
      </trkpt>
      <trkpt lat="42.16449" lon="20.16888">
        <ele>834.55999755859</ele>
        <time>2023-10-01T07:53:53.000Z</time>
      </trkpt>
      <trkpt lat="42.16444" lon="20.16904">
        <ele>834.55999755859</ele>
        <time>2023-10-01T07:53:52.000Z</time>
      </trkpt>
      <trkpt lat="42.16438" lon="20.16918">
        <ele>835.03997802734</ele>
        <time>2023-10-01T07:53:51.000Z</time>
      </trkpt>
      <trkpt lat="42.16429" lon="20.16932">
        <ele>836</ele>
        <time>2023-10-01T07:53:50.000Z</time>
      </trkpt>
      <trkpt lat="42.16427" lon="20.16935">
        <ele>836</ele>
        <time>2023-10-01T07:53:49.000Z</time>
      </trkpt>
      <trkpt lat="42.16411" lon="20.16954">
        <ele>836.96002197266</ele>
        <time>2023-10-01T07:53:48.000Z</time>
      </trkpt>
      <trkpt lat="42.16398" lon="20.1697">
        <ele>838.40997314453</ele>
        <time>2023-10-01T07:53:47.000Z</time>
      </trkpt>
      <trkpt lat="42.16392" lon="20.16977">
        <ele>838.40997314453</ele>
        <time>2023-10-01T07:53:46.000Z</time>
      </trkpt>
      <trkpt lat="42.16363" lon="20.17008">
        <ele>838.89001464844</ele>
        <time>2023-10-01T07:53:44.000Z</time>
      </trkpt>
      <trkpt lat="42.16343" lon="20.1703">
        <ele>839.84997558594</ele>
        <time>2023-10-01T07:53:43.000Z</time>
      </trkpt>
      <trkpt lat="42.16332" lon="20.1704">
        <ele>840.80999755859</ele>
        <time>2023-10-01T07:53:42.000Z</time>
      </trkpt>
      <trkpt lat="42.16325" lon="20.17045">
        <ele>841.77001953125</ele>
        <time>2023-10-01T07:53:41.000Z</time>
      </trkpt>
      <trkpt lat="42.16308" lon="20.17054">
        <ele>843.21002197266</ele>
        <time>2023-10-01T07:53:40.000Z</time>
      </trkpt>
      <trkpt lat="42.16298" lon="20.1706">
        <ele>842.72998046875</ele>
        <time>2023-10-01T07:53:39.000Z</time>
      </trkpt>
      <trkpt lat="42.16289" lon="20.1707">
        <ele>841.77001953125</ele>
        <time>2023-10-01T07:53:38.000Z</time>
      </trkpt>
      <trkpt lat="42.16285" lon="20.17081">
        <ele>840.80999755859</ele>
        <time>2023-10-01T07:53:37.000Z</time>
      </trkpt>
      <trkpt lat="42.16284" lon="20.17094">
        <ele>840.80999755859</ele>
        <time>2023-10-01T07:53:36.000Z</time>
      </trkpt>
      <trkpt lat="42.16287" lon="20.17107">
        <ele>841.28997802734</ele>
        <time>2023-10-01T07:53:35.000Z</time>
      </trkpt>
      <trkpt lat="42.16293" lon="20.1712">
        <ele>841.77001953125</ele>
        <time>2023-10-01T07:53:34.000Z</time>
      </trkpt>
      <trkpt lat="42.16294" lon="20.17123">
        <ele>841.77001953125</ele>
        <time>2023-10-01T07:53:33.000Z</time>
      </trkpt>
      <trkpt lat="42.1631" lon="20.17154">
        <ele>842.72998046875</ele>
        <time>2023-10-01T07:53:32.000Z</time>
      </trkpt>
      <trkpt lat="42.16329" lon="20.17184">
        <ele>843.21002197266</ele>
        <time>2023-10-01T07:53:30.000Z</time>
      </trkpt>
      <trkpt lat="42.1634" lon="20.17199">
        <ele>843.21002197266</ele>
        <time>2023-10-01T07:53:29.000Z</time>
      </trkpt>
      <trkpt lat="42.16348" lon="20.17211">
        <ele>843.69000244141</ele>
        <time>2023-10-01T07:53:28.000Z</time>
      </trkpt>
      <trkpt lat="42.16352" lon="20.17225">
        <ele>843.21002197266</ele>
        <time>2023-10-01T07:53:27.000Z</time>
      </trkpt>
      <trkpt lat="42.16353" lon="20.17236">
        <ele>843.21002197266</ele>
        <time>2023-10-01T07:53:26.000Z</time>
      </trkpt>
      <trkpt lat="42.16352" lon="20.17254">
        <ele>843.69000244141</ele>
        <time>2023-10-01T07:53:25.000Z</time>
      </trkpt>
      <trkpt lat="42.16352" lon="20.17265">
        <ele>843.69000244141</ele>
        <time>2023-10-01T07:53:24.000Z</time>
      </trkpt>
      <trkpt lat="42.16352" lon="20.17286">
        <ele>844.65997314453</ele>
        <time>2023-10-01T07:53:23.000Z</time>
      </trkpt>
      <trkpt lat="42.16349" lon="20.17299">
        <ele>844.17999267578</ele>
        <time>2023-10-01T07:53:22.000Z</time>
      </trkpt>
      <trkpt lat="42.16344" lon="20.17309">
        <ele>844.17999267578</ele>
        <time>2023-10-01T07:53:21.000Z</time>
      </trkpt>
      <trkpt lat="42.16334" lon="20.17321">
        <ele>845.14001464844</ele>
        <time>2023-10-01T07:53:20.000Z</time>
      </trkpt>
      <trkpt lat="42.16326" lon="20.17329">
        <ele>845.61999511719</ele>
        <time>2023-10-01T07:53:19.000Z</time>
      </trkpt>
      <trkpt lat="42.16312" lon="20.17339">
        <ele>846.09997558594</ele>
        <time>2023-10-01T07:53:18.000Z</time>
      </trkpt>
      <trkpt lat="42.163" lon="20.17349">
        <ele>846.09997558594</ele>
        <time>2023-10-01T07:53:17.000Z</time>
      </trkpt>
      <trkpt lat="42.16292" lon="20.17361">
        <ele>846.58001708984</ele>
        <time>2023-10-01T07:53:16.000Z</time>
      </trkpt>
      <trkpt lat="42.1628" lon="20.17389">
        <ele>847.05999755859</ele>
        <time>2023-10-01T07:53:14.000Z</time>
      </trkpt>
      <trkpt lat="42.16275" lon="20.17398">
        <ele>847.53997802734</ele>
        <time>2023-10-01T07:53:13.000Z</time>
      </trkpt>
      <trkpt lat="42.16258" lon="20.17427">
        <ele>848.5</ele>
        <time>2023-10-01T07:53:12.000Z</time>
      </trkpt>
      <trkpt lat="42.16246" lon="20.17448">
        <ele>849.46002197266</ele>
        <time>2023-10-01T07:53:11.000Z</time>
      </trkpt>
      <trkpt lat="42.16239" lon="20.17465">
        <ele>849.94000244141</ele>
        <time>2023-10-01T07:53:10.000Z</time>
      </trkpt>
      <trkpt lat="42.16234" lon="20.17482">
        <ele>849.94000244141</ele>
        <time>2023-10-01T07:53:09.000Z</time>
      </trkpt>
      <trkpt lat="42.16233" lon="20.17497">
        <ele>849.94000244141</ele>
        <time>2023-10-01T07:53:08.000Z</time>
      </trkpt>
      <trkpt lat="42.16233" lon="20.17514">
        <ele>849.46002197266</ele>
        <time>2023-10-01T07:53:07.000Z</time>
      </trkpt>
      <trkpt lat="42.1623" lon="20.17528">
        <ele>849.46002197266</ele>
        <time>2023-10-01T07:53:06.000Z</time>
      </trkpt>
      <trkpt lat="42.16224" lon="20.1754">
        <ele>849.46002197266</ele>
        <time>2023-10-01T07:53:05.000Z</time>
      </trkpt>
      <trkpt lat="42.16214" lon="20.17551">
        <ele>848.97998046875</ele>
        <time>2023-10-01T07:53:04.000Z</time>
      </trkpt>
      <trkpt lat="42.16203" lon="20.1756">
        <ele>848.5</ele>
        <time>2023-10-01T07:53:03.000Z</time>
      </trkpt>
      <trkpt lat="42.16191" lon="20.17573">
        <ele>848.5</ele>
        <time>2023-10-01T07:53:02.000Z</time>
      </trkpt>
      <trkpt lat="42.1618" lon="20.1759">
        <ele>848.97998046875</ele>
        <time>2023-10-01T07:53:01.000Z</time>
      </trkpt>
      <trkpt lat="42.1617" lon="20.17604">
        <ele>849.46002197266</ele>
        <time>2023-10-01T07:53:00.000Z</time>
      </trkpt>
      <trkpt lat="42.16159" lon="20.17615">
        <ele>849.46002197266</ele>
        <time>2023-10-01T07:52:59.000Z</time>
      </trkpt>
      <trkpt lat="42.16146" lon="20.1762">
        <ele>849.94000244141</ele>
        <time>2023-10-01T07:52:58.000Z</time>
      </trkpt>
      <trkpt lat="42.16141" lon="20.17622">
        <ele>850.41998291016</ele>
        <time>2023-10-01T07:52:57.000Z</time>
      </trkpt>
      <trkpt lat="42.16101" lon="20.17626">
        <ele>853.30999755859</ele>
        <time>2023-10-01T07:52:55.000Z</time>
      </trkpt>
      <trkpt lat="42.16086" lon="20.17626">
        <ele>854.27001953125</ele>
        <time>2023-10-01T07:52:54.000Z</time>
      </trkpt>
      <trkpt lat="42.16074" lon="20.17621">
        <ele>855.22998046875</ele>
        <time>2023-10-01T07:52:53.000Z</time>
      </trkpt>
      <trkpt lat="42.16065" lon="20.17615">
        <ele>855.71002197266</ele>
        <time>2023-10-01T07:52:52.000Z</time>
      </trkpt>
      <trkpt lat="42.16052" lon="20.17602">
        <ele>855.71002197266</ele>
        <time>2023-10-01T07:52:51.000Z</time>
      </trkpt>
      <trkpt lat="42.16038" lon="20.17589">
        <ele>855.22998046875</ele>
        <time>2023-10-01T07:52:50.000Z</time>
      </trkpt>
      <trkpt lat="42.16021" lon="20.17575">
        <ele>854.75</ele>
        <time>2023-10-01T07:52:49.000Z</time>
      </trkpt>
      <trkpt lat="42.16001" lon="20.17562">
        <ele>854.75</ele>
        <time>2023-10-01T07:52:48.000Z</time>
      </trkpt>
      <trkpt lat="42.15984" lon="20.17554">
        <ele>854.75</ele>
        <time>2023-10-01T07:52:47.000Z</time>
      </trkpt>
      <trkpt lat="42.1597" lon="20.17551">
        <ele>854.27001953125</ele>
        <time>2023-10-01T07:52:46.000Z</time>
      </trkpt>
      <trkpt lat="42.15958" lon="20.1755">
        <ele>854.27001953125</ele>
        <time>2023-10-01T07:52:45.000Z</time>
      </trkpt>
      <trkpt lat="42.15951" lon="20.17553">
        <ele>853.78997802734</ele>
        <time>2023-10-01T07:52:44.000Z</time>
      </trkpt>
      <trkpt lat="42.15946" lon="20.1756">
        <ele>852.83001708984</ele>
        <time>2023-10-01T07:52:43.000Z</time>
      </trkpt>
      <trkpt lat="42.15944" lon="20.17569">
        <ele>852.34997558594</ele>
        <time>2023-10-01T07:52:42.000Z</time>
      </trkpt>
      <trkpt lat="42.15944" lon="20.17579">
        <ele>852.34997558594</ele>
        <time>2023-10-01T07:52:41.000Z</time>
      </trkpt>
      <trkpt lat="42.15948" lon="20.1759">
        <ele>852.34997558594</ele>
        <time>2023-10-01T07:52:40.000Z</time>
      </trkpt>
      <trkpt lat="42.15953" lon="20.176">
        <ele>851.86999511719</ele>
        <time>2023-10-01T07:52:39.000Z</time>
      </trkpt>
      <trkpt lat="42.15961" lon="20.17614">
        <ele>851.38000488281</ele>
        <time>2023-10-01T07:52:38.000Z</time>
      </trkpt>
      <trkpt lat="42.15964" lon="20.1763">
        <ele>850.41998291016</ele>
        <time>2023-10-01T07:52:37.000Z</time>
      </trkpt>
      <trkpt lat="42.15963" lon="20.17643">
        <ele>849.46002197266</ele>
        <time>2023-10-01T07:52:36.000Z</time>
      </trkpt>
      <trkpt lat="42.15958" lon="20.17654">
        <ele>848.5</ele>
        <time>2023-10-01T07:52:35.000Z</time>
      </trkpt>
      <trkpt lat="42.15951" lon="20.17663">
        <ele>847.53997802734</ele>
        <time>2023-10-01T07:52:34.000Z</time>
      </trkpt>
      <trkpt lat="42.15941" lon="20.17667">
        <ele>845.61999511719</ele>
        <time>2023-10-01T07:52:33.000Z</time>
      </trkpt>
      <trkpt lat="42.15936" lon="20.17668">
        <ele>845.14001464844</ele>
        <time>2023-10-01T07:52:32.000Z</time>
      </trkpt>
      <trkpt lat="42.15897" lon="20.17678">
        <ele>844.17999267578</ele>
        <time>2023-10-01T07:52:30.000Z</time>
      </trkpt>
      <trkpt lat="42.15882" lon="20.17685">
        <ele>844.17999267578</ele>
        <time>2023-10-01T07:52:29.000Z</time>
      </trkpt>
      <trkpt lat="42.1587" lon="20.17692">
        <ele>844.17999267578</ele>
        <time>2023-10-01T07:52:28.000Z</time>
      </trkpt>
      <trkpt lat="42.15856" lon="20.177">
        <ele>844.65997314453</ele>
        <time>2023-10-01T07:52:27.000Z</time>
      </trkpt>
      <trkpt lat="42.15838" lon="20.1771">
        <ele>844.17999267578</ele>
        <time>2023-10-01T07:52:26.000Z</time>
      </trkpt>
      <trkpt lat="42.15826" lon="20.17718">
        <ele>844.17999267578</ele>
        <time>2023-10-01T07:52:25.000Z</time>
      </trkpt>
      <trkpt lat="42.1581" lon="20.1773">
        <ele>844.17999267578</ele>
        <time>2023-10-01T07:52:24.000Z</time>
      </trkpt>
      <trkpt lat="42.158" lon="20.1774">
        <ele>845.14001464844</ele>
        <time>2023-10-01T07:52:23.000Z</time>
      </trkpt>
      <trkpt lat="42.1579" lon="20.17749">
        <ele>845.61999511719</ele>
        <time>2023-10-01T07:52:22.000Z</time>
      </trkpt>
      <trkpt lat="42.15778" lon="20.17753">
        <ele>846.09997558594</ele>
        <time>2023-10-01T07:52:21.000Z</time>
      </trkpt>
      <trkpt lat="42.15766" lon="20.17754">
        <ele>846.58001708984</ele>
        <time>2023-10-01T07:52:20.000Z</time>
      </trkpt>
      <trkpt lat="42.15756" lon="20.17756">
        <ele>847.05999755859</ele>
        <time>2023-10-01T07:52:19.000Z</time>
      </trkpt>
      <trkpt lat="42.15739" lon="20.1776">
        <ele>847.53997802734</ele>
        <time>2023-10-01T07:52:18.000Z</time>
      </trkpt>
      <trkpt lat="42.15731" lon="20.17765">
        <ele>848.02001953125</ele>
        <time>2023-10-01T07:52:17.000Z</time>
      </trkpt>
      <trkpt lat="42.15718" lon="20.17774">
        <ele>848.5</ele>
        <time>2023-10-01T07:52:16.000Z</time>
      </trkpt>
      <trkpt lat="42.15708" lon="20.17777">
        <ele>848.97998046875</ele>
        <time>2023-10-01T07:52:15.000Z</time>
      </trkpt>
      <trkpt lat="42.15699" lon="20.17777">
        <ele>848.97998046875</ele>
        <time>2023-10-01T07:52:14.000Z</time>
      </trkpt>
      <trkpt lat="42.15691" lon="20.17773">
        <ele>848.02001953125</ele>
        <time>2023-10-01T07:52:13.000Z</time>
      </trkpt>
      <trkpt lat="42.1568" lon="20.17765">
        <ele>847.53997802734</ele>
        <time>2023-10-01T07:52:12.000Z</time>
      </trkpt>
      <trkpt lat="42.15672" lon="20.1776">
        <ele>848.02001953125</ele>
        <time>2023-10-01T07:52:11.000Z</time>
      </trkpt>
      <trkpt lat="42.15663" lon="20.17759">
        <ele>848.5</ele>
        <time>2023-10-01T07:52:10.000Z</time>
      </trkpt>
      <trkpt lat="42.15653" lon="20.17764">
        <ele>848.5</ele>
        <time>2023-10-01T07:52:09.000Z</time>
      </trkpt>
      <trkpt lat="42.15648" lon="20.17767">
        <ele>848.5</ele>
        <time>2023-10-01T07:52:08.000Z</time>
      </trkpt>
      <trkpt lat="42.15627" lon="20.17783">
        <ele>848.02001953125</ele>
        <time>2023-10-01T07:52:07.000Z</time>
      </trkpt>
      <trkpt lat="42.15616" lon="20.17793">
        <ele>848.02001953125</ele>
        <time>2023-10-01T07:52:06.000Z</time>
      </trkpt>
      <trkpt lat="42.15613" lon="20.17796">
        <ele>848.5</ele>
        <time>2023-10-01T07:52:05.000Z</time>
      </trkpt>
      <trkpt lat="42.15595" lon="20.17815">
        <ele>848.5</ele>
        <time>2023-10-01T07:52:04.000Z</time>
      </trkpt>
      <trkpt lat="42.15587" lon="20.17822">
        <ele>848.5</ele>
        <time>2023-10-01T07:52:03.000Z</time>
      </trkpt>
      <trkpt lat="42.15578" lon="20.17826">
        <ele>848.5</ele>
        <time>2023-10-01T07:52:02.000Z</time>
      </trkpt>
      <trkpt lat="42.15568" lon="20.17827">
        <ele>848.5</ele>
        <time>2023-10-01T07:52:01.000Z</time>
      </trkpt>
      <trkpt lat="42.15557" lon="20.17823">
        <ele>848.97998046875</ele>
        <time>2023-10-01T07:52:00.000Z</time>
      </trkpt>
      <trkpt lat="42.15546" lon="20.17817">
        <ele>849.46002197266</ele>
        <time>2023-10-01T07:51:59.000Z</time>
      </trkpt>
      <trkpt lat="42.15536" lon="20.17809">
        <ele>849.46002197266</ele>
        <time>2023-10-01T07:51:58.000Z</time>
      </trkpt>
      <trkpt lat="42.15525" lon="20.17798">
        <ele>849.46002197266</ele>
        <time>2023-10-01T07:51:57.000Z</time>
      </trkpt>
      <trkpt lat="42.15515" lon="20.17784">
        <ele>849.94000244141</ele>
        <time>2023-10-01T07:51:56.000Z</time>
      </trkpt>
      <trkpt lat="42.15505" lon="20.17769">
        <ele>849.94000244141</ele>
        <time>2023-10-01T07:51:55.000Z</time>
      </trkpt>
      <trkpt lat="42.15496" lon="20.17758">
        <ele>849.94000244141</ele>
        <time>2023-10-01T07:51:54.000Z</time>
      </trkpt>
      <trkpt lat="42.15484" lon="20.17751">
        <ele>849.46002197266</ele>
        <time>2023-10-01T07:51:53.000Z</time>
      </trkpt>
      <trkpt lat="42.15472" lon="20.1775">
        <ele>848.97998046875</ele>
        <time>2023-10-01T07:51:52.000Z</time>
      </trkpt>
      <trkpt lat="42.15458" lon="20.17754">
        <ele>848.02001953125</ele>
        <time>2023-10-01T07:51:51.000Z</time>
      </trkpt>
      <trkpt lat="42.1543" lon="20.17767">
        <ele>847.53997802734</ele>
        <time>2023-10-01T07:51:49.000Z</time>
      </trkpt>
      <trkpt lat="42.1542" lon="20.1777">
        <ele>846.58001708984</ele>
        <time>2023-10-01T07:51:48.000Z</time>
      </trkpt>
      <trkpt lat="42.15402" lon="20.17775">
        <ele>846.09997558594</ele>
        <time>2023-10-01T07:51:47.000Z</time>
      </trkpt>
      <trkpt lat="42.15387" lon="20.17779">
        <ele>846.09997558594</ele>
        <time>2023-10-01T07:51:46.000Z</time>
      </trkpt>
      <trkpt lat="42.15371" lon="20.17785">
        <ele>845.61999511719</ele>
        <time>2023-10-01T07:51:45.000Z</time>
      </trkpt>
      <trkpt lat="42.15359" lon="20.17788">
        <ele>845.61999511719</ele>
        <time>2023-10-01T07:51:44.000Z</time>
      </trkpt>
      <trkpt lat="42.15348" lon="20.17786">
        <ele>845.14001464844</ele>
        <time>2023-10-01T07:51:43.000Z</time>
      </trkpt>
      <trkpt lat="42.15337" lon="20.17779">
        <ele>844.17999267578</ele>
        <time>2023-10-01T07:51:42.000Z</time>
      </trkpt>
      <trkpt lat="42.15328" lon="20.17769">
        <ele>843.69000244141</ele>
        <time>2023-10-01T07:51:41.000Z</time>
      </trkpt>
      <trkpt lat="42.15318" lon="20.17757">
        <ele>842.25</ele>
        <time>2023-10-01T07:51:40.000Z</time>
      </trkpt>
      <trkpt lat="42.15305" lon="20.17749">
        <ele>841.28997802734</ele>
        <time>2023-10-01T07:51:39.000Z</time>
      </trkpt>
      <trkpt lat="42.15292" lon="20.17746">
        <ele>841.77001953125</ele>
        <time>2023-10-01T07:51:38.000Z</time>
      </trkpt>
      <trkpt lat="42.1526" lon="20.17747">
        <ele>842.25</ele>
        <time>2023-10-01T07:51:36.000Z</time>
      </trkpt>
      <trkpt lat="42.15244" lon="20.17749">
        <ele>842.72998046875</ele>
        <time>2023-10-01T07:51:35.000Z</time>
      </trkpt>
      <trkpt lat="42.15235" lon="20.17752">
        <ele>843.21002197266</ele>
        <time>2023-10-01T07:51:34.000Z</time>
      </trkpt>
      <trkpt lat="42.15214" lon="20.17761">
        <ele>844.17999267578</ele>
        <time>2023-10-01T07:51:33.000Z</time>
      </trkpt>
      <trkpt lat="42.15203" lon="20.17764">
        <ele>844.17999267578</ele>
        <time>2023-10-01T07:51:32.000Z</time>
      </trkpt>
      <trkpt lat="42.15194" lon="20.17764">
        <ele>844.65997314453</ele>
        <time>2023-10-01T07:51:31.000Z</time>
      </trkpt>
      <trkpt lat="42.15185" lon="20.17759">
        <ele>845.61999511719</ele>
        <time>2023-10-01T07:51:30.000Z</time>
      </trkpt>
      <trkpt lat="42.15179" lon="20.17749">
        <ele>846.09997558594</ele>
        <time>2023-10-01T07:51:29.000Z</time>
      </trkpt>
      <trkpt lat="42.15177" lon="20.17737">
        <ele>846.58001708984</ele>
        <time>2023-10-01T07:51:28.000Z</time>
      </trkpt>
      <trkpt lat="42.15178" lon="20.17723">
        <ele>847.53997802734</ele>
        <time>2023-10-01T07:51:27.000Z</time>
      </trkpt>
      <trkpt lat="42.15183" lon="20.17708">
        <ele>848.02001953125</ele>
        <time>2023-10-01T07:51:26.000Z</time>
      </trkpt>
      <trkpt lat="42.15192" lon="20.17694">
        <ele>848.02001953125</ele>
        <time>2023-10-01T07:51:25.000Z</time>
      </trkpt>
      <trkpt lat="42.15204" lon="20.1768">
        <ele>847.53997802734</ele>
        <time>2023-10-01T07:51:24.000Z</time>
      </trkpt>
      <trkpt lat="42.15217" lon="20.17665">
        <ele>848.02001953125</ele>
        <time>2023-10-01T07:51:23.000Z</time>
      </trkpt>
      <trkpt lat="42.15225" lon="20.17657">
        <ele>848.02001953125</ele>
        <time>2023-10-01T07:51:22.000Z</time>
      </trkpt>
      <trkpt lat="42.15241" lon="20.17644">
        <ele>848.97998046875</ele>
        <time>2023-10-01T07:51:21.000Z</time>
      </trkpt>
      <trkpt lat="42.15261" lon="20.17633">
        <ele>849.46002197266</ele>
        <time>2023-10-01T07:51:20.000Z</time>
      </trkpt>
      <trkpt lat="42.15274" lon="20.17627">
        <ele>849.46002197266</ele>
        <time>2023-10-01T07:51:19.000Z</time>
      </trkpt>
      <trkpt lat="42.15286" lon="20.1762">
        <ele>849.94000244141</ele>
        <time>2023-10-01T07:51:18.000Z</time>
      </trkpt>
      <trkpt lat="42.15296" lon="20.17611">
        <ele>850.41998291016</ele>
        <time>2023-10-01T07:51:17.000Z</time>
      </trkpt>
      <trkpt lat="42.15303" lon="20.17601">
        <ele>851.38000488281</ele>
        <time>2023-10-01T07:51:16.000Z</time>
      </trkpt>
      <trkpt lat="42.15306" lon="20.17591">
        <ele>851.38000488281</ele>
        <time>2023-10-01T07:51:15.000Z</time>
      </trkpt>
      <trkpt lat="42.15306" lon="20.1758">
        <ele>850.90002441406</ele>
        <time>2023-10-01T07:51:14.000Z</time>
      </trkpt>
      <trkpt lat="42.15303" lon="20.17571">
        <ele>851.38000488281</ele>
        <time>2023-10-01T07:51:13.000Z</time>
      </trkpt>
      <trkpt lat="42.15297" lon="20.17565">
        <ele>851.38000488281</ele>
        <time>2023-10-01T07:51:12.000Z</time>
      </trkpt>
      <trkpt lat="42.15256" lon="20.17534">
        <ele>852.34997558594</ele>
        <time>2023-10-01T07:51:09.000Z</time>
      </trkpt>
      <trkpt lat="42.15251" lon="20.1753">
        <ele>852.34997558594</ele>
        <time>2023-10-01T07:51:08.000Z</time>
      </trkpt>
      <trkpt lat="42.15231" lon="20.1752">
        <ele>852.83001708984</ele>
        <time>2023-10-01T07:51:07.000Z</time>
      </trkpt>
      <trkpt lat="42.15221" lon="20.17512">
        <ele>851.86999511719</ele>
        <time>2023-10-01T07:51:06.000Z</time>
      </trkpt>
      <trkpt lat="42.15212" lon="20.175">
        <ele>851.38000488281</ele>
        <time>2023-10-01T07:51:05.000Z</time>
      </trkpt>
      <trkpt lat="42.15205" lon="20.17493">
        <ele>849.94000244141</ele>
        <time>2023-10-01T07:51:04.000Z</time>
      </trkpt>
      <trkpt lat="42.15196" lon="20.1749">
        <ele>849.46002197266</ele>
        <time>2023-10-01T07:51:03.000Z</time>
      </trkpt>
      <trkpt lat="42.15186" lon="20.17491">
        <ele>849.46002197266</ele>
        <time>2023-10-01T07:51:02.000Z</time>
      </trkpt>
      <trkpt lat="42.15174" lon="20.17496">
        <ele>849.46002197266</ele>
        <time>2023-10-01T07:51:01.000Z</time>
      </trkpt>
      <trkpt lat="42.15162" lon="20.17504">
        <ele>849.94000244141</ele>
        <time>2023-10-01T07:51:00.000Z</time>
      </trkpt>
      <trkpt lat="42.15151" lon="20.1751">
        <ele>850.41998291016</ele>
        <time>2023-10-01T07:50:59.000Z</time>
      </trkpt>
      <trkpt lat="42.15139" lon="20.17511">
        <ele>850.41998291016</ele>
        <time>2023-10-01T07:50:58.000Z</time>
      </trkpt>
      <trkpt lat="42.15128" lon="20.17509">
        <ele>850.41998291016</ele>
        <time>2023-10-01T07:50:57.000Z</time>
      </trkpt>
      <trkpt lat="42.15117" lon="20.17508">
        <ele>849.94000244141</ele>
        <time>2023-10-01T07:50:56.000Z</time>
      </trkpt>
      <trkpt lat="42.15107" lon="20.17509">
        <ele>850.41998291016</ele>
        <time>2023-10-01T07:50:55.000Z</time>
      </trkpt>
      <trkpt lat="42.15094" lon="20.17513">
        <ele>850.90002441406</ele>
        <time>2023-10-01T07:50:54.000Z</time>
      </trkpt>
      <trkpt lat="42.15083" lon="20.17517">
        <ele>850.90002441406</ele>
        <time>2023-10-01T07:50:53.000Z</time>
      </trkpt>
      <trkpt lat="42.15073" lon="20.17518">
        <ele>850.90002441406</ele>
        <time>2023-10-01T07:50:52.000Z</time>
      </trkpt>
      <trkpt lat="42.15064" lon="20.17517">
        <ele>850.90002441406</ele>
        <time>2023-10-01T07:50:51.000Z</time>
      </trkpt>
      <trkpt lat="42.15057" lon="20.17513">
        <ele>850.90002441406</ele>
        <time>2023-10-01T07:50:50.000Z</time>
      </trkpt>
      <trkpt lat="42.15051" lon="20.17504">
        <ele>851.38000488281</ele>
        <time>2023-10-01T07:50:49.000Z</time>
      </trkpt>
      <trkpt lat="42.15047" lon="20.17491">
        <ele>851.86999511719</ele>
        <time>2023-10-01T07:50:48.000Z</time>
      </trkpt>
      <trkpt lat="42.15046" lon="20.17477">
        <ele>852.34997558594</ele>
        <time>2023-10-01T07:50:47.000Z</time>
      </trkpt>
      <trkpt lat="42.15047" lon="20.17463">
        <ele>853.78997802734</ele>
        <time>2023-10-01T07:50:46.000Z</time>
      </trkpt>
      <trkpt lat="42.15051" lon="20.17449">
        <ele>855.22998046875</ele>
        <time>2023-10-01T07:50:45.000Z</time>
      </trkpt>
      <trkpt lat="42.15057" lon="20.17438">
        <ele>856.19000244141</ele>
        <time>2023-10-01T07:50:44.000Z</time>
      </trkpt>
      <trkpt lat="42.15073" lon="20.17407">
        <ele>857.15002441406</ele>
        <time>2023-10-01T07:50:42.000Z</time>
      </trkpt>
      <trkpt lat="42.15079" lon="20.17393">
        <ele>857.63000488281</ele>
        <time>2023-10-01T07:50:41.000Z</time>
      </trkpt>
      <trkpt lat="42.15082" lon="20.1738">
        <ele>858.59002685547</ele>
        <time>2023-10-01T07:50:40.000Z</time>
      </trkpt>
      <trkpt lat="42.15082" lon="20.17367">
        <ele>859.55999755859</ele>
        <time>2023-10-01T07:50:39.000Z</time>
      </trkpt>
      <trkpt lat="42.15078" lon="20.17353">
        <ele>859.55999755859</ele>
        <time>2023-10-01T07:50:38.000Z</time>
      </trkpt>
      <trkpt lat="42.1507" lon="20.1734">
        <ele>860.03997802734</ele>
        <time>2023-10-01T07:50:37.000Z</time>
      </trkpt>
      <trkpt lat="42.15057" lon="20.17326">
        <ele>860.52001953125</ele>
        <time>2023-10-01T07:50:36.000Z</time>
      </trkpt>
      <trkpt lat="42.15055" lon="20.17323">
        <ele>860.52001953125</ele>
        <time>2023-10-01T07:50:35.000Z</time>
      </trkpt>
      <trkpt lat="42.15033" lon="20.17301">
        <ele>861.96002197266</ele>
        <time>2023-10-01T07:50:34.000Z</time>
      </trkpt>
      <trkpt lat="42.15022" lon="20.17289">
        <ele>862.44000244141</ele>
        <time>2023-10-01T07:50:33.000Z</time>
      </trkpt>
      <trkpt lat="42.15012" lon="20.17277">
        <ele>862.91998291016</ele>
        <time>2023-10-01T07:50:32.000Z</time>
      </trkpt>
      <trkpt lat="42.15003" lon="20.17262">
        <ele>862.91998291016</ele>
        <time>2023-10-01T07:50:31.000Z</time>
      </trkpt>
      <trkpt lat="42.14998" lon="20.17249">
        <ele>863.40002441406</ele>
        <time>2023-10-01T07:50:30.000Z</time>
      </trkpt>
      <trkpt lat="42.14995" lon="20.17236">
        <ele>863.88000488281</ele>
        <time>2023-10-01T07:50:29.000Z</time>
      </trkpt>
      <trkpt lat="42.14994" lon="20.17223">
        <ele>863.88000488281</ele>
        <time>2023-10-01T07:50:28.000Z</time>
      </trkpt>
      <trkpt lat="42.14996" lon="20.17214">
        <ele>863.40002441406</ele>
        <time>2023-10-01T07:50:27.000Z</time>
      </trkpt>
      <trkpt lat="42.15014" lon="20.17141">
        <ele>862.91998291016</ele>
        <time>2023-10-01T07:50:23.000Z</time>
      </trkpt>
      <trkpt lat="42.15021" lon="20.17111">
        <ele>863.40002441406</ele>
        <time>2023-10-01T07:50:22.000Z</time>
      </trkpt>
      <trkpt lat="42.15022" lon="20.17094">
        <ele>862.91998291016</ele>
        <time>2023-10-01T07:50:21.000Z</time>
      </trkpt>
      <trkpt lat="42.15018" lon="20.17076">
        <ele>862.91998291016</ele>
        <time>2023-10-01T07:50:20.000Z</time>
      </trkpt>
      <trkpt lat="42.1501" lon="20.1706">
        <ele>863.40002441406</ele>
        <time>2023-10-01T07:50:19.000Z</time>
      </trkpt>
      <trkpt lat="42.14995" lon="20.17039">
        <ele>863.40002441406</ele>
        <time>2023-10-01T07:50:17.000Z</time>
      </trkpt>
      <trkpt lat="42.1498" lon="20.17018">
        <ele>861.96002197266</ele>
        <time>2023-10-01T07:50:16.000Z</time>
      </trkpt>
      <trkpt lat="42.14969" lon="20.17008">
        <ele>860.52001953125</ele>
        <time>2023-10-01T07:50:15.000Z</time>
      </trkpt>
      <trkpt lat="42.14957" lon="20.17005">
        <ele>860.52001953125</ele>
        <time>2023-10-01T07:50:14.000Z</time>
      </trkpt>
      <trkpt lat="42.14946" lon="20.17007">
        <ele>860.52001953125</ele>
        <time>2023-10-01T07:50:13.000Z</time>
      </trkpt>
      <trkpt lat="42.14928" lon="20.17013">
        <ele>860.52001953125</ele>
        <time>2023-10-01T07:50:12.000Z</time>
      </trkpt>
      <trkpt lat="42.14915" lon="20.17015">
        <ele>861</ele>
        <time>2023-10-01T07:50:11.000Z</time>
      </trkpt>
      <trkpt lat="42.14906" lon="20.17014">
        <ele>861.47998046875</ele>
        <time>2023-10-01T07:50:10.000Z</time>
      </trkpt>
      <trkpt lat="42.14901" lon="20.17012">
        <ele>861.47998046875</ele>
        <time>2023-10-01T07:50:09.000Z</time>
      </trkpt>
      <trkpt lat="42.14878" lon="20.17005">
        <ele>861</ele>
        <time>2023-10-01T07:50:08.000Z</time>
      </trkpt>
      <trkpt lat="42.14866" lon="20.16998">
        <ele>860.03997802734</ele>
        <time>2023-10-01T07:50:07.000Z</time>
      </trkpt>
      <trkpt lat="42.14857" lon="20.16988">
        <ele>860.03997802734</ele>
        <time>2023-10-01T07:50:06.000Z</time>
      </trkpt>
      <trkpt lat="42.1485" lon="20.16977">
        <ele>859.55999755859</ele>
        <time>2023-10-01T07:50:05.000Z</time>
      </trkpt>
      <trkpt lat="42.14845" lon="20.16963">
        <ele>859.08001708984</ele>
        <time>2023-10-01T07:50:04.000Z</time>
      </trkpt>
      <trkpt lat="42.14842" lon="20.16951">
        <ele>859.08001708984</ele>
        <time>2023-10-01T07:50:03.000Z</time>
      </trkpt>
      <trkpt lat="42.14836" lon="20.16927">
        <ele>858.59002685547</ele>
        <time>2023-10-01T07:50:02.000Z</time>
      </trkpt>
      <trkpt lat="42.14833" lon="20.16908">
        <ele>858.10998535156</ele>
        <time>2023-10-01T07:50:01.000Z</time>
      </trkpt>
      <trkpt lat="42.14829" lon="20.16894">
        <ele>858.10998535156</ele>
        <time>2023-10-01T07:50:00.000Z</time>
      </trkpt>
      <trkpt lat="42.14824" lon="20.16878">
        <ele>857.63000488281</ele>
        <time>2023-10-01T07:49:59.000Z</time>
      </trkpt>
      <trkpt lat="42.14817" lon="20.16868">
        <ele>857.15002441406</ele>
        <time>2023-10-01T07:49:58.000Z</time>
      </trkpt>
      <trkpt lat="42.14808" lon="20.16863">
        <ele>857.15002441406</ele>
        <time>2023-10-01T07:49:57.000Z</time>
      </trkpt>
      <trkpt lat="42.14797" lon="20.16861">
        <ele>856.66998291016</ele>
        <time>2023-10-01T07:49:56.000Z</time>
      </trkpt>
      <trkpt lat="42.14791" lon="20.16861">
        <ele>856.66998291016</ele>
        <time>2023-10-01T07:49:55.000Z</time>
      </trkpt>
      <trkpt lat="42.14768" lon="20.16863">
        <ele>856.66998291016</ele>
        <time>2023-10-01T07:49:54.000Z</time>
      </trkpt>
      <trkpt lat="42.14753" lon="20.16861">
        <ele>857.15002441406</ele>
        <time>2023-10-01T07:49:53.000Z</time>
      </trkpt>
      <trkpt lat="42.14723" lon="20.16854">
        <ele>856.66998291016</ele>
        <time>2023-10-01T07:49:51.000Z</time>
      </trkpt>
      <trkpt lat="42.14716" lon="20.16853">
        <ele>856.66998291016</ele>
        <time>2023-10-01T07:49:50.000Z</time>
      </trkpt>
      <trkpt lat="42.14699" lon="20.16851">
        <ele>856.66998291016</ele>
        <time>2023-10-01T07:49:49.000Z</time>
      </trkpt>
      <trkpt lat="42.14682" lon="20.16851">
        <ele>856.19000244141</ele>
        <time>2023-10-01T07:49:48.000Z</time>
      </trkpt>
      <trkpt lat="42.14673" lon="20.1685">
        <ele>856.19000244141</ele>
        <time>2023-10-01T07:49:47.000Z</time>
      </trkpt>
      <trkpt lat="42.14665" lon="20.16847">
        <ele>856.19000244141</ele>
        <time>2023-10-01T07:49:46.000Z</time>
      </trkpt>
      <trkpt lat="42.14657" lon="20.16842">
        <ele>856.19000244141</ele>
        <time>2023-10-01T07:49:45.000Z</time>
      </trkpt>
      <trkpt lat="42.14651" lon="20.16836">
        <ele>856.19000244141</ele>
        <time>2023-10-01T07:49:44.000Z</time>
      </trkpt>
      <trkpt lat="42.14645" lon="20.1683">
        <ele>856.19000244141</ele>
        <time>2023-10-01T07:49:43.000Z</time>
      </trkpt>
      <trkpt lat="42.14635" lon="20.16816">
        <ele>855.22998046875</ele>
        <time>2023-10-01T07:49:41.000Z</time>
      </trkpt>
      <trkpt lat="42.14624" lon="20.16802">
        <ele>854.75</ele>
        <time>2023-10-01T07:49:40.000Z</time>
      </trkpt>
      <trkpt lat="42.14608" lon="20.16786">
        <ele>853.30999755859</ele>
        <time>2023-10-01T07:49:38.000Z</time>
      </trkpt>
      <trkpt lat="42.14579" lon="20.16755">
        <ele>853.30999755859</ele>
        <time>2023-10-01T07:49:36.000Z</time>
      </trkpt>
      <trkpt lat="42.14565" lon="20.16742">
        <ele>853.30999755859</ele>
        <time>2023-10-01T07:49:35.000Z</time>
      </trkpt>
      <trkpt lat="42.14548" lon="20.16727">
        <ele>852.83001708984</ele>
        <time>2023-10-01T07:49:34.000Z</time>
      </trkpt>
      <trkpt lat="42.14534" lon="20.16718">
        <ele>852.34997558594</ele>
        <time>2023-10-01T07:49:33.000Z</time>
      </trkpt>
      <trkpt lat="42.14517" lon="20.16709">
        <ele>852.34997558594</ele>
        <time>2023-10-01T07:49:32.000Z</time>
      </trkpt>
      <trkpt lat="42.14509" lon="20.16706">
        <ele>852.34997558594</ele>
        <time>2023-10-01T07:49:31.000Z</time>
      </trkpt>
      <trkpt lat="42.1444" lon="20.16684">
        <ele>852.83001708984</ele>
        <time>2023-10-01T07:49:26.000Z</time>
      </trkpt>
      <trkpt lat="42.14433" lon="20.16679">
        <ele>852.83001708984</ele>
        <time>2023-10-01T07:49:25.000Z</time>
      </trkpt>
      <trkpt lat="42.14428" lon="20.1667">
        <ele>852.34997558594</ele>
        <time>2023-10-01T07:49:24.000Z</time>
      </trkpt>
      <trkpt lat="42.14424" lon="20.16659">
        <ele>852.34997558594</ele>
        <time>2023-10-01T07:49:23.000Z</time>
      </trkpt>
      <trkpt lat="42.14422" lon="20.16645">
        <ele>852.34997558594</ele>
        <time>2023-10-01T07:49:22.000Z</time>
      </trkpt>
      <trkpt lat="42.14419" lon="20.16632">
        <ele>851.86999511719</ele>
        <time>2023-10-01T07:49:21.000Z</time>
      </trkpt>
      <trkpt lat="42.14413" lon="20.16622">
        <ele>851.38000488281</ele>
        <time>2023-10-01T07:49:20.000Z</time>
      </trkpt>
      <trkpt lat="42.14403" lon="20.16616">
        <ele>851.38000488281</ele>
        <time>2023-10-01T07:49:19.000Z</time>
      </trkpt>
      <trkpt lat="42.14394" lon="20.16613">
        <ele>851.38000488281</ele>
        <time>2023-10-01T07:49:18.000Z</time>
      </trkpt>
      <trkpt lat="42.14386" lon="20.16609">
        <ele>851.38000488281</ele>
        <time>2023-10-01T07:49:17.000Z</time>
      </trkpt>
      <trkpt lat="42.1438" lon="20.166">
        <ele>851.38000488281</ele>
        <time>2023-10-01T07:49:16.000Z</time>
      </trkpt>
      <trkpt lat="42.14376" lon="20.16587">
        <ele>850.90002441406</ele>
        <time>2023-10-01T07:49:15.000Z</time>
      </trkpt>
      <trkpt lat="42.14375" lon="20.16574">
        <ele>849.94000244141</ele>
        <time>2023-10-01T07:49:14.000Z</time>
      </trkpt>
      <trkpt lat="42.14375" lon="20.1655">
        <ele>848.5</ele>
        <time>2023-10-01T07:49:13.000Z</time>
      </trkpt>
      <trkpt lat="42.14373" lon="20.16529">
        <ele>848.02001953125</ele>
        <time>2023-10-01T07:49:12.000Z</time>
      </trkpt>
      <trkpt lat="42.14369" lon="20.16508">
        <ele>847.05999755859</ele>
        <time>2023-10-01T07:49:11.000Z</time>
      </trkpt>
      <trkpt lat="42.14364" lon="20.16493">
        <ele>846.58001708984</ele>
        <time>2023-10-01T07:49:10.000Z</time>
      </trkpt>
      <trkpt lat="42.14357" lon="20.16478">
        <ele>846.58001708984</ele>
        <time>2023-10-01T07:49:09.000Z</time>
      </trkpt>
      <trkpt lat="42.14349" lon="20.16469">
        <ele>846.09997558594</ele>
        <time>2023-10-01T07:49:08.000Z</time>
      </trkpt>
      <trkpt lat="42.1434" lon="20.16463">
        <ele>846.09997558594</ele>
        <time>2023-10-01T07:49:07.000Z</time>
      </trkpt>
      <trkpt lat="42.14326" lon="20.16459">
        <ele>846.09997558594</ele>
        <time>2023-10-01T07:49:06.000Z</time>
      </trkpt>
      <trkpt lat="42.14311" lon="20.16453">
        <ele>845.61999511719</ele>
        <time>2023-10-01T07:49:05.000Z</time>
      </trkpt>
      <trkpt lat="42.143" lon="20.16447">
        <ele>845.14001464844</ele>
        <time>2023-10-01T07:49:04.000Z</time>
      </trkpt>
      <trkpt lat="42.14289" lon="20.16441">
        <ele>844.17999267578</ele>
        <time>2023-10-01T07:49:03.000Z</time>
      </trkpt>
      <trkpt lat="42.14278" lon="20.1644">
        <ele>844.17999267578</ele>
        <time>2023-10-01T07:49:02.000Z</time>
      </trkpt>
      <trkpt lat="42.14268" lon="20.16444">
        <ele>843.69000244141</ele>
        <time>2023-10-01T07:49:01.000Z</time>
      </trkpt>
      <trkpt lat="42.14259" lon="20.16451">
        <ele>843.21002197266</ele>
        <time>2023-10-01T07:49:00.000Z</time>
      </trkpt>
      <trkpt lat="42.1425" lon="20.16461">
        <ele>842.72998046875</ele>
        <time>2023-10-01T07:48:59.000Z</time>
      </trkpt>
      <trkpt lat="42.14241" lon="20.16473">
        <ele>842.72998046875</ele>
        <time>2023-10-01T07:48:58.000Z</time>
      </trkpt>
      <trkpt lat="42.14231" lon="20.16483">
        <ele>842.25</ele>
        <time>2023-10-01T07:48:57.000Z</time>
      </trkpt>
      <trkpt lat="42.14221" lon="20.1649">
        <ele>842.25</ele>
        <time>2023-10-01T07:48:56.000Z</time>
      </trkpt>
      <trkpt lat="42.1421" lon="20.16491">
        <ele>842.25</ele>
        <time>2023-10-01T07:48:55.000Z</time>
      </trkpt>
      <trkpt lat="42.14201" lon="20.16489">
        <ele>841.77001953125</ele>
        <time>2023-10-01T07:48:54.000Z</time>
      </trkpt>
      <trkpt lat="42.14194" lon="20.16482">
        <ele>841.77001953125</ele>
        <time>2023-10-01T07:48:53.000Z</time>
      </trkpt>
      <trkpt lat="42.14189" lon="20.16473">
        <ele>841.77001953125</ele>
        <time>2023-10-01T07:48:52.000Z</time>
      </trkpt>
      <trkpt lat="42.14187" lon="20.16462">
        <ele>842.25</ele>
        <time>2023-10-01T07:48:51.000Z</time>
      </trkpt>
      <trkpt lat="42.14186" lon="20.16459">
        <ele>842.25</ele>
        <time>2023-10-01T07:48:50.000Z</time>
      </trkpt>
      <trkpt lat="42.14183" lon="20.16425">
        <ele>841.28997802734</ele>
        <time>2023-10-01T07:48:49.000Z</time>
      </trkpt>
      <trkpt lat="42.14179" lon="20.16407">
        <ele>840.80999755859</ele>
        <time>2023-10-01T07:48:48.000Z</time>
      </trkpt>
      <trkpt lat="42.14175" lon="20.16395">
        <ele>840.80999755859</ele>
        <time>2023-10-01T07:48:47.000Z</time>
      </trkpt>
      <trkpt lat="42.14171" lon="20.16386">
        <ele>840.80999755859</ele>
        <time>2023-10-01T07:48:46.000Z</time>
      </trkpt>
      <trkpt lat="42.14149" lon="20.16332">
        <ele>839.84997558594</ele>
        <time>2023-10-01T07:48:44.000Z</time>
      </trkpt>
      <trkpt lat="42.14144" lon="20.16322">
        <ele>839.84997558594</ele>
        <time>2023-10-01T07:48:43.000Z</time>
      </trkpt>
      <trkpt lat="42.14133" lon="20.16302">
        <ele>840.33001708984</ele>
        <time>2023-10-01T07:48:42.000Z</time>
      </trkpt>
      <trkpt lat="42.14128" lon="20.16288">
        <ele>840.33001708984</ele>
        <time>2023-10-01T07:48:41.000Z</time>
      </trkpt>
      <trkpt lat="42.14127" lon="20.16275">
        <ele>840.80999755859</ele>
        <time>2023-10-01T07:48:40.000Z</time>
      </trkpt>
      <trkpt lat="42.14129" lon="20.16261">
        <ele>840.80999755859</ele>
        <time>2023-10-01T07:48:39.000Z</time>
      </trkpt>
      <trkpt lat="42.14132" lon="20.16249">
        <ele>840.80999755859</ele>
        <time>2023-10-01T07:48:38.000Z</time>
      </trkpt>
      <trkpt lat="42.14139" lon="20.16232">
        <ele>840.80999755859</ele>
        <time>2023-10-01T07:48:37.000Z</time>
      </trkpt>
      <trkpt lat="42.14143" lon="20.16216">
        <ele>840.33001708984</ele>
        <time>2023-10-01T07:48:36.000Z</time>
      </trkpt>
      <trkpt lat="42.14144" lon="20.16203">
        <ele>840.33001708984</ele>
        <time>2023-10-01T07:48:35.000Z</time>
      </trkpt>
      <trkpt lat="42.14141" lon="20.16189">
        <ele>840.33001708984</ele>
        <time>2023-10-01T07:48:34.000Z</time>
      </trkpt>
      <trkpt lat="42.14135" lon="20.16179">
        <ele>840.80999755859</ele>
        <time>2023-10-01T07:48:33.000Z</time>
      </trkpt>
      <trkpt lat="42.14125" lon="20.16165">
        <ele>840.80999755859</ele>
        <time>2023-10-01T07:48:32.000Z</time>
      </trkpt>
      <trkpt lat="42.14118" lon="20.1615">
        <ele>840.33001708984</ele>
        <time>2023-10-01T07:48:31.000Z</time>
      </trkpt>
      <trkpt lat="42.14113" lon="20.16135">
        <ele>840.33001708984</ele>
        <time>2023-10-01T07:48:30.000Z</time>
      </trkpt>
      <trkpt lat="42.14109" lon="20.16117">
        <ele>839.84997558594</ele>
        <time>2023-10-01T07:48:29.000Z</time>
      </trkpt>
      <trkpt lat="42.14105" lon="20.16096">
        <ele>839.84997558594</ele>
        <time>2023-10-01T07:48:28.000Z</time>
      </trkpt>
      <trkpt lat="42.141" lon="20.1608">
        <ele>839.84997558594</ele>
        <time>2023-10-01T07:48:27.000Z</time>
      </trkpt>
      <trkpt lat="42.14095" lon="20.16064">
        <ele>839.36999511719</ele>
        <time>2023-10-01T07:48:26.000Z</time>
      </trkpt>
      <trkpt lat="42.14092" lon="20.1605">
        <ele>839.36999511719</ele>
        <time>2023-10-01T07:48:25.000Z</time>
      </trkpt>
      <trkpt lat="42.14093" lon="20.16039">
        <ele>839.36999511719</ele>
        <time>2023-10-01T07:48:24.000Z</time>
      </trkpt>
      <trkpt lat="42.14097" lon="20.16026">
        <ele>838.89001464844</ele>
        <time>2023-10-01T07:48:23.000Z</time>
      </trkpt>
      <trkpt lat="42.14105" lon="20.16011">
        <ele>837.45001220703</ele>
        <time>2023-10-01T07:48:22.000Z</time>
      </trkpt>
      <trkpt lat="42.14112" lon="20.15994">
        <ele>836.47998046875</ele>
        <time>2023-10-01T07:48:21.000Z</time>
      </trkpt>
      <trkpt lat="42.14122" lon="20.15965">
        <ele>836.47998046875</ele>
        <time>2023-10-01T07:48:19.000Z</time>
      </trkpt>
      <trkpt lat="42.14126" lon="20.15953">
        <ele>836.96002197266</ele>
        <time>2023-10-01T07:48:18.000Z</time>
      </trkpt>
      <trkpt lat="42.14126" lon="20.15943">
        <ele>837.45001220703</ele>
        <time>2023-10-01T07:48:17.000Z</time>
      </trkpt>
      <trkpt lat="42.14123" lon="20.15934">
        <ele>836</ele>
        <time>2023-10-01T07:48:16.000Z</time>
      </trkpt>
      <trkpt lat="42.14116" lon="20.15928">
        <ele>836.96002197266</ele>
        <time>2023-10-01T07:48:15.000Z</time>
      </trkpt>
      <trkpt lat="42.14109" lon="20.15928">
        <ele>836.96002197266</ele>
        <time>2023-10-01T07:48:14.000Z</time>
      </trkpt>
      <trkpt lat="42.14101" lon="20.15932">
        <ele>837.45001220703</ele>
        <time>2023-10-01T07:48:13.000Z</time>
      </trkpt>
      <trkpt lat="42.14097" lon="20.15934">
        <ele>837.45001220703</ele>
        <time>2023-10-01T07:48:12.000Z</time>
      </trkpt>
      <trkpt lat="42.14083" lon="20.15947">
        <ele>837.45001220703</ele>
        <time>2023-10-01T07:48:11.000Z</time>
      </trkpt>
      <trkpt lat="42.14069" lon="20.15958">
        <ele>837.92999267578</ele>
        <time>2023-10-01T07:48:10.000Z</time>
      </trkpt>
      <trkpt lat="42.14058" lon="20.15963">
        <ele>837.92999267578</ele>
        <time>2023-10-01T07:48:09.000Z</time>
      </trkpt>
      <trkpt lat="42.14044" lon="20.15968">
        <ele>838.40997314453</ele>
        <time>2023-10-01T07:48:08.000Z</time>
      </trkpt>
      <trkpt lat="42.1403" lon="20.15975">
        <ele>839.36999511719</ele>
        <time>2023-10-01T07:48:07.000Z</time>
      </trkpt>
      <trkpt lat="42.14018" lon="20.15985">
        <ele>839.36999511719</ele>
        <time>2023-10-01T07:48:06.000Z</time>
      </trkpt>
      <trkpt lat="42.14009" lon="20.15997">
        <ele>840.33001708984</ele>
        <time>2023-10-01T07:48:05.000Z</time>
      </trkpt>
      <trkpt lat="42.14001" lon="20.16012">
        <ele>841.28997802734</ele>
        <time>2023-10-01T07:48:04.000Z</time>
      </trkpt>
      <trkpt lat="42.13994" lon="20.16029">
        <ele>841.77001953125</ele>
        <time>2023-10-01T07:48:03.000Z</time>
      </trkpt>
      <trkpt lat="42.13991" lon="20.1604">
        <ele>842.25</ele>
        <time>2023-10-01T07:48:02.000Z</time>
      </trkpt>
      <trkpt lat="42.13986" lon="20.16066">
        <ele>842.25</ele>
        <time>2023-10-01T07:48:01.000Z</time>
      </trkpt>
      <trkpt lat="42.13981" lon="20.16081">
        <ele>842.72998046875</ele>
        <time>2023-10-01T07:48:00.000Z</time>
      </trkpt>
      <trkpt lat="42.13973" lon="20.16094">
        <ele>842.25</ele>
        <time>2023-10-01T07:47:59.000Z</time>
      </trkpt>
      <trkpt lat="42.13964" lon="20.16107">
        <ele>842.72998046875</ele>
        <time>2023-10-01T07:47:58.000Z</time>
      </trkpt>
      <trkpt lat="42.13954" lon="20.16117">
        <ele>842.72998046875</ele>
        <time>2023-10-01T07:47:57.000Z</time>
      </trkpt>
      <trkpt lat="42.13947" lon="20.16122">
        <ele>842.72998046875</ele>
        <time>2023-10-01T07:47:56.000Z</time>
      </trkpt>
      <trkpt lat="42.13917" lon="20.16137">
        <ele>842.25</ele>
        <time>2023-10-01T07:47:54.000Z</time>
      </trkpt>
      <trkpt lat="42.13912" lon="20.1614">
        <ele>842.25</ele>
        <time>2023-10-01T07:47:53.000Z</time>
      </trkpt>
      <trkpt lat="42.13895" lon="20.16152">
        <ele>842.25</ele>
        <time>2023-10-01T07:47:52.000Z</time>
      </trkpt>
      <trkpt lat="42.13885" lon="20.16158">
        <ele>842.25</ele>
        <time>2023-10-01T07:47:51.000Z</time>
      </trkpt>
      <trkpt lat="42.13876" lon="20.1616">
        <ele>841.77001953125</ele>
        <time>2023-10-01T07:47:50.000Z</time>
      </trkpt>
      <trkpt lat="42.13865" lon="20.16157">
        <ele>840.80999755859</ele>
        <time>2023-10-01T07:47:49.000Z</time>
      </trkpt>
      <trkpt lat="42.13853" lon="20.1615">
        <ele>839.84997558594</ele>
        <time>2023-10-01T07:47:48.000Z</time>
      </trkpt>
      <trkpt lat="42.13841" lon="20.16139">
        <ele>838.89001464844</ele>
        <time>2023-10-01T07:47:47.000Z</time>
      </trkpt>
      <trkpt lat="42.13834" lon="20.16129">
        <ele>838.89001464844</ele>
        <time>2023-10-01T07:47:46.000Z</time>
      </trkpt>
      <trkpt lat="42.13823" lon="20.16114">
        <ele>838.40997314453</ele>
        <time>2023-10-01T07:47:45.000Z</time>
      </trkpt>
      <trkpt lat="42.13813" lon="20.16104">
        <ele>837.45001220703</ele>
        <time>2023-10-01T07:47:44.000Z</time>
      </trkpt>
      <trkpt lat="42.13802" lon="20.16099">
        <ele>837.45001220703</ele>
        <time>2023-10-01T07:47:43.000Z</time>
      </trkpt>
      <trkpt lat="42.13788" lon="20.16095">
        <ele>837.45001220703</ele>
        <time>2023-10-01T07:47:42.000Z</time>
      </trkpt>
      <trkpt lat="42.13776" lon="20.16089">
        <ele>836.96002197266</ele>
        <time>2023-10-01T07:47:41.000Z</time>
      </trkpt>
      <trkpt lat="42.13765" lon="20.1608">
        <ele>836.47998046875</ele>
        <time>2023-10-01T07:47:40.000Z</time>
      </trkpt>
      <trkpt lat="42.13754" lon="20.16066">
        <ele>835.52001953125</ele>
        <time>2023-10-01T07:47:39.000Z</time>
      </trkpt>
      <trkpt lat="42.13745" lon="20.16052">
        <ele>834.08001708984</ele>
        <time>2023-10-01T07:47:38.000Z</time>
      </trkpt>
      <trkpt lat="42.13738" lon="20.16035">
        <ele>833.11999511719</ele>
        <time>2023-10-01T07:47:37.000Z</time>
      </trkpt>
      <trkpt lat="42.13734" lon="20.16019">
        <ele>832.64001464844</ele>
        <time>2023-10-01T07:47:36.000Z</time>
      </trkpt>
      <trkpt lat="42.13733" lon="20.16015">
        <ele>832.64001464844</ele>
        <time>2023-10-01T07:47:35.000Z</time>
      </trkpt>
      <trkpt lat="42.13725" lon="20.15974">
        <ele>832.64001464844</ele>
        <time>2023-10-01T07:47:34.000Z</time>
      </trkpt>
      <trkpt lat="42.13713" lon="20.15929">
        <ele>835.52001953125</ele>
        <time>2023-10-01T07:47:32.000Z</time>
      </trkpt>
      <trkpt lat="42.13706" lon="20.15908">
        <ele>836</ele>
        <time>2023-10-01T07:47:31.000Z</time>
      </trkpt>
      <trkpt lat="42.137" lon="20.1589">
        <ele>836.47998046875</ele>
        <time>2023-10-01T07:47:30.000Z</time>
      </trkpt>
      <trkpt lat="42.13698" lon="20.15875">
        <ele>837.45001220703</ele>
        <time>2023-10-01T07:47:29.000Z</time>
      </trkpt>
      <trkpt lat="42.13699" lon="20.1586">
        <ele>837.45001220703</ele>
        <time>2023-10-01T07:47:28.000Z</time>
      </trkpt>
      <trkpt lat="42.13703" lon="20.15845">
        <ele>836.96002197266</ele>
        <time>2023-10-01T07:47:27.000Z</time>
      </trkpt>
      <trkpt lat="42.13703" lon="20.1583">
        <ele>837.45001220703</ele>
        <time>2023-10-01T07:47:26.000Z</time>
      </trkpt>
      <trkpt lat="42.137" lon="20.15814">
        <ele>837.92999267578</ele>
        <time>2023-10-01T07:47:25.000Z</time>
      </trkpt>
      <trkpt lat="42.13694" lon="20.15799">
        <ele>838.40997314453</ele>
        <time>2023-10-01T07:47:24.000Z</time>
      </trkpt>
      <trkpt lat="42.1369" lon="20.15785">
        <ele>839.36999511719</ele>
        <time>2023-10-01T07:47:23.000Z</time>
      </trkpt>
      <trkpt lat="42.13689" lon="20.1577">
        <ele>839.84997558594</ele>
        <time>2023-10-01T07:47:22.000Z</time>
      </trkpt>
      <trkpt lat="42.13691" lon="20.15757">
        <ele>839.84997558594</ele>
        <time>2023-10-01T07:47:21.000Z</time>
      </trkpt>
      <trkpt lat="42.13692" lon="20.15748">
        <ele>839.84997558594</ele>
        <time>2023-10-01T07:47:20.000Z</time>
      </trkpt>
      <trkpt lat="42.13699" lon="20.15718">
        <ele>840.80999755859</ele>
        <time>2023-10-01T07:47:19.000Z</time>
      </trkpt>
      <trkpt lat="42.13702" lon="20.15701">
        <ele>841.28997802734</ele>
        <time>2023-10-01T07:47:18.000Z</time>
      </trkpt>
      <trkpt lat="42.13701" lon="20.15685">
        <ele>842.72998046875</ele>
        <time>2023-10-01T07:47:17.000Z</time>
      </trkpt>
      <trkpt lat="42.13697" lon="20.15671">
        <ele>843.69000244141</ele>
        <time>2023-10-01T07:47:16.000Z</time>
      </trkpt>
      <trkpt lat="42.1369" lon="20.15656">
        <ele>845.14001464844</ele>
        <time>2023-10-01T07:47:15.000Z</time>
      </trkpt>
      <trkpt lat="42.13685" lon="20.15642">
        <ele>846.09997558594</ele>
        <time>2023-10-01T07:47:14.000Z</time>
      </trkpt>
      <trkpt lat="42.13683" lon="20.15627">
        <ele>847.53997802734</ele>
        <time>2023-10-01T07:47:13.000Z</time>
      </trkpt>
      <trkpt lat="42.13685" lon="20.15613">
        <ele>848.02001953125</ele>
        <time>2023-10-01T07:47:12.000Z</time>
      </trkpt>
      <trkpt lat="42.13687" lon="20.15605">
        <ele>848.02001953125</ele>
        <time>2023-10-01T07:47:11.000Z</time>
      </trkpt>
      <trkpt lat="42.13691" lon="20.15591">
        <ele>848.5</ele>
        <time>2023-10-01T07:47:10.000Z</time>
      </trkpt>
      <trkpt lat="42.13697" lon="20.15568">
        <ele>848.02001953125</ele>
        <time>2023-10-01T07:47:09.000Z</time>
      </trkpt>
      <trkpt lat="42.13698" lon="20.15557">
        <ele>848.02001953125</ele>
        <time>2023-10-01T07:47:08.000Z</time>
      </trkpt>
      <trkpt lat="42.13696" lon="20.15548">
        <ele>848.5</ele>
        <time>2023-10-01T07:47:07.000Z</time>
      </trkpt>
      <trkpt lat="42.1369" lon="20.15541">
        <ele>848.97998046875</ele>
        <time>2023-10-01T07:47:06.000Z</time>
      </trkpt>
      <trkpt lat="42.13682" lon="20.15538">
        <ele>849.94000244141</ele>
        <time>2023-10-01T07:47:05.000Z</time>
      </trkpt>
      <trkpt lat="42.13672" lon="20.15539">
        <ele>850.41998291016</ele>
        <time>2023-10-01T07:47:04.000Z</time>
      </trkpt>
      <trkpt lat="42.13653" lon="20.15544">
        <ele>851.38000488281</ele>
        <time>2023-10-01T07:47:02.000Z</time>
      </trkpt>
      <trkpt lat="42.13643" lon="20.15544">
        <ele>851.38000488281</ele>
        <time>2023-10-01T07:47:01.000Z</time>
      </trkpt>
      <trkpt lat="42.13634" lon="20.15539">
        <ele>852.34997558594</ele>
        <time>2023-10-01T07:47:00.000Z</time>
      </trkpt>
      <trkpt lat="42.13627" lon="20.15532">
        <ele>852.34997558594</ele>
        <time>2023-10-01T07:46:59.000Z</time>
      </trkpt>
      <trkpt lat="42.13621" lon="20.15523">
        <ele>852.34997558594</ele>
        <time>2023-10-01T07:46:58.000Z</time>
      </trkpt>
      <trkpt lat="42.13613" lon="20.15507">
        <ele>852.34997558594</ele>
        <time>2023-10-01T07:46:57.000Z</time>
      </trkpt>
      <trkpt lat="42.13606" lon="20.15488">
        <ele>852.34997558594</ele>
        <time>2023-10-01T07:46:56.000Z</time>
      </trkpt>
      <trkpt lat="42.13598" lon="20.15466">
        <ele>853.30999755859</ele>
        <time>2023-10-01T07:46:55.000Z</time>
      </trkpt>
      <trkpt lat="42.13594" lon="20.15455">
        <ele>853.30999755859</ele>
        <time>2023-10-01T07:46:54.000Z</time>
      </trkpt>
      <trkpt lat="42.13586" lon="20.15438">
        <ele>853.78997802734</ele>
        <time>2023-10-01T07:46:53.000Z</time>
      </trkpt>
      <trkpt lat="42.13577" lon="20.15418">
        <ele>853.78997802734</ele>
        <time>2023-10-01T07:46:52.000Z</time>
      </trkpt>
      <trkpt lat="42.13571" lon="20.15407">
        <ele>854.27001953125</ele>
        <time>2023-10-01T07:46:51.000Z</time>
      </trkpt>
      <trkpt lat="42.13564" lon="20.15395">
        <ele>854.27001953125</ele>
        <time>2023-10-01T07:46:50.000Z</time>
      </trkpt>
      <trkpt lat="42.1356" lon="20.15383">
        <ele>854.27001953125</ele>
        <time>2023-10-01T07:46:49.000Z</time>
      </trkpt>
      <trkpt lat="42.13557" lon="20.15371">
        <ele>853.78997802734</ele>
        <time>2023-10-01T07:46:48.000Z</time>
      </trkpt>
      <trkpt lat="42.13558" lon="20.15359">
        <ele>854.27001953125</ele>
        <time>2023-10-01T07:46:47.000Z</time>
      </trkpt>
      <trkpt lat="42.13561" lon="20.15352">
        <ele>854.75</ele>
        <time>2023-10-01T07:46:46.000Z</time>
      </trkpt>
      <trkpt lat="42.13568" lon="20.15343">
        <ele>854.75</ele>
        <time>2023-10-01T07:46:45.000Z</time>
      </trkpt>
      <trkpt lat="42.13578" lon="20.15336">
        <ele>854.75</ele>
        <time>2023-10-01T07:46:44.000Z</time>
      </trkpt>
      <trkpt lat="42.13585" lon="20.15327">
        <ele>854.75</ele>
        <time>2023-10-01T07:46:43.000Z</time>
      </trkpt>
      <trkpt lat="42.13588" lon="20.15316">
        <ele>855.71002197266</ele>
        <time>2023-10-01T07:46:42.000Z</time>
      </trkpt>
      <trkpt lat="42.13588" lon="20.15302">
        <ele>856.19000244141</ele>
        <time>2023-10-01T07:46:41.000Z</time>
      </trkpt>
      <trkpt lat="42.13586" lon="20.15294">
        <ele>856.66998291016</ele>
        <time>2023-10-01T07:46:40.000Z</time>
      </trkpt>
      <trkpt lat="42.13581" lon="20.15271">
        <ele>857.63000488281</ele>
        <time>2023-10-01T07:46:39.000Z</time>
      </trkpt>
      <trkpt lat="42.13579" lon="20.15254">
        <ele>858.59002685547</ele>
        <time>2023-10-01T07:46:38.000Z</time>
      </trkpt>
      <trkpt lat="42.1358" lon="20.1524">
        <ele>859.55999755859</ele>
        <time>2023-10-01T07:46:37.000Z</time>
      </trkpt>
      <trkpt lat="42.13584" lon="20.15227">
        <ele>860.03997802734</ele>
        <time>2023-10-01T07:46:36.000Z</time>
      </trkpt>
      <trkpt lat="42.13588" lon="20.15216">
        <ele>859.55999755859</ele>
        <time>2023-10-01T07:46:35.000Z</time>
      </trkpt>
      <trkpt lat="42.13598" lon="20.152">
        <ele>859.55999755859</ele>
        <time>2023-10-01T07:46:34.000Z</time>
      </trkpt>
      <trkpt lat="42.13604" lon="20.15186">
        <ele>859.08001708984</ele>
        <time>2023-10-01T07:46:33.000Z</time>
      </trkpt>
      <trkpt lat="42.13609" lon="20.15172">
        <ele>859.08001708984</ele>
        <time>2023-10-01T07:46:32.000Z</time>
      </trkpt>
      <trkpt lat="42.1361" lon="20.15156">
        <ele>860.03997802734</ele>
        <time>2023-10-01T07:46:31.000Z</time>
      </trkpt>
      <trkpt lat="42.13608" lon="20.1514">
        <ele>861</ele>
        <time>2023-10-01T07:46:30.000Z</time>
      </trkpt>
      <trkpt lat="42.13605" lon="20.15119">
        <ele>861.96002197266</ele>
        <time>2023-10-01T07:46:29.000Z</time>
      </trkpt>
      <trkpt lat="42.13604" lon="20.15107">
        <ele>862.91998291016</ele>
        <time>2023-10-01T07:46:28.000Z</time>
      </trkpt>
      <trkpt lat="42.13603" lon="20.15085">
        <ele>862.91998291016</ele>
        <time>2023-10-01T07:46:27.000Z</time>
      </trkpt>
      <trkpt lat="42.13602" lon="20.15071">
        <ele>862.91998291016</ele>
        <time>2023-10-01T07:46:26.000Z</time>
      </trkpt>
      <trkpt lat="42.136" lon="20.15062">
        <ele>862.91998291016</ele>
        <time>2023-10-01T07:46:25.000Z</time>
      </trkpt>
      <trkpt lat="42.13595" lon="20.15044">
        <ele>863.40002441406</ele>
        <time>2023-10-01T07:46:24.000Z</time>
      </trkpt>
      <trkpt lat="42.13594" lon="20.15033">
        <ele>863.40002441406</ele>
        <time>2023-10-01T07:46:23.000Z</time>
      </trkpt>
      <trkpt lat="42.13596" lon="20.15022">
        <ele>863.40002441406</ele>
        <time>2023-10-01T07:46:22.000Z</time>
      </trkpt>
      <trkpt lat="42.13601" lon="20.15012">
        <ele>863.40002441406</ele>
        <time>2023-10-01T07:46:21.000Z</time>
      </trkpt>
      <trkpt lat="42.1361" lon="20.15">
        <ele>863.40002441406</ele>
        <time>2023-10-01T07:46:20.000Z</time>
      </trkpt>
      <trkpt lat="42.13615" lon="20.14995">
        <ele>862.91998291016</ele>
        <time>2023-10-01T07:46:19.000Z</time>
      </trkpt>
      <trkpt lat="42.13623" lon="20.14987">
        <ele>863.40002441406</ele>
        <time>2023-10-01T07:46:18.000Z</time>
      </trkpt>
      <trkpt lat="42.13643" lon="20.14968">
        <ele>863.40002441406</ele>
        <time>2023-10-01T07:46:17.000Z</time>
      </trkpt>
      <trkpt lat="42.13649" lon="20.14963">
        <ele>863.40002441406</ele>
        <time>2023-10-01T07:46:16.000Z</time>
      </trkpt>
      <trkpt lat="42.13675" lon="20.14936">
        <ele>863.88000488281</ele>
        <time>2023-10-01T07:46:14.000Z</time>
      </trkpt>
      <trkpt lat="42.13774" lon="20.1486">
        <ele>862.91998291016</ele>
        <time>2023-10-01T07:46:08.000Z</time>
      </trkpt>
      <trkpt lat="42.13789" lon="20.14847">
        <ele>862.44000244141</ele>
        <time>2023-10-01T07:46:07.000Z</time>
      </trkpt>
      <trkpt lat="42.13816" lon="20.1482">
        <ele>861.47998046875</ele>
        <time>2023-10-01T07:46:04.000Z</time>
      </trkpt>
      <trkpt lat="42.13835" lon="20.14801">
        <ele>860.52001953125</ele>
        <time>2023-10-01T07:46:03.000Z</time>
      </trkpt>
      <trkpt lat="42.13843" lon="20.14787">
        <ele>860.03997802734</ele>
        <time>2023-10-01T07:46:02.000Z</time>
      </trkpt>
      <trkpt lat="42.13848" lon="20.14773">
        <ele>860.03997802734</ele>
        <time>2023-10-01T07:46:01.000Z</time>
      </trkpt>
      <trkpt lat="42.1385" lon="20.14759">
        <ele>859.08001708984</ele>
        <time>2023-10-01T07:46:00.000Z</time>
      </trkpt>
      <trkpt lat="42.13849" lon="20.14746">
        <ele>859.08001708984</ele>
        <time>2023-10-01T07:45:59.000Z</time>
      </trkpt>
      <trkpt lat="42.13844" lon="20.14735">
        <ele>858.59002685547</ele>
        <time>2023-10-01T07:45:58.000Z</time>
      </trkpt>
      <trkpt lat="42.13832" lon="20.14713">
        <ele>856.19000244141</ele>
        <time>2023-10-01T07:45:56.000Z</time>
      </trkpt>
      <trkpt lat="42.13823" lon="20.14701">
        <ele>854.27001953125</ele>
        <time>2023-10-01T07:45:55.000Z</time>
      </trkpt>
      <trkpt lat="42.13814" lon="20.14694">
        <ele>853.30999755859</ele>
        <time>2023-10-01T07:45:54.000Z</time>
      </trkpt>
      <trkpt lat="42.13805" lon="20.14694">
        <ele>852.34997558594</ele>
        <time>2023-10-01T07:45:53.000Z</time>
      </trkpt>
      <trkpt lat="42.13799" lon="20.14695">
        <ele>851.38000488281</ele>
        <time>2023-10-01T07:45:52.000Z</time>
      </trkpt>
      <trkpt lat="42.13783" lon="20.14701">
        <ele>849.94000244141</ele>
        <time>2023-10-01T07:45:51.000Z</time>
      </trkpt>
      <trkpt lat="42.13777" lon="20.14702">
        <ele>849.46002197266</ele>
        <time>2023-10-01T07:45:50.000Z</time>
      </trkpt>
      <trkpt lat="42.13766" lon="20.14704">
        <ele>848.5</ele>
        <time>2023-10-01T07:45:49.000Z</time>
      </trkpt>
      <trkpt lat="42.13748" lon="20.14707">
        <ele>846.58001708984</ele>
        <time>2023-10-01T07:45:48.000Z</time>
      </trkpt>
      <trkpt lat="42.13728" lon="20.14708">
        <ele>844.65997314453</ele>
        <time>2023-10-01T07:45:47.000Z</time>
      </trkpt>
      <trkpt lat="42.13716" lon="20.14707">
        <ele>843.69000244141</ele>
        <time>2023-10-01T07:45:46.000Z</time>
      </trkpt>
      <trkpt lat="42.13705" lon="20.14702">
        <ele>842.25</ele>
        <time>2023-10-01T07:45:45.000Z</time>
      </trkpt>
      <trkpt lat="42.13696" lon="20.14695">
        <ele>841.77001953125</ele>
        <time>2023-10-01T07:45:44.000Z</time>
      </trkpt>
      <trkpt lat="42.13687" lon="20.14685">
        <ele>840.80999755859</ele>
        <time>2023-10-01T07:45:43.000Z</time>
      </trkpt>
      <trkpt lat="42.13681" lon="20.14679">
        <ele>840.33001708984</ele>
        <time>2023-10-01T07:45:42.000Z</time>
      </trkpt>
      <trkpt lat="42.13666" lon="20.14666">
        <ele>840.33001708984</ele>
        <time>2023-10-01T07:45:41.000Z</time>
      </trkpt>
      <trkpt lat="42.13656" lon="20.1466">
        <ele>839.84997558594</ele>
        <time>2023-10-01T07:45:40.000Z</time>
      </trkpt>
      <trkpt lat="42.13651" lon="20.14657">
        <ele>839.36999511719</ele>
        <time>2023-10-01T07:45:39.000Z</time>
      </trkpt>
      <trkpt lat="42.13639" lon="20.14648">
        <ele>837.92999267578</ele>
        <time>2023-10-01T07:45:38.000Z</time>
      </trkpt>
      <trkpt lat="42.1363" lon="20.1464">
        <ele>836.96002197266</ele>
        <time>2023-10-01T07:45:37.000Z</time>
      </trkpt>
      <trkpt lat="42.1362" lon="20.14633">
        <ele>835.52001953125</ele>
        <time>2023-10-01T07:45:36.000Z</time>
      </trkpt>
      <trkpt lat="42.13609" lon="20.1463">
        <ele>834.08001708984</ele>
        <time>2023-10-01T07:45:35.000Z</time>
      </trkpt>
      <trkpt lat="42.13596" lon="20.14632">
        <ele>833.59997558594</ele>
        <time>2023-10-01T07:45:34.000Z</time>
      </trkpt>
      <trkpt lat="42.1359" lon="20.14634">
        <ele>833.11999511719</ele>
        <time>2023-10-01T07:45:33.000Z</time>
      </trkpt>
      <trkpt lat="42.13552" lon="20.14653">
        <ele>830.71997070312</ele>
        <time>2023-10-01T07:45:31.000Z</time>
      </trkpt>
      <trkpt lat="42.13537" lon="20.14663">
        <ele>829.76000976562</ele>
        <time>2023-10-01T07:45:30.000Z</time>
      </trkpt>
      <trkpt lat="42.13523" lon="20.14675">
        <ele>829.27001953125</ele>
        <time>2023-10-01T07:45:29.000Z</time>
      </trkpt>
      <trkpt lat="42.13512" lon="20.14686">
        <ele>828.30999755859</ele>
        <time>2023-10-01T07:45:28.000Z</time>
      </trkpt>
      <trkpt lat="42.135" lon="20.14695">
        <ele>828.30999755859</ele>
        <time>2023-10-01T07:45:27.000Z</time>
      </trkpt>
      <trkpt lat="42.13485" lon="20.147">
        <ele>827.83001708984</ele>
        <time>2023-10-01T07:45:26.000Z</time>
      </trkpt>
      <trkpt lat="42.13474" lon="20.14701">
        <ele>827.34997558594</ele>
        <time>2023-10-01T07:45:25.000Z</time>
      </trkpt>
      <trkpt lat="42.13465" lon="20.147">
        <ele>826.39001464844</ele>
        <time>2023-10-01T07:45:24.000Z</time>
      </trkpt>
      <trkpt lat="42.13458" lon="20.14695">
        <ele>825.90997314453</ele>
        <time>2023-10-01T07:45:23.000Z</time>
      </trkpt>
      <trkpt lat="42.13452" lon="20.14684">
        <ele>824.95001220703</ele>
        <time>2023-10-01T07:45:22.000Z</time>
      </trkpt>
      <trkpt lat="42.13448" lon="20.14669">
        <ele>824.95001220703</ele>
        <time>2023-10-01T07:45:21.000Z</time>
      </trkpt>
      <trkpt lat="42.13444" lon="20.14656">
        <ele>824.95001220703</ele>
        <time>2023-10-01T07:45:20.000Z</time>
      </trkpt>
      <trkpt lat="42.13437" lon="20.14641">
        <ele>824.46997070312</ele>
        <time>2023-10-01T07:45:19.000Z</time>
      </trkpt>
      <trkpt lat="42.1343" lon="20.14629">
        <ele>823.98999023438</ele>
        <time>2023-10-01T07:45:18.000Z</time>
      </trkpt>
      <trkpt lat="42.13423" lon="20.14621">
        <ele>823.98999023438</ele>
        <time>2023-10-01T07:45:17.000Z</time>
      </trkpt>
      <trkpt lat="42.13413" lon="20.14619">
        <ele>824.46997070312</ele>
        <time>2023-10-01T07:45:16.000Z</time>
      </trkpt>
      <trkpt lat="42.13402" lon="20.14621">
        <ele>824.46997070312</ele>
        <time>2023-10-01T07:45:15.000Z</time>
      </trkpt>
      <trkpt lat="42.13391" lon="20.14622">
        <ele>823.98999023438</ele>
        <time>2023-10-01T07:45:14.000Z</time>
      </trkpt>
      <trkpt lat="42.13383" lon="20.1462">
        <ele>824.46997070312</ele>
        <time>2023-10-01T07:45:13.000Z</time>
      </trkpt>
      <trkpt lat="42.13368" lon="20.14617">
        <ele>823.51000976562</ele>
        <time>2023-10-01T07:45:12.000Z</time>
      </trkpt>
      <trkpt lat="42.13355" lon="20.14617">
        <ele>822.54998779297</ele>
        <time>2023-10-01T07:45:11.000Z</time>
      </trkpt>
      <trkpt lat="42.13343" lon="20.14623">
        <ele>822.05999755859</ele>
        <time>2023-10-01T07:45:10.000Z</time>
      </trkpt>
      <trkpt lat="42.13334" lon="20.1463">
        <ele>821.58001708984</ele>
        <time>2023-10-01T07:45:09.000Z</time>
      </trkpt>
      <trkpt lat="42.13323" lon="20.14638">
        <ele>819.65997314453</ele>
        <time>2023-10-01T07:45:08.000Z</time>
      </trkpt>
      <trkpt lat="42.13306" lon="20.14649">
        <ele>818.21997070312</ele>
        <time>2023-10-01T07:45:07.000Z</time>
      </trkpt>
      <trkpt lat="42.13294" lon="20.14661">
        <ele>817.26000976562</ele>
        <time>2023-10-01T07:45:06.000Z</time>
      </trkpt>
      <trkpt lat="42.13285" lon="20.14674">
        <ele>816.78002929688</ele>
        <time>2023-10-01T07:45:05.000Z</time>
      </trkpt>
      <trkpt lat="42.13274" lon="20.14693">
        <ele>815.82000732422</ele>
        <time>2023-10-01T07:45:04.000Z</time>
      </trkpt>
      <trkpt lat="42.13267" lon="20.14709">
        <ele>815.34002685547</ele>
        <time>2023-10-01T07:45:03.000Z</time>
      </trkpt>
      <trkpt lat="42.13264" lon="20.14722">
        <ele>814.84997558594</ele>
        <time>2023-10-01T07:45:02.000Z</time>
      </trkpt>
      <trkpt lat="42.13261" lon="20.14738">
        <ele>813.40997314453</ele>
        <time>2023-10-01T07:45:01.000Z</time>
      </trkpt>
      <trkpt lat="42.13257" lon="20.1475">
        <ele>812.92999267578</ele>
        <time>2023-10-01T07:45:00.000Z</time>
      </trkpt>
      <trkpt lat="42.13251" lon="20.14758">
        <ele>812.45001220703</ele>
        <time>2023-10-01T07:44:59.000Z</time>
      </trkpt>
      <trkpt lat="42.13244" lon="20.14763">
        <ele>811.96997070312</ele>
        <time>2023-10-01T07:44:58.000Z</time>
      </trkpt>
      <trkpt lat="42.13233" lon="20.14765">
        <ele>811.48999023438</ele>
        <time>2023-10-01T07:44:57.000Z</time>
      </trkpt>
      <trkpt lat="42.13221" lon="20.14766">
        <ele>811.01000976562</ele>
        <time>2023-10-01T07:44:56.000Z</time>
      </trkpt>
      <trkpt lat="42.13212" lon="20.14763">
        <ele>810.04998779297</ele>
        <time>2023-10-01T07:44:55.000Z</time>
      </trkpt>
      <trkpt lat="42.13205" lon="20.14757">
        <ele>809.09002685547</ele>
        <time>2023-10-01T07:44:54.000Z</time>
      </trkpt>
      <trkpt lat="42.13199" lon="20.14745">
        <ele>808.13000488281</ele>
        <time>2023-10-01T07:44:53.000Z</time>
      </trkpt>
      <trkpt lat="42.13198" lon="20.14743">
        <ele>807.64001464844</ele>
        <time>2023-10-01T07:44:52.000Z</time>
      </trkpt>
      <trkpt lat="42.13189" lon="20.14712">
        <ele>805.23999023438</ele>
        <time>2023-10-01T07:44:51.000Z</time>
      </trkpt>
      <trkpt lat="42.13186" lon="20.14693">
        <ele>803.79998779297</ele>
        <time>2023-10-01T07:44:50.000Z</time>
      </trkpt>
      <trkpt lat="42.13186" lon="20.14668">
        <ele>801.88000488281</ele>
        <time>2023-10-01T07:44:49.000Z</time>
      </trkpt>
      <trkpt lat="42.13186" lon="20.14652">
        <ele>800.91998291016</ele>
        <time>2023-10-01T07:44:48.000Z</time>
      </trkpt>
      <trkpt lat="42.13184" lon="20.1464">
        <ele>800.44000244141</ele>
        <time>2023-10-01T07:44:47.000Z</time>
      </trkpt>
      <trkpt lat="42.13178" lon="20.14634">
        <ele>800.44000244141</ele>
        <time>2023-10-01T07:44:46.000Z</time>
      </trkpt>
      <trkpt lat="42.1317" lon="20.1463">
        <ele>800.44000244141</ele>
        <time>2023-10-01T07:44:45.000Z</time>
      </trkpt>
      <trkpt lat="42.1316" lon="20.14631">
        <ele>800.91998291016</ele>
        <time>2023-10-01T07:44:44.000Z</time>
      </trkpt>
      <trkpt lat="42.13148" lon="20.14635">
        <ele>800.44000244141</ele>
        <time>2023-10-01T07:44:43.000Z</time>
      </trkpt>
      <trkpt lat="42.13122" lon="20.14647">
        <ele>798.98999023438</ele>
        <time>2023-10-01T07:44:41.000Z</time>
      </trkpt>
      <trkpt lat="42.13109" lon="20.14654">
        <ele>798.03002929688</ele>
        <time>2023-10-01T07:44:40.000Z</time>
      </trkpt>
      <trkpt lat="42.13098" lon="20.14664">
        <ele>797.07000732422</ele>
        <time>2023-10-01T07:44:39.000Z</time>
      </trkpt>
      <trkpt lat="42.13088" lon="20.14672">
        <ele>796.10998535156</ele>
        <time>2023-10-01T07:44:38.000Z</time>
      </trkpt>
      <trkpt lat="42.13079" lon="20.14677">
        <ele>795.15002441406</ele>
        <time>2023-10-01T07:44:37.000Z</time>
      </trkpt>
      <trkpt lat="42.13071" lon="20.14677">
        <ele>794.66998291016</ele>
        <time>2023-10-01T07:44:36.000Z</time>
      </trkpt>
      <trkpt lat="42.13064" lon="20.14674">
        <ele>794.19000244141</ele>
        <time>2023-10-01T07:44:35.000Z</time>
      </trkpt>
      <trkpt lat="42.13056" lon="20.14664">
        <ele>792.73999023438</ele>
        <time>2023-10-01T07:44:34.000Z</time>
      </trkpt>
      <trkpt lat="42.13048" lon="20.1465">
        <ele>791.29998779297</ele>
        <time>2023-10-01T07:44:33.000Z</time>
      </trkpt>
      <trkpt lat="42.13039" lon="20.14639">
        <ele>789.38000488281</ele>
        <time>2023-10-01T07:44:32.000Z</time>
      </trkpt>
      <trkpt lat="42.13029" lon="20.14633">
        <ele>789.85998535156</ele>
        <time>2023-10-01T07:44:31.000Z</time>
      </trkpt>
      <trkpt lat="42.13018" lon="20.14631">
        <ele>789.38000488281</ele>
        <time>2023-10-01T07:44:30.000Z</time>
      </trkpt>
      <trkpt lat="42.13005" lon="20.14632">
        <ele>788.90002441406</ele>
        <time>2023-10-01T07:44:29.000Z</time>
      </trkpt>
      <trkpt lat="42.12993" lon="20.14633">
        <ele>788.90002441406</ele>
        <time>2023-10-01T07:44:28.000Z</time>
      </trkpt>
      <trkpt lat="42.1298" lon="20.14631">
        <ele>788.90002441406</ele>
        <time>2023-10-01T07:44:27.000Z</time>
      </trkpt>
      <trkpt lat="42.12968" lon="20.14626">
        <ele>788.90002441406</ele>
        <time>2023-10-01T07:44:26.000Z</time>
      </trkpt>
      <trkpt lat="42.12958" lon="20.1462">
        <ele>788.90002441406</ele>
        <time>2023-10-01T07:44:25.000Z</time>
      </trkpt>
      <trkpt lat="42.12951" lon="20.14611">
        <ele>789.38000488281</ele>
        <time>2023-10-01T07:44:24.000Z</time>
      </trkpt>
      <trkpt lat="42.12947" lon="20.14601">
        <ele>788.41998291016</ele>
        <time>2023-10-01T07:44:23.000Z</time>
      </trkpt>
      <trkpt lat="42.12946" lon="20.14589">
        <ele>788.41998291016</ele>
        <time>2023-10-01T07:44:22.000Z</time>
      </trkpt>
      <trkpt lat="42.12946" lon="20.14579">
        <ele>788.41998291016</ele>
        <time>2023-10-01T07:44:21.000Z</time>
      </trkpt>
      <trkpt lat="42.12946" lon="20.1456">
        <ele>787.94000244141</ele>
        <time>2023-10-01T07:44:20.000Z</time>
      </trkpt>
      <trkpt lat="42.12946" lon="20.14533">
        <ele>787.94000244141</ele>
        <time>2023-10-01T07:44:19.000Z</time>
      </trkpt>
      <trkpt lat="42.12947" lon="20.14516">
        <ele>787.94000244141</ele>
        <time>2023-10-01T07:44:18.000Z</time>
      </trkpt>
      <trkpt lat="42.1295" lon="20.14501">
        <ele>787.46002197266</ele>
        <time>2023-10-01T07:44:17.000Z</time>
      </trkpt>
      <trkpt lat="42.12955" lon="20.14484">
        <ele>786.97998046875</ele>
        <time>2023-10-01T07:44:16.000Z</time>
      </trkpt>
      <trkpt lat="42.12958" lon="20.14478">
        <ele>786.5</ele>
        <time>2023-10-01T07:44:15.000Z</time>
      </trkpt>
      <trkpt lat="42.12967" lon="20.14458">
        <ele>784.57000732422</ele>
        <time>2023-10-01T07:44:14.000Z</time>
      </trkpt>
      <trkpt lat="42.12976" lon="20.14435">
        <ele>782.65002441406</ele>
        <time>2023-10-01T07:44:13.000Z</time>
      </trkpt>
      <trkpt lat="42.12981" lon="20.14418">
        <ele>781.69000244141</ele>
        <time>2023-10-01T07:44:12.000Z</time>
      </trkpt>
      <trkpt lat="42.12989" lon="20.14391">
        <ele>779.77001953125</ele>
        <time>2023-10-01T07:44:11.000Z</time>
      </trkpt>
      <trkpt lat="42.12994" lon="20.14369">
        <ele>777.35998535156</ele>
        <time>2023-10-01T07:44:10.000Z</time>
      </trkpt>
      <trkpt lat="42.12995" lon="20.14363">
        <ele>777.35998535156</ele>
        <time>2023-10-01T07:44:09.000Z</time>
      </trkpt>
      <trkpt lat="42.13001" lon="20.14318">
        <ele>774.96002197266</ele>
        <time>2023-10-01T07:44:07.000Z</time>
      </trkpt>
      <trkpt lat="42.13002" lon="20.14305">
        <ele>773.03997802734</ele>
        <time>2023-10-01T07:44:06.000Z</time>
      </trkpt>
      <trkpt lat="42.12999" lon="20.14297">
        <ele>773.52001953125</ele>
        <time>2023-10-01T07:44:05.000Z</time>
      </trkpt>
      <trkpt lat="42.12993" lon="20.1429">
        <ele>774.47998046875</ele>
        <time>2023-10-01T07:44:04.000Z</time>
      </trkpt>
      <trkpt lat="42.12985" lon="20.14286">
        <ele>775.44000244141</ele>
        <time>2023-10-01T07:44:03.000Z</time>
      </trkpt>
      <trkpt lat="42.12976" lon="20.14287">
        <ele>775.44000244141</ele>
        <time>2023-10-01T07:44:02.000Z</time>
      </trkpt>
      <trkpt lat="42.12968" lon="20.14291">
        <ele>774.96002197266</ele>
        <time>2023-10-01T07:44:01.000Z</time>
      </trkpt>
      <trkpt lat="42.12956" lon="20.14302">
        <ele>775.44000244141</ele>
        <time>2023-10-01T07:44:00.000Z</time>
      </trkpt>
      <trkpt lat="42.12943" lon="20.14309">
        <ele>774.96002197266</ele>
        <time>2023-10-01T07:43:59.000Z</time>
      </trkpt>
      <trkpt lat="42.12929" lon="20.14315">
        <ele>774.96002197266</ele>
        <time>2023-10-01T07:43:58.000Z</time>
      </trkpt>
      <trkpt lat="42.12913" lon="20.14318">
        <ele>774.96002197266</ele>
        <time>2023-10-01T07:43:57.000Z</time>
      </trkpt>
      <trkpt lat="42.12907" lon="20.14319">
        <ele>774.96002197266</ele>
        <time>2023-10-01T07:43:56.000Z</time>
      </trkpt>
      <trkpt lat="42.12883" lon="20.14319">
        <ele>775.44000244141</ele>
        <time>2023-10-01T07:43:55.000Z</time>
      </trkpt>
      <trkpt lat="42.12869" lon="20.14323">
        <ele>774.96002197266</ele>
        <time>2023-10-01T07:43:54.000Z</time>
      </trkpt>
      <trkpt lat="42.12857" lon="20.14329">
        <ele>774.96002197266</ele>
        <time>2023-10-01T07:43:53.000Z</time>
      </trkpt>
      <trkpt lat="42.12844" lon="20.14333">
        <ele>774.96002197266</ele>
        <time>2023-10-01T07:43:52.000Z</time>
      </trkpt>
      <trkpt lat="42.12832" lon="20.14334">
        <ele>774.96002197266</ele>
        <time>2023-10-01T07:43:51.000Z</time>
      </trkpt>
      <trkpt lat="42.12819" lon="20.14332">
        <ele>774.96002197266</ele>
        <time>2023-10-01T07:43:50.000Z</time>
      </trkpt>
      <trkpt lat="42.12804" lon="20.14328">
        <ele>774</ele>
        <time>2023-10-01T07:43:49.000Z</time>
      </trkpt>
      <trkpt lat="42.1279" lon="20.1433">
        <ele>774</ele>
        <time>2023-10-01T07:43:48.000Z</time>
      </trkpt>
      <trkpt lat="42.12776" lon="20.14336">
        <ele>773.52001953125</ele>
        <time>2023-10-01T07:43:47.000Z</time>
      </trkpt>
      <trkpt lat="42.12763" lon="20.14345">
        <ele>773.52001953125</ele>
        <time>2023-10-01T07:43:46.000Z</time>
      </trkpt>
      <trkpt lat="42.12753" lon="20.14358">
        <ele>773.52001953125</ele>
        <time>2023-10-01T07:43:45.000Z</time>
      </trkpt>
      <trkpt lat="42.12744" lon="20.14372">
        <ele>773.52001953125</ele>
        <time>2023-10-01T07:43:44.000Z</time>
      </trkpt>
      <trkpt lat="42.12738" lon="20.14386">
        <ele>773.52001953125</ele>
        <time>2023-10-01T07:43:43.000Z</time>
      </trkpt>
      <trkpt lat="42.1273" lon="20.14401">
        <ele>773.52001953125</ele>
        <time>2023-10-01T07:43:42.000Z</time>
      </trkpt>
      <trkpt lat="42.12722" lon="20.14409">
        <ele>773.03997802734</ele>
        <time>2023-10-01T07:43:41.000Z</time>
      </trkpt>
      <trkpt lat="42.12711" lon="20.14418">
        <ele>772.55999755859</ele>
        <time>2023-10-01T07:43:40.000Z</time>
      </trkpt>
      <trkpt lat="42.12696" lon="20.1443">
        <ele>772.08001708984</ele>
        <time>2023-10-01T07:43:39.000Z</time>
      </trkpt>
      <trkpt lat="42.12685" lon="20.14438">
        <ele>772.08001708984</ele>
        <time>2023-10-01T07:43:38.000Z</time>
      </trkpt>
      <trkpt lat="42.12673" lon="20.14445">
        <ele>771.59997558594</ele>
        <time>2023-10-01T07:43:37.000Z</time>
      </trkpt>
      <trkpt lat="42.12662" lon="20.14447">
        <ele>771.10998535156</ele>
        <time>2023-10-01T07:43:36.000Z</time>
      </trkpt>
      <trkpt lat="42.12648" lon="20.14445">
        <ele>770.63000488281</ele>
        <time>2023-10-01T07:43:35.000Z</time>
      </trkpt>
      <trkpt lat="42.12635" lon="20.14441">
        <ele>770.15002441406</ele>
        <time>2023-10-01T07:43:34.000Z</time>
      </trkpt>
      <trkpt lat="42.12625" lon="20.14434">
        <ele>769.66998291016</ele>
        <time>2023-10-01T07:43:33.000Z</time>
      </trkpt>
      <trkpt lat="42.12614" lon="20.14422">
        <ele>769.66998291016</ele>
        <time>2023-10-01T07:43:32.000Z</time>
      </trkpt>
      <trkpt lat="42.12606" lon="20.1441">
        <ele>769.66998291016</ele>
        <time>2023-10-01T07:43:31.000Z</time>
      </trkpt>
      <trkpt lat="42.126" lon="20.14396">
        <ele>769.19000244141</ele>
        <time>2023-10-01T07:43:30.000Z</time>
      </trkpt>
      <trkpt lat="42.12596" lon="20.14382">
        <ele>769.19000244141</ele>
        <time>2023-10-01T07:43:29.000Z</time>
      </trkpt>
      <trkpt lat="42.12596" lon="20.14364">
        <ele>768.22998046875</ele>
        <time>2023-10-01T07:43:28.000Z</time>
      </trkpt>
      <trkpt lat="42.12598" lon="20.14345">
        <ele>767.75</ele>
        <time>2023-10-01T07:43:27.000Z</time>
      </trkpt>
      <trkpt lat="42.126" lon="20.14334">
        <ele>767.27001953125</ele>
        <time>2023-10-01T07:43:26.000Z</time>
      </trkpt>
      <trkpt lat="42.12606" lon="20.14311">
        <ele>766.30999755859</ele>
        <time>2023-10-01T07:43:25.000Z</time>
      </trkpt>
      <trkpt lat="42.1261" lon="20.14288">
        <ele>765.34997558594</ele>
        <time>2023-10-01T07:43:24.000Z</time>
      </trkpt>
      <trkpt lat="42.12611" lon="20.14275">
        <ele>764.86999511719</ele>
        <time>2023-10-01T07:43:23.000Z</time>
      </trkpt>
      <trkpt lat="42.12613" lon="20.14245">
        <ele>763.90002441406</ele>
        <time>2023-10-01T07:43:22.000Z</time>
      </trkpt>
      <trkpt lat="42.12613" lon="20.14227">
        <ele>761.5</ele>
        <time>2023-10-01T07:43:21.000Z</time>
      </trkpt>
      <trkpt lat="42.12611" lon="20.14213">
        <ele>760.53997802734</ele>
        <time>2023-10-01T07:43:20.000Z</time>
      </trkpt>
      <trkpt lat="42.12605" lon="20.14204">
        <ele>760.53997802734</ele>
        <time>2023-10-01T07:43:19.000Z</time>
      </trkpt>
      <trkpt lat="42.12599" lon="20.14199">
        <ele>760.53997802734</ele>
        <time>2023-10-01T07:43:18.000Z</time>
      </trkpt>
      <trkpt lat="42.12591" lon="20.14199">
        <ele>760.53997802734</ele>
        <time>2023-10-01T07:43:17.000Z</time>
      </trkpt>
      <trkpt lat="42.12583" lon="20.14202">
        <ele>760.05999755859</ele>
        <time>2023-10-01T07:43:16.000Z</time>
      </trkpt>
      <trkpt lat="42.12573" lon="20.14207">
        <ele>760.05999755859</ele>
        <time>2023-10-01T07:43:15.000Z</time>
      </trkpt>
      <trkpt lat="42.12567" lon="20.1421">
        <ele>759.58001708984</ele>
        <time>2023-10-01T07:43:14.000Z</time>
      </trkpt>
      <trkpt lat="42.12559" lon="20.14215">
        <ele>759.09997558594</ele>
        <time>2023-10-01T07:43:13.000Z</time>
      </trkpt>
      <trkpt lat="42.12554" lon="20.14216">
        <ele>759.09997558594</ele>
        <time>2023-10-01T07:43:12.000Z</time>
      </trkpt>
      <trkpt lat="42.1255" lon="20.14216">
        <ele>758.61999511719</ele>
        <time>2023-10-01T07:43:11.000Z</time>
      </trkpt>
      <trkpt lat="42.12544" lon="20.14213">
        <ele>758.14001464844</ele>
        <time>2023-10-01T07:43:10.000Z</time>
      </trkpt>
      <trkpt lat="42.12537" lon="20.14204">
        <ele>757.65997314453</ele>
        <time>2023-10-01T07:43:09.000Z</time>
      </trkpt>
      <trkpt lat="42.12534" lon="20.14197">
        <ele>757.17999267578</ele>
        <time>2023-10-01T07:43:08.000Z</time>
      </trkpt>
      <trkpt lat="42.12526" lon="20.14177">
        <ele>756.21002197266</ele>
        <time>2023-10-01T07:43:07.000Z</time>
      </trkpt>
      <trkpt lat="42.12517" lon="20.14165">
        <ele>755.72998046875</ele>
        <time>2023-10-01T07:43:06.000Z</time>
      </trkpt>
      <trkpt lat="42.12504" lon="20.14154">
        <ele>755.25</ele>
        <time>2023-10-01T07:43:05.000Z</time>
      </trkpt>
      <trkpt lat="42.1249" lon="20.14146">
        <ele>754.77001953125</ele>
        <time>2023-10-01T07:43:04.000Z</time>
      </trkpt>
      <trkpt lat="42.1248" lon="20.14142">
        <ele>754.28997802734</ele>
        <time>2023-10-01T07:43:03.000Z</time>
      </trkpt>
      <trkpt lat="42.1246" lon="20.14135">
        <ele>753.33001708984</ele>
        <time>2023-10-01T07:43:02.000Z</time>
      </trkpt>
      <trkpt lat="42.12448" lon="20.14129">
        <ele>752.36999511719</ele>
        <time>2023-10-01T07:43:01.000Z</time>
      </trkpt>
      <trkpt lat="42.12437" lon="20.14119">
        <ele>751.89001464844</ele>
        <time>2023-10-01T07:43:00.000Z</time>
      </trkpt>
      <trkpt lat="42.12433" lon="20.14114">
        <ele>751.40997314453</ele>
        <time>2023-10-01T07:42:59.000Z</time>
      </trkpt>
      <trkpt lat="42.12423" lon="20.141">
        <ele>750.45001220703</ele>
        <time>2023-10-01T07:42:58.000Z</time>
      </trkpt>
      <trkpt lat="42.12408" lon="20.14079">
        <ele>749.48999023438</ele>
        <time>2023-10-01T07:42:57.000Z</time>
      </trkpt>
      <trkpt lat="42.12398" lon="20.14063">
        <ele>748.52001953125</ele>
        <time>2023-10-01T07:42:56.000Z</time>
      </trkpt>
      <trkpt lat="42.12389" lon="20.14046">
        <ele>747.55999755859</ele>
        <time>2023-10-01T07:42:55.000Z</time>
      </trkpt>
      <trkpt lat="42.12383" lon="20.1403">
        <ele>746.59997558594</ele>
        <time>2023-10-01T07:42:54.000Z</time>
      </trkpt>
      <trkpt lat="42.12378" lon="20.14013">
        <ele>746.59997558594</ele>
        <time>2023-10-01T07:42:53.000Z</time>
      </trkpt>
      <trkpt lat="42.12375" lon="20.13999">
        <ele>746.11999511719</ele>
        <time>2023-10-01T07:42:52.000Z</time>
      </trkpt>
      <trkpt lat="42.12374" lon="20.13993">
        <ele>745.64001464844</ele>
        <time>2023-10-01T07:42:51.000Z</time>
      </trkpt>
      <trkpt lat="42.12367" lon="20.13941">
        <ele>745.64001464844</ele>
        <time>2023-10-01T07:42:48.000Z</time>
      </trkpt>
      <trkpt lat="42.12367" lon="20.13933">
        <ele>745.64001464844</ele>
        <time>2023-10-01T07:42:47.000Z</time>
      </trkpt>
      <trkpt lat="42.1237" lon="20.13923">
        <ele>746.11999511719</ele>
        <time>2023-10-01T07:42:46.000Z</time>
      </trkpt>
      <trkpt lat="42.12374" lon="20.13915">
        <ele>746.11999511719</ele>
        <time>2023-10-01T07:42:45.000Z</time>
      </trkpt>
      <trkpt lat="42.12382" lon="20.139">
        <ele>746.11999511719</ele>
        <time>2023-10-01T07:42:44.000Z</time>
      </trkpt>
      <trkpt lat="42.12385" lon="20.13887">
        <ele>746.11999511719</ele>
        <time>2023-10-01T07:42:43.000Z</time>
      </trkpt>
      <trkpt lat="42.12385" lon="20.13871">
        <ele>745.15997314453</ele>
        <time>2023-10-01T07:42:42.000Z</time>
      </trkpt>
      <trkpt lat="42.1238" lon="20.13856">
        <ele>744.67999267578</ele>
        <time>2023-10-01T07:42:41.000Z</time>
      </trkpt>
      <trkpt lat="42.12372" lon="20.13842">
        <ele>743.71997070312</ele>
        <time>2023-10-01T07:42:40.000Z</time>
      </trkpt>
      <trkpt lat="42.1236" lon="20.1383">
        <ele>743.23999023438</ele>
        <time>2023-10-01T07:42:39.000Z</time>
      </trkpt>
      <trkpt lat="42.12347" lon="20.13822">
        <ele>742.28002929688</ele>
        <time>2023-10-01T07:42:38.000Z</time>
      </trkpt>
      <trkpt lat="42.12333" lon="20.13816">
        <ele>741.78997802734</ele>
        <time>2023-10-01T07:42:37.000Z</time>
      </trkpt>
      <trkpt lat="42.12297" lon="20.13803">
        <ele>740.83001708984</ele>
        <time>2023-10-01T07:42:34.000Z</time>
      </trkpt>
      <trkpt lat="42.12289" lon="20.13798">
        <ele>740.34997558594</ele>
        <time>2023-10-01T07:42:33.000Z</time>
      </trkpt>
      <trkpt lat="42.12282" lon="20.1379">
        <ele>740.34997558594</ele>
        <time>2023-10-01T07:42:32.000Z</time>
      </trkpt>
      <trkpt lat="42.12279" lon="20.13781">
        <ele>740.34997558594</ele>
        <time>2023-10-01T07:42:31.000Z</time>
      </trkpt>
      <trkpt lat="42.12279" lon="20.1377">
        <ele>739.86999511719</ele>
        <time>2023-10-01T07:42:30.000Z</time>
      </trkpt>
      <trkpt lat="42.12281" lon="20.13764">
        <ele>739.86999511719</ele>
        <time>2023-10-01T07:42:29.000Z</time>
      </trkpt>
      <trkpt lat="42.12291" lon="20.13736">
        <ele>736.98999023438</ele>
        <time>2023-10-01T07:42:27.000Z</time>
      </trkpt>
      <trkpt lat="42.12298" lon="20.13718">
        <ele>735.54998779297</ele>
        <time>2023-10-01T07:42:26.000Z</time>
      </trkpt>
      <trkpt lat="42.12304" lon="20.13698">
        <ele>735.07000732422</ele>
        <time>2023-10-01T07:42:25.000Z</time>
      </trkpt>
      <trkpt lat="42.12307" lon="20.13684">
        <ele>734.09997558594</ele>
        <time>2023-10-01T07:42:24.000Z</time>
      </trkpt>
      <trkpt lat="42.12306" lon="20.13669">
        <ele>733.61999511719</ele>
        <time>2023-10-01T07:42:23.000Z</time>
      </trkpt>
      <trkpt lat="42.123" lon="20.13657">
        <ele>733.14001464844</ele>
        <time>2023-10-01T07:42:22.000Z</time>
      </trkpt>
      <trkpt lat="42.12292" lon="20.13647">
        <ele>732.65997314453</ele>
        <time>2023-10-01T07:42:21.000Z</time>
      </trkpt>
      <trkpt lat="42.1228" lon="20.13638">
        <ele>732.65997314453</ele>
        <time>2023-10-01T07:42:20.000Z</time>
      </trkpt>
      <trkpt lat="42.12277" lon="20.13636">
        <ele>732.65997314453</ele>
        <time>2023-10-01T07:42:19.000Z</time>
      </trkpt>
      <trkpt lat="42.12238" lon="20.13606">
        <ele>733.14001464844</ele>
        <time>2023-10-01T07:42:17.000Z</time>
      </trkpt>
      <trkpt lat="42.12227" lon="20.13595">
        <ele>733.61999511719</ele>
        <time>2023-10-01T07:42:16.000Z</time>
      </trkpt>
      <trkpt lat="42.12219" lon="20.13584">
        <ele>734.58001708984</ele>
        <time>2023-10-01T07:42:15.000Z</time>
      </trkpt>
      <trkpt lat="42.12213" lon="20.13571">
        <ele>735.54998779297</ele>
        <time>2023-10-01T07:42:14.000Z</time>
      </trkpt>
      <trkpt lat="42.1221" lon="20.13557">
        <ele>736.03002929688</ele>
        <time>2023-10-01T07:42:13.000Z</time>
      </trkpt>
      <trkpt lat="42.1221" lon="20.13548">
        <ele>736.03002929688</ele>
        <time>2023-10-01T07:42:12.000Z</time>
      </trkpt>
      <trkpt lat="42.1221" lon="20.13524">
        <ele>735.54998779297</ele>
        <time>2023-10-01T07:42:11.000Z</time>
      </trkpt>
      <trkpt lat="42.1221" lon="20.1351">
        <ele>735.07000732422</ele>
        <time>2023-10-01T07:42:10.000Z</time>
      </trkpt>
      <trkpt lat="42.12211" lon="20.13486">
        <ele>734.58001708984</ele>
        <time>2023-10-01T07:42:09.000Z</time>
      </trkpt>
      <trkpt lat="42.12213" lon="20.13466">
        <ele>734.09997558594</ele>
        <time>2023-10-01T07:42:08.000Z</time>
      </trkpt>
      <trkpt lat="42.12218" lon="20.13447">
        <ele>733.14001464844</ele>
        <time>2023-10-01T07:42:07.000Z</time>
      </trkpt>
      <trkpt lat="42.12223" lon="20.13435">
        <ele>732.65997314453</ele>
        <time>2023-10-01T07:42:06.000Z</time>
      </trkpt>
      <trkpt lat="42.12233" lon="20.13413">
        <ele>731.21997070312</ele>
        <time>2023-10-01T07:42:05.000Z</time>
      </trkpt>
      <trkpt lat="42.12242" lon="20.13394">
        <ele>729.29998779297</ele>
        <time>2023-10-01T07:42:04.000Z</time>
      </trkpt>
      <trkpt lat="42.1225" lon="20.13379">
        <ele>727.85998535156</ele>
        <time>2023-10-01T07:42:03.000Z</time>
      </trkpt>
      <trkpt lat="42.12263" lon="20.13358">
        <ele>726.89001464844</ele>
        <time>2023-10-01T07:42:02.000Z</time>
      </trkpt>
      <trkpt lat="42.12268" lon="20.1335">
        <ele>726.89001464844</ele>
        <time>2023-10-01T07:42:01.000Z</time>
      </trkpt>
      <trkpt lat="42.12293" lon="20.13316">
        <ele>724.01000976562</ele>
        <time>2023-10-01T07:41:59.000Z</time>
      </trkpt>
      <trkpt lat="42.12301" lon="20.13308">
        <ele>723.04998779297</ele>
        <time>2023-10-01T07:41:58.000Z</time>
      </trkpt>
      <trkpt lat="42.12314" lon="20.13298">
        <ele>722.57000732422</ele>
        <time>2023-10-01T07:41:57.000Z</time>
      </trkpt>
      <trkpt lat="42.12322" lon="20.13287">
        <ele>721.60998535156</ele>
        <time>2023-10-01T07:41:56.000Z</time>
      </trkpt>
      <trkpt lat="42.12327" lon="20.13274">
        <ele>720.65002441406</ele>
        <time>2023-10-01T07:41:55.000Z</time>
      </trkpt>
      <trkpt lat="42.1233" lon="20.1326">
        <ele>719.67999267578</ele>
        <time>2023-10-01T07:41:54.000Z</time>
      </trkpt>
      <trkpt lat="42.12329" lon="20.13246">
        <ele>719.20001220703</ele>
        <time>2023-10-01T07:41:53.000Z</time>
      </trkpt>
      <trkpt lat="42.12329" lon="20.13233">
        <ele>718.71997070312</ele>
        <time>2023-10-01T07:41:52.000Z</time>
      </trkpt>
      <trkpt lat="42.1233" lon="20.13222">
        <ele>718.23999023438</ele>
        <time>2023-10-01T07:41:51.000Z</time>
      </trkpt>
      <trkpt lat="42.12335" lon="20.13213">
        <ele>717.28002929688</ele>
        <time>2023-10-01T07:41:50.000Z</time>
      </trkpt>
      <trkpt lat="42.12339" lon="20.13209">
        <ele>716.79998779297</ele>
        <time>2023-10-01T07:41:49.000Z</time>
      </trkpt>
      <trkpt lat="42.1238" lon="20.13179">
        <ele>712.46997070312</ele>
        <time>2023-10-01T07:41:46.000Z</time>
      </trkpt>
      <trkpt lat="42.1246" lon="20.13117">
        <ele>706.22998046875</ele>
        <time>2023-10-01T07:41:40.000Z</time>
      </trkpt>
      <trkpt lat="42.12478" lon="20.13102">
        <ele>703.82000732422</ele>
        <time>2023-10-01T07:41:39.000Z</time>
      </trkpt>
      <trkpt lat="42.12487" lon="20.13089">
        <ele>703.34002685547</ele>
        <time>2023-10-01T07:41:38.000Z</time>
      </trkpt>
      <trkpt lat="42.12494" lon="20.13074">
        <ele>702.38000488281</ele>
        <time>2023-10-01T07:41:37.000Z</time>
      </trkpt>
      <trkpt lat="42.125" lon="20.13063">
        <ele>701.90002441406</ele>
        <time>2023-10-01T07:41:36.000Z</time>
      </trkpt>
      <trkpt lat="42.12507" lon="20.13056">
        <ele>701.41998291016</ele>
        <time>2023-10-01T07:41:35.000Z</time>
      </trkpt>
      <trkpt lat="42.12513" lon="20.13051">
        <ele>700.94000244141</ele>
        <time>2023-10-01T07:41:34.000Z</time>
      </trkpt>
      <trkpt lat="42.12535" lon="20.13036">
        <ele>700.94000244141</ele>
        <time>2023-10-01T07:41:33.000Z</time>
      </trkpt>
      <trkpt lat="42.12549" lon="20.13028">
        <ele>701.41998291016</ele>
        <time>2023-10-01T07:41:32.000Z</time>
      </trkpt>
      <trkpt lat="42.12559" lon="20.13023">
        <ele>701.90002441406</ele>
        <time>2023-10-01T07:41:31.000Z</time>
      </trkpt>
      <trkpt lat="42.12574" lon="20.13016">
        <ele>701.41998291016</ele>
        <time>2023-10-01T07:41:30.000Z</time>
      </trkpt>
      <trkpt lat="42.12584" lon="20.13008">
        <ele>701.41998291016</ele>
        <time>2023-10-01T07:41:29.000Z</time>
      </trkpt>
      <trkpt lat="42.12591" lon="20.12999">
        <ele>700.46002197266</ele>
        <time>2023-10-01T07:41:28.000Z</time>
      </trkpt>
      <trkpt lat="42.12595" lon="20.12988">
        <ele>700.46002197266</ele>
        <time>2023-10-01T07:41:27.000Z</time>
      </trkpt>
      <trkpt lat="42.12594" lon="20.12977">
        <ele>699.97998046875</ele>
        <time>2023-10-01T07:41:26.000Z</time>
      </trkpt>
      <trkpt lat="42.1259" lon="20.12967">
        <ele>700.46002197266</ele>
        <time>2023-10-01T07:41:25.000Z</time>
      </trkpt>
      <trkpt lat="42.12582" lon="20.1296">
        <ele>699.5</ele>
        <time>2023-10-01T07:41:24.000Z</time>
      </trkpt>
      <trkpt lat="42.12572" lon="20.12956">
        <ele>698.53002929688</ele>
        <time>2023-10-01T07:41:23.000Z</time>
      </trkpt>
      <trkpt lat="42.12569" lon="20.12956">
        <ele>698.04998779297</ele>
        <time>2023-10-01T07:41:22.000Z</time>
      </trkpt>
      <trkpt lat="42.12541" lon="20.12953">
        <ele>696.60998535156</ele>
        <time>2023-10-01T07:41:21.000Z</time>
      </trkpt>
      <trkpt lat="42.12538" lon="20.12953">
        <ele>696.13000488281</ele>
        <time>2023-10-01T07:41:20.000Z</time>
      </trkpt>
      <trkpt lat="42.12456" lon="20.12959">
        <ele>695.16998291016</ele>
        <time>2023-10-01T07:41:16.000Z</time>
      </trkpt>
      <trkpt lat="42.12448" lon="20.12959">
        <ele>695.16998291016</ele>
        <time>2023-10-01T07:41:15.000Z</time>
      </trkpt>
      <trkpt lat="42.12426" lon="20.12957">
        <ele>696.13000488281</ele>
        <time>2023-10-01T07:41:14.000Z</time>
      </trkpt>
      <trkpt lat="42.12415" lon="20.12958">
        <ele>696.13000488281</ele>
        <time>2023-10-01T07:41:13.000Z</time>
      </trkpt>
      <trkpt lat="42.12399" lon="20.12961">
        <ele>696.60998535156</ele>
        <time>2023-10-01T07:41:12.000Z</time>
      </trkpt>
      <trkpt lat="42.12387" lon="20.1296">
        <ele>695.65002441406</ele>
        <time>2023-10-01T07:41:11.000Z</time>
      </trkpt>
      <trkpt lat="42.12374" lon="20.12957">
        <ele>696.13000488281</ele>
        <time>2023-10-01T07:41:10.000Z</time>
      </trkpt>
      <trkpt lat="42.12364" lon="20.12956">
        <ele>696.60998535156</ele>
        <time>2023-10-01T07:41:09.000Z</time>
      </trkpt>
      <trkpt lat="42.12347" lon="20.12956">
        <ele>696.60998535156</ele>
        <time>2023-10-01T07:41:08.000Z</time>
      </trkpt>
      <trkpt lat="42.12335" lon="20.12952">
        <ele>696.60998535156</ele>
        <time>2023-10-01T07:41:07.000Z</time>
      </trkpt>
      <trkpt lat="42.12324" lon="20.12944">
        <ele>697.09002685547</ele>
        <time>2023-10-01T07:41:06.000Z</time>
      </trkpt>
      <trkpt lat="42.12321" lon="20.12942">
        <ele>697.09002685547</ele>
        <time>2023-10-01T07:41:05.000Z</time>
      </trkpt>
      <trkpt lat="42.12254" lon="20.129">
        <ele>700.94000244141</ele>
        <time>2023-10-01T07:41:01.000Z</time>
      </trkpt>
      <trkpt lat="42.12242" lon="20.12893">
        <ele>701.90002441406</ele>
        <time>2023-10-01T07:41:00.000Z</time>
      </trkpt>
      <trkpt lat="42.12228" lon="20.12889">
        <ele>703.34002685547</ele>
        <time>2023-10-01T07:40:59.000Z</time>
      </trkpt>
      <trkpt lat="42.12212" lon="20.12888">
        <ele>704.78002929688</ele>
        <time>2023-10-01T07:40:58.000Z</time>
      </trkpt>
      <trkpt lat="42.12195" lon="20.1289">
        <ele>705.75</ele>
        <time>2023-10-01T07:40:57.000Z</time>
      </trkpt>
      <trkpt lat="42.12188" lon="20.12892">
        <ele>706.22998046875</ele>
        <time>2023-10-01T07:40:56.000Z</time>
      </trkpt>
      <trkpt lat="42.12131" lon="20.12913">
        <ele>709.59002685547</ele>
        <time>2023-10-01T07:40:53.000Z</time>
      </trkpt>
      <trkpt lat="42.12119" lon="20.12918">
        <ele>709.59002685547</ele>
        <time>2023-10-01T07:40:52.000Z</time>
      </trkpt>
      <trkpt lat="42.12113" lon="20.12922">
        <ele>710.07000732422</ele>
        <time>2023-10-01T07:40:51.000Z</time>
      </trkpt>
      <trkpt lat="42.12098" lon="20.12931">
        <ele>710.54998779297</ele>
        <time>2023-10-01T07:40:50.000Z</time>
      </trkpt>
      <trkpt lat="42.12089" lon="20.12934">
        <ele>711.03002929688</ele>
        <time>2023-10-01T07:40:49.000Z</time>
      </trkpt>
      <trkpt lat="42.12081" lon="20.12933">
        <ele>711.51000976562</ele>
        <time>2023-10-01T07:40:48.000Z</time>
      </trkpt>
      <trkpt lat="42.12074" lon="20.12926">
        <ele>711.98999023438</ele>
        <time>2023-10-01T07:40:47.000Z</time>
      </trkpt>
      <trkpt lat="42.1207" lon="20.12915">
        <ele>711.98999023438</ele>
        <time>2023-10-01T07:40:46.000Z</time>
      </trkpt>
      <trkpt lat="42.12068" lon="20.12901">
        <ele>712.95001220703</ele>
        <time>2023-10-01T07:40:45.000Z</time>
      </trkpt>
      <trkpt lat="42.12067" lon="20.12885">
        <ele>713.44000244141</ele>
        <time>2023-10-01T07:40:44.000Z</time>
      </trkpt>
      <trkpt lat="42.12067" lon="20.12868">
        <ele>713.91998291016</ele>
        <time>2023-10-01T07:40:43.000Z</time>
      </trkpt>
      <trkpt lat="42.1207" lon="20.12852">
        <ele>714.40002441406</ele>
        <time>2023-10-01T07:40:42.000Z</time>
      </trkpt>
      <trkpt lat="42.12075" lon="20.12838">
        <ele>714.88000488281</ele>
        <time>2023-10-01T07:40:41.000Z</time>
      </trkpt>
      <trkpt lat="42.1208" lon="20.1283">
        <ele>715.35998535156</ele>
        <time>2023-10-01T07:40:40.000Z</time>
      </trkpt>
      <trkpt lat="42.1209" lon="20.12811">
        <ele>715.84002685547</ele>
        <time>2023-10-01T07:40:39.000Z</time>
      </trkpt>
      <trkpt lat="42.12095" lon="20.12798">
        <ele>716.32000732422</ele>
        <time>2023-10-01T07:40:38.000Z</time>
      </trkpt>
      <trkpt lat="42.12098" lon="20.1279">
        <ele>716.79998779297</ele>
        <time>2023-10-01T07:40:37.000Z</time>
      </trkpt>
      <trkpt lat="42.12115" lon="20.12734">
        <ele>721.13000488281</ele>
        <time>2023-10-01T07:40:34.000Z</time>
      </trkpt>
      <trkpt lat="42.12121" lon="20.12714">
        <ele>721.60998535156</ele>
        <time>2023-10-01T07:40:33.000Z</time>
      </trkpt>
      <trkpt lat="42.1213" lon="20.12678">
        <ele>721.60998535156</ele>
        <time>2023-10-01T07:40:31.000Z</time>
      </trkpt>
      <trkpt lat="42.12138" lon="20.12652">
        <ele>722.09002685547</ele>
        <time>2023-10-01T07:40:30.000Z</time>
      </trkpt>
      <trkpt lat="42.12143" lon="20.12636">
        <ele>723.04998779297</ele>
        <time>2023-10-01T07:40:29.000Z</time>
      </trkpt>
      <trkpt lat="42.1215" lon="20.12617">
        <ele>724.01000976562</ele>
        <time>2023-10-01T07:40:28.000Z</time>
      </trkpt>
      <trkpt lat="42.12155" lon="20.12606">
        <ele>724.48999023438</ele>
        <time>2023-10-01T07:40:27.000Z</time>
      </trkpt>
      <trkpt lat="42.12165" lon="20.12588">
        <ele>725.45001220703</ele>
        <time>2023-10-01T07:40:26.000Z</time>
      </trkpt>
      <trkpt lat="42.12174" lon="20.12569">
        <ele>726.89001464844</ele>
        <time>2023-10-01T07:40:25.000Z</time>
      </trkpt>
      <trkpt lat="42.12194" lon="20.1252">
        <ele>728.34002685547</ele>
        <time>2023-10-01T07:40:22.000Z</time>
      </trkpt>
      <trkpt lat="42.12197" lon="20.12512">
        <ele>728.34002685547</ele>
        <time>2023-10-01T07:40:21.000Z</time>
      </trkpt>
      <trkpt lat="42.12205" lon="20.12495">
        <ele>728.34002685547</ele>
        <time>2023-10-01T07:40:20.000Z</time>
      </trkpt>
      <trkpt lat="42.12215" lon="20.12476">
        <ele>728.34002685547</ele>
        <time>2023-10-01T07:40:19.000Z</time>
      </trkpt>
      <trkpt lat="42.1222" lon="20.12465">
        <ele>728.34002685547</ele>
        <time>2023-10-01T07:40:18.000Z</time>
      </trkpt>
      <trkpt lat="42.12238" lon="20.12423">
        <ele>728.34002685547</ele>
        <time>2023-10-01T07:40:16.000Z</time>
      </trkpt>
      <trkpt lat="42.12242" lon="20.12407">
        <ele>728.34002685547</ele>
        <time>2023-10-01T07:40:15.000Z</time>
      </trkpt>
      <trkpt lat="42.12243" lon="20.12404">
        <ele>728.34002685547</ele>
        <time>2023-10-01T07:40:14.000Z</time>
      </trkpt>
      <trkpt lat="42.12249" lon="20.12378">
        <ele>729.29998779297</ele>
        <time>2023-10-01T07:40:13.000Z</time>
      </trkpt>
      <trkpt lat="42.12254" lon="20.12361">
        <ele>730.26000976562</ele>
        <time>2023-10-01T07:40:12.000Z</time>
      </trkpt>
      <trkpt lat="42.12257" lon="20.12353">
        <ele>730.73999023438</ele>
        <time>2023-10-01T07:40:11.000Z</time>
      </trkpt>
      <trkpt lat="42.12262" lon="20.12344">
        <ele>731.21997070312</ele>
        <time>2023-10-01T07:40:10.000Z</time>
      </trkpt>
      <trkpt lat="42.12275" lon="20.1232">
        <ele>733.14001464844</ele>
        <time>2023-10-01T07:40:09.000Z</time>
      </trkpt>
      <trkpt lat="42.12281" lon="20.12307">
        <ele>734.09997558594</ele>
        <time>2023-10-01T07:40:08.000Z</time>
      </trkpt>
      <trkpt lat="42.12283" lon="20.12301">
        <ele>734.58001708984</ele>
        <time>2023-10-01T07:40:07.000Z</time>
      </trkpt>
      <trkpt lat="42.12291" lon="20.12276">
        <ele>736.03002929688</ele>
        <time>2023-10-01T07:40:06.000Z</time>
      </trkpt>
      <trkpt lat="42.12298" lon="20.12252">
        <ele>736.98999023438</ele>
        <time>2023-10-01T07:40:04.000Z</time>
      </trkpt>
      <trkpt lat="42.12323" lon="20.12159">
        <ele>741.30999755859</ele>
        <time>2023-10-01T07:39:59.000Z</time>
      </trkpt>
      <trkpt lat="42.12328" lon="20.12148">
        <ele>742.28002929688</ele>
        <time>2023-10-01T07:39:58.000Z</time>
      </trkpt>
      <trkpt lat="42.12336" lon="20.12134">
        <ele>743.23999023438</ele>
        <time>2023-10-01T07:39:57.000Z</time>
      </trkpt>
      <trkpt lat="42.12343" lon="20.1212">
        <ele>743.71997070312</ele>
        <time>2023-10-01T07:39:56.000Z</time>
      </trkpt>
      <trkpt lat="42.12345" lon="20.12109">
        <ele>744.20001220703</ele>
        <time>2023-10-01T07:39:55.000Z</time>
      </trkpt>
      <trkpt lat="42.12354" lon="20.12064">
        <ele>746.11999511719</ele>
        <time>2023-10-01T07:39:53.000Z</time>
      </trkpt>
      <trkpt lat="42.12361" lon="20.12034">
        <ele>747.55999755859</ele>
        <time>2023-10-01T07:39:51.000Z</time>
      </trkpt>
      <trkpt lat="42.12365" lon="20.1202">
        <ele>748.52001953125</ele>
        <time>2023-10-01T07:39:50.000Z</time>
      </trkpt>
      <trkpt lat="42.12387" lon="20.11953">
        <ele>754.28997802734</ele>
        <time>2023-10-01T07:39:46.000Z</time>
      </trkpt>
      <trkpt lat="42.124" lon="20.11906">
        <ele>758.61999511719</ele>
        <time>2023-10-01T07:39:43.000Z</time>
      </trkpt>
      <trkpt lat="42.12407" lon="20.11886">
        <ele>760.05999755859</ele>
        <time>2023-10-01T07:39:42.000Z</time>
      </trkpt>
      <trkpt lat="42.12434" lon="20.11825">
        <ele>764.86999511719</ele>
        <time>2023-10-01T07:39:38.000Z</time>
      </trkpt>
      <trkpt lat="42.12444" lon="20.1181">
        <ele>766.30999755859</ele>
        <time>2023-10-01T07:39:37.000Z</time>
      </trkpt>
      <trkpt lat="42.12449" lon="20.11803">
        <ele>766.78997802734</ele>
        <time>2023-10-01T07:39:36.000Z</time>
      </trkpt>
      <trkpt lat="42.12468" lon="20.11781">
        <ele>769.66998291016</ele>
        <time>2023-10-01T07:39:34.000Z</time>
      </trkpt>
      <trkpt lat="42.12483" lon="20.11761">
        <ele>770.63000488281</ele>
        <time>2023-10-01T07:39:33.000Z</time>
      </trkpt>
      <trkpt lat="42.1249" lon="20.11749">
        <ele>771.10998535156</ele>
        <time>2023-10-01T07:39:32.000Z</time>
      </trkpt>
      <trkpt lat="42.12498" lon="20.11734">
        <ele>772.08001708984</ele>
        <time>2023-10-01T07:39:31.000Z</time>
      </trkpt>
      <trkpt lat="42.12503" lon="20.11719">
        <ele>773.03997802734</ele>
        <time>2023-10-01T07:39:30.000Z</time>
      </trkpt>
      <trkpt lat="42.12506" lon="20.11704">
        <ele>773.52001953125</ele>
        <time>2023-10-01T07:39:29.000Z</time>
      </trkpt>
      <trkpt lat="42.12506" lon="20.11689">
        <ele>774</ele>
        <time>2023-10-01T07:39:28.000Z</time>
      </trkpt>
      <trkpt lat="42.12503" lon="20.11675">
        <ele>774.96002197266</ele>
        <time>2023-10-01T07:39:27.000Z</time>
      </trkpt>
      <trkpt lat="42.12498" lon="20.11663">
        <ele>775.91998291016</ele>
        <time>2023-10-01T07:39:26.000Z</time>
      </trkpt>
      <trkpt lat="42.12493" lon="20.11656">
        <ele>776.88000488281</ele>
        <time>2023-10-01T07:39:25.000Z</time>
      </trkpt>
      <trkpt lat="42.12485" lon="20.11652">
        <ele>777.35998535156</ele>
        <time>2023-10-01T07:39:24.000Z</time>
      </trkpt>
      <trkpt lat="42.12477" lon="20.11653">
        <ele>777.84002685547</ele>
        <time>2023-10-01T07:39:23.000Z</time>
      </trkpt>
      <trkpt lat="42.12468" lon="20.11658">
        <ele>777.84002685547</ele>
        <time>2023-10-01T07:39:22.000Z</time>
      </trkpt>
      <trkpt lat="42.12459" lon="20.11665">
        <ele>777.84002685547</ele>
        <time>2023-10-01T07:39:21.000Z</time>
      </trkpt>
      <trkpt lat="42.12451" lon="20.11675">
        <ele>778.32000732422</ele>
        <time>2023-10-01T07:39:20.000Z</time>
      </trkpt>
      <trkpt lat="42.12447" lon="20.1168">
        <ele>778.32000732422</ele>
        <time>2023-10-01T07:39:19.000Z</time>
      </trkpt>
      <trkpt lat="42.12402" lon="20.11724">
        <ele>779.77001953125</ele>
        <time>2023-10-01T07:39:16.000Z</time>
      </trkpt>
      <trkpt lat="42.12346" lon="20.11788">
        <ele>784.57000732422</ele>
        <time>2023-10-01T07:39:12.000Z</time>
      </trkpt>
      <trkpt lat="42.12299" lon="20.11834">
        <ele>789.85998535156</ele>
        <time>2023-10-01T07:39:08.000Z</time>
      </trkpt>
      <trkpt lat="42.12285" lon="20.11849">
        <ele>790.82000732422</ele>
        <time>2023-10-01T07:39:07.000Z</time>
      </trkpt>
      <trkpt lat="42.12198" lon="20.1194">
        <ele>799.95001220703</ele>
        <time>2023-10-01T07:39:01.000Z</time>
      </trkpt>
      <trkpt lat="42.12141" lon="20.11985">
        <ele>805.23999023438</ele>
        <time>2023-10-01T07:38:57.000Z</time>
      </trkpt>
      <trkpt lat="42.12133" lon="20.11992">
        <ele>805.71997070312</ele>
        <time>2023-10-01T07:38:56.000Z</time>
      </trkpt>
      <trkpt lat="42.12128" lon="20.11999">
        <ele>806.20001220703</ele>
        <time>2023-10-01T07:38:55.000Z</time>
      </trkpt>
      <trkpt lat="42.12127" lon="20.12001">
        <ele>806.20001220703</ele>
        <time>2023-10-01T07:38:54.000Z</time>
      </trkpt>
      <trkpt lat="42.12121" lon="20.12013">
        <ele>806.67999267578</ele>
        <time>2023-10-01T07:38:53.000Z</time>
      </trkpt>
      <trkpt lat="42.12112" lon="20.12028">
        <ele>806.67999267578</ele>
        <time>2023-10-01T07:38:51.000Z</time>
      </trkpt>
      <trkpt lat="42.12107" lon="20.12034">
        <ele>806.67999267578</ele>
        <time>2023-10-01T07:38:50.000Z</time>
      </trkpt>
      <trkpt lat="42.121" lon="20.12039">
        <ele>806.67999267578</ele>
        <time>2023-10-01T07:38:49.000Z</time>
      </trkpt>
      <trkpt lat="42.1209" lon="20.12043">
        <ele>807.64001464844</ele>
        <time>2023-10-01T07:38:48.000Z</time>
      </trkpt>
      <trkpt lat="42.12085" lon="20.12045">
        <ele>807.64001464844</ele>
        <time>2023-10-01T07:38:47.000Z</time>
      </trkpt>
      <trkpt lat="42.12074" lon="20.12047">
        <ele>808.13000488281</ele>
        <time>2023-10-01T07:38:46.000Z</time>
      </trkpt>
      <trkpt lat="42.12007" lon="20.12064">
        <ele>813.40997314453</ele>
        <time>2023-10-01T07:38:42.000Z</time>
      </trkpt>
      <trkpt lat="42.11994" lon="20.12067">
        <ele>814.84997558594</ele>
        <time>2023-10-01T07:38:41.000Z</time>
      </trkpt>
      <trkpt lat="42.11983" lon="20.12066">
        <ele>816.29998779297</ele>
        <time>2023-10-01T07:38:40.000Z</time>
      </trkpt>
      <trkpt lat="42.11972" lon="20.12061">
        <ele>816.78002929688</ele>
        <time>2023-10-01T07:38:39.000Z</time>
      </trkpt>
      <trkpt lat="42.11962" lon="20.12051">
        <ele>817.73999023438</ele>
        <time>2023-10-01T07:38:38.000Z</time>
      </trkpt>
      <trkpt lat="42.11952" lon="20.12041">
        <ele>818.70001220703</ele>
        <time>2023-10-01T07:38:37.000Z</time>
      </trkpt>
      <trkpt lat="42.11941" lon="20.12025">
        <ele>819.65997314453</ele>
        <time>2023-10-01T07:38:36.000Z</time>
      </trkpt>
      <trkpt lat="42.11932" lon="20.12008">
        <ele>821.58001708984</ele>
        <time>2023-10-01T07:38:35.000Z</time>
      </trkpt>
      <trkpt lat="42.11922" lon="20.11986">
        <ele>823.03002929688</ele>
        <time>2023-10-01T07:38:33.000Z</time>
      </trkpt>
      <trkpt lat="42.11848" lon="20.11834">
        <ele>832.15997314453</ele>
        <time>2023-10-01T07:38:26.000Z</time>
      </trkpt>
      <trkpt lat="42.11844" lon="20.11829">
        <ele>832.64001464844</ele>
        <time>2023-10-01T07:38:25.000Z</time>
      </trkpt>
      <trkpt lat="42.11815" lon="20.11789">
        <ele>835.03997802734</ele>
        <time>2023-10-01T07:38:23.000Z</time>
      </trkpt>
      <trkpt lat="42.11795" lon="20.11755">
        <ele>836.47998046875</ele>
        <time>2023-10-01T07:38:21.000Z</time>
      </trkpt>
      <trkpt lat="42.11789" lon="20.1174">
        <ele>837.45001220703</ele>
        <time>2023-10-01T07:38:20.000Z</time>
      </trkpt>
      <trkpt lat="42.11786" lon="20.11725">
        <ele>837.92999267578</ele>
        <time>2023-10-01T07:38:19.000Z</time>
      </trkpt>
      <trkpt lat="42.11786" lon="20.11709">
        <ele>839.36999511719</ele>
        <time>2023-10-01T07:38:18.000Z</time>
      </trkpt>
      <trkpt lat="42.11788" lon="20.11697">
        <ele>839.84997558594</ele>
        <time>2023-10-01T07:38:17.000Z</time>
      </trkpt>
      <trkpt lat="42.1179" lon="20.11681">
        <ele>839.84997558594</ele>
        <time>2023-10-01T07:38:16.000Z</time>
      </trkpt>
      <trkpt lat="42.11795" lon="20.11652">
        <ele>839.84997558594</ele>
        <time>2023-10-01T07:38:15.000Z</time>
      </trkpt>
      <trkpt lat="42.11797" lon="20.11634">
        <ele>839.84997558594</ele>
        <time>2023-10-01T07:38:14.000Z</time>
      </trkpt>
      <trkpt lat="42.11798" lon="20.11622">
        <ele>839.36999511719</ele>
        <time>2023-10-01T07:38:13.000Z</time>
      </trkpt>
      <trkpt lat="42.11798" lon="20.11591">
        <ele>839.84997558594</ele>
        <time>2023-10-01T07:38:12.000Z</time>
      </trkpt>
      <trkpt lat="42.11799" lon="20.11552">
        <ele>840.80999755859</ele>
        <time>2023-10-01T07:38:10.000Z</time>
      </trkpt>
      <trkpt lat="42.11797" lon="20.11534">
        <ele>841.28997802734</ele>
        <time>2023-10-01T07:38:09.000Z</time>
      </trkpt>
      <trkpt lat="42.11791" lon="20.11518">
        <ele>841.77001953125</ele>
        <time>2023-10-01T07:38:08.000Z</time>
      </trkpt>
      <trkpt lat="42.11781" lon="20.11492">
        <ele>841.28997802734</ele>
        <time>2023-10-01T07:38:06.000Z</time>
      </trkpt>
      <trkpt lat="42.11757" lon="20.11439">
        <ele>841.77001953125</ele>
        <time>2023-10-01T07:38:04.000Z</time>
      </trkpt>
      <trkpt lat="42.1175" lon="20.11424">
        <ele>842.72998046875</ele>
        <time>2023-10-01T07:38:03.000Z</time>
      </trkpt>
      <trkpt lat="42.1174" lon="20.11406">
        <ele>843.69000244141</ele>
        <time>2023-10-01T07:38:02.000Z</time>
      </trkpt>
      <trkpt lat="42.11726" lon="20.11386">
        <ele>844.17999267578</ele>
        <time>2023-10-01T07:38:01.000Z</time>
      </trkpt>
      <trkpt lat="42.11715" lon="20.11374">
        <ele>844.17999267578</ele>
        <time>2023-10-01T07:38:00.000Z</time>
      </trkpt>
      <trkpt lat="42.11703" lon="20.11362">
        <ele>844.65997314453</ele>
        <time>2023-10-01T07:37:59.000Z</time>
      </trkpt>
      <trkpt lat="42.11681" lon="20.11344">
        <ele>845.14001464844</ele>
        <time>2023-10-01T07:37:57.000Z</time>
      </trkpt>
      <trkpt lat="42.11666" lon="20.11332">
        <ele>845.61999511719</ele>
        <time>2023-10-01T07:37:56.000Z</time>
      </trkpt>
      <trkpt lat="42.11655" lon="20.11321">
        <ele>845.61999511719</ele>
        <time>2023-10-01T07:37:55.000Z</time>
      </trkpt>
      <trkpt lat="42.11647" lon="20.11311">
        <ele>846.09997558594</ele>
        <time>2023-10-01T07:37:54.000Z</time>
      </trkpt>
      <trkpt lat="42.11642" lon="20.11299">
        <ele>846.58001708984</ele>
        <time>2023-10-01T07:37:53.000Z</time>
      </trkpt>
      <trkpt lat="42.1164" lon="20.11286">
        <ele>847.53997802734</ele>
        <time>2023-10-01T07:37:52.000Z</time>
      </trkpt>
      <trkpt lat="42.11641" lon="20.11272">
        <ele>847.53997802734</ele>
        <time>2023-10-01T07:37:51.000Z</time>
      </trkpt>
      <trkpt lat="42.11644" lon="20.1126">
        <ele>847.05999755859</ele>
        <time>2023-10-01T07:37:50.000Z</time>
      </trkpt>
      <trkpt lat="42.11646" lon="20.11246">
        <ele>846.58001708984</ele>
        <time>2023-10-01T07:37:49.000Z</time>
      </trkpt>
      <trkpt lat="42.11645" lon="20.11232">
        <ele>846.58001708984</ele>
        <time>2023-10-01T07:37:48.000Z</time>
      </trkpt>
      <trkpt lat="42.11642" lon="20.1122">
        <ele>846.58001708984</ele>
        <time>2023-10-01T07:37:47.000Z</time>
      </trkpt>
      <trkpt lat="42.11635" lon="20.11209">
        <ele>846.09997558594</ele>
        <time>2023-10-01T07:37:46.000Z</time>
      </trkpt>
      <trkpt lat="42.11631" lon="20.11203">
        <ele>845.61999511719</ele>
        <time>2023-10-01T07:37:45.000Z</time>
      </trkpt>
      <trkpt lat="42.11616" lon="20.11186">
        <ele>844.17999267578</ele>
        <time>2023-10-01T07:37:44.000Z</time>
      </trkpt>
      <trkpt lat="42.11607" lon="20.11177">
        <ele>843.69000244141</ele>
        <time>2023-10-01T07:37:43.000Z</time>
      </trkpt>
      <trkpt lat="42.11597" lon="20.11172">
        <ele>843.21002197266</ele>
        <time>2023-10-01T07:37:42.000Z</time>
      </trkpt>
      <trkpt lat="42.11588" lon="20.1117">
        <ele>842.72998046875</ele>
        <time>2023-10-01T07:37:41.000Z</time>
      </trkpt>
      <trkpt lat="42.1158" lon="20.11166">
        <ele>842.25</ele>
        <time>2023-10-01T07:37:40.000Z</time>
      </trkpt>
      <trkpt lat="42.11574" lon="20.11159">
        <ele>842.25</ele>
        <time>2023-10-01T07:37:39.000Z</time>
      </trkpt>
      <trkpt lat="42.11572" lon="20.1115">
        <ele>841.77001953125</ele>
        <time>2023-10-01T07:37:38.000Z</time>
      </trkpt>
      <trkpt lat="42.11572" lon="20.11139">
        <ele>841.77001953125</ele>
        <time>2023-10-01T07:37:37.000Z</time>
      </trkpt>
      <trkpt lat="42.11573" lon="20.11129">
        <ele>841.77001953125</ele>
        <time>2023-10-01T07:37:36.000Z</time>
      </trkpt>
      <trkpt lat="42.11576" lon="20.11112">
        <ele>841.77001953125</ele>
        <time>2023-10-01T07:37:35.000Z</time>
      </trkpt>
      <trkpt lat="42.1158" lon="20.111">
        <ele>841.77001953125</ele>
        <time>2023-10-01T07:37:34.000Z</time>
      </trkpt>
      <trkpt lat="42.11585" lon="20.11088">
        <ele>841.77001953125</ele>
        <time>2023-10-01T07:37:33.000Z</time>
      </trkpt>
      <trkpt lat="42.11586" lon="20.11077">
        <ele>842.25</ele>
        <time>2023-10-01T07:37:32.000Z</time>
      </trkpt>
      <trkpt lat="42.11583" lon="20.11066">
        <ele>842.72998046875</ele>
        <time>2023-10-01T07:37:31.000Z</time>
      </trkpt>
      <trkpt lat="42.11577" lon="20.11055">
        <ele>842.72998046875</ele>
        <time>2023-10-01T07:37:30.000Z</time>
      </trkpt>
      <trkpt lat="42.11568" lon="20.11045">
        <ele>842.25</ele>
        <time>2023-10-01T07:37:29.000Z</time>
      </trkpt>
      <trkpt lat="42.11556" lon="20.11037">
        <ele>842.25</ele>
        <time>2023-10-01T07:37:28.000Z</time>
      </trkpt>
      <trkpt lat="42.11546" lon="20.11031">
        <ele>842.72998046875</ele>
        <time>2023-10-01T07:37:27.000Z</time>
      </trkpt>
      <trkpt lat="42.11534" lon="20.11028">
        <ele>842.72998046875</ele>
        <time>2023-10-01T07:37:26.000Z</time>
      </trkpt>
      <trkpt lat="42.11524" lon="20.11028">
        <ele>842.25</ele>
        <time>2023-10-01T07:37:25.000Z</time>
      </trkpt>
      <trkpt lat="42.11513" lon="20.11031">
        <ele>841.28997802734</ele>
        <time>2023-10-01T07:37:24.000Z</time>
      </trkpt>
      <trkpt lat="42.11503" lon="20.1103">
        <ele>839.84997558594</ele>
        <time>2023-10-01T07:37:23.000Z</time>
      </trkpt>
      <trkpt lat="42.11496" lon="20.11026">
        <ele>839.36999511719</ele>
        <time>2023-10-01T07:37:22.000Z</time>
      </trkpt>
      <trkpt lat="42.11489" lon="20.11021">
        <ele>839.36999511719</ele>
        <time>2023-10-01T07:37:21.000Z</time>
      </trkpt>
      <trkpt lat="42.1148" lon="20.11014">
        <ele>839.84997558594</ele>
        <time>2023-10-01T07:37:20.000Z</time>
      </trkpt>
      <trkpt lat="42.11462" lon="20.11001">
        <ele>841.28997802734</ele>
        <time>2023-10-01T07:37:19.000Z</time>
      </trkpt>
      <trkpt lat="42.11454" lon="20.10992">
        <ele>842.25</ele>
        <time>2023-10-01T07:37:18.000Z</time>
      </trkpt>
      <trkpt lat="42.11447" lon="20.10981">
        <ele>843.21002197266</ele>
        <time>2023-10-01T07:37:17.000Z</time>
      </trkpt>
      <trkpt lat="42.11444" lon="20.10968">
        <ele>843.69000244141</ele>
        <time>2023-10-01T07:37:16.000Z</time>
      </trkpt>
      <trkpt lat="42.11439" lon="20.10936">
        <ele>844.65997314453</ele>
        <time>2023-10-01T07:37:14.000Z</time>
      </trkpt>
      <trkpt lat="42.11437" lon="20.10926">
        <ele>845.14001464844</ele>
        <time>2023-10-01T07:37:13.000Z</time>
      </trkpt>
      <trkpt lat="42.11432" lon="20.10905">
        <ele>847.53997802734</ele>
        <time>2023-10-01T07:37:12.000Z</time>
      </trkpt>
      <trkpt lat="42.1143" lon="20.10891">
        <ele>848.5</ele>
        <time>2023-10-01T07:37:11.000Z</time>
      </trkpt>
      <trkpt lat="42.11432" lon="20.10879">
        <ele>848.97998046875</ele>
        <time>2023-10-01T07:37:10.000Z</time>
      </trkpt>
      <trkpt lat="42.11436" lon="20.10867">
        <ele>848.97998046875</ele>
        <time>2023-10-01T07:37:09.000Z</time>
      </trkpt>
      <trkpt lat="42.11441" lon="20.10859">
        <ele>849.46002197266</ele>
        <time>2023-10-01T07:37:08.000Z</time>
      </trkpt>
      <trkpt lat="42.1145" lon="20.10844">
        <ele>849.46002197266</ele>
        <time>2023-10-01T07:37:07.000Z</time>
      </trkpt>
      <trkpt lat="42.11453" lon="20.10834">
        <ele>848.97998046875</ele>
        <time>2023-10-01T07:37:06.000Z</time>
      </trkpt>
      <trkpt lat="42.11454" lon="20.10822">
        <ele>849.46002197266</ele>
        <time>2023-10-01T07:37:05.000Z</time>
      </trkpt>
      <trkpt lat="42.11451" lon="20.10813">
        <ele>849.46002197266</ele>
        <time>2023-10-01T07:37:04.000Z</time>
      </trkpt>
      <trkpt lat="42.11444" lon="20.10805">
        <ele>849.94000244141</ele>
        <time>2023-10-01T07:37:03.000Z</time>
      </trkpt>
      <trkpt lat="42.11435" lon="20.10798">
        <ele>849.94000244141</ele>
        <time>2023-10-01T07:37:02.000Z</time>
      </trkpt>
      <trkpt lat="42.11427" lon="20.1079">
        <ele>849.94000244141</ele>
        <time>2023-10-01T07:37:01.000Z</time>
      </trkpt>
      <trkpt lat="42.11421" lon="20.10781">
        <ele>849.94000244141</ele>
        <time>2023-10-01T07:37:00.000Z</time>
      </trkpt>
      <trkpt lat="42.11416" lon="20.1077">
        <ele>850.41998291016</ele>
        <time>2023-10-01T07:36:59.000Z</time>
      </trkpt>
      <trkpt lat="42.11413" lon="20.10758">
        <ele>850.90002441406</ele>
        <time>2023-10-01T07:36:58.000Z</time>
      </trkpt>
      <trkpt lat="42.11412" lon="20.10745">
        <ele>851.86999511719</ele>
        <time>2023-10-01T07:36:57.000Z</time>
      </trkpt>
      <trkpt lat="42.11412" lon="20.10734">
        <ele>852.34997558594</ele>
        <time>2023-10-01T07:36:56.000Z</time>
      </trkpt>
      <trkpt lat="42.11414" lon="20.1072">
        <ele>852.34997558594</ele>
        <time>2023-10-01T07:36:55.000Z</time>
      </trkpt>
      <trkpt lat="42.11418" lon="20.10707">
        <ele>852.83001708984</ele>
        <time>2023-10-01T07:36:54.000Z</time>
      </trkpt>
      <trkpt lat="42.11425" lon="20.10693">
        <ele>853.78997802734</ele>
        <time>2023-10-01T07:36:53.000Z</time>
      </trkpt>
      <trkpt lat="42.11429" lon="20.10681">
        <ele>853.78997802734</ele>
        <time>2023-10-01T07:36:52.000Z</time>
      </trkpt>
      <trkpt lat="42.11429" lon="20.10668">
        <ele>854.27001953125</ele>
        <time>2023-10-01T07:36:51.000Z</time>
      </trkpt>
      <trkpt lat="42.11425" lon="20.10654">
        <ele>854.27001953125</ele>
        <time>2023-10-01T07:36:50.000Z</time>
      </trkpt>
      <trkpt lat="42.11424" lon="20.10651">
        <ele>854.27001953125</ele>
        <time>2023-10-01T07:36:49.000Z</time>
      </trkpt>
      <trkpt lat="42.11414" lon="20.10632">
        <ele>854.27001953125</ele>
        <time>2023-10-01T07:36:48.000Z</time>
      </trkpt>
      <trkpt lat="42.11393" lon="20.10581">
        <ele>854.75</ele>
        <time>2023-10-01T07:36:46.000Z</time>
      </trkpt>
      <trkpt lat="42.11386" lon="20.10562">
        <ele>854.75</ele>
        <time>2023-10-01T07:36:45.000Z</time>
      </trkpt>
      <trkpt lat="42.11382" lon="20.10543">
        <ele>854.75</ele>
        <time>2023-10-01T07:36:44.000Z</time>
      </trkpt>
      <trkpt lat="42.11381" lon="20.10535">
        <ele>855.22998046875</ele>
        <time>2023-10-01T07:36:43.000Z</time>
      </trkpt>
      <trkpt lat="42.11379" lon="20.10506">
        <ele>854.75</ele>
        <time>2023-10-01T07:36:42.000Z</time>
      </trkpt>
      <trkpt lat="42.11377" lon="20.10484">
        <ele>853.78997802734</ele>
        <time>2023-10-01T07:36:41.000Z</time>
      </trkpt>
      <trkpt lat="42.11377" lon="20.10472">
        <ele>852.83001708984</ele>
        <time>2023-10-01T07:36:40.000Z</time>
      </trkpt>
      <trkpt lat="42.11378" lon="20.10445">
        <ele>851.86999511719</ele>
        <time>2023-10-01T07:36:39.000Z</time>
      </trkpt>
      <trkpt lat="42.11377" lon="20.10423">
        <ele>851.38000488281</ele>
        <time>2023-10-01T07:36:38.000Z</time>
      </trkpt>
      <trkpt lat="42.11374" lon="20.10406">
        <ele>851.38000488281</ele>
        <time>2023-10-01T07:36:37.000Z</time>
      </trkpt>
      <trkpt lat="42.11372" lon="20.10396">
        <ele>851.38000488281</ele>
        <time>2023-10-01T07:36:36.000Z</time>
      </trkpt>
      <trkpt lat="42.11363" lon="20.10361">
        <ele>850.90002441406</ele>
        <time>2023-10-01T07:36:35.000Z</time>
      </trkpt>
      <trkpt lat="42.11356" lon="20.10338">
        <ele>850.90002441406</ele>
        <time>2023-10-01T07:36:34.000Z</time>
      </trkpt>
      <trkpt lat="42.11345" lon="20.10296">
        <ele>852.83001708984</ele>
        <time>2023-10-01T07:36:32.000Z</time>
      </trkpt>
      <trkpt lat="42.11342" lon="20.10278">
        <ele>854.27001953125</ele>
        <time>2023-10-01T07:36:31.000Z</time>
      </trkpt>
      <trkpt lat="42.1134" lon="20.10258">
        <ele>855.71002197266</ele>
        <time>2023-10-01T07:36:30.000Z</time>
      </trkpt>
      <trkpt lat="42.1134" lon="20.10241">
        <ele>856.66998291016</ele>
        <time>2023-10-01T07:36:29.000Z</time>
      </trkpt>
      <trkpt lat="42.11342" lon="20.10227">
        <ele>857.15002441406</ele>
        <time>2023-10-01T07:36:28.000Z</time>
      </trkpt>
      <trkpt lat="42.11347" lon="20.10207">
        <ele>858.10998535156</ele>
        <time>2023-10-01T07:36:27.000Z</time>
      </trkpt>
      <trkpt lat="42.11354" lon="20.10187">
        <ele>858.10998535156</ele>
        <time>2023-10-01T07:36:26.000Z</time>
      </trkpt>
      <trkpt lat="42.11358" lon="20.10172">
        <ele>858.59002685547</ele>
        <time>2023-10-01T07:36:25.000Z</time>
      </trkpt>
      <trkpt lat="42.11362" lon="20.10151">
        <ele>859.08001708984</ele>
        <time>2023-10-01T07:36:24.000Z</time>
      </trkpt>
      <trkpt lat="42.11362" lon="20.10137">
        <ele>859.55999755859</ele>
        <time>2023-10-01T07:36:23.000Z</time>
      </trkpt>
      <trkpt lat="42.11359" lon="20.10127">
        <ele>860.52001953125</ele>
        <time>2023-10-01T07:36:22.000Z</time>
      </trkpt>
      <trkpt lat="42.11353" lon="20.1012">
        <ele>861</ele>
        <time>2023-10-01T07:36:21.000Z</time>
      </trkpt>
      <trkpt lat="42.11346" lon="20.10116">
        <ele>861.47998046875</ele>
        <time>2023-10-01T07:36:20.000Z</time>
      </trkpt>
      <trkpt lat="42.11337" lon="20.10116">
        <ele>861.96002197266</ele>
        <time>2023-10-01T07:36:19.000Z</time>
      </trkpt>
      <trkpt lat="42.11327" lon="20.10119">
        <ele>861.96002197266</ele>
        <time>2023-10-01T07:36:18.000Z</time>
      </trkpt>
      <trkpt lat="42.11318" lon="20.10124">
        <ele>861.96002197266</ele>
        <time>2023-10-01T07:36:17.000Z</time>
      </trkpt>
      <trkpt lat="42.1131" lon="20.10135">
        <ele>862.44000244141</ele>
        <time>2023-10-01T07:36:16.000Z</time>
      </trkpt>
      <trkpt lat="42.11272" lon="20.10191">
        <ele>870.13000488281</ele>
        <time>2023-10-01T07:36:12.000Z</time>
      </trkpt>
      <trkpt lat="42.11263" lon="20.10207">
        <ele>871.09002685547</ele>
        <time>2023-10-01T07:36:11.000Z</time>
      </trkpt>
      <trkpt lat="42.11257" lon="20.10221">
        <ele>871.09002685547</ele>
        <time>2023-10-01T07:36:10.000Z</time>
      </trkpt>
      <trkpt lat="42.11255" lon="20.10235">
        <ele>871.09002685547</ele>
        <time>2023-10-01T07:36:09.000Z</time>
      </trkpt>
      <trkpt lat="42.11255" lon="20.1024">
        <ele>871.57000732422</ele>
        <time>2023-10-01T07:36:08.000Z</time>
      </trkpt>
      <trkpt lat="42.11249" lon="20.10346">
        <ele>873.97998046875</ele>
        <time>2023-10-01T07:36:04.000Z</time>
      </trkpt>
      <trkpt lat="42.11245" lon="20.10369">
        <ele>874.46002197266</ele>
        <time>2023-10-01T07:36:03.000Z</time>
      </trkpt>
      <trkpt lat="42.1124" lon="20.10386">
        <ele>874.94000244141</ele>
        <time>2023-10-01T07:36:02.000Z</time>
      </trkpt>
      <trkpt lat="42.11233" lon="20.10399">
        <ele>875.90002441406</ele>
        <time>2023-10-01T07:36:01.000Z</time>
      </trkpt>
      <trkpt lat="42.11224" lon="20.1041">
        <ele>876.38000488281</ele>
        <time>2023-10-01T07:36:00.000Z</time>
      </trkpt>
      <trkpt lat="42.11215" lon="20.10422">
        <ele>878.29998779297</ele>
        <time>2023-10-01T07:35:59.000Z</time>
      </trkpt>
      <trkpt lat="42.11208" lon="20.10435">
        <ele>879.26000976562</ele>
        <time>2023-10-01T07:35:58.000Z</time>
      </trkpt>
      <trkpt lat="42.11204" lon="20.1045">
        <ele>880.21997070312</ele>
        <time>2023-10-01T07:35:57.000Z</time>
      </trkpt>
      <trkpt lat="42.11204" lon="20.10466">
        <ele>880.71002197266</ele>
        <time>2023-10-01T07:35:56.000Z</time>
      </trkpt>
      <trkpt lat="42.11206" lon="20.10478">
        <ele>880.71002197266</ele>
        <time>2023-10-01T07:35:55.000Z</time>
      </trkpt>
      <trkpt lat="42.1121" lon="20.10494">
        <ele>880.71002197266</ele>
        <time>2023-10-01T07:35:54.000Z</time>
      </trkpt>
      <trkpt lat="42.11209" lon="20.10508">
        <ele>880.71002197266</ele>
        <time>2023-10-01T07:35:53.000Z</time>
      </trkpt>
      <trkpt lat="42.11205" lon="20.10519">
        <ele>880.21997070312</ele>
        <time>2023-10-01T07:35:52.000Z</time>
      </trkpt>
      <trkpt lat="42.11198" lon="20.10529">
        <ele>879.73999023438</ele>
        <time>2023-10-01T07:35:51.000Z</time>
      </trkpt>
      <trkpt lat="42.11194" lon="20.10533">
        <ele>880.21997070312</ele>
        <time>2023-10-01T07:35:50.000Z</time>
      </trkpt>
      <trkpt lat="42.11181" lon="20.10544">
        <ele>880.21997070312</ele>
        <time>2023-10-01T07:35:49.000Z</time>
      </trkpt>
      <trkpt lat="42.11176" lon="20.10555">
        <ele>879.73999023438</ele>
        <time>2023-10-01T07:35:48.000Z</time>
      </trkpt>
      <trkpt lat="42.11173" lon="20.10568">
        <ele>879.73999023438</ele>
        <time>2023-10-01T07:35:47.000Z</time>
      </trkpt>
      <trkpt lat="42.11172" lon="20.10572">
        <ele>879.73999023438</ele>
        <time>2023-10-01T07:35:46.000Z</time>
      </trkpt>
      <trkpt lat="42.1117" lon="20.10603">
        <ele>879.26000976562</ele>
        <time>2023-10-01T07:35:45.000Z</time>
      </trkpt>
      <trkpt lat="42.11169" lon="20.10619">
        <ele>879.26000976562</ele>
        <time>2023-10-01T07:35:44.000Z</time>
      </trkpt>
      <trkpt lat="42.11166" lon="20.10631">
        <ele>879.26000976562</ele>
        <time>2023-10-01T07:35:43.000Z</time>
      </trkpt>
      <trkpt lat="42.11161" lon="20.1064">
        <ele>879.26000976562</ele>
        <time>2023-10-01T07:35:42.000Z</time>
      </trkpt>
      <trkpt lat="42.11153" lon="20.10649">
        <ele>879.26000976562</ele>
        <time>2023-10-01T07:35:41.000Z</time>
      </trkpt>
      <trkpt lat="42.11143" lon="20.10656">
        <ele>879.73999023438</ele>
        <time>2023-10-01T07:35:40.000Z</time>
      </trkpt>
      <trkpt lat="42.11137" lon="20.10663">
        <ele>880.21997070312</ele>
        <time>2023-10-01T07:35:39.000Z</time>
      </trkpt>
      <trkpt lat="42.11134" lon="20.10674">
        <ele>880.71002197266</ele>
        <time>2023-10-01T07:35:38.000Z</time>
      </trkpt>
      <trkpt lat="42.11132" lon="20.10686">
        <ele>881.19000244141</ele>
        <time>2023-10-01T07:35:37.000Z</time>
      </trkpt>
      <trkpt lat="42.1113" lon="20.10699">
        <ele>881.66998291016</ele>
        <time>2023-10-01T07:35:36.000Z</time>
      </trkpt>
      <trkpt lat="42.11126" lon="20.1071">
        <ele>881.66998291016</ele>
        <time>2023-10-01T07:35:35.000Z</time>
      </trkpt>
      <trkpt lat="42.11119" lon="20.10718">
        <ele>881.66998291016</ele>
        <time>2023-10-01T07:35:34.000Z</time>
      </trkpt>
      <trkpt lat="42.11114" lon="20.10724">
        <ele>882.15002441406</ele>
        <time>2023-10-01T07:35:33.000Z</time>
      </trkpt>
      <trkpt lat="42.11103" lon="20.10734">
        <ele>881.66998291016</ele>
        <time>2023-10-01T07:35:32.000Z</time>
      </trkpt>
      <trkpt lat="42.11098" lon="20.10743">
        <ele>882.15002441406</ele>
        <time>2023-10-01T07:35:31.000Z</time>
      </trkpt>
      <trkpt lat="42.11096" lon="20.10756">
        <ele>883.59002685547</ele>
        <time>2023-10-01T07:35:30.000Z</time>
      </trkpt>
      <trkpt lat="42.11098" lon="20.10773">
        <ele>884.07000732422</ele>
        <time>2023-10-01T07:35:29.000Z</time>
      </trkpt>
      <trkpt lat="42.11102" lon="20.1079">
        <ele>885.03002929688</ele>
        <time>2023-10-01T07:35:28.000Z</time>
      </trkpt>
      <trkpt lat="42.11109" lon="20.10806">
        <ele>885.51000976562</ele>
        <time>2023-10-01T07:35:27.000Z</time>
      </trkpt>
      <trkpt lat="42.11113" lon="20.1082">
        <ele>885.98999023438</ele>
        <time>2023-10-01T07:35:26.000Z</time>
      </trkpt>
      <trkpt lat="42.11115" lon="20.10834">
        <ele>885.98999023438</ele>
        <time>2023-10-01T07:35:25.000Z</time>
      </trkpt>
      <trkpt lat="42.11115" lon="20.10848">
        <ele>885.98999023438</ele>
        <time>2023-10-01T07:35:24.000Z</time>
      </trkpt>
      <trkpt lat="42.11114" lon="20.10855">
        <ele>886.46997070312</ele>
        <time>2023-10-01T07:35:23.000Z</time>
      </trkpt>
      <trkpt lat="42.11112" lon="20.10886">
        <ele>888.40002441406</ele>
        <time>2023-10-01T07:35:22.000Z</time>
      </trkpt>
      <trkpt lat="42.11111" lon="20.10896">
        <ele>889.35998535156</ele>
        <time>2023-10-01T07:35:21.000Z</time>
      </trkpt>
      <trkpt lat="42.1111" lon="20.10921">
        <ele>890.32000732422</ele>
        <time>2023-10-01T07:35:20.000Z</time>
      </trkpt>
      <trkpt lat="42.11109" lon="20.10939">
        <ele>890.32000732422</ele>
        <time>2023-10-01T07:35:19.000Z</time>
      </trkpt>
      <trkpt lat="42.11105" lon="20.10952">
        <ele>890.79998779297</ele>
        <time>2023-10-01T07:35:18.000Z</time>
      </trkpt>
      <trkpt lat="42.11098" lon="20.10963">
        <ele>891.76000976562</ele>
        <time>2023-10-01T07:35:17.000Z</time>
      </trkpt>
      <trkpt lat="42.11089" lon="20.10973">
        <ele>893.20001220703</ele>
        <time>2023-10-01T07:35:16.000Z</time>
      </trkpt>
      <trkpt lat="42.11082" lon="20.10979">
        <ele>893.67999267578</ele>
        <time>2023-10-01T07:35:15.000Z</time>
      </trkpt>
      <trkpt lat="42.11067" lon="20.10988">
        <ele>895.11999511719</ele>
        <time>2023-10-01T07:35:14.000Z</time>
      </trkpt>
      <trkpt lat="42.11054" lon="20.10997">
        <ele>896.09002685547</ele>
        <time>2023-10-01T07:35:13.000Z</time>
      </trkpt>
      <trkpt lat="42.11044" lon="20.11006">
        <ele>896.57000732422</ele>
        <time>2023-10-01T07:35:12.000Z</time>
      </trkpt>
      <trkpt lat="42.11036" lon="20.11017">
        <ele>896.57000732422</ele>
        <time>2023-10-01T07:35:11.000Z</time>
      </trkpt>
      <trkpt lat="42.11032" lon="20.11032">
        <ele>897.04998779297</ele>
        <time>2023-10-01T07:35:10.000Z</time>
      </trkpt>
      <trkpt lat="42.11031" lon="20.1105">
        <ele>898.01000976562</ele>
        <time>2023-10-01T07:35:09.000Z</time>
      </trkpt>
      <trkpt lat="42.11033" lon="20.11069">
        <ele>898.48999023438</ele>
        <time>2023-10-01T07:35:08.000Z</time>
      </trkpt>
      <trkpt lat="42.11036" lon="20.11088">
        <ele>898.96997070312</ele>
        <time>2023-10-01T07:35:07.000Z</time>
      </trkpt>
      <trkpt lat="42.11038" lon="20.11108">
        <ele>899.92999267578</ele>
        <time>2023-10-01T07:35:06.000Z</time>
      </trkpt>
      <trkpt lat="42.11037" lon="20.11127">
        <ele>900.89001464844</ele>
        <time>2023-10-01T07:35:05.000Z</time>
      </trkpt>
      <trkpt lat="42.1104" lon="20.11138">
        <ele>901.36999511719</ele>
        <time>2023-10-01T07:35:04.000Z</time>
      </trkpt>
      <trkpt lat="42.11045" lon="20.11147">
        <ele>901.84997558594</ele>
        <time>2023-10-01T07:35:03.000Z</time>
      </trkpt>
      <trkpt lat="42.11053" lon="20.11156">
        <ele>901.84997558594</ele>
        <time>2023-10-01T07:35:02.000Z</time>
      </trkpt>
      <trkpt lat="42.11061" lon="20.11163">
        <ele>901.36999511719</ele>
        <time>2023-10-01T07:35:01.000Z</time>
      </trkpt>
      <trkpt lat="42.11065" lon="20.11166">
        <ele>901.36999511719</ele>
        <time>2023-10-01T07:35:00.000Z</time>
      </trkpt>
      <trkpt lat="42.11076" lon="20.11171">
        <ele>902.33001708984</ele>
        <time>2023-10-01T07:34:59.000Z</time>
      </trkpt>
      <trkpt lat="42.11082" lon="20.11174">
        <ele>903.29998779297</ele>
        <time>2023-10-01T07:34:58.000Z</time>
      </trkpt>
      <trkpt lat="42.11089" lon="20.11179">
        <ele>903.78002929688</ele>
        <time>2023-10-01T07:34:57.000Z</time>
      </trkpt>
      <trkpt lat="42.11093" lon="20.11186">
        <ele>904.26000976562</ele>
        <time>2023-10-01T07:34:56.000Z</time>
      </trkpt>
      <trkpt lat="42.11093" lon="20.11194">
        <ele>904.26000976562</ele>
        <time>2023-10-01T07:34:55.000Z</time>
      </trkpt>
      <trkpt lat="42.11091" lon="20.112">
        <ele>904.73999023438</ele>
        <time>2023-10-01T07:34:54.000Z</time>
      </trkpt>
      <trkpt lat="42.11088" lon="20.11206">
        <ele>905.21997070312</ele>
        <time>2023-10-01T07:34:53.000Z</time>
      </trkpt>
      <trkpt lat="42.11084" lon="20.11211">
        <ele>905.21997070312</ele>
        <time>2023-10-01T07:34:52.000Z</time>
      </trkpt>
      <trkpt lat="42.11075" lon="20.11225">
        <ele>906.65997314453</ele>
        <time>2023-10-01T07:34:51.000Z</time>
      </trkpt>
      <trkpt lat="42.1107" lon="20.11233">
        <ele>907.14001464844</ele>
        <time>2023-10-01T07:34:50.000Z</time>
      </trkpt>
      <trkpt lat="42.11065" lon="20.11241">
        <ele>908.58001708984</ele>
        <time>2023-10-01T07:34:49.000Z</time>
      </trkpt>
      <trkpt lat="42.11061" lon="20.1125">
        <ele>909.53997802734</ele>
        <time>2023-10-01T07:34:48.000Z</time>
      </trkpt>
      <trkpt lat="42.11058" lon="20.11259">
        <ele>910.03002929688</ele>
        <time>2023-10-01T07:34:47.000Z</time>
      </trkpt>
      <trkpt lat="42.11056" lon="20.11269">
        <ele>910.98999023438</ele>
        <time>2023-10-01T07:34:46.000Z</time>
      </trkpt>
      <trkpt lat="42.11056" lon="20.11279">
        <ele>911.46997070312</ele>
        <time>2023-10-01T07:34:45.000Z</time>
      </trkpt>
      <trkpt lat="42.11056" lon="20.11282">
        <ele>911.46997070312</ele>
        <time>2023-10-01T07:34:44.000Z</time>
      </trkpt>
      <trkpt lat="42.11057" lon="20.11297">
        <ele>912.42999267578</ele>
        <time>2023-10-01T07:34:43.000Z</time>
      </trkpt>
      <trkpt lat="42.11058" lon="20.11305">
        <ele>912.90997314453</ele>
        <time>2023-10-01T07:34:42.000Z</time>
      </trkpt>
      <trkpt lat="42.11059" lon="20.1131">
        <ele>913.39001464844</ele>
        <time>2023-10-01T07:34:41.000Z</time>
      </trkpt>
      <trkpt lat="42.11062" lon="20.11321">
        <ele>914.34997558594</ele>
        <time>2023-10-01T07:34:40.000Z</time>
      </trkpt>
      <trkpt lat="42.11064" lon="20.11328">
        <ele>914.83001708984</ele>
        <time>2023-10-01T07:34:39.000Z</time>
      </trkpt>
      <trkpt lat="42.11067" lon="20.11333">
        <ele>915.30999755859</ele>
        <time>2023-10-01T07:34:38.000Z</time>
      </trkpt>
      <trkpt lat="42.11071" lon="20.11341">
        <ele>916.27001953125</ele>
        <time>2023-10-01T07:34:37.000Z</time>
      </trkpt>
      <trkpt lat="42.11074" lon="20.11348">
        <ele>916.75</ele>
        <time>2023-10-01T07:34:36.000Z</time>
      </trkpt>
      <trkpt lat="42.11079" lon="20.11357">
        <ele>917.71997070312</ele>
        <time>2023-10-01T07:34:35.000Z</time>
      </trkpt>
      <trkpt lat="42.11083" lon="20.11366">
        <ele>918.67999267578</ele>
        <time>2023-10-01T07:34:34.000Z</time>
      </trkpt>
      <trkpt lat="42.11085" lon="20.11376">
        <ele>919.64001464844</ele>
        <time>2023-10-01T07:34:33.000Z</time>
      </trkpt>
      <trkpt lat="42.11086" lon="20.11386">
        <ele>920.59997558594</ele>
        <time>2023-10-01T07:34:32.000Z</time>
      </trkpt>
      <trkpt lat="42.11088" lon="20.11399">
        <ele>921.55999755859</ele>
        <time>2023-10-01T07:34:31.000Z</time>
      </trkpt>
      <trkpt lat="42.1109" lon="20.11409">
        <ele>922.03997802734</ele>
        <time>2023-10-01T07:34:30.000Z</time>
      </trkpt>
      <trkpt lat="42.11091" lon="20.11418">
        <ele>923</ele>
        <time>2023-10-01T07:34:29.000Z</time>
      </trkpt>
      <trkpt lat="42.1109" lon="20.11428">
        <ele>923.47998046875</ele>
        <time>2023-10-01T07:34:28.000Z</time>
      </trkpt>
      <trkpt lat="42.11086" lon="20.11435">
        <ele>924.45001220703</ele>
        <time>2023-10-01T07:34:27.000Z</time>
      </trkpt>
      <trkpt lat="42.11079" lon="20.11439">
        <ele>924.92999267578</ele>
        <time>2023-10-01T07:34:26.000Z</time>
      </trkpt>
      <trkpt lat="42.11071" lon="20.11442">
        <ele>925.89001464844</ele>
        <time>2023-10-01T07:34:25.000Z</time>
      </trkpt>
      <trkpt lat="42.11062" lon="20.11447">
        <ele>926.36999511719</ele>
        <time>2023-10-01T07:34:24.000Z</time>
      </trkpt>
      <trkpt lat="42.11053" lon="20.11454">
        <ele>926.84997558594</ele>
        <time>2023-10-01T07:34:23.000Z</time>
      </trkpt>
      <trkpt lat="42.11048" lon="20.1146">
        <ele>927.33001708984</ele>
        <time>2023-10-01T07:34:22.000Z</time>
      </trkpt>
      <trkpt lat="42.11024" lon="20.1149">
        <ele>929.72998046875</ele>
        <time>2023-10-01T07:34:19.000Z</time>
      </trkpt>
      <trkpt lat="42.11017" lon="20.11497">
        <ele>930.69000244141</ele>
        <time>2023-10-01T07:34:18.000Z</time>
      </trkpt>
      <trkpt lat="42.1101" lon="20.11502">
        <ele>931.16998291016</ele>
        <time>2023-10-01T07:34:17.000Z</time>
      </trkpt>
      <trkpt lat="42.11004" lon="20.11506">
        <ele>931.65002441406</ele>
        <time>2023-10-01T07:34:16.000Z</time>
      </trkpt>
      <trkpt lat="42.10999" lon="20.11508">
        <ele>931.65002441406</ele>
        <time>2023-10-01T07:34:15.000Z</time>
      </trkpt>
      <trkpt lat="42.10989" lon="20.1151">
        <ele>932.61999511719</ele>
        <time>2023-10-01T07:34:14.000Z</time>
      </trkpt>
      <trkpt lat="42.1098" lon="20.11511">
        <ele>933.58001708984</ele>
        <time>2023-10-01T07:34:13.000Z</time>
      </trkpt>
      <trkpt lat="42.10969" lon="20.11511">
        <ele>934.53997802734</ele>
        <time>2023-10-01T07:34:12.000Z</time>
      </trkpt>
      <trkpt lat="42.10949" lon="20.11506">
        <ele>936.46002197266</ele>
        <time>2023-10-01T07:34:10.000Z</time>
      </trkpt>
      <trkpt lat="42.10926" lon="20.11503">
        <ele>938.38000488281</ele>
        <time>2023-10-01T07:34:08.000Z</time>
      </trkpt>
      <trkpt lat="42.10908" lon="20.11498">
        <ele>939.34997558594</ele>
        <time>2023-10-01T07:34:06.000Z</time>
      </trkpt>
      <trkpt lat="42.10848" lon="20.11478">
        <ele>940.30999755859</ele>
        <time>2023-10-01T07:34:01.000Z</time>
      </trkpt>
      <trkpt lat="42.10824" lon="20.1147">
        <ele>940.78997802734</ele>
        <time>2023-10-01T07:34:00.000Z</time>
      </trkpt>
      <trkpt lat="42.10809" lon="20.11468">
        <ele>940.78997802734</ele>
        <time>2023-10-01T07:33:59.000Z</time>
      </trkpt>
      <trkpt lat="42.10806" lon="20.11468">
        <ele>940.78997802734</ele>
        <time>2023-10-01T07:33:58.000Z</time>
      </trkpt>
      <trkpt lat="42.10779" lon="20.11471">
        <ele>940.30999755859</ele>
        <time>2023-10-01T07:33:57.000Z</time>
      </trkpt>
      <trkpt lat="42.10764" lon="20.11473">
        <ele>939.83001708984</ele>
        <time>2023-10-01T07:33:56.000Z</time>
      </trkpt>
      <trkpt lat="42.10753" lon="20.11474">
        <ele>939.83001708984</ele>
        <time>2023-10-01T07:33:55.000Z</time>
      </trkpt>
      <trkpt lat="42.10742" lon="20.11476">
        <ele>938.85998535156</ele>
        <time>2023-10-01T07:33:54.000Z</time>
      </trkpt>
      <trkpt lat="42.10734" lon="20.11481">
        <ele>937.90002441406</ele>
        <time>2023-10-01T07:33:53.000Z</time>
      </trkpt>
      <trkpt lat="42.10727" lon="20.11489">
        <ele>937.41998291016</ele>
        <time>2023-10-01T07:33:52.000Z</time>
      </trkpt>
      <trkpt lat="42.10722" lon="20.11499">
        <ele>936.94000244141</ele>
        <time>2023-10-01T07:33:51.000Z</time>
      </trkpt>
      <trkpt lat="42.10716" lon="20.11509">
        <ele>936.46002197266</ele>
        <time>2023-10-01T07:33:50.000Z</time>
      </trkpt>
      <trkpt lat="42.10712" lon="20.1152">
        <ele>935.97998046875</ele>
        <time>2023-10-01T07:33:49.000Z</time>
      </trkpt>
      <trkpt lat="42.1071" lon="20.11524">
        <ele>935.97998046875</ele>
        <time>2023-10-01T07:33:48.000Z</time>
      </trkpt>
      <trkpt lat="42.10707" lon="20.11534">
        <ele>935.02001953125</ele>
        <time>2023-10-01T07:33:47.000Z</time>
      </trkpt>
      <trkpt lat="42.10703" lon="20.11545">
        <ele>934.53997802734</ele>
        <time>2023-10-01T07:33:46.000Z</time>
      </trkpt>
      <trkpt lat="42.10699" lon="20.11558">
        <ele>934.53997802734</ele>
        <time>2023-10-01T07:33:45.000Z</time>
      </trkpt>
      <trkpt lat="42.10696" lon="20.11566">
        <ele>934.05999755859</ele>
        <time>2023-10-01T07:33:44.000Z</time>
      </trkpt>
      <trkpt lat="42.10694" lon="20.11572">
        <ele>934.05999755859</ele>
        <time>2023-10-01T07:33:43.000Z</time>
      </trkpt>
      <trkpt lat="42.10688" lon="20.11592">
        <ele>933.09997558594</ele>
        <time>2023-10-01T07:33:41.000Z</time>
      </trkpt>
      <trkpt lat="42.10684" lon="20.116">
        <ele>932.61999511719</ele>
        <time>2023-10-01T07:33:40.000Z</time>
      </trkpt>
      <trkpt lat="42.10678" lon="20.11606">
        <ele>932.14001464844</ele>
        <time>2023-10-01T07:33:39.000Z</time>
      </trkpt>
      <trkpt lat="42.10673" lon="20.11609">
        <ele>931.65002441406</ele>
        <time>2023-10-01T07:33:38.000Z</time>
      </trkpt>
      <trkpt lat="42.10666" lon="20.11612">
        <ele>931.65002441406</ele>
        <time>2023-10-01T07:33:37.000Z</time>
      </trkpt>
      <trkpt lat="42.10659" lon="20.11614">
        <ele>930.69000244141</ele>
        <time>2023-10-01T07:33:36.000Z</time>
      </trkpt>
      <trkpt lat="42.10652" lon="20.11615">
        <ele>930.21002197266</ele>
        <time>2023-10-01T07:33:35.000Z</time>
      </trkpt>
      <trkpt lat="42.10646" lon="20.11614">
        <ele>929.72998046875</ele>
        <time>2023-10-01T07:33:34.000Z</time>
      </trkpt>
      <trkpt lat="42.10641" lon="20.11611">
        <ele>929.72998046875</ele>
        <time>2023-10-01T07:33:33.000Z</time>
      </trkpt>
      <trkpt lat="42.10637" lon="20.11608">
        <ele>929.25</ele>
        <time>2023-10-01T07:33:32.000Z</time>
      </trkpt>
      <trkpt lat="42.10631" lon="20.11602">
        <ele>929.25</ele>
        <time>2023-10-01T07:33:31.000Z</time>
      </trkpt>
      <trkpt lat="42.10627" lon="20.11597">
        <ele>929.25</ele>
        <time>2023-10-01T07:33:30.000Z</time>
      </trkpt>
      <trkpt lat="42.10625" lon="20.11593">
        <ele>928.77001953125</ele>
        <time>2023-10-01T07:33:29.000Z</time>
      </trkpt>
      <trkpt lat="42.10622" lon="20.11588">
        <ele>928.77001953125</ele>
        <time>2023-10-01T07:33:28.000Z</time>
      </trkpt>
      <trkpt lat="42.1062" lon="20.11583">
        <ele>928.77001953125</ele>
        <time>2023-10-01T07:33:27.000Z</time>
      </trkpt>
      <trkpt lat="42.10618" lon="20.11578">
        <ele>928.28997802734</ele>
        <time>2023-10-01T07:33:26.000Z</time>
      </trkpt>
      <trkpt lat="42.10616" lon="20.11572">
        <ele>928.28997802734</ele>
        <time>2023-10-01T07:33:25.000Z</time>
      </trkpt>
      <trkpt lat="42.10616" lon="20.11565">
        <ele>927.80999755859</ele>
        <time>2023-10-01T07:33:24.000Z</time>
      </trkpt>
      <trkpt lat="42.10616" lon="20.1156">
        <ele>927.80999755859</ele>
        <time>2023-10-01T07:33:23.000Z</time>
      </trkpt>
      <trkpt lat="42.10615" lon="20.1155">
        <ele>927.33001708984</ele>
        <time>2023-10-01T07:33:22.000Z</time>
      </trkpt>
      <trkpt lat="42.10614" lon="20.11542">
        <ele>926.84997558594</ele>
        <time>2023-10-01T07:33:21.000Z</time>
      </trkpt>
      <trkpt lat="42.10612" lon="20.11533">
        <ele>925.89001464844</ele>
        <time>2023-10-01T07:33:20.000Z</time>
      </trkpt>
      <trkpt lat="42.1061" lon="20.11526">
        <ele>925.40997314453</ele>
        <time>2023-10-01T07:33:19.000Z</time>
      </trkpt>
      <trkpt lat="42.10604" lon="20.11509">
        <ele>923.96002197266</ele>
        <time>2023-10-01T07:33:18.000Z</time>
      </trkpt>
      <trkpt lat="42.10599" lon="20.11497">
        <ele>923</ele>
        <time>2023-10-01T07:33:17.000Z</time>
      </trkpt>
      <trkpt lat="42.10596" lon="20.1149">
        <ele>922.52001953125</ele>
        <time>2023-10-01T07:33:16.000Z</time>
      </trkpt>
      <trkpt lat="42.10589" lon="20.11479">
        <ele>922.03997802734</ele>
        <time>2023-10-01T07:33:15.000Z</time>
      </trkpt>
      <trkpt lat="42.10584" lon="20.11471">
        <ele>921.55999755859</ele>
        <time>2023-10-01T07:33:14.000Z</time>
      </trkpt>
      <trkpt lat="42.10574" lon="20.11459">
        <ele>920.59997558594</ele>
        <time>2023-10-01T07:33:13.000Z</time>
      </trkpt>
      <trkpt lat="42.10566" lon="20.11453">
        <ele>920.11999511719</ele>
        <time>2023-10-01T07:33:12.000Z</time>
      </trkpt>
      <trkpt lat="42.10556" lon="20.11447">
        <ele>919.15997314453</ele>
        <time>2023-10-01T07:33:11.000Z</time>
      </trkpt>
      <trkpt lat="42.10545" lon="20.11444">
        <ele>918.67999267578</ele>
        <time>2023-10-01T07:33:10.000Z</time>
      </trkpt>
      <trkpt lat="42.10541" lon="20.11444">
        <ele>918.20001220703</ele>
        <time>2023-10-01T07:33:09.000Z</time>
      </trkpt>
      <trkpt lat="42.10519" lon="20.11445">
        <ele>915.78997802734</ele>
        <time>2023-10-01T07:33:08.000Z</time>
      </trkpt>
      <trkpt lat="42.10506" lon="20.11443">
        <ele>914.83001708984</ele>
        <time>2023-10-01T07:33:07.000Z</time>
      </trkpt>
      <trkpt lat="42.10493" lon="20.1144">
        <ele>914.34997558594</ele>
        <time>2023-10-01T07:33:06.000Z</time>
      </trkpt>
      <trkpt lat="42.10472" lon="20.11433">
        <ele>912.90997314453</ele>
        <time>2023-10-01T07:33:05.000Z</time>
      </trkpt>
      <trkpt lat="42.1046" lon="20.11427">
        <ele>911.95001220703</ele>
        <time>2023-10-01T07:33:04.000Z</time>
      </trkpt>
      <trkpt lat="42.10453" lon="20.1142">
        <ele>910.98999023438</ele>
        <time>2023-10-01T07:33:03.000Z</time>
      </trkpt>
      <trkpt lat="42.10448" lon="20.11409">
        <ele>910.03002929688</ele>
        <time>2023-10-01T07:33:02.000Z</time>
      </trkpt>
      <trkpt lat="42.10445" lon="20.11396">
        <ele>909.05999755859</ele>
        <time>2023-10-01T07:33:01.000Z</time>
      </trkpt>
      <trkpt lat="42.10445" lon="20.11381">
        <ele>907.61999511719</ele>
        <time>2023-10-01T07:33:00.000Z</time>
      </trkpt>
      <trkpt lat="42.10448" lon="20.11366">
        <ele>906.65997314453</ele>
        <time>2023-10-01T07:32:59.000Z</time>
      </trkpt>
      <trkpt lat="42.10448" lon="20.11353">
        <ele>905.70001220703</ele>
        <time>2023-10-01T07:32:58.000Z</time>
      </trkpt>
      <trkpt lat="42.10445" lon="20.11342">
        <ele>904.73999023438</ele>
        <time>2023-10-01T07:32:57.000Z</time>
      </trkpt>
      <trkpt lat="42.10438" lon="20.11332">
        <ele>903.29998779297</ele>
        <time>2023-10-01T07:32:56.000Z</time>
      </trkpt>
      <trkpt lat="42.1043" lon="20.11325">
        <ele>901.84997558594</ele>
        <time>2023-10-01T07:32:55.000Z</time>
      </trkpt>
      <trkpt lat="42.10399" lon="20.11306">
        <ele>899.92999267578</ele>
        <time>2023-10-01T07:32:53.000Z</time>
      </trkpt>
      <trkpt lat="42.10387" lon="20.11299">
        <ele>899.45001220703</ele>
        <time>2023-10-01T07:32:52.000Z</time>
      </trkpt>
      <trkpt lat="42.10376" lon="20.11297">
        <ele>898.96997070312</ele>
        <time>2023-10-01T07:32:51.000Z</time>
      </trkpt>
      <trkpt lat="42.10366" lon="20.11301">
        <ele>898.48999023438</ele>
        <time>2023-10-01T07:32:50.000Z</time>
      </trkpt>
      <trkpt lat="42.10356" lon="20.11308">
        <ele>898.01000976562</ele>
        <time>2023-10-01T07:32:49.000Z</time>
      </trkpt>
      <trkpt lat="42.1035" lon="20.11315">
        <ele>898.01000976562</ele>
        <time>2023-10-01T07:32:48.000Z</time>
      </trkpt>
      <trkpt lat="42.10315" lon="20.1136">
        <ele>897.04998779297</ele>
        <time>2023-10-01T07:32:45.000Z</time>
      </trkpt>
      <trkpt lat="42.10307" lon="20.11371">
        <ele>896.57000732422</ele>
        <time>2023-10-01T07:32:44.000Z</time>
      </trkpt>
      <trkpt lat="42.10298" lon="20.11382">
        <ele>897.04998779297</ele>
        <time>2023-10-01T07:32:43.000Z</time>
      </trkpt>
      <trkpt lat="42.10291" lon="20.11383">
        <ele>896.57000732422</ele>
        <time>2023-10-01T07:32:42.000Z</time>
      </trkpt>
      <trkpt lat="42.10284" lon="20.1138">
        <ele>895.60998535156</ele>
        <time>2023-10-01T07:32:41.000Z</time>
      </trkpt>
      <trkpt lat="42.10279" lon="20.11372">
        <ele>894.64001464844</ele>
        <time>2023-10-01T07:32:40.000Z</time>
      </trkpt>
      <trkpt lat="42.10277" lon="20.11365">
        <ele>894.15997314453</ele>
        <time>2023-10-01T07:32:39.000Z</time>
      </trkpt>
      <trkpt lat="42.10273" lon="20.11347">
        <ele>892.71997070312</ele>
        <time>2023-10-01T07:32:38.000Z</time>
      </trkpt>
      <trkpt lat="42.10268" lon="20.11333">
        <ele>891.28002929688</ele>
        <time>2023-10-01T07:32:37.000Z</time>
      </trkpt>
      <trkpt lat="42.10261" lon="20.11318">
        <ele>889.84002685547</ele>
        <time>2023-10-01T07:32:36.000Z</time>
      </trkpt>
      <trkpt lat="42.10252" lon="20.11306">
        <ele>888.88000488281</ele>
        <time>2023-10-01T07:32:35.000Z</time>
      </trkpt>
      <trkpt lat="42.10242" lon="20.11293">
        <ele>887.42999267578</ele>
        <time>2023-10-01T07:32:34.000Z</time>
      </trkpt>
      <trkpt lat="42.1023" lon="20.11285">
        <ele>886.46997070312</ele>
        <time>2023-10-01T07:32:33.000Z</time>
      </trkpt>
      <trkpt lat="42.10218" lon="20.1128">
        <ele>885.03002929688</ele>
        <time>2023-10-01T07:32:32.000Z</time>
      </trkpt>
      <trkpt lat="42.102" lon="20.11275">
        <ele>883.59002685547</ele>
        <time>2023-10-01T07:32:31.000Z</time>
      </trkpt>
      <trkpt lat="42.10187" lon="20.11273">
        <ele>882.63000488281</ele>
        <time>2023-10-01T07:32:30.000Z</time>
      </trkpt>
      <trkpt lat="42.10181" lon="20.11273">
        <ele>881.66998291016</ele>
        <time>2023-10-01T07:32:29.000Z</time>
      </trkpt>
      <trkpt lat="42.10158" lon="20.11274">
        <ele>880.21997070312</ele>
        <time>2023-10-01T07:32:28.000Z</time>
      </trkpt>
      <trkpt lat="42.10145" lon="20.11273">
        <ele>879.73999023438</ele>
        <time>2023-10-01T07:32:27.000Z</time>
      </trkpt>
      <trkpt lat="42.10139" lon="20.11271">
        <ele>879.26000976562</ele>
        <time>2023-10-01T07:32:26.000Z</time>
      </trkpt>
      <trkpt lat="42.10127" lon="20.11268">
        <ele>878.29998779297</ele>
        <time>2023-10-01T07:32:25.000Z</time>
      </trkpt>
      <trkpt lat="42.10113" lon="20.11263">
        <ele>877.34002685547</ele>
        <time>2023-10-01T07:32:24.000Z</time>
      </trkpt>
      <trkpt lat="42.10104" lon="20.11256">
        <ele>876.85998535156</ele>
        <time>2023-10-01T07:32:23.000Z</time>
      </trkpt>
      <trkpt lat="42.10099" lon="20.11251">
        <ele>877.34002685547</ele>
        <time>2023-10-01T07:32:22.000Z</time>
      </trkpt>
      <trkpt lat="42.1009" lon="20.1124">
        <ele>877.34002685547</ele>
        <time>2023-10-01T07:32:21.000Z</time>
      </trkpt>
      <trkpt lat="42.10084" lon="20.11235">
        <ele>876.85998535156</ele>
        <time>2023-10-01T07:32:20.000Z</time>
      </trkpt>
      <trkpt lat="42.10078" lon="20.11234">
        <ele>875.90002441406</ele>
        <time>2023-10-01T07:32:19.000Z</time>
      </trkpt>
      <trkpt lat="42.10073" lon="20.11236">
        <ele>874.94000244141</ele>
        <time>2023-10-01T07:32:18.000Z</time>
      </trkpt>
      <trkpt lat="42.10068" lon="20.11242">
        <ele>873.97998046875</ele>
        <time>2023-10-01T07:32:17.000Z</time>
      </trkpt>
      <trkpt lat="42.10065" lon="20.11249">
        <ele>873.5</ele>
        <time>2023-10-01T07:32:16.000Z</time>
      </trkpt>
      <trkpt lat="42.10062" lon="20.1126">
        <ele>872.53002929688</ele>
        <time>2023-10-01T07:32:15.000Z</time>
      </trkpt>
      <trkpt lat="42.1006" lon="20.11268">
        <ele>872.04998779297</ele>
        <time>2023-10-01T07:32:14.000Z</time>
      </trkpt>
      <trkpt lat="42.10055" lon="20.11284">
        <ele>871.57000732422</ele>
        <time>2023-10-01T07:32:13.000Z</time>
      </trkpt>
      <trkpt lat="42.10045" lon="20.11308">
        <ele>871.09002685547</ele>
        <time>2023-10-01T07:32:11.000Z</time>
      </trkpt>
      <trkpt lat="42.10041" lon="20.11321">
        <ele>871.09002685547</ele>
        <time>2023-10-01T07:32:10.000Z</time>
      </trkpt>
      <trkpt lat="42.10039" lon="20.11328">
        <ele>870.60998535156</ele>
        <time>2023-10-01T07:32:09.000Z</time>
      </trkpt>
      <trkpt lat="42.10039" lon="20.11335">
        <ele>870.60998535156</ele>
        <time>2023-10-01T07:32:08.000Z</time>
      </trkpt>
      <trkpt lat="42.10036" lon="20.11353">
        <ele>871.09002685547</ele>
        <time>2023-10-01T07:32:04.000Z</time>
      </trkpt>
      <trkpt lat="42.10034" lon="20.11362">
        <ele>871.09002685547</ele>
        <time>2023-10-01T07:32:03.000Z</time>
      </trkpt>
      <trkpt lat="42.10032" lon="20.11368">
        <ele>871.09002685547</ele>
        <time>2023-10-01T07:32:02.000Z</time>
      </trkpt>
      <trkpt lat="42.1003" lon="20.11374">
        <ele>871.09002685547</ele>
        <time>2023-10-01T07:32:01.000Z</time>
      </trkpt>
      <trkpt lat="42.10027" lon="20.11379">
        <ele>871.09002685547</ele>
        <time>2023-10-01T07:32:00.000Z</time>
      </trkpt>
      <trkpt lat="42.10023" lon="20.11383">
        <ele>871.09002685547</ele>
        <time>2023-10-01T07:31:59.000Z</time>
      </trkpt>
      <trkpt lat="42.10018" lon="20.11385">
        <ele>871.09002685547</ele>
        <time>2023-10-01T07:31:58.000Z</time>
      </trkpt>
      <trkpt lat="42.10013" lon="20.11389">
        <ele>871.57000732422</ele>
        <time>2023-10-01T07:31:57.000Z</time>
      </trkpt>
      <trkpt lat="42.09987" lon="20.11375">
        <ele>868.21002197266</ele>
        <time>2023-10-01T07:31:45.000Z</time>
      </trkpt>
      <trkpt lat="42.09985" lon="20.11373">
        <ele>867.72998046875</ele>
        <time>2023-10-01T07:31:44.000Z</time>
      </trkpt>
      <trkpt lat="42.09947" lon="20.11312">
        <ele>862.44000244141</ele>
        <time>2023-10-01T07:31:41.000Z</time>
      </trkpt>
      <trkpt lat="42.09945" lon="20.11307">
        <ele>862.44000244141</ele>
        <time>2023-10-01T07:31:40.000Z</time>
      </trkpt>
      <trkpt lat="42.09926" lon="20.1127">
        <ele>860.52001953125</ele>
        <time>2023-10-01T07:31:38.000Z</time>
      </trkpt>
      <trkpt lat="42.09919" lon="20.11261">
        <ele>859.55999755859</ele>
        <time>2023-10-01T07:31:37.000Z</time>
      </trkpt>
      <trkpt lat="42.09911" lon="20.11255">
        <ele>859.08001708984</ele>
        <time>2023-10-01T07:31:36.000Z</time>
      </trkpt>
      <trkpt lat="42.09907" lon="20.11253">
        <ele>859.08001708984</ele>
        <time>2023-10-01T07:31:35.000Z</time>
      </trkpt>
      <trkpt lat="42.09896" lon="20.11249">
        <ele>858.10998535156</ele>
        <time>2023-10-01T07:31:34.000Z</time>
      </trkpt>
      <trkpt lat="42.09891" lon="20.11247">
        <ele>858.10998535156</ele>
        <time>2023-10-01T07:31:33.000Z</time>
      </trkpt>
      <trkpt lat="42.09885" lon="20.11243">
        <ele>858.10998535156</ele>
        <time>2023-10-01T07:31:32.000Z</time>
      </trkpt>
      <trkpt lat="42.09879" lon="20.11236">
        <ele>858.10998535156</ele>
        <time>2023-10-01T07:31:31.000Z</time>
      </trkpt>
      <trkpt lat="42.09876" lon="20.11227">
        <ele>857.63000488281</ele>
        <time>2023-10-01T07:31:30.000Z</time>
      </trkpt>
      <trkpt lat="42.09875" lon="20.11215">
        <ele>857.15002441406</ele>
        <time>2023-10-01T07:31:29.000Z</time>
      </trkpt>
      <trkpt lat="42.09875" lon="20.11209">
        <ele>857.15002441406</ele>
        <time>2023-10-01T07:31:28.000Z</time>
      </trkpt>
      <trkpt lat="42.09878" lon="20.11185">
        <ele>855.71002197266</ele>
        <time>2023-10-01T07:31:27.000Z</time>
      </trkpt>
      <trkpt lat="42.09878" lon="20.11172">
        <ele>855.22998046875</ele>
        <time>2023-10-01T07:31:26.000Z</time>
      </trkpt>
      <trkpt lat="42.09876" lon="20.11155">
        <ele>854.27001953125</ele>
        <time>2023-10-01T07:31:25.000Z</time>
      </trkpt>
      <trkpt lat="42.09873" lon="20.11137">
        <ele>853.78997802734</ele>
        <time>2023-10-01T07:31:24.000Z</time>
      </trkpt>
      <trkpt lat="42.09869" lon="20.11125">
        <ele>853.78997802734</ele>
        <time>2023-10-01T07:31:23.000Z</time>
      </trkpt>
      <trkpt lat="42.09863" lon="20.11102">
        <ele>852.83001708984</ele>
        <time>2023-10-01T07:31:22.000Z</time>
      </trkpt>
      <trkpt lat="42.09861" lon="20.11087">
        <ele>852.34997558594</ele>
        <time>2023-10-01T07:31:21.000Z</time>
      </trkpt>
      <trkpt lat="42.09864" lon="20.11072">
        <ele>852.83001708984</ele>
        <time>2023-10-01T07:31:20.000Z</time>
      </trkpt>
      <trkpt lat="42.09869" lon="20.11059">
        <ele>852.34997558594</ele>
        <time>2023-10-01T07:31:19.000Z</time>
      </trkpt>
      <trkpt lat="42.09873" lon="20.11043">
        <ele>851.38000488281</ele>
        <time>2023-10-01T07:31:18.000Z</time>
      </trkpt>
      <trkpt lat="42.09873" lon="20.11027">
        <ele>850.41998291016</ele>
        <time>2023-10-01T07:31:17.000Z</time>
      </trkpt>
      <trkpt lat="42.09868" lon="20.11008">
        <ele>848.97998046875</ele>
        <time>2023-10-01T07:31:16.000Z</time>
      </trkpt>
      <trkpt lat="42.09861" lon="20.10992">
        <ele>847.53997802734</ele>
        <time>2023-10-01T07:31:15.000Z</time>
      </trkpt>
      <trkpt lat="42.09856" lon="20.10983">
        <ele>847.05999755859</ele>
        <time>2023-10-01T07:31:14.000Z</time>
      </trkpt>
      <trkpt lat="42.09849" lon="20.10972">
        <ele>846.09997558594</ele>
        <time>2023-10-01T07:31:13.000Z</time>
      </trkpt>
      <trkpt lat="42.09816" lon="20.10927">
        <ele>844.17999267578</ele>
        <time>2023-10-01T07:31:11.000Z</time>
      </trkpt>
      <trkpt lat="42.09805" lon="20.10912">
        <ele>843.21002197266</ele>
        <time>2023-10-01T07:31:10.000Z</time>
      </trkpt>
      <trkpt lat="42.09795" lon="20.10902">
        <ele>842.72998046875</ele>
        <time>2023-10-01T07:31:09.000Z</time>
      </trkpt>
      <trkpt lat="42.09786" lon="20.10899">
        <ele>842.25</ele>
        <time>2023-10-01T07:31:08.000Z</time>
      </trkpt>
      <trkpt lat="42.09777" lon="20.10901">
        <ele>840.80999755859</ele>
        <time>2023-10-01T07:31:07.000Z</time>
      </trkpt>
      <trkpt lat="42.09767" lon="20.10908">
        <ele>839.84997558594</ele>
        <time>2023-10-01T07:31:06.000Z</time>
      </trkpt>
      <trkpt lat="42.09759" lon="20.10919">
        <ele>839.36999511719</ele>
        <time>2023-10-01T07:31:05.000Z</time>
      </trkpt>
      <trkpt lat="42.09756" lon="20.10925">
        <ele>839.36999511719</ele>
        <time>2023-10-01T07:31:04.000Z</time>
      </trkpt>
      <trkpt lat="42.09743" lon="20.1095">
        <ele>837.92999267578</ele>
        <time>2023-10-01T07:31:03.000Z</time>
      </trkpt>
      <trkpt lat="42.09734" lon="20.10967">
        <ele>836.47998046875</ele>
        <time>2023-10-01T07:31:02.000Z</time>
      </trkpt>
      <trkpt lat="42.09724" lon="20.1098">
        <ele>836</ele>
        <time>2023-10-01T07:31:01.000Z</time>
      </trkpt>
      <trkpt lat="42.09713" lon="20.10994">
        <ele>835.03997802734</ele>
        <time>2023-10-01T07:31:00.000Z</time>
      </trkpt>
      <trkpt lat="42.09706" lon="20.11006">
        <ele>834.55999755859</ele>
        <time>2023-10-01T07:30:59.000Z</time>
      </trkpt>
      <trkpt lat="42.09703" lon="20.11016">
        <ele>834.55999755859</ele>
        <time>2023-10-01T07:30:58.000Z</time>
      </trkpt>
      <trkpt lat="42.09704" lon="20.11029">
        <ele>834.55999755859</ele>
        <time>2023-10-01T07:30:57.000Z</time>
      </trkpt>
      <trkpt lat="42.09707" lon="20.11039">
        <ele>834.08001708984</ele>
        <time>2023-10-01T07:30:56.000Z</time>
      </trkpt>
      <trkpt lat="42.09714" lon="20.11057">
        <ele>833.59997558594</ele>
        <time>2023-10-01T07:30:55.000Z</time>
      </trkpt>
      <trkpt lat="42.09717" lon="20.11068">
        <ele>832.64001464844</ele>
        <time>2023-10-01T07:30:54.000Z</time>
      </trkpt>
      <trkpt lat="42.09718" lon="20.11079">
        <ele>832.15997314453</ele>
        <time>2023-10-01T07:30:53.000Z</time>
      </trkpt>
      <trkpt lat="42.09714" lon="20.11091">
        <ele>830.71997070312</ele>
        <time>2023-10-01T07:30:52.000Z</time>
      </trkpt>
      <trkpt lat="42.09707" lon="20.11101">
        <ele>829.27001953125</ele>
        <time>2023-10-01T07:30:51.000Z</time>
      </trkpt>
      <trkpt lat="42.09697" lon="20.11109">
        <ele>828.78997802734</ele>
        <time>2023-10-01T07:30:50.000Z</time>
      </trkpt>
      <trkpt lat="42.09685" lon="20.11113">
        <ele>827.34997558594</ele>
        <time>2023-10-01T07:30:49.000Z</time>
      </trkpt>
      <trkpt lat="42.09675" lon="20.11118">
        <ele>826.86999511719</ele>
        <time>2023-10-01T07:30:48.000Z</time>
      </trkpt>
      <trkpt lat="42.09667" lon="20.11124">
        <ele>826.39001464844</ele>
        <time>2023-10-01T07:30:47.000Z</time>
      </trkpt>
      <trkpt lat="42.09661" lon="20.11132">
        <ele>826.86999511719</ele>
        <time>2023-10-01T07:30:46.000Z</time>
      </trkpt>
      <trkpt lat="42.09659" lon="20.11143">
        <ele>826.86999511719</ele>
        <time>2023-10-01T07:30:45.000Z</time>
      </trkpt>
      <trkpt lat="42.09658" lon="20.11157">
        <ele>824.95001220703</ele>
        <time>2023-10-01T07:30:44.000Z</time>
      </trkpt>
      <trkpt lat="42.09657" lon="20.11172">
        <ele>824.46997070312</ele>
        <time>2023-10-01T07:30:43.000Z</time>
      </trkpt>
      <trkpt lat="42.09658" lon="20.11219">
        <ele>822.54998779297</ele>
        <time>2023-10-01T07:30:41.000Z</time>
      </trkpt>
      <trkpt lat="42.09656" lon="20.11235">
        <ele>821.58001708984</ele>
        <time>2023-10-01T07:30:40.000Z</time>
      </trkpt>
      <trkpt lat="42.0965" lon="20.11251">
        <ele>821.09997558594</ele>
        <time>2023-10-01T07:30:39.000Z</time>
      </trkpt>
      <trkpt lat="42.09642" lon="20.11264">
        <ele>820.14001464844</ele>
        <time>2023-10-01T07:30:38.000Z</time>
      </trkpt>
      <trkpt lat="42.09633" lon="20.11274">
        <ele>818.70001220703</ele>
        <time>2023-10-01T07:30:37.000Z</time>
      </trkpt>
      <trkpt lat="42.09623" lon="20.11278">
        <ele>817.26000976562</ele>
        <time>2023-10-01T07:30:36.000Z</time>
      </trkpt>
      <trkpt lat="42.09614" lon="20.11278">
        <ele>817.26000976562</ele>
        <time>2023-10-01T07:30:35.000Z</time>
      </trkpt>
      <trkpt lat="42.09606" lon="20.11272">
        <ele>816.78002929688</ele>
        <time>2023-10-01T07:30:34.000Z</time>
      </trkpt>
      <trkpt lat="42.096" lon="20.11263">
        <ele>816.29998779297</ele>
        <time>2023-10-01T07:30:33.000Z</time>
      </trkpt>
      <trkpt lat="42.09596" lon="20.11249">
        <ele>815.34002685547</ele>
        <time>2023-10-01T07:30:32.000Z</time>
      </trkpt>
      <trkpt lat="42.09594" lon="20.11243">
        <ele>814.84997558594</ele>
        <time>2023-10-01T07:30:31.000Z</time>
      </trkpt>
      <trkpt lat="42.09588" lon="20.11211">
        <ele>812.45001220703</ele>
        <time>2023-10-01T07:30:30.000Z</time>
      </trkpt>
      <trkpt lat="42.09583" lon="20.11195">
        <ele>811.01000976562</ele>
        <time>2023-10-01T07:30:29.000Z</time>
      </trkpt>
      <trkpt lat="42.09579" lon="20.11183">
        <ele>810.53002929688</ele>
        <time>2023-10-01T07:30:28.000Z</time>
      </trkpt>
      <trkpt lat="42.09562" lon="20.11137">
        <ele>807.15997314453</ele>
        <time>2023-10-01T07:30:25.000Z</time>
      </trkpt>
      <trkpt lat="42.09557" lon="20.11122">
        <ele>806.20001220703</ele>
        <time>2023-10-01T07:30:24.000Z</time>
      </trkpt>
      <trkpt lat="42.09554" lon="20.11099">
        <ele>805.23999023438</ele>
        <time>2023-10-01T07:30:23.000Z</time>
      </trkpt>
      <trkpt lat="42.09551" lon="20.11084">
        <ele>804.76000976562</ele>
        <time>2023-10-01T07:30:22.000Z</time>
      </trkpt>
      <trkpt lat="42.09546" lon="20.11074">
        <ele>804.28002929688</ele>
        <time>2023-10-01T07:30:21.000Z</time>
      </trkpt>
      <trkpt lat="42.0954" lon="20.11068">
        <ele>803.79998779297</ele>
        <time>2023-10-01T07:30:20.000Z</time>
      </trkpt>
      <trkpt lat="42.09529" lon="20.11067">
        <ele>803.32000732422</ele>
        <time>2023-10-01T07:30:19.000Z</time>
      </trkpt>
      <trkpt lat="42.0952" lon="20.11068">
        <ele>802.84002685547</ele>
        <time>2023-10-01T07:30:18.000Z</time>
      </trkpt>
      <trkpt lat="42.09517" lon="20.11069">
        <ele>802.84002685547</ele>
        <time>2023-10-01T07:30:17.000Z</time>
      </trkpt>
      <trkpt lat="42.09501" lon="20.11078">
        <ele>801.88000488281</ele>
        <time>2023-10-01T07:30:16.000Z</time>
      </trkpt>
      <trkpt lat="42.09492" lon="20.11079">
        <ele>801.88000488281</ele>
        <time>2023-10-01T07:30:15.000Z</time>
      </trkpt>
      <trkpt lat="42.09485" lon="20.11077">
        <ele>801.40002441406</ele>
        <time>2023-10-01T07:30:14.000Z</time>
      </trkpt>
      <trkpt lat="42.09479" lon="20.11071">
        <ele>800.91998291016</ele>
        <time>2023-10-01T07:30:13.000Z</time>
      </trkpt>
      <trkpt lat="42.09474" lon="20.11064">
        <ele>800.44000244141</ele>
        <time>2023-10-01T07:30:12.000Z</time>
      </trkpt>
      <trkpt lat="42.09471" lon="20.11056">
        <ele>799.46997070312</ele>
        <time>2023-10-01T07:30:11.000Z</time>
      </trkpt>
      <trkpt lat="42.0947" lon="20.11046">
        <ele>798.98999023438</ele>
        <time>2023-10-01T07:30:10.000Z</time>
      </trkpt>
      <trkpt lat="42.09474" lon="20.11034">
        <ele>798.51000976562</ele>
        <time>2023-10-01T07:30:09.000Z</time>
      </trkpt>
      <trkpt lat="42.09475" lon="20.1103">
        <ele>798.51000976562</ele>
        <time>2023-10-01T07:30:08.000Z</time>
      </trkpt>
      <trkpt lat="42.09486" lon="20.11008">
        <ele>797.07000732422</ele>
        <time>2023-10-01T07:30:07.000Z</time>
      </trkpt>
      <trkpt lat="42.09513" lon="20.10947">
        <ele>793.71002197266</ele>
        <time>2023-10-01T07:30:04.000Z</time>
      </trkpt>
      <trkpt lat="42.09518" lon="20.10934">
        <ele>793.21997070312</ele>
        <time>2023-10-01T07:30:03.000Z</time>
      </trkpt>
      <trkpt lat="42.0952" lon="20.10919">
        <ele>791.78002929688</ele>
        <time>2023-10-01T07:30:02.000Z</time>
      </trkpt>
      <trkpt lat="42.09518" lon="20.10901">
        <ele>791.29998779297</ele>
        <time>2023-10-01T07:30:01.000Z</time>
      </trkpt>
      <trkpt lat="42.09514" lon="20.10885">
        <ele>790.34002685547</ele>
        <time>2023-10-01T07:30:00.000Z</time>
      </trkpt>
      <trkpt lat="42.09509" lon="20.10865">
        <ele>789.85998535156</ele>
        <time>2023-10-01T07:29:59.000Z</time>
      </trkpt>
      <trkpt lat="42.09506" lon="20.10846">
        <ele>788.90002441406</ele>
        <time>2023-10-01T07:29:58.000Z</time>
      </trkpt>
      <trkpt lat="42.09505" lon="20.10826">
        <ele>787.94000244141</ele>
        <time>2023-10-01T07:29:57.000Z</time>
      </trkpt>
      <trkpt lat="42.09505" lon="20.10813">
        <ele>786.97998046875</ele>
        <time>2023-10-01T07:29:56.000Z</time>
      </trkpt>
      <trkpt lat="42.09506" lon="20.1077">
        <ele>785.53002929688</ele>
        <time>2023-10-01T07:29:54.000Z</time>
      </trkpt>
      <trkpt lat="42.09504" lon="20.10754">
        <ele>784.09002685547</ele>
        <time>2023-10-01T07:29:53.000Z</time>
      </trkpt>
      <trkpt lat="42.09498" lon="20.10739">
        <ele>783.13000488281</ele>
        <time>2023-10-01T07:29:52.000Z</time>
      </trkpt>
      <trkpt lat="42.09491" lon="20.10728">
        <ele>782.16998291016</ele>
        <time>2023-10-01T07:29:51.000Z</time>
      </trkpt>
      <trkpt lat="42.09486" lon="20.10723">
        <ele>781.69000244141</ele>
        <time>2023-10-01T07:29:50.000Z</time>
      </trkpt>
      <trkpt lat="42.09471" lon="20.10708">
        <ele>780.25</ele>
        <time>2023-10-01T07:29:49.000Z</time>
      </trkpt>
      <trkpt lat="42.09459" lon="20.10694">
        <ele>778.80999755859</ele>
        <time>2023-10-01T07:29:48.000Z</time>
      </trkpt>
      <trkpt lat="42.09454" lon="20.10687">
        <ele>778.32000732422</ele>
        <time>2023-10-01T07:29:47.000Z</time>
      </trkpt>
      <trkpt lat="42.09417" lon="20.10631">
        <ele>774.96002197266</ele>
        <time>2023-10-01T07:29:44.000Z</time>
      </trkpt>
      <trkpt lat="42.09409" lon="20.10614">
        <ele>774.47998046875</ele>
        <time>2023-10-01T07:29:43.000Z</time>
      </trkpt>
      <trkpt lat="42.09406" lon="20.10606">
        <ele>774</ele>
        <time>2023-10-01T07:29:42.000Z</time>
      </trkpt>
      <trkpt lat="42.09397" lon="20.10579">
        <ele>772.55999755859</ele>
        <time>2023-10-01T07:29:41.000Z</time>
      </trkpt>
      <trkpt lat="42.09382" lon="20.10541">
        <ele>769.19000244141</ele>
        <time>2023-10-01T07:29:38.000Z</time>
      </trkpt>
      <trkpt lat="42.09377" lon="20.10525">
        <ele>768.22998046875</ele>
        <time>2023-10-01T07:29:37.000Z</time>
      </trkpt>
      <trkpt lat="42.09354" lon="20.10449">
        <ele>763.41998291016</ele>
        <time>2023-10-01T07:29:34.000Z</time>
      </trkpt>
      <trkpt lat="42.09349" lon="20.10434">
        <ele>762.46002197266</ele>
        <time>2023-10-01T07:29:33.000Z</time>
      </trkpt>
      <trkpt lat="42.09342" lon="20.10415">
        <ele>761.5</ele>
        <time>2023-10-01T07:29:32.000Z</time>
      </trkpt>
      <trkpt lat="42.09334" lon="20.104">
        <ele>760.53997802734</ele>
        <time>2023-10-01T07:29:31.000Z</time>
      </trkpt>
      <trkpt lat="42.09323" lon="20.10387">
        <ele>759.58001708984</ele>
        <time>2023-10-01T07:29:30.000Z</time>
      </trkpt>
      <trkpt lat="42.09311" lon="20.10379">
        <ele>758.14001464844</ele>
        <time>2023-10-01T07:29:29.000Z</time>
      </trkpt>
      <trkpt lat="42.09298" lon="20.10375">
        <ele>757.17999267578</ele>
        <time>2023-10-01T07:29:28.000Z</time>
      </trkpt>
      <trkpt lat="42.09285" lon="20.10375">
        <ele>756.69000244141</ele>
        <time>2023-10-01T07:29:27.000Z</time>
      </trkpt>
      <trkpt lat="42.09269" lon="20.10376">
        <ele>756.21002197266</ele>
        <time>2023-10-01T07:29:26.000Z</time>
      </trkpt>
      <trkpt lat="42.09254" lon="20.1038">
        <ele>755.72998046875</ele>
        <time>2023-10-01T07:29:25.000Z</time>
      </trkpt>
      <trkpt lat="42.09241" lon="20.10379">
        <ele>756.21002197266</ele>
        <time>2023-10-01T07:29:24.000Z</time>
      </trkpt>
      <trkpt lat="42.09232" lon="20.10376">
        <ele>755.25</ele>
        <time>2023-10-01T07:29:23.000Z</time>
      </trkpt>
      <trkpt lat="42.09223" lon="20.10371">
        <ele>755.25</ele>
        <time>2023-10-01T07:29:22.000Z</time>
      </trkpt>
      <trkpt lat="42.09216" lon="20.10363">
        <ele>754.28997802734</ele>
        <time>2023-10-01T07:29:21.000Z</time>
      </trkpt>
      <trkpt lat="42.09211" lon="20.10353">
        <ele>753.80999755859</ele>
        <time>2023-10-01T07:29:20.000Z</time>
      </trkpt>
      <trkpt lat="42.09208" lon="20.10341">
        <ele>752.84997558594</ele>
        <time>2023-10-01T07:29:19.000Z</time>
      </trkpt>
      <trkpt lat="42.09208" lon="20.10328">
        <ele>752.36999511719</ele>
        <time>2023-10-01T07:29:18.000Z</time>
      </trkpt>
      <trkpt lat="42.09214" lon="20.10316">
        <ele>751.40997314453</ele>
        <time>2023-10-01T07:29:17.000Z</time>
      </trkpt>
      <trkpt lat="42.09221" lon="20.10308">
        <ele>750.92999267578</ele>
        <time>2023-10-01T07:29:16.000Z</time>
      </trkpt>
      <trkpt lat="42.09234" lon="20.10298">
        <ele>750.45001220703</ele>
        <time>2023-10-01T07:29:15.000Z</time>
      </trkpt>
      <trkpt lat="42.09247" lon="20.10287">
        <ele>749.96997070312</ele>
        <time>2023-10-01T07:29:14.000Z</time>
      </trkpt>
      <trkpt lat="42.09283" lon="20.10248">
        <ele>748.03997802734</ele>
        <time>2023-10-01T07:29:11.000Z</time>
      </trkpt>
      <trkpt lat="42.09292" lon="20.10234">
        <ele>746.59997558594</ele>
        <time>2023-10-01T07:29:10.000Z</time>
      </trkpt>
      <trkpt lat="42.093" lon="20.10217">
        <ele>745.15997314453</ele>
        <time>2023-10-01T07:29:09.000Z</time>
      </trkpt>
      <trkpt lat="42.09306" lon="20.10199">
        <ele>746.11999511719</ele>
        <time>2023-10-01T07:29:08.000Z</time>
      </trkpt>
      <trkpt lat="42.09308" lon="20.10181">
        <ele>745.15997314453</ele>
        <time>2023-10-01T07:29:07.000Z</time>
      </trkpt>
      <trkpt lat="42.09307" lon="20.10163">
        <ele>744.67999267578</ele>
        <time>2023-10-01T07:29:06.000Z</time>
      </trkpt>
      <trkpt lat="42.09304" lon="20.1015">
        <ele>744.20001220703</ele>
        <time>2023-10-01T07:29:05.000Z</time>
      </trkpt>
      <trkpt lat="42.09298" lon="20.10128">
        <ele>743.71997070312</ele>
        <time>2023-10-01T07:29:04.000Z</time>
      </trkpt>
      <trkpt lat="42.09294" lon="20.10107">
        <ele>742.28002929688</ele>
        <time>2023-10-01T07:29:03.000Z</time>
      </trkpt>
      <trkpt lat="42.09291" lon="20.10091">
        <ele>741.30999755859</ele>
        <time>2023-10-01T07:29:02.000Z</time>
      </trkpt>
      <trkpt lat="42.0929" lon="20.10076">
        <ele>740.83001708984</ele>
        <time>2023-10-01T07:29:01.000Z</time>
      </trkpt>
      <trkpt lat="42.09287" lon="20.10037">
        <ele>738.42999267578</ele>
        <time>2023-10-01T07:29:00.000Z</time>
      </trkpt>
      <trkpt lat="42.09284" lon="20.10018">
        <ele>737.46997070312</ele>
        <time>2023-10-01T07:28:59.000Z</time>
      </trkpt>
      <trkpt lat="42.09282" lon="20.10011">
        <ele>736.98999023438</ele>
        <time>2023-10-01T07:28:58.000Z</time>
      </trkpt>
      <trkpt lat="42.09263" lon="20.09962">
        <ele>733.14001464844</ele>
        <time>2023-10-01T07:28:56.000Z</time>
      </trkpt>
      <trkpt lat="42.09254" lon="20.09943">
        <ele>731.70001220703</ele>
        <time>2023-10-01T07:28:55.000Z</time>
      </trkpt>
      <trkpt lat="42.09245" lon="20.09928">
        <ele>730.26000976562</ele>
        <time>2023-10-01T07:28:54.000Z</time>
      </trkpt>
      <trkpt lat="42.09232" lon="20.09912">
        <ele>729.29998779297</ele>
        <time>2023-10-01T07:28:53.000Z</time>
      </trkpt>
      <trkpt lat="42.09218" lon="20.09898">
        <ele>728.34002685547</ele>
        <time>2023-10-01T07:28:52.000Z</time>
      </trkpt>
      <trkpt lat="42.09205" lon="20.09888">
        <ele>727.36999511719</ele>
        <time>2023-10-01T07:28:51.000Z</time>
      </trkpt>
      <trkpt lat="42.09192" lon="20.09876">
        <ele>726.89001464844</ele>
        <time>2023-10-01T07:28:50.000Z</time>
      </trkpt>
      <trkpt lat="42.09181" lon="20.09861">
        <ele>725.92999267578</ele>
        <time>2023-10-01T07:28:49.000Z</time>
      </trkpt>
      <trkpt lat="42.09174" lon="20.09848">
        <ele>725.45001220703</ele>
        <time>2023-10-01T07:28:48.000Z</time>
      </trkpt>
      <trkpt lat="42.09135" lon="20.09758">
        <ele>721.13000488281</ele>
        <time>2023-10-01T07:28:43.000Z</time>
      </trkpt>
      <trkpt lat="42.0913" lon="20.0974">
        <ele>720.15997314453</ele>
        <time>2023-10-01T07:28:42.000Z</time>
      </trkpt>
      <trkpt lat="42.09127" lon="20.0972">
        <ele>719.67999267578</ele>
        <time>2023-10-01T07:28:41.000Z</time>
      </trkpt>
      <trkpt lat="42.09126" lon="20.09702">
        <ele>718.23999023438</ele>
        <time>2023-10-01T07:28:40.000Z</time>
      </trkpt>
      <trkpt lat="42.09126" lon="20.09692">
        <ele>718.23999023438</ele>
        <time>2023-10-01T07:28:39.000Z</time>
      </trkpt>
      <trkpt lat="42.09126" lon="20.09662">
        <ele>716.32000732422</ele>
        <time>2023-10-01T07:28:38.000Z</time>
      </trkpt>
      <trkpt lat="42.09123" lon="20.09642">
        <ele>715.35998535156</ele>
        <time>2023-10-01T07:28:37.000Z</time>
      </trkpt>
      <trkpt lat="42.09121" lon="20.09632">
        <ele>714.88000488281</ele>
        <time>2023-10-01T07:28:36.000Z</time>
      </trkpt>
      <trkpt lat="42.09103" lon="20.09552">
        <ele>710.07000732422</ele>
        <time>2023-10-01T07:28:33.000Z</time>
      </trkpt>
      <trkpt lat="42.09089" lon="20.09483">
        <ele>705.75</ele>
        <time>2023-10-01T07:28:30.000Z</time>
      </trkpt>
      <trkpt lat="42.09082" lon="20.09463">
        <ele>703.82000732422</ele>
        <time>2023-10-01T07:28:29.000Z</time>
      </trkpt>
      <trkpt lat="42.09074" lon="20.09448">
        <ele>702.38000488281</ele>
        <time>2023-10-01T07:28:28.000Z</time>
      </trkpt>
      <trkpt lat="42.0906" lon="20.09425">
        <ele>700.94000244141</ele>
        <time>2023-10-01T07:28:27.000Z</time>
      </trkpt>
      <trkpt lat="42.0905" lon="20.09406">
        <ele>699.97998046875</ele>
        <time>2023-10-01T07:28:26.000Z</time>
      </trkpt>
      <trkpt lat="42.09041" lon="20.09386">
        <ele>698.53002929688</ele>
        <time>2023-10-01T07:28:25.000Z</time>
      </trkpt>
      <trkpt lat="42.0904" lon="20.09381">
        <ele>698.04998779297</ele>
        <time>2023-10-01T07:28:24.000Z</time>
      </trkpt>
      <trkpt lat="42.09025" lon="20.09334">
        <ele>695.16998291016</ele>
        <time>2023-10-01T07:28:23.000Z</time>
      </trkpt>
      <trkpt lat="42.09013" lon="20.09286">
        <ele>692.77001953125</ele>
        <time>2023-10-01T07:28:21.000Z</time>
      </trkpt>
      <trkpt lat="42.09008" lon="20.09251">
        <ele>690.84002685547</ele>
        <time>2023-10-01T07:28:20.000Z</time>
      </trkpt>
      <trkpt lat="42.09004" lon="20.0921">
        <ele>688.91998291016</ele>
        <time>2023-10-01T07:28:18.000Z</time>
      </trkpt>
      <trkpt lat="42.09003" lon="20.09177">
        <ele>688.44000244141</ele>
        <time>2023-10-01T07:28:17.000Z</time>
      </trkpt>
      <trkpt lat="42.09001" lon="20.09158">
        <ele>687.47998046875</ele>
        <time>2023-10-01T07:28:16.000Z</time>
      </trkpt>
      <trkpt lat="42.08996" lon="20.09141">
        <ele>686.52001953125</ele>
        <time>2023-10-01T07:28:15.000Z</time>
      </trkpt>
      <trkpt lat="42.08993" lon="20.09132">
        <ele>686.03997802734</ele>
        <time>2023-10-01T07:28:14.000Z</time>
      </trkpt>
      <trkpt lat="42.08981" lon="20.09102">
        <ele>685.08001708984</ele>
        <time>2023-10-01T07:28:13.000Z</time>
      </trkpt>
      <trkpt lat="42.08977" lon="20.09086">
        <ele>684.59997558594</ele>
        <time>2023-10-01T07:28:12.000Z</time>
      </trkpt>
      <trkpt lat="42.08975" lon="20.09069">
        <ele>684.59997558594</ele>
        <time>2023-10-01T07:28:11.000Z</time>
      </trkpt>
      <trkpt lat="42.08976" lon="20.09052">
        <ele>684.11999511719</ele>
        <time>2023-10-01T07:28:10.000Z</time>
      </trkpt>
      <trkpt lat="42.0898" lon="20.09037">
        <ele>683.63000488281</ele>
        <time>2023-10-01T07:28:09.000Z</time>
      </trkpt>
      <trkpt lat="42.08987" lon="20.09023">
        <ele>683.63000488281</ele>
        <time>2023-10-01T07:28:08.000Z</time>
      </trkpt>
      <trkpt lat="42.08997" lon="20.09008">
        <ele>683.63000488281</ele>
        <time>2023-10-01T07:28:07.000Z</time>
      </trkpt>
      <trkpt lat="42.09007" lon="20.08992">
        <ele>682.66998291016</ele>
        <time>2023-10-01T07:28:06.000Z</time>
      </trkpt>
      <trkpt lat="42.09016" lon="20.08975">
        <ele>682.19000244141</ele>
        <time>2023-10-01T07:28:05.000Z</time>
      </trkpt>
      <trkpt lat="42.09023" lon="20.0896">
        <ele>681.22998046875</ele>
        <time>2023-10-01T07:28:04.000Z</time>
      </trkpt>
      <trkpt lat="42.09031" lon="20.08938">
        <ele>680.75</ele>
        <time>2023-10-01T07:28:03.000Z</time>
      </trkpt>
      <trkpt lat="42.09038" lon="20.08915">
        <ele>679.78997802734</ele>
        <time>2023-10-01T07:28:02.000Z</time>
      </trkpt>
      <trkpt lat="42.09042" lon="20.08897">
        <ele>678.83001708984</ele>
        <time>2023-10-01T07:28:01.000Z</time>
      </trkpt>
      <trkpt lat="42.09044" lon="20.08879">
        <ele>677.86999511719</ele>
        <time>2023-10-01T07:28:00.000Z</time>
      </trkpt>
      <trkpt lat="42.09043" lon="20.08862">
        <ele>677.39001464844</ele>
        <time>2023-10-01T07:27:59.000Z</time>
      </trkpt>
      <trkpt lat="42.09039" lon="20.08845">
        <ele>676.90997314453</ele>
        <time>2023-10-01T07:27:58.000Z</time>
      </trkpt>
      <trkpt lat="42.09034" lon="20.08828">
        <ele>676.41998291016</ele>
        <time>2023-10-01T07:27:57.000Z</time>
      </trkpt>
      <trkpt lat="42.09032" lon="20.08814">
        <ele>675.46002197266</ele>
        <time>2023-10-01T07:27:56.000Z</time>
      </trkpt>
      <trkpt lat="42.09033" lon="20.08801">
        <ele>674.97998046875</ele>
        <time>2023-10-01T07:27:55.000Z</time>
      </trkpt>
      <trkpt lat="42.09038" lon="20.08789">
        <ele>674.97998046875</ele>
        <time>2023-10-01T07:27:54.000Z</time>
      </trkpt>
      <trkpt lat="42.09044" lon="20.08778">
        <ele>674.97998046875</ele>
        <time>2023-10-01T07:27:53.000Z</time>
      </trkpt>
      <trkpt lat="42.09046" lon="20.08776">
        <ele>674.97998046875</ele>
        <time>2023-10-01T07:27:52.000Z</time>
      </trkpt>
      <trkpt lat="42.0906" lon="20.08758">
        <ele>674.97998046875</ele>
        <time>2023-10-01T07:27:51.000Z</time>
      </trkpt>
      <trkpt lat="42.09065" lon="20.08747">
        <ele>674.97998046875</ele>
        <time>2023-10-01T07:27:50.000Z</time>
      </trkpt>
      <trkpt lat="42.09068" lon="20.08734">
        <ele>674.5</ele>
        <time>2023-10-01T07:27:49.000Z</time>
      </trkpt>
      <trkpt lat="42.09068" lon="20.08719">
        <ele>674.5</ele>
        <time>2023-10-01T07:27:48.000Z</time>
      </trkpt>
      <trkpt lat="42.09067" lon="20.08702">
        <ele>674.5</ele>
        <time>2023-10-01T07:27:47.000Z</time>
      </trkpt>
      <trkpt lat="42.09064" lon="20.08686">
        <ele>674.02001953125</ele>
        <time>2023-10-01T07:27:46.000Z</time>
      </trkpt>
      <trkpt lat="42.0906" lon="20.08673">
        <ele>674.02001953125</ele>
        <time>2023-10-01T07:27:45.000Z</time>
      </trkpt>
      <trkpt lat="42.09055" lon="20.08662">
        <ele>674.02001953125</ele>
        <time>2023-10-01T07:27:44.000Z</time>
      </trkpt>
      <trkpt lat="42.09043" lon="20.08623">
        <ele>674.02001953125</ele>
        <time>2023-10-01T07:27:42.000Z</time>
      </trkpt>
      <trkpt lat="42.09037" lon="20.08599">
        <ele>674.5</ele>
        <time>2023-10-01T07:27:41.000Z</time>
      </trkpt>
      <trkpt lat="42.09034" lon="20.08582">
        <ele>674.5</ele>
        <time>2023-10-01T07:27:40.000Z</time>
      </trkpt>
      <trkpt lat="42.09033" lon="20.08565">
        <ele>674.97998046875</ele>
        <time>2023-10-01T07:27:39.000Z</time>
      </trkpt>
      <trkpt lat="42.09036" lon="20.08549">
        <ele>674.5</ele>
        <time>2023-10-01T07:27:38.000Z</time>
      </trkpt>
      <trkpt lat="42.09038" lon="20.08543">
        <ele>674.5</ele>
        <time>2023-10-01T07:27:37.000Z</time>
      </trkpt>
      <trkpt lat="42.09046" lon="20.08519">
        <ele>674.02001953125</ele>
        <time>2023-10-01T07:27:36.000Z</time>
      </trkpt>
      <trkpt lat="42.09048" lon="20.08501">
        <ele>673.53997802734</ele>
        <time>2023-10-01T07:27:35.000Z</time>
      </trkpt>
      <trkpt lat="42.09048" lon="20.08483">
        <ele>673.53997802734</ele>
        <time>2023-10-01T07:27:34.000Z</time>
      </trkpt>
      <trkpt lat="42.09045" lon="20.08465">
        <ele>673.53997802734</ele>
        <time>2023-10-01T07:27:33.000Z</time>
      </trkpt>
      <trkpt lat="42.09039" lon="20.08449">
        <ele>673.53997802734</ele>
        <time>2023-10-01T07:27:32.000Z</time>
      </trkpt>
      <trkpt lat="42.09036" lon="20.08443">
        <ele>673.53997802734</ele>
        <time>2023-10-01T07:27:31.000Z</time>
      </trkpt>
      <trkpt lat="42.09023" lon="20.08419">
        <ele>673.53997802734</ele>
        <time>2023-10-01T07:27:30.000Z</time>
      </trkpt>
      <trkpt lat="42.09022" lon="20.08415">
        <ele>673.53997802734</ele>
        <time>2023-10-01T07:27:29.000Z</time>
      </trkpt>
      <trkpt lat="42.08992" lon="20.08326">
        <ele>672.58001708984</ele>
        <time>2023-10-01T07:27:25.000Z</time>
      </trkpt>
      <trkpt lat="42.08934" lon="20.08144">
        <ele>669.21997070312</ele>
        <time>2023-10-01T07:27:16.000Z</time>
      </trkpt>
      <trkpt lat="42.0893" lon="20.08133">
        <ele>668.72998046875</ele>
        <time>2023-10-01T07:27:15.000Z</time>
      </trkpt>
      <trkpt lat="42.08901" lon="20.08062">
        <ele>666.33001708984</ele>
        <time>2023-10-01T07:27:12.000Z</time>
      </trkpt>
      <trkpt lat="42.08894" lon="20.08044">
        <ele>665.36999511719</ele>
        <time>2023-10-01T07:27:11.000Z</time>
      </trkpt>
      <trkpt lat="42.08889" lon="20.08026">
        <ele>664.40997314453</ele>
        <time>2023-10-01T07:27:10.000Z</time>
      </trkpt>
      <trkpt lat="42.08885" lon="20.08009">
        <ele>663.45001220703</ele>
        <time>2023-10-01T07:27:09.000Z</time>
      </trkpt>
      <trkpt lat="42.08885" lon="20.07992">
        <ele>662.96997070312</ele>
        <time>2023-10-01T07:27:08.000Z</time>
      </trkpt>
      <trkpt lat="42.08887" lon="20.07976">
        <ele>662.01000976562</ele>
        <time>2023-10-01T07:27:07.000Z</time>
      </trkpt>
      <trkpt lat="42.08892" lon="20.07961">
        <ele>661.03997802734</ele>
        <time>2023-10-01T07:27:06.000Z</time>
      </trkpt>
      <trkpt lat="42.089" lon="20.07946">
        <ele>660.08001708984</ele>
        <time>2023-10-01T07:27:05.000Z</time>
      </trkpt>
      <trkpt lat="42.08902" lon="20.07944">
        <ele>660.08001708984</ele>
        <time>2023-10-01T07:27:04.000Z</time>
      </trkpt>
      <trkpt lat="42.08919" lon="20.07921">
        <ele>659.11999511719</ele>
        <time>2023-10-01T07:27:03.000Z</time>
      </trkpt>
      <trkpt lat="42.08929" lon="20.07905">
        <ele>658.64001464844</ele>
        <time>2023-10-01T07:27:02.000Z</time>
      </trkpt>
      <trkpt lat="42.08937" lon="20.07888">
        <ele>658.64001464844</ele>
        <time>2023-10-01T07:27:01.000Z</time>
      </trkpt>
      <trkpt lat="42.08942" lon="20.07871">
        <ele>658.15997314453</ele>
        <time>2023-10-01T07:27:00.000Z</time>
      </trkpt>
      <trkpt lat="42.08946" lon="20.07853">
        <ele>657.67999267578</ele>
        <time>2023-10-01T07:26:59.000Z</time>
      </trkpt>
      <trkpt lat="42.08952" lon="20.07813">
        <ele>657.67999267578</ele>
        <time>2023-10-01T07:26:57.000Z</time>
      </trkpt>
      <trkpt lat="42.08967" lon="20.07634">
        <ele>653.83001708984</ele>
        <time>2023-10-01T07:26:49.000Z</time>
      </trkpt>
      <trkpt lat="42.08971" lon="20.07617">
        <ele>652.86999511719</ele>
        <time>2023-10-01T07:26:48.000Z</time>
      </trkpt>
      <trkpt lat="42.08976" lon="20.07601">
        <ele>652.39001464844</ele>
        <time>2023-10-01T07:26:47.000Z</time>
      </trkpt>
      <trkpt lat="42.08979" lon="20.07584">
        <ele>651.90997314453</ele>
        <time>2023-10-01T07:26:46.000Z</time>
      </trkpt>
      <trkpt lat="42.08978" lon="20.07567">
        <ele>651.42999267578</ele>
        <time>2023-10-01T07:26:45.000Z</time>
      </trkpt>
      <trkpt lat="42.08974" lon="20.07546">
        <ele>651.42999267578</ele>
        <time>2023-10-01T07:26:44.000Z</time>
      </trkpt>
      <trkpt lat="42.08963" lon="20.07508">
        <ele>650.95001220703</ele>
        <time>2023-10-01T07:26:42.000Z</time>
      </trkpt>
      <trkpt lat="42.08956" lon="20.07489">
        <ele>650.95001220703</ele>
        <time>2023-10-01T07:26:41.000Z</time>
      </trkpt>
      <trkpt lat="42.08947" lon="20.07473">
        <ele>650.95001220703</ele>
        <time>2023-10-01T07:26:40.000Z</time>
      </trkpt>
      <trkpt lat="42.08936" lon="20.07458">
        <ele>650.46997070312</ele>
        <time>2023-10-01T07:26:39.000Z</time>
      </trkpt>
      <trkpt lat="42.0893" lon="20.07452">
        <ele>650.46997070312</ele>
        <time>2023-10-01T07:26:38.000Z</time>
      </trkpt>
      <trkpt lat="42.08911" lon="20.07435">
        <ele>650.46997070312</ele>
        <time>2023-10-01T07:26:37.000Z</time>
      </trkpt>
      <trkpt lat="42.089" lon="20.07422">
        <ele>649.98999023438</ele>
        <time>2023-10-01T07:26:36.000Z</time>
      </trkpt>
      <trkpt lat="42.08889" lon="20.07407">
        <ele>649.98999023438</ele>
        <time>2023-10-01T07:26:35.000Z</time>
      </trkpt>
      <trkpt lat="42.08886" lon="20.07401">
        <ele>649.98999023438</ele>
        <time>2023-10-01T07:26:34.000Z</time>
      </trkpt>
      <trkpt lat="42.08866" lon="20.07358">
        <ele>648.54998779297</ele>
        <time>2023-10-01T07:26:32.000Z</time>
      </trkpt>
      <trkpt lat="42.08859" lon="20.07338">
        <ele>648.07000732422</ele>
        <time>2023-10-01T07:26:31.000Z</time>
      </trkpt>
      <trkpt lat="42.08848" lon="20.07301">
        <ele>647.09997558594</ele>
        <time>2023-10-01T07:26:29.000Z</time>
      </trkpt>
      <trkpt lat="42.08841" lon="20.07281">
        <ele>646.61999511719</ele>
        <time>2023-10-01T07:26:28.000Z</time>
      </trkpt>
      <trkpt lat="42.08834" lon="20.07267">
        <ele>646.14001464844</ele>
        <time>2023-10-01T07:26:27.000Z</time>
      </trkpt>
      <trkpt lat="42.08833" lon="20.07263">
        <ele>646.14001464844</ele>
        <time>2023-10-01T07:26:26.000Z</time>
      </trkpt>
      <trkpt lat="42.08811" lon="20.07228">
        <ele>645.65997314453</ele>
        <time>2023-10-01T07:26:24.000Z</time>
      </trkpt>
      <trkpt lat="42.08802" lon="20.07213">
        <ele>644.70001220703</ele>
        <time>2023-10-01T07:26:23.000Z</time>
      </trkpt>
      <trkpt lat="42.08788" lon="20.07185">
        <ele>644.21997070312</ele>
        <time>2023-10-01T07:26:21.000Z</time>
      </trkpt>
      <trkpt lat="42.08746" lon="20.07099">
        <ele>641.82000732422</ele>
        <time>2023-10-01T07:26:14.000Z</time>
      </trkpt>
      <trkpt lat="42.0874" lon="20.0709">
        <ele>641.34002685547</ele>
        <time>2023-10-01T07:26:13.000Z</time>
      </trkpt>
      <trkpt lat="42.08733" lon="20.07082">
        <ele>641.34002685547</ele>
        <time>2023-10-01T07:26:12.000Z</time>
      </trkpt>
      <trkpt lat="42.08728" lon="20.07078">
        <ele>640.85998535156</ele>
        <time>2023-10-01T07:26:11.000Z</time>
      </trkpt>
      <trkpt lat="42.08713" lon="20.07067">
        <ele>639.89001464844</ele>
        <time>2023-10-01T07:26:10.000Z</time>
      </trkpt>
      <trkpt lat="42.08701" lon="20.07057">
        <ele>638.45001220703</ele>
        <time>2023-10-01T07:26:09.000Z</time>
      </trkpt>
      <trkpt lat="42.08691" lon="20.07044">
        <ele>637.96997070312</ele>
        <time>2023-10-01T07:26:08.000Z</time>
      </trkpt>
      <trkpt lat="42.08682" lon="20.0703">
        <ele>637.96997070312</ele>
        <time>2023-10-01T07:26:07.000Z</time>
      </trkpt>
      <trkpt lat="42.08674" lon="20.07014">
        <ele>637.48999023438</ele>
        <time>2023-10-01T07:26:06.000Z</time>
      </trkpt>
      <trkpt lat="42.08669" lon="20.06996">
        <ele>637.01000976562</ele>
        <time>2023-10-01T07:26:05.000Z</time>
      </trkpt>
      <trkpt lat="42.08665" lon="20.0698">
        <ele>636.53002929688</ele>
        <time>2023-10-01T07:26:04.000Z</time>
      </trkpt>
      <trkpt lat="42.08664" lon="20.06966">
        <ele>635.57000732422</ele>
        <time>2023-10-01T07:26:03.000Z</time>
      </trkpt>
      <trkpt lat="42.08664" lon="20.06959">
        <ele>635.57000732422</ele>
        <time>2023-10-01T07:26:02.000Z</time>
      </trkpt>
      <trkpt lat="42.08664" lon="20.06931">
        <ele>634.13000488281</ele>
        <time>2023-10-01T07:26:01.000Z</time>
      </trkpt>
      <trkpt lat="42.08659" lon="20.06846">
        <ele>630.76000976562</ele>
        <time>2023-10-01T07:25:57.000Z</time>
      </trkpt>
      <trkpt lat="42.08655" lon="20.06811">
        <ele>628.84002685547</ele>
        <time>2023-10-01T07:25:55.000Z</time>
      </trkpt>
      <trkpt lat="42.08651" lon="20.06787">
        <ele>627.88000488281</ele>
        <time>2023-10-01T07:25:54.000Z</time>
      </trkpt>
      <trkpt lat="42.08646" lon="20.06762">
        <ele>626.91998291016</ele>
        <time>2023-10-01T07:25:52.000Z</time>
      </trkpt>
      <trkpt lat="42.08638" lon="20.06733">
        <ele>625.96002197266</ele>
        <time>2023-10-01T07:25:51.000Z</time>
      </trkpt>
      <trkpt lat="42.08633" lon="20.06717">
        <ele>624.98999023438</ele>
        <time>2023-10-01T07:25:50.000Z</time>
      </trkpt>
      <trkpt lat="42.08619" lon="20.06681">
        <ele>624.51000976562</ele>
        <time>2023-10-01T07:25:48.000Z</time>
      </trkpt>
      <trkpt lat="42.08615" lon="20.06667">
        <ele>624.51000976562</ele>
        <time>2023-10-01T07:25:47.000Z</time>
      </trkpt>
      <trkpt lat="42.08613" lon="20.0665">
        <ele>624.51000976562</ele>
        <time>2023-10-01T07:25:46.000Z</time>
      </trkpt>
      <trkpt lat="42.08613" lon="20.06647">
        <ele>624.51000976562</ele>
        <time>2023-10-01T07:25:45.000Z</time>
      </trkpt>
      <trkpt lat="42.08612" lon="20.06606">
        <ele>624.03002929688</ele>
        <time>2023-10-01T07:25:43.000Z</time>
      </trkpt>
      <trkpt lat="42.08611" lon="20.06579">
        <ele>624.03002929688</ele>
        <time>2023-10-01T07:25:42.000Z</time>
      </trkpt>
      <trkpt lat="42.0861" lon="20.06559">
        <ele>624.03002929688</ele>
        <time>2023-10-01T07:25:41.000Z</time>
      </trkpt>
      <trkpt lat="42.08607" lon="20.06542">
        <ele>624.03002929688</ele>
        <time>2023-10-01T07:25:40.000Z</time>
      </trkpt>
      <trkpt lat="42.08604" lon="20.06529">
        <ele>623.54998779297</ele>
        <time>2023-10-01T07:25:39.000Z</time>
      </trkpt>
      <trkpt lat="42.08598" lon="20.06511">
        <ele>623.07000732422</ele>
        <time>2023-10-01T07:25:38.000Z</time>
      </trkpt>
      <trkpt lat="42.08592" lon="20.06499">
        <ele>622.59002685547</ele>
        <time>2023-10-01T07:25:37.000Z</time>
      </trkpt>
      <trkpt lat="42.08586" lon="20.06492">
        <ele>622.10998535156</ele>
        <time>2023-10-01T07:25:36.000Z</time>
      </trkpt>
      <trkpt lat="42.08562" lon="20.06466">
        <ele>621.63000488281</ele>
        <time>2023-10-01T07:25:34.000Z</time>
      </trkpt>
      <trkpt lat="42.08555" lon="20.06453">
        <ele>621.15002441406</ele>
        <time>2023-10-01T07:25:33.000Z</time>
      </trkpt>
      <trkpt lat="42.08552" lon="20.06439">
        <ele>620.66998291016</ele>
        <time>2023-10-01T07:25:32.000Z</time>
      </trkpt>
      <trkpt lat="42.08552" lon="20.06426">
        <ele>620.19000244141</ele>
        <time>2023-10-01T07:25:31.000Z</time>
      </trkpt>
      <trkpt lat="42.08554" lon="20.06388">
        <ele>619.22998046875</ele>
        <time>2023-10-01T07:25:29.000Z</time>
      </trkpt>
      <trkpt lat="42.08553" lon="20.0637">
        <ele>618.75</ele>
        <time>2023-10-01T07:25:28.000Z</time>
      </trkpt>
      <trkpt lat="42.0855" lon="20.06353">
        <ele>618.26000976562</ele>
        <time>2023-10-01T07:25:27.000Z</time>
      </trkpt>
      <trkpt lat="42.08545" lon="20.06337">
        <ele>617.78002929688</ele>
        <time>2023-10-01T07:25:26.000Z</time>
      </trkpt>
      <trkpt lat="42.08539" lon="20.06323">
        <ele>617.78002929688</ele>
        <time>2023-10-01T07:25:25.000Z</time>
      </trkpt>
      <trkpt lat="42.08531" lon="20.06311">
        <ele>617.29998779297</ele>
        <time>2023-10-01T07:25:24.000Z</time>
      </trkpt>
      <trkpt lat="42.08522" lon="20.06301">
        <ele>616.82000732422</ele>
        <time>2023-10-01T07:25:23.000Z</time>
      </trkpt>
      <trkpt lat="42.08511" lon="20.06294">
        <ele>616.34002685547</ele>
        <time>2023-10-01T07:25:22.000Z</time>
      </trkpt>
      <trkpt lat="42.08506" lon="20.06291">
        <ele>616.34002685547</ele>
        <time>2023-10-01T07:25:21.000Z</time>
      </trkpt>
      <trkpt lat="42.08443" lon="20.0627">
        <ele>612.97998046875</ele>
        <time>2023-10-01T07:25:17.000Z</time>
      </trkpt>
      <trkpt lat="42.08431" lon="20.06265">
        <ele>612.02001953125</ele>
        <time>2023-10-01T07:25:16.000Z</time>
      </trkpt>
      <trkpt lat="42.0842" lon="20.06257">
        <ele>611.53997802734</ele>
        <time>2023-10-01T07:25:15.000Z</time>
      </trkpt>
      <trkpt lat="42.08412" lon="20.06245">
        <ele>611.05999755859</ele>
        <time>2023-10-01T07:25:14.000Z</time>
      </trkpt>
      <trkpt lat="42.08406" lon="20.0623">
        <ele>610.09002685547</ele>
        <time>2023-10-01T07:25:13.000Z</time>
      </trkpt>
      <trkpt lat="42.08401" lon="20.06215">
        <ele>609.60998535156</ele>
        <time>2023-10-01T07:25:12.000Z</time>
      </trkpt>
      <trkpt lat="42.08394" lon="20.06181">
        <ele>609.13000488281</ele>
        <time>2023-10-01T07:25:10.000Z</time>
      </trkpt>
      <trkpt lat="42.0839" lon="20.06165">
        <ele>608.65002441406</ele>
        <time>2023-10-01T07:25:09.000Z</time>
      </trkpt>
      <trkpt lat="42.08384" lon="20.0615">
        <ele>608.16998291016</ele>
        <time>2023-10-01T07:25:08.000Z</time>
      </trkpt>
      <trkpt lat="42.08375" lon="20.06137">
        <ele>607.69000244141</ele>
        <time>2023-10-01T07:25:07.000Z</time>
      </trkpt>
      <trkpt lat="42.08373" lon="20.06134">
        <ele>607.69000244141</ele>
        <time>2023-10-01T07:25:06.000Z</time>
      </trkpt>
      <trkpt lat="42.08352" lon="20.06114">
        <ele>607.21002197266</ele>
        <time>2023-10-01T07:25:05.000Z</time>
      </trkpt>
      <trkpt lat="42.08341" lon="20.061">
        <ele>606.72998046875</ele>
        <time>2023-10-01T07:25:04.000Z</time>
      </trkpt>
      <trkpt lat="42.08333" lon="20.06084">
        <ele>606.72998046875</ele>
        <time>2023-10-01T07:25:03.000Z</time>
      </trkpt>
      <trkpt lat="42.08327" lon="20.06066">
        <ele>606.72998046875</ele>
        <time>2023-10-01T07:25:02.000Z</time>
      </trkpt>
      <trkpt lat="42.0831" lon="20.05973">
        <ele>604.33001708984</ele>
        <time>2023-10-01T07:24:57.000Z</time>
      </trkpt>
      <trkpt lat="42.08305" lon="20.05956">
        <ele>604.33001708984</ele>
        <time>2023-10-01T07:24:56.000Z</time>
      </trkpt>
      <trkpt lat="42.08299" lon="20.05941">
        <ele>603.84997558594</ele>
        <time>2023-10-01T07:24:55.000Z</time>
      </trkpt>
      <trkpt lat="42.0829" lon="20.05929">
        <ele>603.84997558594</ele>
        <time>2023-10-01T07:24:54.000Z</time>
      </trkpt>
      <trkpt lat="42.0828" lon="20.05919">
        <ele>603.35998535156</ele>
        <time>2023-10-01T07:24:53.000Z</time>
      </trkpt>
      <trkpt lat="42.08267" lon="20.05908">
        <ele>603.35998535156</ele>
        <time>2023-10-01T07:24:52.000Z</time>
      </trkpt>
      <trkpt lat="42.08254" lon="20.05901">
        <ele>602.40002441406</ele>
        <time>2023-10-01T07:24:51.000Z</time>
      </trkpt>
      <trkpt lat="42.0824" lon="20.05896">
        <ele>602.40002441406</ele>
        <time>2023-10-01T07:24:50.000Z</time>
      </trkpt>
      <trkpt lat="42.08227" lon="20.05895">
        <ele>602.88000488281</ele>
        <time>2023-10-01T07:24:49.000Z</time>
      </trkpt>
      <trkpt lat="42.08215" lon="20.05898">
        <ele>602.40002441406</ele>
        <time>2023-10-01T07:24:48.000Z</time>
      </trkpt>
      <trkpt lat="42.08206" lon="20.05902">
        <ele>601.91998291016</ele>
        <time>2023-10-01T07:24:47.000Z</time>
      </trkpt>
      <trkpt lat="42.08198" lon="20.05907">
        <ele>601.44000244141</ele>
        <time>2023-10-01T07:24:46.000Z</time>
      </trkpt>
      <trkpt lat="42.08186" lon="20.05915">
        <ele>601.44000244141</ele>
        <time>2023-10-01T07:24:45.000Z</time>
      </trkpt>
      <trkpt lat="42.08101" lon="20.05982">
        <ele>598.55999755859</ele>
        <time>2023-10-01T07:24:38.000Z</time>
      </trkpt>
      <trkpt lat="42.08092" lon="20.05987">
        <ele>598.55999755859</ele>
        <time>2023-10-01T07:24:37.000Z</time>
      </trkpt>
      <trkpt lat="42.08083" lon="20.05988">
        <ele>598.08001708984</ele>
        <time>2023-10-01T07:24:36.000Z</time>
      </trkpt>
      <trkpt lat="42.08072" lon="20.05982">
        <ele>597.59997558594</ele>
        <time>2023-10-01T07:24:35.000Z</time>
      </trkpt>
      <trkpt lat="42.08063" lon="20.05973">
        <ele>597.59997558594</ele>
        <time>2023-10-01T07:24:34.000Z</time>
      </trkpt>
      <trkpt lat="42.08055" lon="20.05961">
        <ele>596.64001464844</ele>
        <time>2023-10-01T07:24:33.000Z</time>
      </trkpt>
      <trkpt lat="42.08048" lon="20.05947">
        <ele>596.64001464844</ele>
        <time>2023-10-01T07:24:32.000Z</time>
      </trkpt>
      <trkpt lat="42.08043" lon="20.05933">
        <ele>596.64001464844</ele>
        <time>2023-10-01T07:24:31.000Z</time>
      </trkpt>
      <trkpt lat="42.08041" lon="20.05924">
        <ele>596.15002441406</ele>
        <time>2023-10-01T07:24:30.000Z</time>
      </trkpt>
      <trkpt lat="42.08038" lon="20.05895">
        <ele>595.66998291016</ele>
        <time>2023-10-01T07:24:28.000Z</time>
      </trkpt>
      <trkpt lat="42.08036" lon="20.05873">
        <ele>595.19000244141</ele>
        <time>2023-10-01T07:24:26.000Z</time>
      </trkpt>
      <trkpt lat="42.08035" lon="20.05808">
        <ele>594.22998046875</ele>
        <time>2023-10-01T07:24:23.000Z</time>
      </trkpt>
      <trkpt lat="42.08034" lon="20.05793">
        <ele>593.75</ele>
        <time>2023-10-01T07:24:22.000Z</time>
      </trkpt>
      <trkpt lat="42.08032" lon="20.05776">
        <ele>593.75</ele>
        <time>2023-10-01T07:24:21.000Z</time>
      </trkpt>
      <trkpt lat="42.0803" lon="20.05761">
        <ele>593.75</ele>
        <time>2023-10-01T07:24:20.000Z</time>
      </trkpt>
      <trkpt lat="42.08027" lon="20.05748">
        <ele>593.75</ele>
        <time>2023-10-01T07:24:19.000Z</time>
      </trkpt>
      <trkpt lat="42.08021" lon="20.05738">
        <ele>593.75</ele>
        <time>2023-10-01T07:24:18.000Z</time>
      </trkpt>
      <trkpt lat="42.08013" lon="20.0573">
        <ele>593.27001953125</ele>
        <time>2023-10-01T07:24:17.000Z</time>
      </trkpt>
      <trkpt lat="42.08004" lon="20.05726">
        <ele>593.27001953125</ele>
        <time>2023-10-01T07:24:16.000Z</time>
      </trkpt>
      <trkpt lat="42.07996" lon="20.05725">
        <ele>592.78997802734</ele>
        <time>2023-10-01T07:24:15.000Z</time>
      </trkpt>
      <trkpt lat="42.07973" lon="20.05727">
        <ele>591.83001708984</ele>
        <time>2023-10-01T07:24:13.000Z</time>
      </trkpt>
      <trkpt lat="42.07963" lon="20.05725">
        <ele>591.34997558594</ele>
        <time>2023-10-01T07:24:12.000Z</time>
      </trkpt>
      <trkpt lat="42.07953" lon="20.05723">
        <ele>590.86999511719</ele>
        <time>2023-10-01T07:24:11.000Z</time>
      </trkpt>
      <trkpt lat="42.07943" lon="20.05719">
        <ele>590.39001464844</ele>
        <time>2023-10-01T07:24:10.000Z</time>
      </trkpt>
      <trkpt lat="42.07933" lon="20.05713">
        <ele>590.39001464844</ele>
        <time>2023-10-01T07:24:09.000Z</time>
      </trkpt>
      <trkpt lat="42.07924" lon="20.05704">
        <ele>589.90997314453</ele>
        <time>2023-10-01T07:24:08.000Z</time>
      </trkpt>
      <trkpt lat="42.07921" lon="20.057">
        <ele>589.90997314453</ele>
        <time>2023-10-01T07:24:07.000Z</time>
      </trkpt>
      <trkpt lat="42.07909" lon="20.05683">
        <ele>589.42999267578</ele>
        <time>2023-10-01T07:24:06.000Z</time>
      </trkpt>
      <trkpt lat="42.07901" lon="20.05675">
        <ele>588.95001220703</ele>
        <time>2023-10-01T07:24:05.000Z</time>
      </trkpt>
      <trkpt lat="42.07891" lon="20.05667">
        <ele>588.95001220703</ele>
        <time>2023-10-01T07:24:04.000Z</time>
      </trkpt>
      <trkpt lat="42.0789" lon="20.05666">
        <ele>588.95001220703</ele>
        <time>2023-10-01T07:24:03.000Z</time>
      </trkpt>
      <trkpt lat="42.07874" lon="20.05657">
        <ele>588.46002197266</ele>
        <time>2023-10-01T07:24:02.000Z</time>
      </trkpt>
      <trkpt lat="42.07868" lon="20.05654">
        <ele>588.46002197266</ele>
        <time>2023-10-01T07:24:01.000Z</time>
      </trkpt>
      <trkpt lat="42.07859" lon="20.05648">
        <ele>587.97998046875</ele>
        <time>2023-10-01T07:24:00.000Z</time>
      </trkpt>
      <trkpt lat="42.07854" lon="20.05644">
        <ele>587.97998046875</ele>
        <time>2023-10-01T07:23:59.000Z</time>
      </trkpt>
      <trkpt lat="42.07852" lon="20.05643">
        <ele>587.97998046875</ele>
        <time>2023-10-01T07:23:58.000Z</time>
      </trkpt>
      <trkpt lat="42.07845" lon="20.05645">
        <ele>587.97998046875</ele>
        <time>2023-10-01T07:23:56.000Z</time>
      </trkpt>
      <trkpt lat="42.07844" lon="20.05647">
        <ele>588.95001220703</ele>
        <time>2023-10-01T07:23:42.000Z</time>
      </trkpt>
      <trkpt lat="42.0784" lon="20.0566">
        <ele>589.42999267578</ele>
        <time>2023-10-01T07:23:36.000Z</time>
      </trkpt>
      <trkpt lat="42.07837" lon="20.05669">
        <ele>589.90997314453</ele>
        <time>2023-10-01T07:23:35.000Z</time>
      </trkpt>
      <trkpt lat="42.07834" lon="20.05674">
        <ele>590.39001464844</ele>
        <time>2023-10-01T07:23:34.000Z</time>
      </trkpt>
      <trkpt lat="42.07831" lon="20.05679">
        <ele>590.39001464844</ele>
        <time>2023-10-01T07:23:33.000Z</time>
      </trkpt>
      <trkpt lat="42.07827" lon="20.05681">
        <ele>590.86999511719</ele>
        <time>2023-10-01T07:23:32.000Z</time>
      </trkpt>
      <trkpt lat="42.07822" lon="20.0568">
        <ele>591.34997558594</ele>
        <time>2023-10-01T07:23:31.000Z</time>
      </trkpt>
      <trkpt lat="42.07818" lon="20.05679">
        <ele>591.83001708984</ele>
        <time>2023-10-01T07:23:30.000Z</time>
      </trkpt>
      <trkpt lat="42.07815" lon="20.05677">
        <ele>592.30999755859</ele>
        <time>2023-10-01T07:23:29.000Z</time>
      </trkpt>
      <trkpt lat="42.07807" lon="20.05673">
        <ele>593.27001953125</ele>
        <time>2023-10-01T07:23:28.000Z</time>
      </trkpt>
      <trkpt lat="42.07802" lon="20.0567">
        <ele>593.75</ele>
        <time>2023-10-01T07:23:27.000Z</time>
      </trkpt>
      <trkpt lat="42.07797" lon="20.05667">
        <ele>593.75</ele>
        <time>2023-10-01T07:23:26.000Z</time>
      </trkpt>
      <trkpt lat="42.0779" lon="20.05662">
        <ele>594.22998046875</ele>
        <time>2023-10-01T07:23:25.000Z</time>
      </trkpt>
      <trkpt lat="42.07784" lon="20.05658">
        <ele>594.22998046875</ele>
        <time>2023-10-01T07:23:24.000Z</time>
      </trkpt>
      <trkpt lat="42.07779" lon="20.05654">
        <ele>594.22998046875</ele>
        <time>2023-10-01T07:23:23.000Z</time>
      </trkpt>
      <trkpt lat="42.07777" lon="20.05652">
        <ele>594.22998046875</ele>
        <time>2023-10-01T07:23:22.000Z</time>
      </trkpt>
      <trkpt lat="42.0777" lon="20.05643">
        <ele>594.22998046875</ele>
        <time>2023-10-01T07:23:21.000Z</time>
      </trkpt>
      <trkpt lat="42.07768" lon="20.05638">
        <ele>594.22998046875</ele>
        <time>2023-10-01T07:23:20.000Z</time>
      </trkpt>
      <trkpt lat="42.07763" lon="20.0563">
        <ele>594.71002197266</ele>
        <time>2023-10-01T07:23:19.000Z</time>
      </trkpt>
      <trkpt lat="42.07761" lon="20.05624">
        <ele>594.71002197266</ele>
        <time>2023-10-01T07:23:18.000Z</time>
      </trkpt>
      <trkpt lat="42.07757" lon="20.05614">
        <ele>594.22998046875</ele>
        <time>2023-10-01T07:23:17.000Z</time>
      </trkpt>
      <trkpt lat="42.07747" lon="20.05593">
        <ele>593.27001953125</ele>
        <time>2023-10-01T07:23:15.000Z</time>
      </trkpt>
      <trkpt lat="42.07742" lon="20.0558">
        <ele>592.30999755859</ele>
        <time>2023-10-01T07:23:14.000Z</time>
      </trkpt>
      <trkpt lat="42.07738" lon="20.05566">
        <ele>591.83001708984</ele>
        <time>2023-10-01T07:23:13.000Z</time>
      </trkpt>
      <trkpt lat="42.07736" lon="20.05554">
        <ele>592.30999755859</ele>
        <time>2023-10-01T07:23:12.000Z</time>
      </trkpt>
      <trkpt lat="42.07733" lon="20.05536">
        <ele>592.30999755859</ele>
        <time>2023-10-01T07:23:11.000Z</time>
      </trkpt>
      <trkpt lat="42.07732" lon="20.05522">
        <ele>592.30999755859</ele>
        <time>2023-10-01T07:23:10.000Z</time>
      </trkpt>
      <trkpt lat="42.0773" lon="20.05511">
        <ele>592.30999755859</ele>
        <time>2023-10-01T07:23:09.000Z</time>
      </trkpt>
      <trkpt lat="42.07726" lon="20.055">
        <ele>591.83001708984</ele>
        <time>2023-10-01T07:23:08.000Z</time>
      </trkpt>
      <trkpt lat="42.0772" lon="20.0549">
        <ele>591.83001708984</ele>
        <time>2023-10-01T07:23:07.000Z</time>
      </trkpt>
      <trkpt lat="42.07712" lon="20.05482">
        <ele>592.30999755859</ele>
        <time>2023-10-01T07:23:06.000Z</time>
      </trkpt>
      <trkpt lat="42.07706" lon="20.05477">
        <ele>591.83001708984</ele>
        <time>2023-10-01T07:23:05.000Z</time>
      </trkpt>
      <trkpt lat="42.07693" lon="20.05468">
        <ele>591.34997558594</ele>
        <time>2023-10-01T07:23:04.000Z</time>
      </trkpt>
      <trkpt lat="42.07684" lon="20.05463">
        <ele>591.34997558594</ele>
        <time>2023-10-01T07:23:03.000Z</time>
      </trkpt>
      <trkpt lat="42.07678" lon="20.0546">
        <ele>590.86999511719</ele>
        <time>2023-10-01T07:23:02.000Z</time>
      </trkpt>
      <trkpt lat="42.0766" lon="20.05452">
        <ele>590.39001464844</ele>
        <time>2023-10-01T07:23:01.000Z</time>
      </trkpt>
      <trkpt lat="42.0765" lon="20.05448">
        <ele>590.39001464844</ele>
        <time>2023-10-01T07:23:00.000Z</time>
      </trkpt>
      <trkpt lat="42.07637" lon="20.05445">
        <ele>589.90997314453</ele>
        <time>2023-10-01T07:22:59.000Z</time>
      </trkpt>
      <trkpt lat="42.07627" lon="20.05445">
        <ele>589.42999267578</ele>
        <time>2023-10-01T07:22:58.000Z</time>
      </trkpt>
      <trkpt lat="42.0762" lon="20.05444">
        <ele>588.95001220703</ele>
        <time>2023-10-01T07:22:57.000Z</time>
      </trkpt>
      <trkpt lat="42.07607" lon="20.05445">
        <ele>588.46002197266</ele>
        <time>2023-10-01T07:22:56.000Z</time>
      </trkpt>
      <trkpt lat="42.07594" lon="20.05445">
        <ele>588.46002197266</ele>
        <time>2023-10-01T07:22:55.000Z</time>
      </trkpt>
      <trkpt lat="42.07585" lon="20.05444">
        <ele>588.46002197266</ele>
        <time>2023-10-01T07:22:54.000Z</time>
      </trkpt>
      <trkpt lat="42.07577" lon="20.0544">
        <ele>586.05999755859</ele>
        <time>2023-10-01T07:22:53.000Z</time>
      </trkpt>
      <trkpt lat="42.07573" lon="20.05437">
        <ele>585.58001708984</ele>
        <time>2023-10-01T07:22:52.000Z</time>
      </trkpt>
      <trkpt lat="42.07545" lon="20.05411">
        <ele>582.21997070312</ele>
        <time>2023-10-01T07:22:49.000Z</time>
      </trkpt>
      <trkpt lat="42.07514" lon="20.0538">
        <ele>580.28997802734</ele>
        <time>2023-10-01T07:22:47.000Z</time>
      </trkpt>
      <trkpt lat="42.07491" lon="20.05358">
        <ele>579.33001708984</ele>
        <time>2023-10-01T07:22:45.000Z</time>
      </trkpt>
      <trkpt lat="42.07485" lon="20.05352">
        <ele>578.84997558594</ele>
        <time>2023-10-01T07:22:44.000Z</time>
      </trkpt>
      <trkpt lat="42.07469" lon="20.05333">
        <ele>578.36999511719</ele>
        <time>2023-10-01T07:22:43.000Z</time>
      </trkpt>
      <trkpt lat="42.07461" lon="20.05321">
        <ele>578.84997558594</ele>
        <time>2023-10-01T07:22:42.000Z</time>
      </trkpt>
      <trkpt lat="42.07458" lon="20.05316">
        <ele>579.33001708984</ele>
        <time>2023-10-01T07:22:41.000Z</time>
      </trkpt>
      <trkpt lat="42.07454" lon="20.05306">
        <ele>579.80999755859</ele>
        <time>2023-10-01T07:22:40.000Z</time>
      </trkpt>
      <trkpt lat="42.07446" lon="20.05283">
        <ele>580.28997802734</ele>
        <time>2023-10-01T07:22:39.000Z</time>
      </trkpt>
      <trkpt lat="42.07441" lon="20.0527">
        <ele>580.28997802734</ele>
        <time>2023-10-01T07:22:38.000Z</time>
      </trkpt>
      <trkpt lat="42.07432" lon="20.0525">
        <ele>581.25</ele>
        <time>2023-10-01T07:22:37.000Z</time>
      </trkpt>
      <trkpt lat="42.07423" lon="20.05231">
        <ele>581.72998046875</ele>
        <time>2023-10-01T07:22:36.000Z</time>
      </trkpt>
      <trkpt lat="42.07417" lon="20.05215">
        <ele>582.21997070312</ele>
        <time>2023-10-01T07:22:35.000Z</time>
      </trkpt>
      <trkpt lat="42.0741" lon="20.05198">
        <ele>582.21997070312</ele>
        <time>2023-10-01T07:22:34.000Z</time>
      </trkpt>
      <trkpt lat="42.07406" lon="20.05184">
        <ele>582.70001220703</ele>
        <time>2023-10-01T07:22:33.000Z</time>
      </trkpt>
      <trkpt lat="42.07401" lon="20.05169">
        <ele>582.70001220703</ele>
        <time>2023-10-01T07:22:32.000Z</time>
      </trkpt>
      <trkpt lat="42.07396" lon="20.05148">
        <ele>582.70001220703</ele>
        <time>2023-10-01T07:22:31.000Z</time>
      </trkpt>
      <trkpt lat="42.07386" lon="20.05115">
        <ele>582.70001220703</ele>
        <time>2023-10-01T07:22:29.000Z</time>
      </trkpt>
      <trkpt lat="42.07383" lon="20.05104">
        <ele>583.17999267578</ele>
        <time>2023-10-01T07:22:28.000Z</time>
      </trkpt>
      <trkpt lat="42.0738" lon="20.05085">
        <ele>584.14001464844</ele>
        <time>2023-10-01T07:22:27.000Z</time>
      </trkpt>
      <trkpt lat="42.07378" lon="20.05072">
        <ele>584.14001464844</ele>
        <time>2023-10-01T07:22:26.000Z</time>
      </trkpt>
      <trkpt lat="42.07376" lon="20.05064">
        <ele>584.61999511719</ele>
        <time>2023-10-01T07:22:25.000Z</time>
      </trkpt>
      <trkpt lat="42.07373" lon="20.05055">
        <ele>584.61999511719</ele>
        <time>2023-10-01T07:22:24.000Z</time>
      </trkpt>
      <trkpt lat="42.07369" lon="20.0505">
        <ele>584.61999511719</ele>
        <time>2023-10-01T07:22:23.000Z</time>
      </trkpt>
      <trkpt lat="42.07364" lon="20.05047">
        <ele>584.14001464844</ele>
        <time>2023-10-01T07:22:22.000Z</time>
      </trkpt>
      <trkpt lat="42.07357" lon="20.05047">
        <ele>584.61999511719</ele>
        <time>2023-10-01T07:22:21.000Z</time>
      </trkpt>
      <trkpt lat="42.07351" lon="20.0505">
        <ele>585.09997558594</ele>
        <time>2023-10-01T07:22:20.000Z</time>
      </trkpt>
      <trkpt lat="42.07348" lon="20.05052">
        <ele>585.09997558594</ele>
        <time>2023-10-01T07:22:19.000Z</time>
      </trkpt>
      <trkpt lat="42.07337" lon="20.05061">
        <ele>585.58001708984</ele>
        <time>2023-10-01T07:22:18.000Z</time>
      </trkpt>
      <trkpt lat="42.07328" lon="20.05068">
        <ele>586.53997802734</ele>
        <time>2023-10-01T07:22:17.000Z</time>
      </trkpt>
      <trkpt lat="42.07319" lon="20.05073">
        <ele>587.02001953125</ele>
        <time>2023-10-01T07:22:16.000Z</time>
      </trkpt>
      <trkpt lat="42.0731" lon="20.05075">
        <ele>587.5</ele>
        <time>2023-10-01T07:22:15.000Z</time>
      </trkpt>
      <trkpt lat="42.07299" lon="20.05075">
        <ele>587.97998046875</ele>
        <time>2023-10-01T07:22:14.000Z</time>
      </trkpt>
      <trkpt lat="42.07287" lon="20.05072">
        <ele>588.46002197266</ele>
        <time>2023-10-01T07:22:12.000Z</time>
      </trkpt>
      <trkpt lat="42.07274" lon="20.05069">
        <ele>589.42999267578</ele>
        <time>2023-10-01T07:22:11.000Z</time>
      </trkpt>
      <trkpt lat="42.07266" lon="20.05069">
        <ele>589.90997314453</ele>
        <time>2023-10-01T07:22:10.000Z</time>
      </trkpt>
      <trkpt lat="42.07259" lon="20.05072">
        <ele>589.90997314453</ele>
        <time>2023-10-01T07:22:09.000Z</time>
      </trkpt>
      <trkpt lat="42.07254" lon="20.05077">
        <ele>589.90997314453</ele>
        <time>2023-10-01T07:22:08.000Z</time>
      </trkpt>
      <trkpt lat="42.07246" lon="20.05086">
        <ele>589.90997314453</ele>
        <time>2023-10-01T07:22:07.000Z</time>
      </trkpt>
      <trkpt lat="42.07239" lon="20.05093">
        <ele>590.39001464844</ele>
        <time>2023-10-01T07:22:06.000Z</time>
      </trkpt>
      <trkpt lat="42.07233" lon="20.05097">
        <ele>590.86999511719</ele>
        <time>2023-10-01T07:22:05.000Z</time>
      </trkpt>
      <trkpt lat="42.07226" lon="20.05098">
        <ele>590.86999511719</ele>
        <time>2023-10-01T07:22:04.000Z</time>
      </trkpt>
      <trkpt lat="42.07222" lon="20.05098">
        <ele>591.34997558594</ele>
        <time>2023-10-01T07:22:03.000Z</time>
      </trkpt>
      <trkpt lat="42.07212" lon="20.05096">
        <ele>591.83001708984</ele>
        <time>2023-10-01T07:22:02.000Z</time>
      </trkpt>
      <trkpt lat="42.07204" lon="20.05096">
        <ele>592.30999755859</ele>
        <time>2023-10-01T07:22:01.000Z</time>
      </trkpt>
      <trkpt lat="42.07197" lon="20.05099">
        <ele>592.30999755859</ele>
        <time>2023-10-01T07:22:00.000Z</time>
      </trkpt>
      <trkpt lat="42.07179" lon="20.05109">
        <ele>592.78997802734</ele>
        <time>2023-10-01T07:21:58.000Z</time>
      </trkpt>
      <trkpt lat="42.07171" lon="20.05112">
        <ele>593.27001953125</ele>
        <time>2023-10-01T07:21:57.000Z</time>
      </trkpt>
      <trkpt lat="42.07165" lon="20.05118">
        <ele>594.22998046875</ele>
        <time>2023-10-01T07:21:56.000Z</time>
      </trkpt>
      <trkpt lat="42.07161" lon="20.05126">
        <ele>594.22998046875</ele>
        <time>2023-10-01T07:21:55.000Z</time>
      </trkpt>
      <trkpt lat="42.07157" lon="20.05137">
        <ele>594.71002197266</ele>
        <time>2023-10-01T07:21:54.000Z</time>
      </trkpt>
      <trkpt lat="42.07154" lon="20.05148">
        <ele>595.19000244141</ele>
        <time>2023-10-01T07:21:53.000Z</time>
      </trkpt>
      <trkpt lat="42.07151" lon="20.05162">
        <ele>595.66998291016</ele>
        <time>2023-10-01T07:21:52.000Z</time>
      </trkpt>
      <trkpt lat="42.0715" lon="20.05168">
        <ele>595.66998291016</ele>
        <time>2023-10-01T07:21:51.000Z</time>
      </trkpt>
      <trkpt lat="42.07149" lon="20.05185">
        <ele>596.64001464844</ele>
        <time>2023-10-01T07:21:50.000Z</time>
      </trkpt>
      <trkpt lat="42.07148" lon="20.05198">
        <ele>597.11999511719</ele>
        <time>2023-10-01T07:21:49.000Z</time>
      </trkpt>
      <trkpt lat="42.07147" lon="20.05208">
        <ele>597.11999511719</ele>
        <time>2023-10-01T07:21:48.000Z</time>
      </trkpt>
      <trkpt lat="42.07144" lon="20.05216">
        <ele>597.59997558594</ele>
        <time>2023-10-01T07:21:47.000Z</time>
      </trkpt>
      <trkpt lat="42.07139" lon="20.05225">
        <ele>597.59997558594</ele>
        <time>2023-10-01T07:21:46.000Z</time>
      </trkpt>
      <trkpt lat="42.07134" lon="20.05233">
        <ele>598.08001708984</ele>
        <time>2023-10-01T07:21:45.000Z</time>
      </trkpt>
      <trkpt lat="42.07128" lon="20.05239">
        <ele>598.55999755859</ele>
        <time>2023-10-01T07:21:44.000Z</time>
      </trkpt>
      <trkpt lat="42.07122" lon="20.05246">
        <ele>599.03997802734</ele>
        <time>2023-10-01T07:21:43.000Z</time>
      </trkpt>
      <trkpt lat="42.07109" lon="20.05267">
        <ele>599.03997802734</ele>
        <time>2023-10-01T07:21:41.000Z</time>
      </trkpt>
      <trkpt lat="42.07102" lon="20.05277">
        <ele>599.52001953125</ele>
        <time>2023-10-01T07:21:40.000Z</time>
      </trkpt>
      <trkpt lat="42.07099" lon="20.05281">
        <ele>600</ele>
        <time>2023-10-01T07:21:39.000Z</time>
      </trkpt>
      <trkpt lat="42.07093" lon="20.05288">
        <ele>600</ele>
        <time>2023-10-01T07:21:38.000Z</time>
      </trkpt>
      <trkpt lat="42.07086" lon="20.05294">
        <ele>600.47998046875</ele>
        <time>2023-10-01T07:21:37.000Z</time>
      </trkpt>
      <trkpt lat="42.07076" lon="20.05304">
        <ele>600.96002197266</ele>
        <time>2023-10-01T07:21:35.000Z</time>
      </trkpt>
      <trkpt lat="42.07071" lon="20.0531">
        <ele>600.96002197266</ele>
        <time>2023-10-01T07:21:34.000Z</time>
      </trkpt>
      <trkpt lat="42.07067" lon="20.05316">
        <ele>600.96002197266</ele>
        <time>2023-10-01T07:21:33.000Z</time>
      </trkpt>
      <trkpt lat="42.07062" lon="20.05324">
        <ele>600.96002197266</ele>
        <time>2023-10-01T07:21:32.000Z</time>
      </trkpt>
      <trkpt lat="42.07057" lon="20.05332">
        <ele>600.47998046875</ele>
        <time>2023-10-01T07:21:31.000Z</time>
      </trkpt>
      <trkpt lat="42.07053" lon="20.05335">
        <ele>600.96002197266</ele>
        <time>2023-10-01T07:21:30.000Z</time>
      </trkpt>
      <trkpt lat="42.0704" lon="20.05345">
        <ele>600.96002197266</ele>
        <time>2023-10-01T07:21:28.000Z</time>
      </trkpt>
      <trkpt lat="42.07034" lon="20.0535">
        <ele>601.44000244141</ele>
        <time>2023-10-01T07:21:27.000Z</time>
      </trkpt>
      <trkpt lat="42.07025" lon="20.05359">
        <ele>601.44000244141</ele>
        <time>2023-10-01T07:21:26.000Z</time>
      </trkpt>
      <trkpt lat="42.07023" lon="20.05361">
        <ele>601.91998291016</ele>
        <time>2023-10-01T07:21:25.000Z</time>
      </trkpt>
      <trkpt lat="42.07016" lon="20.05372">
        <ele>602.40002441406</ele>
        <time>2023-10-01T07:21:24.000Z</time>
      </trkpt>
      <trkpt lat="42.07011" lon="20.0538">
        <ele>602.40002441406</ele>
        <time>2023-10-01T07:21:23.000Z</time>
      </trkpt>
      <trkpt lat="42.07005" lon="20.05385">
        <ele>602.88000488281</ele>
        <time>2023-10-01T07:21:22.000Z</time>
      </trkpt>
      <trkpt lat="42.07" lon="20.05388">
        <ele>602.40002441406</ele>
        <time>2023-10-01T07:21:21.000Z</time>
      </trkpt>
      <trkpt lat="42.06994" lon="20.05388">
        <ele>602.40002441406</ele>
        <time>2023-10-01T07:21:20.000Z</time>
      </trkpt>
      <trkpt lat="42.06987" lon="20.05385">
        <ele>601.91998291016</ele>
        <time>2023-10-01T07:21:19.000Z</time>
      </trkpt>
      <trkpt lat="42.06981" lon="20.05379">
        <ele>601.91998291016</ele>
        <time>2023-10-01T07:21:18.000Z</time>
      </trkpt>
      <trkpt lat="42.06976" lon="20.05372">
        <ele>601.91998291016</ele>
        <time>2023-10-01T07:21:17.000Z</time>
      </trkpt>
      <trkpt lat="42.06973" lon="20.05364">
        <ele>601.44000244141</ele>
        <time>2023-10-01T07:21:16.000Z</time>
      </trkpt>
      <trkpt lat="42.06974" lon="20.05355">
        <ele>600.96002197266</ele>
        <time>2023-10-01T07:21:15.000Z</time>
      </trkpt>
      <trkpt lat="42.06977" lon="20.05348">
        <ele>601.44000244141</ele>
        <time>2023-10-01T07:21:14.000Z</time>
      </trkpt>
      <trkpt lat="42.06986" lon="20.05331">
        <ele>601.91998291016</ele>
        <time>2023-10-01T07:21:12.000Z</time>
      </trkpt>
      <trkpt lat="42.07003" lon="20.05305">
        <ele>603.35998535156</ele>
        <time>2023-10-01T07:21:10.000Z</time>
      </trkpt>
      <trkpt lat="42.07011" lon="20.05294">
        <ele>602.88000488281</ele>
        <time>2023-10-01T07:21:09.000Z</time>
      </trkpt>
      <trkpt lat="42.07018" lon="20.05287">
        <ele>602.88000488281</ele>
        <time>2023-10-01T07:21:08.000Z</time>
      </trkpt>
      <trkpt lat="42.07023" lon="20.05282">
        <ele>603.35998535156</ele>
        <time>2023-10-01T07:21:07.000Z</time>
      </trkpt>
      <trkpt lat="42.07051" lon="20.05259">
        <ele>605.77001953125</ele>
        <time>2023-10-01T07:21:05.000Z</time>
      </trkpt>
      <trkpt lat="42.07062" lon="20.05249">
        <ele>606.72998046875</ele>
        <time>2023-10-01T07:21:04.000Z</time>
      </trkpt>
      <trkpt lat="42.0707" lon="20.05239">
        <ele>607.69000244141</ele>
        <time>2023-10-01T07:21:03.000Z</time>
      </trkpt>
      <trkpt lat="42.07076" lon="20.05228">
        <ele>608.65002441406</ele>
        <time>2023-10-01T07:21:02.000Z</time>
      </trkpt>
      <trkpt lat="42.07081" lon="20.05216">
        <ele>610.09002685547</ele>
        <time>2023-10-01T07:21:01.000Z</time>
      </trkpt>
      <trkpt lat="42.07084" lon="20.05207">
        <ele>611.05999755859</ele>
        <time>2023-10-01T07:21:00.000Z</time>
      </trkpt>
      <trkpt lat="42.07085" lon="20.05197">
        <ele>612.02001953125</ele>
        <time>2023-10-01T07:20:59.000Z</time>
      </trkpt>
      <trkpt lat="42.07085" lon="20.0519">
        <ele>612.97998046875</ele>
        <time>2023-10-01T07:20:58.000Z</time>
      </trkpt>
      <trkpt lat="42.07082" lon="20.05182">
        <ele>612.97998046875</ele>
        <time>2023-10-01T07:20:57.000Z</time>
      </trkpt>
      <trkpt lat="42.07078" lon="20.05179">
        <ele>612.97998046875</ele>
        <time>2023-10-01T07:20:56.000Z</time>
      </trkpt>
      <trkpt lat="42.07072" lon="20.05176">
        <ele>613.94000244141</ele>
        <time>2023-10-01T07:20:55.000Z</time>
      </trkpt>
      <trkpt lat="42.07065" lon="20.05178">
        <ele>613.94000244141</ele>
        <time>2023-10-01T07:20:54.000Z</time>
      </trkpt>
      <trkpt lat="42.07055" lon="20.0518">
        <ele>614.41998291016</ele>
        <time>2023-10-01T07:20:53.000Z</time>
      </trkpt>
      <trkpt lat="42.07037" lon="20.05184">
        <ele>614.90002441406</ele>
        <time>2023-10-01T07:20:51.000Z</time>
      </trkpt>
      <trkpt lat="42.07029" lon="20.05186">
        <ele>615.38000488281</ele>
        <time>2023-10-01T07:20:50.000Z</time>
      </trkpt>
      <trkpt lat="42.07012" lon="20.05188">
        <ele>615.85998535156</ele>
        <time>2023-10-01T07:20:49.000Z</time>
      </trkpt>
      <trkpt lat="42.07008" lon="20.05189">
        <ele>616.34002685547</ele>
        <time>2023-10-01T07:20:48.000Z</time>
      </trkpt>
      <trkpt lat="42.06975" lon="20.05197">
        <ele>617.78002929688</ele>
        <time>2023-10-01T07:20:45.000Z</time>
      </trkpt>
      <trkpt lat="42.06957" lon="20.05203">
        <ele>619.71002197266</ele>
        <time>2023-10-01T07:20:44.000Z</time>
      </trkpt>
      <trkpt lat="42.06946" lon="20.05205">
        <ele>619.22998046875</ele>
        <time>2023-10-01T07:20:43.000Z</time>
      </trkpt>
      <trkpt lat="42.06936" lon="20.05205">
        <ele>618.75</ele>
        <time>2023-10-01T07:20:42.000Z</time>
      </trkpt>
      <trkpt lat="42.06928" lon="20.05204">
        <ele>619.22998046875</ele>
        <time>2023-10-01T07:20:41.000Z</time>
      </trkpt>
      <trkpt lat="42.06918" lon="20.05201">
        <ele>619.71002197266</ele>
        <time>2023-10-01T07:20:40.000Z</time>
      </trkpt>
      <trkpt lat="42.06912" lon="20.05198">
        <ele>620.19000244141</ele>
        <time>2023-10-01T07:20:39.000Z</time>
      </trkpt>
      <trkpt lat="42.06901" lon="20.05192">
        <ele>621.63000488281</ele>
        <time>2023-10-01T07:20:38.000Z</time>
      </trkpt>
      <trkpt lat="42.06898" lon="20.05189">
        <ele>622.10998535156</ele>
        <time>2023-10-01T07:20:37.000Z</time>
      </trkpt>
      <trkpt lat="42.06889" lon="20.0518">
        <ele>623.54998779297</ele>
        <time>2023-10-01T07:20:36.000Z</time>
      </trkpt>
      <trkpt lat="42.06868" lon="20.05158">
        <ele>625.46997070312</ele>
        <time>2023-10-01T07:20:33.000Z</time>
      </trkpt>
      <trkpt lat="42.06854" lon="20.05143">
        <ele>625.96002197266</ele>
        <time>2023-10-01T07:20:32.000Z</time>
      </trkpt>
      <trkpt lat="42.06846" lon="20.05135">
        <ele>625.96002197266</ele>
        <time>2023-10-01T07:20:31.000Z</time>
      </trkpt>
      <trkpt lat="42.06838" lon="20.05126">
        <ele>626.44000244141</ele>
        <time>2023-10-01T07:20:30.000Z</time>
      </trkpt>
      <trkpt lat="42.0683" lon="20.0512">
        <ele>626.91998291016</ele>
        <time>2023-10-01T07:20:29.000Z</time>
      </trkpt>
      <trkpt lat="42.06822" lon="20.05118">
        <ele>627.40002441406</ele>
        <time>2023-10-01T07:20:28.000Z</time>
      </trkpt>
      <trkpt lat="42.06813" lon="20.05118">
        <ele>627.88000488281</ele>
        <time>2023-10-01T07:20:27.000Z</time>
      </trkpt>
      <trkpt lat="42.06804" lon="20.05123">
        <ele>627.88000488281</ele>
        <time>2023-10-01T07:20:26.000Z</time>
      </trkpt>
      <trkpt lat="42.06796" lon="20.05124">
        <ele>628.35998535156</ele>
        <time>2023-10-01T07:20:25.000Z</time>
      </trkpt>
      <trkpt lat="42.06788" lon="20.05121">
        <ele>628.84002685547</ele>
        <time>2023-10-01T07:20:24.000Z</time>
      </trkpt>
      <trkpt lat="42.06782" lon="20.05117">
        <ele>628.84002685547</ele>
        <time>2023-10-01T07:20:23.000Z</time>
      </trkpt>
      <trkpt lat="42.06777" lon="20.05111">
        <ele>629.32000732422</ele>
        <time>2023-10-01T07:20:22.000Z</time>
      </trkpt>
      <trkpt lat="42.06774" lon="20.05103">
        <ele>629.32000732422</ele>
        <time>2023-10-01T07:20:21.000Z</time>
      </trkpt>
      <trkpt lat="42.06771" lon="20.05095">
        <ele>629.79998779297</ele>
        <time>2023-10-01T07:20:20.000Z</time>
      </trkpt>
      <trkpt lat="42.0677" lon="20.05089">
        <ele>630.28002929688</ele>
        <time>2023-10-01T07:20:19.000Z</time>
      </trkpt>
      <trkpt lat="42.06768" lon="20.05075">
        <ele>630.76000976562</ele>
        <time>2023-10-01T07:20:18.000Z</time>
      </trkpt>
      <trkpt lat="42.06766" lon="20.05065">
        <ele>631.23999023438</ele>
        <time>2023-10-01T07:20:17.000Z</time>
      </trkpt>
      <trkpt lat="42.06763" lon="20.05058">
        <ele>631.23999023438</ele>
        <time>2023-10-01T07:20:16.000Z</time>
      </trkpt>
      <trkpt lat="42.06758" lon="20.05046">
        <ele>632.20001220703</ele>
        <time>2023-10-01T07:20:15.000Z</time>
      </trkpt>
      <trkpt lat="42.06755" lon="20.05038">
        <ele>632.67999267578</ele>
        <time>2023-10-01T07:20:14.000Z</time>
      </trkpt>
      <trkpt lat="42.06752" lon="20.05029">
        <ele>633.16998291016</ele>
        <time>2023-10-01T07:20:13.000Z</time>
      </trkpt>
      <trkpt lat="42.06748" lon="20.05022">
        <ele>633.65002441406</ele>
        <time>2023-10-01T07:20:12.000Z</time>
      </trkpt>
      <trkpt lat="42.06744" lon="20.05018">
        <ele>634.60998535156</ele>
        <time>2023-10-01T07:20:11.000Z</time>
      </trkpt>
      <trkpt lat="42.0674" lon="20.05017">
        <ele>634.60998535156</ele>
        <time>2023-10-01T07:20:10.000Z</time>
      </trkpt>
      <trkpt lat="42.06735" lon="20.05017">
        <ele>634.60998535156</ele>
        <time>2023-10-01T07:20:09.000Z</time>
      </trkpt>
      <trkpt lat="42.06732" lon="20.05017">
        <ele>634.60998535156</ele>
        <time>2023-10-01T07:20:08.000Z</time>
      </trkpt>
      <trkpt lat="42.06724" lon="20.05019">
        <ele>635.09002685547</ele>
        <time>2023-10-01T07:20:07.000Z</time>
      </trkpt>
      <trkpt lat="42.06718" lon="20.0502">
        <ele>635.09002685547</ele>
        <time>2023-10-01T07:20:06.000Z</time>
      </trkpt>
      <trkpt lat="42.06714" lon="20.05019">
        <ele>635.09002685547</ele>
        <time>2023-10-01T07:20:05.000Z</time>
      </trkpt>
      <trkpt lat="42.0671" lon="20.05016">
        <ele>635.57000732422</ele>
        <time>2023-10-01T07:20:04.000Z</time>
      </trkpt>
      <trkpt lat="42.06709" lon="20.05015">
        <ele>635.57000732422</ele>
        <time>2023-10-01T07:20:03.000Z</time>
      </trkpt>
      <trkpt lat="42.06702" lon="20.05007">
        <ele>636.04998779297</ele>
        <time>2023-10-01T07:20:01.000Z</time>
      </trkpt>
      <trkpt lat="42.06687" lon="20.04983">
        <ele>638.45001220703</ele>
        <time>2023-10-01T07:19:52.000Z</time>
      </trkpt>
      <trkpt lat="42.06675" lon="20.0497">
        <ele>640.85998535156</ele>
        <time>2023-10-01T07:19:45.000Z</time>
      </trkpt>
      <trkpt lat="42.0667" lon="20.04968">
        <ele>641.34002685547</ele>
        <time>2023-10-01T07:19:44.000Z</time>
      </trkpt>
      <trkpt lat="42.06665" lon="20.04968">
        <ele>641.34002685547</ele>
        <time>2023-10-01T07:19:43.000Z</time>
      </trkpt>
      <trkpt lat="42.06659" lon="20.04967">
        <ele>641.82000732422</ele>
        <time>2023-10-01T07:19:42.000Z</time>
      </trkpt>
      <trkpt lat="42.06651" lon="20.04964">
        <ele>642.78002929688</ele>
        <time>2023-10-01T07:19:41.000Z</time>
      </trkpt>
      <trkpt lat="42.06647" lon="20.04962">
        <ele>643.26000976562</ele>
        <time>2023-10-01T07:19:40.000Z</time>
      </trkpt>
      <trkpt lat="42.06642" lon="20.04959">
        <ele>643.73999023438</ele>
        <time>2023-10-01T07:19:39.000Z</time>
      </trkpt>
      <trkpt lat="42.06638" lon="20.04955">
        <ele>644.70001220703</ele>
        <time>2023-10-01T07:19:38.000Z</time>
      </trkpt>
      <trkpt lat="42.06627" lon="20.04944">
        <ele>645.65997314453</ele>
        <time>2023-10-01T07:19:37.000Z</time>
      </trkpt>
      <trkpt lat="42.06622" lon="20.0494">
        <ele>646.61999511719</ele>
        <time>2023-10-01T07:19:36.000Z</time>
      </trkpt>
      <trkpt lat="42.06614" lon="20.04935">
        <ele>648.07000732422</ele>
        <time>2023-10-01T07:19:35.000Z</time>
      </trkpt>
      <trkpt lat="42.06606" lon="20.04932">
        <ele>649.03002929688</ele>
        <time>2023-10-01T07:19:34.000Z</time>
      </trkpt>
      <trkpt lat="42.06599" lon="20.0493">
        <ele>649.51000976562</ele>
        <time>2023-10-01T07:19:33.000Z</time>
      </trkpt>
      <trkpt lat="42.06591" lon="20.04931">
        <ele>649.98999023438</ele>
        <time>2023-10-01T07:19:32.000Z</time>
      </trkpt>
      <trkpt lat="42.06584" lon="20.04933">
        <ele>649.98999023438</ele>
        <time>2023-10-01T07:19:31.000Z</time>
      </trkpt>
      <trkpt lat="42.06579" lon="20.04938">
        <ele>648.54998779297</ele>
        <time>2023-10-01T07:19:30.000Z</time>
      </trkpt>
      <trkpt lat="42.06573" lon="20.04945">
        <ele>649.51000976562</ele>
        <time>2023-10-01T07:19:29.000Z</time>
      </trkpt>
      <trkpt lat="42.06571" lon="20.04948">
        <ele>649.51000976562</ele>
        <time>2023-10-01T07:19:28.000Z</time>
      </trkpt>
      <trkpt lat="42.06563" lon="20.04965">
        <ele>650.46997070312</ele>
        <time>2023-10-01T07:19:27.000Z</time>
      </trkpt>
      <trkpt lat="42.06556" lon="20.04977">
        <ele>651.42999267578</ele>
        <time>2023-10-01T07:19:26.000Z</time>
      </trkpt>
      <trkpt lat="42.06548" lon="20.04987">
        <ele>651.90997314453</ele>
        <time>2023-10-01T07:19:25.000Z</time>
      </trkpt>
      <trkpt lat="42.06539" lon="20.04997">
        <ele>652.86999511719</ele>
        <time>2023-10-01T07:19:24.000Z</time>
      </trkpt>
      <trkpt lat="42.06526" lon="20.05008">
        <ele>654.30999755859</ele>
        <time>2023-10-01T07:19:23.000Z</time>
      </trkpt>
      <trkpt lat="42.06516" lon="20.05019">
        <ele>655.28002929688</ele>
        <time>2023-10-01T07:19:22.000Z</time>
      </trkpt>
      <trkpt lat="42.06504" lon="20.0503">
        <ele>655.76000976562</ele>
        <time>2023-10-01T07:19:21.000Z</time>
      </trkpt>
      <trkpt lat="42.06495" lon="20.05038">
        <ele>656.23999023438</ele>
        <time>2023-10-01T07:19:20.000Z</time>
      </trkpt>
      <trkpt lat="42.06482" lon="20.05046">
        <ele>657.20001220703</ele>
        <time>2023-10-01T07:19:19.000Z</time>
      </trkpt>
      <trkpt lat="42.06465" lon="20.05057">
        <ele>658.15997314453</ele>
        <time>2023-10-01T07:19:18.000Z</time>
      </trkpt>
      <trkpt lat="42.06458" lon="20.05062">
        <ele>659.11999511719</ele>
        <time>2023-10-01T07:19:17.000Z</time>
      </trkpt>
      <trkpt lat="42.06436" lon="20.05078">
        <ele>661.52001953125</ele>
        <time>2023-10-01T07:19:16.000Z</time>
      </trkpt>
      <trkpt lat="42.06428" lon="20.05084">
        <ele>662.48999023438</ele>
        <time>2023-10-01T07:19:15.000Z</time>
      </trkpt>
      <trkpt lat="42.06412" lon="20.05094">
        <ele>663.92999267578</ele>
        <time>2023-10-01T07:19:14.000Z</time>
      </trkpt>
      <trkpt lat="42.06397" lon="20.05103">
        <ele>665.36999511719</ele>
        <time>2023-10-01T07:19:13.000Z</time>
      </trkpt>
      <trkpt lat="42.06381" lon="20.05115">
        <ele>667.28997802734</ele>
        <time>2023-10-01T07:19:12.000Z</time>
      </trkpt>
      <trkpt lat="42.06371" lon="20.05122">
        <ele>668.72998046875</ele>
        <time>2023-10-01T07:19:11.000Z</time>
      </trkpt>
      <trkpt lat="42.06359" lon="20.0513">
        <ele>669.21997070312</ele>
        <time>2023-10-01T07:19:10.000Z</time>
      </trkpt>
      <trkpt lat="42.06353" lon="20.05134">
        <ele>669.70001220703</ele>
        <time>2023-10-01T07:19:09.000Z</time>
      </trkpt>
      <trkpt lat="42.06331" lon="20.05143">
        <ele>671.61999511719</ele>
        <time>2023-10-01T07:19:08.000Z</time>
      </trkpt>
      <trkpt lat="42.06318" lon="20.05149">
        <ele>673.05999755859</ele>
        <time>2023-10-01T07:19:07.000Z</time>
      </trkpt>
      <trkpt lat="42.06307" lon="20.05155">
        <ele>674.02001953125</ele>
        <time>2023-10-01T07:19:06.000Z</time>
      </trkpt>
      <trkpt lat="42.06298" lon="20.05162">
        <ele>674.97998046875</ele>
        <time>2023-10-01T07:19:05.000Z</time>
      </trkpt>
      <trkpt lat="42.06291" lon="20.0517">
        <ele>675.46002197266</ele>
        <time>2023-10-01T07:19:04.000Z</time>
      </trkpt>
      <trkpt lat="42.06285" lon="20.05178">
        <ele>676.41998291016</ele>
        <time>2023-10-01T07:19:03.000Z</time>
      </trkpt>
      <trkpt lat="42.06271" lon="20.05203">
        <ele>678.34997558594</ele>
        <time>2023-10-01T07:19:01.000Z</time>
      </trkpt>
      <trkpt lat="42.06267" lon="20.0521">
        <ele>678.34997558594</ele>
        <time>2023-10-01T07:19:00.000Z</time>
      </trkpt>
      <trkpt lat="42.06261" lon="20.05218">
        <ele>679.30999755859</ele>
        <time>2023-10-01T07:18:59.000Z</time>
      </trkpt>
      <trkpt lat="42.06228" lon="20.05256">
        <ele>683.63000488281</ele>
        <time>2023-10-01T07:18:56.000Z</time>
      </trkpt>
      <trkpt lat="42.0622" lon="20.05264">
        <ele>684.59997558594</ele>
        <time>2023-10-01T07:18:55.000Z</time>
      </trkpt>
      <trkpt lat="42.06212" lon="20.05271">
        <ele>685.55999755859</ele>
        <time>2023-10-01T07:18:54.000Z</time>
      </trkpt>
      <trkpt lat="42.06205" lon="20.05275">
        <ele>686.03997802734</ele>
        <time>2023-10-01T07:18:53.000Z</time>
      </trkpt>
      <trkpt lat="42.06194" lon="20.05279">
        <ele>687.47998046875</ele>
        <time>2023-10-01T07:18:52.000Z</time>
      </trkpt>
      <trkpt lat="42.06176" lon="20.05284">
        <ele>688.44000244141</ele>
        <time>2023-10-01T07:18:50.000Z</time>
      </trkpt>
      <trkpt lat="42.06168" lon="20.05286">
        <ele>689.40002441406</ele>
        <time>2023-10-01T07:18:49.000Z</time>
      </trkpt>
      <trkpt lat="42.06157" lon="20.0529">
        <ele>690.35998535156</ele>
        <time>2023-10-01T07:18:48.000Z</time>
      </trkpt>
      <trkpt lat="42.0615" lon="20.05295">
        <ele>690.84002685547</ele>
        <time>2023-10-01T07:18:47.000Z</time>
      </trkpt>
      <trkpt lat="42.06143" lon="20.05301">
        <ele>692.28997802734</ele>
        <time>2023-10-01T07:18:46.000Z</time>
      </trkpt>
      <trkpt lat="42.06141" lon="20.05307">
        <ele>693.72998046875</ele>
        <time>2023-10-01T07:18:45.000Z</time>
      </trkpt>
      <trkpt lat="42.0614" lon="20.05315">
        <ele>694.69000244141</ele>
        <time>2023-10-01T07:18:44.000Z</time>
      </trkpt>
      <trkpt lat="42.06141" lon="20.05319">
        <ele>695.16998291016</ele>
        <time>2023-10-01T07:18:43.000Z</time>
      </trkpt>
      <trkpt lat="42.06145" lon="20.05323">
        <ele>695.65002441406</ele>
        <time>2023-10-01T07:18:42.000Z</time>
      </trkpt>
      <trkpt lat="42.06149" lon="20.05322">
        <ele>696.60998535156</ele>
        <time>2023-10-01T07:18:41.000Z</time>
      </trkpt>
      <trkpt lat="42.06153" lon="20.05319">
        <ele>697.09002685547</ele>
        <time>2023-10-01T07:18:40.000Z</time>
      </trkpt>
      <trkpt lat="42.0616" lon="20.05314">
        <ele>697.57000732422</ele>
        <time>2023-10-01T07:18:39.000Z</time>
      </trkpt>
      <trkpt lat="42.06168" lon="20.05307">
        <ele>698.53002929688</ele>
        <time>2023-10-01T07:18:38.000Z</time>
      </trkpt>
      <trkpt lat="42.06178" lon="20.05303">
        <ele>699.02001953125</ele>
        <time>2023-10-01T07:18:37.000Z</time>
      </trkpt>
      <trkpt lat="42.06186" lon="20.05302">
        <ele>699.02001953125</ele>
        <time>2023-10-01T07:18:36.000Z</time>
      </trkpt>
      <trkpt lat="42.06201" lon="20.053">
        <ele>699.5</ele>
        <time>2023-10-01T07:18:35.000Z</time>
      </trkpt>
      <trkpt lat="42.06212" lon="20.05299">
        <ele>699.97998046875</ele>
        <time>2023-10-01T07:18:34.000Z</time>
      </trkpt>
      <trkpt lat="42.06222" lon="20.05297">
        <ele>700.46002197266</ele>
        <time>2023-10-01T07:18:33.000Z</time>
      </trkpt>
      <trkpt lat="42.06231" lon="20.05293">
        <ele>701.41998291016</ele>
        <time>2023-10-01T07:18:32.000Z</time>
      </trkpt>
      <trkpt lat="42.06233" lon="20.05292">
        <ele>701.41998291016</ele>
        <time>2023-10-01T07:18:31.000Z</time>
      </trkpt>
      <trkpt lat="42.06267" lon="20.05262">
        <ele>703.82000732422</ele>
        <time>2023-10-01T07:18:28.000Z</time>
      </trkpt>
      <trkpt lat="42.06274" lon="20.05256">
        <ele>703.82000732422</ele>
        <time>2023-10-01T07:18:27.000Z</time>
      </trkpt>
      <trkpt lat="42.06288" lon="20.05244">
        <ele>704.78002929688</ele>
        <time>2023-10-01T07:18:26.000Z</time>
      </trkpt>
      <trkpt lat="42.06294" lon="20.05239">
        <ele>705.26000976562</ele>
        <time>2023-10-01T07:18:25.000Z</time>
      </trkpt>
      <trkpt lat="42.06301" lon="20.05236">
        <ele>705.26000976562</ele>
        <time>2023-10-01T07:18:24.000Z</time>
      </trkpt>
      <trkpt lat="42.06307" lon="20.05237">
        <ele>705.26000976562</ele>
        <time>2023-10-01T07:18:23.000Z</time>
      </trkpt>
      <trkpt lat="42.06314" lon="20.05241">
        <ele>705.75</ele>
        <time>2023-10-01T07:18:22.000Z</time>
      </trkpt>
      <trkpt lat="42.06322" lon="20.05248">
        <ele>706.22998046875</ele>
        <time>2023-10-01T07:18:21.000Z</time>
      </trkpt>
      <trkpt lat="42.06328" lon="20.05253">
        <ele>706.22998046875</ele>
        <time>2023-10-01T07:18:20.000Z</time>
      </trkpt>
      <trkpt lat="42.06336" lon="20.05257">
        <ele>706.22998046875</ele>
        <time>2023-10-01T07:18:19.000Z</time>
      </trkpt>
      <trkpt lat="42.06342" lon="20.05255">
        <ele>706.71002197266</ele>
        <time>2023-10-01T07:18:18.000Z</time>
      </trkpt>
      <trkpt lat="42.06347" lon="20.05251">
        <ele>707.19000244141</ele>
        <time>2023-10-01T07:18:17.000Z</time>
      </trkpt>
      <trkpt lat="42.06351" lon="20.05243">
        <ele>708.15002441406</ele>
        <time>2023-10-01T07:18:16.000Z</time>
      </trkpt>
      <trkpt lat="42.06352" lon="20.05241">
        <ele>708.15002441406</ele>
        <time>2023-10-01T07:18:15.000Z</time>
      </trkpt>
      <trkpt lat="42.06358" lon="20.05222">
        <ele>709.10998535156</ele>
        <time>2023-10-01T07:18:14.000Z</time>
      </trkpt>
      <trkpt lat="42.06362" lon="20.05214">
        <ele>710.07000732422</ele>
        <time>2023-10-01T07:18:13.000Z</time>
      </trkpt>
      <trkpt lat="42.06368" lon="20.0521">
        <ele>710.54998779297</ele>
        <time>2023-10-01T07:18:12.000Z</time>
      </trkpt>
      <trkpt lat="42.06375" lon="20.0521">
        <ele>711.03002929688</ele>
        <time>2023-10-01T07:18:11.000Z</time>
      </trkpt>
      <trkpt lat="42.06381" lon="20.0521">
        <ele>711.98999023438</ele>
        <time>2023-10-01T07:18:10.000Z</time>
      </trkpt>
      <trkpt lat="42.06394" lon="20.05213">
        <ele>713.44000244141</ele>
        <time>2023-10-01T07:18:09.000Z</time>
      </trkpt>
      <trkpt lat="42.06402" lon="20.05214">
        <ele>714.40002441406</ele>
        <time>2023-10-01T07:18:08.000Z</time>
      </trkpt>
      <trkpt lat="42.06409" lon="20.05213">
        <ele>715.35998535156</ele>
        <time>2023-10-01T07:18:07.000Z</time>
      </trkpt>
      <trkpt lat="42.06417" lon="20.05209">
        <ele>715.84002685547</ele>
        <time>2023-10-01T07:18:06.000Z</time>
      </trkpt>
      <trkpt lat="42.06425" lon="20.05199">
        <ele>715.84002685547</ele>
        <time>2023-10-01T07:18:05.000Z</time>
      </trkpt>
      <trkpt lat="42.06433" lon="20.05191">
        <ele>716.32000732422</ele>
        <time>2023-10-01T07:18:04.000Z</time>
      </trkpt>
      <trkpt lat="42.06441" lon="20.05187">
        <ele>717.28002929688</ele>
        <time>2023-10-01T07:18:03.000Z</time>
      </trkpt>
      <trkpt lat="42.06445" lon="20.05185">
        <ele>717.76000976562</ele>
        <time>2023-10-01T07:18:02.000Z</time>
      </trkpt>
      <trkpt lat="42.06458" lon="20.05182">
        <ele>718.23999023438</ele>
        <time>2023-10-01T07:18:01.000Z</time>
      </trkpt>
      <trkpt lat="42.06471" lon="20.05178">
        <ele>718.71997070312</ele>
        <time>2023-10-01T07:18:00.000Z</time>
      </trkpt>
      <trkpt lat="42.06482" lon="20.05174">
        <ele>719.67999267578</ele>
        <time>2023-10-01T07:17:59.000Z</time>
      </trkpt>
      <trkpt lat="42.06494" lon="20.0517">
        <ele>720.15997314453</ele>
        <time>2023-10-01T07:17:58.000Z</time>
      </trkpt>
      <trkpt lat="42.06504" lon="20.05169">
        <ele>720.65002441406</ele>
        <time>2023-10-01T07:17:57.000Z</time>
      </trkpt>
      <trkpt lat="42.06515" lon="20.05168">
        <ele>721.13000488281</ele>
        <time>2023-10-01T07:17:56.000Z</time>
      </trkpt>
      <trkpt lat="42.06523" lon="20.0517">
        <ele>722.09002685547</ele>
        <time>2023-10-01T07:17:55.000Z</time>
      </trkpt>
      <trkpt lat="42.06529" lon="20.05173">
        <ele>722.57000732422</ele>
        <time>2023-10-01T07:17:54.000Z</time>
      </trkpt>
      <trkpt lat="42.06533" lon="20.05176">
        <ele>723.04998779297</ele>
        <time>2023-10-01T07:17:53.000Z</time>
      </trkpt>
      <trkpt lat="42.06543" lon="20.05186">
        <ele>724.48999023438</ele>
        <time>2023-10-01T07:17:52.000Z</time>
      </trkpt>
      <trkpt lat="42.0655" lon="20.0519">
        <ele>725.45001220703</ele>
        <time>2023-10-01T07:17:51.000Z</time>
      </trkpt>
      <trkpt lat="42.06558" lon="20.05192">
        <ele>725.92999267578</ele>
        <time>2023-10-01T07:17:50.000Z</time>
      </trkpt>
      <trkpt lat="42.06567" lon="20.0519">
        <ele>725.45001220703</ele>
        <time>2023-10-01T07:17:49.000Z</time>
      </trkpt>
      <trkpt lat="42.06572" lon="20.05186">
        <ele>726.40997314453</ele>
        <time>2023-10-01T07:17:48.000Z</time>
      </trkpt>
      <trkpt lat="42.06581" lon="20.05176">
        <ele>727.85998535156</ele>
        <time>2023-10-01T07:17:47.000Z</time>
      </trkpt>
      <trkpt lat="42.06589" lon="20.05168">
        <ele>728.34002685547</ele>
        <time>2023-10-01T07:17:46.000Z</time>
      </trkpt>
      <trkpt lat="42.06597" lon="20.05164">
        <ele>728.82000732422</ele>
        <time>2023-10-01T07:17:45.000Z</time>
      </trkpt>
      <trkpt lat="42.06606" lon="20.05164">
        <ele>729.29998779297</ele>
        <time>2023-10-01T07:17:44.000Z</time>
      </trkpt>
      <trkpt lat="42.06614" lon="20.05166">
        <ele>730.26000976562</ele>
        <time>2023-10-01T07:17:43.000Z</time>
      </trkpt>
      <trkpt lat="42.06619" lon="20.05169">
        <ele>730.73999023438</ele>
        <time>2023-10-01T07:17:42.000Z</time>
      </trkpt>
      <trkpt lat="42.06627" lon="20.05173">
        <ele>731.70001220703</ele>
        <time>2023-10-01T07:17:41.000Z</time>
      </trkpt>
      <trkpt lat="42.06642" lon="20.05183">
        <ele>733.14001464844</ele>
        <time>2023-10-01T07:17:40.000Z</time>
      </trkpt>
      <trkpt lat="42.06648" lon="20.0519">
        <ele>733.61999511719</ele>
        <time>2023-10-01T07:17:39.000Z</time>
      </trkpt>
      <trkpt lat="42.06653" lon="20.05199">
        <ele>734.09997558594</ele>
        <time>2023-10-01T07:17:38.000Z</time>
      </trkpt>
      <trkpt lat="42.06656" lon="20.05211">
        <ele>735.07000732422</ele>
        <time>2023-10-01T07:17:37.000Z</time>
      </trkpt>
      <trkpt lat="42.06658" lon="20.05222">
        <ele>736.51000976562</ele>
        <time>2023-10-01T07:17:36.000Z</time>
      </trkpt>
      <trkpt lat="42.0666" lon="20.05235">
        <ele>736.98999023438</ele>
        <time>2023-10-01T07:17:35.000Z</time>
      </trkpt>
      <trkpt lat="42.06661" lon="20.05248">
        <ele>738.42999267578</ele>
        <time>2023-10-01T07:17:34.000Z</time>
      </trkpt>
      <trkpt lat="42.06662" lon="20.05276">
        <ele>740.34997558594</ele>
        <time>2023-10-01T07:17:32.000Z</time>
      </trkpt>
      <trkpt lat="42.06663" lon="20.05291">
        <ele>741.78997802734</ele>
        <time>2023-10-01T07:17:31.000Z</time>
      </trkpt>
      <trkpt lat="42.06665" lon="20.05304">
        <ele>742.76000976562</ele>
        <time>2023-10-01T07:17:30.000Z</time>
      </trkpt>
      <trkpt lat="42.06668" lon="20.05313">
        <ele>743.71997070312</ele>
        <time>2023-10-01T07:17:29.000Z</time>
      </trkpt>
      <trkpt lat="42.06673" lon="20.05322">
        <ele>745.15997314453</ele>
        <time>2023-10-01T07:17:28.000Z</time>
      </trkpt>
      <trkpt lat="42.06677" lon="20.05328">
        <ele>746.11999511719</ele>
        <time>2023-10-01T07:17:27.000Z</time>
      </trkpt>
      <trkpt lat="42.06687" lon="20.05337">
        <ele>747.55999755859</ele>
        <time>2023-10-01T07:17:26.000Z</time>
      </trkpt>
      <trkpt lat="42.06694" lon="20.05342">
        <ele>748.03997802734</ele>
        <time>2023-10-01T07:17:25.000Z</time>
      </trkpt>
      <trkpt lat="42.06703" lon="20.05347">
        <ele>749</ele>
        <time>2023-10-01T07:17:24.000Z</time>
      </trkpt>
      <trkpt lat="42.06711" lon="20.05349">
        <ele>749.96997070312</ele>
        <time>2023-10-01T07:17:23.000Z</time>
      </trkpt>
      <trkpt lat="42.06713" lon="20.05349">
        <ele>750.45001220703</ele>
        <time>2023-10-01T07:17:22.000Z</time>
      </trkpt>
      <trkpt lat="42.06741" lon="20.05347">
        <ele>752.36999511719</ele>
        <time>2023-10-01T07:17:20.000Z</time>
      </trkpt>
      <trkpt lat="42.0675" lon="20.05346">
        <ele>753.33001708984</ele>
        <time>2023-10-01T07:17:19.000Z</time>
      </trkpt>
      <trkpt lat="42.06757" lon="20.05346">
        <ele>753.80999755859</ele>
        <time>2023-10-01T07:17:18.000Z</time>
      </trkpt>
      <trkpt lat="42.06762" lon="20.05348">
        <ele>754.77001953125</ele>
        <time>2023-10-01T07:17:17.000Z</time>
      </trkpt>
      <trkpt lat="42.06767" lon="20.05353">
        <ele>755.25</ele>
        <time>2023-10-01T07:17:16.000Z</time>
      </trkpt>
      <trkpt lat="42.0677" lon="20.0536">
        <ele>755.72998046875</ele>
        <time>2023-10-01T07:17:15.000Z</time>
      </trkpt>
      <trkpt lat="42.06769" lon="20.05369">
        <ele>757.17999267578</ele>
        <time>2023-10-01T07:17:14.000Z</time>
      </trkpt>
      <trkpt lat="42.06767" lon="20.05376">
        <ele>758.14001464844</ele>
        <time>2023-10-01T07:17:13.000Z</time>
      </trkpt>
      <trkpt lat="42.06762" lon="20.0538">
        <ele>759.09997558594</ele>
        <time>2023-10-01T07:17:12.000Z</time>
      </trkpt>
      <trkpt lat="42.06757" lon="20.05381">
        <ele>759.58001708984</ele>
        <time>2023-10-01T07:17:11.000Z</time>
      </trkpt>
      <trkpt lat="42.0675" lon="20.0538">
        <ele>760.53997802734</ele>
        <time>2023-10-01T07:17:10.000Z</time>
      </trkpt>
      <trkpt lat="42.06744" lon="20.05378">
        <ele>761.5</ele>
        <time>2023-10-01T07:17:09.000Z</time>
      </trkpt>
      <trkpt lat="42.0673" lon="20.05375">
        <ele>763.41998291016</ele>
        <time>2023-10-01T07:17:08.000Z</time>
      </trkpt>
      <trkpt lat="42.06723" lon="20.05375">
        <ele>764.39001464844</ele>
        <time>2023-10-01T07:17:07.000Z</time>
      </trkpt>
      <trkpt lat="42.06708" lon="20.05375">
        <ele>766.30999755859</ele>
        <time>2023-10-01T07:17:06.000Z</time>
      </trkpt>
      <trkpt lat="42.06698" lon="20.05375">
        <ele>766.78997802734</ele>
        <time>2023-10-01T07:17:05.000Z</time>
      </trkpt>
      <trkpt lat="42.06691" lon="20.05374">
        <ele>767.27001953125</ele>
        <time>2023-10-01T07:17:04.000Z</time>
      </trkpt>
      <trkpt lat="42.06675" lon="20.05368">
        <ele>767.75</ele>
        <time>2023-10-01T07:17:03.000Z</time>
      </trkpt>
      <trkpt lat="42.06665" lon="20.05362">
        <ele>767.75</ele>
        <time>2023-10-01T07:17:02.000Z</time>
      </trkpt>
      <trkpt lat="42.06659" lon="20.05357">
        <ele>768.22998046875</ele>
        <time>2023-10-01T07:17:01.000Z</time>
      </trkpt>
      <trkpt lat="42.0665" lon="20.05345">
        <ele>768.22998046875</ele>
        <time>2023-10-01T07:17:00.000Z</time>
      </trkpt>
      <trkpt lat="42.06643" lon="20.05334">
        <ele>768.22998046875</ele>
        <time>2023-10-01T07:16:59.000Z</time>
      </trkpt>
      <trkpt lat="42.06637" lon="20.05321">
        <ele>767.75</ele>
        <time>2023-10-01T07:16:58.000Z</time>
      </trkpt>
      <trkpt lat="42.06632" lon="20.05306">
        <ele>767.75</ele>
        <time>2023-10-01T07:16:57.000Z</time>
      </trkpt>
      <trkpt lat="42.0663" lon="20.05298">
        <ele>768.22998046875</ele>
        <time>2023-10-01T07:16:56.000Z</time>
      </trkpt>
      <trkpt lat="42.06625" lon="20.0528">
        <ele>768.71002197266</ele>
        <time>2023-10-01T07:16:55.000Z</time>
      </trkpt>
      <trkpt lat="42.06622" lon="20.0527">
        <ele>768.71002197266</ele>
        <time>2023-10-01T07:16:54.000Z</time>
      </trkpt>
      <trkpt lat="42.06619" lon="20.05262">
        <ele>768.71002197266</ele>
        <time>2023-10-01T07:16:53.000Z</time>
      </trkpt>
      <trkpt lat="42.06615" lon="20.05256">
        <ele>768.71002197266</ele>
        <time>2023-10-01T07:16:52.000Z</time>
      </trkpt>
      <trkpt lat="42.06609" lon="20.05252">
        <ele>769.19000244141</ele>
        <time>2023-10-01T07:16:51.000Z</time>
      </trkpt>
      <trkpt lat="42.06603" lon="20.05249">
        <ele>769.19000244141</ele>
        <time>2023-10-01T07:16:50.000Z</time>
      </trkpt>
      <trkpt lat="42.06597" lon="20.05249">
        <ele>769.66998291016</ele>
        <time>2023-10-01T07:16:49.000Z</time>
      </trkpt>
      <trkpt lat="42.0659" lon="20.05251">
        <ele>770.15002441406</ele>
        <time>2023-10-01T07:16:48.000Z</time>
      </trkpt>
      <trkpt lat="42.06584" lon="20.05255">
        <ele>770.15002441406</ele>
        <time>2023-10-01T07:16:47.000Z</time>
      </trkpt>
      <trkpt lat="42.06581" lon="20.05258">
        <ele>770.63000488281</ele>
        <time>2023-10-01T07:16:46.000Z</time>
      </trkpt>
      <trkpt lat="42.06567" lon="20.05271">
        <ele>771.59997558594</ele>
        <time>2023-10-01T07:16:42.000Z</time>
      </trkpt>
      <trkpt lat="42.06563" lon="20.05276">
        <ele>772.08001708984</ele>
        <time>2023-10-01T07:16:41.000Z</time>
      </trkpt>
      <trkpt lat="42.06558" lon="20.05281">
        <ele>772.08001708984</ele>
        <time>2023-10-01T07:16:40.000Z</time>
      </trkpt>
      <trkpt lat="42.06552" lon="20.05283">
        <ele>772.55999755859</ele>
        <time>2023-10-01T07:16:39.000Z</time>
      </trkpt>
      <trkpt lat="42.06546" lon="20.05282">
        <ele>773.03997802734</ele>
        <time>2023-10-01T07:16:38.000Z</time>
      </trkpt>
      <trkpt lat="42.06539" lon="20.05279">
        <ele>774</ele>
        <time>2023-10-01T07:16:37.000Z</time>
      </trkpt>
      <trkpt lat="42.06536" lon="20.05276">
        <ele>774</ele>
        <time>2023-10-01T07:16:36.000Z</time>
      </trkpt>
      <trkpt lat="42.06528" lon="20.0527">
        <ele>774.47998046875</ele>
        <time>2023-10-01T07:16:35.000Z</time>
      </trkpt>
      <trkpt lat="42.06521" lon="20.05265">
        <ele>774.96002197266</ele>
        <time>2023-10-01T07:16:34.000Z</time>
      </trkpt>
      <trkpt lat="42.06516" lon="20.05262">
        <ele>774.96002197266</ele>
        <time>2023-10-01T07:16:33.000Z</time>
      </trkpt>
      <trkpt lat="42.0651" lon="20.05261">
        <ele>775.44000244141</ele>
        <time>2023-10-01T07:16:32.000Z</time>
      </trkpt>
      <trkpt lat="42.06504" lon="20.05262">
        <ele>775.44000244141</ele>
        <time>2023-10-01T07:16:31.000Z</time>
      </trkpt>
      <trkpt lat="42.06498" lon="20.05264">
        <ele>775.44000244141</ele>
        <time>2023-10-01T07:16:30.000Z</time>
      </trkpt>
      <trkpt lat="42.06493" lon="20.05267">
        <ele>774.96002197266</ele>
        <time>2023-10-01T07:16:29.000Z</time>
      </trkpt>
      <trkpt lat="42.06487" lon="20.05271">
        <ele>775.44000244141</ele>
        <time>2023-10-01T07:16:28.000Z</time>
      </trkpt>
      <trkpt lat="42.06483" lon="20.05277">
        <ele>775.44000244141</ele>
        <time>2023-10-01T07:16:27.000Z</time>
      </trkpt>
      <trkpt lat="42.06479" lon="20.05282">
        <ele>775.44000244141</ele>
        <time>2023-10-01T07:16:26.000Z</time>
      </trkpt>
      <trkpt lat="42.0647" lon="20.05297">
        <ele>775.91998291016</ele>
        <time>2023-10-01T07:16:25.000Z</time>
      </trkpt>
      <trkpt lat="42.06464" lon="20.05307">
        <ele>775.91998291016</ele>
        <time>2023-10-01T07:16:24.000Z</time>
      </trkpt>
      <trkpt lat="42.06457" lon="20.05315">
        <ele>775.91998291016</ele>
        <time>2023-10-01T07:16:23.000Z</time>
      </trkpt>
      <trkpt lat="42.06451" lon="20.05321">
        <ele>776.40002441406</ele>
        <time>2023-10-01T07:16:22.000Z</time>
      </trkpt>
      <trkpt lat="42.06445" lon="20.05327">
        <ele>776.88000488281</ele>
        <time>2023-10-01T07:16:21.000Z</time>
      </trkpt>
      <trkpt lat="42.06441" lon="20.05334">
        <ele>776.88000488281</ele>
        <time>2023-10-01T07:16:20.000Z</time>
      </trkpt>
      <trkpt lat="42.06439" lon="20.05343">
        <ele>777.35998535156</ele>
        <time>2023-10-01T07:16:19.000Z</time>
      </trkpt>
      <trkpt lat="42.06438" lon="20.05353">
        <ele>777.84002685547</ele>
        <time>2023-10-01T07:16:18.000Z</time>
      </trkpt>
      <trkpt lat="42.06436" lon="20.05363">
        <ele>777.84002685547</ele>
        <time>2023-10-01T07:16:17.000Z</time>
      </trkpt>
      <trkpt lat="42.06432" lon="20.05373">
        <ele>777.84002685547</ele>
        <time>2023-10-01T07:16:16.000Z</time>
      </trkpt>
      <trkpt lat="42.06427" lon="20.05381">
        <ele>778.32000732422</ele>
        <time>2023-10-01T07:16:15.000Z</time>
      </trkpt>
      <trkpt lat="42.0642" lon="20.05386">
        <ele>779.28997802734</ele>
        <time>2023-10-01T07:16:14.000Z</time>
      </trkpt>
      <trkpt lat="42.06412" lon="20.05389">
        <ele>779.77001953125</ele>
        <time>2023-10-01T07:16:13.000Z</time>
      </trkpt>
      <trkpt lat="42.06399" lon="20.05393">
        <ele>780.25</ele>
        <time>2023-10-01T07:16:11.000Z</time>
      </trkpt>
      <trkpt lat="42.0639" lon="20.05395">
        <ele>780.25</ele>
        <time>2023-10-01T07:16:10.000Z</time>
      </trkpt>
      <trkpt lat="42.06389" lon="20.05396">
        <ele>780.25</ele>
        <time>2023-10-01T07:16:09.000Z</time>
      </trkpt>
      <trkpt lat="42.06377" lon="20.054">
        <ele>780.72998046875</ele>
        <time>2023-10-01T07:16:08.000Z</time>
      </trkpt>
      <trkpt lat="42.06371" lon="20.05401">
        <ele>780.72998046875</ele>
        <time>2023-10-01T07:16:07.000Z</time>
      </trkpt>
      <trkpt lat="42.06365" lon="20.05399">
        <ele>781.21002197266</ele>
        <time>2023-10-01T07:16:06.000Z</time>
      </trkpt>
      <trkpt lat="42.0636" lon="20.05396">
        <ele>781.69000244141</ele>
        <time>2023-10-01T07:16:05.000Z</time>
      </trkpt>
      <trkpt lat="42.06355" lon="20.05392">
        <ele>782.16998291016</ele>
        <time>2023-10-01T07:16:04.000Z</time>
      </trkpt>
      <trkpt lat="42.0635" lon="20.05388">
        <ele>782.16998291016</ele>
        <time>2023-10-01T07:16:03.000Z</time>
      </trkpt>
      <trkpt lat="42.06344" lon="20.05386">
        <ele>782.16998291016</ele>
        <time>2023-10-01T07:16:02.000Z</time>
      </trkpt>
      <trkpt lat="42.06338" lon="20.05385">
        <ele>782.16998291016</ele>
        <time>2023-10-01T07:16:01.000Z</time>
      </trkpt>
      <trkpt lat="42.06332" lon="20.05386">
        <ele>782.16998291016</ele>
        <time>2023-10-01T07:16:00.000Z</time>
      </trkpt>
      <trkpt lat="42.06327" lon="20.0539">
        <ele>781.69000244141</ele>
        <time>2023-10-01T07:15:59.000Z</time>
      </trkpt>
      <trkpt lat="42.06322" lon="20.05396">
        <ele>781.69000244141</ele>
        <time>2023-10-01T07:15:58.000Z</time>
      </trkpt>
      <trkpt lat="42.06318" lon="20.05405">
        <ele>781.21002197266</ele>
        <time>2023-10-01T07:15:57.000Z</time>
      </trkpt>
      <trkpt lat="42.06317" lon="20.05415">
        <ele>779.77001953125</ele>
        <time>2023-10-01T07:15:56.000Z</time>
      </trkpt>
      <trkpt lat="42.06317" lon="20.05424">
        <ele>780.25</ele>
        <time>2023-10-01T07:15:55.000Z</time>
      </trkpt>
      <trkpt lat="42.0632" lon="20.05435">
        <ele>780.25</ele>
        <time>2023-10-01T07:15:54.000Z</time>
      </trkpt>
      <trkpt lat="42.06326" lon="20.05444">
        <ele>781.21002197266</ele>
        <time>2023-10-01T07:15:53.000Z</time>
      </trkpt>
      <trkpt lat="42.06333" lon="20.05451">
        <ele>781.69000244141</ele>
        <time>2023-10-01T07:15:52.000Z</time>
      </trkpt>
      <trkpt lat="42.06341" lon="20.05456">
        <ele>781.69000244141</ele>
        <time>2023-10-01T07:15:51.000Z</time>
      </trkpt>
      <trkpt lat="42.06348" lon="20.05459">
        <ele>782.16998291016</ele>
        <time>2023-10-01T07:15:50.000Z</time>
      </trkpt>
      <trkpt lat="42.06359" lon="20.05462">
        <ele>783.13000488281</ele>
        <time>2023-10-01T07:15:49.000Z</time>
      </trkpt>
      <trkpt lat="42.06365" lon="20.05467">
        <ele>783.60998535156</ele>
        <time>2023-10-01T07:15:48.000Z</time>
      </trkpt>
      <trkpt lat="42.06368" lon="20.05473">
        <ele>784.09002685547</ele>
        <time>2023-10-01T07:15:47.000Z</time>
      </trkpt>
      <trkpt lat="42.06368" lon="20.05479">
        <ele>784.57000732422</ele>
        <time>2023-10-01T07:15:46.000Z</time>
      </trkpt>
      <trkpt lat="42.06367" lon="20.05486">
        <ele>785.04998779297</ele>
        <time>2023-10-01T07:15:45.000Z</time>
      </trkpt>
      <trkpt lat="42.06362" lon="20.05494">
        <ele>786.02001953125</ele>
        <time>2023-10-01T07:15:44.000Z</time>
      </trkpt>
      <trkpt lat="42.06359" lon="20.05499">
        <ele>786.5</ele>
        <time>2023-10-01T07:15:43.000Z</time>
      </trkpt>
      <trkpt lat="42.06351" lon="20.0551">
        <ele>786.97998046875</ele>
        <time>2023-10-01T07:15:42.000Z</time>
      </trkpt>
      <trkpt lat="42.06347" lon="20.05515">
        <ele>787.46002197266</ele>
        <time>2023-10-01T07:15:41.000Z</time>
      </trkpt>
      <trkpt lat="42.06337" lon="20.05526">
        <ele>787.94000244141</ele>
        <time>2023-10-01T07:15:40.000Z</time>
      </trkpt>
      <trkpt lat="42.06323" lon="20.05542">
        <ele>789.85998535156</ele>
        <time>2023-10-01T07:15:39.000Z</time>
      </trkpt>
      <trkpt lat="42.06319" lon="20.05546">
        <ele>790.34002685547</ele>
        <time>2023-10-01T07:15:38.000Z</time>
      </trkpt>
      <trkpt lat="42.0631" lon="20.05558">
        <ele>790.82000732422</ele>
        <time>2023-10-01T07:15:37.000Z</time>
      </trkpt>
      <trkpt lat="42.06304" lon="20.05569">
        <ele>790.82000732422</ele>
        <time>2023-10-01T07:15:36.000Z</time>
      </trkpt>
      <trkpt lat="42.06301" lon="20.05579">
        <ele>790.82000732422</ele>
        <time>2023-10-01T07:15:35.000Z</time>
      </trkpt>
      <trkpt lat="42.06299" lon="20.05589">
        <ele>790.82000732422</ele>
        <time>2023-10-01T07:15:34.000Z</time>
      </trkpt>
      <trkpt lat="42.063" lon="20.05599">
        <ele>790.82000732422</ele>
        <time>2023-10-01T07:15:33.000Z</time>
      </trkpt>
      <trkpt lat="42.06302" lon="20.05608">
        <ele>790.34002685547</ele>
        <time>2023-10-01T07:15:32.000Z</time>
      </trkpt>
      <trkpt lat="42.06302" lon="20.05618">
        <ele>790.34002685547</ele>
        <time>2023-10-01T07:15:31.000Z</time>
      </trkpt>
      <trkpt lat="42.063" lon="20.05625">
        <ele>790.34002685547</ele>
        <time>2023-10-01T07:15:30.000Z</time>
      </trkpt>
      <trkpt lat="42.06296" lon="20.05632">
        <ele>789.85998535156</ele>
        <time>2023-10-01T07:15:29.000Z</time>
      </trkpt>
      <trkpt lat="42.06289" lon="20.05637">
        <ele>790.34002685547</ele>
        <time>2023-10-01T07:15:28.000Z</time>
      </trkpt>
      <trkpt lat="42.06287" lon="20.05639">
        <ele>790.34002685547</ele>
        <time>2023-10-01T07:15:27.000Z</time>
      </trkpt>
      <trkpt lat="42.06273" lon="20.05647">
        <ele>790.82000732422</ele>
        <time>2023-10-01T07:15:26.000Z</time>
      </trkpt>
      <trkpt lat="42.06262" lon="20.05654">
        <ele>791.29998779297</ele>
        <time>2023-10-01T07:15:25.000Z</time>
      </trkpt>
      <trkpt lat="42.06254" lon="20.05661">
        <ele>791.78002929688</ele>
        <time>2023-10-01T07:15:24.000Z</time>
      </trkpt>
      <trkpt lat="42.06246" lon="20.05669">
        <ele>791.78002929688</ele>
        <time>2023-10-01T07:15:23.000Z</time>
      </trkpt>
      <trkpt lat="42.06241" lon="20.05678">
        <ele>791.78002929688</ele>
        <time>2023-10-01T07:15:22.000Z</time>
      </trkpt>
      <trkpt lat="42.06238" lon="20.05689">
        <ele>791.78002929688</ele>
        <time>2023-10-01T07:15:21.000Z</time>
      </trkpt>
      <trkpt lat="42.06237" lon="20.05703">
        <ele>792.26000976562</ele>
        <time>2023-10-01T07:15:20.000Z</time>
      </trkpt>
      <trkpt lat="42.06237" lon="20.05733">
        <ele>792.73999023438</ele>
        <time>2023-10-01T07:15:18.000Z</time>
      </trkpt>
      <trkpt lat="42.06238" lon="20.05748">
        <ele>792.73999023438</ele>
        <time>2023-10-01T07:15:17.000Z</time>
      </trkpt>
      <trkpt lat="42.06236" lon="20.05762">
        <ele>793.21997070312</ele>
        <time>2023-10-01T07:15:16.000Z</time>
      </trkpt>
      <trkpt lat="42.06233" lon="20.05777">
        <ele>793.71002197266</ele>
        <time>2023-10-01T07:15:15.000Z</time>
      </trkpt>
      <trkpt lat="42.06229" lon="20.05788">
        <ele>794.19000244141</ele>
        <time>2023-10-01T07:15:14.000Z</time>
      </trkpt>
      <trkpt lat="42.06224" lon="20.05799">
        <ele>794.19000244141</ele>
        <time>2023-10-01T07:15:13.000Z</time>
      </trkpt>
      <trkpt lat="42.06216" lon="20.05816">
        <ele>794.19000244141</ele>
        <time>2023-10-01T07:15:12.000Z</time>
      </trkpt>
      <trkpt lat="42.06207" lon="20.0583">
        <ele>794.66998291016</ele>
        <time>2023-10-01T07:15:11.000Z</time>
      </trkpt>
      <trkpt lat="42.06198" lon="20.05843">
        <ele>794.66998291016</ele>
        <time>2023-10-01T07:15:10.000Z</time>
      </trkpt>
      <trkpt lat="42.0619" lon="20.05852">
        <ele>794.66998291016</ele>
        <time>2023-10-01T07:15:09.000Z</time>
      </trkpt>
      <trkpt lat="42.0618" lon="20.05863">
        <ele>795.15002441406</ele>
        <time>2023-10-01T07:15:08.000Z</time>
      </trkpt>
      <trkpt lat="42.06172" lon="20.05871">
        <ele>796.10998535156</ele>
        <time>2023-10-01T07:15:07.000Z</time>
      </trkpt>
      <trkpt lat="42.06163" lon="20.05877">
        <ele>796.10998535156</ele>
        <time>2023-10-01T07:15:06.000Z</time>
      </trkpt>
      <trkpt lat="42.06155" lon="20.05879">
        <ele>796.10998535156</ele>
        <time>2023-10-01T07:15:05.000Z</time>
      </trkpt>
      <trkpt lat="42.06148" lon="20.05879">
        <ele>796.59002685547</ele>
        <time>2023-10-01T07:15:04.000Z</time>
      </trkpt>
      <trkpt lat="42.06141" lon="20.05875">
        <ele>796.59002685547</ele>
        <time>2023-10-01T07:15:03.000Z</time>
      </trkpt>
      <trkpt lat="42.06137" lon="20.0587">
        <ele>797.07000732422</ele>
        <time>2023-10-01T07:15:02.000Z</time>
      </trkpt>
      <trkpt lat="42.06133" lon="20.05861">
        <ele>798.03002929688</ele>
        <time>2023-10-01T07:15:01.000Z</time>
      </trkpt>
      <trkpt lat="42.06132" lon="20.05849">
        <ele>798.98999023438</ele>
        <time>2023-10-01T07:15:00.000Z</time>
      </trkpt>
      <trkpt lat="42.06132" lon="20.05837">
        <ele>798.98999023438</ele>
        <time>2023-10-01T07:14:59.000Z</time>
      </trkpt>
      <trkpt lat="42.06132" lon="20.05829">
        <ele>799.46997070312</ele>
        <time>2023-10-01T07:14:58.000Z</time>
      </trkpt>
      <trkpt lat="42.06133" lon="20.05809">
        <ele>799.95001220703</ele>
        <time>2023-10-01T07:14:57.000Z</time>
      </trkpt>
      <trkpt lat="42.06132" lon="20.05796">
        <ele>800.44000244141</ele>
        <time>2023-10-01T07:14:56.000Z</time>
      </trkpt>
      <trkpt lat="42.0613" lon="20.05784">
        <ele>800.91998291016</ele>
        <time>2023-10-01T07:14:55.000Z</time>
      </trkpt>
      <trkpt lat="42.06125" lon="20.05772">
        <ele>800.91998291016</ele>
        <time>2023-10-01T07:14:54.000Z</time>
      </trkpt>
      <trkpt lat="42.0612" lon="20.05761">
        <ele>801.40002441406</ele>
        <time>2023-10-01T07:14:53.000Z</time>
      </trkpt>
      <trkpt lat="42.06118" lon="20.05757">
        <ele>801.40002441406</ele>
        <time>2023-10-01T07:14:52.000Z</time>
      </trkpt>
      <trkpt lat="42.061" lon="20.05727">
        <ele>801.40002441406</ele>
        <time>2023-10-01T07:14:50.000Z</time>
      </trkpt>
      <trkpt lat="42.06088" lon="20.05706">
        <ele>801.88000488281</ele>
        <time>2023-10-01T07:14:49.000Z</time>
      </trkpt>
      <trkpt lat="42.06082" lon="20.05692">
        <ele>802.84002685547</ele>
        <time>2023-10-01T07:14:48.000Z</time>
      </trkpt>
      <trkpt lat="42.06079" lon="20.05683">
        <ele>802.84002685547</ele>
        <time>2023-10-01T07:14:47.000Z</time>
      </trkpt>
      <trkpt lat="42.06068" lon="20.05649">
        <ele>803.79998779297</ele>
        <time>2023-10-01T07:14:44.000Z</time>
      </trkpt>
      <trkpt lat="42.06062" lon="20.05628">
        <ele>804.28002929688</ele>
        <time>2023-10-01T07:14:43.000Z</time>
      </trkpt>
      <trkpt lat="42.06059" lon="20.0562">
        <ele>804.76000976562</ele>
        <time>2023-10-01T07:14:42.000Z</time>
      </trkpt>
      <trkpt lat="42.06055" lon="20.05608">
        <ele>805.23999023438</ele>
        <time>2023-10-01T07:14:41.000Z</time>
      </trkpt>
      <trkpt lat="42.0605" lon="20.056">
        <ele>805.71997070312</ele>
        <time>2023-10-01T07:14:40.000Z</time>
      </trkpt>
      <trkpt lat="42.06045" lon="20.05594">
        <ele>806.67999267578</ele>
        <time>2023-10-01T07:14:39.000Z</time>
      </trkpt>
      <trkpt lat="42.06039" lon="20.05591">
        <ele>807.15997314453</ele>
        <time>2023-10-01T07:14:38.000Z</time>
      </trkpt>
      <trkpt lat="42.06032" lon="20.05591">
        <ele>807.64001464844</ele>
        <time>2023-10-01T07:14:37.000Z</time>
      </trkpt>
      <trkpt lat="42.06025" lon="20.05593">
        <ele>808.13000488281</ele>
        <time>2023-10-01T07:14:36.000Z</time>
      </trkpt>
      <trkpt lat="42.06019" lon="20.05597">
        <ele>808.13000488281</ele>
        <time>2023-10-01T07:14:35.000Z</time>
      </trkpt>
      <trkpt lat="42.06012" lon="20.05604">
        <ele>808.60998535156</ele>
        <time>2023-10-01T07:14:34.000Z</time>
      </trkpt>
      <trkpt lat="42.06005" lon="20.05615">
        <ele>809.09002685547</ele>
        <time>2023-10-01T07:14:33.000Z</time>
      </trkpt>
      <trkpt lat="42.05999" lon="20.05627">
        <ele>809.09002685547</ele>
        <time>2023-10-01T07:14:32.000Z</time>
      </trkpt>
      <trkpt lat="42.05995" lon="20.05637">
        <ele>810.04998779297</ele>
        <time>2023-10-01T07:14:31.000Z</time>
      </trkpt>
      <trkpt lat="42.05991" lon="20.05652">
        <ele>810.53002929688</ele>
        <time>2023-10-01T07:14:30.000Z</time>
      </trkpt>
      <trkpt lat="42.0599" lon="20.05657">
        <ele>811.01000976562</ele>
        <time>2023-10-01T07:14:29.000Z</time>
      </trkpt>
      <trkpt lat="42.05988" lon="20.05677">
        <ele>811.48999023438</ele>
        <time>2023-10-01T07:14:28.000Z</time>
      </trkpt>
      <trkpt lat="42.05986" lon="20.05691">
        <ele>811.01000976562</ele>
        <time>2023-10-01T07:14:27.000Z</time>
      </trkpt>
      <trkpt lat="42.05985" lon="20.05694">
        <ele>811.48999023438</ele>
        <time>2023-10-01T07:14:26.000Z</time>
      </trkpt>
      <trkpt lat="42.05981" lon="20.05711">
        <ele>812.45001220703</ele>
        <time>2023-10-01T07:14:25.000Z</time>
      </trkpt>
      <trkpt lat="42.05977" lon="20.05723">
        <ele>812.45001220703</ele>
        <time>2023-10-01T07:14:24.000Z</time>
      </trkpt>
      <trkpt lat="42.05972" lon="20.05735">
        <ele>812.45001220703</ele>
        <time>2023-10-01T07:14:23.000Z</time>
      </trkpt>
      <trkpt lat="42.05966" lon="20.05744">
        <ele>812.92999267578</ele>
        <time>2023-10-01T07:14:22.000Z</time>
      </trkpt>
      <trkpt lat="42.05959" lon="20.0575">
        <ele>812.92999267578</ele>
        <time>2023-10-01T07:14:21.000Z</time>
      </trkpt>
      <trkpt lat="42.05953" lon="20.05754">
        <ele>813.40997314453</ele>
        <time>2023-10-01T07:14:20.000Z</time>
      </trkpt>
      <trkpt lat="42.05945" lon="20.05758">
        <ele>813.40997314453</ele>
        <time>2023-10-01T07:14:19.000Z</time>
      </trkpt>
      <trkpt lat="42.05936" lon="20.05762">
        <ele>813.89001464844</ele>
        <time>2023-10-01T07:14:18.000Z</time>
      </trkpt>
      <trkpt lat="42.05929" lon="20.05766">
        <ele>814.36999511719</ele>
        <time>2023-10-01T07:14:17.000Z</time>
      </trkpt>
      <trkpt lat="42.05924" lon="20.05772">
        <ele>814.36999511719</ele>
        <time>2023-10-01T07:14:16.000Z</time>
      </trkpt>
      <trkpt lat="42.0592" lon="20.0578">
        <ele>814.84997558594</ele>
        <time>2023-10-01T07:14:15.000Z</time>
      </trkpt>
      <trkpt lat="42.05917" lon="20.0579">
        <ele>814.84997558594</ele>
        <time>2023-10-01T07:14:14.000Z</time>
      </trkpt>
      <trkpt lat="42.05916" lon="20.05794">
        <ele>814.84997558594</ele>
        <time>2023-10-01T07:14:13.000Z</time>
      </trkpt>
      <trkpt lat="42.05913" lon="20.05815">
        <ele>814.84997558594</ele>
        <time>2023-10-01T07:14:12.000Z</time>
      </trkpt>
      <trkpt lat="42.05912" lon="20.05822">
        <ele>814.84997558594</ele>
        <time>2023-10-01T07:14:11.000Z</time>
      </trkpt>
      <trkpt lat="42.0591" lon="20.05842">
        <ele>814.36999511719</ele>
        <time>2023-10-01T07:14:10.000Z</time>
      </trkpt>
      <trkpt lat="42.05908" lon="20.05855">
        <ele>814.36999511719</ele>
        <time>2023-10-01T07:14:09.000Z</time>
      </trkpt>
      <trkpt lat="42.05905" lon="20.05865">
        <ele>813.89001464844</ele>
        <time>2023-10-01T07:14:08.000Z</time>
      </trkpt>
      <trkpt lat="42.05901" lon="20.05872">
        <ele>812.92999267578</ele>
        <time>2023-10-01T07:14:07.000Z</time>
      </trkpt>
      <trkpt lat="42.05896" lon="20.05878">
        <ele>812.92999267578</ele>
        <time>2023-10-01T07:14:06.000Z</time>
      </trkpt>
      <trkpt lat="42.0589" lon="20.05881">
        <ele>812.92999267578</ele>
        <time>2023-10-01T07:14:05.000Z</time>
      </trkpt>
      <trkpt lat="42.05883" lon="20.05881">
        <ele>812.92999267578</ele>
        <time>2023-10-01T07:14:04.000Z</time>
      </trkpt>
      <trkpt lat="42.05873" lon="20.05879">
        <ele>812.45001220703</ele>
        <time>2023-10-01T07:14:03.000Z</time>
      </trkpt>
      <trkpt lat="42.05871" lon="20.05878">
        <ele>812.45001220703</ele>
        <time>2023-10-01T07:14:02.000Z</time>
      </trkpt>
      <trkpt lat="42.05857" lon="20.05871">
        <ele>812.45001220703</ele>
        <time>2023-10-01T07:14:01.000Z</time>
      </trkpt>
      <trkpt lat="42.0585" lon="20.05866">
        <ele>811.96997070312</ele>
        <time>2023-10-01T07:14:00.000Z</time>
      </trkpt>
      <trkpt lat="42.05844" lon="20.05861">
        <ele>811.01000976562</ele>
        <time>2023-10-01T07:13:59.000Z</time>
      </trkpt>
      <trkpt lat="42.0584" lon="20.05855">
        <ele>811.48999023438</ele>
        <time>2023-10-01T07:13:58.000Z</time>
      </trkpt>
      <trkpt lat="42.05837" lon="20.05847">
        <ele>811.48999023438</ele>
        <time>2023-10-01T07:13:57.000Z</time>
      </trkpt>
      <trkpt lat="42.05836" lon="20.0584">
        <ele>811.96997070312</ele>
        <time>2023-10-01T07:13:56.000Z</time>
      </trkpt>
      <trkpt lat="42.05834" lon="20.0582">
        <ele>813.40997314453</ele>
        <time>2023-10-01T07:13:54.000Z</time>
      </trkpt>
      <trkpt lat="42.05833" lon="20.05811">
        <ele>814.36999511719</ele>
        <time>2023-10-01T07:13:53.000Z</time>
      </trkpt>
      <trkpt lat="42.05831" lon="20.05801">
        <ele>815.34002685547</ele>
        <time>2023-10-01T07:13:52.000Z</time>
      </trkpt>
      <trkpt lat="42.0583" lon="20.05797">
        <ele>815.34002685547</ele>
        <time>2023-10-01T07:13:51.000Z</time>
      </trkpt>
      <trkpt lat="42.05828" lon="20.05788">
        <ele>815.82000732422</ele>
        <time>2023-10-01T07:13:50.000Z</time>
      </trkpt>
      <trkpt lat="42.05824" lon="20.05773">
        <ele>817.26000976562</ele>
        <time>2023-10-01T07:13:49.000Z</time>
      </trkpt>
      <trkpt lat="42.05821" lon="20.05766">
        <ele>817.73999023438</ele>
        <time>2023-10-01T07:13:48.000Z</time>
      </trkpt>
      <trkpt lat="42.05817" lon="20.05757">
        <ele>818.70001220703</ele>
        <time>2023-10-01T07:13:47.000Z</time>
      </trkpt>
      <trkpt lat="42.05816" lon="20.05756">
        <ele>818.70001220703</ele>
        <time>2023-10-01T07:13:46.000Z</time>
      </trkpt>
      <trkpt lat="42.05806" lon="20.05742">
        <ele>819.17999267578</ele>
        <time>2023-10-01T07:13:45.000Z</time>
      </trkpt>
      <trkpt lat="42.05803" lon="20.05736">
        <ele>819.65997314453</ele>
        <time>2023-10-01T07:13:44.000Z</time>
      </trkpt>
      <trkpt lat="42.058" lon="20.05729">
        <ele>819.65997314453</ele>
        <time>2023-10-01T07:13:43.000Z</time>
      </trkpt>
      <trkpt lat="42.05797" lon="20.05719">
        <ele>820.14001464844</ele>
        <time>2023-10-01T07:13:42.000Z</time>
      </trkpt>
      <trkpt lat="42.05793" lon="20.05705">
        <ele>820.14001464844</ele>
        <time>2023-10-01T07:13:41.000Z</time>
      </trkpt>
      <trkpt lat="42.05791" lon="20.05696">
        <ele>820.61999511719</ele>
        <time>2023-10-01T07:13:40.000Z</time>
      </trkpt>
      <trkpt lat="42.05787" lon="20.05685">
        <ele>821.09997558594</ele>
        <time>2023-10-01T07:13:39.000Z</time>
      </trkpt>
      <trkpt lat="42.05781" lon="20.05676">
        <ele>821.09997558594</ele>
        <time>2023-10-01T07:13:38.000Z</time>
      </trkpt>
      <trkpt lat="42.05774" lon="20.05671">
        <ele>821.58001708984</ele>
        <time>2023-10-01T07:13:37.000Z</time>
      </trkpt>
      <trkpt lat="42.05767" lon="20.05666">
        <ele>822.05999755859</ele>
        <time>2023-10-01T07:13:36.000Z</time>
      </trkpt>
      <trkpt lat="42.0576" lon="20.05664">
        <ele>822.54998779297</ele>
        <time>2023-10-01T07:13:35.000Z</time>
      </trkpt>
      <trkpt lat="42.05755" lon="20.05665">
        <ele>822.54998779297</ele>
        <time>2023-10-01T07:13:34.000Z</time>
      </trkpt>
      <trkpt lat="42.0575" lon="20.05668">
        <ele>822.54998779297</ele>
        <time>2023-10-01T07:13:33.000Z</time>
      </trkpt>
      <trkpt lat="42.05745" lon="20.05675">
        <ele>822.54998779297</ele>
        <time>2023-10-01T07:13:32.000Z</time>
      </trkpt>
      <trkpt lat="42.05733" lon="20.05692">
        <ele>823.03002929688</ele>
        <time>2023-10-01T07:13:30.000Z</time>
      </trkpt>
      <trkpt lat="42.05728" lon="20.05698">
        <ele>823.03002929688</ele>
        <time>2023-10-01T07:13:29.000Z</time>
      </trkpt>
      <trkpt lat="42.05721" lon="20.05709">
        <ele>824.46997070312</ele>
        <time>2023-10-01T07:13:28.000Z</time>
      </trkpt>
      <trkpt lat="42.05717" lon="20.05716">
        <ele>824.46997070312</ele>
        <time>2023-10-01T07:13:27.000Z</time>
      </trkpt>
      <trkpt lat="42.05713" lon="20.05726">
        <ele>824.46997070312</ele>
        <time>2023-10-01T07:13:26.000Z</time>
      </trkpt>
      <trkpt lat="42.05701" lon="20.0575">
        <ele>825.42999267578</ele>
        <time>2023-10-01T07:13:25.000Z</time>
      </trkpt>
      <trkpt lat="42.05694" lon="20.05765">
        <ele>826.39001464844</ele>
        <time>2023-10-01T07:13:24.000Z</time>
      </trkpt>
      <trkpt lat="42.05688" lon="20.05776">
        <ele>827.34997558594</ele>
        <time>2023-10-01T07:13:23.000Z</time>
      </trkpt>
      <trkpt lat="42.05683" lon="20.05788">
        <ele>825.90997314453</ele>
        <time>2023-10-01T07:13:22.000Z</time>
      </trkpt>
      <trkpt lat="42.05676" lon="20.05794">
        <ele>823.51000976562</ele>
        <time>2023-10-01T07:13:21.000Z</time>
      </trkpt>
      <trkpt lat="42.05669" lon="20.05797">
        <ele>824.46997070312</ele>
        <time>2023-10-01T07:13:20.000Z</time>
      </trkpt>
      <trkpt lat="42.05663" lon="20.05795">
        <ele>823.98999023438</ele>
        <time>2023-10-01T07:13:19.000Z</time>
      </trkpt>
      <trkpt lat="42.05655" lon="20.05788">
        <ele>823.98999023438</ele>
        <time>2023-10-01T07:13:18.000Z</time>
      </trkpt>
      <trkpt lat="42.05648" lon="20.05778">
        <ele>823.98999023438</ele>
        <time>2023-10-01T07:13:17.000Z</time>
      </trkpt>
      <trkpt lat="42.05641" lon="20.05766">
        <ele>823.98999023438</ele>
        <time>2023-10-01T07:13:16.000Z</time>
      </trkpt>
      <trkpt lat="42.05635" lon="20.05753">
        <ele>824.46997070312</ele>
        <time>2023-10-01T07:13:15.000Z</time>
      </trkpt>
      <trkpt lat="42.05629" lon="20.05734">
        <ele>824.46997070312</ele>
        <time>2023-10-01T07:13:14.000Z</time>
      </trkpt>
      <trkpt lat="42.05623" lon="20.05719">
        <ele>825.90997314453</ele>
        <time>2023-10-01T07:13:13.000Z</time>
      </trkpt>
      <trkpt lat="42.05618" lon="20.05707">
        <ele>827.83001708984</ele>
        <time>2023-10-01T07:13:12.000Z</time>
      </trkpt>
      <trkpt lat="42.0561" lon="20.05698">
        <ele>829.76000976562</ele>
        <time>2023-10-01T07:13:11.000Z</time>
      </trkpt>
      <trkpt lat="42.05601" lon="20.05691">
        <ele>830.71997070312</ele>
        <time>2023-10-01T07:13:10.000Z</time>
      </trkpt>
      <trkpt lat="42.05597" lon="20.05688">
        <ele>831.20001220703</ele>
        <time>2023-10-01T07:13:09.000Z</time>
      </trkpt>
      <trkpt lat="42.05582" lon="20.0568">
        <ele>832.15997314453</ele>
        <time>2023-10-01T07:13:08.000Z</time>
      </trkpt>
      <trkpt lat="42.05568" lon="20.05674">
        <ele>833.11999511719</ele>
        <time>2023-10-01T07:13:07.000Z</time>
      </trkpt>
      <trkpt lat="42.05555" lon="20.0567">
        <ele>833.59997558594</ele>
        <time>2023-10-01T07:13:06.000Z</time>
      </trkpt>
      <trkpt lat="42.05551" lon="20.0567">
        <ele>834.08001708984</ele>
        <time>2023-10-01T07:13:05.000Z</time>
      </trkpt>
      <trkpt lat="42.05532" lon="20.05668">
        <ele>834.55999755859</ele>
        <time>2023-10-01T07:13:04.000Z</time>
      </trkpt>
      <trkpt lat="42.05521" lon="20.05664">
        <ele>835.03997802734</ele>
        <time>2023-10-01T07:13:03.000Z</time>
      </trkpt>
      <trkpt lat="42.0551" lon="20.05657">
        <ele>835.52001953125</ele>
        <time>2023-10-01T07:13:02.000Z</time>
      </trkpt>
      <trkpt lat="42.05502" lon="20.05649">
        <ele>836</ele>
        <time>2023-10-01T07:13:01.000Z</time>
      </trkpt>
      <trkpt lat="42.05496" lon="20.05643">
        <ele>836.47998046875</ele>
        <time>2023-10-01T07:13:00.000Z</time>
      </trkpt>
      <trkpt lat="42.05483" lon="20.05626">
        <ele>837.92999267578</ele>
        <time>2023-10-01T07:12:59.000Z</time>
      </trkpt>
      <trkpt lat="42.05475" lon="20.05619">
        <ele>837.92999267578</ele>
        <time>2023-10-01T07:12:58.000Z</time>
      </trkpt>
      <trkpt lat="42.05464" lon="20.05611">
        <ele>837.92999267578</ele>
        <time>2023-10-01T07:12:57.000Z</time>
      </trkpt>
      <trkpt lat="42.0542" lon="20.05584">
        <ele>836.96002197266</ele>
        <time>2023-10-01T07:12:54.000Z</time>
      </trkpt>
      <trkpt lat="42.0541" lon="20.05578">
        <ele>836.47998046875</ele>
        <time>2023-10-01T07:12:53.000Z</time>
      </trkpt>
      <trkpt lat="42.05399" lon="20.05575">
        <ele>836</ele>
        <time>2023-10-01T07:12:52.000Z</time>
      </trkpt>
      <trkpt lat="42.05389" lon="20.05574">
        <ele>835.03997802734</ele>
        <time>2023-10-01T07:12:51.000Z</time>
      </trkpt>
      <trkpt lat="42.05381" lon="20.05576">
        <ele>834.08001708984</ele>
        <time>2023-10-01T07:12:50.000Z</time>
      </trkpt>
      <trkpt lat="42.05366" lon="20.05581">
        <ele>833.59997558594</ele>
        <time>2023-10-01T07:12:49.000Z</time>
      </trkpt>
      <trkpt lat="42.05354" lon="20.05586">
        <ele>833.11999511719</ele>
        <time>2023-10-01T07:12:48.000Z</time>
      </trkpt>
      <trkpt lat="42.05343" lon="20.05593">
        <ele>832.64001464844</ele>
        <time>2023-10-01T07:12:47.000Z</time>
      </trkpt>
      <trkpt lat="42.05333" lon="20.05599">
        <ele>832.15997314453</ele>
        <time>2023-10-01T07:12:46.000Z</time>
      </trkpt>
      <trkpt lat="42.05325" lon="20.05603">
        <ele>831.67999267578</ele>
        <time>2023-10-01T07:12:45.000Z</time>
      </trkpt>
      <trkpt lat="42.05318" lon="20.05604">
        <ele>830.71997070312</ele>
        <time>2023-10-01T07:12:44.000Z</time>
      </trkpt>
      <trkpt lat="42.0531" lon="20.05602">
        <ele>830.23999023438</ele>
        <time>2023-10-01T07:12:43.000Z</time>
      </trkpt>
      <trkpt lat="42.05305" lon="20.05596">
        <ele>829.76000976562</ele>
        <time>2023-10-01T07:12:42.000Z</time>
      </trkpt>
      <trkpt lat="42.053" lon="20.05588">
        <ele>828.78997802734</ele>
        <time>2023-10-01T07:12:41.000Z</time>
      </trkpt>
      <trkpt lat="42.05298" lon="20.05578">
        <ele>827.34997558594</ele>
        <time>2023-10-01T07:12:40.000Z</time>
      </trkpt>
      <trkpt lat="42.05297" lon="20.05565">
        <ele>825.90997314453</ele>
        <time>2023-10-01T07:12:39.000Z</time>
      </trkpt>
      <trkpt lat="42.05297" lon="20.0555">
        <ele>824.95001220703</ele>
        <time>2023-10-01T07:12:38.000Z</time>
      </trkpt>
      <trkpt lat="42.05298" lon="20.05536">
        <ele>823.98999023438</ele>
        <time>2023-10-01T07:12:37.000Z</time>
      </trkpt>
      <trkpt lat="42.053" lon="20.05523">
        <ele>823.51000976562</ele>
        <time>2023-10-01T07:12:36.000Z</time>
      </trkpt>
      <trkpt lat="42.05299" lon="20.05512">
        <ele>823.51000976562</ele>
        <time>2023-10-01T07:12:35.000Z</time>
      </trkpt>
      <trkpt lat="42.05296" lon="20.05501">
        <ele>823.98999023438</ele>
        <time>2023-10-01T07:12:34.000Z</time>
      </trkpt>
      <trkpt lat="42.05291" lon="20.05494">
        <ele>823.98999023438</ele>
        <time>2023-10-01T07:12:33.000Z</time>
      </trkpt>
      <trkpt lat="42.05283" lon="20.05488">
        <ele>823.98999023438</ele>
        <time>2023-10-01T07:12:32.000Z</time>
      </trkpt>
      <trkpt lat="42.05273" lon="20.05483">
        <ele>823.98999023438</ele>
        <time>2023-10-01T07:12:31.000Z</time>
      </trkpt>
      <trkpt lat="42.05262" lon="20.05479">
        <ele>823.98999023438</ele>
        <time>2023-10-01T07:12:30.000Z</time>
      </trkpt>
      <trkpt lat="42.05252" lon="20.05475">
        <ele>823.51000976562</ele>
        <time>2023-10-01T07:12:29.000Z</time>
      </trkpt>
      <trkpt lat="42.05244" lon="20.05468">
        <ele>823.51000976562</ele>
        <time>2023-10-01T07:12:28.000Z</time>
      </trkpt>
      <trkpt lat="42.05238" lon="20.0546">
        <ele>823.51000976562</ele>
        <time>2023-10-01T07:12:27.000Z</time>
      </trkpt>
      <trkpt lat="42.0523" lon="20.05451">
        <ele>823.03002929688</ele>
        <time>2023-10-01T07:12:26.000Z</time>
      </trkpt>
      <trkpt lat="42.0522" lon="20.05443">
        <ele>822.54998779297</ele>
        <time>2023-10-01T07:12:25.000Z</time>
      </trkpt>
      <trkpt lat="42.0521" lon="20.05438">
        <ele>822.54998779297</ele>
        <time>2023-10-01T07:12:24.000Z</time>
      </trkpt>
      <trkpt lat="42.05182" lon="20.05425">
        <ele>820.61999511719</ele>
        <time>2023-10-01T07:12:21.000Z</time>
      </trkpt>
      <trkpt lat="42.05172" lon="20.05421">
        <ele>820.14001464844</ele>
        <time>2023-10-01T07:12:20.000Z</time>
      </trkpt>
      <trkpt lat="42.05165" lon="20.0542">
        <ele>819.17999267578</ele>
        <time>2023-10-01T07:12:19.000Z</time>
      </trkpt>
      <trkpt lat="42.05157" lon="20.05423">
        <ele>818.70001220703</ele>
        <time>2023-10-01T07:12:18.000Z</time>
      </trkpt>
      <trkpt lat="42.05151" lon="20.05428">
        <ele>818.21997070312</ele>
        <time>2023-10-01T07:12:17.000Z</time>
      </trkpt>
      <trkpt lat="42.05144" lon="20.05437">
        <ele>817.73999023438</ele>
        <time>2023-10-01T07:12:16.000Z</time>
      </trkpt>
      <trkpt lat="42.05135" lon="20.05446">
        <ele>817.26000976562</ele>
        <time>2023-10-01T07:12:15.000Z</time>
      </trkpt>
      <trkpt lat="42.05127" lon="20.05453">
        <ele>817.26000976562</ele>
        <time>2023-10-01T07:12:14.000Z</time>
      </trkpt>
      <trkpt lat="42.05119" lon="20.05457">
        <ele>816.78002929688</ele>
        <time>2023-10-01T07:12:13.000Z</time>
      </trkpt>
      <trkpt lat="42.05112" lon="20.05458">
        <ele>816.29998779297</ele>
        <time>2023-10-01T07:12:12.000Z</time>
      </trkpt>
      <trkpt lat="42.05105" lon="20.05455">
        <ele>815.82000732422</ele>
        <time>2023-10-01T07:12:11.000Z</time>
      </trkpt>
      <trkpt lat="42.05098" lon="20.05448">
        <ele>815.34002685547</ele>
        <time>2023-10-01T07:12:10.000Z</time>
      </trkpt>
      <trkpt lat="42.05085" lon="20.05426">
        <ele>813.40997314453</ele>
        <time>2023-10-01T07:12:08.000Z</time>
      </trkpt>
      <trkpt lat="42.05077" lon="20.05416">
        <ele>811.96997070312</ele>
        <time>2023-10-01T07:12:07.000Z</time>
      </trkpt>
      <trkpt lat="42.05068" lon="20.05407">
        <ele>811.01000976562</ele>
        <time>2023-10-01T07:12:06.000Z</time>
      </trkpt>
      <trkpt lat="42.05066" lon="20.05406">
        <ele>811.01000976562</ele>
        <time>2023-10-01T07:12:05.000Z</time>
      </trkpt>
      <trkpt lat="42.05048" lon="20.05394">
        <ele>811.01000976562</ele>
        <time>2023-10-01T07:12:04.000Z</time>
      </trkpt>
      <trkpt lat="42.0504" lon="20.05389">
        <ele>811.01000976562</ele>
        <time>2023-10-01T07:12:03.000Z</time>
      </trkpt>
      <trkpt lat="42.05031" lon="20.05386">
        <ele>810.53002929688</ele>
        <time>2023-10-01T07:12:02.000Z</time>
      </trkpt>
      <trkpt lat="42.05022" lon="20.05384">
        <ele>810.53002929688</ele>
        <time>2023-10-01T07:12:01.000Z</time>
      </trkpt>
      <trkpt lat="42.05015" lon="20.05387">
        <ele>810.53002929688</ele>
        <time>2023-10-01T07:12:00.000Z</time>
      </trkpt>
      <trkpt lat="42.0501" lon="20.05391">
        <ele>810.04998779297</ele>
        <time>2023-10-01T07:11:59.000Z</time>
      </trkpt>
      <trkpt lat="42.05006" lon="20.05398">
        <ele>810.04998779297</ele>
        <time>2023-10-01T07:11:58.000Z</time>
      </trkpt>
      <trkpt lat="42.05003" lon="20.05406">
        <ele>810.04998779297</ele>
        <time>2023-10-01T07:11:57.000Z</time>
      </trkpt>
      <trkpt lat="42.05003" lon="20.05414">
        <ele>810.04998779297</ele>
        <time>2023-10-01T07:11:56.000Z</time>
      </trkpt>
      <trkpt lat="42.05004" lon="20.05423">
        <ele>810.04998779297</ele>
        <time>2023-10-01T07:11:55.000Z</time>
      </trkpt>
      <trkpt lat="42.05007" lon="20.05429">
        <ele>809.57000732422</ele>
        <time>2023-10-01T07:11:54.000Z</time>
      </trkpt>
      <trkpt lat="42.05012" lon="20.05433">
        <ele>809.09002685547</ele>
        <time>2023-10-01T07:11:53.000Z</time>
      </trkpt>
      <trkpt lat="42.05018" lon="20.05434">
        <ele>808.60998535156</ele>
        <time>2023-10-01T07:11:52.000Z</time>
      </trkpt>
      <trkpt lat="42.05026" lon="20.05432">
        <ele>807.64001464844</ele>
        <time>2023-10-01T07:11:51.000Z</time>
      </trkpt>
      <trkpt lat="42.05031" lon="20.0543">
        <ele>807.64001464844</ele>
        <time>2023-10-01T07:11:50.000Z</time>
      </trkpt>
      <trkpt lat="42.05042" lon="20.05424">
        <ele>807.15997314453</ele>
        <time>2023-10-01T07:11:49.000Z</time>
      </trkpt>
      <trkpt lat="42.05049" lon="20.05422">
        <ele>806.67999267578</ele>
        <time>2023-10-01T07:11:48.000Z</time>
      </trkpt>
      <trkpt lat="42.05055" lon="20.05423">
        <ele>806.67999267578</ele>
        <time>2023-10-01T07:11:47.000Z</time>
      </trkpt>
      <trkpt lat="42.05061" lon="20.05427">
        <ele>806.20001220703</ele>
        <time>2023-10-01T07:11:46.000Z</time>
      </trkpt>
      <trkpt lat="42.05067" lon="20.05436">
        <ele>805.23999023438</ele>
        <time>2023-10-01T07:11:45.000Z</time>
      </trkpt>
      <trkpt lat="42.05069" lon="20.05439">
        <ele>805.23999023438</ele>
        <time>2023-10-01T07:11:44.000Z</time>
      </trkpt>
      <trkpt lat="42.05085" lon="20.05474">
        <ele>802.84002685547</ele>
        <time>2023-10-01T07:11:42.000Z</time>
      </trkpt>
      <trkpt lat="42.05091" lon="20.05485">
        <ele>801.88000488281</ele>
        <time>2023-10-01T07:11:41.000Z</time>
      </trkpt>
      <trkpt lat="42.05098" lon="20.05498">
        <ele>801.40002441406</ele>
        <time>2023-10-01T07:11:40.000Z</time>
      </trkpt>
      <trkpt lat="42.05104" lon="20.05505">
        <ele>801.40002441406</ele>
        <time>2023-10-01T07:11:39.000Z</time>
      </trkpt>
      <trkpt lat="42.05111" lon="20.05511">
        <ele>800.91998291016</ele>
        <time>2023-10-01T07:11:38.000Z</time>
      </trkpt>
      <trkpt lat="42.05119" lon="20.05515">
        <ele>799.95001220703</ele>
        <time>2023-10-01T07:11:37.000Z</time>
      </trkpt>
      <trkpt lat="42.05129" lon="20.05518">
        <ele>798.51000976562</ele>
        <time>2023-10-01T07:11:36.000Z</time>
      </trkpt>
      <trkpt lat="42.05137" lon="20.05522">
        <ele>797.54998779297</ele>
        <time>2023-10-01T07:11:35.000Z</time>
      </trkpt>
      <trkpt lat="42.05144" lon="20.05528">
        <ele>796.59002685547</ele>
        <time>2023-10-01T07:11:34.000Z</time>
      </trkpt>
      <trkpt lat="42.05148" lon="20.05535">
        <ele>796.10998535156</ele>
        <time>2023-10-01T07:11:33.000Z</time>
      </trkpt>
      <trkpt lat="42.05151" lon="20.05547">
        <ele>795.63000488281</ele>
        <time>2023-10-01T07:11:32.000Z</time>
      </trkpt>
      <trkpt lat="42.05154" lon="20.05558">
        <ele>795.15002441406</ele>
        <time>2023-10-01T07:11:31.000Z</time>
      </trkpt>
      <trkpt lat="42.05156" lon="20.05571">
        <ele>794.19000244141</ele>
        <time>2023-10-01T07:11:30.000Z</time>
      </trkpt>
      <trkpt lat="42.05159" lon="20.05579">
        <ele>793.21997070312</ele>
        <time>2023-10-01T07:11:29.000Z</time>
      </trkpt>
      <trkpt lat="42.05164" lon="20.05585">
        <ele>792.73999023438</ele>
        <time>2023-10-01T07:11:28.000Z</time>
      </trkpt>
      <trkpt lat="42.05172" lon="20.05589">
        <ele>792.26000976562</ele>
        <time>2023-10-01T07:11:27.000Z</time>
      </trkpt>
      <trkpt lat="42.05188" lon="20.05595">
        <ele>790.34002685547</ele>
        <time>2023-10-01T07:11:25.000Z</time>
      </trkpt>
      <trkpt lat="42.05194" lon="20.05598">
        <ele>788.90002441406</ele>
        <time>2023-10-01T07:11:24.000Z</time>
      </trkpt>
      <trkpt lat="42.052" lon="20.05602">
        <ele>788.41998291016</ele>
        <time>2023-10-01T07:11:23.000Z</time>
      </trkpt>
      <trkpt lat="42.05205" lon="20.05609">
        <ele>787.46002197266</ele>
        <time>2023-10-01T07:11:22.000Z</time>
      </trkpt>
      <trkpt lat="42.05209" lon="20.05617">
        <ele>786.97998046875</ele>
        <time>2023-10-01T07:11:21.000Z</time>
      </trkpt>
      <trkpt lat="42.05212" lon="20.05626">
        <ele>786.5</ele>
        <time>2023-10-01T07:11:20.000Z</time>
      </trkpt>
      <trkpt lat="42.05213" lon="20.05636">
        <ele>786.02001953125</ele>
        <time>2023-10-01T07:11:19.000Z</time>
      </trkpt>
      <trkpt lat="42.05212" lon="20.05644">
        <ele>785.53002929688</ele>
        <time>2023-10-01T07:11:18.000Z</time>
      </trkpt>
      <trkpt lat="42.05209" lon="20.05651">
        <ele>784.57000732422</ele>
        <time>2023-10-01T07:11:17.000Z</time>
      </trkpt>
      <trkpt lat="42.05205" lon="20.05655">
        <ele>784.09002685547</ele>
        <time>2023-10-01T07:11:16.000Z</time>
      </trkpt>
      <trkpt lat="42.05201" lon="20.05658">
        <ele>783.60998535156</ele>
        <time>2023-10-01T07:11:15.000Z</time>
      </trkpt>
      <trkpt lat="42.05195" lon="20.05661">
        <ele>782.65002441406</ele>
        <time>2023-10-01T07:11:14.000Z</time>
      </trkpt>
      <trkpt lat="42.05191" lon="20.05661">
        <ele>782.16998291016</ele>
        <time>2023-10-01T07:11:13.000Z</time>
      </trkpt>
      <trkpt lat="42.05185" lon="20.05659">
        <ele>781.69000244141</ele>
        <time>2023-10-01T07:11:12.000Z</time>
      </trkpt>
      <trkpt lat="42.05167" lon="20.05648">
        <ele>779.77001953125</ele>
        <time>2023-10-01T07:11:10.000Z</time>
      </trkpt>
      <trkpt lat="42.05159" lon="20.05644">
        <ele>778.80999755859</ele>
        <time>2023-10-01T07:11:09.000Z</time>
      </trkpt>
      <trkpt lat="42.05152" lon="20.0564">
        <ele>778.32000732422</ele>
        <time>2023-10-01T07:11:08.000Z</time>
      </trkpt>
      <trkpt lat="42.05139" lon="20.05634">
        <ele>777.35998535156</ele>
        <time>2023-10-01T07:11:07.000Z</time>
      </trkpt>
      <trkpt lat="42.05125" lon="20.05629">
        <ele>776.40002441406</ele>
        <time>2023-10-01T07:11:06.000Z</time>
      </trkpt>
      <trkpt lat="42.05114" lon="20.05627">
        <ele>775.44000244141</ele>
        <time>2023-10-01T07:11:05.000Z</time>
      </trkpt>
      <trkpt lat="42.05106" lon="20.05626">
        <ele>774.47998046875</ele>
        <time>2023-10-01T07:11:04.000Z</time>
      </trkpt>
      <trkpt lat="42.05099" lon="20.05627">
        <ele>774</ele>
        <time>2023-10-01T07:11:03.000Z</time>
      </trkpt>
      <trkpt lat="42.05094" lon="20.0563">
        <ele>774</ele>
        <time>2023-10-01T07:11:02.000Z</time>
      </trkpt>
      <trkpt lat="42.05086" lon="20.05636">
        <ele>773.03997802734</ele>
        <time>2023-10-01T07:11:01.000Z</time>
      </trkpt>
      <trkpt lat="42.05076" lon="20.05645">
        <ele>772.08001708984</ele>
        <time>2023-10-01T07:11:00.000Z</time>
      </trkpt>
      <trkpt lat="42.05068" lon="20.05652">
        <ele>771.59997558594</ele>
        <time>2023-10-01T07:10:59.000Z</time>
      </trkpt>
      <trkpt lat="42.05058" lon="20.05659">
        <ele>770.15002441406</ele>
        <time>2023-10-01T07:10:58.000Z</time>
      </trkpt>
      <trkpt lat="42.05052" lon="20.05663">
        <ele>769.66998291016</ele>
        <time>2023-10-01T07:10:57.000Z</time>
      </trkpt>
      <trkpt lat="42.05044" lon="20.05669">
        <ele>768.71002197266</ele>
        <time>2023-10-01T07:10:56.000Z</time>
      </trkpt>
      <trkpt lat="42.0502" lon="20.05687">
        <ele>764.86999511719</ele>
        <time>2023-10-01T07:10:54.000Z</time>
      </trkpt>
      <trkpt lat="42.05016" lon="20.0569">
        <ele>763.90002441406</ele>
        <time>2023-10-01T07:10:53.000Z</time>
      </trkpt>
      <trkpt lat="42.05002" lon="20.05701">
        <ele>762.46002197266</ele>
        <time>2023-10-01T07:10:52.000Z</time>
      </trkpt>
      <trkpt lat="42.04996" lon="20.05708">
        <ele>761.97998046875</ele>
        <time>2023-10-01T07:10:51.000Z</time>
      </trkpt>
      <trkpt lat="42.0499" lon="20.05716">
        <ele>761.02001953125</ele>
        <time>2023-10-01T07:10:50.000Z</time>
      </trkpt>
      <trkpt lat="42.04984" lon="20.05723">
        <ele>760.53997802734</ele>
        <time>2023-10-01T07:10:49.000Z</time>
      </trkpt>
      <trkpt lat="42.0498" lon="20.0573">
        <ele>760.05999755859</ele>
        <time>2023-10-01T07:10:48.000Z</time>
      </trkpt>
      <trkpt lat="42.04978" lon="20.05737">
        <ele>759.58001708984</ele>
        <time>2023-10-01T07:10:47.000Z</time>
      </trkpt>
      <trkpt lat="42.04977" lon="20.05744">
        <ele>759.58001708984</ele>
        <time>2023-10-01T07:10:46.000Z</time>
      </trkpt>
      <trkpt lat="42.04978" lon="20.05753">
        <ele>759.58001708984</ele>
        <time>2023-10-01T07:10:45.000Z</time>
      </trkpt>
      <trkpt lat="42.0498" lon="20.05766">
        <ele>759.09997558594</ele>
        <time>2023-10-01T07:10:44.000Z</time>
      </trkpt>
      <trkpt lat="42.04981" lon="20.05774">
        <ele>758.61999511719</ele>
        <time>2023-10-01T07:10:43.000Z</time>
      </trkpt>
      <trkpt lat="42.04979" lon="20.05783">
        <ele>758.14001464844</ele>
        <time>2023-10-01T07:10:42.000Z</time>
      </trkpt>
      <trkpt lat="42.04975" lon="20.05791">
        <ele>758.14001464844</ele>
        <time>2023-10-01T07:10:41.000Z</time>
      </trkpt>
      <trkpt lat="42.04971" lon="20.05799">
        <ele>758.14001464844</ele>
        <time>2023-10-01T07:10:40.000Z</time>
      </trkpt>
      <trkpt lat="42.04967" lon="20.05803">
        <ele>757.65997314453</ele>
        <time>2023-10-01T07:10:39.000Z</time>
      </trkpt>
      <trkpt lat="42.04939" lon="20.05836">
        <ele>756.69000244141</ele>
        <time>2023-10-01T07:10:36.000Z</time>
      </trkpt>
      <trkpt lat="42.0493" lon="20.05844">
        <ele>756.21002197266</ele>
        <time>2023-10-01T07:10:35.000Z</time>
      </trkpt>
      <trkpt lat="42.04922" lon="20.05848">
        <ele>755.72998046875</ele>
        <time>2023-10-01T07:10:34.000Z</time>
      </trkpt>
      <trkpt lat="42.04914" lon="20.05851">
        <ele>756.21002197266</ele>
        <time>2023-10-01T07:10:33.000Z</time>
      </trkpt>
      <trkpt lat="42.04902" lon="20.05854">
        <ele>756.21002197266</ele>
        <time>2023-10-01T07:10:32.000Z</time>
      </trkpt>
      <trkpt lat="42.04894" lon="20.05856">
        <ele>755.72998046875</ele>
        <time>2023-10-01T07:10:31.000Z</time>
      </trkpt>
      <trkpt lat="42.04886" lon="20.05861">
        <ele>755.25</ele>
        <time>2023-10-01T07:10:30.000Z</time>
      </trkpt>
      <trkpt lat="42.04883" lon="20.05863">
        <ele>755.25</ele>
        <time>2023-10-01T07:10:29.000Z</time>
      </trkpt>
      <trkpt lat="42.04861" lon="20.05884">
        <ele>753.33001708984</ele>
        <time>2023-10-01T07:10:27.000Z</time>
      </trkpt>
      <trkpt lat="42.04855" lon="20.0589">
        <ele>753.33001708984</ele>
        <time>2023-10-01T07:10:26.000Z</time>
      </trkpt>
      <trkpt lat="42.04833" lon="20.05907">
        <ele>752.36999511719</ele>
        <time>2023-10-01T07:10:24.000Z</time>
      </trkpt>
      <trkpt lat="42.04822" lon="20.05916">
        <ele>751.89001464844</ele>
        <time>2023-10-01T07:10:23.000Z</time>
      </trkpt>
      <trkpt lat="42.04807" lon="20.05932">
        <ele>750.92999267578</ele>
        <time>2023-10-01T07:10:22.000Z</time>
      </trkpt>
      <trkpt lat="42.048" lon="20.0594">
        <ele>750.45001220703</ele>
        <time>2023-10-01T07:10:21.000Z</time>
      </trkpt>
      <trkpt lat="42.0478" lon="20.05967">
        <ele>749.48999023438</ele>
        <time>2023-10-01T07:10:19.000Z</time>
      </trkpt>
      <trkpt lat="42.04772" lon="20.05976">
        <ele>749.48999023438</ele>
        <time>2023-10-01T07:10:18.000Z</time>
      </trkpt>
      <trkpt lat="42.04765" lon="20.05986">
        <ele>749</ele>
        <time>2023-10-01T07:10:17.000Z</time>
      </trkpt>
      <trkpt lat="42.04751" lon="20.06004">
        <ele>747.55999755859</ele>
        <time>2023-10-01T07:10:16.000Z</time>
      </trkpt>
      <trkpt lat="42.04732" lon="20.06028">
        <ele>747.08001708984</ele>
        <time>2023-10-01T07:10:14.000Z</time>
      </trkpt>
      <trkpt lat="42.04722" lon="20.06038">
        <ele>747.55999755859</ele>
        <time>2023-10-01T07:10:13.000Z</time>
      </trkpt>
      <trkpt lat="42.04714" lon="20.06045">
        <ele>746.59997558594</ele>
        <time>2023-10-01T07:10:12.000Z</time>
      </trkpt>
      <trkpt lat="42.04702" lon="20.06052">
        <ele>746.11999511719</ele>
        <time>2023-10-01T07:10:11.000Z</time>
      </trkpt>
      <trkpt lat="42.04683" lon="20.06061">
        <ele>745.64001464844</ele>
        <time>2023-10-01T07:10:09.000Z</time>
      </trkpt>
      <trkpt lat="42.04676" lon="20.06066">
        <ele>745.15997314453</ele>
        <time>2023-10-01T07:10:08.000Z</time>
      </trkpt>
      <trkpt lat="42.0467" lon="20.06073">
        <ele>745.15997314453</ele>
        <time>2023-10-01T07:10:07.000Z</time>
      </trkpt>
      <trkpt lat="42.04667" lon="20.06081">
        <ele>745.15997314453</ele>
        <time>2023-10-01T07:10:06.000Z</time>
      </trkpt>
      <trkpt lat="42.04665" lon="20.06091">
        <ele>744.67999267578</ele>
        <time>2023-10-01T07:10:05.000Z</time>
      </trkpt>
      <trkpt lat="42.04664" lon="20.06105">
        <ele>744.67999267578</ele>
        <time>2023-10-01T07:10:04.000Z</time>
      </trkpt>
      <trkpt lat="42.04664" lon="20.06117">
        <ele>744.20001220703</ele>
        <time>2023-10-01T07:10:03.000Z</time>
      </trkpt>
      <trkpt lat="42.04666" lon="20.06131">
        <ele>743.71997070312</ele>
        <time>2023-10-01T07:10:02.000Z</time>
      </trkpt>
      <trkpt lat="42.04669" lon="20.06146">
        <ele>743.23999023438</ele>
        <time>2023-10-01T07:10:01.000Z</time>
      </trkpt>
      <trkpt lat="42.04672" lon="20.06157">
        <ele>742.76000976562</ele>
        <time>2023-10-01T07:10:00.000Z</time>
      </trkpt>
      <trkpt lat="42.04678" lon="20.06175">
        <ele>741.78997802734</ele>
        <time>2023-10-01T07:09:59.000Z</time>
      </trkpt>
      <trkpt lat="42.04687" lon="20.06199">
        <ele>741.30999755859</ele>
        <time>2023-10-01T07:09:57.000Z</time>
      </trkpt>
      <trkpt lat="42.04706" lon="20.06247">
        <ele>738.90997314453</ele>
        <time>2023-10-01T07:09:54.000Z</time>
      </trkpt>
      <trkpt lat="42.04708" lon="20.06259">
        <ele>738.42999267578</ele>
        <time>2023-10-01T07:09:53.000Z</time>
      </trkpt>
      <trkpt lat="42.04708" lon="20.0627">
        <ele>737.95001220703</ele>
        <time>2023-10-01T07:09:52.000Z</time>
      </trkpt>
      <trkpt lat="42.04707" lon="20.06282">
        <ele>737.46997070312</ele>
        <time>2023-10-01T07:09:51.000Z</time>
      </trkpt>
      <trkpt lat="42.04705" lon="20.06293">
        <ele>737.46997070312</ele>
        <time>2023-10-01T07:09:50.000Z</time>
      </trkpt>
      <trkpt lat="42.047" lon="20.06309">
        <ele>736.51000976562</ele>
        <time>2023-10-01T07:09:49.000Z</time>
      </trkpt>
      <trkpt lat="42.04698" lon="20.06317">
        <ele>736.03002929688</ele>
        <time>2023-10-01T07:09:48.000Z</time>
      </trkpt>
      <trkpt lat="42.04692" lon="20.06338">
        <ele>735.54998779297</ele>
        <time>2023-10-01T07:09:47.000Z</time>
      </trkpt>
      <trkpt lat="42.04688" lon="20.06355">
        <ele>734.58001708984</ele>
        <time>2023-10-01T07:09:46.000Z</time>
      </trkpt>
      <trkpt lat="42.04679" lon="20.06392">
        <ele>733.14001464844</ele>
        <time>2023-10-01T07:09:44.000Z</time>
      </trkpt>
      <trkpt lat="42.04674" lon="20.06406">
        <ele>733.14001464844</ele>
        <time>2023-10-01T07:09:43.000Z</time>
      </trkpt>
      <trkpt lat="42.04668" lon="20.06421">
        <ele>732.65997314453</ele>
        <time>2023-10-01T07:09:42.000Z</time>
      </trkpt>
      <trkpt lat="42.04664" lon="20.06429">
        <ele>732.65997314453</ele>
        <time>2023-10-01T07:09:41.000Z</time>
      </trkpt>
      <trkpt lat="42.04658" lon="20.06437">
        <ele>732.17999267578</ele>
        <time>2023-10-01T07:09:40.000Z</time>
      </trkpt>
      <trkpt lat="42.04644" lon="20.06453">
        <ele>731.70001220703</ele>
        <time>2023-10-01T07:09:39.000Z</time>
      </trkpt>
      <trkpt lat="42.04634" lon="20.06463">
        <ele>730.73999023438</ele>
        <time>2023-10-01T07:09:38.000Z</time>
      </trkpt>
      <trkpt lat="42.04624" lon="20.06471">
        <ele>730.26000976562</ele>
        <time>2023-10-01T07:09:37.000Z</time>
      </trkpt>
      <trkpt lat="42.04616" lon="20.06475">
        <ele>730.26000976562</ele>
        <time>2023-10-01T07:09:36.000Z</time>
      </trkpt>
      <trkpt lat="42.04603" lon="20.06479">
        <ele>729.78002929688</ele>
        <time>2023-10-01T07:09:35.000Z</time>
      </trkpt>
      <trkpt lat="42.04581" lon="20.06486">
        <ele>729.29998779297</ele>
        <time>2023-10-01T07:09:33.000Z</time>
      </trkpt>
      <trkpt lat="42.04568" lon="20.06493">
        <ele>728.82000732422</ele>
        <time>2023-10-01T07:09:32.000Z</time>
      </trkpt>
      <trkpt lat="42.04547" lon="20.06504">
        <ele>728.34002685547</ele>
        <time>2023-10-01T07:09:30.000Z</time>
      </trkpt>
      <trkpt lat="42.04533" lon="20.06512">
        <ele>727.85998535156</ele>
        <time>2023-10-01T07:09:29.000Z</time>
      </trkpt>
      <trkpt lat="42.04524" lon="20.06518">
        <ele>727.85998535156</ele>
        <time>2023-10-01T07:09:28.000Z</time>
      </trkpt>
      <trkpt lat="42.04513" lon="20.06523">
        <ele>727.36999511719</ele>
        <time>2023-10-01T07:09:27.000Z</time>
      </trkpt>
      <trkpt lat="42.04504" lon="20.06526">
        <ele>726.89001464844</ele>
        <time>2023-10-01T07:09:26.000Z</time>
      </trkpt>
      <trkpt lat="42.04495" lon="20.06528">
        <ele>726.89001464844</ele>
        <time>2023-10-01T07:09:25.000Z</time>
      </trkpt>
      <trkpt lat="42.04487" lon="20.06527">
        <ele>726.89001464844</ele>
        <time>2023-10-01T07:09:24.000Z</time>
      </trkpt>
      <trkpt lat="42.0448" lon="20.06523">
        <ele>726.40997314453</ele>
        <time>2023-10-01T07:09:23.000Z</time>
      </trkpt>
      <trkpt lat="42.04475" lon="20.0652">
        <ele>725.92999267578</ele>
        <time>2023-10-01T07:09:22.000Z</time>
      </trkpt>
      <trkpt lat="42.04456" lon="20.06504">
        <ele>724.48999023438</ele>
        <time>2023-10-01T07:09:20.000Z</time>
      </trkpt>
      <trkpt lat="42.04442" lon="20.06491">
        <ele>724.01000976562</ele>
        <time>2023-10-01T07:09:19.000Z</time>
      </trkpt>
      <trkpt lat="42.04439" lon="20.06487">
        <ele>724.01000976562</ele>
        <time>2023-10-01T07:09:18.000Z</time>
      </trkpt>
      <trkpt lat="42.04429" lon="20.06477">
        <ele>723.53002929688</ele>
        <time>2023-10-01T07:09:17.000Z</time>
      </trkpt>
      <trkpt lat="42.04419" lon="20.06468">
        <ele>723.53002929688</ele>
        <time>2023-10-01T07:09:16.000Z</time>
      </trkpt>
      <trkpt lat="42.04414" lon="20.06465">
        <ele>723.53002929688</ele>
        <time>2023-10-01T07:09:15.000Z</time>
      </trkpt>
      <trkpt lat="42.04408" lon="20.06464">
        <ele>723.04998779297</ele>
        <time>2023-10-01T07:09:14.000Z</time>
      </trkpt>
      <trkpt lat="42.04401" lon="20.06466">
        <ele>722.57000732422</ele>
        <time>2023-10-01T07:09:13.000Z</time>
      </trkpt>
      <trkpt lat="42.04394" lon="20.06471">
        <ele>722.57000732422</ele>
        <time>2023-10-01T07:09:12.000Z</time>
      </trkpt>
      <trkpt lat="42.04391" lon="20.06475">
        <ele>722.57000732422</ele>
        <time>2023-10-01T07:09:11.000Z</time>
      </trkpt>
      <trkpt lat="42.0438" lon="20.06491">
        <ele>722.09002685547</ele>
        <time>2023-10-01T07:09:10.000Z</time>
      </trkpt>
      <trkpt lat="42.04364" lon="20.06513">
        <ele>721.60998535156</ele>
        <time>2023-10-01T07:09:08.000Z</time>
      </trkpt>
      <trkpt lat="42.04356" lon="20.06525">
        <ele>721.60998535156</ele>
        <time>2023-10-01T07:09:07.000Z</time>
      </trkpt>
      <trkpt lat="42.04348" lon="20.06535">
        <ele>721.13000488281</ele>
        <time>2023-10-01T07:09:06.000Z</time>
      </trkpt>
      <trkpt lat="42.04341" lon="20.06541">
        <ele>720.65002441406</ele>
        <time>2023-10-01T07:09:05.000Z</time>
      </trkpt>
      <trkpt lat="42.04332" lon="20.06546">
        <ele>720.15997314453</ele>
        <time>2023-10-01T07:09:04.000Z</time>
      </trkpt>
      <trkpt lat="42.04324" lon="20.0655">
        <ele>719.67999267578</ele>
        <time>2023-10-01T07:09:03.000Z</time>
      </trkpt>
      <trkpt lat="42.04316" lon="20.0655">
        <ele>719.67999267578</ele>
        <time>2023-10-01T07:09:02.000Z</time>
      </trkpt>
      <trkpt lat="42.04307" lon="20.06548">
        <ele>719.67999267578</ele>
        <time>2023-10-01T07:09:01.000Z</time>
      </trkpt>
      <trkpt lat="42.04296" lon="20.06545">
        <ele>719.20001220703</ele>
        <time>2023-10-01T07:09:00.000Z</time>
      </trkpt>
      <trkpt lat="42.04284" lon="20.0654">
        <ele>718.71997070312</ele>
        <time>2023-10-01T07:08:59.000Z</time>
      </trkpt>
      <trkpt lat="42.04281" lon="20.06539">
        <ele>718.71997070312</ele>
        <time>2023-10-01T07:08:58.000Z</time>
      </trkpt>
      <trkpt lat="42.04264" lon="20.0653">
        <ele>718.71997070312</ele>
        <time>2023-10-01T07:08:57.000Z</time>
      </trkpt>
      <trkpt lat="42.04261" lon="20.06528">
        <ele>718.71997070312</ele>
        <time>2023-10-01T07:08:56.000Z</time>
      </trkpt>
      <trkpt lat="42.0425" lon="20.06521">
        <ele>718.71997070312</ele>
        <time>2023-10-01T07:08:55.000Z</time>
      </trkpt>
      <trkpt lat="42.04244" lon="20.06518">
        <ele>718.23999023438</ele>
        <time>2023-10-01T07:08:54.000Z</time>
      </trkpt>
      <trkpt lat="42.04238" lon="20.06517">
        <ele>718.23999023438</ele>
        <time>2023-10-01T07:08:53.000Z</time>
      </trkpt>
      <trkpt lat="42.04234" lon="20.06519">
        <ele>718.23999023438</ele>
        <time>2023-10-01T07:08:52.000Z</time>
      </trkpt>
      <trkpt lat="42.0423" lon="20.06523">
        <ele>718.23999023438</ele>
        <time>2023-10-01T07:08:51.000Z</time>
      </trkpt>
      <trkpt lat="42.04226" lon="20.06529">
        <ele>716.79998779297</ele>
        <time>2023-10-01T07:08:50.000Z</time>
      </trkpt>
      <trkpt lat="42.04223" lon="20.06538">
        <ele>715.84002685547</ele>
        <time>2023-10-01T07:08:49.000Z</time>
      </trkpt>
      <trkpt lat="42.04221" lon="20.06548">
        <ele>714.88000488281</ele>
        <time>2023-10-01T07:08:48.000Z</time>
      </trkpt>
      <trkpt lat="42.0422" lon="20.06559">
        <ele>714.40002441406</ele>
        <time>2023-10-01T07:08:47.000Z</time>
      </trkpt>
      <trkpt lat="42.0422" lon="20.06585">
        <ele>713.91998291016</ele>
        <time>2023-10-01T07:08:45.000Z</time>
      </trkpt>
      <trkpt lat="42.0422" lon="20.06606">
        <ele>713.44000244141</ele>
        <time>2023-10-01T07:08:44.000Z</time>
      </trkpt>
      <trkpt lat="42.04219" lon="20.0662">
        <ele>713.44000244141</ele>
        <time>2023-10-01T07:08:43.000Z</time>
      </trkpt>
      <trkpt lat="42.04217" lon="20.06632">
        <ele>712.95001220703</ele>
        <time>2023-10-01T07:08:42.000Z</time>
      </trkpt>
      <trkpt lat="42.04214" lon="20.06649">
        <ele>712.46997070312</ele>
        <time>2023-10-01T07:08:41.000Z</time>
      </trkpt>
      <trkpt lat="42.04207" lon="20.06678">
        <ele>711.98999023438</ele>
        <time>2023-10-01T07:08:39.000Z</time>
      </trkpt>
      <trkpt lat="42.04203" lon="20.06691">
        <ele>711.51000976562</ele>
        <time>2023-10-01T07:08:38.000Z</time>
      </trkpt>
      <trkpt lat="42.04199" lon="20.06701">
        <ele>711.03002929688</ele>
        <time>2023-10-01T07:08:37.000Z</time>
      </trkpt>
      <trkpt lat="42.04194" lon="20.06709">
        <ele>711.03002929688</ele>
        <time>2023-10-01T07:08:36.000Z</time>
      </trkpt>
      <trkpt lat="42.04188" lon="20.06716">
        <ele>710.54998779297</ele>
        <time>2023-10-01T07:08:35.000Z</time>
      </trkpt>
      <trkpt lat="42.04184" lon="20.0672">
        <ele>710.07000732422</ele>
        <time>2023-10-01T07:08:34.000Z</time>
      </trkpt>
      <trkpt lat="42.04176" lon="20.06726">
        <ele>710.07000732422</ele>
        <time>2023-10-01T07:08:33.000Z</time>
      </trkpt>
      <trkpt lat="42.04161" lon="20.06735">
        <ele>709.59002685547</ele>
        <time>2023-10-01T07:08:32.000Z</time>
      </trkpt>
      <trkpt lat="42.04153" lon="20.06738">
        <ele>709.10998535156</ele>
        <time>2023-10-01T07:08:31.000Z</time>
      </trkpt>
      <trkpt lat="42.04143" lon="20.06738">
        <ele>708.63000488281</ele>
        <time>2023-10-01T07:08:30.000Z</time>
      </trkpt>
      <trkpt lat="42.04134" lon="20.06736">
        <ele>708.63000488281</ele>
        <time>2023-10-01T07:08:29.000Z</time>
      </trkpt>
      <trkpt lat="42.04128" lon="20.06734">
        <ele>708.15002441406</ele>
        <time>2023-10-01T07:08:28.000Z</time>
      </trkpt>
      <trkpt lat="42.04116" lon="20.06726">
        <ele>708.15002441406</ele>
        <time>2023-10-01T07:08:27.000Z</time>
      </trkpt>
      <trkpt lat="42.04107" lon="20.06719">
        <ele>707.66998291016</ele>
        <time>2023-10-01T07:08:26.000Z</time>
      </trkpt>
      <trkpt lat="42.04098" lon="20.06709">
        <ele>707.19000244141</ele>
        <time>2023-10-01T07:08:25.000Z</time>
      </trkpt>
      <trkpt lat="42.04097" lon="20.06707">
        <ele>707.19000244141</ele>
        <time>2023-10-01T07:08:24.000Z</time>
      </trkpt>
      <trkpt lat="42.04079" lon="20.06681">
        <ele>706.22998046875</ele>
        <time>2023-10-01T07:08:22.000Z</time>
      </trkpt>
      <trkpt lat="42.04069" lon="20.06665">
        <ele>705.75</ele>
        <time>2023-10-01T07:08:21.000Z</time>
      </trkpt>
      <trkpt lat="42.04062" lon="20.06655">
        <ele>705.26000976562</ele>
        <time>2023-10-01T07:08:20.000Z</time>
      </trkpt>
      <trkpt lat="42.04056" lon="20.06647">
        <ele>704.29998779297</ele>
        <time>2023-10-01T07:08:19.000Z</time>
      </trkpt>
      <trkpt lat="42.04048" lon="20.0664">
        <ele>704.29998779297</ele>
        <time>2023-10-01T07:08:18.000Z</time>
      </trkpt>
      <trkpt lat="42.0404" lon="20.06633">
        <ele>704.29998779297</ele>
        <time>2023-10-01T07:08:17.000Z</time>
      </trkpt>
      <trkpt lat="42.04034" lon="20.06629">
        <ele>703.82000732422</ele>
        <time>2023-10-01T07:08:16.000Z</time>
      </trkpt>
      <trkpt lat="42.04025" lon="20.06626">
        <ele>703.82000732422</ele>
        <time>2023-10-01T07:08:15.000Z</time>
      </trkpt>
      <trkpt lat="42.04015" lon="20.06625">
        <ele>703.82000732422</ele>
        <time>2023-10-01T07:08:14.000Z</time>
      </trkpt>
      <trkpt lat="42.04006" lon="20.06626">
        <ele>703.82000732422</ele>
        <time>2023-10-01T07:08:13.000Z</time>
      </trkpt>
      <trkpt lat="42.03998" lon="20.06629">
        <ele>703.34002685547</ele>
        <time>2023-10-01T07:08:12.000Z</time>
      </trkpt>
      <trkpt lat="42.03992" lon="20.06633">
        <ele>703.34002685547</ele>
        <time>2023-10-01T07:08:11.000Z</time>
      </trkpt>
      <trkpt lat="42.03986" lon="20.06639">
        <ele>703.34002685547</ele>
        <time>2023-10-01T07:08:10.000Z</time>
      </trkpt>
      <trkpt lat="42.03982" lon="20.06647">
        <ele>702.85998535156</ele>
        <time>2023-10-01T07:08:09.000Z</time>
      </trkpt>
      <trkpt lat="42.03979" lon="20.06654">
        <ele>702.38000488281</ele>
        <time>2023-10-01T07:08:08.000Z</time>
      </trkpt>
      <trkpt lat="42.03976" lon="20.06666">
        <ele>702.38000488281</ele>
        <time>2023-10-01T07:08:07.000Z</time>
      </trkpt>
      <trkpt lat="42.03975" lon="20.06676">
        <ele>702.38000488281</ele>
        <time>2023-10-01T07:08:06.000Z</time>
      </trkpt>
      <trkpt lat="42.03974" lon="20.06688">
        <ele>702.38000488281</ele>
        <time>2023-10-01T07:08:05.000Z</time>
      </trkpt>
      <trkpt lat="42.03973" lon="20.06698">
        <ele>702.38000488281</ele>
        <time>2023-10-01T07:08:04.000Z</time>
      </trkpt>
      <trkpt lat="42.0397" lon="20.06705">
        <ele>702.38000488281</ele>
        <time>2023-10-01T07:08:03.000Z</time>
      </trkpt>
      <trkpt lat="42.03966" lon="20.0671">
        <ele>702.38000488281</ele>
        <time>2023-10-01T07:08:02.000Z</time>
      </trkpt>
      <trkpt lat="42.03962" lon="20.06712">
        <ele>702.38000488281</ele>
        <time>2023-10-01T07:08:01.000Z</time>
      </trkpt>
      <trkpt lat="42.03957" lon="20.06712">
        <ele>702.38000488281</ele>
        <time>2023-10-01T07:08:00.000Z</time>
      </trkpt>
      <trkpt lat="42.03951" lon="20.06708">
        <ele>702.85998535156</ele>
        <time>2023-10-01T07:07:59.000Z</time>
      </trkpt>
      <trkpt lat="42.03945" lon="20.06702">
        <ele>702.38000488281</ele>
        <time>2023-10-01T07:07:58.000Z</time>
      </trkpt>
      <trkpt lat="42.03938" lon="20.06698">
        <ele>701.90002441406</ele>
        <time>2023-10-01T07:07:57.000Z</time>
      </trkpt>
      <trkpt lat="42.0393" lon="20.06694">
        <ele>701.90002441406</ele>
        <time>2023-10-01T07:07:56.000Z</time>
      </trkpt>
      <trkpt lat="42.03922" lon="20.06693">
        <ele>701.90002441406</ele>
        <time>2023-10-01T07:07:55.000Z</time>
      </trkpt>
      <trkpt lat="42.03915" lon="20.06694">
        <ele>701.41998291016</ele>
        <time>2023-10-01T07:07:54.000Z</time>
      </trkpt>
      <trkpt lat="42.039" lon="20.06697">
        <ele>701.41998291016</ele>
        <time>2023-10-01T07:07:53.000Z</time>
      </trkpt>
      <trkpt lat="42.03896" lon="20.06697">
        <ele>700.94000244141</ele>
        <time>2023-10-01T07:07:52.000Z</time>
      </trkpt>
      <trkpt lat="42.03878" lon="20.06699">
        <ele>700.94000244141</ele>
        <time>2023-10-01T07:07:51.000Z</time>
      </trkpt>
      <trkpt lat="42.03869" lon="20.06699">
        <ele>700.94000244141</ele>
        <time>2023-10-01T07:07:50.000Z</time>
      </trkpt>
      <trkpt lat="42.03858" lon="20.06698">
        <ele>700.46002197266</ele>
        <time>2023-10-01T07:07:49.000Z</time>
      </trkpt>
      <trkpt lat="42.03851" lon="20.06698">
        <ele>700.46002197266</ele>
        <time>2023-10-01T07:07:48.000Z</time>
      </trkpt>
      <trkpt lat="42.0384" lon="20.06699">
        <ele>699.97998046875</ele>
        <time>2023-10-01T07:07:47.000Z</time>
      </trkpt>
      <trkpt lat="42.03826" lon="20.06702">
        <ele>699.5</ele>
        <time>2023-10-01T07:07:46.000Z</time>
      </trkpt>
      <trkpt lat="42.03817" lon="20.06702">
        <ele>699.02001953125</ele>
        <time>2023-10-01T07:07:45.000Z</time>
      </trkpt>
      <trkpt lat="42.03808" lon="20.067">
        <ele>698.53002929688</ele>
        <time>2023-10-01T07:07:44.000Z</time>
      </trkpt>
      <trkpt lat="42.03802" lon="20.06698">
        <ele>698.53002929688</ele>
        <time>2023-10-01T07:07:43.000Z</time>
      </trkpt>
      <trkpt lat="42.03791" lon="20.06694">
        <ele>698.04998779297</ele>
        <time>2023-10-01T07:07:42.000Z</time>
      </trkpt>
      <trkpt lat="42.03784" lon="20.06692">
        <ele>697.57000732422</ele>
        <time>2023-10-01T07:07:41.000Z</time>
      </trkpt>
      <trkpt lat="42.03778" lon="20.06692">
        <ele>697.57000732422</ele>
        <time>2023-10-01T07:07:40.000Z</time>
      </trkpt>
      <trkpt lat="42.03772" lon="20.06695">
        <ele>696.60998535156</ele>
        <time>2023-10-01T07:07:39.000Z</time>
      </trkpt>
      <trkpt lat="42.03765" lon="20.06701">
        <ele>696.13000488281</ele>
        <time>2023-10-01T07:07:38.000Z</time>
      </trkpt>
      <trkpt lat="42.03758" lon="20.06711">
        <ele>695.65002441406</ele>
        <time>2023-10-01T07:07:37.000Z</time>
      </trkpt>
      <trkpt lat="42.03751" lon="20.0672">
        <ele>695.65002441406</ele>
        <time>2023-10-01T07:07:36.000Z</time>
      </trkpt>
      <trkpt lat="42.03743" lon="20.06726">
        <ele>695.16998291016</ele>
        <time>2023-10-01T07:07:35.000Z</time>
      </trkpt>
      <trkpt lat="42.03735" lon="20.06729">
        <ele>695.65002441406</ele>
        <time>2023-10-01T07:07:34.000Z</time>
      </trkpt>
      <trkpt lat="42.03727" lon="20.06731">
        <ele>696.13000488281</ele>
        <time>2023-10-01T07:07:33.000Z</time>
      </trkpt>
      <trkpt lat="42.03718" lon="20.06735">
        <ele>695.65002441406</ele>
        <time>2023-10-01T07:07:32.000Z</time>
      </trkpt>
      <trkpt lat="42.03716" lon="20.06736">
        <ele>695.65002441406</ele>
        <time>2023-10-01T07:07:31.000Z</time>
      </trkpt>
      <trkpt lat="42.03699" lon="20.06746">
        <ele>695.65002441406</ele>
        <time>2023-10-01T07:07:30.000Z</time>
      </trkpt>
      <trkpt lat="42.0369" lon="20.0675">
        <ele>696.60998535156</ele>
        <time>2023-10-01T07:07:29.000Z</time>
      </trkpt>
      <trkpt lat="42.03683" lon="20.0675">
        <ele>695.65002441406</ele>
        <time>2023-10-01T07:07:28.000Z</time>
      </trkpt>
      <trkpt lat="42.03676" lon="20.06746">
        <ele>695.16998291016</ele>
        <time>2023-10-01T07:07:27.000Z</time>
      </trkpt>
      <trkpt lat="42.0367" lon="20.06741">
        <ele>694.69000244141</ele>
        <time>2023-10-01T07:07:26.000Z</time>
      </trkpt>
      <trkpt lat="42.03662" lon="20.06731">
        <ele>694.21002197266</ele>
        <time>2023-10-01T07:07:25.000Z</time>
      </trkpt>
      <trkpt lat="42.03655" lon="20.06722">
        <ele>693.72998046875</ele>
        <time>2023-10-01T07:07:24.000Z</time>
      </trkpt>
      <trkpt lat="42.03648" lon="20.06711">
        <ele>693.25</ele>
        <time>2023-10-01T07:07:23.000Z</time>
      </trkpt>
      <trkpt lat="42.03643" lon="20.067">
        <ele>692.77001953125</ele>
        <time>2023-10-01T07:07:22.000Z</time>
      </trkpt>
      <trkpt lat="42.03641" lon="20.06695">
        <ele>692.28997802734</ele>
        <time>2023-10-01T07:07:21.000Z</time>
      </trkpt>
      <trkpt lat="42.03636" lon="20.06678">
        <ele>692.28997802734</ele>
        <time>2023-10-01T07:07:20.000Z</time>
      </trkpt>
      <trkpt lat="42.03633" lon="20.06668">
        <ele>691.80999755859</ele>
        <time>2023-10-01T07:07:19.000Z</time>
      </trkpt>
      <trkpt lat="42.0363" lon="20.06659">
        <ele>691.33001708984</ele>
        <time>2023-10-01T07:07:18.000Z</time>
      </trkpt>
      <trkpt lat="42.03626" lon="20.06654">
        <ele>690.84002685547</ele>
        <time>2023-10-01T07:07:17.000Z</time>
      </trkpt>
      <trkpt lat="42.03619" lon="20.06649">
        <ele>690.35998535156</ele>
        <time>2023-10-01T07:07:16.000Z</time>
      </trkpt>
      <trkpt lat="42.03611" lon="20.06647">
        <ele>689.40002441406</ele>
        <time>2023-10-01T07:07:15.000Z</time>
      </trkpt>
      <trkpt lat="42.03605" lon="20.06646">
        <ele>689.40002441406</ele>
        <time>2023-10-01T07:07:14.000Z</time>
      </trkpt>
      <trkpt lat="42.03594" lon="20.06646">
        <ele>688.91998291016</ele>
        <time>2023-10-01T07:07:13.000Z</time>
      </trkpt>
      <trkpt lat="42.03579" lon="20.06646">
        <ele>688.44000244141</ele>
        <time>2023-10-01T07:07:12.000Z</time>
      </trkpt>
      <trkpt lat="42.03569" lon="20.06645">
        <ele>688.44000244141</ele>
        <time>2023-10-01T07:07:11.000Z</time>
      </trkpt>
      <trkpt lat="42.03562" lon="20.06644">
        <ele>687.96002197266</ele>
        <time>2023-10-01T07:07:10.000Z</time>
      </trkpt>
      <trkpt lat="42.03554" lon="20.0664">
        <ele>687.47998046875</ele>
        <time>2023-10-01T07:07:09.000Z</time>
      </trkpt>
      <trkpt lat="42.0353" lon="20.06625">
        <ele>686.52001953125</ele>
        <time>2023-10-01T07:07:07.000Z</time>
      </trkpt>
      <trkpt lat="42.03526" lon="20.06622">
        <ele>686.52001953125</ele>
        <time>2023-10-01T07:07:06.000Z</time>
      </trkpt>
      <trkpt lat="42.03511" lon="20.06611">
        <ele>686.03997802734</ele>
        <time>2023-10-01T07:07:05.000Z</time>
      </trkpt>
      <trkpt lat="42.03503" lon="20.06602">
        <ele>685.55999755859</ele>
        <time>2023-10-01T07:07:04.000Z</time>
      </trkpt>
      <trkpt lat="42.03495" lon="20.06591">
        <ele>685.55999755859</ele>
        <time>2023-10-01T07:07:03.000Z</time>
      </trkpt>
      <trkpt lat="42.03487" lon="20.06578">
        <ele>685.55999755859</ele>
        <time>2023-10-01T07:07:02.000Z</time>
      </trkpt>
      <trkpt lat="42.0348" lon="20.06564">
        <ele>685.55999755859</ele>
        <time>2023-10-01T07:07:01.000Z</time>
      </trkpt>
      <trkpt lat="42.03475" lon="20.06553">
        <ele>686.03997802734</ele>
        <time>2023-10-01T07:07:00.000Z</time>
      </trkpt>
      <trkpt lat="42.03471" lon="20.06542">
        <ele>686.03997802734</ele>
        <time>2023-10-01T07:06:59.000Z</time>
      </trkpt>
      <trkpt lat="42.03468" lon="20.06532">
        <ele>686.03997802734</ele>
        <time>2023-10-01T07:06:58.000Z</time>
      </trkpt>
      <trkpt lat="42.03462" lon="20.06509">
        <ele>685.08001708984</ele>
        <time>2023-10-01T07:06:57.000Z</time>
      </trkpt>
      <trkpt lat="42.03454" lon="20.06483">
        <ele>683.63000488281</ele>
        <time>2023-10-01T07:06:55.000Z</time>
      </trkpt>
      <trkpt lat="42.03451" lon="20.06475">
        <ele>683.15002441406</ele>
        <time>2023-10-01T07:06:54.000Z</time>
      </trkpt>
      <trkpt lat="42.03445" lon="20.06464">
        <ele>682.66998291016</ele>
        <time>2023-10-01T07:06:53.000Z</time>
      </trkpt>
      <trkpt lat="42.0344" lon="20.06458">
        <ele>682.19000244141</ele>
        <time>2023-10-01T07:06:52.000Z</time>
      </trkpt>
      <trkpt lat="42.03434" lon="20.06452">
        <ele>681.22998046875</ele>
        <time>2023-10-01T07:06:51.000Z</time>
      </trkpt>
      <trkpt lat="42.03428" lon="20.06449">
        <ele>681.22998046875</ele>
        <time>2023-10-01T07:06:50.000Z</time>
      </trkpt>
      <trkpt lat="42.0342" lon="20.06447">
        <ele>681.71002197266</ele>
        <time>2023-10-01T07:06:49.000Z</time>
      </trkpt>
      <trkpt lat="42.03418" lon="20.06447">
        <ele>681.71002197266</ele>
        <time>2023-10-01T07:06:48.000Z</time>
      </trkpt>
      <trkpt lat="42.03406" lon="20.06448">
        <ele>683.15002441406</ele>
        <time>2023-10-01T07:06:47.000Z</time>
      </trkpt>
      <trkpt lat="42.03379" lon="20.06447">
        <ele>686.03997802734</ele>
        <time>2023-10-01T07:06:45.000Z</time>
      </trkpt>
      <trkpt lat="42.03367" lon="20.06449">
        <ele>687.47998046875</ele>
        <time>2023-10-01T07:06:44.000Z</time>
      </trkpt>
      <trkpt lat="42.03359" lon="20.06451">
        <ele>687.96002197266</ele>
        <time>2023-10-01T07:06:43.000Z</time>
      </trkpt>
      <trkpt lat="42.03348" lon="20.06454">
        <ele>689.40002441406</ele>
        <time>2023-10-01T07:06:42.000Z</time>
      </trkpt>
      <trkpt lat="42.03346" lon="20.06454">
        <ele>689.88000488281</ele>
        <time>2023-10-01T07:06:41.000Z</time>
      </trkpt>
      <trkpt lat="42.03335" lon="20.06456">
        <ele>690.84002685547</ele>
        <time>2023-10-01T07:06:40.000Z</time>
      </trkpt>
      <trkpt lat="42.03319" lon="20.06459">
        <ele>692.28997802734</ele>
        <time>2023-10-01T07:06:39.000Z</time>
      </trkpt>
      <trkpt lat="42.03298" lon="20.06465">
        <ele>694.21002197266</ele>
        <time>2023-10-01T07:06:37.000Z</time>
      </trkpt>
      <trkpt lat="42.03289" lon="20.06466">
        <ele>695.65002441406</ele>
        <time>2023-10-01T07:06:36.000Z</time>
      </trkpt>
      <trkpt lat="42.03283" lon="20.06466">
        <ele>695.65002441406</ele>
        <time>2023-10-01T07:06:35.000Z</time>
      </trkpt>
      <trkpt lat="42.03274" lon="20.06465">
        <ele>696.13000488281</ele>
        <time>2023-10-01T07:06:34.000Z</time>
      </trkpt>
      <trkpt lat="42.03261" lon="20.0646">
        <ele>696.60998535156</ele>
        <time>2023-10-01T07:06:33.000Z</time>
      </trkpt>
      <trkpt lat="42.03246" lon="20.06451">
        <ele>698.04998779297</ele>
        <time>2023-10-01T07:06:31.000Z</time>
      </trkpt>
      <trkpt lat="42.03239" lon="20.06449">
        <ele>698.04998779297</ele>
        <time>2023-10-01T07:06:30.000Z</time>
      </trkpt>
      <trkpt lat="42.03233" lon="20.06449">
        <ele>698.53002929688</ele>
        <time>2023-10-01T07:06:29.000Z</time>
      </trkpt>
      <trkpt lat="42.03226" lon="20.06451">
        <ele>699.02001953125</ele>
        <time>2023-10-01T07:06:28.000Z</time>
      </trkpt>
      <trkpt lat="42.03217" lon="20.06454">
        <ele>699.5</ele>
        <time>2023-10-01T07:06:27.000Z</time>
      </trkpt>
      <trkpt lat="42.03209" lon="20.06456">
        <ele>699.97998046875</ele>
        <time>2023-10-01T07:06:26.000Z</time>
      </trkpt>
      <trkpt lat="42.03196" lon="20.0646">
        <ele>700.46002197266</ele>
        <time>2023-10-01T07:06:25.000Z</time>
      </trkpt>
      <trkpt lat="42.03188" lon="20.06462">
        <ele>701.41998291016</ele>
        <time>2023-10-01T07:06:24.000Z</time>
      </trkpt>
      <trkpt lat="42.03175" lon="20.06462">
        <ele>702.38000488281</ele>
        <time>2023-10-01T07:06:23.000Z</time>
      </trkpt>
      <trkpt lat="42.03165" lon="20.06463">
        <ele>703.34002685547</ele>
        <time>2023-10-01T07:06:22.000Z</time>
      </trkpt>
      <trkpt lat="42.03135" lon="20.06464">
        <ele>706.22998046875</ele>
        <time>2023-10-01T07:06:19.000Z</time>
      </trkpt>
      <trkpt lat="42.03126" lon="20.06462">
        <ele>707.66998291016</ele>
        <time>2023-10-01T07:06:18.000Z</time>
      </trkpt>
      <trkpt lat="42.03124" lon="20.06461">
        <ele>708.15002441406</ele>
        <time>2023-10-01T07:06:17.000Z</time>
      </trkpt>
      <trkpt lat="42.03112" lon="20.06454">
        <ele>709.59002685547</ele>
        <time>2023-10-01T07:06:16.000Z</time>
      </trkpt>
      <trkpt lat="42.03102" lon="20.0645">
        <ele>710.54998779297</ele>
        <time>2023-10-01T07:06:15.000Z</time>
      </trkpt>
      <trkpt lat="42.03093" lon="20.06449">
        <ele>711.51000976562</ele>
        <time>2023-10-01T07:06:14.000Z</time>
      </trkpt>
      <trkpt lat="42.03091" lon="20.06448">
        <ele>711.98999023438</ele>
        <time>2023-10-01T07:06:13.000Z</time>
      </trkpt>
      <trkpt lat="42.03076" lon="20.06449">
        <ele>712.95001220703</ele>
        <time>2023-10-01T07:06:12.000Z</time>
      </trkpt>
      <trkpt lat="42.03068" lon="20.06449">
        <ele>713.91998291016</ele>
        <time>2023-10-01T07:06:11.000Z</time>
      </trkpt>
      <trkpt lat="42.0306" lon="20.06446">
        <ele>714.88000488281</ele>
        <time>2023-10-01T07:06:10.000Z</time>
      </trkpt>
      <trkpt lat="42.0305" lon="20.06442">
        <ele>715.35998535156</ele>
        <time>2023-10-01T07:06:09.000Z</time>
      </trkpt>
      <trkpt lat="42.03047" lon="20.06441">
        <ele>715.35998535156</ele>
        <time>2023-10-01T07:06:08.000Z</time>
      </trkpt>
      <trkpt lat="42.03032" lon="20.06435">
        <ele>715.84002685547</ele>
        <time>2023-10-01T07:06:07.000Z</time>
      </trkpt>
      <trkpt lat="42.03023" lon="20.06435">
        <ele>716.32000732422</ele>
        <time>2023-10-01T07:06:06.000Z</time>
      </trkpt>
      <trkpt lat="42.03016" lon="20.06435">
        <ele>716.32000732422</ele>
        <time>2023-10-01T07:06:05.000Z</time>
      </trkpt>
      <trkpt lat="42.03002" lon="20.06437">
        <ele>716.32000732422</ele>
        <time>2023-10-01T07:06:04.000Z</time>
      </trkpt>
      <trkpt lat="42.03001" lon="20.06438">
        <ele>716.32000732422</ele>
        <time>2023-10-01T07:06:03.000Z</time>
      </trkpt>
      <trkpt lat="42.02986" lon="20.06441">
        <ele>716.32000732422</ele>
        <time>2023-10-01T07:06:02.000Z</time>
      </trkpt>
      <trkpt lat="42.02979" lon="20.06443">
        <ele>716.32000732422</ele>
        <time>2023-10-01T07:06:01.000Z</time>
      </trkpt>
      <trkpt lat="42.02966" lon="20.06447">
        <ele>716.32000732422</ele>
        <time>2023-10-01T07:06:00.000Z</time>
      </trkpt>
      <trkpt lat="42.02958" lon="20.06451">
        <ele>716.32000732422</ele>
        <time>2023-10-01T07:05:59.000Z</time>
      </trkpt>
      <trkpt lat="42.02952" lon="20.06455">
        <ele>715.84002685547</ele>
        <time>2023-10-01T07:05:58.000Z</time>
      </trkpt>
      <trkpt lat="42.02948" lon="20.06462">
        <ele>715.35998535156</ele>
        <time>2023-10-01T07:05:57.000Z</time>
      </trkpt>
      <trkpt lat="42.02945" lon="20.06471">
        <ele>714.40002441406</ele>
        <time>2023-10-01T07:05:56.000Z</time>
      </trkpt>
      <trkpt lat="42.02943" lon="20.06482">
        <ele>713.91998291016</ele>
        <time>2023-10-01T07:05:55.000Z</time>
      </trkpt>
      <trkpt lat="42.02943" lon="20.06493">
        <ele>713.44000244141</ele>
        <time>2023-10-01T07:05:54.000Z</time>
      </trkpt>
      <trkpt lat="42.02942" lon="20.06504">
        <ele>712.95001220703</ele>
        <time>2023-10-01T07:05:53.000Z</time>
      </trkpt>
      <trkpt lat="42.0294" lon="20.06515">
        <ele>711.98999023438</ele>
        <time>2023-10-01T07:05:52.000Z</time>
      </trkpt>
      <trkpt lat="42.02935" lon="20.06524">
        <ele>711.98999023438</ele>
        <time>2023-10-01T07:05:51.000Z</time>
      </trkpt>
      <trkpt lat="42.02934" lon="20.06526">
        <ele>711.51000976562</ele>
        <time>2023-10-01T07:05:50.000Z</time>
      </trkpt>
      <trkpt lat="42.02922" lon="20.06541">
        <ele>711.98999023438</ele>
        <time>2023-10-01T07:05:49.000Z</time>
      </trkpt>
      <trkpt lat="42.02917" lon="20.06549">
        <ele>711.98999023438</ele>
        <time>2023-10-01T07:05:48.000Z</time>
      </trkpt>
      <trkpt lat="42.02914" lon="20.06558">
        <ele>712.95001220703</ele>
        <time>2023-10-01T07:05:47.000Z</time>
      </trkpt>
      <trkpt lat="42.02912" lon="20.06567">
        <ele>712.95001220703</ele>
        <time>2023-10-01T07:05:46.000Z</time>
      </trkpt>
      <trkpt lat="42.02912" lon="20.06577">
        <ele>713.44000244141</ele>
        <time>2023-10-01T07:05:45.000Z</time>
      </trkpt>
      <trkpt lat="42.02915" lon="20.06585">
        <ele>712.95001220703</ele>
        <time>2023-10-01T07:05:44.000Z</time>
      </trkpt>
      <trkpt lat="42.02917" lon="20.0659">
        <ele>712.95001220703</ele>
        <time>2023-10-01T07:05:43.000Z</time>
      </trkpt>
      <trkpt lat="42.02923" lon="20.06598">
        <ele>712.95001220703</ele>
        <time>2023-10-01T07:05:42.000Z</time>
      </trkpt>
      <trkpt lat="42.02934" lon="20.06609">
        <ele>711.98999023438</ele>
        <time>2023-10-01T07:05:41.000Z</time>
      </trkpt>
      <trkpt lat="42.0294" lon="20.06616">
        <ele>711.51000976562</ele>
        <time>2023-10-01T07:05:40.000Z</time>
      </trkpt>
      <trkpt lat="42.02944" lon="20.06624">
        <ele>711.03002929688</ele>
        <time>2023-10-01T07:05:39.000Z</time>
      </trkpt>
      <trkpt lat="42.02946" lon="20.06631">
        <ele>710.54998779297</ele>
        <time>2023-10-01T07:05:38.000Z</time>
      </trkpt>
      <trkpt lat="42.02947" lon="20.06637">
        <ele>710.54998779297</ele>
        <time>2023-10-01T07:05:37.000Z</time>
      </trkpt>
      <trkpt lat="42.02945" lon="20.06643">
        <ele>710.54998779297</ele>
        <time>2023-10-01T07:05:36.000Z</time>
      </trkpt>
      <trkpt lat="42.02943" lon="20.06647">
        <ele>710.54998779297</ele>
        <time>2023-10-01T07:05:35.000Z</time>
      </trkpt>
      <trkpt lat="42.0294" lon="20.06649">
        <ele>710.54998779297</ele>
        <time>2023-10-01T07:05:34.000Z</time>
      </trkpt>
      <trkpt lat="42.02932" lon="20.06652">
        <ele>710.07000732422</ele>
        <time>2023-10-01T07:05:33.000Z</time>
      </trkpt>
      <trkpt lat="42.02928" lon="20.06653">
        <ele>710.07000732422</ele>
        <time>2023-10-01T07:05:32.000Z</time>
      </trkpt>
      <trkpt lat="42.02916" lon="20.06656">
        <ele>710.07000732422</ele>
        <time>2023-10-01T07:05:31.000Z</time>
      </trkpt>
      <trkpt lat="42.02902" lon="20.06659">
        <ele>710.07000732422</ele>
        <time>2023-10-01T07:05:30.000Z</time>
      </trkpt>
      <trkpt lat="42.02892" lon="20.06658">
        <ele>709.59002685547</ele>
        <time>2023-10-01T07:05:29.000Z</time>
      </trkpt>
      <trkpt lat="42.02883" lon="20.06656">
        <ele>709.59002685547</ele>
        <time>2023-10-01T07:05:28.000Z</time>
      </trkpt>
      <trkpt lat="42.02874" lon="20.06654">
        <ele>709.59002685547</ele>
        <time>2023-10-01T07:05:27.000Z</time>
      </trkpt>
      <trkpt lat="42.02854" lon="20.06647">
        <ele>709.59002685547</ele>
        <time>2023-10-01T07:05:25.000Z</time>
      </trkpt>
      <trkpt lat="42.02842" lon="20.06644">
        <ele>709.10998535156</ele>
        <time>2023-10-01T07:05:24.000Z</time>
      </trkpt>
      <trkpt lat="42.02833" lon="20.06641">
        <ele>709.10998535156</ele>
        <time>2023-10-01T07:05:23.000Z</time>
      </trkpt>
      <trkpt lat="42.02826" lon="20.06641">
        <ele>709.10998535156</ele>
        <time>2023-10-01T07:05:22.000Z</time>
      </trkpt>
      <trkpt lat="42.02821" lon="20.06642">
        <ele>709.10998535156</ele>
        <time>2023-10-01T07:05:21.000Z</time>
      </trkpt>
      <trkpt lat="42.02816" lon="20.06645">
        <ele>709.10998535156</ele>
        <time>2023-10-01T07:05:20.000Z</time>
      </trkpt>
      <trkpt lat="42.02811" lon="20.06651">
        <ele>709.10998535156</ele>
        <time>2023-10-01T07:05:19.000Z</time>
      </trkpt>
      <trkpt lat="42.02808" lon="20.06657">
        <ele>708.15002441406</ele>
        <time>2023-10-01T07:05:18.000Z</time>
      </trkpt>
      <trkpt lat="42.02806" lon="20.06666">
        <ele>707.66998291016</ele>
        <time>2023-10-01T07:05:17.000Z</time>
      </trkpt>
      <trkpt lat="42.02806" lon="20.06676">
        <ele>706.22998046875</ele>
        <time>2023-10-01T07:05:16.000Z</time>
      </trkpt>
      <trkpt lat="42.02808" lon="20.06686">
        <ele>705.26000976562</ele>
        <time>2023-10-01T07:05:15.000Z</time>
      </trkpt>
      <trkpt lat="42.02813" lon="20.06694">
        <ele>705.26000976562</ele>
        <time>2023-10-01T07:05:14.000Z</time>
      </trkpt>
      <trkpt lat="42.02818" lon="20.06702">
        <ele>705.26000976562</ele>
        <time>2023-10-01T07:05:13.000Z</time>
      </trkpt>
      <trkpt lat="42.02825" lon="20.06709">
        <ele>704.78002929688</ele>
        <time>2023-10-01T07:05:12.000Z</time>
      </trkpt>
      <trkpt lat="42.02833" lon="20.06716">
        <ele>704.29998779297</ele>
        <time>2023-10-01T07:05:11.000Z</time>
      </trkpt>
      <trkpt lat="42.02846" lon="20.06728">
        <ele>704.29998779297</ele>
        <time>2023-10-01T07:05:09.000Z</time>
      </trkpt>
      <trkpt lat="42.02852" lon="20.06734">
        <ele>703.82000732422</ele>
        <time>2023-10-01T07:05:08.000Z</time>
      </trkpt>
      <trkpt lat="42.02863" lon="20.06748">
        <ele>703.34002685547</ele>
        <time>2023-10-01T07:05:07.000Z</time>
      </trkpt>
      <trkpt lat="42.02868" lon="20.06753">
        <ele>702.85998535156</ele>
        <time>2023-10-01T07:05:06.000Z</time>
      </trkpt>
      <trkpt lat="42.0287" lon="20.06755">
        <ele>702.85998535156</ele>
        <time>2023-10-01T07:05:05.000Z</time>
      </trkpt>
      <trkpt lat="42.02884" lon="20.06765">
        <ele>702.38000488281</ele>
        <time>2023-10-01T07:05:04.000Z</time>
      </trkpt>
      <trkpt lat="42.02889" lon="20.06771">
        <ele>702.38000488281</ele>
        <time>2023-10-01T07:05:03.000Z</time>
      </trkpt>
      <trkpt lat="42.02892" lon="20.06776">
        <ele>702.38000488281</ele>
        <time>2023-10-01T07:05:02.000Z</time>
      </trkpt>
      <trkpt lat="42.02894" lon="20.06782">
        <ele>702.38000488281</ele>
        <time>2023-10-01T07:05:01.000Z</time>
      </trkpt>
      <trkpt lat="42.02893" lon="20.06787">
        <ele>702.38000488281</ele>
        <time>2023-10-01T07:05:00.000Z</time>
      </trkpt>
      <trkpt lat="42.0289" lon="20.06793">
        <ele>701.90002441406</ele>
        <time>2023-10-01T07:04:59.000Z</time>
      </trkpt>
      <trkpt lat="42.02885" lon="20.06796">
        <ele>702.38000488281</ele>
        <time>2023-10-01T07:04:58.000Z</time>
      </trkpt>
      <trkpt lat="42.02879" lon="20.06798">
        <ele>702.85998535156</ele>
        <time>2023-10-01T07:04:57.000Z</time>
      </trkpt>
      <trkpt lat="42.02863" lon="20.06798">
        <ele>702.85998535156</ele>
        <time>2023-10-01T07:04:55.000Z</time>
      </trkpt>
      <trkpt lat="42.02852" lon="20.06797">
        <ele>702.85998535156</ele>
        <time>2023-10-01T07:04:54.000Z</time>
      </trkpt>
      <trkpt lat="42.02846" lon="20.06797">
        <ele>702.38000488281</ele>
        <time>2023-10-01T07:04:53.000Z</time>
      </trkpt>
      <trkpt lat="42.02838" lon="20.06799">
        <ele>702.38000488281</ele>
        <time>2023-10-01T07:04:52.000Z</time>
      </trkpt>
      <trkpt lat="42.02832" lon="20.06801">
        <ele>701.90002441406</ele>
        <time>2023-10-01T07:04:51.000Z</time>
      </trkpt>
      <trkpt lat="42.02824" lon="20.06805">
        <ele>700.94000244141</ele>
        <time>2023-10-01T07:04:50.000Z</time>
      </trkpt>
      <trkpt lat="42.02821" lon="20.06807">
        <ele>700.94000244141</ele>
        <time>2023-10-01T07:04:49.000Z</time>
      </trkpt>
      <trkpt lat="42.02807" lon="20.06812">
        <ele>700.94000244141</ele>
        <time>2023-10-01T07:04:48.000Z</time>
      </trkpt>
      <trkpt lat="42.02798" lon="20.06816">
        <ele>699.5</ele>
        <time>2023-10-01T07:04:47.000Z</time>
      </trkpt>
      <trkpt lat="42.02797" lon="20.06817">
        <ele>699.5</ele>
        <time>2023-10-01T07:04:46.000Z</time>
      </trkpt>
      <trkpt lat="42.02783" lon="20.06827">
        <ele>699.02001953125</ele>
        <time>2023-10-01T07:04:45.000Z</time>
      </trkpt>
      <trkpt lat="42.02776" lon="20.06834">
        <ele>699.02001953125</ele>
        <time>2023-10-01T07:04:44.000Z</time>
      </trkpt>
      <trkpt lat="42.02775" lon="20.06835">
        <ele>699.02001953125</ele>
        <time>2023-10-01T07:04:43.000Z</time>
      </trkpt>
      <trkpt lat="42.02765" lon="20.06848">
        <ele>698.53002929688</ele>
        <time>2023-10-01T07:04:42.000Z</time>
      </trkpt>
      <trkpt lat="42.02756" lon="20.06858">
        <ele>698.53002929688</ele>
        <time>2023-10-01T07:04:41.000Z</time>
      </trkpt>
      <trkpt lat="42.02752" lon="20.06862">
        <ele>698.53002929688</ele>
        <time>2023-10-01T07:04:40.000Z</time>
      </trkpt>
      <trkpt lat="42.02745" lon="20.06868">
        <ele>698.53002929688</ele>
        <time>2023-10-01T07:04:39.000Z</time>
      </trkpt>
      <trkpt lat="42.02738" lon="20.06873">
        <ele>698.53002929688</ele>
        <time>2023-10-01T07:04:38.000Z</time>
      </trkpt>
      <trkpt lat="42.02733" lon="20.06878">
        <ele>698.04998779297</ele>
        <time>2023-10-01T07:04:37.000Z</time>
      </trkpt>
      <trkpt lat="42.0273" lon="20.06883">
        <ele>697.57000732422</ele>
        <time>2023-10-01T07:04:36.000Z</time>
      </trkpt>
      <trkpt lat="42.02727" lon="20.06889">
        <ele>697.09002685547</ele>
        <time>2023-10-01T07:04:35.000Z</time>
      </trkpt>
      <trkpt lat="42.02723" lon="20.06896">
        <ele>696.60998535156</ele>
        <time>2023-10-01T07:04:34.000Z</time>
      </trkpt>
      <trkpt lat="42.0272" lon="20.06901">
        <ele>696.60998535156</ele>
        <time>2023-10-01T07:04:33.000Z</time>
      </trkpt>
      <trkpt lat="42.02714" lon="20.06911">
        <ele>696.13000488281</ele>
        <time>2023-10-01T07:04:32.000Z</time>
      </trkpt>
      <trkpt lat="42.0271" lon="20.06919">
        <ele>696.13000488281</ele>
        <time>2023-10-01T07:04:31.000Z</time>
      </trkpt>
      <trkpt lat="42.02708" lon="20.06928">
        <ele>695.65002441406</ele>
        <time>2023-10-01T07:04:30.000Z</time>
      </trkpt>
      <trkpt lat="42.02707" lon="20.06937">
        <ele>694.69000244141</ele>
        <time>2023-10-01T07:04:29.000Z</time>
      </trkpt>
      <trkpt lat="42.02708" lon="20.06945">
        <ele>693.72998046875</ele>
        <time>2023-10-01T07:04:28.000Z</time>
      </trkpt>
      <trkpt lat="42.02709" lon="20.06954">
        <ele>693.25</ele>
        <time>2023-10-01T07:04:27.000Z</time>
      </trkpt>
      <trkpt lat="42.02712" lon="20.0696">
        <ele>693.25</ele>
        <time>2023-10-01T07:04:26.000Z</time>
      </trkpt>
      <trkpt lat="42.02717" lon="20.06971">
        <ele>692.77001953125</ele>
        <time>2023-10-01T07:04:25.000Z</time>
      </trkpt>
      <trkpt lat="42.02721" lon="20.0698">
        <ele>692.28997802734</ele>
        <time>2023-10-01T07:04:24.000Z</time>
      </trkpt>
      <trkpt lat="42.02725" lon="20.06991">
        <ele>691.80999755859</ele>
        <time>2023-10-01T07:04:23.000Z</time>
      </trkpt>
      <trkpt lat="42.02729" lon="20.07001">
        <ele>691.33001708984</ele>
        <time>2023-10-01T07:04:22.000Z</time>
      </trkpt>
      <trkpt lat="42.02732" lon="20.07013">
        <ele>691.33001708984</ele>
        <time>2023-10-01T07:04:21.000Z</time>
      </trkpt>
      <trkpt lat="42.02733" lon="20.07021">
        <ele>691.33001708984</ele>
        <time>2023-10-01T07:04:20.000Z</time>
      </trkpt>
      <trkpt lat="42.02733" lon="20.0703">
        <ele>690.84002685547</ele>
        <time>2023-10-01T07:04:19.000Z</time>
      </trkpt>
      <trkpt lat="42.02732" lon="20.07037">
        <ele>690.84002685547</ele>
        <time>2023-10-01T07:04:18.000Z</time>
      </trkpt>
      <trkpt lat="42.02729" lon="20.07041">
        <ele>690.84002685547</ele>
        <time>2023-10-01T07:04:17.000Z</time>
      </trkpt>
      <trkpt lat="42.02725" lon="20.07043">
        <ele>690.35998535156</ele>
        <time>2023-10-01T07:04:16.000Z</time>
      </trkpt>
      <trkpt lat="42.0272" lon="20.07043">
        <ele>691.33001708984</ele>
        <time>2023-10-01T07:04:15.000Z</time>
      </trkpt>
      <trkpt lat="42.02714" lon="20.07041">
        <ele>691.33001708984</ele>
        <time>2023-10-01T07:04:14.000Z</time>
      </trkpt>
      <trkpt lat="42.02709" lon="20.07038">
        <ele>691.80999755859</ele>
        <time>2023-10-01T07:04:13.000Z</time>
      </trkpt>
      <trkpt lat="42.02689" lon="20.07026">
        <ele>692.77001953125</ele>
        <time>2023-10-01T07:04:11.000Z</time>
      </trkpt>
      <trkpt lat="42.02681" lon="20.07019">
        <ele>692.77001953125</ele>
        <time>2023-10-01T07:04:10.000Z</time>
      </trkpt>
      <trkpt lat="42.02674" lon="20.07013">
        <ele>693.25</ele>
        <time>2023-10-01T07:04:09.000Z</time>
      </trkpt>
      <trkpt lat="42.02669" lon="20.07007">
        <ele>693.25</ele>
        <time>2023-10-01T07:04:08.000Z</time>
      </trkpt>
      <trkpt lat="42.02662" lon="20.06995">
        <ele>693.72998046875</ele>
        <time>2023-10-01T07:04:07.000Z</time>
      </trkpt>
      <trkpt lat="42.02652" lon="20.06982">
        <ele>694.69000244141</ele>
        <time>2023-10-01T07:04:06.000Z</time>
      </trkpt>
      <trkpt lat="42.02645" lon="20.06974">
        <ele>694.69000244141</ele>
        <time>2023-10-01T07:04:05.000Z</time>
      </trkpt>
      <trkpt lat="42.02639" lon="20.06969">
        <ele>695.16998291016</ele>
        <time>2023-10-01T07:04:04.000Z</time>
      </trkpt>
      <trkpt lat="42.02631" lon="20.06964">
        <ele>695.16998291016</ele>
        <time>2023-10-01T07:04:03.000Z</time>
      </trkpt>
      <trkpt lat="42.02619" lon="20.06959">
        <ele>695.16998291016</ele>
        <time>2023-10-01T07:04:02.000Z</time>
      </trkpt>
      <trkpt lat="42.02611" lon="20.06956">
        <ele>695.65002441406</ele>
        <time>2023-10-01T07:04:01.000Z</time>
      </trkpt>
      <trkpt lat="42.02604" lon="20.06954">
        <ele>696.13000488281</ele>
        <time>2023-10-01T07:04:00.000Z</time>
      </trkpt>
      <trkpt lat="42.02597" lon="20.06954">
        <ele>696.60998535156</ele>
        <time>2023-10-01T07:03:59.000Z</time>
      </trkpt>
      <trkpt lat="42.02592" lon="20.06956">
        <ele>697.09002685547</ele>
        <time>2023-10-01T07:03:58.000Z</time>
      </trkpt>
      <trkpt lat="42.02589" lon="20.06959">
        <ele>697.57000732422</ele>
        <time>2023-10-01T07:03:57.000Z</time>
      </trkpt>
      <trkpt lat="42.02586" lon="20.06965">
        <ele>697.57000732422</ele>
        <time>2023-10-01T07:03:56.000Z</time>
      </trkpt>
      <trkpt lat="42.02584" lon="20.06973">
        <ele>697.57000732422</ele>
        <time>2023-10-01T07:03:55.000Z</time>
      </trkpt>
      <trkpt lat="42.02583" lon="20.06982">
        <ele>697.57000732422</ele>
        <time>2023-10-01T07:03:54.000Z</time>
      </trkpt>
      <trkpt lat="42.02581" lon="20.06992">
        <ele>698.04998779297</ele>
        <time>2023-10-01T07:03:53.000Z</time>
      </trkpt>
      <trkpt lat="42.02577" lon="20.07002">
        <ele>698.04998779297</ele>
        <time>2023-10-01T07:03:52.000Z</time>
      </trkpt>
      <trkpt lat="42.02573" lon="20.07012">
        <ele>698.53002929688</ele>
        <time>2023-10-01T07:03:51.000Z</time>
      </trkpt>
      <trkpt lat="42.02562" lon="20.07032">
        <ele>698.04998779297</ele>
        <time>2023-10-01T07:03:49.000Z</time>
      </trkpt>
      <trkpt lat="42.02561" lon="20.07034">
        <ele>698.04998779297</ele>
        <time>2023-10-01T07:03:48.000Z</time>
      </trkpt>
      <trkpt lat="42.02553" lon="20.07051">
        <ele>697.09002685547</ele>
        <time>2023-10-01T07:03:47.000Z</time>
      </trkpt>
      <trkpt lat="42.02547" lon="20.0706">
        <ele>696.60998535156</ele>
        <time>2023-10-01T07:03:46.000Z</time>
      </trkpt>
      <trkpt lat="42.0254" lon="20.07067">
        <ele>696.13000488281</ele>
        <time>2023-10-01T07:03:45.000Z</time>
      </trkpt>
      <trkpt lat="42.02533" lon="20.07071">
        <ele>696.13000488281</ele>
        <time>2023-10-01T07:03:44.000Z</time>
      </trkpt>
      <trkpt lat="42.02524" lon="20.07076">
        <ele>695.65002441406</ele>
        <time>2023-10-01T07:03:43.000Z</time>
      </trkpt>
      <trkpt lat="42.02517" lon="20.07079">
        <ele>695.16998291016</ele>
        <time>2023-10-01T07:03:42.000Z</time>
      </trkpt>
      <trkpt lat="42.02508" lon="20.07082">
        <ele>695.16998291016</ele>
        <time>2023-10-01T07:03:41.000Z</time>
      </trkpt>
      <trkpt lat="42.02493" lon="20.07086">
        <ele>695.16998291016</ele>
        <time>2023-10-01T07:03:40.000Z</time>
      </trkpt>
      <trkpt lat="42.02485" lon="20.07088">
        <ele>695.16998291016</ele>
        <time>2023-10-01T07:03:39.000Z</time>
      </trkpt>
      <trkpt lat="42.02474" lon="20.07094">
        <ele>695.16998291016</ele>
        <time>2023-10-01T07:03:38.000Z</time>
      </trkpt>
      <trkpt lat="42.02467" lon="20.07099">
        <ele>695.16998291016</ele>
        <time>2023-10-01T07:03:37.000Z</time>
      </trkpt>
      <trkpt lat="42.0246" lon="20.07106">
        <ele>695.16998291016</ele>
        <time>2023-10-01T07:03:36.000Z</time>
      </trkpt>
      <trkpt lat="42.02454" lon="20.07113">
        <ele>695.16998291016</ele>
        <time>2023-10-01T07:03:35.000Z</time>
      </trkpt>
      <trkpt lat="42.0245" lon="20.0712">
        <ele>695.16998291016</ele>
        <time>2023-10-01T07:03:34.000Z</time>
      </trkpt>
      <trkpt lat="42.02448" lon="20.07127">
        <ele>694.69000244141</ele>
        <time>2023-10-01T07:03:33.000Z</time>
      </trkpt>
      <trkpt lat="42.02446" lon="20.07135">
        <ele>694.21002197266</ele>
        <time>2023-10-01T07:03:32.000Z</time>
      </trkpt>
      <trkpt lat="42.02447" lon="20.07143">
        <ele>693.72998046875</ele>
        <time>2023-10-01T07:03:31.000Z</time>
      </trkpt>
      <trkpt lat="42.02449" lon="20.07153">
        <ele>693.72998046875</ele>
        <time>2023-10-01T07:03:30.000Z</time>
      </trkpt>
      <trkpt lat="42.02451" lon="20.07161">
        <ele>693.25</ele>
        <time>2023-10-01T07:03:29.000Z</time>
      </trkpt>
      <trkpt lat="42.02454" lon="20.07171">
        <ele>693.25</ele>
        <time>2023-10-01T07:03:28.000Z</time>
      </trkpt>
      <trkpt lat="42.02457" lon="20.07181">
        <ele>693.25</ele>
        <time>2023-10-01T07:03:27.000Z</time>
      </trkpt>
      <trkpt lat="42.02459" lon="20.07187">
        <ele>692.77001953125</ele>
        <time>2023-10-01T07:03:26.000Z</time>
      </trkpt>
      <trkpt lat="42.0246" lon="20.07194">
        <ele>692.77001953125</ele>
        <time>2023-10-01T07:03:25.000Z</time>
      </trkpt>
      <trkpt lat="42.02462" lon="20.07208">
        <ele>692.28997802734</ele>
        <time>2023-10-01T07:03:24.000Z</time>
      </trkpt>
      <trkpt lat="42.02462" lon="20.07217">
        <ele>691.80999755859</ele>
        <time>2023-10-01T07:03:23.000Z</time>
      </trkpt>
      <trkpt lat="42.02462" lon="20.07226">
        <ele>690.84002685547</ele>
        <time>2023-10-01T07:03:22.000Z</time>
      </trkpt>
      <trkpt lat="42.0246" lon="20.07235">
        <ele>690.35998535156</ele>
        <time>2023-10-01T07:03:21.000Z</time>
      </trkpt>
      <trkpt lat="42.02458" lon="20.07243">
        <ele>689.88000488281</ele>
        <time>2023-10-01T07:03:20.000Z</time>
      </trkpt>
      <trkpt lat="42.02455" lon="20.07248">
        <ele>689.40002441406</ele>
        <time>2023-10-01T07:03:19.000Z</time>
      </trkpt>
      <trkpt lat="42.0245" lon="20.07255">
        <ele>688.91998291016</ele>
        <time>2023-10-01T07:03:18.000Z</time>
      </trkpt>
      <trkpt lat="42.02445" lon="20.0726">
        <ele>688.44000244141</ele>
        <time>2023-10-01T07:03:17.000Z</time>
      </trkpt>
      <trkpt lat="42.0244" lon="20.07264">
        <ele>688.44000244141</ele>
        <time>2023-10-01T07:03:16.000Z</time>
      </trkpt>
      <trkpt lat="42.02438" lon="20.07266">
        <ele>687.96002197266</ele>
        <time>2023-10-01T07:03:15.000Z</time>
      </trkpt>
      <trkpt lat="42.02425" lon="20.07275">
        <ele>687</ele>
        <time>2023-10-01T07:03:13.000Z</time>
      </trkpt>
      <trkpt lat="42.0242" lon="20.07279">
        <ele>686.52001953125</ele>
        <time>2023-10-01T07:03:12.000Z</time>
      </trkpt>
      <trkpt lat="42.02417" lon="20.07285">
        <ele>686.03997802734</ele>
        <time>2023-10-01T07:03:11.000Z</time>
      </trkpt>
      <trkpt lat="42.02416" lon="20.07291">
        <ele>685.08001708984</ele>
        <time>2023-10-01T07:03:10.000Z</time>
      </trkpt>
      <trkpt lat="42.02416" lon="20.07299">
        <ele>683.63000488281</ele>
        <time>2023-10-01T07:03:09.000Z</time>
      </trkpt>
      <trkpt lat="42.02419" lon="20.07307">
        <ele>682.66998291016</ele>
        <time>2023-10-01T07:03:08.000Z</time>
      </trkpt>
      <trkpt lat="42.02424" lon="20.07317">
        <ele>682.19000244141</ele>
        <time>2023-10-01T07:03:07.000Z</time>
      </trkpt>
      <trkpt lat="42.02427" lon="20.07323">
        <ele>681.71002197266</ele>
        <time>2023-10-01T07:03:06.000Z</time>
      </trkpt>
      <trkpt lat="42.02432" lon="20.07329">
        <ele>681.22998046875</ele>
        <time>2023-10-01T07:03:05.000Z</time>
      </trkpt>
      <trkpt lat="42.02443" lon="20.07345">
        <ele>680.27001953125</ele>
        <time>2023-10-01T07:03:04.000Z</time>
      </trkpt>
      <trkpt lat="42.0245" lon="20.07359">
        <ele>679.78997802734</ele>
        <time>2023-10-01T07:03:03.000Z</time>
      </trkpt>
      <trkpt lat="42.02455" lon="20.0737">
        <ele>679.30999755859</ele>
        <time>2023-10-01T07:03:02.000Z</time>
      </trkpt>
      <trkpt lat="42.02459" lon="20.07385">
        <ele>678.83001708984</ele>
        <time>2023-10-01T07:03:01.000Z</time>
      </trkpt>
      <trkpt lat="42.02462" lon="20.07395">
        <ele>678.34997558594</ele>
        <time>2023-10-01T07:03:00.000Z</time>
      </trkpt>
      <trkpt lat="42.02467" lon="20.07405">
        <ele>677.86999511719</ele>
        <time>2023-10-01T07:02:59.000Z</time>
      </trkpt>
      <trkpt lat="42.02476" lon="20.0742">
        <ele>677.39001464844</ele>
        <time>2023-10-01T07:02:57.000Z</time>
      </trkpt>
      <trkpt lat="42.02479" lon="20.07427">
        <ele>677.39001464844</ele>
        <time>2023-10-01T07:02:56.000Z</time>
      </trkpt>
      <trkpt lat="42.0248" lon="20.07433">
        <ele>677.86999511719</ele>
        <time>2023-10-01T07:02:55.000Z</time>
      </trkpt>
      <trkpt lat="42.02478" lon="20.0744">
        <ele>677.86999511719</ele>
        <time>2023-10-01T07:02:54.000Z</time>
      </trkpt>
      <trkpt lat="42.02475" lon="20.07445">
        <ele>677.86999511719</ele>
        <time>2023-10-01T07:02:53.000Z</time>
      </trkpt>
      <trkpt lat="42.02471" lon="20.07448">
        <ele>677.86999511719</ele>
        <time>2023-10-01T07:02:52.000Z</time>
      </trkpt>
      <trkpt lat="42.02468" lon="20.0745">
        <ele>677.86999511719</ele>
        <time>2023-10-01T07:02:51.000Z</time>
      </trkpt>
      <trkpt lat="42.02463" lon="20.07449">
        <ele>677.86999511719</ele>
        <time>2023-10-01T07:02:50.000Z</time>
      </trkpt>
      <trkpt lat="42.02458" lon="20.07444">
        <ele>677.86999511719</ele>
        <time>2023-10-01T07:02:49.000Z</time>
      </trkpt>
      <trkpt lat="42.02457" lon="20.07442">
        <ele>677.86999511719</ele>
        <time>2023-10-01T07:02:48.000Z</time>
      </trkpt>
      <trkpt lat="42.02432" lon="20.074">
        <ele>677.86999511719</ele>
        <time>2023-10-01T07:02:44.000Z</time>
      </trkpt>
      <trkpt lat="42.02426" lon="20.07388">
        <ele>677.86999511719</ele>
        <time>2023-10-01T07:02:43.000Z</time>
      </trkpt>
      <trkpt lat="42.0242" lon="20.07377">
        <ele>677.39001464844</ele>
        <time>2023-10-01T07:02:42.000Z</time>
      </trkpt>
      <trkpt lat="42.02418" lon="20.07374">
        <ele>677.39001464844</ele>
        <time>2023-10-01T07:02:41.000Z</time>
      </trkpt>
      <trkpt lat="42.02413" lon="20.07367">
        <ele>676.90997314453</ele>
        <time>2023-10-01T07:02:40.000Z</time>
      </trkpt>
      <trkpt lat="42.02402" lon="20.07353">
        <ele>676.41998291016</ele>
        <time>2023-10-01T07:02:38.000Z</time>
      </trkpt>
      <trkpt lat="42.02394" lon="20.07342">
        <ele>676.41998291016</ele>
        <time>2023-10-01T07:02:37.000Z</time>
      </trkpt>
      <trkpt lat="42.02387" lon="20.07332">
        <ele>676.41998291016</ele>
        <time>2023-10-01T07:02:36.000Z</time>
      </trkpt>
      <trkpt lat="42.02385" lon="20.07329">
        <ele>675.94000244141</ele>
        <time>2023-10-01T07:02:35.000Z</time>
      </trkpt>
      <trkpt lat="42.02364" lon="20.07293">
        <ele>674.5</ele>
        <time>2023-10-01T07:02:31.000Z</time>
      </trkpt>
      <trkpt lat="42.02361" lon="20.07288">
        <ele>674.02001953125</ele>
        <time>2023-10-01T07:02:30.000Z</time>
      </trkpt>
      <trkpt lat="42.02359" lon="20.07284">
        <ele>674.02001953125</ele>
        <time>2023-10-01T07:02:29.000Z</time>
      </trkpt>
      <trkpt lat="42.02357" lon="20.07277">
        <ele>674.02001953125</ele>
        <time>2023-10-01T07:02:28.000Z</time>
      </trkpt>
      <trkpt lat="42.02353" lon="20.07265">
        <ele>674.02001953125</ele>
        <time>2023-10-01T07:02:27.000Z</time>
      </trkpt>
      <trkpt lat="42.02352" lon="20.07261">
        <ele>674.5</ele>
        <time>2023-10-01T07:02:26.000Z</time>
      </trkpt>
      <trkpt lat="42.0234" lon="20.07254">
        <ele>674.02001953125</ele>
        <time>2023-10-01T07:02:23.000Z</time>
      </trkpt>
      <trkpt lat="42.02336" lon="20.07256">
        <ele>674.02001953125</ele>
        <time>2023-10-01T07:02:22.000Z</time>
      </trkpt>
      <trkpt lat="42.02331" lon="20.07262">
        <ele>674.02001953125</ele>
        <time>2023-10-01T07:02:21.000Z</time>
      </trkpt>
      <trkpt lat="42.02322" lon="20.07273">
        <ele>674.02001953125</ele>
        <time>2023-10-01T07:02:20.000Z</time>
      </trkpt>
      <trkpt lat="42.02313" lon="20.07284">
        <ele>674.5</ele>
        <time>2023-10-01T07:02:19.000Z</time>
      </trkpt>
      <trkpt lat="42.02308" lon="20.0729">
        <ele>674.97998046875</ele>
        <time>2023-10-01T07:02:18.000Z</time>
      </trkpt>
      <trkpt lat="42.02299" lon="20.07302">
        <ele>675.46002197266</ele>
        <time>2023-10-01T07:02:17.000Z</time>
      </trkpt>
      <trkpt lat="42.02284" lon="20.07323">
        <ele>676.41998291016</ele>
        <time>2023-10-01T07:02:15.000Z</time>
      </trkpt>
      <trkpt lat="42.02278" lon="20.07332">
        <ele>676.90997314453</ele>
        <time>2023-10-01T07:02:14.000Z</time>
      </trkpt>
      <trkpt lat="42.02275" lon="20.07342">
        <ele>677.39001464844</ele>
        <time>2023-10-01T07:02:13.000Z</time>
      </trkpt>
      <trkpt lat="42.02273" lon="20.07348">
        <ele>677.86999511719</ele>
        <time>2023-10-01T07:02:12.000Z</time>
      </trkpt>
      <trkpt lat="42.02271" lon="20.07362">
        <ele>677.86999511719</ele>
        <time>2023-10-01T07:02:11.000Z</time>
      </trkpt>
      <trkpt lat="42.02269" lon="20.07369">
        <ele>678.34997558594</ele>
        <time>2023-10-01T07:02:10.000Z</time>
      </trkpt>
      <trkpt lat="42.02265" lon="20.07379">
        <ele>678.34997558594</ele>
        <time>2023-10-01T07:02:09.000Z</time>
      </trkpt>
      <trkpt lat="42.02259" lon="20.07396">
        <ele>678.34997558594</ele>
        <time>2023-10-01T07:02:08.000Z</time>
      </trkpt>
      <trkpt lat="42.02255" lon="20.07407">
        <ele>678.34997558594</ele>
        <time>2023-10-01T07:02:07.000Z</time>
      </trkpt>
      <trkpt lat="42.02249" lon="20.07421">
        <ele>678.34997558594</ele>
        <time>2023-10-01T07:02:06.000Z</time>
      </trkpt>
      <trkpt lat="42.02243" lon="20.07435">
        <ele>678.83001708984</ele>
        <time>2023-10-01T07:02:05.000Z</time>
      </trkpt>
      <trkpt lat="42.02238" lon="20.07446">
        <ele>678.83001708984</ele>
        <time>2023-10-01T07:02:04.000Z</time>
      </trkpt>
      <trkpt lat="42.02236" lon="20.07453">
        <ele>678.34997558594</ele>
        <time>2023-10-01T07:02:03.000Z</time>
      </trkpt>
      <trkpt lat="42.02232" lon="20.07466">
        <ele>677.86999511719</ele>
        <time>2023-10-01T07:02:02.000Z</time>
      </trkpt>
      <trkpt lat="42.02229" lon="20.07479">
        <ele>677.86999511719</ele>
        <time>2023-10-01T07:02:01.000Z</time>
      </trkpt>
      <trkpt lat="42.02226" lon="20.07491">
        <ele>677.39001464844</ele>
        <time>2023-10-01T07:02:00.000Z</time>
      </trkpt>
      <trkpt lat="42.02222" lon="20.07499">
        <ele>677.86999511719</ele>
        <time>2023-10-01T07:01:59.000Z</time>
      </trkpt>
      <trkpt lat="42.02217" lon="20.07506">
        <ele>677.86999511719</ele>
        <time>2023-10-01T07:01:58.000Z</time>
      </trkpt>
      <trkpt lat="42.02211" lon="20.0751">
        <ele>678.34997558594</ele>
        <time>2023-10-01T07:01:57.000Z</time>
      </trkpt>
      <trkpt lat="42.02204" lon="20.07512">
        <ele>678.34997558594</ele>
        <time>2023-10-01T07:01:56.000Z</time>
      </trkpt>
      <trkpt lat="42.02197" lon="20.07511">
        <ele>678.34997558594</ele>
        <time>2023-10-01T07:01:55.000Z</time>
      </trkpt>
      <trkpt lat="42.0219" lon="20.07508">
        <ele>679.30999755859</ele>
        <time>2023-10-01T07:01:54.000Z</time>
      </trkpt>
      <trkpt lat="42.02183" lon="20.07502">
        <ele>679.78997802734</ele>
        <time>2023-10-01T07:01:53.000Z</time>
      </trkpt>
      <trkpt lat="42.02176" lon="20.07494">
        <ele>680.75</ele>
        <time>2023-10-01T07:01:52.000Z</time>
      </trkpt>
      <trkpt lat="42.0217" lon="20.07486">
        <ele>681.22998046875</ele>
        <time>2023-10-01T07:01:51.000Z</time>
      </trkpt>
      <trkpt lat="42.02159" lon="20.07467">
        <ele>682.19000244141</ele>
        <time>2023-10-01T07:01:49.000Z</time>
      </trkpt>
      <trkpt lat="42.02153" lon="20.0746">
        <ele>682.66998291016</ele>
        <time>2023-10-01T07:01:48.000Z</time>
      </trkpt>
      <trkpt lat="42.02147" lon="20.07456">
        <ele>683.63000488281</ele>
        <time>2023-10-01T07:01:47.000Z</time>
      </trkpt>
      <trkpt lat="42.02141" lon="20.07454">
        <ele>684.11999511719</ele>
        <time>2023-10-01T07:01:46.000Z</time>
      </trkpt>
      <trkpt lat="42.02133" lon="20.07454">
        <ele>684.59997558594</ele>
        <time>2023-10-01T07:01:45.000Z</time>
      </trkpt>
      <trkpt lat="42.02131" lon="20.07454">
        <ele>684.59997558594</ele>
        <time>2023-10-01T07:01:44.000Z</time>
      </trkpt>
      <trkpt lat="42.02121" lon="20.07458">
        <ele>684.59997558594</ele>
        <time>2023-10-01T07:01:43.000Z</time>
      </trkpt>
      <trkpt lat="42.02103" lon="20.07462">
        <ele>685.08001708984</ele>
        <time>2023-10-01T07:01:42.000Z</time>
      </trkpt>
      <trkpt lat="42.02092" lon="20.07465">
        <ele>685.55999755859</ele>
        <time>2023-10-01T07:01:41.000Z</time>
      </trkpt>
      <trkpt lat="42.02084" lon="20.07469">
        <ele>685.55999755859</ele>
        <time>2023-10-01T07:01:40.000Z</time>
      </trkpt>
      <trkpt lat="42.02076" lon="20.07473">
        <ele>686.03997802734</ele>
        <time>2023-10-01T07:01:39.000Z</time>
      </trkpt>
      <trkpt lat="42.02071" lon="20.07478">
        <ele>686.03997802734</ele>
        <time>2023-10-01T07:01:38.000Z</time>
      </trkpt>
      <trkpt lat="42.0206" lon="20.07491">
        <ele>686.03997802734</ele>
        <time>2023-10-01T07:01:37.000Z</time>
      </trkpt>
      <trkpt lat="42.02049" lon="20.07502">
        <ele>686.03997802734</ele>
        <time>2023-10-01T07:01:36.000Z</time>
      </trkpt>
      <trkpt lat="42.02047" lon="20.07504">
        <ele>686.03997802734</ele>
        <time>2023-10-01T07:01:35.000Z</time>
      </trkpt>
      <trkpt lat="42.02038" lon="20.07511">
        <ele>686.52001953125</ele>
        <time>2023-10-01T07:01:34.000Z</time>
      </trkpt>
      <trkpt lat="42.02021" lon="20.07522">
        <ele>685.55999755859</ele>
        <time>2023-10-01T07:01:33.000Z</time>
      </trkpt>
      <trkpt lat="42.02016" lon="20.07525">
        <ele>685.55999755859</ele>
        <time>2023-10-01T07:01:32.000Z</time>
      </trkpt>
      <trkpt lat="42.02006" lon="20.07529">
        <ele>686.03997802734</ele>
        <time>2023-10-01T07:01:31.000Z</time>
      </trkpt>
      <trkpt lat="42.01995" lon="20.07531">
        <ele>685.55999755859</ele>
        <time>2023-10-01T07:01:30.000Z</time>
      </trkpt>
      <trkpt lat="42.01987" lon="20.07531">
        <ele>685.55999755859</ele>
        <time>2023-10-01T07:01:29.000Z</time>
      </trkpt>
      <trkpt lat="42.0198" lon="20.07527">
        <ele>685.55999755859</ele>
        <time>2023-10-01T07:01:28.000Z</time>
      </trkpt>
      <trkpt lat="42.01974" lon="20.07522">
        <ele>685.55999755859</ele>
        <time>2023-10-01T07:01:27.000Z</time>
      </trkpt>
      <trkpt lat="42.01968" lon="20.07513">
        <ele>686.03997802734</ele>
        <time>2023-10-01T07:01:26.000Z</time>
      </trkpt>
      <trkpt lat="42.01965" lon="20.07507">
        <ele>686.03997802734</ele>
        <time>2023-10-01T07:01:25.000Z</time>
      </trkpt>
      <trkpt lat="42.01961" lon="20.07494">
        <ele>687</ele>
        <time>2023-10-01T07:01:24.000Z</time>
      </trkpt>
      <trkpt lat="42.01957" lon="20.07488">
        <ele>687.47998046875</ele>
        <time>2023-10-01T07:01:23.000Z</time>
      </trkpt>
      <trkpt lat="42.01952" lon="20.07484">
        <ele>687.96002197266</ele>
        <time>2023-10-01T07:01:22.000Z</time>
      </trkpt>
      <trkpt lat="42.01948" lon="20.07483">
        <ele>688.44000244141</ele>
        <time>2023-10-01T07:01:21.000Z</time>
      </trkpt>
      <trkpt lat="42.01941" lon="20.07483">
        <ele>688.44000244141</ele>
        <time>2023-10-01T07:01:20.000Z</time>
      </trkpt>
      <trkpt lat="42.01888" lon="20.07484">
        <ele>689.88000488281</ele>
        <time>2023-10-01T07:01:15.000Z</time>
      </trkpt>
      <trkpt lat="42.01853" lon="20.07479">
        <ele>692.28997802734</ele>
        <time>2023-10-01T07:01:12.000Z</time>
      </trkpt>
      <trkpt lat="42.01847" lon="20.07478">
        <ele>692.77001953125</ele>
        <time>2023-10-01T07:01:11.000Z</time>
      </trkpt>
      <trkpt lat="42.01823" lon="20.07472">
        <ele>693.72998046875</ele>
        <time>2023-10-01T07:01:09.000Z</time>
      </trkpt>
      <trkpt lat="42.01814" lon="20.07473">
        <ele>693.72998046875</ele>
        <time>2023-10-01T07:01:08.000Z</time>
      </trkpt>
      <trkpt lat="42.01807" lon="20.07475">
        <ele>694.21002197266</ele>
        <time>2023-10-01T07:01:07.000Z</time>
      </trkpt>
      <trkpt lat="42.01798" lon="20.07481">
        <ele>694.21002197266</ele>
        <time>2023-10-01T07:01:06.000Z</time>
      </trkpt>
      <trkpt lat="42.01793" lon="20.07484">
        <ele>694.21002197266</ele>
        <time>2023-10-01T07:01:05.000Z</time>
      </trkpt>
      <trkpt lat="42.01772" lon="20.07498">
        <ele>694.21002197266</ele>
        <time>2023-10-01T07:01:03.000Z</time>
      </trkpt>
      <trkpt lat="42.01762" lon="20.07504">
        <ele>694.21002197266</ele>
        <time>2023-10-01T07:01:02.000Z</time>
      </trkpt>
      <trkpt lat="42.01735" lon="20.07519">
        <ele>695.16998291016</ele>
        <time>2023-10-01T07:00:59.000Z</time>
      </trkpt>
      <trkpt lat="42.01727" lon="20.07524">
        <ele>695.65002441406</ele>
        <time>2023-10-01T07:00:58.000Z</time>
      </trkpt>
      <trkpt lat="42.01723" lon="20.07528">
        <ele>695.65002441406</ele>
        <time>2023-10-01T07:00:57.000Z</time>
      </trkpt>
      <trkpt lat="42.01715" lon="20.07537">
        <ele>696.13000488281</ele>
        <time>2023-10-01T07:00:56.000Z</time>
      </trkpt>
      <trkpt lat="42.0171" lon="20.07543">
        <ele>697.09002685547</ele>
        <time>2023-10-01T07:00:55.000Z</time>
      </trkpt>
      <trkpt lat="42.01701" lon="20.07554">
        <ele>698.04998779297</ele>
        <time>2023-10-01T07:00:54.000Z</time>
      </trkpt>
      <trkpt lat="42.01696" lon="20.07561">
        <ele>698.53002929688</ele>
        <time>2023-10-01T07:00:53.000Z</time>
      </trkpt>
      <trkpt lat="42.01676" lon="20.07586">
        <ele>701.41998291016</ele>
        <time>2023-10-01T07:00:51.000Z</time>
      </trkpt>
      <trkpt lat="42.01669" lon="20.07594">
        <ele>702.85998535156</ele>
        <time>2023-10-01T07:00:50.000Z</time>
      </trkpt>
      <trkpt lat="42.01664" lon="20.07598">
        <ele>703.82000732422</ele>
        <time>2023-10-01T07:00:49.000Z</time>
      </trkpt>
      <trkpt lat="42.01653" lon="20.07606">
        <ele>705.26000976562</ele>
        <time>2023-10-01T07:00:48.000Z</time>
      </trkpt>
      <trkpt lat="42.01643" lon="20.07612">
        <ele>706.71002197266</ele>
        <time>2023-10-01T07:00:47.000Z</time>
      </trkpt>
      <trkpt lat="42.01633" lon="20.07617">
        <ele>707.66998291016</ele>
        <time>2023-10-01T07:00:46.000Z</time>
      </trkpt>
      <trkpt lat="42.01608" lon="20.07625">
        <ele>710.54998779297</ele>
        <time>2023-10-01T07:00:43.000Z</time>
      </trkpt>
      <trkpt lat="42.01598" lon="20.07629">
        <ele>711.98999023438</ele>
        <time>2023-10-01T07:00:42.000Z</time>
      </trkpt>
      <trkpt lat="42.01579" lon="20.07633">
        <ele>713.91998291016</ele>
        <time>2023-10-01T07:00:40.000Z</time>
      </trkpt>
      <trkpt lat="42.01574" lon="20.07635">
        <ele>714.40002441406</ele>
        <time>2023-10-01T07:00:39.000Z</time>
      </trkpt>
      <trkpt lat="42.0156" lon="20.07638">
        <ele>716.32000732422</ele>
        <time>2023-10-01T07:00:38.000Z</time>
      </trkpt>
      <trkpt lat="42.01555" lon="20.07639">
        <ele>716.79998779297</ele>
        <time>2023-10-01T07:00:37.000Z</time>
      </trkpt>
      <trkpt lat="42.01531" lon="20.07646">
        <ele>719.67999267578</ele>
        <time>2023-10-01T07:00:35.000Z</time>
      </trkpt>
      <trkpt lat="42.01521" lon="20.07648">
        <ele>720.65002441406</ele>
        <time>2023-10-01T07:00:34.000Z</time>
      </trkpt>
      <trkpt lat="42.01512" lon="20.07648">
        <ele>721.60998535156</ele>
        <time>2023-10-01T07:00:33.000Z</time>
      </trkpt>
      <trkpt lat="42.01505" lon="20.07647">
        <ele>722.09002685547</ele>
        <time>2023-10-01T07:00:32.000Z</time>
      </trkpt>
      <trkpt lat="42.01499" lon="20.07646">
        <ele>722.57000732422</ele>
        <time>2023-10-01T07:00:31.000Z</time>
      </trkpt>
      <trkpt lat="42.01486" lon="20.07643">
        <ele>723.53002929688</ele>
        <time>2023-10-01T07:00:30.000Z</time>
      </trkpt>
      <trkpt lat="42.01477" lon="20.07641">
        <ele>724.01000976562</ele>
        <time>2023-10-01T07:00:29.000Z</time>
      </trkpt>
      <trkpt lat="42.01472" lon="20.07639">
        <ele>724.01000976562</ele>
        <time>2023-10-01T07:00:28.000Z</time>
      </trkpt>
      <trkpt lat="42.0146" lon="20.07633">
        <ele>724.96997070312</ele>
        <time>2023-10-01T07:00:27.000Z</time>
      </trkpt>
      <trkpt lat="42.01452" lon="20.07629">
        <ele>725.92999267578</ele>
        <time>2023-10-01T07:00:26.000Z</time>
      </trkpt>
      <trkpt lat="42.01443" lon="20.07626">
        <ele>726.89001464844</ele>
        <time>2023-10-01T07:00:25.000Z</time>
      </trkpt>
      <trkpt lat="42.01434" lon="20.07625">
        <ele>728.34002685547</ele>
        <time>2023-10-01T07:00:24.000Z</time>
      </trkpt>
      <trkpt lat="42.01425" lon="20.07624">
        <ele>729.29998779297</ele>
        <time>2023-10-01T07:00:23.000Z</time>
      </trkpt>
      <trkpt lat="42.0142" lon="20.07624">
        <ele>729.29998779297</ele>
        <time>2023-10-01T07:00:22.000Z</time>
      </trkpt>
      <trkpt lat="42.01411" lon="20.07624">
        <ele>729.78002929688</ele>
        <time>2023-10-01T07:00:21.000Z</time>
      </trkpt>
      <trkpt lat="42.01398" lon="20.07625">
        <ele>730.73999023438</ele>
        <time>2023-10-01T07:00:20.000Z</time>
      </trkpt>
      <trkpt lat="42.01388" lon="20.07626">
        <ele>732.17999267578</ele>
        <time>2023-10-01T07:00:19.000Z</time>
      </trkpt>
      <trkpt lat="42.0138" lon="20.07627">
        <ele>732.65997314453</ele>
        <time>2023-10-01T07:00:18.000Z</time>
      </trkpt>
      <trkpt lat="42.01373" lon="20.07627">
        <ele>733.14001464844</ele>
        <time>2023-10-01T07:00:17.000Z</time>
      </trkpt>
      <trkpt lat="42.01369" lon="20.07628">
        <ele>733.61999511719</ele>
        <time>2023-10-01T07:00:16.000Z</time>
      </trkpt>
      <trkpt lat="42.01363" lon="20.07629">
        <ele>734.09997558594</ele>
        <time>2023-10-01T07:00:15.000Z</time>
      </trkpt>
      <trkpt lat="42.01349" lon="20.07632">
        <ele>735.54998779297</ele>
        <time>2023-10-01T07:00:14.000Z</time>
      </trkpt>
      <trkpt lat="42.01343" lon="20.07634">
        <ele>736.03002929688</ele>
        <time>2023-10-01T07:00:13.000Z</time>
      </trkpt>
      <trkpt lat="42.01337" lon="20.07637">
        <ele>736.98999023438</ele>
        <time>2023-10-01T07:00:12.000Z</time>
      </trkpt>
      <trkpt lat="42.01331" lon="20.07641">
        <ele>737.95001220703</ele>
        <time>2023-10-01T07:00:11.000Z</time>
      </trkpt>
      <trkpt lat="42.01326" lon="20.07645">
        <ele>737.95001220703</ele>
        <time>2023-10-01T07:00:10.000Z</time>
      </trkpt>
      <trkpt lat="42.01322" lon="20.07649">
        <ele>738.42999267578</ele>
        <time>2023-10-01T07:00:09.000Z</time>
      </trkpt>
      <trkpt lat="42.01317" lon="20.07655">
        <ele>738.90997314453</ele>
        <time>2023-10-01T07:00:08.000Z</time>
      </trkpt>
      <trkpt lat="42.01313" lon="20.07662">
        <ele>739.39001464844</ele>
        <time>2023-10-01T07:00:07.000Z</time>
      </trkpt>
      <trkpt lat="42.01311" lon="20.0767">
        <ele>739.86999511719</ele>
        <time>2023-10-01T07:00:06.000Z</time>
      </trkpt>
      <trkpt lat="42.01311" lon="20.07671">
        <ele>739.86999511719</ele>
        <time>2023-10-01T07:00:05.000Z</time>
      </trkpt>
      <trkpt lat="42.01309" lon="20.07684">
        <ele>739.86999511719</ele>
        <time>2023-10-01T07:00:04.000Z</time>
      </trkpt>
      <trkpt lat="42.01306" lon="20.07693">
        <ele>739.86999511719</ele>
        <time>2023-10-01T07:00:03.000Z</time>
      </trkpt>
      <trkpt lat="42.01305" lon="20.07696">
        <ele>739.86999511719</ele>
        <time>2023-10-01T07:00:02.000Z</time>
      </trkpt>
      <trkpt lat="42.01301" lon="20.07705">
        <ele>739.39001464844</ele>
        <time>2023-10-01T07:00:01.000Z</time>
      </trkpt>
      <trkpt lat="42.01298" lon="20.07712">
        <ele>738.90997314453</ele>
        <time>2023-10-01T07:00:00.000Z</time>
      </trkpt>
      <trkpt lat="42.01295" lon="20.07718">
        <ele>738.42999267578</ele>
        <time>2023-10-01T06:59:59.000Z</time>
      </trkpt>
      <trkpt lat="42.01291" lon="20.07723">
        <ele>738.42999267578</ele>
        <time>2023-10-01T06:59:58.000Z</time>
      </trkpt>
      <trkpt lat="42.01288" lon="20.07726">
        <ele>737.95001220703</ele>
        <time>2023-10-01T06:59:57.000Z</time>
      </trkpt>
      <trkpt lat="42.01286" lon="20.07727">
        <ele>737.95001220703</ele>
        <time>2023-10-01T06:59:56.000Z</time>
      </trkpt>
      <trkpt lat="42.01278" lon="20.0773">
        <ele>739.39001464844</ele>
        <time>2023-10-01T06:59:45.000Z</time>
      </trkpt>
      <trkpt lat="42.0127" lon="20.07732">
        <ele>738.90997314453</ele>
        <time>2023-10-01T06:59:38.000Z</time>
      </trkpt>
      <trkpt lat="42.01265" lon="20.07732">
        <ele>738.42999267578</ele>
        <time>2023-10-01T06:59:37.000Z</time>
      </trkpt>
      <trkpt lat="42.01259" lon="20.0773">
        <ele>737.46997070312</ele>
        <time>2023-10-01T06:59:36.000Z</time>
      </trkpt>
      <trkpt lat="42.01253" lon="20.07726">
        <ele>737.46997070312</ele>
        <time>2023-10-01T06:59:35.000Z</time>
      </trkpt>
      <trkpt lat="42.01252" lon="20.07725">
        <ele>737.46997070312</ele>
        <time>2023-10-01T06:59:34.000Z</time>
      </trkpt>
      <trkpt lat="42.01243" lon="20.07716">
        <ele>737.46997070312</ele>
        <time>2023-10-01T06:59:33.000Z</time>
      </trkpt>
      <trkpt lat="42.01234" lon="20.07708">
        <ele>737.46997070312</ele>
        <time>2023-10-01T06:59:31.000Z</time>
      </trkpt>
      <trkpt lat="42.01229" lon="20.07703">
        <ele>736.98999023438</ele>
        <time>2023-10-01T06:59:30.000Z</time>
      </trkpt>
      <trkpt lat="42.01221" lon="20.07696">
        <ele>736.98999023438</ele>
        <time>2023-10-01T06:59:29.000Z</time>
      </trkpt>
      <trkpt lat="42.01216" lon="20.07692">
        <ele>736.51000976562</ele>
        <time>2023-10-01T06:59:28.000Z</time>
      </trkpt>
      <trkpt lat="42.01211" lon="20.0769">
        <ele>736.51000976562</ele>
        <time>2023-10-01T06:59:27.000Z</time>
      </trkpt>
      <trkpt lat="42.01205" lon="20.07691">
        <ele>736.51000976562</ele>
        <time>2023-10-01T06:59:26.000Z</time>
      </trkpt>
      <trkpt lat="42.01196" lon="20.07692">
        <ele>736.51000976562</ele>
        <time>2023-10-01T06:59:25.000Z</time>
      </trkpt>
      <trkpt lat="42.01187" lon="20.07693">
        <ele>736.51000976562</ele>
        <time>2023-10-01T06:59:24.000Z</time>
      </trkpt>
      <trkpt lat="42.01179" lon="20.07695">
        <ele>736.98999023438</ele>
        <time>2023-10-01T06:59:23.000Z</time>
      </trkpt>
      <trkpt lat="42.0117" lon="20.07698">
        <ele>737.46997070312</ele>
        <time>2023-10-01T06:59:22.000Z</time>
      </trkpt>
      <trkpt lat="42.01162" lon="20.07699">
        <ele>737.95001220703</ele>
        <time>2023-10-01T06:59:21.000Z</time>
      </trkpt>
      <trkpt lat="42.01157" lon="20.07698">
        <ele>737.95001220703</ele>
        <time>2023-10-01T06:59:20.000Z</time>
      </trkpt>
      <trkpt lat="42.01152" lon="20.07695">
        <ele>737.46997070312</ele>
        <time>2023-10-01T06:59:19.000Z</time>
      </trkpt>
      <trkpt lat="42.01147" lon="20.0769">
        <ele>737.46997070312</ele>
        <time>2023-10-01T06:59:18.000Z</time>
      </trkpt>
      <trkpt lat="42.0114" lon="20.07683">
        <ele>737.95001220703</ele>
        <time>2023-10-01T06:59:17.000Z</time>
      </trkpt>
      <trkpt lat="42.01132" lon="20.07674">
        <ele>738.42999267578</ele>
        <time>2023-10-01T06:59:15.000Z</time>
      </trkpt>
      <trkpt lat="42.01122" lon="20.07663">
        <ele>739.39001464844</ele>
        <time>2023-10-01T06:59:14.000Z</time>
      </trkpt>
      <trkpt lat="42.0112" lon="20.0766">
        <ele>739.39001464844</ele>
        <time>2023-10-01T06:59:13.000Z</time>
      </trkpt>
      <trkpt lat="42.01114" lon="20.07649">
        <ele>740.34997558594</ele>
        <time>2023-10-01T06:59:12.000Z</time>
      </trkpt>
      <trkpt lat="42.0111" lon="20.07639">
        <ele>740.83001708984</ele>
        <time>2023-10-01T06:59:11.000Z</time>
      </trkpt>
      <trkpt lat="42.01108" lon="20.07635">
        <ele>741.30999755859</ele>
        <time>2023-10-01T06:59:10.000Z</time>
      </trkpt>
      <trkpt lat="42.01104" lon="20.07628">
        <ele>741.30999755859</ele>
        <time>2023-10-01T06:59:09.000Z</time>
      </trkpt>
      <trkpt lat="42.01098" lon="20.07622">
        <ele>741.78997802734</ele>
        <time>2023-10-01T06:59:08.000Z</time>
      </trkpt>
      <trkpt lat="42.01094" lon="20.07618">
        <ele>741.78997802734</ele>
        <time>2023-10-01T06:59:07.000Z</time>
      </trkpt>
      <trkpt lat="42.01089" lon="20.07614">
        <ele>741.78997802734</ele>
        <time>2023-10-01T06:59:06.000Z</time>
      </trkpt>
      <trkpt lat="42.01084" lon="20.07611">
        <ele>742.28002929688</ele>
        <time>2023-10-01T06:59:05.000Z</time>
      </trkpt>
      <trkpt lat="42.01079" lon="20.07607">
        <ele>742.76000976562</ele>
        <time>2023-10-01T06:59:04.000Z</time>
      </trkpt>
      <trkpt lat="42.01073" lon="20.07603">
        <ele>743.23999023438</ele>
        <time>2023-10-01T06:59:03.000Z</time>
      </trkpt>
      <trkpt lat="42.0107" lon="20.076">
        <ele>743.71997070312</ele>
        <time>2023-10-01T06:59:02.000Z</time>
      </trkpt>
      <trkpt lat="42.01066" lon="20.07594">
        <ele>743.71997070312</ele>
        <time>2023-10-01T06:59:01.000Z</time>
      </trkpt>
      <trkpt lat="42.01064" lon="20.07589">
        <ele>743.71997070312</ele>
        <time>2023-10-01T06:59:00.000Z</time>
      </trkpt>
      <trkpt lat="42.01058" lon="20.07581">
        <ele>744.20001220703</ele>
        <time>2023-10-01T06:58:59.000Z</time>
      </trkpt>
      <trkpt lat="42.01054" lon="20.07575">
        <ele>744.67999267578</ele>
        <time>2023-10-01T06:58:58.000Z</time>
      </trkpt>
      <trkpt lat="42.01049" lon="20.07569">
        <ele>744.67999267578</ele>
        <time>2023-10-01T06:58:57.000Z</time>
      </trkpt>
      <trkpt lat="42.01045" lon="20.07564">
        <ele>745.15997314453</ele>
        <time>2023-10-01T06:58:56.000Z</time>
      </trkpt>
      <trkpt lat="42.01039" lon="20.07559">
        <ele>745.64001464844</ele>
        <time>2023-10-01T06:58:55.000Z</time>
      </trkpt>
      <trkpt lat="42.01034" lon="20.07556">
        <ele>746.11999511719</ele>
        <time>2023-10-01T06:58:54.000Z</time>
      </trkpt>
      <trkpt lat="42.01026" lon="20.07553">
        <ele>746.59997558594</ele>
        <time>2023-10-01T06:58:53.000Z</time>
      </trkpt>
      <trkpt lat="42.01021" lon="20.07551">
        <ele>747.08001708984</ele>
        <time>2023-10-01T06:58:52.000Z</time>
      </trkpt>
      <trkpt lat="42.01014" lon="20.0755">
        <ele>747.55999755859</ele>
        <time>2023-10-01T06:58:51.000Z</time>
      </trkpt>
      <trkpt lat="42.01009" lon="20.07549">
        <ele>748.52001953125</ele>
        <time>2023-10-01T06:58:50.000Z</time>
      </trkpt>
      <trkpt lat="42.01005" lon="20.0755">
        <ele>749.48999023438</ele>
        <time>2023-10-01T06:58:49.000Z</time>
      </trkpt>
      <trkpt lat="42.01" lon="20.07552">
        <ele>750.45001220703</ele>
        <time>2023-10-01T06:58:48.000Z</time>
      </trkpt>
      <trkpt lat="42.00997" lon="20.07555">
        <ele>751.40997314453</ele>
        <time>2023-10-01T06:58:47.000Z</time>
      </trkpt>
      <trkpt lat="42.00991" lon="20.07561">
        <ele>752.84997558594</ele>
        <time>2023-10-01T06:58:46.000Z</time>
      </trkpt>
      <trkpt lat="42.00985" lon="20.07565">
        <ele>754.28997802734</ele>
        <time>2023-10-01T06:58:45.000Z</time>
      </trkpt>
      <trkpt lat="42.00981" lon="20.07567">
        <ele>754.77001953125</ele>
        <time>2023-10-01T06:58:44.000Z</time>
      </trkpt>
      <trkpt lat="42.00974" lon="20.07568">
        <ele>756.21002197266</ele>
        <time>2023-10-01T06:58:43.000Z</time>
      </trkpt>
      <trkpt lat="42.00958" lon="20.07569">
        <ele>759.09997558594</ele>
        <time>2023-10-01T06:58:41.000Z</time>
      </trkpt>
      <trkpt lat="42.00955" lon="20.07569">
        <ele>759.09997558594</ele>
        <time>2023-10-01T06:58:40.000Z</time>
      </trkpt>
      <trkpt lat="42.00944" lon="20.07568">
        <ele>760.05999755859</ele>
        <time>2023-10-01T06:58:39.000Z</time>
      </trkpt>
      <trkpt lat="42.00937" lon="20.07568">
        <ele>760.53997802734</ele>
        <time>2023-10-01T06:58:38.000Z</time>
      </trkpt>
      <trkpt lat="42.00931" lon="20.0757">
        <ele>761.02001953125</ele>
        <time>2023-10-01T06:58:37.000Z</time>
      </trkpt>
      <trkpt lat="42.00925" lon="20.07574">
        <ele>761.97998046875</ele>
        <time>2023-10-01T06:58:36.000Z</time>
      </trkpt>
      <trkpt lat="42.00919" lon="20.07579">
        <ele>762.94000244141</ele>
        <time>2023-10-01T06:58:35.000Z</time>
      </trkpt>
      <trkpt lat="42.00915" lon="20.07582">
        <ele>763.41998291016</ele>
        <time>2023-10-01T06:58:34.000Z</time>
      </trkpt>
      <trkpt lat="42.00907" lon="20.0759">
        <ele>764.86999511719</ele>
        <time>2023-10-01T06:58:33.000Z</time>
      </trkpt>
      <trkpt lat="42.00902" lon="20.07594">
        <ele>765.83001708984</ele>
        <time>2023-10-01T06:58:32.000Z</time>
      </trkpt>
      <trkpt lat="42.00898" lon="20.07597">
        <ele>766.30999755859</ele>
        <time>2023-10-01T06:58:31.000Z</time>
      </trkpt>
      <trkpt lat="42.00891" lon="20.076">
        <ele>767.27001953125</ele>
        <time>2023-10-01T06:58:30.000Z</time>
      </trkpt>
      <trkpt lat="42.00888" lon="20.07602">
        <ele>767.75</ele>
        <time>2023-10-01T06:58:29.000Z</time>
      </trkpt>
      <trkpt lat="42.00881" lon="20.07608">
        <ele>768.71002197266</ele>
        <time>2023-10-01T06:58:28.000Z</time>
      </trkpt>
      <trkpt lat="42.00875" lon="20.07609">
        <ele>769.19000244141</ele>
        <time>2023-10-01T06:58:27.000Z</time>
      </trkpt>
      <trkpt lat="42.00869" lon="20.0761">
        <ele>770.15002441406</ele>
        <time>2023-10-01T06:58:26.000Z</time>
      </trkpt>
      <trkpt lat="42.00863" lon="20.07608">
        <ele>770.63000488281</ele>
        <time>2023-10-01T06:58:25.000Z</time>
      </trkpt>
      <trkpt lat="42.00858" lon="20.07605">
        <ele>771.10998535156</ele>
        <time>2023-10-01T06:58:24.000Z</time>
      </trkpt>
      <trkpt lat="42.00853" lon="20.07601">
        <ele>771.59997558594</ele>
        <time>2023-10-01T06:58:23.000Z</time>
      </trkpt>
      <trkpt lat="42.00852" lon="20.076">
        <ele>771.59997558594</ele>
        <time>2023-10-01T06:58:22.000Z</time>
      </trkpt>
      <trkpt lat="42.00843" lon="20.07587">
        <ele>772.55999755859</ele>
        <time>2023-10-01T06:58:21.000Z</time>
      </trkpt>
      <trkpt lat="42.00833" lon="20.07575">
        <ele>773.52001953125</ele>
        <time>2023-10-01T06:58:19.000Z</time>
      </trkpt>
      <trkpt lat="42.00829" lon="20.0757">
        <ele>774.47998046875</ele>
        <time>2023-10-01T06:58:18.000Z</time>
      </trkpt>
      <trkpt lat="42.00825" lon="20.07564">
        <ele>775.44000244141</ele>
        <time>2023-10-01T06:58:17.000Z</time>
      </trkpt>
      <trkpt lat="42.00823" lon="20.07558">
        <ele>775.91998291016</ele>
        <time>2023-10-01T06:58:16.000Z</time>
      </trkpt>
      <trkpt lat="42.00822" lon="20.07551">
        <ele>776.40002441406</ele>
        <time>2023-10-01T06:58:15.000Z</time>
      </trkpt>
      <trkpt lat="42.00821" lon="20.07544">
        <ele>776.40002441406</ele>
        <time>2023-10-01T06:58:14.000Z</time>
      </trkpt>
      <trkpt lat="42.0082" lon="20.07539">
        <ele>776.88000488281</ele>
        <time>2023-10-01T06:58:13.000Z</time>
      </trkpt>
      <trkpt lat="42.00816" lon="20.07534">
        <ele>776.88000488281</ele>
        <time>2023-10-01T06:58:12.000Z</time>
      </trkpt>
      <trkpt lat="42.00813" lon="20.0753">
        <ele>777.35998535156</ele>
        <time>2023-10-01T06:58:11.000Z</time>
      </trkpt>
      <trkpt lat="42.00807" lon="20.07526">
        <ele>777.84002685547</ele>
        <time>2023-10-01T06:58:10.000Z</time>
      </trkpt>
      <trkpt lat="42.00799" lon="20.0752">
        <ele>778.32000732422</ele>
        <time>2023-10-01T06:58:09.000Z</time>
      </trkpt>
      <trkpt lat="42.00793" lon="20.07516">
        <ele>779.28997802734</ele>
        <time>2023-10-01T06:58:08.000Z</time>
      </trkpt>
      <trkpt lat="42.00785" lon="20.07514">
        <ele>779.77001953125</ele>
        <time>2023-10-01T06:58:07.000Z</time>
      </trkpt>
      <trkpt lat="42.00783" lon="20.07514">
        <ele>780.25</ele>
        <time>2023-10-01T06:58:06.000Z</time>
      </trkpt>
      <trkpt lat="42.0077" lon="20.07516">
        <ele>781.69000244141</ele>
        <time>2023-10-01T06:58:05.000Z</time>
      </trkpt>
      <trkpt lat="42.00764" lon="20.07516">
        <ele>782.16998291016</ele>
        <time>2023-10-01T06:58:04.000Z</time>
      </trkpt>
      <trkpt lat="42.00756" lon="20.07515">
        <ele>782.65002441406</ele>
        <time>2023-10-01T06:58:03.000Z</time>
      </trkpt>
      <trkpt lat="42.0075" lon="20.0751">
        <ele>783.13000488281</ele>
        <time>2023-10-01T06:58:02.000Z</time>
      </trkpt>
      <trkpt lat="42.00742" lon="20.07503">
        <ele>784.09002685547</ele>
        <time>2023-10-01T06:58:01.000Z</time>
      </trkpt>
      <trkpt lat="42.00735" lon="20.07495">
        <ele>785.04998779297</ele>
        <time>2023-10-01T06:58:00.000Z</time>
      </trkpt>
      <trkpt lat="42.00732" lon="20.07491">
        <ele>785.04998779297</ele>
        <time>2023-10-01T06:57:59.000Z</time>
      </trkpt>
      <trkpt lat="42.00722" lon="20.07472">
        <ele>786.97998046875</ele>
        <time>2023-10-01T06:57:57.000Z</time>
      </trkpt>
      <trkpt lat="42.00717" lon="20.07462">
        <ele>787.46002197266</ele>
        <time>2023-10-01T06:57:56.000Z</time>
      </trkpt>
      <trkpt lat="42.0071" lon="20.07452">
        <ele>788.41998291016</ele>
        <time>2023-10-01T06:57:55.000Z</time>
      </trkpt>
      <trkpt lat="42.00703" lon="20.07444">
        <ele>789.85998535156</ele>
        <time>2023-10-01T06:57:54.000Z</time>
      </trkpt>
      <trkpt lat="42.00698" lon="20.0744">
        <ele>790.82000732422</ele>
        <time>2023-10-01T06:57:53.000Z</time>
      </trkpt>
      <trkpt lat="42.00691" lon="20.07437">
        <ele>791.78002929688</ele>
        <time>2023-10-01T06:57:52.000Z</time>
      </trkpt>
      <trkpt lat="42.00686" lon="20.07436">
        <ele>792.73999023438</ele>
        <time>2023-10-01T06:57:51.000Z</time>
      </trkpt>
      <trkpt lat="42.00681" lon="20.07435">
        <ele>793.21997070312</ele>
        <time>2023-10-01T06:57:50.000Z</time>
      </trkpt>
      <trkpt lat="42.0067" lon="20.07436">
        <ele>793.71002197266</ele>
        <time>2023-10-01T06:57:49.000Z</time>
      </trkpt>
      <trkpt lat="42.00662" lon="20.07436">
        <ele>794.66998291016</ele>
        <time>2023-10-01T06:57:48.000Z</time>
      </trkpt>
      <trkpt lat="42.00653" lon="20.07434">
        <ele>795.15002441406</ele>
        <time>2023-10-01T06:57:47.000Z</time>
      </trkpt>
      <trkpt lat="42.00646" lon="20.07431">
        <ele>795.63000488281</ele>
        <time>2023-10-01T06:57:46.000Z</time>
      </trkpt>
      <trkpt lat="42.00639" lon="20.07427">
        <ele>796.59002685547</ele>
        <time>2023-10-01T06:57:45.000Z</time>
      </trkpt>
      <trkpt lat="42.00632" lon="20.07424">
        <ele>797.07000732422</ele>
        <time>2023-10-01T06:57:44.000Z</time>
      </trkpt>
      <trkpt lat="42.00624" lon="20.07423">
        <ele>797.07000732422</ele>
        <time>2023-10-01T06:57:43.000Z</time>
      </trkpt>
      <trkpt lat="42.00617" lon="20.07423">
        <ele>797.54998779297</ele>
        <time>2023-10-01T06:57:42.000Z</time>
      </trkpt>
      <trkpt lat="42.00605" lon="20.07423">
        <ele>798.98999023438</ele>
        <time>2023-10-01T06:57:40.000Z</time>
      </trkpt>
      <trkpt lat="42.00592" lon="20.07423">
        <ele>799.95001220703</ele>
        <time>2023-10-01T06:57:39.000Z</time>
      </trkpt>
      <trkpt lat="42.00585" lon="20.07423">
        <ele>800.44000244141</ele>
        <time>2023-10-01T06:57:38.000Z</time>
      </trkpt>
      <trkpt lat="42.00576" lon="20.07422">
        <ele>800.91998291016</ele>
        <time>2023-10-01T06:57:37.000Z</time>
      </trkpt>
      <trkpt lat="42.00561" lon="20.07422">
        <ele>801.88000488281</ele>
        <time>2023-10-01T06:57:35.000Z</time>
      </trkpt>
      <trkpt lat="42.00557" lon="20.07422">
        <ele>802.35998535156</ele>
        <time>2023-10-01T06:57:34.000Z</time>
      </trkpt>
      <trkpt lat="42.00547" lon="20.07422">
        <ele>802.84002685547</ele>
        <time>2023-10-01T06:57:33.000Z</time>
      </trkpt>
      <trkpt lat="42.00538" lon="20.0742">
        <ele>803.32000732422</ele>
        <time>2023-10-01T06:57:32.000Z</time>
      </trkpt>
      <trkpt lat="42.00531" lon="20.07416">
        <ele>803.79998779297</ele>
        <time>2023-10-01T06:57:31.000Z</time>
      </trkpt>
      <trkpt lat="42.00529" lon="20.07415">
        <ele>803.79998779297</ele>
        <time>2023-10-01T06:57:30.000Z</time>
      </trkpt>
      <trkpt lat="42.0052" lon="20.07408">
        <ele>804.76000976562</ele>
        <time>2023-10-01T06:57:29.000Z</time>
      </trkpt>
      <trkpt lat="42.00517" lon="20.07406">
        <ele>804.76000976562</ele>
        <time>2023-10-01T06:57:28.000Z</time>
      </trkpt>
      <trkpt lat="42.00504" lon="20.07405">
        <ele>806.67999267578</ele>
        <time>2023-10-01T06:57:24.000Z</time>
      </trkpt>
      <trkpt lat="42.005" lon="20.07411">
        <ele>807.64001464844</ele>
        <time>2023-10-01T06:57:23.000Z</time>
      </trkpt>
      <trkpt lat="42.00499" lon="20.07413">
        <ele>807.64001464844</ele>
        <time>2023-10-01T06:57:22.000Z</time>
      </trkpt>
      <trkpt lat="42.00494" lon="20.07426">
        <ele>809.09002685547</ele>
        <time>2023-10-01T06:57:21.000Z</time>
      </trkpt>
      <trkpt lat="42.0049" lon="20.07433">
        <ele>809.57000732422</ele>
        <time>2023-10-01T06:57:20.000Z</time>
      </trkpt>
      <trkpt lat="42.00485" lon="20.07439">
        <ele>811.01000976562</ele>
        <time>2023-10-01T06:57:19.000Z</time>
      </trkpt>
      <trkpt lat="42.0048" lon="20.07443">
        <ele>811.48999023438</ele>
        <time>2023-10-01T06:57:18.000Z</time>
      </trkpt>
      <trkpt lat="42.00474" lon="20.07446">
        <ele>812.45001220703</ele>
        <time>2023-10-01T06:57:17.000Z</time>
      </trkpt>
      <trkpt lat="42.00469" lon="20.07447">
        <ele>812.92999267578</ele>
        <time>2023-10-01T06:57:16.000Z</time>
      </trkpt>
      <trkpt lat="42.00466" lon="20.07447">
        <ele>813.40997314453</ele>
        <time>2023-10-01T06:57:15.000Z</time>
      </trkpt>
      <trkpt lat="42.00459" lon="20.07447">
        <ele>813.89001464844</ele>
        <time>2023-10-01T06:57:14.000Z</time>
      </trkpt>
      <trkpt lat="42.00454" lon="20.07446">
        <ele>814.36999511719</ele>
        <time>2023-10-01T06:57:13.000Z</time>
      </trkpt>
      <trkpt lat="42.00449" lon="20.07444">
        <ele>814.84997558594</ele>
        <time>2023-10-01T06:57:12.000Z</time>
      </trkpt>
      <trkpt lat="42.00447" lon="20.07443">
        <ele>815.34002685547</ele>
        <time>2023-10-01T06:57:11.000Z</time>
      </trkpt>
      <trkpt lat="42.00435" lon="20.07426">
        <ele>818.21997070312</ele>
        <time>2023-10-01T06:57:06.000Z</time>
      </trkpt>
      <trkpt lat="42.00431" lon="20.07421">
        <ele>818.70001220703</ele>
        <time>2023-10-01T06:57:05.000Z</time>
      </trkpt>
      <trkpt lat="42.00427" lon="20.07417">
        <ele>819.17999267578</ele>
        <time>2023-10-01T06:57:04.000Z</time>
      </trkpt>
      <trkpt lat="42.00421" lon="20.0741">
        <ele>820.14001464844</ele>
        <time>2023-10-01T06:57:03.000Z</time>
      </trkpt>
      <trkpt lat="42.00415" lon="20.07405">
        <ele>820.61999511719</ele>
        <time>2023-10-01T06:57:02.000Z</time>
      </trkpt>
      <trkpt lat="42.0041" lon="20.074">
        <ele>821.09997558594</ele>
        <time>2023-10-01T06:57:01.000Z</time>
      </trkpt>
      <trkpt lat="42.00406" lon="20.07396">
        <ele>821.09997558594</ele>
        <time>2023-10-01T06:57:00.000Z</time>
      </trkpt>
      <trkpt lat="42.00402" lon="20.07393">
        <ele>821.58001708984</ele>
        <time>2023-10-01T06:56:59.000Z</time>
      </trkpt>
      <trkpt lat="42.00394" lon="20.07385">
        <ele>822.54998779297</ele>
        <time>2023-10-01T06:56:58.000Z</time>
      </trkpt>
      <trkpt lat="42.00392" lon="20.07382">
        <ele>822.54998779297</ele>
        <time>2023-10-01T06:56:57.000Z</time>
      </trkpt>
      <trkpt lat="42.00386" lon="20.07374">
        <ele>823.51000976562</ele>
        <time>2023-10-01T06:56:56.000Z</time>
      </trkpt>
      <trkpt lat="42.00382" lon="20.0737">
        <ele>823.98999023438</ele>
        <time>2023-10-01T06:56:55.000Z</time>
      </trkpt>
      <trkpt lat="42.00376" lon="20.07361">
        <ele>824.95001220703</ele>
        <time>2023-10-01T06:56:54.000Z</time>
      </trkpt>
      <trkpt lat="42.00372" lon="20.07355">
        <ele>825.90997314453</ele>
        <time>2023-10-01T06:56:53.000Z</time>
      </trkpt>
      <trkpt lat="42.00367" lon="20.07348">
        <ele>826.39001464844</ele>
        <time>2023-10-01T06:56:52.000Z</time>
      </trkpt>
      <trkpt lat="42.00363" lon="20.07343">
        <ele>826.86999511719</ele>
        <time>2023-10-01T06:56:51.000Z</time>
      </trkpt>
      <trkpt lat="42.00362" lon="20.07342">
        <ele>826.86999511719</ele>
        <time>2023-10-01T06:56:50.000Z</time>
      </trkpt>
      <trkpt lat="42.00347" lon="20.07331">
        <ele>828.30999755859</ele>
        <time>2023-10-01T06:56:48.000Z</time>
      </trkpt>
      <trkpt lat="42.00341" lon="20.07327">
        <ele>829.27001953125</ele>
        <time>2023-10-01T06:56:47.000Z</time>
      </trkpt>
      <trkpt lat="42.00336" lon="20.07324">
        <ele>829.76000976562</ele>
        <time>2023-10-01T06:56:46.000Z</time>
      </trkpt>
      <trkpt lat="42.0033" lon="20.07319">
        <ele>831.20001220703</ele>
        <time>2023-10-01T06:56:45.000Z</time>
      </trkpt>
      <trkpt lat="42.00324" lon="20.07314">
        <ele>832.15997314453</ele>
        <time>2023-10-01T06:56:44.000Z</time>
      </trkpt>
      <trkpt lat="42.0032" lon="20.07309">
        <ele>833.11999511719</ele>
        <time>2023-10-01T06:56:43.000Z</time>
      </trkpt>
      <trkpt lat="42.00315" lon="20.07303">
        <ele>834.08001708984</ele>
        <time>2023-10-01T06:56:42.000Z</time>
      </trkpt>
      <trkpt lat="42.00296" lon="20.07275">
        <ele>837.92999267578</ele>
        <time>2023-10-01T06:56:38.000Z</time>
      </trkpt>
      <trkpt lat="42.00292" lon="20.0727">
        <ele>838.40997314453</ele>
        <time>2023-10-01T06:56:37.000Z</time>
      </trkpt>
      <trkpt lat="42.00289" lon="20.07264">
        <ele>838.89001464844</ele>
        <time>2023-10-01T06:56:36.000Z</time>
      </trkpt>
      <trkpt lat="42.00285" lon="20.07255">
        <ele>839.84997558594</ele>
        <time>2023-10-01T06:56:35.000Z</time>
      </trkpt>
      <trkpt lat="42.00283" lon="20.07247">
        <ele>840.80999755859</ele>
        <time>2023-10-01T06:56:34.000Z</time>
      </trkpt>
      <trkpt lat="42.00282" lon="20.0724">
        <ele>840.80999755859</ele>
        <time>2023-10-01T06:56:33.000Z</time>
      </trkpt>
      <trkpt lat="42.0028" lon="20.07232">
        <ele>841.28997802734</ele>
        <time>2023-10-01T06:56:32.000Z</time>
      </trkpt>
      <trkpt lat="42.00278" lon="20.07224">
        <ele>841.77001953125</ele>
        <time>2023-10-01T06:56:31.000Z</time>
      </trkpt>
      <trkpt lat="42.00274" lon="20.07215">
        <ele>842.72998046875</ele>
        <time>2023-10-01T06:56:30.000Z</time>
      </trkpt>
      <trkpt lat="42.00272" lon="20.07211">
        <ele>842.72998046875</ele>
        <time>2023-10-01T06:56:29.000Z</time>
      </trkpt>
      <trkpt lat="42.00263" lon="20.07194">
        <ele>843.69000244141</ele>
        <time>2023-10-01T06:56:27.000Z</time>
      </trkpt>
      <trkpt lat="42.00261" lon="20.07191">
        <ele>843.69000244141</ele>
        <time>2023-10-01T06:56:26.000Z</time>
      </trkpt>
      <trkpt lat="42.0025" lon="20.07175">
        <ele>845.14001464844</ele>
        <time>2023-10-01T06:56:24.000Z</time>
      </trkpt>
      <trkpt lat="42.00245" lon="20.07169">
        <ele>845.14001464844</ele>
        <time>2023-10-01T06:56:23.000Z</time>
      </trkpt>
      <trkpt lat="42.00241" lon="20.07164">
        <ele>845.61999511719</ele>
        <time>2023-10-01T06:56:22.000Z</time>
      </trkpt>
      <trkpt lat="42.00236" lon="20.07159">
        <ele>845.61999511719</ele>
        <time>2023-10-01T06:56:21.000Z</time>
      </trkpt>
      <trkpt lat="42.00228" lon="20.0715">
        <ele>846.09997558594</ele>
        <time>2023-10-01T06:56:20.000Z</time>
      </trkpt>
      <trkpt lat="42.00227" lon="20.07149">
        <ele>846.09997558594</ele>
        <time>2023-10-01T06:56:19.000Z</time>
      </trkpt>
      <trkpt lat="42.00216" lon="20.07138">
        <ele>847.05999755859</ele>
        <time>2023-10-01T06:56:18.000Z</time>
      </trkpt>
      <trkpt lat="42.00209" lon="20.07133">
        <ele>848.02001953125</ele>
        <time>2023-10-01T06:56:17.000Z</time>
      </trkpt>
      <trkpt lat="42.00202" lon="20.07129">
        <ele>848.5</ele>
        <time>2023-10-01T06:56:16.000Z</time>
      </trkpt>
      <trkpt lat="42.00194" lon="20.07126">
        <ele>849.46002197266</ele>
        <time>2023-10-01T06:56:15.000Z</time>
      </trkpt>
      <trkpt lat="42.00186" lon="20.07125">
        <ele>850.41998291016</ele>
        <time>2023-10-01T06:56:14.000Z</time>
      </trkpt>
      <trkpt lat="42.00181" lon="20.07125">
        <ele>850.90002441406</ele>
        <time>2023-10-01T06:56:13.000Z</time>
      </trkpt>
      <trkpt lat="42.00175" lon="20.07125">
        <ele>851.38000488281</ele>
        <time>2023-10-01T06:56:12.000Z</time>
      </trkpt>
      <trkpt lat="42.00162" lon="20.07127">
        <ele>852.83001708984</ele>
        <time>2023-10-01T06:56:11.000Z</time>
      </trkpt>
      <trkpt lat="42.00154" lon="20.07128">
        <ele>853.78997802734</ele>
        <time>2023-10-01T06:56:10.000Z</time>
      </trkpt>
      <trkpt lat="42.00144" lon="20.07129">
        <ele>854.75</ele>
        <time>2023-10-01T06:56:09.000Z</time>
      </trkpt>
      <trkpt lat="42.00135" lon="20.07127">
        <ele>856.19000244141</ele>
        <time>2023-10-01T06:56:08.000Z</time>
      </trkpt>
      <trkpt lat="42.00125" lon="20.07123">
        <ele>858.10998535156</ele>
        <time>2023-10-01T06:56:07.000Z</time>
      </trkpt>
      <trkpt lat="42.00121" lon="20.07121">
        <ele>859.08001708984</ele>
        <time>2023-10-01T06:56:06.000Z</time>
      </trkpt>
      <trkpt lat="42.0011" lon="20.07113">
        <ele>861</ele>
        <time>2023-10-01T06:56:05.000Z</time>
      </trkpt>
      <trkpt lat="42.00104" lon="20.07109">
        <ele>862.91998291016</ele>
        <time>2023-10-01T06:56:04.000Z</time>
      </trkpt>
      <trkpt lat="42.00099" lon="20.07107">
        <ele>863.88000488281</ele>
        <time>2023-10-01T06:56:03.000Z</time>
      </trkpt>
      <trkpt lat="42.00094" lon="20.07109">
        <ele>864.84002685547</ele>
        <time>2023-10-01T06:56:02.000Z</time>
      </trkpt>
      <trkpt lat="42.00092" lon="20.07114">
        <ele>865.32000732422</ele>
        <time>2023-10-01T06:56:01.000Z</time>
      </trkpt>
      <trkpt lat="42.0009" lon="20.07121">
        <ele>865.79998779297</ele>
        <time>2023-10-01T06:56:00.000Z</time>
      </trkpt>
      <trkpt lat="42.00091" lon="20.0713">
        <ele>866.28997802734</ele>
        <time>2023-10-01T06:55:59.000Z</time>
      </trkpt>
      <trkpt lat="42.00093" lon="20.07141">
        <ele>867.25</ele>
        <time>2023-10-01T06:55:58.000Z</time>
      </trkpt>
      <trkpt lat="42.00097" lon="20.07152">
        <ele>867.72998046875</ele>
        <time>2023-10-01T06:55:57.000Z</time>
      </trkpt>
      <trkpt lat="42.00102" lon="20.07162">
        <ele>868.21002197266</ele>
        <time>2023-10-01T06:55:56.000Z</time>
      </trkpt>
      <trkpt lat="42.00109" lon="20.0717">
        <ele>869.16998291016</ele>
        <time>2023-10-01T06:55:55.000Z</time>
      </trkpt>
      <trkpt lat="42.00111" lon="20.07173">
        <ele>869.65002441406</ele>
        <time>2023-10-01T06:55:54.000Z</time>
      </trkpt>
      <trkpt lat="42.0012" lon="20.07181">
        <ele>870.60998535156</ele>
        <time>2023-10-01T06:55:53.000Z</time>
      </trkpt>
      <trkpt lat="42.00127" lon="20.07188">
        <ele>871.57000732422</ele>
        <time>2023-10-01T06:55:52.000Z</time>
      </trkpt>
      <trkpt lat="42.00134" lon="20.07196">
        <ele>872.04998779297</ele>
        <time>2023-10-01T06:55:51.000Z</time>
      </trkpt>
      <trkpt lat="42.00141" lon="20.07201">
        <ele>872.04998779297</ele>
        <time>2023-10-01T06:55:50.000Z</time>
      </trkpt>
      <trkpt lat="42.00148" lon="20.07204">
        <ele>872.53002929688</ele>
        <time>2023-10-01T06:55:49.000Z</time>
      </trkpt>
      <trkpt lat="42.00154" lon="20.07205">
        <ele>873.01000976562</ele>
        <time>2023-10-01T06:55:48.000Z</time>
      </trkpt>
      <trkpt lat="42.00162" lon="20.07205">
        <ele>873.5</ele>
        <time>2023-10-01T06:55:47.000Z</time>
      </trkpt>
      <trkpt lat="42.00167" lon="20.07206">
        <ele>873.5</ele>
        <time>2023-10-01T06:55:46.000Z</time>
      </trkpt>
      <trkpt lat="42.00172" lon="20.07209">
        <ele>873.97998046875</ele>
        <time>2023-10-01T06:55:45.000Z</time>
      </trkpt>
      <trkpt lat="42.00175" lon="20.07213">
        <ele>873.97998046875</ele>
        <time>2023-10-01T06:55:44.000Z</time>
      </trkpt>
      <trkpt lat="42.00178" lon="20.07217">
        <ele>874.46002197266</ele>
        <time>2023-10-01T06:55:43.000Z</time>
      </trkpt>
      <trkpt lat="42.0018" lon="20.07222">
        <ele>874.94000244141</ele>
        <time>2023-10-01T06:55:42.000Z</time>
      </trkpt>
      <trkpt lat="42.00186" lon="20.07236">
        <ele>875.90002441406</ele>
        <time>2023-10-01T06:55:41.000Z</time>
      </trkpt>
      <trkpt lat="42.00192" lon="20.07248">
        <ele>876.38000488281</ele>
        <time>2023-10-01T06:55:40.000Z</time>
      </trkpt>
      <trkpt lat="42.00197" lon="20.07259">
        <ele>877.34002685547</ele>
        <time>2023-10-01T06:55:39.000Z</time>
      </trkpt>
      <trkpt lat="42.00197" lon="20.07261">
        <ele>877.82000732422</ele>
        <time>2023-10-01T06:55:38.000Z</time>
      </trkpt>
      <trkpt lat="42.00203" lon="20.07274">
        <ele>878.78002929688</ele>
        <time>2023-10-01T06:55:37.000Z</time>
      </trkpt>
      <trkpt lat="42.00205" lon="20.07282">
        <ele>879.26000976562</ele>
        <time>2023-10-01T06:55:36.000Z</time>
      </trkpt>
      <trkpt lat="42.00205" lon="20.0729">
        <ele>879.73999023438</ele>
        <time>2023-10-01T06:55:35.000Z</time>
      </trkpt>
      <trkpt lat="42.00203" lon="20.07298">
        <ele>880.71002197266</ele>
        <time>2023-10-01T06:55:34.000Z</time>
      </trkpt>
      <trkpt lat="42.00201" lon="20.07304">
        <ele>881.19000244141</ele>
        <time>2023-10-01T06:55:33.000Z</time>
      </trkpt>
      <trkpt lat="42.00197" lon="20.0731">
        <ele>881.66998291016</ele>
        <time>2023-10-01T06:55:32.000Z</time>
      </trkpt>
      <trkpt lat="42.00195" lon="20.07314">
        <ele>882.15002441406</ele>
        <time>2023-10-01T06:55:31.000Z</time>
      </trkpt>
      <trkpt lat="42.00189" lon="20.07322">
        <ele>883.59002685547</ele>
        <time>2023-10-01T06:55:30.000Z</time>
      </trkpt>
      <trkpt lat="42.00184" lon="20.07328">
        <ele>884.54998779297</ele>
        <time>2023-10-01T06:55:29.000Z</time>
      </trkpt>
      <trkpt lat="42.0018" lon="20.07332">
        <ele>885.03002929688</ele>
        <time>2023-10-01T06:55:28.000Z</time>
      </trkpt>
      <trkpt lat="42.00174" lon="20.07335">
        <ele>885.51000976562</ele>
        <time>2023-10-01T06:55:27.000Z</time>
      </trkpt>
      <trkpt lat="42.00169" lon="20.07336">
        <ele>885.98999023438</ele>
        <time>2023-10-01T06:55:26.000Z</time>
      </trkpt>
      <trkpt lat="42.00165" lon="20.07334">
        <ele>886.46997070312</ele>
        <time>2023-10-01T06:55:25.000Z</time>
      </trkpt>
      <trkpt lat="42.00162" lon="20.07329">
        <ele>886.95001220703</ele>
        <time>2023-10-01T06:55:24.000Z</time>
      </trkpt>
      <trkpt lat="42.0016" lon="20.07325">
        <ele>886.95001220703</ele>
        <time>2023-10-01T06:55:23.000Z</time>
      </trkpt>
      <trkpt lat="42.00161" lon="20.07312">
        <ele>888.40002441406</ele>
        <time>2023-10-01T06:55:19.000Z</time>
      </trkpt>
      <trkpt lat="42.00168" lon="20.07297">
        <ele>891.28002929688</ele>
        <time>2023-10-01T06:55:12.000Z</time>
      </trkpt>
      <trkpt lat="42.00168" lon="20.07291">
        <ele>891.28002929688</ele>
        <time>2023-10-01T06:55:11.000Z</time>
      </trkpt>
      <trkpt lat="42.00166" lon="20.07284">
        <ele>891.76000976562</ele>
        <time>2023-10-01T06:55:10.000Z</time>
      </trkpt>
      <trkpt lat="42.00162" lon="20.07275">
        <ele>892.23999023438</ele>
        <time>2023-10-01T06:55:09.000Z</time>
      </trkpt>
      <trkpt lat="42.00157" lon="20.07267">
        <ele>893.20001220703</ele>
        <time>2023-10-01T06:55:08.000Z</time>
      </trkpt>
      <trkpt lat="42.00153" lon="20.07261">
        <ele>893.67999267578</ele>
        <time>2023-10-01T06:55:07.000Z</time>
      </trkpt>
      <trkpt lat="42.00149" lon="20.07258">
        <ele>894.64001464844</ele>
        <time>2023-10-01T06:55:06.000Z</time>
      </trkpt>
      <trkpt lat="42.00145" lon="20.07257">
        <ele>895.11999511719</ele>
        <time>2023-10-01T06:55:05.000Z</time>
      </trkpt>
      <trkpt lat="42.0014" lon="20.0726">
        <ele>896.09002685547</ele>
        <time>2023-10-01T06:55:04.000Z</time>
      </trkpt>
      <trkpt lat="42.00136" lon="20.07265">
        <ele>896.57000732422</ele>
        <time>2023-10-01T06:55:03.000Z</time>
      </trkpt>
      <trkpt lat="42.00132" lon="20.07271">
        <ele>898.01000976562</ele>
        <time>2023-10-01T06:55:02.000Z</time>
      </trkpt>
      <trkpt lat="42.00127" lon="20.07275">
        <ele>898.96997070312</ele>
        <time>2023-10-01T06:55:01.000Z</time>
      </trkpt>
      <trkpt lat="42.00124" lon="20.07278">
        <ele>899.45001220703</ele>
        <time>2023-10-01T06:55:00.000Z</time>
      </trkpt>
      <trkpt lat="42.00116" lon="20.07282">
        <ele>899.92999267578</ele>
        <time>2023-10-01T06:54:59.000Z</time>
      </trkpt>
      <trkpt lat="42.0011" lon="20.07286">
        <ele>900.89001464844</ele>
        <time>2023-10-01T06:54:58.000Z</time>
      </trkpt>
      <trkpt lat="42.00106" lon="20.07287">
        <ele>901.84997558594</ele>
        <time>2023-10-01T06:54:57.000Z</time>
      </trkpt>
      <trkpt lat="42.00097" lon="20.0729">
        <ele>903.29998779297</ele>
        <time>2023-10-01T06:54:56.000Z</time>
      </trkpt>
      <trkpt lat="42.00092" lon="20.07292">
        <ele>903.78002929688</ele>
        <time>2023-10-01T06:54:55.000Z</time>
      </trkpt>
      <trkpt lat="42.00086" lon="20.07296">
        <ele>904.73999023438</ele>
        <time>2023-10-01T06:54:54.000Z</time>
      </trkpt>
      <trkpt lat="42.00079" lon="20.073">
        <ele>906.17999267578</ele>
        <time>2023-10-01T06:54:53.000Z</time>
      </trkpt>
      <trkpt lat="42.00076" lon="20.07301">
        <ele>906.17999267578</ele>
        <time>2023-10-01T06:54:52.000Z</time>
      </trkpt>
      <trkpt lat="42.00066" lon="20.07305">
        <ele>907.61999511719</ele>
        <time>2023-10-01T06:54:51.000Z</time>
      </trkpt>
      <trkpt lat="42.00056" lon="20.07309">
        <ele>909.05999755859</ele>
        <time>2023-10-01T06:54:49.000Z</time>
      </trkpt>
      <trkpt lat="42.00048" lon="20.07312">
        <ele>910.51000976562</ele>
        <time>2023-10-01T06:54:48.000Z</time>
      </trkpt>
      <trkpt lat="42.00041" lon="20.07315">
        <ele>910.98999023438</ele>
        <time>2023-10-01T06:54:47.000Z</time>
      </trkpt>
      <trkpt lat="42.00034" lon="20.0732">
        <ele>911.95001220703</ele>
        <time>2023-10-01T06:54:46.000Z</time>
      </trkpt>
      <trkpt lat="42.00029" lon="20.07324">
        <ele>912.42999267578</ele>
        <time>2023-10-01T06:54:45.000Z</time>
      </trkpt>
      <trkpt lat="42.00022" lon="20.0733">
        <ele>913.86999511719</ele>
        <time>2023-10-01T06:54:44.000Z</time>
      </trkpt>
      <trkpt lat="42.00017" lon="20.07335">
        <ele>914.83001708984</ele>
        <time>2023-10-01T06:54:43.000Z</time>
      </trkpt>
      <trkpt lat="42.00012" lon="20.07338">
        <ele>915.30999755859</ele>
        <time>2023-10-01T06:54:42.000Z</time>
      </trkpt>
      <trkpt lat="42.00005" lon="20.07343">
        <ele>916.27001953125</ele>
        <time>2023-10-01T06:54:41.000Z</time>
      </trkpt>
      <trkpt lat="41.99996" lon="20.07348">
        <ele>917.71997070312</ele>
        <time>2023-10-01T06:54:40.000Z</time>
      </trkpt>
      <trkpt lat="41.9999" lon="20.07354">
        <ele>918.20001220703</ele>
        <time>2023-10-01T06:54:39.000Z</time>
      </trkpt>
      <trkpt lat="41.99983" lon="20.07361">
        <ele>919.15997314453</ele>
        <time>2023-10-01T06:54:38.000Z</time>
      </trkpt>
      <trkpt lat="41.99977" lon="20.07366">
        <ele>920.11999511719</ele>
        <time>2023-10-01T06:54:37.000Z</time>
      </trkpt>
      <trkpt lat="41.99972" lon="20.0737">
        <ele>921.08001708984</ele>
        <time>2023-10-01T06:54:36.000Z</time>
      </trkpt>
      <trkpt lat="41.99967" lon="20.07372">
        <ele>921.55999755859</ele>
        <time>2023-10-01T06:54:35.000Z</time>
      </trkpt>
      <trkpt lat="41.9996" lon="20.07373">
        <ele>922.52001953125</ele>
        <time>2023-10-01T06:54:34.000Z</time>
      </trkpt>
      <trkpt lat="41.99954" lon="20.07372">
        <ele>923</ele>
        <time>2023-10-01T06:54:33.000Z</time>
      </trkpt>
      <trkpt lat="41.99948" lon="20.07371">
        <ele>923.47998046875</ele>
        <time>2023-10-01T06:54:32.000Z</time>
      </trkpt>
      <trkpt lat="41.9994" lon="20.0737">
        <ele>924.45001220703</ele>
        <time>2023-10-01T06:54:31.000Z</time>
      </trkpt>
      <trkpt lat="41.99932" lon="20.07367">
        <ele>925.40997314453</ele>
        <time>2023-10-01T06:54:30.000Z</time>
      </trkpt>
      <trkpt lat="41.99925" lon="20.07363">
        <ele>925.89001464844</ele>
        <time>2023-10-01T06:54:29.000Z</time>
      </trkpt>
      <trkpt lat="41.99915" lon="20.07356">
        <ele>926.84997558594</ele>
        <time>2023-10-01T06:54:28.000Z</time>
      </trkpt>
      <trkpt lat="41.99907" lon="20.0735">
        <ele>927.80999755859</ele>
        <time>2023-10-01T06:54:27.000Z</time>
      </trkpt>
      <trkpt lat="41.99899" lon="20.07343">
        <ele>928.77001953125</ele>
        <time>2023-10-01T06:54:26.000Z</time>
      </trkpt>
      <trkpt lat="41.99894" lon="20.07337">
        <ele>929.25</ele>
        <time>2023-10-01T06:54:25.000Z</time>
      </trkpt>
      <trkpt lat="41.99887" lon="20.07328">
        <ele>930.21002197266</ele>
        <time>2023-10-01T06:54:24.000Z</time>
      </trkpt>
      <trkpt lat="41.99881" lon="20.0732">
        <ele>931.16998291016</ele>
        <time>2023-10-01T06:54:23.000Z</time>
      </trkpt>
      <trkpt lat="41.99875" lon="20.07317">
        <ele>932.14001464844</ele>
        <time>2023-10-01T06:54:22.000Z</time>
      </trkpt>
      <trkpt lat="41.99869" lon="20.07316">
        <ele>933.09997558594</ele>
        <time>2023-10-01T06:54:21.000Z</time>
      </trkpt>
      <trkpt lat="41.99864" lon="20.07318">
        <ele>933.58001708984</ele>
        <time>2023-10-01T06:54:20.000Z</time>
      </trkpt>
      <trkpt lat="41.99853" lon="20.07322">
        <ele>934.53997802734</ele>
        <time>2023-10-01T06:54:19.000Z</time>
      </trkpt>
      <trkpt lat="41.99844" lon="20.07323">
        <ele>935.02001953125</ele>
        <time>2023-10-01T06:54:18.000Z</time>
      </trkpt>
      <trkpt lat="41.99835" lon="20.07322">
        <ele>935.5</ele>
        <time>2023-10-01T06:54:17.000Z</time>
      </trkpt>
      <trkpt lat="41.99826" lon="20.07318">
        <ele>936.46002197266</ele>
        <time>2023-10-01T06:54:16.000Z</time>
      </trkpt>
      <trkpt lat="41.99821" lon="20.07313">
        <ele>937.41998291016</ele>
        <time>2023-10-01T06:54:15.000Z</time>
      </trkpt>
      <trkpt lat="41.99814" lon="20.07305">
        <ele>938.38000488281</ele>
        <time>2023-10-01T06:54:14.000Z</time>
      </trkpt>
      <trkpt lat="41.99808" lon="20.073">
        <ele>939.34997558594</ele>
        <time>2023-10-01T06:54:13.000Z</time>
      </trkpt>
      <trkpt lat="41.998" lon="20.07294">
        <ele>940.30999755859</ele>
        <time>2023-10-01T06:54:12.000Z</time>
      </trkpt>
      <trkpt lat="41.99792" lon="20.07291">
        <ele>940.78997802734</ele>
        <time>2023-10-01T06:54:11.000Z</time>
      </trkpt>
      <trkpt lat="41.99783" lon="20.07291">
        <ele>941.75</ele>
        <time>2023-10-01T06:54:10.000Z</time>
      </trkpt>
      <trkpt lat="41.99776" lon="20.07291">
        <ele>942.22998046875</ele>
        <time>2023-10-01T06:54:09.000Z</time>
      </trkpt>
      <trkpt lat="41.99765" lon="20.07291">
        <ele>943.19000244141</ele>
        <time>2023-10-01T06:54:08.000Z</time>
      </trkpt>
      <trkpt lat="41.99761" lon="20.0729">
        <ele>943.19000244141</ele>
        <time>2023-10-01T06:54:07.000Z</time>
      </trkpt>
      <trkpt lat="41.99748" lon="20.07286">
        <ele>944.63000488281</ele>
        <time>2023-10-01T06:54:06.000Z</time>
      </trkpt>
      <trkpt lat="41.9974" lon="20.07282">
        <ele>945.10998535156</ele>
        <time>2023-10-01T06:54:05.000Z</time>
      </trkpt>
      <trkpt lat="41.99734" lon="20.07278">
        <ele>945.59002685547</ele>
        <time>2023-10-01T06:54:04.000Z</time>
      </trkpt>
      <trkpt lat="41.99732" lon="20.07276">
        <ele>945.59002685547</ele>
        <time>2023-10-01T06:54:03.000Z</time>
      </trkpt>
      <trkpt lat="41.9972" lon="20.07264">
        <ele>944.63000488281</ele>
        <time>2023-10-01T06:54:02.000Z</time>
      </trkpt>
      <trkpt lat="41.99714" lon="20.07259">
        <ele>944.63000488281</ele>
        <time>2023-10-01T06:54:01.000Z</time>
      </trkpt>
      <trkpt lat="41.99707" lon="20.07256">
        <ele>945.10998535156</ele>
        <time>2023-10-01T06:54:00.000Z</time>
      </trkpt>
      <trkpt lat="41.99701" lon="20.07256">
        <ele>945.59002685547</ele>
        <time>2023-10-01T06:53:59.000Z</time>
      </trkpt>
      <trkpt lat="41.99697" lon="20.07259">
        <ele>945.59002685547</ele>
        <time>2023-10-01T06:53:58.000Z</time>
      </trkpt>
      <trkpt lat="41.99693" lon="20.07265">
        <ele>946.07000732422</ele>
        <time>2023-10-01T06:53:57.000Z</time>
      </trkpt>
      <trkpt lat="41.9969" lon="20.07273">
        <ele>946.55999755859</ele>
        <time>2023-10-01T06:53:56.000Z</time>
      </trkpt>
      <trkpt lat="41.99685" lon="20.07285">
        <ele>947.03997802734</ele>
        <time>2023-10-01T06:53:55.000Z</time>
      </trkpt>
      <trkpt lat="41.9968" lon="20.07293">
        <ele>947.52001953125</ele>
        <time>2023-10-01T06:53:54.000Z</time>
      </trkpt>
      <trkpt lat="41.99674" lon="20.073">
        <ele>948</ele>
        <time>2023-10-01T06:53:53.000Z</time>
      </trkpt>
      <trkpt lat="41.99667" lon="20.07306">
        <ele>948.47998046875</ele>
        <time>2023-10-01T06:53:52.000Z</time>
      </trkpt>
      <trkpt lat="41.99661" lon="20.07309">
        <ele>948.96002197266</ele>
        <time>2023-10-01T06:53:51.000Z</time>
      </trkpt>
      <trkpt lat="41.99653" lon="20.07313">
        <ele>949.91998291016</ele>
        <time>2023-10-01T06:53:50.000Z</time>
      </trkpt>
      <trkpt lat="41.99647" lon="20.07314">
        <ele>949.91998291016</ele>
        <time>2023-10-01T06:53:49.000Z</time>
      </trkpt>
      <trkpt lat="41.99638" lon="20.07314">
        <ele>950.40002441406</ele>
        <time>2023-10-01T06:53:48.000Z</time>
      </trkpt>
      <trkpt lat="41.99629" lon="20.07314">
        <ele>950.88000488281</ele>
        <time>2023-10-01T06:53:47.000Z</time>
      </trkpt>
      <trkpt lat="41.99624" lon="20.07312">
        <ele>951.35998535156</ele>
        <time>2023-10-01T06:53:46.000Z</time>
      </trkpt>
      <trkpt lat="41.99616" lon="20.07308">
        <ele>951.84002685547</ele>
        <time>2023-10-01T06:53:45.000Z</time>
      </trkpt>
      <trkpt lat="41.99604" lon="20.07302">
        <ele>953.28002929688</ele>
        <time>2023-10-01T06:53:44.000Z</time>
      </trkpt>
      <trkpt lat="41.99597" lon="20.07297">
        <ele>953.77001953125</ele>
        <time>2023-10-01T06:53:43.000Z</time>
      </trkpt>
      <trkpt lat="41.99593" lon="20.07294">
        <ele>953.77001953125</ele>
        <time>2023-10-01T06:53:42.000Z</time>
      </trkpt>
      <trkpt lat="41.99584" lon="20.07285">
        <ele>954.72998046875</ele>
        <time>2023-10-01T06:53:41.000Z</time>
      </trkpt>
      <trkpt lat="41.9958" lon="20.0728">
        <ele>955.69000244141</ele>
        <time>2023-10-01T06:53:40.000Z</time>
      </trkpt>
      <trkpt lat="41.99576" lon="20.07277">
        <ele>956.16998291016</ele>
        <time>2023-10-01T06:53:39.000Z</time>
      </trkpt>
      <trkpt lat="41.99571" lon="20.07276">
        <ele>957.13000488281</ele>
        <time>2023-10-01T06:53:38.000Z</time>
      </trkpt>
      <trkpt lat="41.99566" lon="20.07277">
        <ele>958.09002685547</ele>
        <time>2023-10-01T06:53:37.000Z</time>
      </trkpt>
      <trkpt lat="41.99563" lon="20.07279">
        <ele>958.57000732422</ele>
        <time>2023-10-01T06:53:36.000Z</time>
      </trkpt>
      <trkpt lat="41.99555" lon="20.07283">
        <ele>959.53002929688</ele>
        <time>2023-10-01T06:53:35.000Z</time>
      </trkpt>
      <trkpt lat="41.99549" lon="20.07284">
        <ele>960.01000976562</ele>
        <time>2023-10-01T06:53:34.000Z</time>
      </trkpt>
      <trkpt lat="41.99543" lon="20.07284">
        <ele>960.48999023438</ele>
        <time>2023-10-01T06:53:33.000Z</time>
      </trkpt>
      <trkpt lat="41.99538" lon="20.07283">
        <ele>960.97998046875</ele>
        <time>2023-10-01T06:53:32.000Z</time>
      </trkpt>
      <trkpt lat="41.9953" lon="20.07282">
        <ele>961.46002197266</ele>
        <time>2023-10-01T06:53:31.000Z</time>
      </trkpt>
      <trkpt lat="41.99517" lon="20.07282">
        <ele>963.38000488281</ele>
        <time>2023-10-01T06:53:30.000Z</time>
      </trkpt>
      <trkpt lat="41.99512" lon="20.07282">
        <ele>964.34002685547</ele>
        <time>2023-10-01T06:53:29.000Z</time>
      </trkpt>
      <trkpt lat="41.995" lon="20.0728">
        <ele>965.29998779297</ele>
        <time>2023-10-01T06:53:28.000Z</time>
      </trkpt>
      <trkpt lat="41.99496" lon="20.07279">
        <ele>965.78002929688</ele>
        <time>2023-10-01T06:53:27.000Z</time>
      </trkpt>
      <trkpt lat="41.99485" lon="20.07276">
        <ele>966.73999023438</ele>
        <time>2023-10-01T06:53:26.000Z</time>
      </trkpt>
      <trkpt lat="41.99478" lon="20.07274">
        <ele>967.70001220703</ele>
        <time>2023-10-01T06:53:25.000Z</time>
      </trkpt>
      <trkpt lat="41.99471" lon="20.07273">
        <ele>968.66998291016</ele>
        <time>2023-10-01T06:53:24.000Z</time>
      </trkpt>
      <trkpt lat="41.99465" lon="20.07274">
        <ele>969.63000488281</ele>
        <time>2023-10-01T06:53:23.000Z</time>
      </trkpt>
      <trkpt lat="41.99461" lon="20.07277">
        <ele>970.10998535156</ele>
        <time>2023-10-01T06:53:22.000Z</time>
      </trkpt>
      <trkpt lat="41.99459" lon="20.07282">
        <ele>970.59002685547</ele>
        <time>2023-10-01T06:53:21.000Z</time>
      </trkpt>
      <trkpt lat="41.99455" lon="20.07294">
        <ele>971.54998779297</ele>
        <time>2023-10-01T06:53:20.000Z</time>
      </trkpt>
      <trkpt lat="41.9945" lon="20.07303">
        <ele>972.51000976562</ele>
        <time>2023-10-01T06:53:19.000Z</time>
      </trkpt>
      <trkpt lat="41.99446" lon="20.07309">
        <ele>973.46997070312</ele>
        <time>2023-10-01T06:53:18.000Z</time>
      </trkpt>
      <trkpt lat="41.99439" lon="20.07314">
        <ele>973.95001220703</ele>
        <time>2023-10-01T06:53:17.000Z</time>
      </trkpt>
      <trkpt lat="41.99431" lon="20.07318">
        <ele>974.90997314453</ele>
        <time>2023-10-01T06:53:16.000Z</time>
      </trkpt>
      <trkpt lat="41.99427" lon="20.07319">
        <ele>975.39001464844</ele>
        <time>2023-10-01T06:53:15.000Z</time>
      </trkpt>
      <trkpt lat="41.99415" lon="20.07321">
        <ele>975.39001464844</ele>
        <time>2023-10-01T06:53:14.000Z</time>
      </trkpt>
      <trkpt lat="41.99407" lon="20.07325">
        <ele>974.90997314453</ele>
        <time>2023-10-01T06:53:13.000Z</time>
      </trkpt>
      <trkpt lat="41.99399" lon="20.0733">
        <ele>973.95001220703</ele>
        <time>2023-10-01T06:53:12.000Z</time>
      </trkpt>
      <trkpt lat="41.99391" lon="20.07335">
        <ele>972.98999023438</ele>
        <time>2023-10-01T06:53:11.000Z</time>
      </trkpt>
      <trkpt lat="41.99383" lon="20.07337">
        <ele>972.03002929688</ele>
        <time>2023-10-01T06:53:10.000Z</time>
      </trkpt>
      <trkpt lat="41.99377" lon="20.07339">
        <ele>971.07000732422</ele>
        <time>2023-10-01T06:53:09.000Z</time>
      </trkpt>
      <trkpt lat="41.99347" lon="20.07345">
        <ele>967.70001220703</ele>
        <time>2023-10-01T06:53:07.000Z</time>
      </trkpt>
      <trkpt lat="41.99336" lon="20.07348">
        <ele>966.73999023438</ele>
        <time>2023-10-01T06:53:06.000Z</time>
      </trkpt>
      <trkpt lat="41.99319" lon="20.07354">
        <ele>966.26000976562</ele>
        <time>2023-10-01T06:53:05.000Z</time>
      </trkpt>
      <trkpt lat="41.99306" lon="20.07358">
        <ele>964.82000732422</ele>
        <time>2023-10-01T06:53:04.000Z</time>
      </trkpt>
      <trkpt lat="41.99296" lon="20.0736">
        <ele>964.82000732422</ele>
        <time>2023-10-01T06:53:03.000Z</time>
      </trkpt>
      <trkpt lat="41.99285" lon="20.07363">
        <ele>964.34002685547</ele>
        <time>2023-10-01T06:53:02.000Z</time>
      </trkpt>
      <trkpt lat="41.99276" lon="20.07363">
        <ele>964.82000732422</ele>
        <time>2023-10-01T06:53:01.000Z</time>
      </trkpt>
      <trkpt lat="41.99264" lon="20.07362">
        <ele>963.38000488281</ele>
        <time>2023-10-01T06:53:00.000Z</time>
      </trkpt>
      <trkpt lat="41.99259" lon="20.07361">
        <ele>962.90002441406</ele>
        <time>2023-10-01T06:52:59.000Z</time>
      </trkpt>
      <trkpt lat="41.99238" lon="20.07357">
        <ele>960.48999023438</ele>
        <time>2023-10-01T06:52:58.000Z</time>
      </trkpt>
      <trkpt lat="41.99214" lon="20.07352">
        <ele>959.04998779297</ele>
        <time>2023-10-01T06:52:56.000Z</time>
      </trkpt>
      <trkpt lat="41.9921" lon="20.07351">
        <ele>958.57000732422</ele>
        <time>2023-10-01T06:52:55.000Z</time>
      </trkpt>
      <trkpt lat="41.99194" lon="20.07349">
        <ele>957.60998535156</ele>
        <time>2023-10-01T06:52:54.000Z</time>
      </trkpt>
      <trkpt lat="41.99181" lon="20.07349">
        <ele>956.65002441406</ele>
        <time>2023-10-01T06:52:53.000Z</time>
      </trkpt>
      <trkpt lat="41.99175" lon="20.07348">
        <ele>956.65002441406</ele>
        <time>2023-10-01T06:52:52.000Z</time>
      </trkpt>
      <trkpt lat="41.99163" lon="20.07346">
        <ele>955.21002197266</ele>
        <time>2023-10-01T06:52:51.000Z</time>
      </trkpt>
      <trkpt lat="41.99156" lon="20.07346">
        <ele>954.25</ele>
        <time>2023-10-01T06:52:50.000Z</time>
      </trkpt>
      <trkpt lat="41.99149" lon="20.07348">
        <ele>953.28002929688</ele>
        <time>2023-10-01T06:52:49.000Z</time>
      </trkpt>
      <trkpt lat="41.99143" lon="20.0735">
        <ele>953.28002929688</ele>
        <time>2023-10-01T06:52:48.000Z</time>
      </trkpt>
      <trkpt lat="41.99137" lon="20.07353">
        <ele>952.79998779297</ele>
        <time>2023-10-01T06:52:47.000Z</time>
      </trkpt>
      <trkpt lat="41.99133" lon="20.07357">
        <ele>952.32000732422</ele>
        <time>2023-10-01T06:52:46.000Z</time>
      </trkpt>
      <trkpt lat="41.99129" lon="20.07363">
        <ele>951.84002685547</ele>
        <time>2023-10-01T06:52:45.000Z</time>
      </trkpt>
      <trkpt lat="41.99124" lon="20.07373">
        <ele>950.88000488281</ele>
        <time>2023-10-01T06:52:44.000Z</time>
      </trkpt>
      <trkpt lat="41.99119" lon="20.07379">
        <ele>950.40002441406</ele>
        <time>2023-10-01T06:52:43.000Z</time>
      </trkpt>
      <trkpt lat="41.99115" lon="20.07383">
        <ele>949.44000244141</ele>
        <time>2023-10-01T06:52:42.000Z</time>
      </trkpt>
      <trkpt lat="41.99111" lon="20.07385">
        <ele>948.96002197266</ele>
        <time>2023-10-01T06:52:41.000Z</time>
      </trkpt>
      <trkpt lat="41.99107" lon="20.07385">
        <ele>948.47998046875</ele>
        <time>2023-10-01T06:52:40.000Z</time>
      </trkpt>
      <trkpt lat="41.99102" lon="20.07382">
        <ele>947.52001953125</ele>
        <time>2023-10-01T06:52:39.000Z</time>
      </trkpt>
      <trkpt lat="41.99098" lon="20.0738">
        <ele>947.03997802734</ele>
        <time>2023-10-01T06:52:38.000Z</time>
      </trkpt>
      <trkpt lat="41.99083" lon="20.07366">
        <ele>945.10998535156</ele>
        <time>2023-10-01T06:52:36.000Z</time>
      </trkpt>
      <trkpt lat="41.99079" lon="20.07363">
        <ele>944.63000488281</ele>
        <time>2023-10-01T06:52:35.000Z</time>
      </trkpt>
      <trkpt lat="41.99071" lon="20.07356">
        <ele>943.66998291016</ele>
        <time>2023-10-01T06:52:34.000Z</time>
      </trkpt>
      <trkpt lat="41.99058" lon="20.07345">
        <ele>942.22998046875</ele>
        <time>2023-10-01T06:52:33.000Z</time>
      </trkpt>
      <trkpt lat="41.99052" lon="20.07341">
        <ele>941.75</ele>
        <time>2023-10-01T06:52:32.000Z</time>
      </trkpt>
      <trkpt lat="41.99047" lon="20.0734">
        <ele>941.27001953125</ele>
        <time>2023-10-01T06:52:31.000Z</time>
      </trkpt>
      <trkpt lat="41.99039" lon="20.07339">
        <ele>939.83001708984</ele>
        <time>2023-10-01T06:52:30.000Z</time>
      </trkpt>
      <trkpt lat="41.99033" lon="20.0734">
        <ele>938.85998535156</ele>
        <time>2023-10-01T06:52:29.000Z</time>
      </trkpt>
      <trkpt lat="41.99026" lon="20.07343">
        <ele>937.41998291016</ele>
        <time>2023-10-01T06:52:28.000Z</time>
      </trkpt>
      <trkpt lat="41.99013" lon="20.07348">
        <ele>936.46002197266</ele>
        <time>2023-10-01T06:52:27.000Z</time>
      </trkpt>
      <trkpt lat="41.99002" lon="20.0735">
        <ele>935.5</ele>
        <time>2023-10-01T06:52:26.000Z</time>
      </trkpt>
      <trkpt lat="41.98995" lon="20.0735">
        <ele>935.02001953125</ele>
        <time>2023-10-01T06:52:25.000Z</time>
      </trkpt>
      <trkpt lat="41.98984" lon="20.07349">
        <ele>933.58001708984</ele>
        <time>2023-10-01T06:52:24.000Z</time>
      </trkpt>
      <trkpt lat="41.98975" lon="20.07349">
        <ele>932.61999511719</ele>
        <time>2023-10-01T06:52:23.000Z</time>
      </trkpt>
      <trkpt lat="41.98968" lon="20.07348">
        <ele>932.14001464844</ele>
        <time>2023-10-01T06:52:22.000Z</time>
      </trkpt>
      <trkpt lat="41.9896" lon="20.07348">
        <ele>931.65002441406</ele>
        <time>2023-10-01T06:52:21.000Z</time>
      </trkpt>
      <trkpt lat="41.98953" lon="20.07345">
        <ele>931.16998291016</ele>
        <time>2023-10-01T06:52:20.000Z</time>
      </trkpt>
      <trkpt lat="41.98945" lon="20.0734">
        <ele>930.69000244141</ele>
        <time>2023-10-01T06:52:19.000Z</time>
      </trkpt>
      <trkpt lat="41.98938" lon="20.07337">
        <ele>929.72998046875</ele>
        <time>2023-10-01T06:52:18.000Z</time>
      </trkpt>
      <trkpt lat="41.98932" lon="20.07336">
        <ele>929.25</ele>
        <time>2023-10-01T06:52:17.000Z</time>
      </trkpt>
      <trkpt lat="41.98926" lon="20.07336">
        <ele>928.77001953125</ele>
        <time>2023-10-01T06:52:16.000Z</time>
      </trkpt>
      <trkpt lat="41.9892" lon="20.07338">
        <ele>928.28997802734</ele>
        <time>2023-10-01T06:52:15.000Z</time>
      </trkpt>
      <trkpt lat="41.98916" lon="20.07339">
        <ele>927.80999755859</ele>
        <time>2023-10-01T06:52:14.000Z</time>
      </trkpt>
      <trkpt lat="41.9891" lon="20.07338">
        <ele>926.84997558594</ele>
        <time>2023-10-01T06:52:13.000Z</time>
      </trkpt>
      <trkpt lat="41.98905" lon="20.07337">
        <ele>926.36999511719</ele>
        <time>2023-10-01T06:52:12.000Z</time>
      </trkpt>
      <trkpt lat="41.98899" lon="20.07332">
        <ele>925.40997314453</ele>
        <time>2023-10-01T06:52:10.000Z</time>
      </trkpt>
      <trkpt lat="41.98897" lon="20.07325">
        <ele>924.45001220703</ele>
        <time>2023-10-01T06:52:09.000Z</time>
      </trkpt>
      <trkpt lat="41.98894" lon="20.07317">
        <ele>923.96002197266</ele>
        <time>2023-10-01T06:52:08.000Z</time>
      </trkpt>
      <trkpt lat="41.98892" lon="20.0731">
        <ele>923</ele>
        <time>2023-10-01T06:52:07.000Z</time>
      </trkpt>
      <trkpt lat="41.98888" lon="20.07305">
        <ele>922.03997802734</ele>
        <time>2023-10-01T06:52:06.000Z</time>
      </trkpt>
      <trkpt lat="41.98883" lon="20.07303">
        <ele>921.08001708984</ele>
        <time>2023-10-01T06:52:05.000Z</time>
      </trkpt>
      <trkpt lat="41.98876" lon="20.07304">
        <ele>920.11999511719</ele>
        <time>2023-10-01T06:52:04.000Z</time>
      </trkpt>
      <trkpt lat="41.98869" lon="20.07307">
        <ele>919.64001464844</ele>
        <time>2023-10-01T06:52:03.000Z</time>
      </trkpt>
      <trkpt lat="41.98859" lon="20.07311">
        <ele>918.67999267578</ele>
        <time>2023-10-01T06:52:02.000Z</time>
      </trkpt>
      <trkpt lat="41.98852" lon="20.07312">
        <ele>917.71997070312</ele>
        <time>2023-10-01T06:52:01.000Z</time>
      </trkpt>
      <trkpt lat="41.98844" lon="20.07313">
        <ele>916.75</ele>
        <time>2023-10-01T06:52:00.000Z</time>
      </trkpt>
      <trkpt lat="41.98837" lon="20.07316">
        <ele>916.27001953125</ele>
        <time>2023-10-01T06:51:59.000Z</time>
      </trkpt>
      <trkpt lat="41.98829" lon="20.0732">
        <ele>915.30999755859</ele>
        <time>2023-10-01T06:51:58.000Z</time>
      </trkpt>
      <trkpt lat="41.98821" lon="20.07324">
        <ele>914.83001708984</ele>
        <time>2023-10-01T06:51:57.000Z</time>
      </trkpt>
      <trkpt lat="41.98815" lon="20.07326">
        <ele>914.34997558594</ele>
        <time>2023-10-01T06:51:56.000Z</time>
      </trkpt>
      <trkpt lat="41.98811" lon="20.07325">
        <ele>914.34997558594</ele>
        <time>2023-10-01T06:51:55.000Z</time>
      </trkpt>
      <trkpt lat="41.98802" lon="20.07323">
        <ele>913.39001464844</ele>
        <time>2023-10-01T06:51:54.000Z</time>
      </trkpt>
      <trkpt lat="41.98796" lon="20.07322">
        <ele>912.90997314453</ele>
        <time>2023-10-01T06:51:53.000Z</time>
      </trkpt>
      <trkpt lat="41.98789" lon="20.07323">
        <ele>912.42999267578</ele>
        <time>2023-10-01T06:51:52.000Z</time>
      </trkpt>
      <trkpt lat="41.98782" lon="20.07325">
        <ele>911.95001220703</ele>
        <time>2023-10-01T06:51:51.000Z</time>
      </trkpt>
      <trkpt lat="41.98774" lon="20.07329">
        <ele>911.46997070312</ele>
        <time>2023-10-01T06:51:50.000Z</time>
      </trkpt>
      <trkpt lat="41.98764" lon="20.07335">
        <ele>911.46997070312</ele>
        <time>2023-10-01T06:51:49.000Z</time>
      </trkpt>
      <trkpt lat="41.98757" lon="20.07338">
        <ele>911.46997070312</ele>
        <time>2023-10-01T06:51:48.000Z</time>
      </trkpt>
      <trkpt lat="41.98751" lon="20.07339">
        <ele>910.98999023438</ele>
        <time>2023-10-01T06:51:47.000Z</time>
      </trkpt>
      <trkpt lat="41.98745" lon="20.07337">
        <ele>910.51000976562</ele>
        <time>2023-10-01T06:51:46.000Z</time>
      </trkpt>
      <trkpt lat="41.98739" lon="20.07335">
        <ele>910.51000976562</ele>
        <time>2023-10-01T06:51:45.000Z</time>
      </trkpt>
      <trkpt lat="41.98728" lon="20.07328">
        <ele>910.51000976562</ele>
        <time>2023-10-01T06:51:44.000Z</time>
      </trkpt>
      <trkpt lat="41.98721" lon="20.07325">
        <ele>910.51000976562</ele>
        <time>2023-10-01T06:51:43.000Z</time>
      </trkpt>
      <trkpt lat="41.98714" lon="20.07324">
        <ele>910.98999023438</ele>
        <time>2023-10-01T06:51:42.000Z</time>
      </trkpt>
      <trkpt lat="41.98707" lon="20.07324">
        <ele>910.98999023438</ele>
        <time>2023-10-01T06:51:41.000Z</time>
      </trkpt>
      <trkpt lat="41.98702" lon="20.07327">
        <ele>911.46997070312</ele>
        <time>2023-10-01T06:51:40.000Z</time>
      </trkpt>
      <trkpt lat="41.98697" lon="20.07331">
        <ele>911.95001220703</ele>
        <time>2023-10-01T06:51:39.000Z</time>
      </trkpt>
      <trkpt lat="41.98694" lon="20.07333">
        <ele>911.95001220703</ele>
        <time>2023-10-01T06:51:38.000Z</time>
      </trkpt>
      <trkpt lat="41.98687" lon="20.07332">
        <ele>912.42999267578</ele>
        <time>2023-10-01T06:51:36.000Z</time>
      </trkpt>
      <trkpt lat="41.98683" lon="20.07328">
        <ele>912.90997314453</ele>
        <time>2023-10-01T06:51:35.000Z</time>
      </trkpt>
      <trkpt lat="41.98679" lon="20.07322">
        <ele>913.39001464844</ele>
        <time>2023-10-01T06:51:34.000Z</time>
      </trkpt>
      <trkpt lat="41.98677" lon="20.07316">
        <ele>913.39001464844</ele>
        <time>2023-10-01T06:51:33.000Z</time>
      </trkpt>
      <trkpt lat="41.98672" lon="20.07302">
        <ele>913.39001464844</ele>
        <time>2023-10-01T06:51:32.000Z</time>
      </trkpt>
      <trkpt lat="41.9867" lon="20.07294">
        <ele>913.39001464844</ele>
        <time>2023-10-01T06:51:31.000Z</time>
      </trkpt>
      <trkpt lat="41.98666" lon="20.07286">
        <ele>914.34997558594</ele>
        <time>2023-10-01T06:51:30.000Z</time>
      </trkpt>
      <trkpt lat="41.98661" lon="20.0728">
        <ele>914.83001708984</ele>
        <time>2023-10-01T06:51:29.000Z</time>
      </trkpt>
      <trkpt lat="41.98656" lon="20.07275">
        <ele>914.83001708984</ele>
        <time>2023-10-01T06:51:28.000Z</time>
      </trkpt>
      <trkpt lat="41.9865" lon="20.07273">
        <ele>914.83001708984</ele>
        <time>2023-10-01T06:51:27.000Z</time>
      </trkpt>
      <trkpt lat="41.98637" lon="20.07269">
        <ele>915.30999755859</ele>
        <time>2023-10-01T06:51:25.000Z</time>
      </trkpt>
      <trkpt lat="41.98631" lon="20.07266">
        <ele>915.30999755859</ele>
        <time>2023-10-01T06:51:24.000Z</time>
      </trkpt>
      <trkpt lat="41.98624" lon="20.07259">
        <ele>909.53997802734</ele>
        <time>2023-10-01T06:50:08.000Z</time>
      </trkpt>
      <trkpt lat="41.98615" lon="20.0726">
        <ele>909.53997802734</ele>
        <time>2023-10-01T06:50:01.000Z</time>
      </trkpt>
      <trkpt lat="41.98609" lon="20.0726">
        <ele>909.05999755859</ele>
        <time>2023-10-01T06:50:00.000Z</time>
      </trkpt>
      <trkpt lat="41.98603" lon="20.0726">
        <ele>909.05999755859</ele>
        <time>2023-10-01T06:49:59.000Z</time>
      </trkpt>
      <trkpt lat="41.98598" lon="20.07259">
        <ele>909.53997802734</ele>
        <time>2023-10-01T06:49:58.000Z</time>
      </trkpt>
      <trkpt lat="41.98594" lon="20.07256">
        <ele>909.53997802734</ele>
        <time>2023-10-01T06:49:57.000Z</time>
      </trkpt>
      <trkpt lat="41.9859" lon="20.0725">
        <ele>909.53997802734</ele>
        <time>2023-10-01T06:49:56.000Z</time>
      </trkpt>
      <trkpt lat="41.98588" lon="20.07242">
        <ele>909.53997802734</ele>
        <time>2023-10-01T06:49:55.000Z</time>
      </trkpt>
      <trkpt lat="41.98586" lon="20.0723">
        <ele>909.05999755859</ele>
        <time>2023-10-01T06:49:54.000Z</time>
      </trkpt>
      <trkpt lat="41.98585" lon="20.07224">
        <ele>909.05999755859</ele>
        <time>2023-10-01T06:49:53.000Z</time>
      </trkpt>
      <trkpt lat="41.9858" lon="20.0721">
        <ele>909.05999755859</ele>
        <time>2023-10-01T06:49:52.000Z</time>
      </trkpt>
      <trkpt lat="41.98575" lon="20.07199">
        <ele>908.58001708984</ele>
        <time>2023-10-01T06:49:51.000Z</time>
      </trkpt>
      <trkpt lat="41.98573" lon="20.07194">
        <ele>908.58001708984</ele>
        <time>2023-10-01T06:49:50.000Z</time>
      </trkpt>
      <trkpt lat="41.98565" lon="20.07174">
        <ele>909.05999755859</ele>
        <time>2023-10-01T06:49:49.000Z</time>
      </trkpt>
      <trkpt lat="41.98561" lon="20.07166">
        <ele>909.05999755859</ele>
        <time>2023-10-01T06:49:48.000Z</time>
      </trkpt>
      <trkpt lat="41.98557" lon="20.07161">
        <ele>908.58001708984</ele>
        <time>2023-10-01T06:49:47.000Z</time>
      </trkpt>
      <trkpt lat="41.98549" lon="20.07153">
        <ele>908.58001708984</ele>
        <time>2023-10-01T06:49:46.000Z</time>
      </trkpt>
      <trkpt lat="41.98545" lon="20.07148">
        <ele>909.05999755859</ele>
        <time>2023-10-01T06:49:45.000Z</time>
      </trkpt>
      <trkpt lat="41.98544" lon="20.07142">
        <ele>909.05999755859</ele>
        <time>2023-10-01T06:49:44.000Z</time>
      </trkpt>
      <trkpt lat="41.98545" lon="20.07135">
        <ele>909.53997802734</ele>
        <time>2023-10-01T06:49:43.000Z</time>
      </trkpt>
      <trkpt lat="41.98549" lon="20.07127">
        <ele>909.53997802734</ele>
        <time>2023-10-01T06:49:42.000Z</time>
      </trkpt>
      <trkpt lat="41.98554" lon="20.07119">
        <ele>909.53997802734</ele>
        <time>2023-10-01T06:49:41.000Z</time>
      </trkpt>
      <trkpt lat="41.98559" lon="20.07114">
        <ele>909.53997802734</ele>
        <time>2023-10-01T06:49:40.000Z</time>
      </trkpt>
      <trkpt lat="41.98567" lon="20.07104">
        <ele>909.53997802734</ele>
        <time>2023-10-01T06:49:39.000Z</time>
      </trkpt>
      <trkpt lat="41.98569" lon="20.07097">
        <ele>909.53997802734</ele>
        <time>2023-10-01T06:49:38.000Z</time>
      </trkpt>
      <trkpt lat="41.9857" lon="20.07088">
        <ele>910.03002929688</ele>
        <time>2023-10-01T06:49:37.000Z</time>
      </trkpt>
      <trkpt lat="41.98568" lon="20.07079">
        <ele>910.03002929688</ele>
        <time>2023-10-01T06:49:36.000Z</time>
      </trkpt>
      <trkpt lat="41.98564" lon="20.07072">
        <ele>910.03002929688</ele>
        <time>2023-10-01T06:49:35.000Z</time>
      </trkpt>
      <trkpt lat="41.98562" lon="20.07069">
        <ele>910.03002929688</ele>
        <time>2023-10-01T06:49:34.000Z</time>
      </trkpt>
      <trkpt lat="41.98554" lon="20.0706">
        <ele>910.51000976562</ele>
        <time>2023-10-01T06:49:33.000Z</time>
      </trkpt>
      <trkpt lat="41.9855" lon="20.07054">
        <ele>910.51000976562</ele>
        <time>2023-10-01T06:49:32.000Z</time>
      </trkpt>
      <trkpt lat="41.98547" lon="20.07046">
        <ele>910.51000976562</ele>
        <time>2023-10-01T06:49:31.000Z</time>
      </trkpt>
      <trkpt lat="41.98545" lon="20.07037">
        <ele>910.98999023438</ele>
        <time>2023-10-01T06:49:30.000Z</time>
      </trkpt>
      <trkpt lat="41.98543" lon="20.07023">
        <ele>910.98999023438</ele>
        <time>2023-10-01T06:49:29.000Z</time>
      </trkpt>
      <trkpt lat="41.9854" lon="20.07011">
        <ele>910.98999023438</ele>
        <time>2023-10-01T06:49:28.000Z</time>
      </trkpt>
      <trkpt lat="41.98538" lon="20.07006">
        <ele>911.46997070312</ele>
        <time>2023-10-01T06:49:27.000Z</time>
      </trkpt>
      <trkpt lat="41.98534" lon="20.06992">
        <ele>911.46997070312</ele>
        <time>2023-10-01T06:49:26.000Z</time>
      </trkpt>
      <trkpt lat="41.9853" lon="20.06975">
        <ele>911.95001220703</ele>
        <time>2023-10-01T06:49:25.000Z</time>
      </trkpt>
      <trkpt lat="41.98528" lon="20.06964">
        <ele>911.95001220703</ele>
        <time>2023-10-01T06:49:24.000Z</time>
      </trkpt>
      <trkpt lat="41.98527" lon="20.06955">
        <ele>911.46997070312</ele>
        <time>2023-10-01T06:49:23.000Z</time>
      </trkpt>
      <trkpt lat="41.98527" lon="20.06945">
        <ele>911.46997070312</ele>
        <time>2023-10-01T06:49:22.000Z</time>
      </trkpt>
      <trkpt lat="41.98528" lon="20.06936">
        <ele>911.46997070312</ele>
        <time>2023-10-01T06:49:21.000Z</time>
      </trkpt>
      <trkpt lat="41.98531" lon="20.06931">
        <ele>911.46997070312</ele>
        <time>2023-10-01T06:49:20.000Z</time>
      </trkpt>
      <trkpt lat="41.98536" lon="20.06924">
        <ele>910.98999023438</ele>
        <time>2023-10-01T06:49:19.000Z</time>
      </trkpt>
      <trkpt lat="41.98539" lon="20.06921">
        <ele>911.46997070312</ele>
        <time>2023-10-01T06:49:18.000Z</time>
      </trkpt>
      <trkpt lat="41.98549" lon="20.06913">
        <ele>911.46997070312</ele>
        <time>2023-10-01T06:49:17.000Z</time>
      </trkpt>
      <trkpt lat="41.98556" lon="20.06907">
        <ele>911.46997070312</ele>
        <time>2023-10-01T06:49:16.000Z</time>
      </trkpt>
      <trkpt lat="41.98561" lon="20.069">
        <ele>911.95001220703</ele>
        <time>2023-10-01T06:49:15.000Z</time>
      </trkpt>
      <trkpt lat="41.98569" lon="20.06888">
        <ele>911.95001220703</ele>
        <time>2023-10-01T06:49:14.000Z</time>
      </trkpt>
      <trkpt lat="41.98576" lon="20.06881">
        <ele>912.42999267578</ele>
        <time>2023-10-01T06:49:13.000Z</time>
      </trkpt>
      <trkpt lat="41.98581" lon="20.06875">
        <ele>912.42999267578</ele>
        <time>2023-10-01T06:49:12.000Z</time>
      </trkpt>
      <trkpt lat="41.98585" lon="20.06869">
        <ele>911.95001220703</ele>
        <time>2023-10-01T06:49:11.000Z</time>
      </trkpt>
      <trkpt lat="41.98586" lon="20.06863">
        <ele>911.95001220703</ele>
        <time>2023-10-01T06:49:10.000Z</time>
      </trkpt>
      <trkpt lat="41.98585" lon="20.06856">
        <ele>911.95001220703</ele>
        <time>2023-10-01T06:49:09.000Z</time>
      </trkpt>
      <trkpt lat="41.9858" lon="20.06849">
        <ele>911.95001220703</ele>
        <time>2023-10-01T06:49:08.000Z</time>
      </trkpt>
      <trkpt lat="41.98572" lon="20.06845">
        <ele>911.95001220703</ele>
        <time>2023-10-01T06:49:07.000Z</time>
      </trkpt>
      <trkpt lat="41.98563" lon="20.06841">
        <ele>911.95001220703</ele>
        <time>2023-10-01T06:49:06.000Z</time>
      </trkpt>
      <trkpt lat="41.98557" lon="20.06838">
        <ele>911.95001220703</ele>
        <time>2023-10-01T06:49:05.000Z</time>
      </trkpt>
      <trkpt lat="41.9855" lon="20.06829">
        <ele>911.95001220703</ele>
        <time>2023-10-01T06:49:04.000Z</time>
      </trkpt>
      <trkpt lat="41.98543" lon="20.06819">
        <ele>911.95001220703</ele>
        <time>2023-10-01T06:49:03.000Z</time>
      </trkpt>
      <trkpt lat="41.98537" lon="20.06808">
        <ele>911.95001220703</ele>
        <time>2023-10-01T06:49:02.000Z</time>
      </trkpt>
      <trkpt lat="41.98531" lon="20.06801">
        <ele>911.95001220703</ele>
        <time>2023-10-01T06:49:01.000Z</time>
      </trkpt>
      <trkpt lat="41.98522" lon="20.06794">
        <ele>911.46997070312</ele>
        <time>2023-10-01T06:49:00.000Z</time>
      </trkpt>
      <trkpt lat="41.98517" lon="20.06791">
        <ele>910.98999023438</ele>
        <time>2023-10-01T06:48:59.000Z</time>
      </trkpt>
      <trkpt lat="41.98503" lon="20.0678">
        <ele>911.46997070312</ele>
        <time>2023-10-01T06:48:58.000Z</time>
      </trkpt>
      <trkpt lat="41.98494" lon="20.06775">
        <ele>910.98999023438</ele>
        <time>2023-10-01T06:48:57.000Z</time>
      </trkpt>
      <trkpt lat="41.98481" lon="20.06769">
        <ele>910.98999023438</ele>
        <time>2023-10-01T06:48:56.000Z</time>
      </trkpt>
      <trkpt lat="41.98479" lon="20.06768">
        <ele>910.98999023438</ele>
        <time>2023-10-01T06:48:55.000Z</time>
      </trkpt>
      <trkpt lat="41.98456" lon="20.0676">
        <ele>910.98999023438</ele>
        <time>2023-10-01T06:48:54.000Z</time>
      </trkpt>
      <trkpt lat="41.98446" lon="20.06756">
        <ele>910.51000976562</ele>
        <time>2023-10-01T06:48:53.000Z</time>
      </trkpt>
      <trkpt lat="41.98437" lon="20.06753">
        <ele>910.03002929688</ele>
        <time>2023-10-01T06:48:52.000Z</time>
      </trkpt>
      <trkpt lat="41.98428" lon="20.06753">
        <ele>910.03002929688</ele>
        <time>2023-10-01T06:48:51.000Z</time>
      </trkpt>
      <trkpt lat="41.9842" lon="20.06755">
        <ele>910.03002929688</ele>
        <time>2023-10-01T06:48:50.000Z</time>
      </trkpt>
      <trkpt lat="41.98414" lon="20.06759">
        <ele>909.53997802734</ele>
        <time>2023-10-01T06:48:49.000Z</time>
      </trkpt>
      <trkpt lat="41.98409" lon="20.06763">
        <ele>909.53997802734</ele>
        <time>2023-10-01T06:48:48.000Z</time>
      </trkpt>
      <trkpt lat="41.98407" lon="20.06767">
        <ele>909.53997802734</ele>
        <time>2023-10-01T06:48:47.000Z</time>
      </trkpt>
      <trkpt lat="41.98396" lon="20.06781">
        <ele>909.05999755859</ele>
        <time>2023-10-01T06:48:46.000Z</time>
      </trkpt>
      <trkpt lat="41.98393" lon="20.06788">
        <ele>909.53997802734</ele>
        <time>2023-10-01T06:48:45.000Z</time>
      </trkpt>
      <trkpt lat="41.98382" lon="20.0681">
        <ele>909.05999755859</ele>
        <time>2023-10-01T06:48:43.000Z</time>
      </trkpt>
      <trkpt lat="41.98378" lon="20.06817">
        <ele>909.05999755859</ele>
        <time>2023-10-01T06:48:42.000Z</time>
      </trkpt>
      <trkpt lat="41.98372" lon="20.06822">
        <ele>909.05999755859</ele>
        <time>2023-10-01T06:48:41.000Z</time>
      </trkpt>
      <trkpt lat="41.98366" lon="20.06826">
        <ele>909.53997802734</ele>
        <time>2023-10-01T06:48:40.000Z</time>
      </trkpt>
      <trkpt lat="41.9836" lon="20.06828">
        <ele>909.53997802734</ele>
        <time>2023-10-01T06:48:39.000Z</time>
      </trkpt>
      <trkpt lat="41.98355" lon="20.06829">
        <ele>909.53997802734</ele>
        <time>2023-10-01T06:48:38.000Z</time>
      </trkpt>
      <trkpt lat="41.98351" lon="20.06827">
        <ele>909.53997802734</ele>
        <time>2023-10-01T06:48:37.000Z</time>
      </trkpt>
      <trkpt lat="41.98347" lon="20.06824">
        <ele>909.53997802734</ele>
        <time>2023-10-01T06:48:36.000Z</time>
      </trkpt>
      <trkpt lat="41.98343" lon="20.0682">
        <ele>909.53997802734</ele>
        <time>2023-10-01T06:48:35.000Z</time>
      </trkpt>
      <trkpt lat="41.98339" lon="20.06816">
        <ele>909.53997802734</ele>
        <time>2023-10-01T06:48:34.000Z</time>
      </trkpt>
      <trkpt lat="41.98334" lon="20.06813">
        <ele>909.53997802734</ele>
        <time>2023-10-01T06:48:33.000Z</time>
      </trkpt>
      <trkpt lat="41.98329" lon="20.06809">
        <ele>909.05999755859</ele>
        <time>2023-10-01T06:48:32.000Z</time>
      </trkpt>
      <trkpt lat="41.98327" lon="20.06807">
        <ele>909.05999755859</ele>
        <time>2023-10-01T06:48:31.000Z</time>
      </trkpt>
      <trkpt lat="41.9832" lon="20.06804">
        <ele>909.05999755859</ele>
        <time>2023-10-01T06:48:30.000Z</time>
      </trkpt>
      <trkpt lat="41.98316" lon="20.06802">
        <ele>909.53997802734</ele>
        <time>2023-10-01T06:48:29.000Z</time>
      </trkpt>
      <trkpt lat="41.98312" lon="20.06801">
        <ele>909.53997802734</ele>
        <time>2023-10-01T06:48:28.000Z</time>
      </trkpt>
      <trkpt lat="41.98307" lon="20.068">
        <ele>909.05999755859</ele>
        <time>2023-10-01T06:48:27.000Z</time>
      </trkpt>
      <trkpt lat="41.98307" lon="20.068">
        <ele>909.53997802734</ele>
        <time>2023-10-01T06:48:26.000Z</time>
      </trkpt>
      <trkpt lat="41.98297" lon="20.06797">
        <ele>909.53997802734</ele>
        <time>2023-10-01T06:48:24.000Z</time>
      </trkpt>
      <trkpt lat="41.98292" lon="20.06797">
        <ele>909.05999755859</ele>
        <time>2023-10-01T06:48:23.000Z</time>
      </trkpt>
      <trkpt lat="41.98288" lon="20.06796">
        <ele>909.05999755859</ele>
        <time>2023-10-01T06:48:22.000Z</time>
      </trkpt>
      <trkpt lat="41.98284" lon="20.06796">
        <ele>909.05999755859</ele>
        <time>2023-10-01T06:48:21.000Z</time>
      </trkpt>
      <trkpt lat="41.9828" lon="20.06797">
        <ele>909.05999755859</ele>
        <time>2023-10-01T06:48:20.000Z</time>
      </trkpt>
      <trkpt lat="41.98273" lon="20.06797">
        <ele>909.05999755859</ele>
        <time>2023-10-01T06:48:19.000Z</time>
      </trkpt>
      <trkpt lat="41.98268" lon="20.06798">
        <ele>909.05999755859</ele>
        <time>2023-10-01T06:48:18.000Z</time>
      </trkpt>
      <trkpt lat="41.98264" lon="20.06799">
        <ele>909.05999755859</ele>
        <time>2023-10-01T06:48:17.000Z</time>
      </trkpt>
      <trkpt lat="41.9823" lon="20.06806">
        <ele>908.58001708984</ele>
        <time>2023-10-01T06:48:08.000Z</time>
      </trkpt>
      <trkpt lat="41.98225" lon="20.06806">
        <ele>908.58001708984</ele>
        <time>2023-10-01T06:48:07.000Z</time>
      </trkpt>
      <trkpt lat="41.98224" lon="20.06807">
        <ele>908.58001708984</ele>
        <time>2023-10-01T06:48:06.000Z</time>
      </trkpt>
      <trkpt lat="41.98216" lon="20.06811">
        <ele>910.03002929688</ele>
        <time>2023-10-01T06:47:08.000Z</time>
      </trkpt>
      <trkpt lat="41.98212" lon="20.0682">
        <ele>909.53997802734</ele>
        <time>2023-10-01T06:47:01.000Z</time>
      </trkpt>
      <trkpt lat="41.98211" lon="20.06828">
        <ele>910.03002929688</ele>
        <time>2023-10-01T06:47:00.000Z</time>
      </trkpt>
      <trkpt lat="41.98209" lon="20.06835">
        <ele>909.53997802734</ele>
        <time>2023-10-01T06:46:59.000Z</time>
      </trkpt>
      <trkpt lat="41.98209" lon="20.06844">
        <ele>908.58001708984</ele>
        <time>2023-10-01T06:46:58.000Z</time>
      </trkpt>
      <trkpt lat="41.98207" lon="20.06856">
        <ele>908.09997558594</ele>
        <time>2023-10-01T06:46:57.000Z</time>
      </trkpt>
      <trkpt lat="41.98206" lon="20.06862">
        <ele>907.61999511719</ele>
        <time>2023-10-01T06:46:56.000Z</time>
      </trkpt>
      <trkpt lat="41.98205" lon="20.06912">
        <ele>905.70001220703</ele>
        <time>2023-10-01T06:46:53.000Z</time>
      </trkpt>
      <trkpt lat="41.98205" lon="20.06923">
        <ele>905.21997070312</ele>
        <time>2023-10-01T06:46:52.000Z</time>
      </trkpt>
      <trkpt lat="41.98205" lon="20.0694">
        <ele>904.73999023438</ele>
        <time>2023-10-01T06:46:51.000Z</time>
      </trkpt>
      <trkpt lat="41.98202" lon="20.0695">
        <ele>904.73999023438</ele>
        <time>2023-10-01T06:46:50.000Z</time>
      </trkpt>
      <trkpt lat="41.98198" lon="20.06954">
        <ele>904.73999023438</ele>
        <time>2023-10-01T06:46:49.000Z</time>
      </trkpt>
      <trkpt lat="41.98193" lon="20.06956">
        <ele>904.73999023438</ele>
        <time>2023-10-01T06:46:48.000Z</time>
      </trkpt>
      <trkpt lat="41.98188" lon="20.06955">
        <ele>903.78002929688</ele>
        <time>2023-10-01T06:46:47.000Z</time>
      </trkpt>
      <trkpt lat="41.98185" lon="20.06953">
        <ele>903.78002929688</ele>
        <time>2023-10-01T06:46:46.000Z</time>
      </trkpt>
      <trkpt lat="41.98173" lon="20.06943">
        <ele>903.29998779297</ele>
        <time>2023-10-01T06:46:45.000Z</time>
      </trkpt>
      <trkpt lat="41.98169" lon="20.06941">
        <ele>903.29998779297</ele>
        <time>2023-10-01T06:46:44.000Z</time>
      </trkpt>
      <trkpt lat="41.98155" lon="20.06927">
        <ele>903.29998779297</ele>
        <time>2023-10-01T06:46:43.000Z</time>
      </trkpt>
      <trkpt lat="41.98145" lon="20.0692">
        <ele>903.78002929688</ele>
        <time>2023-10-01T06:46:42.000Z</time>
      </trkpt>
      <trkpt lat="41.98136" lon="20.06917">
        <ele>903.29998779297</ele>
        <time>2023-10-01T06:46:41.000Z</time>
      </trkpt>
      <trkpt lat="41.9813" lon="20.06915">
        <ele>903.29998779297</ele>
        <time>2023-10-01T06:46:40.000Z</time>
      </trkpt>
      <trkpt lat="41.98119" lon="20.06912">
        <ele>903.29998779297</ele>
        <time>2023-10-01T06:46:39.000Z</time>
      </trkpt>
      <trkpt lat="41.98106" lon="20.06911">
        <ele>903.29998779297</ele>
        <time>2023-10-01T06:46:38.000Z</time>
      </trkpt>
      <trkpt lat="41.98099" lon="20.0691">
        <ele>902.82000732422</ele>
        <time>2023-10-01T06:46:37.000Z</time>
      </trkpt>
      <trkpt lat="41.98091" lon="20.0691">
        <ele>902.82000732422</ele>
        <time>2023-10-01T06:46:36.000Z</time>
      </trkpt>
      <trkpt lat="41.98086" lon="20.06912">
        <ele>902.33001708984</ele>
        <time>2023-10-01T06:46:35.000Z</time>
      </trkpt>
      <trkpt lat="41.98082" lon="20.06917">
        <ele>901.84997558594</ele>
        <time>2023-10-01T06:46:34.000Z</time>
      </trkpt>
      <trkpt lat="41.9808" lon="20.06922">
        <ele>901.36999511719</ele>
        <time>2023-10-01T06:46:33.000Z</time>
      </trkpt>
      <trkpt lat="41.98081" lon="20.06928">
        <ele>900.89001464844</ele>
        <time>2023-10-01T06:46:32.000Z</time>
      </trkpt>
      <trkpt lat="41.98084" lon="20.06936">
        <ele>900.40997314453</ele>
        <time>2023-10-01T06:46:31.000Z</time>
      </trkpt>
      <trkpt lat="41.98086" lon="20.06943">
        <ele>900.40997314453</ele>
        <time>2023-10-01T06:46:30.000Z</time>
      </trkpt>
      <trkpt lat="41.98087" lon="20.06954">
        <ele>900.89001464844</ele>
        <time>2023-10-01T06:46:29.000Z</time>
      </trkpt>
      <trkpt lat="41.98088" lon="20.06966">
        <ele>901.36999511719</ele>
        <time>2023-10-01T06:46:28.000Z</time>
      </trkpt>
      <trkpt lat="41.98089" lon="20.06982">
        <ele>900.89001464844</ele>
        <time>2023-10-01T06:46:27.000Z</time>
      </trkpt>
      <trkpt lat="41.98092" lon="20.06995">
        <ele>900.89001464844</ele>
        <time>2023-10-01T06:46:26.000Z</time>
      </trkpt>
      <trkpt lat="41.98095" lon="20.07004">
        <ele>900.89001464844</ele>
        <time>2023-10-01T06:46:25.000Z</time>
      </trkpt>
      <trkpt lat="41.981" lon="20.07014">
        <ele>900.40997314453</ele>
        <time>2023-10-01T06:46:24.000Z</time>
      </trkpt>
      <trkpt lat="41.98105" lon="20.07022">
        <ele>899.92999267578</ele>
        <time>2023-10-01T06:46:23.000Z</time>
      </trkpt>
      <trkpt lat="41.98109" lon="20.07029">
        <ele>899.45001220703</ele>
        <time>2023-10-01T06:46:22.000Z</time>
      </trkpt>
      <trkpt lat="41.9811" lon="20.07035">
        <ele>899.45001220703</ele>
        <time>2023-10-01T06:46:21.000Z</time>
      </trkpt>
      <trkpt lat="41.98109" lon="20.07041">
        <ele>899.45001220703</ele>
        <time>2023-10-01T06:46:20.000Z</time>
      </trkpt>
      <trkpt lat="41.98106" lon="20.07046">
        <ele>899.45001220703</ele>
        <time>2023-10-01T06:46:19.000Z</time>
      </trkpt>
      <trkpt lat="41.981" lon="20.0705">
        <ele>899.45001220703</ele>
        <time>2023-10-01T06:46:18.000Z</time>
      </trkpt>
      <trkpt lat="41.98094" lon="20.07054">
        <ele>898.96997070312</ele>
        <time>2023-10-01T06:46:17.000Z</time>
      </trkpt>
      <trkpt lat="41.98088" lon="20.0706">
        <ele>898.48999023438</ele>
        <time>2023-10-01T06:46:16.000Z</time>
      </trkpt>
      <trkpt lat="41.98084" lon="20.07067">
        <ele>897.53002929688</ele>
        <time>2023-10-01T06:46:15.000Z</time>
      </trkpt>
      <trkpt lat="41.9808" lon="20.07079">
        <ele>897.53002929688</ele>
        <time>2023-10-01T06:46:14.000Z</time>
      </trkpt>
      <trkpt lat="41.98077" lon="20.07087">
        <ele>897.04998779297</ele>
        <time>2023-10-01T06:46:13.000Z</time>
      </trkpt>
      <trkpt lat="41.98073" lon="20.07098">
        <ele>897.04998779297</ele>
        <time>2023-10-01T06:46:12.000Z</time>
      </trkpt>
      <trkpt lat="41.98069" lon="20.07109">
        <ele>897.04998779297</ele>
        <time>2023-10-01T06:46:11.000Z</time>
      </trkpt>
      <trkpt lat="41.98066" lon="20.07116">
        <ele>897.04998779297</ele>
        <time>2023-10-01T06:46:10.000Z</time>
      </trkpt>
      <trkpt lat="41.98061" lon="20.07122">
        <ele>897.04998779297</ele>
        <time>2023-10-01T06:46:09.000Z</time>
      </trkpt>
      <trkpt lat="41.98056" lon="20.07125">
        <ele>897.04998779297</ele>
        <time>2023-10-01T06:46:08.000Z</time>
      </trkpt>
      <trkpt lat="41.98046" lon="20.07131">
        <ele>897.04998779297</ele>
        <time>2023-10-01T06:46:07.000Z</time>
      </trkpt>
      <trkpt lat="41.98039" lon="20.07135">
        <ele>897.04998779297</ele>
        <time>2023-10-01T06:46:06.000Z</time>
      </trkpt>
      <trkpt lat="41.98034" lon="20.07138">
        <ele>897.04998779297</ele>
        <time>2023-10-01T06:46:05.000Z</time>
      </trkpt>
      <trkpt lat="41.98029" lon="20.07141">
        <ele>897.53002929688</ele>
        <time>2023-10-01T06:46:04.000Z</time>
      </trkpt>
      <trkpt lat="41.98027" lon="20.07142">
        <ele>897.53002929688</ele>
        <time>2023-10-01T06:46:03.000Z</time>
      </trkpt>
      <trkpt lat="41.9802" lon="20.07149">
        <ele>895.60998535156</ele>
        <time>2023-10-01T06:43:25.000Z</time>
      </trkpt>
      <trkpt lat="41.98016" lon="20.07156">
        <ele>895.11999511719</ele>
        <time>2023-10-01T06:43:19.000Z</time>
      </trkpt>
      <trkpt lat="41.98015" lon="20.07163">
        <ele>895.11999511719</ele>
        <time>2023-10-01T06:43:18.000Z</time>
      </trkpt>
      <trkpt lat="41.98014" lon="20.07171">
        <ele>895.11999511719</ele>
        <time>2023-10-01T06:43:17.000Z</time>
      </trkpt>
      <trkpt lat="41.98014" lon="20.0718">
        <ele>895.11999511719</ele>
        <time>2023-10-01T06:43:16.000Z</time>
      </trkpt>
      <trkpt lat="41.98014" lon="20.07188">
        <ele>895.11999511719</ele>
        <time>2023-10-01T06:43:15.000Z</time>
      </trkpt>
      <trkpt lat="41.98014" lon="20.07197">
        <ele>894.64001464844</ele>
        <time>2023-10-01T06:43:14.000Z</time>
      </trkpt>
      <trkpt lat="41.98013" lon="20.07206">
        <ele>894.15997314453</ele>
        <time>2023-10-01T06:43:13.000Z</time>
      </trkpt>
      <trkpt lat="41.9801" lon="20.07215">
        <ele>894.15997314453</ele>
        <time>2023-10-01T06:43:12.000Z</time>
      </trkpt>
      <trkpt lat="41.98005" lon="20.07226">
        <ele>894.15997314453</ele>
        <time>2023-10-01T06:43:11.000Z</time>
      </trkpt>
      <trkpt lat="41.98001" lon="20.07238">
        <ele>894.64001464844</ele>
        <time>2023-10-01T06:43:10.000Z</time>
      </trkpt>
      <trkpt lat="41.97999" lon="20.07251">
        <ele>895.11999511719</ele>
        <time>2023-10-01T06:43:09.000Z</time>
      </trkpt>
      <trkpt lat="41.97999" lon="20.07256">
        <ele>895.60998535156</ele>
        <time>2023-10-01T06:43:08.000Z</time>
      </trkpt>
      <trkpt lat="41.97999" lon="20.07275">
        <ele>896.09002685547</ele>
        <time>2023-10-01T06:43:07.000Z</time>
      </trkpt>
      <trkpt lat="41.97998" lon="20.07282">
        <ele>897.04998779297</ele>
        <time>2023-10-01T06:43:06.000Z</time>
      </trkpt>
      <trkpt lat="41.97997" lon="20.0729">
        <ele>897.53002929688</ele>
        <time>2023-10-01T06:43:05.000Z</time>
      </trkpt>
      <trkpt lat="41.97994" lon="20.07298">
        <ele>898.48999023438</ele>
        <time>2023-10-01T06:43:04.000Z</time>
      </trkpt>
      <trkpt lat="41.97991" lon="20.07302">
        <ele>898.01000976562</ele>
        <time>2023-10-01T06:43:03.000Z</time>
      </trkpt>
      <trkpt lat="41.97987" lon="20.07306">
        <ele>898.01000976562</ele>
        <time>2023-10-01T06:43:02.000Z</time>
      </trkpt>
      <trkpt lat="41.97982" lon="20.07307">
        <ele>898.01000976562</ele>
        <time>2023-10-01T06:43:01.000Z</time>
      </trkpt>
      <trkpt lat="41.97976" lon="20.07306">
        <ele>898.48999023438</ele>
        <time>2023-10-01T06:43:00.000Z</time>
      </trkpt>
      <trkpt lat="41.97973" lon="20.07304">
        <ele>898.96997070312</ele>
        <time>2023-10-01T06:42:59.000Z</time>
      </trkpt>
      <trkpt lat="41.97965" lon="20.07299">
        <ele>899.92999267578</ele>
        <time>2023-10-01T06:42:58.000Z</time>
      </trkpt>
      <trkpt lat="41.97959" lon="20.07297">
        <ele>900.40997314453</ele>
        <time>2023-10-01T06:42:57.000Z</time>
      </trkpt>
      <trkpt lat="41.97952" lon="20.07296">
        <ele>900.89001464844</ele>
        <time>2023-10-01T06:42:56.000Z</time>
      </trkpt>
      <trkpt lat="41.97946" lon="20.07297">
        <ele>901.36999511719</ele>
        <time>2023-10-01T06:42:55.000Z</time>
      </trkpt>
      <trkpt lat="41.97941" lon="20.07298">
        <ele>901.84997558594</ele>
        <time>2023-10-01T06:42:54.000Z</time>
      </trkpt>
      <trkpt lat="41.97932" lon="20.07301">
        <ele>902.33001708984</ele>
        <time>2023-10-01T06:42:53.000Z</time>
      </trkpt>
      <trkpt lat="41.97925" lon="20.07304">
        <ele>903.29998779297</ele>
        <time>2023-10-01T06:42:52.000Z</time>
      </trkpt>
      <trkpt lat="41.97913" lon="20.07309">
        <ele>904.26000976562</ele>
        <time>2023-10-01T06:42:51.000Z</time>
      </trkpt>
      <trkpt lat="41.97903" lon="20.07314">
        <ele>904.73999023438</ele>
        <time>2023-10-01T06:42:50.000Z</time>
      </trkpt>
      <trkpt lat="41.97898" lon="20.07318">
        <ele>905.21997070312</ele>
        <time>2023-10-01T06:42:49.000Z</time>
      </trkpt>
      <trkpt lat="41.9788" lon="20.07332">
        <ele>906.65997314453</ele>
        <time>2023-10-01T06:42:47.000Z</time>
      </trkpt>
      <trkpt lat="41.97877" lon="20.07333">
        <ele>907.14001464844</ele>
        <time>2023-10-01T06:42:46.000Z</time>
      </trkpt>
      <trkpt lat="41.97867" lon="20.0734">
        <ele>908.09997558594</ele>
        <time>2023-10-01T06:42:45.000Z</time>
      </trkpt>
      <trkpt lat="41.97859" lon="20.07345">
        <ele>909.05999755859</ele>
        <time>2023-10-01T06:42:44.000Z</time>
      </trkpt>
      <trkpt lat="41.97854" lon="20.07351">
        <ele>909.53997802734</ele>
        <time>2023-10-01T06:42:43.000Z</time>
      </trkpt>
      <trkpt lat="41.9785" lon="20.07358">
        <ele>910.51000976562</ele>
        <time>2023-10-01T06:42:42.000Z</time>
      </trkpt>
      <trkpt lat="41.97846" lon="20.07366">
        <ele>911.46997070312</ele>
        <time>2023-10-01T06:42:41.000Z</time>
      </trkpt>
      <trkpt lat="41.97843" lon="20.07372">
        <ele>912.42999267578</ele>
        <time>2023-10-01T06:42:40.000Z</time>
      </trkpt>
      <trkpt lat="41.97838" lon="20.07384">
        <ele>913.86999511719</ele>
        <time>2023-10-01T06:42:39.000Z</time>
      </trkpt>
      <trkpt lat="41.97834" lon="20.07395">
        <ele>914.83001708984</ele>
        <time>2023-10-01T06:42:38.000Z</time>
      </trkpt>
      <trkpt lat="41.97826" lon="20.07413">
        <ele>916.27001953125</ele>
        <time>2023-10-01T06:42:36.000Z</time>
      </trkpt>
      <trkpt lat="41.97822" lon="20.07419">
        <ele>916.27001953125</ele>
        <time>2023-10-01T06:42:35.000Z</time>
      </trkpt>
      <trkpt lat="41.97819" lon="20.07422">
        <ele>916.27001953125</ele>
        <time>2023-10-01T06:42:34.000Z</time>
      </trkpt>
      <trkpt lat="41.97813" lon="20.07422">
        <ele>915.78997802734</ele>
        <time>2023-10-01T06:42:33.000Z</time>
      </trkpt>
      <trkpt lat="41.97808" lon="20.07419">
        <ele>915.78997802734</ele>
        <time>2023-10-01T06:42:32.000Z</time>
      </trkpt>
      <trkpt lat="41.97802" lon="20.07415">
        <ele>915.78997802734</ele>
        <time>2023-10-01T06:42:31.000Z</time>
      </trkpt>
      <trkpt lat="41.97799" lon="20.07413">
        <ele>915.78997802734</ele>
        <time>2023-10-01T06:42:30.000Z</time>
      </trkpt>
      <trkpt lat="41.97795" lon="20.07408">
        <ele>915.78997802734</ele>
        <time>2023-10-01T06:42:29.000Z</time>
      </trkpt>
      <trkpt lat="41.97786" lon="20.074">
        <ele>915.30999755859</ele>
        <time>2023-10-01T06:42:28.000Z</time>
      </trkpt>
      <trkpt lat="41.9778" lon="20.07396">
        <ele>915.30999755859</ele>
        <time>2023-10-01T06:42:27.000Z</time>
      </trkpt>
      <trkpt lat="41.97774" lon="20.07395">
        <ele>914.83001708984</ele>
        <time>2023-10-01T06:42:26.000Z</time>
      </trkpt>
      <trkpt lat="41.97768" lon="20.07396">
        <ele>914.34997558594</ele>
        <time>2023-10-01T06:42:25.000Z</time>
      </trkpt>
      <trkpt lat="41.97763" lon="20.07397">
        <ele>913.39001464844</ele>
        <time>2023-10-01T06:42:24.000Z</time>
      </trkpt>
      <trkpt lat="41.97753" lon="20.07401">
        <ele>911.95001220703</ele>
        <time>2023-10-01T06:42:23.000Z</time>
      </trkpt>
      <trkpt lat="41.97736" lon="20.07407">
        <ele>910.98999023438</ele>
        <time>2023-10-01T06:42:21.000Z</time>
      </trkpt>
      <trkpt lat="41.97728" lon="20.07409">
        <ele>910.51000976562</ele>
        <time>2023-10-01T06:42:20.000Z</time>
      </trkpt>
      <trkpt lat="41.97722" lon="20.07413">
        <ele>910.51000976562</ele>
        <time>2023-10-01T06:42:19.000Z</time>
      </trkpt>
      <trkpt lat="41.97715" lon="20.07417">
        <ele>910.03002929688</ele>
        <time>2023-10-01T06:42:18.000Z</time>
      </trkpt>
      <trkpt lat="41.97713" lon="20.07418">
        <ele>909.53997802734</ele>
        <time>2023-10-01T06:42:17.000Z</time>
      </trkpt>
      <trkpt lat="41.97709" lon="20.07405">
        <ele>909.05999755859</ele>
        <time>2023-10-01T06:42:12.000Z</time>
      </trkpt>
      <trkpt lat="41.97713" lon="20.07402">
        <ele>907.61999511719</ele>
        <time>2023-10-01T06:42:11.000Z</time>
      </trkpt>
      <trkpt lat="41.97718" lon="20.07396">
        <ele>906.17999267578</ele>
        <time>2023-10-01T06:42:10.000Z</time>
      </trkpt>
      <trkpt lat="41.97721" lon="20.07391">
        <ele>905.21997070312</ele>
        <time>2023-10-01T06:42:09.000Z</time>
      </trkpt>
      <trkpt lat="41.97726" lon="20.07385">
        <ele>903.29998779297</ele>
        <time>2023-10-01T06:42:08.000Z</time>
      </trkpt>
      <trkpt lat="41.97732" lon="20.07377">
        <ele>901.36999511719</ele>
        <time>2023-10-01T06:42:07.000Z</time>
      </trkpt>
      <trkpt lat="41.97736" lon="20.07371">
        <ele>899.92999267578</ele>
        <time>2023-10-01T06:42:06.000Z</time>
      </trkpt>
      <trkpt lat="41.97739" lon="20.07364">
        <ele>898.96997070312</ele>
        <time>2023-10-01T06:42:05.000Z</time>
      </trkpt>
      <trkpt lat="41.97741" lon="20.07358">
        <ele>898.48999023438</ele>
        <time>2023-10-01T06:42:04.000Z</time>
      </trkpt>
      <trkpt lat="41.97741" lon="20.07355">
        <ele>897.53002929688</ele>
        <time>2023-10-01T06:42:03.000Z</time>
      </trkpt>
      <trkpt lat="41.97743" lon="20.07344">
        <ele>896.09002685547</ele>
        <time>2023-10-01T06:42:02.000Z</time>
      </trkpt>
      <trkpt lat="41.97744" lon="20.07337">
        <ele>895.11999511719</ele>
        <time>2023-10-01T06:42:01.000Z</time>
      </trkpt>
      <trkpt lat="41.97747" lon="20.07329">
        <ele>894.15997314453</ele>
        <time>2023-10-01T06:42:00.000Z</time>
      </trkpt>
      <trkpt lat="41.97749" lon="20.07323">
        <ele>893.67999267578</ele>
        <time>2023-10-01T06:41:59.000Z</time>
      </trkpt>
      <trkpt lat="41.97752" lon="20.07318">
        <ele>893.20001220703</ele>
        <time>2023-10-01T06:41:58.000Z</time>
      </trkpt>
      <trkpt lat="41.97756" lon="20.07314">
        <ele>892.71997070312</ele>
        <time>2023-10-01T06:41:57.000Z</time>
      </trkpt>
      <trkpt lat="41.97758" lon="20.07313">
        <ele>892.71997070312</ele>
        <time>2023-10-01T06:41:56.000Z</time>
      </trkpt>
      <trkpt lat="41.97766" lon="20.07308">
        <ele>891.28002929688</ele>
        <time>2023-10-01T06:41:55.000Z</time>
      </trkpt>
      <trkpt lat="41.97772" lon="20.07305">
        <ele>890.32000732422</ele>
        <time>2023-10-01T06:41:54.000Z</time>
      </trkpt>
      <trkpt lat="41.97776" lon="20.07302">
        <ele>889.84002685547</ele>
        <time>2023-10-01T06:41:53.000Z</time>
      </trkpt>
      <trkpt lat="41.97783" lon="20.07299">
        <ele>888.88000488281</ele>
        <time>2023-10-01T06:41:52.000Z</time>
      </trkpt>
      <trkpt lat="41.97784" lon="20.07297">
        <ele>888.88000488281</ele>
        <time>2023-10-01T06:41:51.000Z</time>
      </trkpt>
      <trkpt lat="41.97788" lon="20.07292">
        <ele>888.40002441406</ele>
        <time>2023-10-01T06:41:50.000Z</time>
      </trkpt>
      <trkpt lat="41.97777" lon="20.0728">
        <ele>885.98999023438</ele>
        <time>2023-10-01T06:41:44.000Z</time>
      </trkpt>
      <trkpt lat="41.97771" lon="20.07282">
        <ele>885.03002929688</ele>
        <time>2023-10-01T06:41:43.000Z</time>
      </trkpt>
      <trkpt lat="41.97767" lon="20.07282">
        <ele>884.07000732422</ele>
        <time>2023-10-01T06:41:42.000Z</time>
      </trkpt>
      <trkpt lat="41.97759" lon="20.07283">
        <ele>883.10998535156</ele>
        <time>2023-10-01T06:41:41.000Z</time>
      </trkpt>
      <trkpt lat="41.97753" lon="20.07283">
        <ele>882.15002441406</ele>
        <time>2023-10-01T06:41:40.000Z</time>
      </trkpt>
      <trkpt lat="41.97748" lon="20.07283">
        <ele>881.66998291016</ele>
        <time>2023-10-01T06:41:39.000Z</time>
      </trkpt>
      <trkpt lat="41.97739" lon="20.07283">
        <ele>880.21997070312</ele>
        <time>2023-10-01T06:41:38.000Z</time>
      </trkpt>
      <trkpt lat="41.97731" lon="20.07284">
        <ele>879.26000976562</ele>
        <time>2023-10-01T06:41:37.000Z</time>
      </trkpt>
      <trkpt lat="41.97723" lon="20.07284">
        <ele>878.78002929688</ele>
        <time>2023-10-01T06:41:36.000Z</time>
      </trkpt>
      <trkpt lat="41.97716" lon="20.07285">
        <ele>878.29998779297</ele>
        <time>2023-10-01T06:41:35.000Z</time>
      </trkpt>
      <trkpt lat="41.97713" lon="20.07286">
        <ele>878.29998779297</ele>
        <time>2023-10-01T06:41:34.000Z</time>
      </trkpt>
      <trkpt lat="41.9771" lon="20.07287">
        <ele>877.82000732422</ele>
        <time>2023-10-01T06:41:33.000Z</time>
      </trkpt>
      <trkpt lat="41.97702" lon="20.07288">
        <ele>877.82000732422</ele>
        <time>2023-10-01T06:41:32.000Z</time>
      </trkpt>
      <trkpt lat="41.97698" lon="20.07289">
        <ele>877.34002685547</ele>
        <time>2023-10-01T06:41:31.000Z</time>
      </trkpt>
      <trkpt lat="41.97693" lon="20.07288">
        <ele>876.38000488281</ele>
        <time>2023-10-01T06:41:30.000Z</time>
      </trkpt>
      <trkpt lat="41.97689" lon="20.07287">
        <ele>875.90002441406</ele>
        <time>2023-10-01T06:41:29.000Z</time>
      </trkpt>
      <trkpt lat="41.97682" lon="20.07285">
        <ele>875.41998291016</ele>
        <time>2023-10-01T06:41:28.000Z</time>
      </trkpt>
      <trkpt lat="41.97675" lon="20.07284">
        <ele>874.94000244141</ele>
        <time>2023-10-01T06:41:27.000Z</time>
      </trkpt>
      <trkpt lat="41.97668" lon="20.07285">
        <ele>874.46002197266</ele>
        <time>2023-10-01T06:41:26.000Z</time>
      </trkpt>
      <trkpt lat="41.97662" lon="20.07288">
        <ele>874.46002197266</ele>
        <time>2023-10-01T06:41:25.000Z</time>
      </trkpt>
      <trkpt lat="41.97656" lon="20.07292">
        <ele>873.97998046875</ele>
        <time>2023-10-01T06:41:24.000Z</time>
      </trkpt>
      <trkpt lat="41.97651" lon="20.07297">
        <ele>873.97998046875</ele>
        <time>2023-10-01T06:41:23.000Z</time>
      </trkpt>
      <trkpt lat="41.97647" lon="20.07303">
        <ele>873.97998046875</ele>
        <time>2023-10-01T06:41:22.000Z</time>
      </trkpt>
      <trkpt lat="41.97642" lon="20.07309">
        <ele>873.97998046875</ele>
        <time>2023-10-01T06:41:21.000Z</time>
      </trkpt>
      <trkpt lat="41.97638" lon="20.07314">
        <ele>873.97998046875</ele>
        <time>2023-10-01T06:41:20.000Z</time>
      </trkpt>
      <trkpt lat="41.97634" lon="20.07318">
        <ele>873.5</ele>
        <time>2023-10-01T06:41:19.000Z</time>
      </trkpt>
      <trkpt lat="41.97633" lon="20.07319">
        <ele>873.5</ele>
        <time>2023-10-01T06:41:18.000Z</time>
      </trkpt>
      <trkpt lat="41.97626" lon="20.07319">
        <ele>873.5</ele>
        <time>2023-10-01T06:41:17.000Z</time>
      </trkpt>
      <trkpt lat="41.97623" lon="20.07319">
        <ele>873.01000976562</ele>
        <time>2023-10-01T06:41:16.000Z</time>
      </trkpt>
      <trkpt lat="41.97617" lon="20.07317">
        <ele>873.01000976562</ele>
        <time>2023-10-01T06:41:14.000Z</time>
      </trkpt>
      <trkpt lat="41.97618" lon="20.07313">
        <ele>879.73999023438</ele>
        <time>2023-10-01T06:40:53.000Z</time>
      </trkpt>
      <trkpt lat="41.97616" lon="20.07306">
        <ele>881.19000244141</ele>
        <time>2023-10-01T06:40:46.000Z</time>
      </trkpt>
      <trkpt lat="41.97614" lon="20.07296">
        <ele>881.66998291016</ele>
        <time>2023-10-01T06:40:45.000Z</time>
      </trkpt>
      <trkpt lat="41.97614" lon="20.07292">
        <ele>881.66998291016</ele>
        <time>2023-10-01T06:40:44.000Z</time>
      </trkpt>
      <trkpt lat="41.97614" lon="20.07257">
        <ele>880.71002197266</ele>
        <time>2023-10-01T06:40:41.000Z</time>
      </trkpt>
      <trkpt lat="41.97615" lon="20.07246">
        <ele>880.71002197266</ele>
        <time>2023-10-01T06:40:40.000Z</time>
      </trkpt>
      <trkpt lat="41.97616" lon="20.07233">
        <ele>879.73999023438</ele>
        <time>2023-10-01T06:40:39.000Z</time>
      </trkpt>
      <trkpt lat="41.97619" lon="20.07221">
        <ele>879.26000976562</ele>
        <time>2023-10-01T06:40:38.000Z</time>
      </trkpt>
      <trkpt lat="41.97621" lon="20.07216">
        <ele>878.78002929688</ele>
        <time>2023-10-01T06:40:37.000Z</time>
      </trkpt>
      <trkpt lat="41.97627" lon="20.07199">
        <ele>877.82000732422</ele>
        <time>2023-10-01T06:40:36.000Z</time>
      </trkpt>
      <trkpt lat="41.9763" lon="20.07188">
        <ele>876.85998535156</ele>
        <time>2023-10-01T06:40:35.000Z</time>
      </trkpt>
      <trkpt lat="41.97633" lon="20.07178">
        <ele>876.38000488281</ele>
        <time>2023-10-01T06:40:34.000Z</time>
      </trkpt>
      <trkpt lat="41.97634" lon="20.07171">
        <ele>875.90002441406</ele>
        <time>2023-10-01T06:40:33.000Z</time>
      </trkpt>
      <trkpt lat="41.97636" lon="20.07154">
        <ele>874.46002197266</ele>
        <time>2023-10-01T06:40:32.000Z</time>
      </trkpt>
      <trkpt lat="41.97636" lon="20.07145">
        <ele>873.5</ele>
        <time>2023-10-01T06:40:31.000Z</time>
      </trkpt>
      <trkpt lat="41.97635" lon="20.07137">
        <ele>872.53002929688</ele>
        <time>2023-10-01T06:40:30.000Z</time>
      </trkpt>
      <trkpt lat="41.97634" lon="20.07128">
        <ele>872.04998779297</ele>
        <time>2023-10-01T06:40:29.000Z</time>
      </trkpt>
      <trkpt lat="41.97631" lon="20.07119">
        <ele>871.57000732422</ele>
        <time>2023-10-01T06:40:28.000Z</time>
      </trkpt>
      <trkpt lat="41.97628" lon="20.07112">
        <ele>871.09002685547</ele>
        <time>2023-10-01T06:40:27.000Z</time>
      </trkpt>
      <trkpt lat="41.97626" lon="20.07108">
        <ele>870.60998535156</ele>
        <time>2023-10-01T06:40:26.000Z</time>
      </trkpt>
      <trkpt lat="41.97622" lon="20.07101">
        <ele>869.65002441406</ele>
        <time>2023-10-01T06:40:25.000Z</time>
      </trkpt>
      <trkpt lat="41.97619" lon="20.07094">
        <ele>868.69000244141</ele>
        <time>2023-10-01T06:40:24.000Z</time>
      </trkpt>
      <trkpt lat="41.97617" lon="20.0709">
        <ele>867.72998046875</ele>
        <time>2023-10-01T06:40:23.000Z</time>
      </trkpt>
      <trkpt lat="41.97613" lon="20.07086">
        <ele>866.77001953125</ele>
        <time>2023-10-01T06:40:22.000Z</time>
      </trkpt>
      <trkpt lat="41.97609" lon="20.07083">
        <ele>865.32000732422</ele>
        <time>2023-10-01T06:40:21.000Z</time>
      </trkpt>
      <trkpt lat="41.97603" lon="20.07081">
        <ele>864.84002685547</ele>
        <time>2023-10-01T06:40:20.000Z</time>
      </trkpt>
      <trkpt lat="41.97597" lon="20.07081">
        <ele>864.35998535156</ele>
        <time>2023-10-01T06:40:19.000Z</time>
      </trkpt>
      <trkpt lat="41.97591" lon="20.0708">
        <ele>863.40002441406</ele>
        <time>2023-10-01T06:40:18.000Z</time>
      </trkpt>
      <trkpt lat="41.97587" lon="20.07078">
        <ele>862.91998291016</ele>
        <time>2023-10-01T06:40:17.000Z</time>
      </trkpt>
      <trkpt lat="41.97583" lon="20.07074">
        <ele>862.44000244141</ele>
        <time>2023-10-01T06:40:16.000Z</time>
      </trkpt>
      <trkpt lat="41.97581" lon="20.07068">
        <ele>862.44000244141</ele>
        <time>2023-10-01T06:40:15.000Z</time>
      </trkpt>
      <trkpt lat="41.9758" lon="20.07066">
        <ele>862.44000244141</ele>
        <time>2023-10-01T06:40:14.000Z</time>
      </trkpt>
      <trkpt lat="41.97568" lon="20.07056">
        <ele>861</ele>
        <time>2023-10-01T06:40:10.000Z</time>
      </trkpt>
      <trkpt lat="41.97564" lon="20.07056">
        <ele>861.47998046875</ele>
        <time>2023-10-01T06:40:09.000Z</time>
      </trkpt>
      <trkpt lat="41.97559" lon="20.07056">
        <ele>861.96002197266</ele>
        <time>2023-10-01T06:40:08.000Z</time>
      </trkpt>
      <trkpt lat="41.97551" lon="20.07056">
        <ele>862.91998291016</ele>
        <time>2023-10-01T06:40:07.000Z</time>
      </trkpt>
      <trkpt lat="41.97543" lon="20.07055">
        <ele>863.88000488281</ele>
        <time>2023-10-01T06:40:06.000Z</time>
      </trkpt>
      <trkpt lat="41.97536" lon="20.07052">
        <ele>864.35998535156</ele>
        <time>2023-10-01T06:40:05.000Z</time>
      </trkpt>
      <trkpt lat="41.97531" lon="20.07048">
        <ele>864.84002685547</ele>
        <time>2023-10-01T06:40:04.000Z</time>
      </trkpt>
      <trkpt lat="41.97525" lon="20.07041">
        <ele>865.32000732422</ele>
        <time>2023-10-01T06:40:03.000Z</time>
      </trkpt>
      <trkpt lat="41.97523" lon="20.07037">
        <ele>865.32000732422</ele>
        <time>2023-10-01T06:40:02.000Z</time>
      </trkpt>
      <trkpt lat="41.97519" lon="20.0703">
        <ele>865.79998779297</ele>
        <time>2023-10-01T06:40:01.000Z</time>
      </trkpt>
      <trkpt lat="41.97517" lon="20.07027">
        <ele>865.79998779297</ele>
        <time>2023-10-01T06:40:00.000Z</time>
      </trkpt>
      <trkpt lat="41.97511" lon="20.07018">
        <ele>866.28997802734</ele>
        <time>2023-10-01T06:39:59.000Z</time>
      </trkpt>
      <trkpt lat="41.97492" lon="20.06986">
        <ele>867.72998046875</ele>
        <time>2023-10-01T06:39:50.000Z</time>
      </trkpt>
      <trkpt lat="41.97481" lon="20.06969">
        <ele>869.16998291016</ele>
        <time>2023-10-01T06:39:41.000Z</time>
      </trkpt>
      <trkpt lat="41.97474" lon="20.06947">
        <ele>871.09002685547</ele>
        <time>2023-10-01T06:39:33.000Z</time>
      </trkpt>
      <trkpt lat="41.97471" lon="20.0694">
        <ele>871.57000732422</ele>
        <time>2023-10-01T06:39:32.000Z</time>
      </trkpt>
      <trkpt lat="41.97469" lon="20.06934">
        <ele>871.57000732422</ele>
        <time>2023-10-01T06:39:31.000Z</time>
      </trkpt>
      <trkpt lat="41.97467" lon="20.06931">
        <ele>872.04998779297</ele>
        <time>2023-10-01T06:39:30.000Z</time>
      </trkpt>
      <trkpt lat="41.97459" lon="20.06916">
        <ele>872.53002929688</ele>
        <time>2023-10-01T06:39:27.000Z</time>
      </trkpt>
      <trkpt lat="41.97457" lon="20.0691">
        <ele>873.01000976562</ele>
        <time>2023-10-01T06:39:26.000Z</time>
      </trkpt>
      <trkpt lat="41.97456" lon="20.06904">
        <ele>873.01000976562</ele>
        <time>2023-10-01T06:39:25.000Z</time>
      </trkpt>
      <trkpt lat="41.97456" lon="20.06898">
        <ele>873.01000976562</ele>
        <time>2023-10-01T06:39:24.000Z</time>
      </trkpt>
      <trkpt lat="41.97457" lon="20.06892">
        <ele>873.01000976562</ele>
        <time>2023-10-01T06:39:23.000Z</time>
      </trkpt>
      <trkpt lat="41.97459" lon="20.06885">
        <ele>873.01000976562</ele>
        <time>2023-10-01T06:39:22.000Z</time>
      </trkpt>
      <trkpt lat="41.97461" lon="20.06879">
        <ele>873.5</ele>
        <time>2023-10-01T06:39:21.000Z</time>
      </trkpt>
      <trkpt lat="41.97463" lon="20.06873">
        <ele>873.97998046875</ele>
        <time>2023-10-01T06:39:20.000Z</time>
      </trkpt>
      <trkpt lat="41.97466" lon="20.06868">
        <ele>873.97998046875</ele>
        <time>2023-10-01T06:39:19.000Z</time>
      </trkpt>
      <trkpt lat="41.97466" lon="20.06866">
        <ele>873.97998046875</ele>
        <time>2023-10-01T06:39:18.000Z</time>
      </trkpt>
      <trkpt lat="41.97469" lon="20.0686">
        <ele>873.97998046875</ele>
        <time>2023-10-01T06:39:17.000Z</time>
      </trkpt>
      <trkpt lat="41.97473" lon="20.0685">
        <ele>874.46002197266</ele>
        <time>2023-10-01T06:39:16.000Z</time>
      </trkpt>
      <trkpt lat="41.97474" lon="20.06847">
        <ele>874.94000244141</ele>
        <time>2023-10-01T06:39:15.000Z</time>
      </trkpt>
      <trkpt lat="41.97478" lon="20.06838">
        <ele>874.94000244141</ele>
        <time>2023-10-01T06:39:14.000Z</time>
      </trkpt>
      <trkpt lat="41.9748" lon="20.06833">
        <ele>874.94000244141</ele>
        <time>2023-10-01T06:39:13.000Z</time>
      </trkpt>
      <trkpt lat="41.97482" lon="20.06829">
        <ele>875.41998291016</ele>
        <time>2023-10-01T06:39:12.000Z</time>
      </trkpt>
      <trkpt lat="41.97487" lon="20.0682">
        <ele>875.41998291016</ele>
        <time>2023-10-01T06:39:11.000Z</time>
      </trkpt>
      <trkpt lat="41.97488" lon="20.06814">
        <ele>875.41998291016</ele>
        <time>2023-10-01T06:39:10.000Z</time>
      </trkpt>
      <trkpt lat="41.97489" lon="20.06807">
        <ele>875.41998291016</ele>
        <time>2023-10-01T06:39:09.000Z</time>
      </trkpt>
      <trkpt lat="41.97488" lon="20.06801">
        <ele>875.90002441406</ele>
        <time>2023-10-01T06:39:08.000Z</time>
      </trkpt>
      <trkpt lat="41.97487" lon="20.06795">
        <ele>875.90002441406</ele>
        <time>2023-10-01T06:39:07.000Z</time>
      </trkpt>
      <trkpt lat="41.97483" lon="20.06783">
        <ele>875.90002441406</ele>
        <time>2023-10-01T06:39:06.000Z</time>
      </trkpt>
      <trkpt lat="41.97481" lon="20.06773">
        <ele>875.90002441406</ele>
        <time>2023-10-01T06:39:05.000Z</time>
      </trkpt>
      <trkpt lat="41.9748" lon="20.06762">
        <ele>875.90002441406</ele>
        <time>2023-10-01T06:39:04.000Z</time>
      </trkpt>
      <trkpt lat="41.97481" lon="20.0675">
        <ele>875.90002441406</ele>
        <time>2023-10-01T06:39:03.000Z</time>
      </trkpt>
      <trkpt lat="41.97482" lon="20.06744">
        <ele>876.38000488281</ele>
        <time>2023-10-01T06:39:02.000Z</time>
      </trkpt>
      <trkpt lat="41.97485" lon="20.06732">
        <ele>876.85998535156</ele>
        <time>2023-10-01T06:39:01.000Z</time>
      </trkpt>
      <trkpt lat="41.97487" lon="20.06718">
        <ele>877.34002685547</ele>
        <time>2023-10-01T06:39:00.000Z</time>
      </trkpt>
      <trkpt lat="41.97488" lon="20.0671">
        <ele>877.82000732422</ele>
        <time>2023-10-01T06:38:59.000Z</time>
      </trkpt>
      <trkpt lat="41.97488" lon="20.06702">
        <ele>878.29998779297</ele>
        <time>2023-10-01T06:38:58.000Z</time>
      </trkpt>
      <trkpt lat="41.97488" lon="20.06696">
        <ele>878.78002929688</ele>
        <time>2023-10-01T06:38:57.000Z</time>
      </trkpt>
      <trkpt lat="41.97484" lon="20.06677">
        <ele>879.73999023438</ele>
        <time>2023-10-01T06:38:55.000Z</time>
      </trkpt>
      <trkpt lat="41.97482" lon="20.06669">
        <ele>879.73999023438</ele>
        <time>2023-10-01T06:38:54.000Z</time>
      </trkpt>
      <trkpt lat="41.9748" lon="20.06661">
        <ele>880.21997070312</ele>
        <time>2023-10-01T06:38:53.000Z</time>
      </trkpt>
      <trkpt lat="41.97477" lon="20.06651">
        <ele>880.21997070312</ele>
        <time>2023-10-01T06:38:52.000Z</time>
      </trkpt>
      <trkpt lat="41.97476" lon="20.06647">
        <ele>880.71002197266</ele>
        <time>2023-10-01T06:38:51.000Z</time>
      </trkpt>
      <trkpt lat="41.97464" lon="20.06617">
        <ele>881.66998291016</ele>
        <time>2023-10-01T06:38:49.000Z</time>
      </trkpt>
      <trkpt lat="41.9746" lon="20.06606">
        <ele>882.15002441406</ele>
        <time>2023-10-01T06:38:48.000Z</time>
      </trkpt>
      <trkpt lat="41.9746" lon="20.06598">
        <ele>882.63000488281</ele>
        <time>2023-10-01T06:38:47.000Z</time>
      </trkpt>
      <trkpt lat="41.97461" lon="20.0659">
        <ele>883.10998535156</ele>
        <time>2023-10-01T06:38:46.000Z</time>
      </trkpt>
      <trkpt lat="41.97464" lon="20.06584">
        <ele>883.59002685547</ele>
        <time>2023-10-01T06:38:45.000Z</time>
      </trkpt>
      <trkpt lat="41.97466" lon="20.06576">
        <ele>884.07000732422</ele>
        <time>2023-10-01T06:38:44.000Z</time>
      </trkpt>
      <trkpt lat="41.97465" lon="20.06569">
        <ele>885.03002929688</ele>
        <time>2023-10-01T06:38:43.000Z</time>
      </trkpt>
      <trkpt lat="41.97462" lon="20.06564">
        <ele>885.51000976562</ele>
        <time>2023-10-01T06:38:42.000Z</time>
      </trkpt>
      <trkpt lat="41.97457" lon="20.0656">
        <ele>886.46997070312</ele>
        <time>2023-10-01T06:38:41.000Z</time>
      </trkpt>
      <trkpt lat="41.97453" lon="20.06561">
        <ele>886.95001220703</ele>
        <time>2023-10-01T06:38:40.000Z</time>
      </trkpt>
      <trkpt lat="41.9745" lon="20.06566">
        <ele>886.95001220703</ele>
        <time>2023-10-01T06:38:39.000Z</time>
      </trkpt>
      <trkpt lat="41.97448" lon="20.0657">
        <ele>887.42999267578</ele>
        <time>2023-10-01T06:38:38.000Z</time>
      </trkpt>
      <trkpt lat="41.97446" lon="20.06581">
        <ele>887.42999267578</ele>
        <time>2023-10-01T06:38:37.000Z</time>
      </trkpt>
      <trkpt lat="41.97445" lon="20.06589">
        <ele>887.90997314453</ele>
        <time>2023-10-01T06:38:36.000Z</time>
      </trkpt>
      <trkpt lat="41.97445" lon="20.06597">
        <ele>887.90997314453</ele>
        <time>2023-10-01T06:38:35.000Z</time>
      </trkpt>
      <trkpt lat="41.97446" lon="20.06604">
        <ele>888.40002441406</ele>
        <time>2023-10-01T06:38:34.000Z</time>
      </trkpt>
      <trkpt lat="41.97447" lon="20.06609">
        <ele>889.84002685547</ele>
        <time>2023-10-01T06:38:10.000Z</time>
      </trkpt>
      <trkpt lat="41.97447" lon="20.06612">
        <ele>889.84002685547</ele>
        <time>2023-10-01T06:37:51.000Z</time>
      </trkpt>
      <trkpt lat="41.97445" lon="20.06623">
        <ele>889.84002685547</ele>
        <time>2023-10-01T06:37:45.000Z</time>
      </trkpt>
      <trkpt lat="41.97443" lon="20.0663">
        <ele>889.84002685547</ele>
        <time>2023-10-01T06:37:44.000Z</time>
      </trkpt>
      <trkpt lat="41.97439" lon="20.06639">
        <ele>890.32000732422</ele>
        <time>2023-10-01T06:37:43.000Z</time>
      </trkpt>
      <trkpt lat="41.97435" lon="20.06647">
        <ele>890.79998779297</ele>
        <time>2023-10-01T06:37:42.000Z</time>
      </trkpt>
      <trkpt lat="41.97433" lon="20.06655">
        <ele>891.28002929688</ele>
        <time>2023-10-01T06:37:41.000Z</time>
      </trkpt>
      <trkpt lat="41.97431" lon="20.06663">
        <ele>891.76000976562</ele>
        <time>2023-10-01T06:37:40.000Z</time>
      </trkpt>
      <trkpt lat="41.97431" lon="20.06669">
        <ele>892.23999023438</ele>
        <time>2023-10-01T06:37:39.000Z</time>
      </trkpt>
      <trkpt lat="41.9743" lon="20.06679">
        <ele>892.71997070312</ele>
        <time>2023-10-01T06:37:38.000Z</time>
      </trkpt>
      <trkpt lat="41.9743" lon="20.06686">
        <ele>893.67999267578</ele>
        <time>2023-10-01T06:37:37.000Z</time>
      </trkpt>
      <trkpt lat="41.97428" lon="20.06695">
        <ele>894.15997314453</ele>
        <time>2023-10-01T06:37:36.000Z</time>
      </trkpt>
      <trkpt lat="41.97426" lon="20.06703">
        <ele>894.64001464844</ele>
        <time>2023-10-01T06:37:35.000Z</time>
      </trkpt>
      <trkpt lat="41.97424" lon="20.0671">
        <ele>895.11999511719</ele>
        <time>2023-10-01T06:37:34.000Z</time>
      </trkpt>
      <trkpt lat="41.97423" lon="20.06719">
        <ele>895.60998535156</ele>
        <time>2023-10-01T06:37:33.000Z</time>
      </trkpt>
      <trkpt lat="41.97422" lon="20.06728">
        <ele>896.57000732422</ele>
        <time>2023-10-01T06:37:32.000Z</time>
      </trkpt>
      <trkpt lat="41.97421" lon="20.06734">
        <ele>897.04998779297</ele>
        <time>2023-10-01T06:37:31.000Z</time>
      </trkpt>
      <trkpt lat="41.97418" lon="20.06759">
        <ele>899.45001220703</ele>
        <time>2023-10-01T06:37:28.000Z</time>
      </trkpt>
      <trkpt lat="41.97417" lon="20.06766">
        <ele>899.92999267578</ele>
        <time>2023-10-01T06:37:27.000Z</time>
      </trkpt>
      <trkpt lat="41.97414" lon="20.0677">
        <ele>900.89001464844</ele>
        <time>2023-10-01T06:37:26.000Z</time>
      </trkpt>
      <trkpt lat="41.97409" lon="20.06773">
        <ele>900.89001464844</ele>
        <time>2023-10-01T06:37:25.000Z</time>
      </trkpt>
      <trkpt lat="41.97405" lon="20.06772">
        <ele>901.36999511719</ele>
        <time>2023-10-01T06:37:24.000Z</time>
      </trkpt>
      <trkpt lat="41.97401" lon="20.06768">
        <ele>901.84997558594</ele>
        <time>2023-10-01T06:37:23.000Z</time>
      </trkpt>
      <trkpt lat="41.97399" lon="20.06762">
        <ele>901.84997558594</ele>
        <time>2023-10-01T06:37:22.000Z</time>
      </trkpt>
      <trkpt lat="41.97398" lon="20.06755">
        <ele>902.33001708984</ele>
        <time>2023-10-01T06:37:21.000Z</time>
      </trkpt>
      <trkpt lat="41.97399" lon="20.06747">
        <ele>902.82000732422</ele>
        <time>2023-10-01T06:37:20.000Z</time>
      </trkpt>
      <trkpt lat="41.97403" lon="20.0674">
        <ele>903.29998779297</ele>
        <time>2023-10-01T06:37:19.000Z</time>
      </trkpt>
      <trkpt lat="41.97406" lon="20.06733">
        <ele>903.78002929688</ele>
        <time>2023-10-01T06:37:18.000Z</time>
      </trkpt>
      <trkpt lat="41.97407" lon="20.06724">
        <ele>904.26000976562</ele>
        <time>2023-10-01T06:37:17.000Z</time>
      </trkpt>
      <trkpt lat="41.97406" lon="20.06716">
        <ele>904.73999023438</ele>
        <time>2023-10-01T06:37:16.000Z</time>
      </trkpt>
      <trkpt lat="41.97403" lon="20.06708">
        <ele>905.21997070312</ele>
        <time>2023-10-01T06:37:15.000Z</time>
      </trkpt>
      <trkpt lat="41.97401" lon="20.06705">
        <ele>905.70001220703</ele>
        <time>2023-10-01T06:37:14.000Z</time>
      </trkpt>
      <trkpt lat="41.97392" lon="20.06691">
        <ele>906.17999267578</ele>
        <time>2023-10-01T06:37:13.000Z</time>
      </trkpt>
      <trkpt lat="41.97387" lon="20.06683">
        <ele>906.17999267578</ele>
        <time>2023-10-01T06:37:12.000Z</time>
      </trkpt>
      <trkpt lat="41.97381" lon="20.06671">
        <ele>906.65997314453</ele>
        <time>2023-10-01T06:37:11.000Z</time>
      </trkpt>
      <trkpt lat="41.97378" lon="20.06663">
        <ele>907.61999511719</ele>
        <time>2023-10-01T06:37:10.000Z</time>
      </trkpt>
      <trkpt lat="41.97374" lon="20.06655">
        <ele>908.09997558594</ele>
        <time>2023-10-01T06:37:09.000Z</time>
      </trkpt>
      <trkpt lat="41.9737" lon="20.06651">
        <ele>908.09997558594</ele>
        <time>2023-10-01T06:37:08.000Z</time>
      </trkpt>
      <trkpt lat="41.97364" lon="20.06649">
        <ele>909.05999755859</ele>
        <time>2023-10-01T06:37:07.000Z</time>
      </trkpt>
      <trkpt lat="41.9736" lon="20.06651">
        <ele>909.53997802734</ele>
        <time>2023-10-01T06:37:06.000Z</time>
      </trkpt>
      <trkpt lat="41.97358" lon="20.06654">
        <ele>910.03002929688</ele>
        <time>2023-10-01T06:37:05.000Z</time>
      </trkpt>
      <trkpt lat="41.97356" lon="20.06661">
        <ele>910.51000976562</ele>
        <time>2023-10-01T06:37:04.000Z</time>
      </trkpt>
      <trkpt lat="41.97357" lon="20.06668">
        <ele>911.46997070312</ele>
        <time>2023-10-01T06:37:03.000Z</time>
      </trkpt>
      <trkpt lat="41.9736" lon="20.06674">
        <ele>911.95001220703</ele>
        <time>2023-10-01T06:37:02.000Z</time>
      </trkpt>
      <trkpt lat="41.97362" lon="20.06677">
        <ele>912.42999267578</ele>
        <time>2023-10-01T06:37:01.000Z</time>
      </trkpt>
      <trkpt lat="41.97367" lon="20.06684">
        <ele>913.39001464844</ele>
        <time>2023-10-01T06:37:00.000Z</time>
      </trkpt>
      <trkpt lat="41.97375" lon="20.06695">
        <ele>914.34997558594</ele>
        <time>2023-10-01T06:36:59.000Z</time>
      </trkpt>
      <trkpt lat="41.97378" lon="20.06702">
        <ele>914.83001708984</ele>
        <time>2023-10-01T06:36:58.000Z</time>
      </trkpt>
      <trkpt lat="41.9738" lon="20.06709">
        <ele>915.30999755859</ele>
        <time>2023-10-01T06:36:57.000Z</time>
      </trkpt>
      <trkpt lat="41.9738" lon="20.06718">
        <ele>915.78997802734</ele>
        <time>2023-10-01T06:36:56.000Z</time>
      </trkpt>
      <trkpt lat="41.97379" lon="20.06727">
        <ele>916.27001953125</ele>
        <time>2023-10-01T06:36:55.000Z</time>
      </trkpt>
      <trkpt lat="41.97375" lon="20.06736">
        <ele>917.23999023438</ele>
        <time>2023-10-01T06:36:54.000Z</time>
      </trkpt>
      <trkpt lat="41.97369" lon="20.06745">
        <ele>918.20001220703</ele>
        <time>2023-10-01T06:36:53.000Z</time>
      </trkpt>
      <trkpt lat="41.97362" lon="20.06754">
        <ele>919.15997314453</ele>
        <time>2023-10-01T06:36:52.000Z</time>
      </trkpt>
      <trkpt lat="41.97356" lon="20.06764">
        <ele>920.11999511719</ele>
        <time>2023-10-01T06:36:51.000Z</time>
      </trkpt>
      <trkpt lat="41.9735" lon="20.06776">
        <ele>921.08001708984</ele>
        <time>2023-10-01T06:36:50.000Z</time>
      </trkpt>
      <trkpt lat="41.97347" lon="20.06785">
        <ele>921.55999755859</ele>
        <time>2023-10-01T06:36:49.000Z</time>
      </trkpt>
      <trkpt lat="41.97345" lon="20.06799">
        <ele>923</ele>
        <time>2023-10-01T06:36:48.000Z</time>
      </trkpt>
      <trkpt lat="41.97341" lon="20.06813">
        <ele>924.45001220703</ele>
        <time>2023-10-01T06:36:47.000Z</time>
      </trkpt>
      <trkpt lat="41.97336" lon="20.06826">
        <ele>925.89001464844</ele>
        <time>2023-10-01T06:36:46.000Z</time>
      </trkpt>
      <trkpt lat="41.97335" lon="20.06828">
        <ele>925.89001464844</ele>
        <time>2023-10-01T06:36:45.000Z</time>
      </trkpt>
      <trkpt lat="41.97325" lon="20.06847">
        <ele>927.80999755859</ele>
        <time>2023-10-01T06:36:44.000Z</time>
      </trkpt>
      <trkpt lat="41.97318" lon="20.06858">
        <ele>928.28997802734</ele>
        <time>2023-10-01T06:36:43.000Z</time>
      </trkpt>
      <trkpt lat="41.97311" lon="20.0687">
        <ele>929.25</ele>
        <time>2023-10-01T06:36:42.000Z</time>
      </trkpt>
      <trkpt lat="41.97304" lon="20.06884">
        <ele>930.21002197266</ele>
        <time>2023-10-01T06:36:41.000Z</time>
      </trkpt>
      <trkpt lat="41.973" lon="20.06896">
        <ele>931.16998291016</ele>
        <time>2023-10-01T06:36:40.000Z</time>
      </trkpt>
      <trkpt lat="41.97297" lon="20.06909">
        <ele>931.16998291016</ele>
        <time>2023-10-01T06:36:39.000Z</time>
      </trkpt>
      <trkpt lat="41.97297" lon="20.06916">
        <ele>931.16998291016</ele>
        <time>2023-10-01T06:36:38.000Z</time>
      </trkpt>
      <trkpt lat="41.97298" lon="20.06932">
        <ele>931.65002441406</ele>
        <time>2023-10-01T06:36:37.000Z</time>
      </trkpt>
      <trkpt lat="41.973" lon="20.06946">
        <ele>932.14001464844</ele>
        <time>2023-10-01T06:36:36.000Z</time>
      </trkpt>
      <trkpt lat="41.97301" lon="20.06956">
        <ele>932.61999511719</ele>
        <time>2023-10-01T06:36:35.000Z</time>
      </trkpt>
      <trkpt lat="41.97299" lon="20.06967">
        <ele>932.61999511719</ele>
        <time>2023-10-01T06:36:34.000Z</time>
      </trkpt>
      <trkpt lat="41.97297" lon="20.06975">
        <ele>933.09997558594</ele>
        <time>2023-10-01T06:36:33.000Z</time>
      </trkpt>
      <trkpt lat="41.97293" lon="20.06981">
        <ele>933.09997558594</ele>
        <time>2023-10-01T06:36:32.000Z</time>
      </trkpt>
      <trkpt lat="41.97285" lon="20.06998">
        <ele>934.53997802734</ele>
        <time>2023-10-01T06:36:31.000Z</time>
      </trkpt>
      <trkpt lat="41.97282" lon="20.07006">
        <ele>935.02001953125</ele>
        <time>2023-10-01T06:36:30.000Z</time>
      </trkpt>
      <trkpt lat="41.97281" lon="20.07015">
        <ele>935.5</ele>
        <time>2023-10-01T06:36:29.000Z</time>
      </trkpt>
      <trkpt lat="41.97282" lon="20.07022">
        <ele>935.97998046875</ele>
        <time>2023-10-01T06:36:28.000Z</time>
      </trkpt>
      <trkpt lat="41.97286" lon="20.0703">
        <ele>936.94000244141</ele>
        <time>2023-10-01T06:36:27.000Z</time>
      </trkpt>
      <trkpt lat="41.9729" lon="20.07036">
        <ele>937.41998291016</ele>
        <time>2023-10-01T06:36:26.000Z</time>
      </trkpt>
      <trkpt lat="41.97295" lon="20.07044">
        <ele>937.90002441406</ele>
        <time>2023-10-01T06:36:25.000Z</time>
      </trkpt>
      <trkpt lat="41.97304" lon="20.07054">
        <ele>938.38000488281</ele>
        <time>2023-10-01T06:36:24.000Z</time>
      </trkpt>
      <trkpt lat="41.97313" lon="20.07064">
        <ele>938.85998535156</ele>
        <time>2023-10-01T06:36:23.000Z</time>
      </trkpt>
      <trkpt lat="41.97321" lon="20.0707">
        <ele>938.85998535156</ele>
        <time>2023-10-01T06:36:22.000Z</time>
      </trkpt>
      <trkpt lat="41.9733" lon="20.07075">
        <ele>939.34997558594</ele>
        <time>2023-10-01T06:36:21.000Z</time>
      </trkpt>
      <trkpt lat="41.97334" lon="20.07077">
        <ele>939.34997558594</ele>
        <time>2023-10-01T06:36:20.000Z</time>
      </trkpt>
      <trkpt lat="41.9735" lon="20.07083">
        <ele>940.30999755859</ele>
        <time>2023-10-01T06:36:19.000Z</time>
      </trkpt>
      <trkpt lat="41.97357" lon="20.07087">
        <ele>940.78997802734</ele>
        <time>2023-10-01T06:36:18.000Z</time>
      </trkpt>
      <trkpt lat="41.97362" lon="20.07093">
        <ele>941.27001953125</ele>
        <time>2023-10-01T06:36:17.000Z</time>
      </trkpt>
      <trkpt lat="41.97366" lon="20.071">
        <ele>941.75</ele>
        <time>2023-10-01T06:36:16.000Z</time>
      </trkpt>
      <trkpt lat="41.97368" lon="20.07109">
        <ele>941.75</ele>
        <time>2023-10-01T06:36:15.000Z</time>
      </trkpt>
      <trkpt lat="41.97369" lon="20.07121">
        <ele>942.71002197266</ele>
        <time>2023-10-01T06:36:14.000Z</time>
      </trkpt>
      <trkpt lat="41.97369" lon="20.07132">
        <ele>943.19000244141</ele>
        <time>2023-10-01T06:36:13.000Z</time>
      </trkpt>
      <trkpt lat="41.9737" lon="20.07143">
        <ele>943.66998291016</ele>
        <time>2023-10-01T06:36:12.000Z</time>
      </trkpt>
      <trkpt lat="41.97369" lon="20.07155">
        <ele>944.63000488281</ele>
        <time>2023-10-01T06:36:11.000Z</time>
      </trkpt>
      <trkpt lat="41.97367" lon="20.07165">
        <ele>945.59002685547</ele>
        <time>2023-10-01T06:36:10.000Z</time>
      </trkpt>
      <trkpt lat="41.97364" lon="20.07177">
        <ele>946.55999755859</ele>
        <time>2023-10-01T06:36:09.000Z</time>
      </trkpt>
      <trkpt lat="41.97362" lon="20.07191">
        <ele>948</ele>
        <time>2023-10-01T06:36:08.000Z</time>
      </trkpt>
      <trkpt lat="41.97362" lon="20.07214">
        <ele>949.91998291016</ele>
        <time>2023-10-01T06:36:06.000Z</time>
      </trkpt>
      <trkpt lat="41.97363" lon="20.07225">
        <ele>950.88000488281</ele>
        <time>2023-10-01T06:36:05.000Z</time>
      </trkpt>
      <trkpt lat="41.97366" lon="20.07239">
        <ele>951.84002685547</ele>
        <time>2023-10-01T06:36:04.000Z</time>
      </trkpt>
      <trkpt lat="41.97367" lon="20.07243">
        <ele>951.84002685547</ele>
        <time>2023-10-01T06:36:03.000Z</time>
      </trkpt>
      <trkpt lat="41.97371" lon="20.07267">
        <ele>953.77001953125</ele>
        <time>2023-10-01T06:36:02.000Z</time>
      </trkpt>
      <trkpt lat="41.97372" lon="20.07283">
        <ele>955.21002197266</ele>
        <time>2023-10-01T06:36:01.000Z</time>
      </trkpt>
      <trkpt lat="41.97373" lon="20.07298">
        <ele>956.16998291016</ele>
        <time>2023-10-01T06:36:00.000Z</time>
      </trkpt>
      <trkpt lat="41.97373" lon="20.07311">
        <ele>956.65002441406</ele>
        <time>2023-10-01T06:35:59.000Z</time>
      </trkpt>
      <trkpt lat="41.97371" lon="20.07325">
        <ele>957.60998535156</ele>
        <time>2023-10-01T06:35:58.000Z</time>
      </trkpt>
      <trkpt lat="41.9737" lon="20.07336">
        <ele>957.60998535156</ele>
        <time>2023-10-01T06:35:57.000Z</time>
      </trkpt>
      <trkpt lat="41.97369" lon="20.07347">
        <ele>957.60998535156</ele>
        <time>2023-10-01T06:35:56.000Z</time>
      </trkpt>
      <trkpt lat="41.97367" lon="20.07356">
        <ele>958.09002685547</ele>
        <time>2023-10-01T06:35:55.000Z</time>
      </trkpt>
      <trkpt lat="41.97354" lon="20.07389">
        <ele>960.48999023438</ele>
        <time>2023-10-01T06:35:52.000Z</time>
      </trkpt>
      <trkpt lat="41.9735" lon="20.074">
        <ele>960.48999023438</ele>
        <time>2023-10-01T06:35:51.000Z</time>
      </trkpt>
      <trkpt lat="41.97345" lon="20.07413">
        <ele>960.97998046875</ele>
        <time>2023-10-01T06:35:50.000Z</time>
      </trkpt>
      <trkpt lat="41.97344" lon="20.0742">
        <ele>961.46002197266</ele>
        <time>2023-10-01T06:35:49.000Z</time>
      </trkpt>
      <trkpt lat="41.97345" lon="20.07427">
        <ele>961.94000244141</ele>
        <time>2023-10-01T06:35:48.000Z</time>
      </trkpt>
      <trkpt lat="41.97348" lon="20.07435">
        <ele>962.90002441406</ele>
        <time>2023-10-01T06:35:47.000Z</time>
      </trkpt>
      <trkpt lat="41.97352" lon="20.07441">
        <ele>963.38000488281</ele>
        <time>2023-10-01T06:35:46.000Z</time>
      </trkpt>
      <trkpt lat="41.97353" lon="20.07442">
        <ele>963.38000488281</ele>
        <time>2023-10-01T06:35:45.000Z</time>
      </trkpt>
      <trkpt lat="41.97365" lon="20.07458">
        <ele>964.82000732422</ele>
        <time>2023-10-01T06:35:44.000Z</time>
      </trkpt>
      <trkpt lat="41.97371" lon="20.07468">
        <ele>965.29998779297</ele>
        <time>2023-10-01T06:35:43.000Z</time>
      </trkpt>
      <trkpt lat="41.97376" lon="20.07477">
        <ele>966.26000976562</ele>
        <time>2023-10-01T06:35:42.000Z</time>
      </trkpt>
      <trkpt lat="41.97381" lon="20.07488">
        <ele>967.70001220703</ele>
        <time>2023-10-01T06:35:41.000Z</time>
      </trkpt>
      <trkpt lat="41.97384" lon="20.07497">
        <ele>968.17999267578</ele>
        <time>2023-10-01T06:35:40.000Z</time>
      </trkpt>
      <trkpt lat="41.97385" lon="20.07504">
        <ele>968.17999267578</ele>
        <time>2023-10-01T06:35:39.000Z</time>
      </trkpt>
      <trkpt lat="41.97384" lon="20.07511">
        <ele>968.17999267578</ele>
        <time>2023-10-01T06:35:38.000Z</time>
      </trkpt>
      <trkpt lat="41.97381" lon="20.07517">
        <ele>969.15002441406</ele>
        <time>2023-10-01T06:35:37.000Z</time>
      </trkpt>
      <trkpt lat="41.97379" lon="20.0752">
        <ele>969.15002441406</ele>
        <time>2023-10-01T06:35:36.000Z</time>
      </trkpt>
      <trkpt lat="41.97372" lon="20.07528">
        <ele>969.63000488281</ele>
        <time>2023-10-01T06:35:35.000Z</time>
      </trkpt>
      <trkpt lat="41.97364" lon="20.07537">
        <ele>970.59002685547</ele>
        <time>2023-10-01T06:35:34.000Z</time>
      </trkpt>
      <trkpt lat="41.97356" lon="20.07548">
        <ele>972.03002929688</ele>
        <time>2023-10-01T06:35:33.000Z</time>
      </trkpt>
      <trkpt lat="41.97354" lon="20.07551">
        <ele>972.03002929688</ele>
        <time>2023-10-01T06:35:32.000Z</time>
      </trkpt>
      <trkpt lat="41.97346" lon="20.07563">
        <ele>973.95001220703</ele>
        <time>2023-10-01T06:35:31.000Z</time>
      </trkpt>
      <trkpt lat="41.97342" lon="20.07571">
        <ele>974.90997314453</ele>
        <time>2023-10-01T06:35:30.000Z</time>
      </trkpt>
      <trkpt lat="41.9734" lon="20.07575">
        <ele>975.39001464844</ele>
        <time>2023-10-01T06:35:29.000Z</time>
      </trkpt>
      <trkpt lat="41.97328" lon="20.0757">
        <ele>978.28002929688</ele>
        <time>2023-10-01T06:35:24.000Z</time>
      </trkpt>
      <trkpt lat="41.97329" lon="20.07565">
        <ele>978.76000976562</ele>
        <time>2023-10-01T06:35:23.000Z</time>
      </trkpt>
      <trkpt lat="41.97331" lon="20.07563">
        <ele>978.76000976562</ele>
        <time>2023-10-01T06:35:22.000Z</time>
      </trkpt>
      <trkpt lat="41.97334" lon="20.07557">
        <ele>979.23999023438</ele>
        <time>2023-10-01T06:35:21.000Z</time>
      </trkpt>
      <trkpt lat="41.97339" lon="20.0755">
        <ele>979.71997070312</ele>
        <time>2023-10-01T06:35:20.000Z</time>
      </trkpt>
      <trkpt lat="41.97343" lon="20.07542">
        <ele>979.71997070312</ele>
        <time>2023-10-01T06:35:19.000Z</time>
      </trkpt>
      <trkpt lat="41.97345" lon="20.07537">
        <ele>980.20001220703</ele>
        <time>2023-10-01T06:35:18.000Z</time>
      </trkpt>
      <trkpt lat="41.97339" lon="20.07512">
        <ele>979.23999023438</ele>
        <time>2023-10-01T06:35:12.000Z</time>
      </trkpt>
      <trkpt lat="41.97336" lon="20.0751">
        <ele>978.76000976562</ele>
        <time>2023-10-01T06:35:11.000Z</time>
      </trkpt>
      <trkpt lat="41.97333" lon="20.07507">
        <ele>978.76000976562</ele>
        <time>2023-10-01T06:35:10.000Z</time>
      </trkpt>
      <trkpt lat="41.97326" lon="20.07502">
        <ele>977.32000732422</ele>
        <time>2023-10-01T06:35:09.000Z</time>
      </trkpt>
      <trkpt lat="41.9732" lon="20.07498">
        <ele>976.84002685547</ele>
        <time>2023-10-01T06:35:08.000Z</time>
      </trkpt>
      <trkpt lat="41.97318" lon="20.07497">
        <ele>976.84002685547</ele>
        <time>2023-10-01T06:35:07.000Z</time>
      </trkpt>
      <trkpt lat="41.97312" lon="20.07482">
        <ele>974.90997314453</ele>
        <time>2023-10-01T06:35:04.000Z</time>
      </trkpt>
      <trkpt lat="41.97312" lon="20.0747">
        <ele>974.42999267578</ele>
        <time>2023-10-01T06:35:02.000Z</time>
      </trkpt>
      <trkpt lat="41.97314" lon="20.07456">
        <ele>973.95001220703</ele>
        <time>2023-10-01T06:35:01.000Z</time>
      </trkpt>
      <trkpt lat="41.97316" lon="20.07435">
        <ele>972.98999023438</ele>
        <time>2023-10-01T06:34:59.000Z</time>
      </trkpt>
      <trkpt lat="41.97318" lon="20.07415">
        <ele>972.51000976562</ele>
        <time>2023-10-01T06:34:58.000Z</time>
      </trkpt>
      <trkpt lat="41.9732" lon="20.07405">
        <ele>971.54998779297</ele>
        <time>2023-10-01T06:34:57.000Z</time>
      </trkpt>
      <trkpt lat="41.97322" lon="20.0739">
        <ele>971.54998779297</ele>
        <time>2023-10-01T06:34:56.000Z</time>
      </trkpt>
      <trkpt lat="41.97323" lon="20.07377">
        <ele>971.54998779297</ele>
        <time>2023-10-01T06:34:55.000Z</time>
      </trkpt>
      <trkpt lat="41.97323" lon="20.07365">
        <ele>971.07000732422</ele>
        <time>2023-10-01T06:34:54.000Z</time>
      </trkpt>
      <trkpt lat="41.97322" lon="20.07353">
        <ele>971.07000732422</ele>
        <time>2023-10-01T06:34:53.000Z</time>
      </trkpt>
      <trkpt lat="41.97322" lon="20.07339">
        <ele>971.07000732422</ele>
        <time>2023-10-01T06:34:52.000Z</time>
      </trkpt>
      <trkpt lat="41.97323" lon="20.07326">
        <ele>971.54998779297</ele>
        <time>2023-10-01T06:34:51.000Z</time>
      </trkpt>
      <trkpt lat="41.97325" lon="20.07315">
        <ele>972.03002929688</ele>
        <time>2023-10-01T06:34:50.000Z</time>
      </trkpt>
      <trkpt lat="41.97326" lon="20.07312">
        <ele>972.03002929688</ele>
        <time>2023-10-01T06:34:49.000Z</time>
      </trkpt>
      <trkpt lat="41.9733" lon="20.07298">
        <ele>973.46997070312</ele>
        <time>2023-10-01T06:34:48.000Z</time>
      </trkpt>
      <trkpt lat="41.97332" lon="20.07288">
        <ele>973.95001220703</ele>
        <time>2023-10-01T06:34:47.000Z</time>
      </trkpt>
      <trkpt lat="41.97333" lon="20.0728">
        <ele>974.90997314453</ele>
        <time>2023-10-01T06:34:46.000Z</time>
      </trkpt>
      <trkpt lat="41.97332" lon="20.07271">
        <ele>975.88000488281</ele>
        <time>2023-10-01T06:34:45.000Z</time>
      </trkpt>
      <trkpt lat="41.97329" lon="20.07261">
        <ele>976.35998535156</ele>
        <time>2023-10-01T06:34:44.000Z</time>
      </trkpt>
      <trkpt lat="41.97325" lon="20.07253">
        <ele>976.35998535156</ele>
        <time>2023-10-01T06:34:43.000Z</time>
      </trkpt>
      <trkpt lat="41.97321" lon="20.07245">
        <ele>977.32000732422</ele>
        <time>2023-10-01T06:34:42.000Z</time>
      </trkpt>
      <trkpt lat="41.97317" lon="20.07239">
        <ele>977.79998779297</ele>
        <time>2023-10-01T06:34:41.000Z</time>
      </trkpt>
      <trkpt lat="41.97311" lon="20.07234">
        <ele>977.79998779297</ele>
        <time>2023-10-01T06:34:40.000Z</time>
      </trkpt>
      <trkpt lat="41.97304" lon="20.07229">
        <ele>978.28002929688</ele>
        <time>2023-10-01T06:34:39.000Z</time>
      </trkpt>
      <trkpt lat="41.97294" lon="20.07223">
        <ele>978.76000976562</ele>
        <time>2023-10-01T06:34:38.000Z</time>
      </trkpt>
      <trkpt lat="41.97285" lon="20.07219">
        <ele>979.23999023438</ele>
        <time>2023-10-01T06:34:37.000Z</time>
      </trkpt>
      <trkpt lat="41.97277" lon="20.07217">
        <ele>979.71997070312</ele>
        <time>2023-10-01T06:34:36.000Z</time>
      </trkpt>
      <trkpt lat="41.97269" lon="20.07217">
        <ele>980.20001220703</ele>
        <time>2023-10-01T06:34:35.000Z</time>
      </trkpt>
      <trkpt lat="41.97259" lon="20.07219">
        <ele>980.67999267578</ele>
        <time>2023-10-01T06:34:34.000Z</time>
      </trkpt>
      <trkpt lat="41.9725" lon="20.07223">
        <ele>981.64001464844</ele>
        <time>2023-10-01T06:34:33.000Z</time>
      </trkpt>
      <trkpt lat="41.97243" lon="20.07225">
        <ele>982.11999511719</ele>
        <time>2023-10-01T06:34:32.000Z</time>
      </trkpt>
      <trkpt lat="41.97235" lon="20.07225">
        <ele>983.09002685547</ele>
        <time>2023-10-01T06:34:31.000Z</time>
      </trkpt>
      <trkpt lat="41.97228" lon="20.07223">
        <ele>983.57000732422</ele>
        <time>2023-10-01T06:34:30.000Z</time>
      </trkpt>
      <trkpt lat="41.97222" lon="20.0722">
        <ele>984.04998779297</ele>
        <time>2023-10-01T06:34:29.000Z</time>
      </trkpt>
      <trkpt lat="41.97214" lon="20.07214">
        <ele>984.53002929688</ele>
        <time>2023-10-01T06:34:28.000Z</time>
      </trkpt>
      <trkpt lat="41.97208" lon="20.07209">
        <ele>985.48999023438</ele>
        <time>2023-10-01T06:34:27.000Z</time>
      </trkpt>
      <trkpt lat="41.97202" lon="20.07207">
        <ele>985.96997070312</ele>
        <time>2023-10-01T06:34:26.000Z</time>
      </trkpt>
      <trkpt lat="41.97194" lon="20.07206">
        <ele>986.45001220703</ele>
        <time>2023-10-01T06:34:25.000Z</time>
      </trkpt>
      <trkpt lat="41.97188" lon="20.07204">
        <ele>986.45001220703</ele>
        <time>2023-10-01T06:34:24.000Z</time>
      </trkpt>
      <trkpt lat="41.97182" lon="20.07201">
        <ele>986.45001220703</ele>
        <time>2023-10-01T06:34:23.000Z</time>
      </trkpt>
      <trkpt lat="41.97178" lon="20.07196">
        <ele>986.45001220703</ele>
        <time>2023-10-01T06:34:22.000Z</time>
      </trkpt>
      <trkpt lat="41.97172" lon="20.0719">
        <ele>986.92999267578</ele>
        <time>2023-10-01T06:34:21.000Z</time>
      </trkpt>
      <trkpt lat="41.97167" lon="20.07183">
        <ele>986.92999267578</ele>
        <time>2023-10-01T06:34:20.000Z</time>
      </trkpt>
      <trkpt lat="41.97161" lon="20.07179">
        <ele>987.40997314453</ele>
        <time>2023-10-01T06:34:19.000Z</time>
      </trkpt>
      <trkpt lat="41.97153" lon="20.07175">
        <ele>987.40997314453</ele>
        <time>2023-10-01T06:34:18.000Z</time>
      </trkpt>
      <trkpt lat="41.97147" lon="20.07172">
        <ele>987.89001464844</ele>
        <time>2023-10-01T06:34:17.000Z</time>
      </trkpt>
      <trkpt lat="41.9714" lon="20.07168">
        <ele>987.89001464844</ele>
        <time>2023-10-01T06:34:16.000Z</time>
      </trkpt>
      <trkpt lat="41.97133" lon="20.07162">
        <ele>988.36999511719</ele>
        <time>2023-10-01T06:34:15.000Z</time>
      </trkpt>
      <trkpt lat="41.97128" lon="20.07155">
        <ele>988.36999511719</ele>
        <time>2023-10-01T06:34:14.000Z</time>
      </trkpt>
      <trkpt lat="41.9712" lon="20.07144">
        <ele>989.33001708984</ele>
        <time>2023-10-01T06:34:13.000Z</time>
      </trkpt>
      <trkpt lat="41.97114" lon="20.07136">
        <ele>989.80999755859</ele>
        <time>2023-10-01T06:34:12.000Z</time>
      </trkpt>
      <trkpt lat="41.97109" lon="20.0713">
        <ele>990.29998779297</ele>
        <time>2023-10-01T06:34:11.000Z</time>
      </trkpt>
      <trkpt lat="41.97102" lon="20.07122">
        <ele>991.26000976562</ele>
        <time>2023-10-01T06:34:10.000Z</time>
      </trkpt>
      <trkpt lat="41.97098" lon="20.07119">
        <ele>991.73999023438</ele>
        <time>2023-10-01T06:34:09.000Z</time>
      </trkpt>
      <trkpt lat="41.97091" lon="20.07113">
        <ele>992.21997070312</ele>
        <time>2023-10-01T06:34:08.000Z</time>
      </trkpt>
      <trkpt lat="41.97085" lon="20.07107">
        <ele>992.70001220703</ele>
        <time>2023-10-01T06:34:07.000Z</time>
      </trkpt>
      <trkpt lat="41.97081" lon="20.071">
        <ele>992.70001220703</ele>
        <time>2023-10-01T06:34:06.000Z</time>
      </trkpt>
      <trkpt lat="41.97076" lon="20.07091">
        <ele>993.65997314453</ele>
        <time>2023-10-01T06:34:05.000Z</time>
      </trkpt>
      <trkpt lat="41.9707" lon="20.07082">
        <ele>994.61999511719</ele>
        <time>2023-10-01T06:34:04.000Z</time>
      </trkpt>
      <trkpt lat="41.97065" lon="20.07076">
        <ele>995.09997558594</ele>
        <time>2023-10-01T06:34:03.000Z</time>
      </trkpt>
      <trkpt lat="41.97059" lon="20.07069">
        <ele>996.05999755859</ele>
        <time>2023-10-01T06:34:02.000Z</time>
      </trkpt>
      <trkpt lat="41.97055" lon="20.07063">
        <ele>996.53997802734</ele>
        <time>2023-10-01T06:34:01.000Z</time>
      </trkpt>
      <trkpt lat="41.97053" lon="20.07057">
        <ele>997.02001953125</ele>
        <time>2023-10-01T06:34:00.000Z</time>
      </trkpt>
      <trkpt lat="41.9705" lon="20.07049">
        <ele>997.51000976562</ele>
        <time>2023-10-01T06:33:59.000Z</time>
      </trkpt>
      <trkpt lat="41.97049" lon="20.0704">
        <ele>997.98999023438</ele>
        <time>2023-10-01T06:33:58.000Z</time>
      </trkpt>
      <trkpt lat="41.97048" lon="20.07036">
        <ele>998.46997070312</ele>
        <time>2023-10-01T06:33:57.000Z</time>
      </trkpt>
      <trkpt lat="41.97048" lon="20.07026">
        <ele>999.42999267578</ele>
        <time>2023-10-01T06:33:56.000Z</time>
      </trkpt>
      <trkpt lat="41.97046" lon="20.07011">
        <ele>1000.3900146484</ele>
        <time>2023-10-01T06:33:55.000Z</time>
      </trkpt>
      <trkpt lat="41.97047" lon="20.07001">
        <ele>1000.8699951172</ele>
        <time>2023-10-01T06:33:54.000Z</time>
      </trkpt>
      <trkpt lat="41.97048" lon="20.06992">
        <ele>1001.8300170898</ele>
        <time>2023-10-01T06:33:53.000Z</time>
      </trkpt>
      <trkpt lat="41.97051" lon="20.06986">
        <ele>1002.3099975586</ele>
        <time>2023-10-01T06:33:52.000Z</time>
      </trkpt>
      <trkpt lat="41.97053" lon="20.0698">
        <ele>1002.7899780273</ele>
        <time>2023-10-01T06:33:51.000Z</time>
      </trkpt>
      <trkpt lat="41.97057" lon="20.0697">
        <ele>1003.75</ele>
        <time>2023-10-01T06:33:50.000Z</time>
      </trkpt>
      <trkpt lat="41.9706" lon="20.06962">
        <ele>1004.7199707031</ele>
        <time>2023-10-01T06:33:49.000Z</time>
      </trkpt>
      <trkpt lat="41.97062" lon="20.06955">
        <ele>1005.200012207</ele>
        <time>2023-10-01T06:33:48.000Z</time>
      </trkpt>
      <trkpt lat="41.97063" lon="20.06948">
        <ele>1005.6799926758</ele>
        <time>2023-10-01T06:33:47.000Z</time>
      </trkpt>
      <trkpt lat="41.97062" lon="20.0694">
        <ele>1005.6799926758</ele>
        <time>2023-10-01T06:33:46.000Z</time>
      </trkpt>
      <trkpt lat="41.9706" lon="20.06932">
        <ele>1006.1599731445</ele>
        <time>2023-10-01T06:33:45.000Z</time>
      </trkpt>
      <trkpt lat="41.97057" lon="20.06926">
        <ele>1007.1199951172</ele>
        <time>2023-10-01T06:33:44.000Z</time>
      </trkpt>
      <trkpt lat="41.97054" lon="20.06921">
        <ele>1007.5999755859</ele>
        <time>2023-10-01T06:33:43.000Z</time>
      </trkpt>
      <trkpt lat="41.9705" lon="20.06916">
        <ele>1007.5999755859</ele>
        <time>2023-10-01T06:33:42.000Z</time>
      </trkpt>
      <trkpt lat="41.97045" lon="20.06913">
        <ele>1008.0800170898</ele>
        <time>2023-10-01T06:33:41.000Z</time>
      </trkpt>
      <trkpt lat="41.9704" lon="20.06912">
        <ele>1008.0800170898</ele>
        <time>2023-10-01T06:33:40.000Z</time>
      </trkpt>
      <trkpt lat="41.97037" lon="20.06911">
        <ele>1008.5599975586</ele>
        <time>2023-10-01T06:33:39.000Z</time>
      </trkpt>
      <trkpt lat="41.97034" lon="20.06912">
        <ele>1008.5599975586</ele>
        <time>2023-10-01T06:33:38.000Z</time>
      </trkpt>
      <trkpt lat="41.9703" lon="20.06912">
        <ele>1008.5599975586</ele>
        <time>2023-10-01T06:33:37.000Z</time>
      </trkpt>
      <trkpt lat="41.97022" lon="20.06912">
        <ele>1009.0399780273</ele>
        <time>2023-10-01T06:33:36.000Z</time>
      </trkpt>
      <trkpt lat="41.97015" lon="20.06912">
        <ele>1009.5200195312</ele>
        <time>2023-10-01T06:33:35.000Z</time>
      </trkpt>
      <trkpt lat="41.97011" lon="20.06913">
        <ele>1009.5200195312</ele>
        <time>2023-10-01T06:33:34.000Z</time>
      </trkpt>
      <trkpt lat="41.97006" lon="20.06914">
        <ele>1010</ele>
        <time>2023-10-01T06:33:33.000Z</time>
      </trkpt>
      <trkpt lat="41.96993" lon="20.06917">
        <ele>1010.4799804688</ele>
        <time>2023-10-01T06:33:30.000Z</time>
      </trkpt>
      <trkpt lat="41.9699" lon="20.06917">
        <ele>1010.9600219727</ele>
        <time>2023-10-01T06:33:29.000Z</time>
      </trkpt>
      <trkpt lat="41.96985" lon="20.06916">
        <ele>1011.4400024414</ele>
        <time>2023-10-01T06:33:28.000Z</time>
      </trkpt>
      <trkpt lat="41.96981" lon="20.06916">
        <ele>1011.4400024414</ele>
        <time>2023-10-01T06:33:27.000Z</time>
      </trkpt>
      <trkpt lat="41.96975" lon="20.06914">
        <ele>1011.9299926758</ele>
        <time>2023-10-01T06:33:26.000Z</time>
      </trkpt>
      <trkpt lat="41.96973" lon="20.06913">
        <ele>1012.4099731445</ele>
        <time>2023-10-01T06:33:25.000Z</time>
      </trkpt>
      <trkpt lat="41.96967" lon="20.06911">
        <ele>1012.8900146484</ele>
        <time>2023-10-01T06:33:24.000Z</time>
      </trkpt>
      <trkpt lat="41.96962" lon="20.0691">
        <ele>1013.3699951172</ele>
        <time>2023-10-01T06:33:23.000Z</time>
      </trkpt>
      <trkpt lat="41.96955" lon="20.06909">
        <ele>1013.3699951172</ele>
        <time>2023-10-01T06:33:22.000Z</time>
      </trkpt>
      <trkpt lat="41.96951" lon="20.06907">
        <ele>1013.8499755859</ele>
        <time>2023-10-01T06:33:21.000Z</time>
      </trkpt>
      <trkpt lat="41.96947" lon="20.06904">
        <ele>1014.3300170898</ele>
        <time>2023-10-01T06:33:20.000Z</time>
      </trkpt>
      <trkpt lat="41.96944" lon="20.06902">
        <ele>1014.3300170898</ele>
        <time>2023-10-01T06:33:19.000Z</time>
      </trkpt>
      <trkpt lat="41.96939" lon="20.06893">
        <ele>1010.9600219727</ele>
        <time>2023-10-01T06:32:22.000Z</time>
      </trkpt>
      <trkpt lat="41.96931" lon="20.06887">
        <ele>1010.9600219727</ele>
        <time>2023-10-01T06:32:15.000Z</time>
      </trkpt>
      <trkpt lat="41.96926" lon="20.06883">
        <ele>1010.9600219727</ele>
        <time>2023-10-01T06:32:14.000Z</time>
      </trkpt>
      <trkpt lat="41.96921" lon="20.0688">
        <ele>1011.4400024414</ele>
        <time>2023-10-01T06:32:13.000Z</time>
      </trkpt>
      <trkpt lat="41.96915" lon="20.06875">
        <ele>1011.9299926758</ele>
        <time>2023-10-01T06:32:12.000Z</time>
      </trkpt>
      <trkpt lat="41.9691" lon="20.06869">
        <ele>1012.4099731445</ele>
        <time>2023-10-01T06:32:11.000Z</time>
      </trkpt>
      <trkpt lat="41.96905" lon="20.06861">
        <ele>1012.4099731445</ele>
        <time>2023-10-01T06:32:10.000Z</time>
      </trkpt>
      <trkpt lat="41.96901" lon="20.06853">
        <ele>1013.3699951172</ele>
        <time>2023-10-01T06:32:09.000Z</time>
      </trkpt>
      <trkpt lat="41.96897" lon="20.06841">
        <ele>1013.8499755859</ele>
        <time>2023-10-01T06:32:08.000Z</time>
      </trkpt>
      <trkpt lat="41.96894" lon="20.06832">
        <ele>1014.3300170898</ele>
        <time>2023-10-01T06:32:07.000Z</time>
      </trkpt>
      <trkpt lat="41.96893" lon="20.06821">
        <ele>1015.2899780273</ele>
        <time>2023-10-01T06:32:06.000Z</time>
      </trkpt>
      <trkpt lat="41.96893" lon="20.06811">
        <ele>1016.25</ele>
        <time>2023-10-01T06:32:05.000Z</time>
      </trkpt>
      <trkpt lat="41.96895" lon="20.06799">
        <ele>1017.2100219727</ele>
        <time>2023-10-01T06:32:04.000Z</time>
      </trkpt>
      <trkpt lat="41.96899" lon="20.06788">
        <ele>1018.1699829102</ele>
        <time>2023-10-01T06:32:03.000Z</time>
      </trkpt>
      <trkpt lat="41.96902" lon="20.06778">
        <ele>1019.1300048828</ele>
        <time>2023-10-01T06:32:02.000Z</time>
      </trkpt>
      <trkpt lat="41.96904" lon="20.06768">
        <ele>1020.0999755859</ele>
        <time>2023-10-01T06:32:01.000Z</time>
      </trkpt>
      <trkpt lat="41.96907" lon="20.06753">
        <ele>1021.0599975586</ele>
        <time>2023-10-01T06:32:00.000Z</time>
      </trkpt>
      <trkpt lat="41.96907" lon="20.06748">
        <ele>1021.5399780273</ele>
        <time>2023-10-01T06:31:59.000Z</time>
      </trkpt>
      <trkpt lat="41.96909" lon="20.06729">
        <ele>1022.5</ele>
        <time>2023-10-01T06:31:58.000Z</time>
      </trkpt>
      <trkpt lat="41.9691" lon="20.0672">
        <ele>1022.9799804688</ele>
        <time>2023-10-01T06:31:57.000Z</time>
      </trkpt>
      <trkpt lat="41.96911" lon="20.06711">
        <ele>1023.4600219727</ele>
        <time>2023-10-01T06:31:56.000Z</time>
      </trkpt>
      <trkpt lat="41.9691" lon="20.067">
        <ele>1024.4200439453</ele>
        <time>2023-10-01T06:31:55.000Z</time>
      </trkpt>
      <trkpt lat="41.96907" lon="20.06692">
        <ele>1024.9000244141</ele>
        <time>2023-10-01T06:31:54.000Z</time>
      </trkpt>
      <trkpt lat="41.96903" lon="20.06684">
        <ele>1025.8599853516</ele>
        <time>2023-10-01T06:31:53.000Z</time>
      </trkpt>
      <trkpt lat="41.969" lon="20.0668">
        <ele>1026.3399658203</ele>
        <time>2023-10-01T06:31:52.000Z</time>
      </trkpt>
      <trkpt lat="41.96895" lon="20.06673">
        <ele>1026.8299560547</ele>
        <time>2023-10-01T06:31:51.000Z</time>
      </trkpt>
      <trkpt lat="41.96886" lon="20.06661">
        <ele>1028.2700195312</ele>
        <time>2023-10-01T06:31:50.000Z</time>
      </trkpt>
      <trkpt lat="41.96867" lon="20.06636">
        <ele>1029.7099609375</ele>
        <time>2023-10-01T06:31:47.000Z</time>
      </trkpt>
      <trkpt lat="41.96863" lon="20.06629">
        <ele>1030.6700439453</ele>
        <time>2023-10-01T06:31:46.000Z</time>
      </trkpt>
      <trkpt lat="41.96852" lon="20.06614">
        <ele>1031.6300048828</ele>
        <time>2023-10-01T06:31:45.000Z</time>
      </trkpt>
      <trkpt lat="41.96845" lon="20.06606">
        <ele>1032.5899658203</ele>
        <time>2023-10-01T06:31:44.000Z</time>
      </trkpt>
      <trkpt lat="41.96837" lon="20.06598">
        <ele>1033.0699462891</ele>
        <time>2023-10-01T06:31:43.000Z</time>
      </trkpt>
      <trkpt lat="41.9683" lon="20.06591">
        <ele>1033.5500488281</ele>
        <time>2023-10-01T06:31:42.000Z</time>
      </trkpt>
      <trkpt lat="41.96825" lon="20.06588">
        <ele>1034.5200195312</ele>
        <time>2023-10-01T06:31:41.000Z</time>
      </trkpt>
      <trkpt lat="41.96817" lon="20.06584">
        <ele>1035</ele>
        <time>2023-10-01T06:31:40.000Z</time>
      </trkpt>
      <trkpt lat="41.96811" lon="20.06583">
        <ele>1035.4799804688</ele>
        <time>2023-10-01T06:31:39.000Z</time>
      </trkpt>
      <trkpt lat="41.968" lon="20.06582">
        <ele>1035.9599609375</ele>
        <time>2023-10-01T06:31:38.000Z</time>
      </trkpt>
      <trkpt lat="41.96792" lon="20.06582">
        <ele>1036.9200439453</ele>
        <time>2023-10-01T06:31:37.000Z</time>
      </trkpt>
      <trkpt lat="41.96784" lon="20.06582">
        <ele>1037.4000244141</ele>
        <time>2023-10-01T06:31:36.000Z</time>
      </trkpt>
      <trkpt lat="41.96776" lon="20.06582">
        <ele>1038.3599853516</ele>
        <time>2023-10-01T06:31:35.000Z</time>
      </trkpt>
      <trkpt lat="41.96769" lon="20.0658">
        <ele>1038.8399658203</ele>
        <time>2023-10-01T06:31:34.000Z</time>
      </trkpt>
      <trkpt lat="41.96763" lon="20.06576">
        <ele>1039.8000488281</ele>
        <time>2023-10-01T06:31:33.000Z</time>
      </trkpt>
      <trkpt lat="41.96759" lon="20.06572">
        <ele>1040.2800292969</ele>
        <time>2023-10-01T06:31:32.000Z</time>
      </trkpt>
      <trkpt lat="41.96756" lon="20.06566">
        <ele>1041.25</ele>
        <time>2023-10-01T06:31:31.000Z</time>
      </trkpt>
      <trkpt lat="41.96755" lon="20.06561">
        <ele>1041.7299804688</ele>
        <time>2023-10-01T06:31:30.000Z</time>
      </trkpt>
      <trkpt lat="41.96754" lon="20.06555">
        <ele>1042.2099609375</ele>
        <time>2023-10-01T06:31:29.000Z</time>
      </trkpt>
      <trkpt lat="41.96752" lon="20.06538">
        <ele>1043.6500244141</ele>
        <time>2023-10-01T06:31:28.000Z</time>
      </trkpt>
      <trkpt lat="41.96752" lon="20.06528">
        <ele>1044.6099853516</ele>
        <time>2023-10-01T06:31:27.000Z</time>
      </trkpt>
      <trkpt lat="41.96753" lon="20.06516">
        <ele>1045.5699462891</ele>
        <time>2023-10-01T06:31:26.000Z</time>
      </trkpt>
      <trkpt lat="41.96753" lon="20.06508">
        <ele>1046.5300292969</ele>
        <time>2023-10-01T06:31:25.000Z</time>
      </trkpt>
      <trkpt lat="41.96756" lon="20.0649">
        <ele>1047.9699707031</ele>
        <time>2023-10-01T06:31:24.000Z</time>
      </trkpt>
      <trkpt lat="41.96758" lon="20.06477">
        <ele>1048.9399414062</ele>
        <time>2023-10-01T06:31:23.000Z</time>
      </trkpt>
      <trkpt lat="41.9676" lon="20.06458">
        <ele>1050.3800048828</ele>
        <time>2023-10-01T06:31:21.000Z</time>
      </trkpt>
      <trkpt lat="41.96761" lon="20.06445">
        <ele>1050.8599853516</ele>
        <time>2023-10-01T06:31:20.000Z</time>
      </trkpt>
      <trkpt lat="41.96762" lon="20.06431">
        <ele>1051.3399658203</ele>
        <time>2023-10-01T06:31:19.000Z</time>
      </trkpt>
      <trkpt lat="41.96763" lon="20.06419">
        <ele>1051.8199462891</ele>
        <time>2023-10-01T06:31:18.000Z</time>
      </trkpt>
      <trkpt lat="41.96762" lon="20.0641">
        <ele>1052.3000488281</ele>
        <time>2023-10-01T06:31:17.000Z</time>
      </trkpt>
      <trkpt lat="41.9676" lon="20.06403">
        <ele>1052.3000488281</ele>
        <time>2023-10-01T06:31:16.000Z</time>
      </trkpt>
      <trkpt lat="41.96757" lon="20.06397">
        <ele>1052.7800292969</ele>
        <time>2023-10-01T06:31:15.000Z</time>
      </trkpt>
      <trkpt lat="41.96753" lon="20.06394">
        <ele>1053.2600097656</ele>
        <time>2023-10-01T06:31:14.000Z</time>
      </trkpt>
      <trkpt lat="41.96748" lon="20.06392">
        <ele>1052.7800292969</ele>
        <time>2023-10-01T06:31:13.000Z</time>
      </trkpt>
      <trkpt lat="41.96742" lon="20.06393">
        <ele>1053.2600097656</ele>
        <time>2023-10-01T06:31:12.000Z</time>
      </trkpt>
      <trkpt lat="41.9674" lon="20.06394">
        <ele>1053.2600097656</ele>
        <time>2023-10-01T06:31:11.000Z</time>
      </trkpt>
      <trkpt lat="41.96729" lon="20.06401">
        <ele>1053.2600097656</ele>
        <time>2023-10-01T06:31:10.000Z</time>
      </trkpt>
      <trkpt lat="41.9672" lon="20.06403">
        <ele>1053.2600097656</ele>
        <time>2023-10-01T06:31:09.000Z</time>
      </trkpt>
      <trkpt lat="41.96711" lon="20.06403">
        <ele>1053.7399902344</ele>
        <time>2023-10-01T06:31:08.000Z</time>
      </trkpt>
      <trkpt lat="41.96703" lon="20.06401">
        <ele>1053.7399902344</ele>
        <time>2023-10-01T06:31:07.000Z</time>
      </trkpt>
      <trkpt lat="41.96694" lon="20.06397">
        <ele>1053.7399902344</ele>
        <time>2023-10-01T06:31:06.000Z</time>
      </trkpt>
      <trkpt lat="41.96664" lon="20.06382">
        <ele>1054.6999511719</ele>
        <time>2023-10-01T06:31:03.000Z</time>
      </trkpt>
      <trkpt lat="41.96657" lon="20.06379">
        <ele>1054.6999511719</ele>
        <time>2023-10-01T06:31:02.000Z</time>
      </trkpt>
      <trkpt lat="41.9665" lon="20.06375">
        <ele>1055.1800537109</ele>
        <time>2023-10-01T06:31:01.000Z</time>
      </trkpt>
      <trkpt lat="41.96632" lon="20.06368">
        <ele>1056.1500244141</ele>
        <time>2023-10-01T06:30:59.000Z</time>
      </trkpt>
      <trkpt lat="41.96625" lon="20.06365">
        <ele>1056.6300048828</ele>
        <time>2023-10-01T06:30:58.000Z</time>
      </trkpt>
      <trkpt lat="41.96617" lon="20.06361">
        <ele>1057.1099853516</ele>
        <time>2023-10-01T06:30:57.000Z</time>
      </trkpt>
      <trkpt lat="41.96611" lon="20.06359">
        <ele>1058.0699462891</ele>
        <time>2023-10-01T06:30:56.000Z</time>
      </trkpt>
      <trkpt lat="41.9661" lon="20.06358">
        <ele>1058.0699462891</ele>
        <time>2023-10-01T06:30:55.000Z</time>
      </trkpt>
      <trkpt lat="41.96604" lon="20.06361">
        <ele>1059.5100097656</ele>
        <time>2023-10-01T06:30:54.000Z</time>
      </trkpt>
      <trkpt lat="41.96602" lon="20.06366">
        <ele>1059.9899902344</ele>
        <time>2023-10-01T06:30:53.000Z</time>
      </trkpt>
      <trkpt lat="41.96601" lon="20.06371">
        <ele>1060.4699707031</ele>
        <time>2023-10-01T06:30:52.000Z</time>
      </trkpt>
      <trkpt lat="41.96601" lon="20.06378">
        <ele>1060.9499511719</ele>
        <time>2023-10-01T06:30:51.000Z</time>
      </trkpt>
      <trkpt lat="41.96603" lon="20.06383">
        <ele>1061.9100341797</ele>
        <time>2023-10-01T06:30:50.000Z</time>
      </trkpt>
      <trkpt lat="41.96608" lon="20.06388">
        <ele>1062.3900146484</ele>
        <time>2023-10-01T06:30:49.000Z</time>
      </trkpt>
      <trkpt lat="41.96611" lon="20.06391">
        <ele>1062.3900146484</ele>
        <time>2023-10-01T06:30:48.000Z</time>
      </trkpt>
      <trkpt lat="41.96622" lon="20.06399">
        <ele>1063.3599853516</ele>
        <time>2023-10-01T06:30:46.000Z</time>
      </trkpt>
      <trkpt lat="41.96627" lon="20.06401">
        <ele>1063.8399658203</ele>
        <time>2023-10-01T06:30:45.000Z</time>
      </trkpt>
      <trkpt lat="41.96628" lon="20.06401">
        <ele>1063.8399658203</ele>
        <time>2023-10-01T06:30:44.000Z</time>
      </trkpt>
      <trkpt lat="41.96638" lon="20.06403">
        <ele>1064.3199462891</ele>
        <time>2023-10-01T06:30:43.000Z</time>
      </trkpt>
      <trkpt lat="41.96642" lon="20.06405">
        <ele>1064.3199462891</ele>
        <time>2023-10-01T06:30:42.000Z</time>
      </trkpt>
      <trkpt lat="41.96649" lon="20.06412">
        <ele>1062.3900146484</ele>
        <time>2023-10-01T06:30:32.000Z</time>
      </trkpt>
      <trkpt lat="41.96659" lon="20.06425">
        <ele>1063.3599853516</ele>
        <time>2023-10-01T06:30:25.000Z</time>
      </trkpt>
      <trkpt lat="41.96661" lon="20.06427">
        <ele>1063.3599853516</ele>
        <time>2023-10-01T06:30:24.000Z</time>
      </trkpt>
      <trkpt lat="41.96666" lon="20.06435">
        <ele>1063.8399658203</ele>
        <time>2023-10-01T06:30:23.000Z</time>
      </trkpt>
      <trkpt lat="41.96674" lon="20.06448">
        <ele>1064.8000488281</ele>
        <time>2023-10-01T06:30:21.000Z</time>
      </trkpt>
      <trkpt lat="41.96676" lon="20.06452">
        <ele>1064.8000488281</ele>
        <time>2023-10-01T06:30:20.000Z</time>
      </trkpt>
      <trkpt lat="41.96684" lon="20.06461">
        <ele>1065.2800292969</ele>
        <time>2023-10-01T06:30:19.000Z</time>
      </trkpt>
      <trkpt lat="41.96688" lon="20.06467">
        <ele>1065.7600097656</ele>
        <time>2023-10-01T06:30:18.000Z</time>
      </trkpt>
      <trkpt lat="41.96692" lon="20.06473">
        <ele>1066.2399902344</ele>
        <time>2023-10-01T06:30:17.000Z</time>
      </trkpt>
      <trkpt lat="41.96693" lon="20.06478">
        <ele>1066.2399902344</ele>
        <time>2023-10-01T06:30:16.000Z</time>
      </trkpt>
      <trkpt lat="41.96693" lon="20.06485">
        <ele>1066.2399902344</ele>
        <time>2023-10-01T06:30:15.000Z</time>
      </trkpt>
      <trkpt lat="41.96691" lon="20.06495">
        <ele>1066.2399902344</ele>
        <time>2023-10-01T06:30:14.000Z</time>
      </trkpt>
      <trkpt lat="41.96688" lon="20.06502">
        <ele>1066.7199707031</ele>
        <time>2023-10-01T06:30:13.000Z</time>
      </trkpt>
      <trkpt lat="41.96686" lon="20.06509">
        <ele>1067.1999511719</ele>
        <time>2023-10-01T06:30:12.000Z</time>
      </trkpt>
      <trkpt lat="41.96683" lon="20.06526">
        <ele>1068.1600341797</ele>
        <time>2023-10-01T06:30:11.000Z</time>
      </trkpt>
      <trkpt lat="41.96682" lon="20.06532">
        <ele>1068.6400146484</ele>
        <time>2023-10-01T06:30:10.000Z</time>
      </trkpt>
      <trkpt lat="41.96678" lon="20.06549">
        <ele>1069.5999755859</ele>
        <time>2023-10-01T06:30:09.000Z</time>
      </trkpt>
      <trkpt lat="41.96676" lon="20.06558">
        <ele>1070.0799560547</ele>
        <time>2023-10-01T06:30:08.000Z</time>
      </trkpt>
      <trkpt lat="41.96674" lon="20.06566">
        <ele>1071.0500488281</ele>
        <time>2023-10-01T06:30:07.000Z</time>
      </trkpt>
      <trkpt lat="41.96673" lon="20.06582">
        <ele>1072.0100097656</ele>
        <time>2023-10-01T06:30:06.000Z</time>
      </trkpt>
      <trkpt lat="41.96672" lon="20.06592">
        <ele>1072.9699707031</ele>
        <time>2023-10-01T06:30:05.000Z</time>
      </trkpt>
      <trkpt lat="41.9667" lon="20.06601">
        <ele>1074.4100341797</ele>
        <time>2023-10-01T06:30:04.000Z</time>
      </trkpt>
      <trkpt lat="41.96669" lon="20.06607">
        <ele>1074.8900146484</ele>
        <time>2023-10-01T06:30:03.000Z</time>
      </trkpt>
      <trkpt lat="41.96663" lon="20.06621">
        <ele>1075.8499755859</ele>
        <time>2023-10-01T06:30:02.000Z</time>
      </trkpt>
      <trkpt lat="41.96661" lon="20.06626">
        <ele>1076.8100585938</ele>
        <time>2023-10-01T06:30:01.000Z</time>
      </trkpt>
      <trkpt lat="41.96657" lon="20.0664">
        <ele>1078.2600097656</ele>
        <time>2023-10-01T06:30:00.000Z</time>
      </trkpt>
      <trkpt lat="41.96656" lon="20.0665">
        <ele>1079.6999511719</ele>
        <time>2023-10-01T06:29:59.000Z</time>
      </trkpt>
      <trkpt lat="41.96656" lon="20.06659">
        <ele>1080.6600341797</ele>
        <time>2023-10-01T06:29:58.000Z</time>
      </trkpt>
      <trkpt lat="41.96657" lon="20.06668">
        <ele>1081.6199951172</ele>
        <time>2023-10-01T06:29:57.000Z</time>
      </trkpt>
      <trkpt lat="41.9666" lon="20.06677">
        <ele>1082.0999755859</ele>
        <time>2023-10-01T06:29:56.000Z</time>
      </trkpt>
      <trkpt lat="41.96662" lon="20.06686">
        <ele>1083.0600585938</ele>
        <time>2023-10-01T06:29:55.000Z</time>
      </trkpt>
      <trkpt lat="41.96663" lon="20.06697">
        <ele>1083.5400390625</ele>
        <time>2023-10-01T06:29:54.000Z</time>
      </trkpt>
      <trkpt lat="41.96664" lon="20.06708">
        <ele>1084.5</ele>
        <time>2023-10-01T06:29:53.000Z</time>
      </trkpt>
      <trkpt lat="41.96664" lon="20.0671">
        <ele>1084.5</ele>
        <time>2023-10-01T06:29:52.000Z</time>
      </trkpt>
      <trkpt lat="41.96663" lon="20.06731">
        <ele>1085.9499511719</ele>
        <time>2023-10-01T06:29:51.000Z</time>
      </trkpt>
      <trkpt lat="41.96664" lon="20.0674">
        <ele>1086.4300537109</ele>
        <time>2023-10-01T06:29:50.000Z</time>
      </trkpt>
      <trkpt lat="41.96664" lon="20.06753">
        <ele>1087.8699951172</ele>
        <time>2023-10-01T06:29:49.000Z</time>
      </trkpt>
      <trkpt lat="41.96663" lon="20.06764">
        <ele>1088.8299560547</ele>
        <time>2023-10-01T06:29:48.000Z</time>
      </trkpt>
      <trkpt lat="41.96661" lon="20.06772">
        <ele>1089.3100585938</ele>
        <time>2023-10-01T06:29:47.000Z</time>
      </trkpt>
      <trkpt lat="41.96658" lon="20.06783">
        <ele>1090.75</ele>
        <time>2023-10-01T06:29:46.000Z</time>
      </trkpt>
      <trkpt lat="41.96657" lon="20.06786">
        <ele>1090.75</ele>
        <time>2023-10-01T06:29:45.000Z</time>
      </trkpt>
      <trkpt lat="41.96649" lon="20.06804">
        <ele>1092.6800537109</ele>
        <time>2023-10-01T06:29:44.000Z</time>
      </trkpt>
      <trkpt lat="41.96646" lon="20.06813">
        <ele>1093.1600341797</ele>
        <time>2023-10-01T06:29:43.000Z</time>
      </trkpt>
      <trkpt lat="41.96639" lon="20.06829">
        <ele>1094.5999755859</ele>
        <time>2023-10-01T06:29:42.000Z</time>
      </trkpt>
      <trkpt lat="41.96635" lon="20.06841">
        <ele>1095.5600585938</ele>
        <time>2023-10-01T06:29:41.000Z</time>
      </trkpt>
      <trkpt lat="41.96633" lon="20.06851">
        <ele>1096.5200195312</ele>
        <time>2023-10-01T06:29:40.000Z</time>
      </trkpt>
      <trkpt lat="41.96631" lon="20.06862">
        <ele>1097</ele>
        <time>2023-10-01T06:29:39.000Z</time>
      </trkpt>
      <trkpt lat="41.9663" lon="20.06871">
        <ele>1097.9599609375</ele>
        <time>2023-10-01T06:29:38.000Z</time>
      </trkpt>
      <trkpt lat="41.96629" lon="20.06878">
        <ele>1098.9200439453</ele>
        <time>2023-10-01T06:29:37.000Z</time>
      </trkpt>
      <trkpt lat="41.96626" lon="20.06883">
        <ele>1099.4000244141</ele>
        <time>2023-10-01T06:29:36.000Z</time>
      </trkpt>
      <trkpt lat="41.96622" lon="20.06885">
        <ele>1099.8900146484</ele>
        <time>2023-10-01T06:29:35.000Z</time>
      </trkpt>
      <trkpt lat="41.96617" lon="20.06885">
        <ele>1099.8900146484</ele>
        <time>2023-10-01T06:29:34.000Z</time>
      </trkpt>
      <trkpt lat="41.96612" lon="20.06879">
        <ele>1100.8499755859</ele>
        <time>2023-10-01T06:29:33.000Z</time>
      </trkpt>
      <trkpt lat="41.96609" lon="20.06872">
        <ele>1101.3299560547</ele>
        <time>2023-10-01T06:29:32.000Z</time>
      </trkpt>
      <trkpt lat="41.96606" lon="20.06862">
        <ele>1102.7700195312</ele>
        <time>2023-10-01T06:29:31.000Z</time>
      </trkpt>
      <trkpt lat="41.96603" lon="20.06852">
        <ele>1103.25</ele>
        <time>2023-10-01T06:29:30.000Z</time>
      </trkpt>
      <trkpt lat="41.96599" lon="20.06841">
        <ele>1104.2099609375</ele>
        <time>2023-10-01T06:29:29.000Z</time>
      </trkpt>
      <trkpt lat="41.96593" lon="20.06828">
        <ele>1105.1700439453</ele>
        <time>2023-10-01T06:29:28.000Z</time>
      </trkpt>
      <trkpt lat="41.96591" lon="20.06823">
        <ele>1105.6500244141</ele>
        <time>2023-10-01T06:29:27.000Z</time>
      </trkpt>
      <trkpt lat="41.96584" lon="20.06811">
        <ele>1106.6099853516</ele>
        <time>2023-10-01T06:29:26.000Z</time>
      </trkpt>
      <trkpt lat="41.96581" lon="20.06803">
        <ele>1107.0999755859</ele>
        <time>2023-10-01T06:29:25.000Z</time>
      </trkpt>
      <trkpt lat="41.96579" lon="20.06796">
        <ele>1107.5799560547</ele>
        <time>2023-10-01T06:29:24.000Z</time>
      </trkpt>
      <trkpt lat="41.9658" lon="20.06788">
        <ele>1108.5400390625</ele>
        <time>2023-10-01T06:29:23.000Z</time>
      </trkpt>
      <trkpt lat="41.96582" lon="20.0678">
        <ele>1109.5</ele>
        <time>2023-10-01T06:29:22.000Z</time>
      </trkpt>
      <trkpt lat="41.96584" lon="20.0677">
        <ele>1110.4599609375</ele>
        <time>2023-10-01T06:29:21.000Z</time>
      </trkpt>
      <trkpt lat="41.96588" lon="20.06749">
        <ele>1112.3800048828</ele>
        <time>2023-10-01T06:29:19.000Z</time>
      </trkpt>
      <trkpt lat="41.96589" lon="20.06738">
        <ele>1113.3399658203</ele>
        <time>2023-10-01T06:29:18.000Z</time>
      </trkpt>
      <trkpt lat="41.96589" lon="20.06732">
        <ele>1113.8199462891</ele>
        <time>2023-10-01T06:29:17.000Z</time>
      </trkpt>
      <trkpt lat="41.96589" lon="20.06718">
        <ele>1114.7900390625</ele>
        <time>2023-10-01T06:29:16.000Z</time>
      </trkpt>
      <trkpt lat="41.96588" lon="20.06711">
        <ele>1115.2700195312</ele>
        <time>2023-10-01T06:29:15.000Z</time>
      </trkpt>
      <trkpt lat="41.96589" lon="20.06698">
        <ele>1116.2299804688</ele>
        <time>2023-10-01T06:29:14.000Z</time>
      </trkpt>
      <trkpt lat="41.9659" lon="20.06684">
        <ele>1117.1899414062</ele>
        <time>2023-10-01T06:29:13.000Z</time>
      </trkpt>
      <trkpt lat="41.9659" lon="20.06675">
        <ele>1118.1500244141</ele>
        <time>2023-10-01T06:29:12.000Z</time>
      </trkpt>
      <trkpt lat="41.9659" lon="20.06664">
        <ele>1118.6300048828</ele>
        <time>2023-10-01T06:29:11.000Z</time>
      </trkpt>
      <trkpt lat="41.96589" lon="20.06656">
        <ele>1119.1099853516</ele>
        <time>2023-10-01T06:29:10.000Z</time>
      </trkpt>
      <trkpt lat="41.96586" lon="20.06626">
        <ele>1121.5200195312</ele>
        <time>2023-10-01T06:29:08.000Z</time>
      </trkpt>
      <trkpt lat="41.96584" lon="20.06615">
        <ele>1122.4799804688</ele>
        <time>2023-10-01T06:29:07.000Z</time>
      </trkpt>
      <trkpt lat="41.9658" lon="20.06603">
        <ele>1123.9200439453</ele>
        <time>2023-10-01T06:29:06.000Z</time>
      </trkpt>
      <trkpt lat="41.96575" lon="20.06594">
        <ele>1124.8800048828</ele>
        <time>2023-10-01T06:29:05.000Z</time>
      </trkpt>
      <trkpt lat="41.96571" lon="20.06588">
        <ele>1125.8399658203</ele>
        <time>2023-10-01T06:29:04.000Z</time>
      </trkpt>
      <trkpt lat="41.96564" lon="20.0658">
        <ele>1126.3199462891</ele>
        <time>2023-10-01T06:29:03.000Z</time>
      </trkpt>
      <trkpt lat="41.96559" lon="20.06575">
        <ele>1127.2800292969</ele>
        <time>2023-10-01T06:29:02.000Z</time>
      </trkpt>
      <trkpt lat="41.96553" lon="20.06571">
        <ele>1128.2399902344</ele>
        <time>2023-10-01T06:29:01.000Z</time>
      </trkpt>
      <trkpt lat="41.96549" lon="20.06568">
        <ele>1128.7299804688</ele>
        <time>2023-10-01T06:29:00.000Z</time>
      </trkpt>
      <trkpt lat="41.96541" lon="20.06565">
        <ele>1129.6899414062</ele>
        <time>2023-10-01T06:28:59.000Z</time>
      </trkpt>
      <trkpt lat="41.96533" lon="20.06564">
        <ele>1130.6500244141</ele>
        <time>2023-10-01T06:28:58.000Z</time>
      </trkpt>
      <trkpt lat="41.96527" lon="20.06565">
        <ele>1131.1300048828</ele>
        <time>2023-10-01T06:28:57.000Z</time>
      </trkpt>
      <trkpt lat="41.96519" lon="20.06568">
        <ele>1132.0899658203</ele>
        <time>2023-10-01T06:28:56.000Z</time>
      </trkpt>
      <trkpt lat="41.9651" lon="20.06572">
        <ele>1133.0500488281</ele>
        <time>2023-10-01T06:28:55.000Z</time>
      </trkpt>
      <trkpt lat="41.96501" lon="20.06573">
        <ele>1134.0100097656</ele>
        <time>2023-10-01T06:28:54.000Z</time>
      </trkpt>
      <trkpt lat="41.96495" lon="20.06573">
        <ele>1134.4899902344</ele>
        <time>2023-10-01T06:28:53.000Z</time>
      </trkpt>
      <trkpt lat="41.96481" lon="20.06572">
        <ele>1136.4200439453</ele>
        <time>2023-10-01T06:28:52.000Z</time>
      </trkpt>
      <trkpt lat="41.9647" lon="20.06571">
        <ele>1138.3399658203</ele>
        <time>2023-10-01T06:28:51.000Z</time>
      </trkpt>
      <trkpt lat="41.96468" lon="20.06571">
        <ele>1138.8199462891</ele>
        <time>2023-10-01T06:28:50.000Z</time>
      </trkpt>
      <trkpt lat="41.96438" lon="20.06574">
        <ele>1142.1800537109</ele>
        <time>2023-10-01T06:28:48.000Z</time>
      </trkpt>
      <trkpt lat="41.96421" lon="20.06577">
        <ele>1144.5899658203</ele>
        <time>2023-10-01T06:28:46.000Z</time>
      </trkpt>
      <trkpt lat="41.96414" lon="20.06577">
        <ele>1145.5500488281</ele>
        <time>2023-10-01T06:28:45.000Z</time>
      </trkpt>
      <trkpt lat="41.96406" lon="20.06575">
        <ele>1146.5100097656</ele>
        <time>2023-10-01T06:28:44.000Z</time>
      </trkpt>
      <trkpt lat="41.96403" lon="20.06574">
        <ele>1146.9899902344</ele>
        <time>2023-10-01T06:28:43.000Z</time>
      </trkpt>
      <trkpt lat="41.96391" lon="20.06567">
        <ele>1148.9100341797</ele>
        <time>2023-10-01T06:28:42.000Z</time>
      </trkpt>
      <trkpt lat="41.96383" lon="20.06565">
        <ele>1149.8699951172</ele>
        <time>2023-10-01T06:28:41.000Z</time>
      </trkpt>
      <trkpt lat="41.96377" lon="20.06563">
        <ele>1150.8399658203</ele>
        <time>2023-10-01T06:28:40.000Z</time>
      </trkpt>
      <trkpt lat="41.96368" lon="20.06561">
        <ele>1151.8000488281</ele>
        <time>2023-10-01T06:28:39.000Z</time>
      </trkpt>
      <trkpt lat="41.96361" lon="20.06559">
        <ele>1152.2800292969</ele>
        <time>2023-10-01T06:28:38.000Z</time>
      </trkpt>
      <trkpt lat="41.96352" lon="20.06555">
        <ele>1153.2399902344</ele>
        <time>2023-10-01T06:28:37.000Z</time>
      </trkpt>
      <trkpt lat="41.96345" lon="20.06551">
        <ele>1153.7199707031</ele>
        <time>2023-10-01T06:28:36.000Z</time>
      </trkpt>
      <trkpt lat="41.96337" lon="20.06547">
        <ele>1154.6800537109</ele>
        <time>2023-10-01T06:28:35.000Z</time>
      </trkpt>
      <trkpt lat="41.96325" lon="20.06541">
        <ele>1156.5999755859</ele>
        <time>2023-10-01T06:28:33.000Z</time>
      </trkpt>
      <trkpt lat="41.96321" lon="20.06539">
        <ele>1157.0799560547</ele>
        <time>2023-10-01T06:28:32.000Z</time>
      </trkpt>
      <trkpt lat="41.96314" lon="20.06534">
        <ele>1158.0500488281</ele>
        <time>2023-10-01T06:28:31.000Z</time>
      </trkpt>
      <trkpt lat="41.96308" lon="20.06531">
        <ele>1158.5300292969</ele>
        <time>2023-10-01T06:28:30.000Z</time>
      </trkpt>
      <trkpt lat="41.96302" lon="20.06529">
        <ele>1159.4899902344</ele>
        <time>2023-10-01T06:28:29.000Z</time>
      </trkpt>
      <trkpt lat="41.96295" lon="20.0653">
        <ele>1160.4499511719</ele>
        <time>2023-10-01T06:28:28.000Z</time>
      </trkpt>
      <trkpt lat="41.9629" lon="20.06532">
        <ele>1161.4100341797</ele>
        <time>2023-10-01T06:28:27.000Z</time>
      </trkpt>
      <trkpt lat="41.96281" lon="20.06536">
        <ele>1162.3699951172</ele>
        <time>2023-10-01T06:28:26.000Z</time>
      </trkpt>
      <trkpt lat="41.96277" lon="20.06538">
        <ele>1163.3299560547</ele>
        <time>2023-10-01T06:28:25.000Z</time>
      </trkpt>
      <trkpt lat="41.96258" lon="20.06543">
        <ele>1165.7399902344</ele>
        <time>2023-10-01T06:28:23.000Z</time>
      </trkpt>
      <trkpt lat="41.9625" lon="20.06545">
        <ele>1167.1800537109</ele>
        <time>2023-10-01T06:28:22.000Z</time>
      </trkpt>
      <trkpt lat="41.96243" lon="20.06546">
        <ele>1168.1400146484</ele>
        <time>2023-10-01T06:28:21.000Z</time>
      </trkpt>
      <trkpt lat="41.96232" lon="20.06546">
        <ele>1169.0999755859</ele>
        <time>2023-10-01T06:28:20.000Z</time>
      </trkpt>
      <trkpt lat="41.96224" lon="20.06546">
        <ele>1170.0600585938</ele>
        <time>2023-10-01T06:28:19.000Z</time>
      </trkpt>
      <trkpt lat="41.96214" lon="20.06547">
        <ele>1171.0200195312</ele>
        <time>2023-10-01T06:28:18.000Z</time>
      </trkpt>
      <trkpt lat="41.96213" lon="20.06548">
        <ele>1171.5</ele>
        <time>2023-10-01T06:28:17.000Z</time>
      </trkpt>
      <trkpt lat="41.96168" lon="20.06553">
        <ele>1173.9100341797</ele>
        <time>2023-10-01T06:28:13.000Z</time>
      </trkpt>
      <trkpt lat="41.96159" lon="20.06556">
        <ele>1174.3900146484</ele>
        <time>2023-10-01T06:28:12.000Z</time>
      </trkpt>
      <trkpt lat="41.96153" lon="20.06557">
        <ele>1174.3900146484</ele>
        <time>2023-10-01T06:28:11.000Z</time>
      </trkpt>
      <trkpt lat="41.96144" lon="20.06558">
        <ele>1174.3900146484</ele>
        <time>2023-10-01T06:28:10.000Z</time>
      </trkpt>
      <trkpt lat="41.96139" lon="20.06559">
        <ele>1174.3900146484</ele>
        <time>2023-10-01T06:28:09.000Z</time>
      </trkpt>
      <trkpt lat="41.96132" lon="20.06562">
        <ele>1173.9100341797</ele>
        <time>2023-10-01T06:28:08.000Z</time>
      </trkpt>
      <trkpt lat="41.96126" lon="20.06567">
        <ele>1173.4300537109</ele>
        <time>2023-10-01T06:28:07.000Z</time>
      </trkpt>
      <trkpt lat="41.96121" lon="20.06572">
        <ele>1172.9499511719</ele>
        <time>2023-10-01T06:28:06.000Z</time>
      </trkpt>
      <trkpt lat="41.96115" lon="20.06579">
        <ele>1172.9499511719</ele>
        <time>2023-10-01T06:28:05.000Z</time>
      </trkpt>
      <trkpt lat="41.96112" lon="20.06585">
        <ele>1172.4699707031</ele>
        <time>2023-10-01T06:28:04.000Z</time>
      </trkpt>
      <trkpt lat="41.96109" lon="20.06593">
        <ele>1171.9799804688</ele>
        <time>2023-10-01T06:28:03.000Z</time>
      </trkpt>
      <trkpt lat="41.96109" lon="20.06597">
        <ele>1171.5</ele>
        <time>2023-10-01T06:28:02.000Z</time>
      </trkpt>
      <trkpt lat="41.96106" lon="20.06614">
        <ele>1170.5400390625</ele>
        <time>2023-10-01T06:28:00.000Z</time>
      </trkpt>
      <trkpt lat="41.96105" lon="20.0662">
        <ele>1170.0600585938</ele>
        <time>2023-10-01T06:27:59.000Z</time>
      </trkpt>
      <trkpt lat="41.96101" lon="20.06631">
        <ele>1169.5799560547</ele>
        <time>2023-10-01T06:27:58.000Z</time>
      </trkpt>
      <trkpt lat="41.96099" lon="20.0664">
        <ele>1169.0999755859</ele>
        <time>2023-10-01T06:27:57.000Z</time>
      </trkpt>
      <trkpt lat="41.96097" lon="20.06649">
        <ele>1168.6199951172</ele>
        <time>2023-10-01T06:27:56.000Z</time>
      </trkpt>
      <trkpt lat="41.96097" lon="20.06655">
        <ele>1168.6199951172</ele>
        <time>2023-10-01T06:27:55.000Z</time>
      </trkpt>
      <trkpt lat="41.96095" lon="20.0667">
        <ele>1168.6199951172</ele>
        <time>2023-10-01T06:27:54.000Z</time>
      </trkpt>
      <trkpt lat="41.96094" lon="20.06685">
        <ele>1168.1400146484</ele>
        <time>2023-10-01T06:27:53.000Z</time>
      </trkpt>
      <trkpt lat="41.96092" lon="20.06692">
        <ele>1167.6600341797</ele>
        <time>2023-10-01T06:27:52.000Z</time>
      </trkpt>
      <trkpt lat="41.96091" lon="20.06696">
        <ele>1167.1800537109</ele>
        <time>2023-10-01T06:27:51.000Z</time>
      </trkpt>
      <trkpt lat="41.96088" lon="20.06705">
        <ele>1167.1800537109</ele>
        <time>2023-10-01T06:27:50.000Z</time>
      </trkpt>
      <trkpt lat="41.96087" lon="20.06708">
        <ele>1166.6999511719</ele>
        <time>2023-10-01T06:27:49.000Z</time>
      </trkpt>
      <trkpt lat="41.96083" lon="20.06716">
        <ele>1166.2199707031</ele>
        <time>2023-10-01T06:27:48.000Z</time>
      </trkpt>
      <trkpt lat="41.96082" lon="20.06718">
        <ele>1166.2199707031</ele>
        <time>2023-10-01T06:27:47.000Z</time>
      </trkpt>
      <trkpt lat="41.96079" lon="20.06728">
        <ele>1165.2600097656</ele>
        <time>2023-10-01T06:27:46.000Z</time>
      </trkpt>
      <trkpt lat="41.96078" lon="20.06734">
        <ele>1164.7700195312</ele>
        <time>2023-10-01T06:27:45.000Z</time>
      </trkpt>
      <trkpt lat="41.96078" lon="20.06738">
        <ele>1164.7700195312</ele>
        <time>2023-10-01T06:27:44.000Z</time>
      </trkpt>
      <trkpt lat="41.96078" lon="20.06746">
        <ele>1164.2900390625</ele>
        <time>2023-10-01T06:27:43.000Z</time>
      </trkpt>
      <trkpt lat="41.96078" lon="20.06751">
        <ele>1164.2900390625</ele>
        <time>2023-10-01T06:27:42.000Z</time>
      </trkpt>
      <trkpt lat="41.96079" lon="20.0676">
        <ele>1163.3299560547</ele>
        <time>2023-10-01T06:27:41.000Z</time>
      </trkpt>
      <trkpt lat="41.96079" lon="20.06767">
        <ele>1162.3699951172</ele>
        <time>2023-10-01T06:27:40.000Z</time>
      </trkpt>
      <trkpt lat="41.96078" lon="20.06771">
        <ele>1161.8900146484</ele>
        <time>2023-10-01T06:27:39.000Z</time>
      </trkpt>
      <trkpt lat="41.96077" lon="20.06781">
        <ele>1161.4100341797</ele>
        <time>2023-10-01T06:27:38.000Z</time>
      </trkpt>
      <trkpt lat="41.96075" lon="20.06788">
        <ele>1161.4100341797</ele>
        <time>2023-10-01T06:27:37.000Z</time>
      </trkpt>
      <trkpt lat="41.96073" lon="20.06793">
        <ele>1160.9300537109</ele>
        <time>2023-10-01T06:27:36.000Z</time>
      </trkpt>
      <trkpt lat="41.96067" lon="20.06803">
        <ele>1160.4499511719</ele>
        <time>2023-10-01T06:27:35.000Z</time>
      </trkpt>
      <trkpt lat="41.96061" lon="20.06815">
        <ele>1159.9699707031</ele>
        <time>2023-10-01T06:27:34.000Z</time>
      </trkpt>
      <trkpt lat="41.96056" lon="20.06824">
        <ele>1159.9699707031</ele>
        <time>2023-10-01T06:27:33.000Z</time>
      </trkpt>
      <trkpt lat="41.9605" lon="20.06833">
        <ele>1159.4899902344</ele>
        <time>2023-10-01T06:27:32.000Z</time>
      </trkpt>
      <trkpt lat="41.96045" lon="20.06841">
        <ele>1159.0100097656</ele>
        <time>2023-10-01T06:27:31.000Z</time>
      </trkpt>
      <trkpt lat="41.9604" lon="20.06848">
        <ele>1158.0500488281</ele>
        <time>2023-10-01T06:27:30.000Z</time>
      </trkpt>
      <trkpt lat="41.96035" lon="20.06857">
        <ele>1157.5600585938</ele>
        <time>2023-10-01T06:27:29.000Z</time>
      </trkpt>
      <trkpt lat="41.96031" lon="20.06866">
        <ele>1157.0799560547</ele>
        <time>2023-10-01T06:27:28.000Z</time>
      </trkpt>
      <trkpt lat="41.96028" lon="20.06875">
        <ele>1156.5999755859</ele>
        <time>2023-10-01T06:27:27.000Z</time>
      </trkpt>
      <trkpt lat="41.96027" lon="20.06881">
        <ele>1156.1199951172</ele>
        <time>2023-10-01T06:27:26.000Z</time>
      </trkpt>
      <trkpt lat="41.96023" lon="20.06899">
        <ele>1156.5999755859</ele>
        <time>2023-10-01T06:27:25.000Z</time>
      </trkpt>
      <trkpt lat="41.96021" lon="20.06909">
        <ele>1156.1199951172</ele>
        <time>2023-10-01T06:27:24.000Z</time>
      </trkpt>
      <trkpt lat="41.96019" lon="20.06919">
        <ele>1155.6400146484</ele>
        <time>2023-10-01T06:27:23.000Z</time>
      </trkpt>
      <trkpt lat="41.96019" lon="20.06929">
        <ele>1155.6400146484</ele>
        <time>2023-10-01T06:27:22.000Z</time>
      </trkpt>
      <trkpt lat="41.9602" lon="20.06939">
        <ele>1155.1600341797</ele>
        <time>2023-10-01T06:27:21.000Z</time>
      </trkpt>
      <trkpt lat="41.96022" lon="20.06947">
        <ele>1154.6800537109</ele>
        <time>2023-10-01T06:27:20.000Z</time>
      </trkpt>
      <trkpt lat="41.96025" lon="20.06952">
        <ele>1154.6800537109</ele>
        <time>2023-10-01T06:27:19.000Z</time>
      </trkpt>
      <trkpt lat="41.9603" lon="20.06962">
        <ele>1154.1999511719</ele>
        <time>2023-10-01T06:27:18.000Z</time>
      </trkpt>
      <trkpt lat="41.96037" lon="20.06976">
        <ele>1153.7199707031</ele>
        <time>2023-10-01T06:27:17.000Z</time>
      </trkpt>
      <trkpt lat="41.96041" lon="20.06981">
        <ele>1153.7199707031</ele>
        <time>2023-10-01T06:27:16.000Z</time>
      </trkpt>
      <trkpt lat="41.96044" lon="20.06986">
        <ele>1153.7199707031</ele>
        <time>2023-10-01T06:27:15.000Z</time>
      </trkpt>
      <trkpt lat="41.96054" lon="20.06999">
        <ele>1153.2399902344</ele>
        <time>2023-10-01T06:27:14.000Z</time>
      </trkpt>
      <trkpt lat="41.96058" lon="20.07007">
        <ele>1152.7600097656</ele>
        <time>2023-10-01T06:27:13.000Z</time>
      </trkpt>
      <trkpt lat="41.9606" lon="20.07016">
        <ele>1151.8000488281</ele>
        <time>2023-10-01T06:27:12.000Z</time>
      </trkpt>
      <trkpt lat="41.96061" lon="20.07025">
        <ele>1150.8399658203</ele>
        <time>2023-10-01T06:27:11.000Z</time>
      </trkpt>
      <trkpt lat="41.9606" lon="20.07034">
        <ele>1150.3499755859</ele>
        <time>2023-10-01T06:27:10.000Z</time>
      </trkpt>
      <trkpt lat="41.96057" lon="20.07043">
        <ele>1149.3900146484</ele>
        <time>2023-10-01T06:27:09.000Z</time>
      </trkpt>
      <trkpt lat="41.96054" lon="20.07052">
        <ele>1148.9100341797</ele>
        <time>2023-10-01T06:27:08.000Z</time>
      </trkpt>
      <trkpt lat="41.96048" lon="20.0706">
        <ele>1148.4300537109</ele>
        <time>2023-10-01T06:27:07.000Z</time>
      </trkpt>
      <trkpt lat="41.96045" lon="20.07063">
        <ele>1147.9499511719</ele>
        <time>2023-10-01T06:27:06.000Z</time>
      </trkpt>
      <trkpt lat="41.96036" lon="20.07074">
        <ele>1147.4699707031</ele>
        <time>2023-10-01T06:27:05.000Z</time>
      </trkpt>
      <trkpt lat="41.9603" lon="20.0708">
        <ele>1146.9899902344</ele>
        <time>2023-10-01T06:27:04.000Z</time>
      </trkpt>
      <trkpt lat="41.96026" lon="20.07084">
        <ele>1146.9899902344</ele>
        <time>2023-10-01T06:27:03.000Z</time>
      </trkpt>
      <trkpt lat="41.96018" lon="20.07094">
        <ele>1146.0300292969</ele>
        <time>2023-10-01T06:27:02.000Z</time>
      </trkpt>
      <trkpt lat="41.96008" lon="20.07109">
        <ele>1146.0300292969</ele>
        <time>2023-10-01T06:27:00.000Z</time>
      </trkpt>
      <trkpt lat="41.96004" lon="20.07115">
        <ele>1145.5500488281</ele>
        <time>2023-10-01T06:26:59.000Z</time>
      </trkpt>
      <trkpt lat="41.96002" lon="20.07123">
        <ele>1145.0699462891</ele>
        <time>2023-10-01T06:26:58.000Z</time>
      </trkpt>
      <trkpt lat="41.96002" lon="20.07131">
        <ele>1144.5899658203</ele>
        <time>2023-10-01T06:26:57.000Z</time>
      </trkpt>
      <trkpt lat="41.96003" lon="20.07137">
        <ele>1144.1099853516</ele>
        <time>2023-10-01T06:26:56.000Z</time>
      </trkpt>
      <trkpt lat="41.96005" lon="20.07144">
        <ele>1143.1400146484</ele>
        <time>2023-10-01T06:26:55.000Z</time>
      </trkpt>
      <trkpt lat="41.96007" lon="20.07153">
        <ele>1142.1800537109</ele>
        <time>2023-10-01T06:26:54.000Z</time>
      </trkpt>
      <trkpt lat="41.96009" lon="20.07162">
        <ele>1141.6999511719</ele>
        <time>2023-10-01T06:26:53.000Z</time>
      </trkpt>
      <trkpt lat="41.9601" lon="20.07169">
        <ele>1141.6999511719</ele>
        <time>2023-10-01T06:26:52.000Z</time>
      </trkpt>
      <trkpt lat="41.9601" lon="20.07176">
        <ele>1141.2199707031</ele>
        <time>2023-10-01T06:26:51.000Z</time>
      </trkpt>
      <trkpt lat="41.96008" lon="20.07183">
        <ele>1141.2199707031</ele>
        <time>2023-10-01T06:26:50.000Z</time>
      </trkpt>
      <trkpt lat="41.96004" lon="20.0719">
        <ele>1140.7399902344</ele>
        <time>2023-10-01T06:26:49.000Z</time>
      </trkpt>
      <trkpt lat="41.96" lon="20.07196">
        <ele>1140.2600097656</ele>
        <time>2023-10-01T06:26:48.000Z</time>
      </trkpt>
      <trkpt lat="41.95997" lon="20.07201">
        <ele>1140.2600097656</ele>
        <time>2023-10-01T06:26:47.000Z</time>
      </trkpt>
      <trkpt lat="41.95994" lon="20.07206">
        <ele>1139.7800292969</ele>
        <time>2023-10-01T06:26:46.000Z</time>
      </trkpt>
      <trkpt lat="41.95991" lon="20.07211">
        <ele>1139.3000488281</ele>
        <time>2023-10-01T06:26:45.000Z</time>
      </trkpt>
      <trkpt lat="41.95988" lon="20.07215">
        <ele>1139.3000488281</ele>
        <time>2023-10-01T06:26:44.000Z</time>
      </trkpt>
      <trkpt lat="41.95984" lon="20.07222">
        <ele>1138.8199462891</ele>
        <time>2023-10-01T06:26:43.000Z</time>
      </trkpt>
      <trkpt lat="41.95982" lon="20.07228">
        <ele>1138.8199462891</ele>
        <time>2023-10-01T06:26:42.000Z</time>
      </trkpt>
      <trkpt lat="41.9598" lon="20.07233">
        <ele>1138.8199462891</ele>
        <time>2023-10-01T06:26:41.000Z</time>
      </trkpt>
      <trkpt lat="41.95977" lon="20.07239">
        <ele>1138.8199462891</ele>
        <time>2023-10-01T06:26:40.000Z</time>
      </trkpt>
      <trkpt lat="41.95974" lon="20.07243">
        <ele>1138.3399658203</ele>
        <time>2023-10-01T06:26:39.000Z</time>
      </trkpt>
      <trkpt lat="41.9597" lon="20.07247">
        <ele>1137.8599853516</ele>
        <time>2023-10-01T06:26:38.000Z</time>
      </trkpt>
      <trkpt lat="41.95966" lon="20.07248">
        <ele>1137.8599853516</ele>
        <time>2023-10-01T06:26:37.000Z</time>
      </trkpt>
      <trkpt lat="41.95961" lon="20.07246">
        <ele>1137.8599853516</ele>
        <time>2023-10-01T06:26:36.000Z</time>
      </trkpt>
      <trkpt lat="41.95956" lon="20.07243">
        <ele>1137.3800048828</ele>
        <time>2023-10-01T06:26:35.000Z</time>
      </trkpt>
      <trkpt lat="41.95951" lon="20.07239">
        <ele>1136.9000244141</ele>
        <time>2023-10-01T06:26:34.000Z</time>
      </trkpt>
      <trkpt lat="41.95947" lon="20.07235">
        <ele>1136.9000244141</ele>
        <time>2023-10-01T06:26:33.000Z</time>
      </trkpt>
      <trkpt lat="41.95943" lon="20.07232">
        <ele>1136.9000244141</ele>
        <time>2023-10-01T06:26:32.000Z</time>
      </trkpt>
      <trkpt lat="41.95939" lon="20.07229">
        <ele>1136.4200439453</ele>
        <time>2023-10-01T06:26:31.000Z</time>
      </trkpt>
      <trkpt lat="41.95935" lon="20.07228">
        <ele>1136.4200439453</ele>
        <time>2023-10-01T06:26:30.000Z</time>
      </trkpt>
      <trkpt lat="41.9593" lon="20.07226">
        <ele>1135.9399414062</ele>
        <time>2023-10-01T06:26:29.000Z</time>
      </trkpt>
      <trkpt lat="41.95927" lon="20.07225">
        <ele>1135.9399414062</ele>
        <time>2023-10-01T06:26:28.000Z</time>
      </trkpt>
      <trkpt lat="41.95915" lon="20.07222">
        <ele>1135.4499511719</ele>
        <time>2023-10-01T06:26:25.000Z</time>
      </trkpt>
      <trkpt lat="41.95909" lon="20.07222">
        <ele>1135.4499511719</ele>
        <time>2023-10-01T06:26:24.000Z</time>
      </trkpt>
      <trkpt lat="41.95904" lon="20.07223">
        <ele>1134.9699707031</ele>
        <time>2023-10-01T06:26:23.000Z</time>
      </trkpt>
      <trkpt lat="41.95898" lon="20.07226">
        <ele>1134.9699707031</ele>
        <time>2023-10-01T06:26:22.000Z</time>
      </trkpt>
      <trkpt lat="41.95894" lon="20.07228">
        <ele>1134.9699707031</ele>
        <time>2023-10-01T06:26:21.000Z</time>
      </trkpt>
      <trkpt lat="41.95891" lon="20.07229">
        <ele>1134.9699707031</ele>
        <time>2023-10-01T06:26:20.000Z</time>
      </trkpt>
      <trkpt lat="41.95884" lon="20.07234">
        <ele>1136.9000244141</ele>
        <time>2023-10-01T06:26:08.000Z</time>
      </trkpt>
      <trkpt lat="41.95881" lon="20.07235">
        <ele>1136.4200439453</ele>
        <time>2023-10-01T06:25:57.000Z</time>
      </trkpt>
      <trkpt lat="41.95855" lon="20.07248">
        <ele>1132.5699462891</ele>
        <time>2023-10-01T06:25:47.000Z</time>
      </trkpt>
      <trkpt lat="41.95836" lon="20.0725">
        <ele>1131.1300048828</ele>
        <time>2023-10-01T06:25:40.000Z</time>
      </trkpt>
      <trkpt lat="41.95833" lon="20.07248">
        <ele>1130.1700439453</ele>
        <time>2023-10-01T06:25:39.000Z</time>
      </trkpt>
      <trkpt lat="41.95828" lon="20.07244">
        <ele>1128.7299804688</ele>
        <time>2023-10-01T06:25:38.000Z</time>
      </trkpt>
      <trkpt lat="41.95824" lon="20.07241">
        <ele>1127.2800292969</ele>
        <time>2023-10-01T06:25:37.000Z</time>
      </trkpt>
      <trkpt lat="41.95821" lon="20.07237">
        <ele>1126.3199462891</ele>
        <time>2023-10-01T06:25:36.000Z</time>
      </trkpt>
      <trkpt lat="41.95817" lon="20.07233">
        <ele>1125.3599853516</ele>
        <time>2023-10-01T06:25:35.000Z</time>
      </trkpt>
      <trkpt lat="41.95814" lon="20.07229">
        <ele>1124.4000244141</ele>
        <time>2023-10-01T06:25:34.000Z</time>
      </trkpt>
      <trkpt lat="41.9581" lon="20.07222">
        <ele>1122.4799804688</ele>
        <time>2023-10-01T06:25:33.000Z</time>
      </trkpt>
      <trkpt lat="41.95808" lon="20.07219">
        <ele>1121.5200195312</ele>
        <time>2023-10-01T06:25:32.000Z</time>
      </trkpt>
      <trkpt lat="41.95803" lon="20.07211">
        <ele>1120.0699462891</ele>
        <time>2023-10-01T06:25:31.000Z</time>
      </trkpt>
      <trkpt lat="41.958" lon="20.07207">
        <ele>1119.1099853516</ele>
        <time>2023-10-01T06:25:30.000Z</time>
      </trkpt>
      <trkpt lat="41.95797" lon="20.07203">
        <ele>1118.6300048828</ele>
        <time>2023-10-01T06:25:29.000Z</time>
      </trkpt>
      <trkpt lat="41.95792" lon="20.07196">
        <ele>1117.1899414062</ele>
        <time>2023-10-01T06:25:28.000Z</time>
      </trkpt>
      <trkpt lat="41.95789" lon="20.07191">
        <ele>1116.2299804688</ele>
        <time>2023-10-01T06:25:27.000Z</time>
      </trkpt>
      <trkpt lat="41.95787" lon="20.07188">
        <ele>1115.75</ele>
        <time>2023-10-01T06:25:26.000Z</time>
      </trkpt>
      <trkpt lat="41.95783" lon="20.0718">
        <ele>1114.3100585938</ele>
        <time>2023-10-01T06:25:25.000Z</time>
      </trkpt>
      <trkpt lat="41.95781" lon="20.07174">
        <ele>1113.3399658203</ele>
        <time>2023-10-01T06:25:24.000Z</time>
      </trkpt>
      <trkpt lat="41.95779" lon="20.0717">
        <ele>1112.3800048828</ele>
        <time>2023-10-01T06:25:23.000Z</time>
      </trkpt>
      <trkpt lat="41.95775" lon="20.07158">
        <ele>1111.9000244141</ele>
        <time>2023-10-01T06:25:20.000Z</time>
      </trkpt>
      <trkpt lat="41.95764" lon="20.07131">
        <ele>1108.5400390625</ele>
        <time>2023-10-01T06:25:14.000Z</time>
      </trkpt>
      <trkpt lat="41.95762" lon="20.07127">
        <ele>1107.5799560547</ele>
        <time>2023-10-01T06:25:13.000Z</time>
      </trkpt>
      <trkpt lat="41.9576" lon="20.07122">
        <ele>1107.0999755859</ele>
        <time>2023-10-01T06:25:12.000Z</time>
      </trkpt>
      <trkpt lat="41.95758" lon="20.07118">
        <ele>1106.6099853516</ele>
        <time>2023-10-01T06:25:11.000Z</time>
      </trkpt>
      <trkpt lat="41.95754" lon="20.07103">
        <ele>1103.7299804688</ele>
        <time>2023-10-01T06:25:08.000Z</time>
      </trkpt>
      <trkpt lat="41.95742" lon="20.07073">
        <ele>1097.9599609375</ele>
        <time>2023-10-01T06:25:01.000Z</time>
      </trkpt>
      <trkpt lat="41.95739" lon="20.07068">
        <ele>1097.4799804688</ele>
        <time>2023-10-01T06:25:00.000Z</time>
      </trkpt>
      <trkpt lat="41.95737" lon="20.07063">
        <ele>1096.5200195312</ele>
        <time>2023-10-01T06:24:59.000Z</time>
      </trkpt>
      <trkpt lat="41.95736" lon="20.0706">
        <ele>1096.0400390625</ele>
        <time>2023-10-01T06:24:58.000Z</time>
      </trkpt>
      <trkpt lat="41.95735" lon="20.07054">
        <ele>1095.0799560547</ele>
        <time>2023-10-01T06:24:57.000Z</time>
      </trkpt>
      <trkpt lat="41.95732" lon="20.07045">
        <ele>1094.1199951172</ele>
        <time>2023-10-01T06:24:55.000Z</time>
      </trkpt>
      <trkpt lat="41.95717" lon="20.07047">
        <ele>1092.6800537109</ele>
        <time>2023-10-01T06:24:49.000Z</time>
      </trkpt>
      <trkpt lat="41.95715" lon="20.07054">
        <ele>1092.1999511719</ele>
        <time>2023-10-01T06:24:48.000Z</time>
      </trkpt>
      <trkpt lat="41.95714" lon="20.07061">
        <ele>1091.7099609375</ele>
        <time>2023-10-01T06:24:47.000Z</time>
      </trkpt>
      <trkpt lat="41.95713" lon="20.07062">
        <ele>1091.7099609375</ele>
        <time>2023-10-01T06:24:46.000Z</time>
      </trkpt>
      <trkpt lat="41.95706" lon="20.07072">
        <ele>1090.2700195312</ele>
        <time>2023-10-01T06:24:43.000Z</time>
      </trkpt>
      <trkpt lat="41.95701" lon="20.07071">
        <ele>1089.3100585938</ele>
        <time>2023-10-01T06:24:42.000Z</time>
      </trkpt>
      <trkpt lat="41.95695" lon="20.07068">
        <ele>1089.3100585938</ele>
        <time>2023-10-01T06:24:41.000Z</time>
      </trkpt>
      <trkpt lat="41.95689" lon="20.07065">
        <ele>1088.3499755859</ele>
        <time>2023-10-01T06:24:40.000Z</time>
      </trkpt>
      <trkpt lat="41.95684" lon="20.07062">
        <ele>1087.8699951172</ele>
        <time>2023-10-01T06:24:39.000Z</time>
      </trkpt>
      <trkpt lat="41.95673" lon="20.07056">
        <ele>1086.4300537109</ele>
        <time>2023-10-01T06:24:37.000Z</time>
      </trkpt>
      <trkpt lat="41.9567" lon="20.07055">
        <ele>1085.9499511719</ele>
        <time>2023-10-01T06:24:36.000Z</time>
      </trkpt>
      <trkpt lat="41.95666" lon="20.07055">
        <ele>1085.4699707031</ele>
        <time>2023-10-01T06:24:35.000Z</time>
      </trkpt>
      <trkpt lat="41.95661" lon="20.07057">
        <ele>1084.5</ele>
        <time>2023-10-01T06:24:34.000Z</time>
      </trkpt>
      <trkpt lat="41.95653" lon="20.07062">
        <ele>1083.5400390625</ele>
        <time>2023-10-01T06:24:33.000Z</time>
      </trkpt>
      <trkpt lat="41.95646" lon="20.07068">
        <ele>1083.0600585938</ele>
        <time>2023-10-01T06:24:32.000Z</time>
      </trkpt>
      <trkpt lat="41.95641" lon="20.07075">
        <ele>1082.5799560547</ele>
        <time>2023-10-01T06:24:31.000Z</time>
      </trkpt>
      <trkpt lat="41.95636" lon="20.07083">
        <ele>1082.0999755859</ele>
        <time>2023-10-01T06:24:30.000Z</time>
      </trkpt>
      <trkpt lat="41.95631" lon="20.07089">
        <ele>1081.1400146484</ele>
        <time>2023-10-01T06:24:29.000Z</time>
      </trkpt>
      <trkpt lat="41.95628" lon="20.07092">
        <ele>1081.1400146484</ele>
        <time>2023-10-01T06:24:28.000Z</time>
      </trkpt>
      <trkpt lat="41.9562" lon="20.07102">
        <ele>1079.6999511719</ele>
        <time>2023-10-01T06:24:27.000Z</time>
      </trkpt>
      <trkpt lat="41.95615" lon="20.07109">
        <ele>1079.2199707031</ele>
        <time>2023-10-01T06:24:26.000Z</time>
      </trkpt>
      <trkpt lat="41.95612" lon="20.07117">
        <ele>1078.7399902344</ele>
        <time>2023-10-01T06:24:25.000Z</time>
      </trkpt>
      <trkpt lat="41.95609" lon="20.07129">
        <ele>1078.2600097656</ele>
        <time>2023-10-01T06:24:24.000Z</time>
      </trkpt>
      <trkpt lat="41.95606" lon="20.07138">
        <ele>1077.2900390625</ele>
        <time>2023-10-01T06:24:23.000Z</time>
      </trkpt>
      <trkpt lat="41.95601" lon="20.07145">
        <ele>1077.2900390625</ele>
        <time>2023-10-01T06:24:22.000Z</time>
      </trkpt>
      <trkpt lat="41.95597" lon="20.0715">
        <ele>1076.8100585938</ele>
        <time>2023-10-01T06:24:21.000Z</time>
      </trkpt>
      <trkpt lat="41.95593" lon="20.07154">
        <ele>1076.8100585938</ele>
        <time>2023-10-01T06:24:20.000Z</time>
      </trkpt>
      <trkpt lat="41.95585" lon="20.07159">
        <ele>1076.3299560547</ele>
        <time>2023-10-01T06:24:19.000Z</time>
      </trkpt>
      <trkpt lat="41.95581" lon="20.07162">
        <ele>1076.3299560547</ele>
        <time>2023-10-01T06:24:18.000Z</time>
      </trkpt>
      <trkpt lat="41.95576" lon="20.07168">
        <ele>1075.8499755859</ele>
        <time>2023-10-01T06:24:17.000Z</time>
      </trkpt>
      <trkpt lat="41.95572" lon="20.07171">
        <ele>1075.3699951172</ele>
        <time>2023-10-01T06:24:16.000Z</time>
      </trkpt>
      <trkpt lat="41.95565" lon="20.07176">
        <ele>1077.2900390625</ele>
        <time>2023-10-01T06:23:24.000Z</time>
      </trkpt>
      <trkpt lat="41.95563" lon="20.07179">
        <ele>1077.2900390625</ele>
        <time>2023-10-01T06:23:18.000Z</time>
      </trkpt>
      <trkpt lat="41.9556" lon="20.07184">
        <ele>1076.8100585938</ele>
        <time>2023-10-01T06:23:17.000Z</time>
      </trkpt>
      <trkpt lat="41.95558" lon="20.07187">
        <ele>1076.8100585938</ele>
        <time>2023-10-01T06:23:16.000Z</time>
      </trkpt>
      <trkpt lat="41.95556" lon="20.07191">
        <ele>1076.3299560547</ele>
        <time>2023-10-01T06:23:15.000Z</time>
      </trkpt>
      <trkpt lat="41.95542" lon="20.07201">
        <ele>1074.4100341797</ele>
        <time>2023-10-01T06:23:10.000Z</time>
      </trkpt>
      <trkpt lat="41.95538" lon="20.07198">
        <ele>1074.4100341797</ele>
        <time>2023-10-01T06:23:09.000Z</time>
      </trkpt>
      <trkpt lat="41.95533" lon="20.07192">
        <ele>1073.9300537109</ele>
        <time>2023-10-01T06:23:08.000Z</time>
      </trkpt>
      <trkpt lat="41.95529" lon="20.07186">
        <ele>1073.4499511719</ele>
        <time>2023-10-01T06:23:07.000Z</time>
      </trkpt>
      <trkpt lat="41.95522" lon="20.07174">
        <ele>1073.4499511719</ele>
        <time>2023-10-01T06:23:06.000Z</time>
      </trkpt>
      <trkpt lat="41.95517" lon="20.07164">
        <ele>1073.4499511719</ele>
        <time>2023-10-01T06:23:05.000Z</time>
      </trkpt>
      <trkpt lat="41.95515" lon="20.07157">
        <ele>1073.4499511719</ele>
        <time>2023-10-01T06:23:04.000Z</time>
      </trkpt>
      <trkpt lat="41.95512" lon="20.07151">
        <ele>1073.4499511719</ele>
        <time>2023-10-01T06:23:03.000Z</time>
      </trkpt>
      <trkpt lat="41.95508" lon="20.07147">
        <ele>1073.4499511719</ele>
        <time>2023-10-01T06:23:02.000Z</time>
      </trkpt>
      <trkpt lat="41.95504" lon="20.07144">
        <ele>1073.4499511719</ele>
        <time>2023-10-01T06:23:01.000Z</time>
      </trkpt>
      <trkpt lat="41.95499" lon="20.07143">
        <ele>1073.4499511719</ele>
        <time>2023-10-01T06:23:00.000Z</time>
      </trkpt>
      <trkpt lat="41.95493" lon="20.07144">
        <ele>1073.4499511719</ele>
        <time>2023-10-01T06:22:59.000Z</time>
      </trkpt>
      <trkpt lat="41.95489" lon="20.07146">
        <ele>1073.4499511719</ele>
        <time>2023-10-01T06:22:58.000Z</time>
      </trkpt>
      <trkpt lat="41.95482" lon="20.07151">
        <ele>1073.4499511719</ele>
        <time>2023-10-01T06:22:57.000Z</time>
      </trkpt>
      <trkpt lat="41.95473" lon="20.07156">
        <ele>1073.4499511719</ele>
        <time>2023-10-01T06:22:56.000Z</time>
      </trkpt>
      <trkpt lat="41.95471" lon="20.07157">
        <ele>1073.4499511719</ele>
        <time>2023-10-01T06:22:55.000Z</time>
      </trkpt>
      <trkpt lat="41.9546" lon="20.07165">
        <ele>1073.4499511719</ele>
        <time>2023-10-01T06:22:54.000Z</time>
      </trkpt>
      <trkpt lat="41.95447" lon="20.07172">
        <ele>1072.4899902344</ele>
        <time>2023-10-01T06:22:52.000Z</time>
      </trkpt>
      <trkpt lat="41.95444" lon="20.07175">
        <ele>1072.4899902344</ele>
        <time>2023-10-01T06:22:51.000Z</time>
      </trkpt>
      <trkpt lat="41.9544" lon="20.0718">
        <ele>1072.0100097656</ele>
        <time>2023-10-01T06:22:50.000Z</time>
      </trkpt>
      <trkpt lat="41.95437" lon="20.07186">
        <ele>1071.5300292969</ele>
        <time>2023-10-01T06:22:49.000Z</time>
      </trkpt>
      <trkpt lat="41.95434" lon="20.07195">
        <ele>1071.5300292969</ele>
        <time>2023-10-01T06:22:48.000Z</time>
      </trkpt>
      <trkpt lat="41.95431" lon="20.07212">
        <ele>1070.5699462891</ele>
        <time>2023-10-01T06:22:46.000Z</time>
      </trkpt>
      <trkpt lat="41.9543" lon="20.07214">
        <ele>1070.5699462891</ele>
        <time>2023-10-01T06:22:45.000Z</time>
      </trkpt>
      <trkpt lat="41.95418" lon="20.07215">
        <ele>1068.6400146484</ele>
        <time>2023-10-01T06:22:41.000Z</time>
      </trkpt>
      <trkpt lat="41.95417" lon="20.0721">
        <ele>1068.1600341797</ele>
        <time>2023-10-01T06:22:40.000Z</time>
      </trkpt>
      <trkpt lat="41.95418" lon="20.07203">
        <ele>1067.6800537109</ele>
        <time>2023-10-01T06:22:39.000Z</time>
      </trkpt>
      <trkpt lat="41.95421" lon="20.07193">
        <ele>1066.7199707031</ele>
        <time>2023-10-01T06:22:38.000Z</time>
      </trkpt>
      <trkpt lat="41.95423" lon="20.07184">
        <ele>1066.2399902344</ele>
        <time>2023-10-01T06:22:37.000Z</time>
      </trkpt>
      <trkpt lat="41.95425" lon="20.07174">
        <ele>1065.2800292969</ele>
        <time>2023-10-01T06:22:36.000Z</time>
      </trkpt>
      <trkpt lat="41.95428" lon="20.07161">
        <ele>1064.3199462891</ele>
        <time>2023-10-01T06:22:35.000Z</time>
      </trkpt>
      <trkpt lat="41.9543" lon="20.07152">
        <ele>1063.3599853516</ele>
        <time>2023-10-01T06:22:34.000Z</time>
      </trkpt>
      <trkpt lat="41.95433" lon="20.07145">
        <ele>1062.8699951172</ele>
        <time>2023-10-01T06:22:33.000Z</time>
      </trkpt>
      <trkpt lat="41.95437" lon="20.07138">
        <ele>1061.9100341797</ele>
        <time>2023-10-01T06:22:32.000Z</time>
      </trkpt>
      <trkpt lat="41.95443" lon="20.07133">
        <ele>1060.9499511719</ele>
        <time>2023-10-01T06:22:31.000Z</time>
      </trkpt>
      <trkpt lat="41.9545" lon="20.07129">
        <ele>1059.0300292969</ele>
        <time>2023-10-01T06:22:30.000Z</time>
      </trkpt>
      <trkpt lat="41.95457" lon="20.07126">
        <ele>1058.0699462891</ele>
        <time>2023-10-01T06:22:29.000Z</time>
      </trkpt>
      <trkpt lat="41.95465" lon="20.07121">
        <ele>1057.1099853516</ele>
        <time>2023-10-01T06:22:28.000Z</time>
      </trkpt>
      <trkpt lat="41.95472" lon="20.07116">
        <ele>1056.6300048828</ele>
        <time>2023-10-01T06:22:27.000Z</time>
      </trkpt>
      <trkpt lat="41.95477" lon="20.07112">
        <ele>1056.1500244141</ele>
        <time>2023-10-01T06:22:26.000Z</time>
      </trkpt>
      <trkpt lat="41.95481" lon="20.07108">
        <ele>1055.6700439453</ele>
        <time>2023-10-01T06:22:25.000Z</time>
      </trkpt>
      <trkpt lat="41.95484" lon="20.07106">
        <ele>1055.6700439453</ele>
        <time>2023-10-01T06:22:24.000Z</time>
      </trkpt>
      <trkpt lat="41.95488" lon="20.07102">
        <ele>1055.1800537109</ele>
        <time>2023-10-01T06:22:23.000Z</time>
      </trkpt>
      <trkpt lat="41.95491" lon="20.07098">
        <ele>1054.6999511719</ele>
        <time>2023-10-01T06:22:22.000Z</time>
      </trkpt>
      <trkpt lat="41.95492" lon="20.07092">
        <ele>1054.2199707031</ele>
        <time>2023-10-01T06:22:21.000Z</time>
      </trkpt>
      <trkpt lat="41.95485" lon="20.07082">
        <ele>1052.7800292969</ele>
        <time>2023-10-01T06:22:18.000Z</time>
      </trkpt>
      <trkpt lat="41.95481" lon="20.07082">
        <ele>1052.3000488281</ele>
        <time>2023-10-01T06:22:17.000Z</time>
      </trkpt>
      <trkpt lat="41.95477" lon="20.07085">
        <ele>1051.8199462891</ele>
        <time>2023-10-01T06:22:16.000Z</time>
      </trkpt>
      <trkpt lat="41.9547" lon="20.07089">
        <ele>1051.3399658203</ele>
        <time>2023-10-01T06:22:15.000Z</time>
      </trkpt>
      <trkpt lat="41.95463" lon="20.07092">
        <ele>1050.3800048828</ele>
        <time>2023-10-01T06:22:14.000Z</time>
      </trkpt>
      <trkpt lat="41.95453" lon="20.07096">
        <ele>1049.9000244141</ele>
        <time>2023-10-01T06:22:13.000Z</time>
      </trkpt>
      <trkpt lat="41.95436" lon="20.071">
        <ele>1048.4499511719</ele>
        <time>2023-10-01T06:22:11.000Z</time>
      </trkpt>
      <trkpt lat="41.95425" lon="20.07102">
        <ele>1047.4899902344</ele>
        <time>2023-10-01T06:22:10.000Z</time>
      </trkpt>
      <trkpt lat="41.95415" lon="20.07102">
        <ele>1047.0100097656</ele>
        <time>2023-10-01T06:22:09.000Z</time>
      </trkpt>
      <trkpt lat="41.95407" lon="20.07103">
        <ele>1046.5300292969</ele>
        <time>2023-10-01T06:22:08.000Z</time>
      </trkpt>
      <trkpt lat="41.954" lon="20.07104">
        <ele>1046.0500488281</ele>
        <time>2023-10-01T06:22:07.000Z</time>
      </trkpt>
      <trkpt lat="41.95395" lon="20.07106">
        <ele>1045.5699462891</ele>
        <time>2023-10-01T06:22:06.000Z</time>
      </trkpt>
      <trkpt lat="41.9539" lon="20.07109">
        <ele>1045.0899658203</ele>
        <time>2023-10-01T06:22:05.000Z</time>
      </trkpt>
      <trkpt lat="41.9539" lon="20.0711">
        <ele>1045.0899658203</ele>
        <time>2023-10-01T06:22:04.000Z</time>
      </trkpt>
      <trkpt lat="41.9538" lon="20.07124">
        <ele>1047.0100097656</ele>
        <time>2023-10-01T06:20:13.000Z</time>
      </trkpt>
      <trkpt lat="41.95377" lon="20.07131">
        <ele>1046.5300292969</ele>
        <time>2023-10-01T06:20:07.000Z</time>
      </trkpt>
      <trkpt lat="41.95375" lon="20.07138">
        <ele>1046.0500488281</ele>
        <time>2023-10-01T06:20:06.000Z</time>
      </trkpt>
      <trkpt lat="41.95373" lon="20.07145">
        <ele>1045.5699462891</ele>
        <time>2023-10-01T06:20:05.000Z</time>
      </trkpt>
      <trkpt lat="41.95373" lon="20.07146">
        <ele>1045.5699462891</ele>
        <time>2023-10-01T06:20:04.000Z</time>
      </trkpt>
      <trkpt lat="41.95371" lon="20.07152">
        <ele>1045.0899658203</ele>
        <time>2023-10-01T06:20:03.000Z</time>
      </trkpt>
      <trkpt lat="41.9536" lon="20.07168">
        <ele>1042.6899414062</ele>
        <time>2023-10-01T06:19:58.000Z</time>
      </trkpt>
      <trkpt lat="41.95354" lon="20.07166">
        <ele>1042.2099609375</ele>
        <time>2023-10-01T06:19:57.000Z</time>
      </trkpt>
      <trkpt lat="41.9535" lon="20.07163">
        <ele>1042.2099609375</ele>
        <time>2023-10-01T06:19:56.000Z</time>
      </trkpt>
      <trkpt lat="41.95344" lon="20.0716">
        <ele>1041.7299804688</ele>
        <time>2023-10-01T06:19:55.000Z</time>
      </trkpt>
      <trkpt lat="41.95338" lon="20.07156">
        <ele>1041.7299804688</ele>
        <time>2023-10-01T06:19:54.000Z</time>
      </trkpt>
      <trkpt lat="41.95333" lon="20.07155">
        <ele>1041.7299804688</ele>
        <time>2023-10-01T06:19:53.000Z</time>
      </trkpt>
      <trkpt lat="41.95328" lon="20.07156">
        <ele>1041.7299804688</ele>
        <time>2023-10-01T06:19:52.000Z</time>
      </trkpt>
      <trkpt lat="41.95323" lon="20.07159">
        <ele>1040.7600097656</ele>
        <time>2023-10-01T06:19:51.000Z</time>
      </trkpt>
      <trkpt lat="41.95319" lon="20.07161">
        <ele>1040.7600097656</ele>
        <time>2023-10-01T06:19:50.000Z</time>
      </trkpt>
      <trkpt lat="41.95313" lon="20.07165">
        <ele>1039.8000488281</ele>
        <time>2023-10-01T06:19:49.000Z</time>
      </trkpt>
      <trkpt lat="41.95307" lon="20.07167">
        <ele>1039.3199462891</ele>
        <time>2023-10-01T06:19:48.000Z</time>
      </trkpt>
      <trkpt lat="41.953" lon="20.07168">
        <ele>1039.3199462891</ele>
        <time>2023-10-01T06:19:47.000Z</time>
      </trkpt>
      <trkpt lat="41.95294" lon="20.07167">
        <ele>1038.3599853516</ele>
        <time>2023-10-01T06:19:46.000Z</time>
      </trkpt>
      <trkpt lat="41.95288" lon="20.07165">
        <ele>1037.8800048828</ele>
        <time>2023-10-01T06:19:45.000Z</time>
      </trkpt>
      <trkpt lat="41.95284" lon="20.07163">
        <ele>1037.4000244141</ele>
        <time>2023-10-01T06:19:44.000Z</time>
      </trkpt>
      <trkpt lat="41.95277" lon="20.07159">
        <ele>1036.4399414062</ele>
        <time>2023-10-01T06:19:43.000Z</time>
      </trkpt>
      <trkpt lat="41.95273" lon="20.07156">
        <ele>1035.9599609375</ele>
        <time>2023-10-01T06:19:42.000Z</time>
      </trkpt>
      <trkpt lat="41.95265" lon="20.07153">
        <ele>1035</ele>
        <time>2023-10-01T06:19:41.000Z</time>
      </trkpt>
      <trkpt lat="41.9526" lon="20.07151">
        <ele>1035</ele>
        <time>2023-10-01T06:19:40.000Z</time>
      </trkpt>
      <trkpt lat="41.95255" lon="20.0715">
        <ele>1034.5200195312</ele>
        <time>2023-10-01T06:19:39.000Z</time>
      </trkpt>
      <trkpt lat="41.95252" lon="20.07149">
        <ele>1034.5200195312</ele>
        <time>2023-10-01T06:19:38.000Z</time>
      </trkpt>
      <trkpt lat="41.95246" lon="20.07149">
        <ele>1034.5200195312</ele>
        <time>2023-10-01T06:19:37.000Z</time>
      </trkpt>
      <trkpt lat="41.95241" lon="20.0715">
        <ele>1034.0400390625</ele>
        <time>2023-10-01T06:19:36.000Z</time>
      </trkpt>
      <trkpt lat="41.95236" lon="20.07151">
        <ele>1034.0400390625</ele>
        <time>2023-10-01T06:19:35.000Z</time>
      </trkpt>
      <trkpt lat="41.95231" lon="20.07154">
        <ele>1034.0400390625</ele>
        <time>2023-10-01T06:19:34.000Z</time>
      </trkpt>
      <trkpt lat="41.95227" lon="20.07157">
        <ele>1034.0400390625</ele>
        <time>2023-10-01T06:19:33.000Z</time>
      </trkpt>
      <trkpt lat="41.95224" lon="20.0716">
        <ele>1034.0400390625</ele>
        <time>2023-10-01T06:19:32.000Z</time>
      </trkpt>
      <trkpt lat="41.95219" lon="20.07163">
        <ele>1033.5500488281</ele>
        <time>2023-10-01T06:19:31.000Z</time>
      </trkpt>
      <trkpt lat="41.95215" lon="20.07168">
        <ele>1033.5500488281</ele>
        <time>2023-10-01T06:19:30.000Z</time>
      </trkpt>
      <trkpt lat="41.95209" lon="20.07175">
        <ele>1033.5500488281</ele>
        <time>2023-10-01T06:19:29.000Z</time>
      </trkpt>
      <trkpt lat="41.95206" lon="20.0718">
        <ele>1033.5500488281</ele>
        <time>2023-10-01T06:19:28.000Z</time>
      </trkpt>
      <trkpt lat="41.952" lon="20.07193">
        <ele>1032.1099853516</ele>
        <time>2023-10-01T06:19:27.000Z</time>
      </trkpt>
      <trkpt lat="41.95195" lon="20.072">
        <ele>1031.1500244141</ele>
        <time>2023-10-01T06:19:26.000Z</time>
      </trkpt>
      <trkpt lat="41.95187" lon="20.07209">
        <ele>1030.1899414062</ele>
        <time>2023-10-01T06:19:25.000Z</time>
      </trkpt>
      <trkpt lat="41.95184" lon="20.07212">
        <ele>1029.7099609375</ele>
        <time>2023-10-01T06:19:24.000Z</time>
      </trkpt>
      <trkpt lat="41.95175" lon="20.07221">
        <ele>1028.75</ele>
        <time>2023-10-01T06:19:23.000Z</time>
      </trkpt>
      <trkpt lat="41.9517" lon="20.07226">
        <ele>1028.2700195312</ele>
        <time>2023-10-01T06:19:22.000Z</time>
      </trkpt>
      <trkpt lat="41.95165" lon="20.07231">
        <ele>1027.7900390625</ele>
        <time>2023-10-01T06:19:21.000Z</time>
      </trkpt>
      <trkpt lat="41.95161" lon="20.07232">
        <ele>1027.7900390625</ele>
        <time>2023-10-01T06:19:20.000Z</time>
      </trkpt>
      <trkpt lat="41.95156" lon="20.07231">
        <ele>1027.3100585938</ele>
        <time>2023-10-01T06:19:19.000Z</time>
      </trkpt>
      <trkpt lat="41.95149" lon="20.07227">
        <ele>1026.3399658203</ele>
        <time>2023-10-01T06:19:18.000Z</time>
      </trkpt>
      <trkpt lat="41.95142" lon="20.0722">
        <ele>1025.8599853516</ele>
        <time>2023-10-01T06:19:17.000Z</time>
      </trkpt>
      <trkpt lat="41.95136" lon="20.07212">
        <ele>1025.8599853516</ele>
        <time>2023-10-01T06:19:16.000Z</time>
      </trkpt>
      <trkpt lat="41.9513" lon="20.07203">
        <ele>1025.3800048828</ele>
        <time>2023-10-01T06:19:15.000Z</time>
      </trkpt>
      <trkpt lat="41.95127" lon="20.07197">
        <ele>1024.9000244141</ele>
        <time>2023-10-01T06:19:14.000Z</time>
      </trkpt>
      <trkpt lat="41.95124" lon="20.07188">
        <ele>1023.9400024414</ele>
        <time>2023-10-01T06:19:13.000Z</time>
      </trkpt>
      <trkpt lat="41.9512" lon="20.0718">
        <ele>1023.4600219727</ele>
        <time>2023-10-01T06:19:12.000Z</time>
      </trkpt>
      <trkpt lat="41.95115" lon="20.07174">
        <ele>1022.9799804688</ele>
        <time>2023-10-01T06:19:11.000Z</time>
      </trkpt>
      <trkpt lat="41.95111" lon="20.07171">
        <ele>1022.5</ele>
        <time>2023-10-01T06:19:10.000Z</time>
      </trkpt>
      <trkpt lat="41.95104" lon="20.0717">
        <ele>1021.5399780273</ele>
        <time>2023-10-01T06:19:09.000Z</time>
      </trkpt>
      <trkpt lat="41.95096" lon="20.07171">
        <ele>1020.0999755859</ele>
        <time>2023-10-01T06:19:08.000Z</time>
      </trkpt>
      <trkpt lat="41.95077" lon="20.07175">
        <ele>1018.6500244141</ele>
        <time>2023-10-01T06:19:06.000Z</time>
      </trkpt>
      <trkpt lat="41.95068" lon="20.07174">
        <ele>1018.1699829102</ele>
        <time>2023-10-01T06:19:05.000Z</time>
      </trkpt>
      <trkpt lat="41.9506" lon="20.07173">
        <ele>1017.6900024414</ele>
        <time>2023-10-01T06:19:04.000Z</time>
      </trkpt>
      <trkpt lat="41.95046" lon="20.07168">
        <ele>1017.2100219727</ele>
        <time>2023-10-01T06:19:03.000Z</time>
      </trkpt>
      <trkpt lat="41.95037" lon="20.07165">
        <ele>1016.7299804688</ele>
        <time>2023-10-01T06:19:02.000Z</time>
      </trkpt>
      <trkpt lat="41.95028" lon="20.07161">
        <ele>1016.7299804688</ele>
        <time>2023-10-01T06:19:01.000Z</time>
      </trkpt>
      <trkpt lat="41.95019" lon="20.07156">
        <ele>1016.25</ele>
        <time>2023-10-01T06:19:00.000Z</time>
      </trkpt>
      <trkpt lat="41.95009" lon="20.0715">
        <ele>1015.7700195312</ele>
        <time>2023-10-01T06:18:59.000Z</time>
      </trkpt>
      <trkpt lat="41.95005" lon="20.07147">
        <ele>1015.7700195312</ele>
        <time>2023-10-01T06:18:58.000Z</time>
      </trkpt>
      <trkpt lat="41.94995" lon="20.07138">
        <ele>1015.7700195312</ele>
        <time>2023-10-01T06:18:57.000Z</time>
      </trkpt>
      <trkpt lat="41.94989" lon="20.07132">
        <ele>1016.25</ele>
        <time>2023-10-01T06:18:56.000Z</time>
      </trkpt>
      <trkpt lat="41.94983" lon="20.0713">
        <ele>1016.25</ele>
        <time>2023-10-01T06:18:55.000Z</time>
      </trkpt>
      <trkpt lat="41.94977" lon="20.07129">
        <ele>1016.7299804688</ele>
        <time>2023-10-01T06:18:54.000Z</time>
      </trkpt>
      <trkpt lat="41.94967" lon="20.07127">
        <ele>1017.2100219727</ele>
        <time>2023-10-01T06:18:53.000Z</time>
      </trkpt>
      <trkpt lat="41.94959" lon="20.07127">
        <ele>1017.6900024414</ele>
        <time>2023-10-01T06:18:52.000Z</time>
      </trkpt>
      <trkpt lat="41.94952" lon="20.07129">
        <ele>1018.1699829102</ele>
        <time>2023-10-01T06:18:51.000Z</time>
      </trkpt>
      <trkpt lat="41.94948" lon="20.0713">
        <ele>1018.6500244141</ele>
        <time>2023-10-01T06:18:50.000Z</time>
      </trkpt>
      <trkpt lat="41.94932" lon="20.0714">
        <ele>1019.1300048828</ele>
        <time>2023-10-01T06:18:48.000Z</time>
      </trkpt>
      <trkpt lat="41.94929" lon="20.07141">
        <ele>1019.1300048828</ele>
        <time>2023-10-01T06:18:47.000Z</time>
      </trkpt>
      <trkpt lat="41.94928" lon="20.07141">
        <ele>1019.1300048828</ele>
        <time>2023-10-01T06:18:46.000Z</time>
      </trkpt>
      <trkpt lat="41.94928" lon="20.07141">
        <ele>1019.1300048828</ele>
        <time>2023-10-01T06:18:35.000Z</time>
      </trkpt>
      <trkpt lat="41.94919" lon="20.07139">
        <ele>1020.0999755859</ele>
        <time>2023-10-01T06:18:29.000Z</time>
      </trkpt>
      <trkpt lat="41.94915" lon="20.07136">
        <ele>1020.0999755859</ele>
        <time>2023-10-01T06:18:28.000Z</time>
      </trkpt>
      <trkpt lat="41.94912" lon="20.07133">
        <ele>1020.0999755859</ele>
        <time>2023-10-01T06:18:27.000Z</time>
      </trkpt>
      <trkpt lat="41.94908" lon="20.07127">
        <ele>1020.0999755859</ele>
        <time>2023-10-01T06:18:26.000Z</time>
      </trkpt>
      <trkpt lat="41.94906" lon="20.07123">
        <ele>1020.0999755859</ele>
        <time>2023-10-01T06:18:25.000Z</time>
      </trkpt>
      <trkpt lat="41.94901" lon="20.07112">
        <ele>1020.0999755859</ele>
        <time>2023-10-01T06:18:24.000Z</time>
      </trkpt>
      <trkpt lat="41.949" lon="20.0711">
        <ele>1020.0999755859</ele>
        <time>2023-10-01T06:18:23.000Z</time>
      </trkpt>
      <trkpt lat="41.94893" lon="20.07093">
        <ele>1019.6199951172</ele>
        <time>2023-10-01T06:18:22.000Z</time>
      </trkpt>
      <trkpt lat="41.94889" lon="20.07083">
        <ele>1019.1300048828</ele>
        <time>2023-10-01T06:18:21.000Z</time>
      </trkpt>
      <trkpt lat="41.94887" lon="20.07075">
        <ele>1019.1300048828</ele>
        <time>2023-10-01T06:18:20.000Z</time>
      </trkpt>
      <trkpt lat="41.94885" lon="20.07064">
        <ele>1019.1300048828</ele>
        <time>2023-10-01T06:18:19.000Z</time>
      </trkpt>
      <trkpt lat="41.94883" lon="20.07056">
        <ele>1019.1300048828</ele>
        <time>2023-10-01T06:18:18.000Z</time>
      </trkpt>
      <trkpt lat="41.94878" lon="20.07044">
        <ele>1019.1300048828</ele>
        <time>2023-10-01T06:18:17.000Z</time>
      </trkpt>
      <trkpt lat="41.94876" lon="20.07038">
        <ele>1019.1300048828</ele>
        <time>2023-10-01T06:18:16.000Z</time>
      </trkpt>
      <trkpt lat="41.94871" lon="20.07031">
        <ele>1019.1300048828</ele>
        <time>2023-10-01T06:18:15.000Z</time>
      </trkpt>
      <trkpt lat="41.94866" lon="20.07025">
        <ele>1019.6199951172</ele>
        <time>2023-10-01T06:18:14.000Z</time>
      </trkpt>
      <trkpt lat="41.94859" lon="20.07019">
        <ele>1020.0999755859</ele>
        <time>2023-10-01T06:18:13.000Z</time>
      </trkpt>
      <trkpt lat="41.94857" lon="20.07017">
        <ele>1020.0999755859</ele>
        <time>2023-10-01T06:18:12.000Z</time>
      </trkpt>
      <trkpt lat="41.94844" lon="20.07008">
        <ele>1020.0999755859</ele>
        <time>2023-10-01T06:18:11.000Z</time>
      </trkpt>
      <trkpt lat="41.94842" lon="20.07007">
        <ele>1020.0999755859</ele>
        <time>2023-10-01T06:18:10.000Z</time>
      </trkpt>
      <trkpt lat="41.94827" lon="20.06997">
        <ele>1019.6199951172</ele>
        <time>2023-10-01T06:18:09.000Z</time>
      </trkpt>
      <trkpt lat="41.94822" lon="20.06994">
        <ele>1019.6199951172</ele>
        <time>2023-10-01T06:18:08.000Z</time>
      </trkpt>
      <trkpt lat="41.94809" lon="20.06988">
        <ele>1019.1300048828</ele>
        <time>2023-10-01T06:18:07.000Z</time>
      </trkpt>
      <trkpt lat="41.94802" lon="20.06986">
        <ele>1018.6500244141</ele>
        <time>2023-10-01T06:18:06.000Z</time>
      </trkpt>
      <trkpt lat="41.94792" lon="20.06986">
        <ele>1018.1699829102</ele>
        <time>2023-10-01T06:18:05.000Z</time>
      </trkpt>
      <trkpt lat="41.94785" lon="20.06986">
        <ele>1017.6900024414</ele>
        <time>2023-10-01T06:18:04.000Z</time>
      </trkpt>
      <trkpt lat="41.94778" lon="20.06988">
        <ele>1017.6900024414</ele>
        <time>2023-10-01T06:18:03.000Z</time>
      </trkpt>
      <trkpt lat="41.94772" lon="20.06992">
        <ele>1017.6900024414</ele>
        <time>2023-10-01T06:18:02.000Z</time>
      </trkpt>
      <trkpt lat="41.94766" lon="20.06996">
        <ele>1017.2100219727</ele>
        <time>2023-10-01T06:18:01.000Z</time>
      </trkpt>
      <trkpt lat="41.9476" lon="20.07">
        <ele>1016.7299804688</ele>
        <time>2023-10-01T06:18:00.000Z</time>
      </trkpt>
      <trkpt lat="41.94752" lon="20.07004">
        <ele>1015.2899780273</ele>
        <time>2023-10-01T06:17:59.000Z</time>
      </trkpt>
      <trkpt lat="41.94744" lon="20.07006">
        <ele>1014.3300170898</ele>
        <time>2023-10-01T06:17:58.000Z</time>
      </trkpt>
      <trkpt lat="41.94735" lon="20.07005">
        <ele>1013.8499755859</ele>
        <time>2023-10-01T06:17:57.000Z</time>
      </trkpt>
      <trkpt lat="41.94732" lon="20.07004">
        <ele>1013.3699951172</ele>
        <time>2023-10-01T06:17:56.000Z</time>
      </trkpt>
      <trkpt lat="41.94723" lon="20.07002">
        <ele>1012.8900146484</ele>
        <time>2023-10-01T06:17:55.000Z</time>
      </trkpt>
      <trkpt lat="41.94712" lon="20.06999">
        <ele>1012.4099731445</ele>
        <time>2023-10-01T06:17:54.000Z</time>
      </trkpt>
      <trkpt lat="41.94708" lon="20.06997">
        <ele>1012.4099731445</ele>
        <time>2023-10-01T06:17:53.000Z</time>
      </trkpt>
      <trkpt lat="41.94705" lon="20.06994">
        <ele>1012.4099731445</ele>
        <time>2023-10-01T06:17:52.000Z</time>
      </trkpt>
      <trkpt lat="41.94703" lon="20.06988">
        <ele>1012.4099731445</ele>
        <time>2023-10-01T06:17:51.000Z</time>
      </trkpt>
      <trkpt lat="41.94702" lon="20.0698">
        <ele>1012.4099731445</ele>
        <time>2023-10-01T06:17:50.000Z</time>
      </trkpt>
      <trkpt lat="41.94702" lon="20.0697">
        <ele>1012.4099731445</ele>
        <time>2023-10-01T06:17:49.000Z</time>
      </trkpt>
      <trkpt lat="41.94702" lon="20.0696">
        <ele>1011.9299926758</ele>
        <time>2023-10-01T06:17:48.000Z</time>
      </trkpt>
      <trkpt lat="41.94699" lon="20.06952">
        <ele>1011.9299926758</ele>
        <time>2023-10-01T06:17:47.000Z</time>
      </trkpt>
      <trkpt lat="41.94695" lon="20.06945">
        <ele>1010.9600219727</ele>
        <time>2023-10-01T06:17:46.000Z</time>
      </trkpt>
      <trkpt lat="41.94692" lon="20.0694">
        <ele>1010.4799804688</ele>
        <time>2023-10-01T06:17:45.000Z</time>
      </trkpt>
      <trkpt lat="41.9468" lon="20.0693">
        <ele>1009.5200195312</ele>
        <time>2023-10-01T06:17:44.000Z</time>
      </trkpt>
      <trkpt lat="41.94675" lon="20.06927">
        <ele>1009.0399780273</ele>
        <time>2023-10-01T06:17:43.000Z</time>
      </trkpt>
      <trkpt lat="41.94663" lon="20.06919">
        <ele>1008.5599975586</ele>
        <time>2023-10-01T06:17:42.000Z</time>
      </trkpt>
      <trkpt lat="41.94655" lon="20.06913">
        <ele>1008.0800170898</ele>
        <time>2023-10-01T06:17:41.000Z</time>
      </trkpt>
      <trkpt lat="41.94647" lon="20.06904">
        <ele>1007.5999755859</ele>
        <time>2023-10-01T06:17:40.000Z</time>
      </trkpt>
      <trkpt lat="41.94642" lon="20.06894">
        <ele>1006.6400146484</ele>
        <time>2023-10-01T06:17:39.000Z</time>
      </trkpt>
      <trkpt lat="41.94642" lon="20.06892">
        <ele>1006.6400146484</ele>
        <time>2023-10-01T06:17:38.000Z</time>
      </trkpt>
      <trkpt lat="41.94636" lon="20.06874">
        <ele>1005.6799926758</ele>
        <time>2023-10-01T06:17:37.000Z</time>
      </trkpt>
      <trkpt lat="41.94631" lon="20.06865">
        <ele>1004.7199707031</ele>
        <time>2023-10-01T06:17:36.000Z</time>
      </trkpt>
      <trkpt lat="41.94625" lon="20.06857">
        <ele>1004.2299804688</ele>
        <time>2023-10-01T06:17:35.000Z</time>
      </trkpt>
      <trkpt lat="41.94619" lon="20.0685">
        <ele>1003.75</ele>
        <time>2023-10-01T06:17:34.000Z</time>
      </trkpt>
      <trkpt lat="41.94612" lon="20.06844">
        <ele>1003.2700195312</ele>
        <time>2023-10-01T06:17:33.000Z</time>
      </trkpt>
      <trkpt lat="41.94608" lon="20.06841">
        <ele>1002.7899780273</ele>
        <time>2023-10-01T06:17:32.000Z</time>
      </trkpt>
      <trkpt lat="41.946" lon="20.06836">
        <ele>1002.3099975586</ele>
        <time>2023-10-01T06:17:31.000Z</time>
      </trkpt>
      <trkpt lat="41.94592" lon="20.0683">
        <ele>1001.3499755859</ele>
        <time>2023-10-01T06:17:30.000Z</time>
      </trkpt>
      <trkpt lat="41.94588" lon="20.06828">
        <ele>1001.3499755859</ele>
        <time>2023-10-01T06:17:29.000Z</time>
      </trkpt>
      <trkpt lat="41.94584" lon="20.06827">
        <ele>1000.3900146484</ele>
        <time>2023-10-01T06:17:28.000Z</time>
      </trkpt>
      <trkpt lat="41.9458" lon="20.06826">
        <ele>999.90997314453</ele>
        <time>2023-10-01T06:17:27.000Z</time>
      </trkpt>
      <trkpt lat="41.94574" lon="20.06825">
        <ele>999.42999267578</ele>
        <time>2023-10-01T06:17:26.000Z</time>
      </trkpt>
      <trkpt lat="41.9457" lon="20.06823">
        <ele>998.95001220703</ele>
        <time>2023-10-01T06:17:25.000Z</time>
      </trkpt>
      <trkpt lat="41.94565" lon="20.0682">
        <ele>998.95001220703</ele>
        <time>2023-10-01T06:17:24.000Z</time>
      </trkpt>
      <trkpt lat="41.9456" lon="20.06817">
        <ele>998.46997070312</ele>
        <time>2023-10-01T06:17:23.000Z</time>
      </trkpt>
      <trkpt lat="41.94556" lon="20.06813">
        <ele>997.98999023438</ele>
        <time>2023-10-01T06:17:22.000Z</time>
      </trkpt>
      <trkpt lat="41.94552" lon="20.0681">
        <ele>997.51000976562</ele>
        <time>2023-10-01T06:17:21.000Z</time>
      </trkpt>
      <trkpt lat="41.94546" lon="20.06808">
        <ele>996.53997802734</ele>
        <time>2023-10-01T06:17:20.000Z</time>
      </trkpt>
      <trkpt lat="41.94542" lon="20.06808">
        <ele>996.05999755859</ele>
        <time>2023-10-01T06:17:19.000Z</time>
      </trkpt>
      <trkpt lat="41.94537" lon="20.0681">
        <ele>995.58001708984</ele>
        <time>2023-10-01T06:17:18.000Z</time>
      </trkpt>
      <trkpt lat="41.94533" lon="20.06813">
        <ele>994.14001464844</ele>
        <time>2023-10-01T06:17:17.000Z</time>
      </trkpt>
      <trkpt lat="41.94528" lon="20.06818">
        <ele>993.65997314453</ele>
        <time>2023-10-01T06:17:16.000Z</time>
      </trkpt>
      <trkpt lat="41.94524" lon="20.06822">
        <ele>993.17999267578</ele>
        <time>2023-10-01T06:17:15.000Z</time>
      </trkpt>
      <trkpt lat="41.94519" lon="20.06824">
        <ele>993.17999267578</ele>
        <time>2023-10-01T06:17:14.000Z</time>
      </trkpt>
      <trkpt lat="41.94513" lon="20.06823">
        <ele>992.21997070312</ele>
        <time>2023-10-01T06:17:13.000Z</time>
      </trkpt>
      <trkpt lat="41.94508" lon="20.0682">
        <ele>991.73999023438</ele>
        <time>2023-10-01T06:17:12.000Z</time>
      </trkpt>
      <trkpt lat="41.94504" lon="20.06816">
        <ele>991.26000976562</ele>
        <time>2023-10-01T06:17:11.000Z</time>
      </trkpt>
      <trkpt lat="41.945" lon="20.06809">
        <ele>990.78002929688</ele>
        <time>2023-10-01T06:17:10.000Z</time>
      </trkpt>
      <trkpt lat="41.94495" lon="20.06801">
        <ele>989.80999755859</ele>
        <time>2023-10-01T06:17:09.000Z</time>
      </trkpt>
      <trkpt lat="41.94494" lon="20.068">
        <ele>989.80999755859</ele>
        <time>2023-10-01T06:17:08.000Z</time>
      </trkpt>
      <trkpt lat="41.94484" lon="20.0679">
        <ele>988.36999511719</ele>
        <time>2023-10-01T06:17:07.000Z</time>
      </trkpt>
      <trkpt lat="41.94478" lon="20.06782">
        <ele>987.89001464844</ele>
        <time>2023-10-01T06:17:06.000Z</time>
      </trkpt>
      <trkpt lat="41.94475" lon="20.06771">
        <ele>986.92999267578</ele>
        <time>2023-10-01T06:17:05.000Z</time>
      </trkpt>
      <trkpt lat="41.94473" lon="20.06764">
        <ele>986.92999267578</ele>
        <time>2023-10-01T06:17:04.000Z</time>
      </trkpt>
      <trkpt lat="41.9447" lon="20.06753">
        <ele>985.96997070312</ele>
        <time>2023-10-01T06:17:03.000Z</time>
      </trkpt>
      <trkpt lat="41.94468" lon="20.06746">
        <ele>985.48999023438</ele>
        <time>2023-10-01T06:17:02.000Z</time>
      </trkpt>
      <trkpt lat="41.94461" lon="20.06732">
        <ele>984.04998779297</ele>
        <time>2023-10-01T06:17:01.000Z</time>
      </trkpt>
      <trkpt lat="41.94455" lon="20.06723">
        <ele>983.09002685547</ele>
        <time>2023-10-01T06:17:00.000Z</time>
      </trkpt>
      <trkpt lat="41.94451" lon="20.06717">
        <ele>982.11999511719</ele>
        <time>2023-10-01T06:16:59.000Z</time>
      </trkpt>
      <trkpt lat="41.94445" lon="20.06711">
        <ele>981.64001464844</ele>
        <time>2023-10-01T06:16:58.000Z</time>
      </trkpt>
      <trkpt lat="41.94439" lon="20.06708">
        <ele>981.15997314453</ele>
        <time>2023-10-01T06:16:57.000Z</time>
      </trkpt>
      <trkpt lat="41.94432" lon="20.06707">
        <ele>981.15997314453</ele>
        <time>2023-10-01T06:16:56.000Z</time>
      </trkpt>
      <trkpt lat="41.94423" lon="20.0671">
        <ele>980.67999267578</ele>
        <time>2023-10-01T06:16:55.000Z</time>
      </trkpt>
      <trkpt lat="41.94417" lon="20.0671">
        <ele>980.20001220703</ele>
        <time>2023-10-01T06:16:54.000Z</time>
      </trkpt>
      <trkpt lat="41.94412" lon="20.06706">
        <ele>979.71997070312</ele>
        <time>2023-10-01T06:16:53.000Z</time>
      </trkpt>
      <trkpt lat="41.94409" lon="20.06699">
        <ele>979.71997070312</ele>
        <time>2023-10-01T06:16:52.000Z</time>
      </trkpt>
      <trkpt lat="41.94407" lon="20.06689">
        <ele>979.23999023438</ele>
        <time>2023-10-01T06:16:51.000Z</time>
      </trkpt>
      <trkpt lat="41.94406" lon="20.06681">
        <ele>978.76000976562</ele>
        <time>2023-10-01T06:16:50.000Z</time>
      </trkpt>
      <trkpt lat="41.94405" lon="20.06672">
        <ele>978.28002929688</ele>
        <time>2023-10-01T06:16:49.000Z</time>
      </trkpt>
      <trkpt lat="41.94403" lon="20.06663">
        <ele>977.79998779297</ele>
        <time>2023-10-01T06:16:48.000Z</time>
      </trkpt>
      <trkpt lat="41.94401" lon="20.06656">
        <ele>977.79998779297</ele>
        <time>2023-10-01T06:16:47.000Z</time>
      </trkpt>
      <trkpt lat="41.94398" lon="20.0665">
        <ele>977.79998779297</ele>
        <time>2023-10-01T06:16:46.000Z</time>
      </trkpt>
      <trkpt lat="41.94393" lon="20.06639">
        <ele>977.32000732422</ele>
        <time>2023-10-01T06:16:45.000Z</time>
      </trkpt>
      <trkpt lat="41.94387" lon="20.06625">
        <ele>976.35998535156</ele>
        <time>2023-10-01T06:16:44.000Z</time>
      </trkpt>
      <trkpt lat="41.94384" lon="20.06619">
        <ele>975.88000488281</ele>
        <time>2023-10-01T06:16:43.000Z</time>
      </trkpt>
      <trkpt lat="41.94378" lon="20.06603">
        <ele>974.42999267578</ele>
        <time>2023-10-01T06:16:42.000Z</time>
      </trkpt>
      <trkpt lat="41.94376" lon="20.06593">
        <ele>973.46997070312</ele>
        <time>2023-10-01T06:16:41.000Z</time>
      </trkpt>
      <trkpt lat="41.94375" lon="20.06591">
        <ele>973.46997070312</ele>
        <time>2023-10-01T06:16:40.000Z</time>
      </trkpt>
      <trkpt lat="41.94371" lon="20.06561">
        <ele>971.54998779297</ele>
        <time>2023-10-01T06:16:38.000Z</time>
      </trkpt>
      <trkpt lat="41.9437" lon="20.06549">
        <ele>970.59002685547</ele>
        <time>2023-10-01T06:16:37.000Z</time>
      </trkpt>
      <trkpt lat="41.94371" lon="20.06538">
        <ele>970.10998535156</ele>
        <time>2023-10-01T06:16:36.000Z</time>
      </trkpt>
      <trkpt lat="41.94371" lon="20.06528">
        <ele>970.10998535156</ele>
        <time>2023-10-01T06:16:35.000Z</time>
      </trkpt>
      <trkpt lat="41.94371" lon="20.06522">
        <ele>969.63000488281</ele>
        <time>2023-10-01T06:16:34.000Z</time>
      </trkpt>
      <trkpt lat="41.9437" lon="20.06509">
        <ele>968.66998291016</ele>
        <time>2023-10-01T06:16:33.000Z</time>
      </trkpt>
      <trkpt lat="41.9437" lon="20.06501">
        <ele>967.70001220703</ele>
        <time>2023-10-01T06:16:32.000Z</time>
      </trkpt>
      <trkpt lat="41.94368" lon="20.06493">
        <ele>967.21997070312</ele>
        <time>2023-10-01T06:16:31.000Z</time>
      </trkpt>
      <trkpt lat="41.94366" lon="20.06486">
        <ele>966.26000976562</ele>
        <time>2023-10-01T06:16:30.000Z</time>
      </trkpt>
      <trkpt lat="41.94364" lon="20.0648">
        <ele>965.78002929688</ele>
        <time>2023-10-01T06:16:29.000Z</time>
      </trkpt>
      <trkpt lat="41.94361" lon="20.06474">
        <ele>965.29998779297</ele>
        <time>2023-10-01T06:16:28.000Z</time>
      </trkpt>
      <trkpt lat="41.94358" lon="20.06469">
        <ele>964.34002685547</ele>
        <time>2023-10-01T06:16:27.000Z</time>
      </trkpt>
      <trkpt lat="41.94355" lon="20.06466">
        <ele>964.34002685547</ele>
        <time>2023-10-01T06:16:26.000Z</time>
      </trkpt>
      <trkpt lat="41.9435" lon="20.06464">
        <ele>964.34002685547</ele>
        <time>2023-10-01T06:16:25.000Z</time>
      </trkpt>
      <trkpt lat="41.94343" lon="20.06461">
        <ele>963.38000488281</ele>
        <time>2023-10-01T06:16:24.000Z</time>
      </trkpt>
      <trkpt lat="41.94339" lon="20.06459">
        <ele>962.41998291016</ele>
        <time>2023-10-01T06:16:23.000Z</time>
      </trkpt>
      <trkpt lat="41.94335" lon="20.06456">
        <ele>962.41998291016</ele>
        <time>2023-10-01T06:16:22.000Z</time>
      </trkpt>
      <trkpt lat="41.9433" lon="20.06451">
        <ele>961.94000244141</ele>
        <time>2023-10-01T06:16:21.000Z</time>
      </trkpt>
      <trkpt lat="41.94321" lon="20.06445">
        <ele>961.46002197266</ele>
        <time>2023-10-01T06:16:20.000Z</time>
      </trkpt>
      <trkpt lat="41.94315" lon="20.06443">
        <ele>960.97998046875</ele>
        <time>2023-10-01T06:16:19.000Z</time>
      </trkpt>
      <trkpt lat="41.94308" lon="20.06443">
        <ele>960.01000976562</ele>
        <time>2023-10-01T06:16:18.000Z</time>
      </trkpt>
      <trkpt lat="41.94302" lon="20.06444">
        <ele>959.53002929688</ele>
        <time>2023-10-01T06:16:17.000Z</time>
      </trkpt>
      <trkpt lat="41.94293" lon="20.06449">
        <ele>958.57000732422</ele>
        <time>2023-10-01T06:16:16.000Z</time>
      </trkpt>
      <trkpt lat="41.94285" lon="20.06452">
        <ele>957.13000488281</ele>
        <time>2023-10-01T06:16:15.000Z</time>
      </trkpt>
      <trkpt lat="41.94279" lon="20.06453">
        <ele>956.16998291016</ele>
        <time>2023-10-01T06:16:14.000Z</time>
      </trkpt>
      <trkpt lat="41.94278" lon="20.06453">
        <ele>955.69000244141</ele>
        <time>2023-10-01T06:16:13.000Z</time>
      </trkpt>
      <trkpt lat="41.94271" lon="20.06448">
        <ele>954.25</ele>
        <time>2023-10-01T06:16:12.000Z</time>
      </trkpt>
      <trkpt lat="41.94269" lon="20.06442">
        <ele>953.28002929688</ele>
        <time>2023-10-01T06:16:11.000Z</time>
      </trkpt>
      <trkpt lat="41.94267" lon="20.06432">
        <ele>952.79998779297</ele>
        <time>2023-10-01T06:16:10.000Z</time>
      </trkpt>
      <trkpt lat="41.94267" lon="20.06425">
        <ele>952.79998779297</ele>
        <time>2023-10-01T06:16:09.000Z</time>
      </trkpt>
      <trkpt lat="41.94267" lon="20.06413">
        <ele>952.32000732422</ele>
        <time>2023-10-01T06:16:08.000Z</time>
      </trkpt>
      <trkpt lat="41.94269" lon="20.06405">
        <ele>952.32000732422</ele>
        <time>2023-10-01T06:16:07.000Z</time>
      </trkpt>
      <trkpt lat="41.94271" lon="20.06398">
        <ele>951.84002685547</ele>
        <time>2023-10-01T06:16:06.000Z</time>
      </trkpt>
      <trkpt lat="41.94274" lon="20.06392">
        <ele>951.35998535156</ele>
        <time>2023-10-01T06:16:05.000Z</time>
      </trkpt>
      <trkpt lat="41.94281" lon="20.06389">
        <ele>951.35998535156</ele>
        <time>2023-10-01T06:16:04.000Z</time>
      </trkpt>
      <trkpt lat="41.94284" lon="20.06388">
        <ele>951.35998535156</ele>
        <time>2023-10-01T06:16:03.000Z</time>
      </trkpt>
      <trkpt lat="41.94295" lon="20.06386">
        <ele>951.35998535156</ele>
        <time>2023-10-01T06:16:02.000Z</time>
      </trkpt>
      <trkpt lat="41.94307" lon="20.06385">
        <ele>951.35998535156</ele>
        <time>2023-10-01T06:16:01.000Z</time>
      </trkpt>
      <trkpt lat="41.94317" lon="20.06383">
        <ele>951.84002685547</ele>
        <time>2023-10-01T06:16:00.000Z</time>
      </trkpt>
      <trkpt lat="41.94324" lon="20.0638">
        <ele>951.84002685547</ele>
        <time>2023-10-01T06:15:59.000Z</time>
      </trkpt>
      <trkpt lat="41.94332" lon="20.06376">
        <ele>952.79998779297</ele>
        <time>2023-10-01T06:15:58.000Z</time>
      </trkpt>
      <trkpt lat="41.94335" lon="20.06373">
        <ele>952.79998779297</ele>
        <time>2023-10-01T06:15:57.000Z</time>
      </trkpt>
      <trkpt lat="41.94346" lon="20.06363">
        <ele>953.77001953125</ele>
        <time>2023-10-01T06:15:56.000Z</time>
      </trkpt>
      <trkpt lat="41.94353" lon="20.06356">
        <ele>954.72998046875</ele>
        <time>2023-10-01T06:15:55.000Z</time>
      </trkpt>
      <trkpt lat="41.94359" lon="20.06348">
        <ele>955.21002197266</ele>
        <time>2023-10-01T06:15:54.000Z</time>
      </trkpt>
      <trkpt lat="41.94363" lon="20.0634">
        <ele>955.69000244141</ele>
        <time>2023-10-01T06:15:53.000Z</time>
      </trkpt>
      <trkpt lat="41.94367" lon="20.0633">
        <ele>956.16998291016</ele>
        <time>2023-10-01T06:15:52.000Z</time>
      </trkpt>
      <trkpt lat="41.94369" lon="20.0632">
        <ele>956.65002441406</ele>
        <time>2023-10-01T06:15:51.000Z</time>
      </trkpt>
      <trkpt lat="41.94373" lon="20.06301">
        <ele>957.60998535156</ele>
        <time>2023-10-01T06:15:50.000Z</time>
      </trkpt>
      <trkpt lat="41.94375" lon="20.0629">
        <ele>958.09002685547</ele>
        <time>2023-10-01T06:15:49.000Z</time>
      </trkpt>
      <trkpt lat="41.94377" lon="20.06281">
        <ele>959.04998779297</ele>
        <time>2023-10-01T06:15:48.000Z</time>
      </trkpt>
      <trkpt lat="41.94377" lon="20.0627">
        <ele>960.01000976562</ele>
        <time>2023-10-01T06:15:47.000Z</time>
      </trkpt>
      <trkpt lat="41.94377" lon="20.06259">
        <ele>960.97998046875</ele>
        <time>2023-10-01T06:15:46.000Z</time>
      </trkpt>
      <trkpt lat="41.94377" lon="20.06254">
        <ele>960.97998046875</ele>
        <time>2023-10-01T06:15:45.000Z</time>
      </trkpt>
      <trkpt lat="41.94372" lon="20.0621">
        <ele>963.38000488281</ele>
        <time>2023-10-01T06:15:42.000Z</time>
      </trkpt>
      <trkpt lat="41.94372" lon="20.062">
        <ele>963.85998535156</ele>
        <time>2023-10-01T06:15:41.000Z</time>
      </trkpt>
      <trkpt lat="41.94372" lon="20.06193">
        <ele>964.34002685547</ele>
        <time>2023-10-01T06:15:40.000Z</time>
      </trkpt>
      <trkpt lat="41.9437" lon="20.06184">
        <ele>964.82000732422</ele>
        <time>2023-10-01T06:15:38.000Z</time>
      </trkpt>
      <trkpt lat="41.94366" lon="20.0618">
        <ele>964.34002685547</ele>
        <time>2023-10-01T06:15:37.000Z</time>
      </trkpt>
      <trkpt lat="41.94362" lon="20.06179">
        <ele>963.85998535156</ele>
        <time>2023-10-01T06:15:36.000Z</time>
      </trkpt>
      <trkpt lat="41.94357" lon="20.06178">
        <ele>962.90002441406</ele>
        <time>2023-10-01T06:15:35.000Z</time>
      </trkpt>
      <trkpt lat="41.94354" lon="20.06179">
        <ele>962.90002441406</ele>
        <time>2023-10-01T06:15:34.000Z</time>
      </trkpt>
      <trkpt lat="41.94341" lon="20.06185">
        <ele>961.94000244141</ele>
        <time>2023-10-01T06:15:33.000Z</time>
      </trkpt>
      <trkpt lat="41.94333" lon="20.06187">
        <ele>961.46002197266</ele>
        <time>2023-10-01T06:15:32.000Z</time>
      </trkpt>
      <trkpt lat="41.94323" lon="20.06188">
        <ele>960.97998046875</ele>
        <time>2023-10-01T06:15:31.000Z</time>
      </trkpt>
      <trkpt lat="41.94299" lon="20.0619">
        <ele>959.53002929688</ele>
        <time>2023-10-01T06:15:28.000Z</time>
      </trkpt>
      <trkpt lat="41.94292" lon="20.06191">
        <ele>959.04998779297</ele>
        <time>2023-10-01T06:15:27.000Z</time>
      </trkpt>
      <trkpt lat="41.94285" lon="20.06192">
        <ele>958.57000732422</ele>
        <time>2023-10-01T06:15:26.000Z</time>
      </trkpt>
      <trkpt lat="41.94277" lon="20.06193">
        <ele>958.09002685547</ele>
        <time>2023-10-01T06:15:25.000Z</time>
      </trkpt>
      <trkpt lat="41.94267" lon="20.06195">
        <ele>957.13000488281</ele>
        <time>2023-10-01T06:15:24.000Z</time>
      </trkpt>
      <trkpt lat="41.9426" lon="20.06195">
        <ele>956.65002441406</ele>
        <time>2023-10-01T06:15:23.000Z</time>
      </trkpt>
      <trkpt lat="41.94256" lon="20.06194">
        <ele>956.16998291016</ele>
        <time>2023-10-01T06:15:22.000Z</time>
      </trkpt>
      <trkpt lat="41.94245" lon="20.06184">
        <ele>956.65002441406</ele>
        <time>2023-10-01T06:15:18.000Z</time>
      </trkpt>
      <trkpt lat="41.94244" lon="20.06178">
        <ele>957.13000488281</ele>
        <time>2023-10-01T06:15:17.000Z</time>
      </trkpt>
      <trkpt lat="41.94245" lon="20.06169">
        <ele>956.65002441406</ele>
        <time>2023-10-01T06:15:16.000Z</time>
      </trkpt>
      <trkpt lat="41.94247" lon="20.06162">
        <ele>956.65002441406</ele>
        <time>2023-10-01T06:15:15.000Z</time>
      </trkpt>
      <trkpt lat="41.94248" lon="20.06155">
        <ele>957.13000488281</ele>
        <time>2023-10-01T06:15:14.000Z</time>
      </trkpt>
      <trkpt lat="41.94248" lon="20.06137">
        <ele>957.13000488281</ele>
        <time>2023-10-01T06:15:10.000Z</time>
      </trkpt>
      <trkpt lat="41.94249" lon="20.06131">
        <ele>957.13000488281</ele>
        <time>2023-10-01T06:15:09.000Z</time>
      </trkpt>
      <trkpt lat="41.9425" lon="20.06123">
        <ele>957.13000488281</ele>
        <time>2023-10-01T06:15:08.000Z</time>
      </trkpt>
      <trkpt lat="41.94251" lon="20.06114">
        <ele>956.65002441406</ele>
        <time>2023-10-01T06:15:07.000Z</time>
      </trkpt>
      <trkpt lat="41.94251" lon="20.06105">
        <ele>956.65002441406</ele>
        <time>2023-10-01T06:15:06.000Z</time>
      </trkpt>
      <trkpt lat="41.94249" lon="20.06098">
        <ele>956.65002441406</ele>
        <time>2023-10-01T06:15:05.000Z</time>
      </trkpt>
      <trkpt lat="41.94243" lon="20.06076">
        <ele>955.21002197266</ele>
        <time>2023-10-01T06:15:03.000Z</time>
      </trkpt>
      <trkpt lat="41.94238" lon="20.06065">
        <ele>954.25</ele>
        <time>2023-10-01T06:15:02.000Z</time>
      </trkpt>
      <trkpt lat="41.94236" lon="20.06058">
        <ele>954.25</ele>
        <time>2023-10-01T06:15:01.000Z</time>
      </trkpt>
      <trkpt lat="41.94231" lon="20.06049">
        <ele>954.25</ele>
        <time>2023-10-01T06:15:00.000Z</time>
      </trkpt>
      <trkpt lat="41.94221" lon="20.06026">
        <ele>954.25</ele>
        <time>2023-10-01T06:14:59.000Z</time>
      </trkpt>
      <trkpt lat="41.94217" lon="20.06016">
        <ele>954.72998046875</ele>
        <time>2023-10-01T06:14:58.000Z</time>
      </trkpt>
      <trkpt lat="41.94212" lon="20.06007">
        <ele>955.21002197266</ele>
        <time>2023-10-01T06:14:57.000Z</time>
      </trkpt>
      <trkpt lat="41.94207" lon="20.06">
        <ele>955.69000244141</ele>
        <time>2023-10-01T06:14:56.000Z</time>
      </trkpt>
      <trkpt lat="41.942" lon="20.05995">
        <ele>955.69000244141</ele>
        <time>2023-10-01T06:14:55.000Z</time>
      </trkpt>
      <trkpt lat="41.94193" lon="20.05992">
        <ele>956.16998291016</ele>
        <time>2023-10-01T06:14:54.000Z</time>
      </trkpt>
      <trkpt lat="41.94187" lon="20.05988">
        <ele>956.16998291016</ele>
        <time>2023-10-01T06:14:53.000Z</time>
      </trkpt>
      <trkpt lat="41.94181" lon="20.05982">
        <ele>955.69000244141</ele>
        <time>2023-10-01T06:14:52.000Z</time>
      </trkpt>
      <trkpt lat="41.94179" lon="20.05979">
        <ele>955.69000244141</ele>
        <time>2023-10-01T06:14:51.000Z</time>
      </trkpt>
      <trkpt lat="41.94171" lon="20.05969">
        <ele>955.21002197266</ele>
        <time>2023-10-01T06:14:50.000Z</time>
      </trkpt>
      <trkpt lat="41.94165" lon="20.05964">
        <ele>955.21002197266</ele>
        <time>2023-10-01T06:14:49.000Z</time>
      </trkpt>
      <trkpt lat="41.94158" lon="20.0596">
        <ele>954.25</ele>
        <time>2023-10-01T06:14:48.000Z</time>
      </trkpt>
      <trkpt lat="41.94153" lon="20.05959">
        <ele>953.77001953125</ele>
        <time>2023-10-01T06:14:47.000Z</time>
      </trkpt>
      <trkpt lat="41.94143" lon="20.05959">
        <ele>953.28002929688</ele>
        <time>2023-10-01T06:14:46.000Z</time>
      </trkpt>
      <trkpt lat="41.94136" lon="20.05958">
        <ele>953.28002929688</ele>
        <time>2023-10-01T06:14:45.000Z</time>
      </trkpt>
      <trkpt lat="41.9413" lon="20.05955">
        <ele>952.79998779297</ele>
        <time>2023-10-01T06:14:44.000Z</time>
      </trkpt>
      <trkpt lat="41.94124" lon="20.0595">
        <ele>951.84002685547</ele>
        <time>2023-10-01T06:14:43.000Z</time>
      </trkpt>
      <trkpt lat="41.94115" lon="20.05941">
        <ele>950.88000488281</ele>
        <time>2023-10-01T06:14:42.000Z</time>
      </trkpt>
      <trkpt lat="41.94111" lon="20.05936">
        <ele>949.91998291016</ele>
        <time>2023-10-01T06:14:41.000Z</time>
      </trkpt>
      <trkpt lat="41.94101" lon="20.05922">
        <ele>948.47998046875</ele>
        <time>2023-10-01T06:14:40.000Z</time>
      </trkpt>
      <trkpt lat="41.94095" lon="20.05915">
        <ele>947.52001953125</ele>
        <time>2023-10-01T06:14:39.000Z</time>
      </trkpt>
      <trkpt lat="41.9409" lon="20.0591">
        <ele>946.55999755859</ele>
        <time>2023-10-01T06:14:38.000Z</time>
      </trkpt>
      <trkpt lat="41.94086" lon="20.05907">
        <ele>946.07000732422</ele>
        <time>2023-10-01T06:14:37.000Z</time>
      </trkpt>
      <trkpt lat="41.94064" lon="20.05894">
        <ele>943.19000244141</ele>
        <time>2023-10-01T06:14:35.000Z</time>
      </trkpt>
      <trkpt lat="41.94044" lon="20.05885">
        <ele>940.78997802734</ele>
        <time>2023-10-01T06:14:33.000Z</time>
      </trkpt>
      <trkpt lat="41.9404" lon="20.05883">
        <ele>940.30999755859</ele>
        <time>2023-10-01T06:14:32.000Z</time>
      </trkpt>
      <trkpt lat="41.9402" lon="20.05873">
        <ele>937.41998291016</ele>
        <time>2023-10-01T06:14:30.000Z</time>
      </trkpt>
      <trkpt lat="41.94015" lon="20.05869">
        <ele>936.94000244141</ele>
        <time>2023-10-01T06:14:29.000Z</time>
      </trkpt>
      <trkpt lat="41.94005" lon="20.05864">
        <ele>935.5</ele>
        <time>2023-10-01T06:14:28.000Z</time>
      </trkpt>
      <trkpt lat="41.93998" lon="20.0586">
        <ele>934.53997802734</ele>
        <time>2023-10-01T06:14:27.000Z</time>
      </trkpt>
      <trkpt lat="41.93993" lon="20.05853">
        <ele>934.05999755859</ele>
        <time>2023-10-01T06:14:26.000Z</time>
      </trkpt>
      <trkpt lat="41.9399" lon="20.05846">
        <ele>933.09997558594</ele>
        <time>2023-10-01T06:14:25.000Z</time>
      </trkpt>
      <trkpt lat="41.93988" lon="20.05838">
        <ele>932.14001464844</ele>
        <time>2023-10-01T06:14:24.000Z</time>
      </trkpt>
      <trkpt lat="41.93986" lon="20.05833">
        <ele>931.65002441406</ele>
        <time>2023-10-01T06:14:23.000Z</time>
      </trkpt>
      <trkpt lat="41.93984" lon="20.05824">
        <ele>930.69000244141</ele>
        <time>2023-10-01T06:14:22.000Z</time>
      </trkpt>
      <trkpt lat="41.93983" lon="20.05816">
        <ele>929.72998046875</ele>
        <time>2023-10-01T06:14:21.000Z</time>
      </trkpt>
      <trkpt lat="41.93981" lon="20.0581">
        <ele>928.77001953125</ele>
        <time>2023-10-01T06:14:20.000Z</time>
      </trkpt>
      <trkpt lat="41.93979" lon="20.05801">
        <ele>927.80999755859</ele>
        <time>2023-10-01T06:14:19.000Z</time>
      </trkpt>
      <trkpt lat="41.93979" lon="20.0579">
        <ele>926.84997558594</ele>
        <time>2023-10-01T06:14:18.000Z</time>
      </trkpt>
      <trkpt lat="41.93981" lon="20.0578">
        <ele>926.84997558594</ele>
        <time>2023-10-01T06:14:17.000Z</time>
      </trkpt>
      <trkpt lat="41.93984" lon="20.05768">
        <ele>926.36999511719</ele>
        <time>2023-10-01T06:14:16.000Z</time>
      </trkpt>
      <trkpt lat="41.93989" lon="20.05753">
        <ele>925.89001464844</ele>
        <time>2023-10-01T06:14:15.000Z</time>
      </trkpt>
      <trkpt lat="41.93991" lon="20.05739">
        <ele>924.92999267578</ele>
        <time>2023-10-01T06:14:14.000Z</time>
      </trkpt>
      <trkpt lat="41.93992" lon="20.05726">
        <ele>924.45001220703</ele>
        <time>2023-10-01T06:14:13.000Z</time>
      </trkpt>
      <trkpt lat="41.93993" lon="20.05715">
        <ele>923.47998046875</ele>
        <time>2023-10-01T06:14:12.000Z</time>
      </trkpt>
      <trkpt lat="41.93992" lon="20.057">
        <ele>923</ele>
        <time>2023-10-01T06:14:11.000Z</time>
      </trkpt>
      <trkpt lat="41.9399" lon="20.05689">
        <ele>922.03997802734</ele>
        <time>2023-10-01T06:14:10.000Z</time>
      </trkpt>
      <trkpt lat="41.93986" lon="20.0568">
        <ele>921.55999755859</ele>
        <time>2023-10-01T06:14:09.000Z</time>
      </trkpt>
      <trkpt lat="41.93981" lon="20.05673">
        <ele>921.08001708984</ele>
        <time>2023-10-01T06:14:08.000Z</time>
      </trkpt>
      <trkpt lat="41.93975" lon="20.05669">
        <ele>919.64001464844</ele>
        <time>2023-10-01T06:14:07.000Z</time>
      </trkpt>
      <trkpt lat="41.93969" lon="20.05667">
        <ele>919.15997314453</ele>
        <time>2023-10-01T06:14:06.000Z</time>
      </trkpt>
      <trkpt lat="41.93965" lon="20.05667">
        <ele>918.67999267578</ele>
        <time>2023-10-01T06:14:05.000Z</time>
      </trkpt>
      <trkpt lat="41.93953" lon="20.0567">
        <ele>918.20001220703</ele>
        <time>2023-10-01T06:14:04.000Z</time>
      </trkpt>
      <trkpt lat="41.93944" lon="20.0567">
        <ele>918.20001220703</ele>
        <time>2023-10-01T06:14:03.000Z</time>
      </trkpt>
      <trkpt lat="41.93937" lon="20.0567">
        <ele>917.71997070312</ele>
        <time>2023-10-01T06:14:02.000Z</time>
      </trkpt>
      <trkpt lat="41.9393" lon="20.05667">
        <ele>917.71997070312</ele>
        <time>2023-10-01T06:14:01.000Z</time>
      </trkpt>
      <trkpt lat="41.93924" lon="20.05662">
        <ele>917.23999023438</ele>
        <time>2023-10-01T06:14:00.000Z</time>
      </trkpt>
      <trkpt lat="41.9392" lon="20.05654">
        <ele>916.75</ele>
        <time>2023-10-01T06:13:59.000Z</time>
      </trkpt>
      <trkpt lat="41.93918" lon="20.05643">
        <ele>916.27001953125</ele>
        <time>2023-10-01T06:13:58.000Z</time>
      </trkpt>
      <trkpt lat="41.93917" lon="20.05636">
        <ele>916.27001953125</ele>
        <time>2023-10-01T06:13:57.000Z</time>
      </trkpt>
      <trkpt lat="41.93916" lon="20.05614">
        <ele>915.78997802734</ele>
        <time>2023-10-01T06:13:56.000Z</time>
      </trkpt>
      <trkpt lat="41.93916" lon="20.05588">
        <ele>914.83001708984</ele>
        <time>2023-10-01T06:13:54.000Z</time>
      </trkpt>
      <trkpt lat="41.93915" lon="20.05577">
        <ele>914.34997558594</ele>
        <time>2023-10-01T06:13:53.000Z</time>
      </trkpt>
      <trkpt lat="41.93913" lon="20.05568">
        <ele>913.39001464844</ele>
        <time>2023-10-01T06:13:52.000Z</time>
      </trkpt>
      <trkpt lat="41.93908" lon="20.0556">
        <ele>912.42999267578</ele>
        <time>2023-10-01T06:13:51.000Z</time>
      </trkpt>
      <trkpt lat="41.93903" lon="20.05553">
        <ele>911.46997070312</ele>
        <time>2023-10-01T06:13:50.000Z</time>
      </trkpt>
      <trkpt lat="41.93895" lon="20.05545">
        <ele>910.03002929688</ele>
        <time>2023-10-01T06:13:49.000Z</time>
      </trkpt>
      <trkpt lat="41.93887" lon="20.05539">
        <ele>909.05999755859</ele>
        <time>2023-10-01T06:13:48.000Z</time>
      </trkpt>
      <trkpt lat="41.93881" lon="20.05534">
        <ele>908.09997558594</ele>
        <time>2023-10-01T06:13:47.000Z</time>
      </trkpt>
      <trkpt lat="41.93874" lon="20.0553">
        <ele>907.14001464844</ele>
        <time>2023-10-01T06:13:46.000Z</time>
      </trkpt>
      <trkpt lat="41.93868" lon="20.05525">
        <ele>906.17999267578</ele>
        <time>2023-10-01T06:13:45.000Z</time>
      </trkpt>
      <trkpt lat="41.93863" lon="20.05519">
        <ele>905.70001220703</ele>
        <time>2023-10-01T06:13:44.000Z</time>
      </trkpt>
      <trkpt lat="41.9386" lon="20.05515">
        <ele>905.21997070312</ele>
        <time>2023-10-01T06:13:43.000Z</time>
      </trkpt>
      <trkpt lat="41.93855" lon="20.05508">
        <ele>904.26000976562</ele>
        <time>2023-10-01T06:13:42.000Z</time>
      </trkpt>
      <trkpt lat="41.93852" lon="20.05506">
        <ele>904.26000976562</ele>
        <time>2023-10-01T06:13:41.000Z</time>
      </trkpt>
      <trkpt lat="41.93844" lon="20.05505">
        <ele>904.26000976562</ele>
        <time>2023-10-01T06:13:39.000Z</time>
      </trkpt>
      <trkpt lat="41.9384" lon="20.05508">
        <ele>903.78002929688</ele>
        <time>2023-10-01T06:13:38.000Z</time>
      </trkpt>
      <trkpt lat="41.93835" lon="20.05514">
        <ele>903.78002929688</ele>
        <time>2023-10-01T06:13:37.000Z</time>
      </trkpt>
      <trkpt lat="41.93824" lon="20.0553">
        <ele>902.82000732422</ele>
        <time>2023-10-01T06:13:35.000Z</time>
      </trkpt>
      <trkpt lat="41.93819" lon="20.05537">
        <ele>901.84997558594</ele>
        <time>2023-10-01T06:13:34.000Z</time>
      </trkpt>
      <trkpt lat="41.93816" lon="20.05545">
        <ele>900.89001464844</ele>
        <time>2023-10-01T06:13:33.000Z</time>
      </trkpt>
      <trkpt lat="41.93815" lon="20.05555">
        <ele>900.89001464844</ele>
        <time>2023-10-01T06:13:32.000Z</time>
      </trkpt>
      <trkpt lat="41.93816" lon="20.05565">
        <ele>900.40997314453</ele>
        <time>2023-10-01T06:13:31.000Z</time>
      </trkpt>
      <trkpt lat="41.93819" lon="20.05574">
        <ele>899.92999267578</ele>
        <time>2023-10-01T06:13:30.000Z</time>
      </trkpt>
      <trkpt lat="41.93822" lon="20.05583">
        <ele>899.45001220703</ele>
        <time>2023-10-01T06:13:29.000Z</time>
      </trkpt>
      <trkpt lat="41.93861" lon="20.05677">
        <ele>893.20001220703</ele>
        <time>2023-10-01T06:13:22.000Z</time>
      </trkpt>
      <trkpt lat="41.93865" lon="20.05688">
        <ele>892.23999023438</ele>
        <time>2023-10-01T06:13:21.000Z</time>
      </trkpt>
      <trkpt lat="41.93867" lon="20.05696">
        <ele>892.23999023438</ele>
        <time>2023-10-01T06:13:20.000Z</time>
      </trkpt>
      <trkpt lat="41.93869" lon="20.05713">
        <ele>891.76000976562</ele>
        <time>2023-10-01T06:13:19.000Z</time>
      </trkpt>
      <trkpt lat="41.9387" lon="20.05723">
        <ele>891.76000976562</ele>
        <time>2023-10-01T06:13:18.000Z</time>
      </trkpt>
      <trkpt lat="41.9387" lon="20.05733">
        <ele>891.76000976562</ele>
        <time>2023-10-01T06:13:17.000Z</time>
      </trkpt>
      <trkpt lat="41.93869" lon="20.05741">
        <ele>891.28002929688</ele>
        <time>2023-10-01T06:13:16.000Z</time>
      </trkpt>
      <trkpt lat="41.93867" lon="20.0575">
        <ele>890.79998779297</ele>
        <time>2023-10-01T06:13:15.000Z</time>
      </trkpt>
      <trkpt lat="41.93864" lon="20.05757">
        <ele>890.32000732422</ele>
        <time>2023-10-01T06:13:14.000Z</time>
      </trkpt>
      <trkpt lat="41.9386" lon="20.05764">
        <ele>889.84002685547</ele>
        <time>2023-10-01T06:13:13.000Z</time>
      </trkpt>
      <trkpt lat="41.93855" lon="20.05771">
        <ele>889.84002685547</ele>
        <time>2023-10-01T06:13:12.000Z</time>
      </trkpt>
      <trkpt lat="41.93849" lon="20.05776">
        <ele>888.88000488281</ele>
        <time>2023-10-01T06:13:11.000Z</time>
      </trkpt>
      <trkpt lat="41.93844" lon="20.05779">
        <ele>888.40002441406</ele>
        <time>2023-10-01T06:13:10.000Z</time>
      </trkpt>
      <trkpt lat="41.93836" lon="20.05781">
        <ele>888.40002441406</ele>
        <time>2023-10-01T06:13:09.000Z</time>
      </trkpt>
      <trkpt lat="41.93831" lon="20.05782">
        <ele>888.40002441406</ele>
        <time>2023-10-01T06:13:08.000Z</time>
      </trkpt>
      <trkpt lat="41.93819" lon="20.05783">
        <ele>889.35998535156</ele>
        <time>2023-10-01T06:13:07.000Z</time>
      </trkpt>
      <trkpt lat="41.93814" lon="20.05784">
        <ele>889.35998535156</ele>
        <time>2023-10-01T06:13:06.000Z</time>
      </trkpt>
      <trkpt lat="41.9381" lon="20.05786">
        <ele>889.84002685547</ele>
        <time>2023-10-01T06:13:05.000Z</time>
      </trkpt>
      <trkpt lat="41.93806" lon="20.05791">
        <ele>890.32000732422</ele>
        <time>2023-10-01T06:13:04.000Z</time>
      </trkpt>
      <trkpt lat="41.93803" lon="20.05798">
        <ele>890.32000732422</ele>
        <time>2023-10-01T06:13:03.000Z</time>
      </trkpt>
      <trkpt lat="41.93801" lon="20.05807">
        <ele>890.79998779297</ele>
        <time>2023-10-01T06:13:02.000Z</time>
      </trkpt>
      <trkpt lat="41.938" lon="20.05817">
        <ele>891.28002929688</ele>
        <time>2023-10-01T06:13:01.000Z</time>
      </trkpt>
      <trkpt lat="41.938" lon="20.05825">
        <ele>891.28002929688</ele>
        <time>2023-10-01T06:13:00.000Z</time>
      </trkpt>
      <trkpt lat="41.93802" lon="20.05837">
        <ele>890.79998779297</ele>
        <time>2023-10-01T06:12:59.000Z</time>
      </trkpt>
      <trkpt lat="41.93803" lon="20.05846">
        <ele>891.28002929688</ele>
        <time>2023-10-01T06:12:58.000Z</time>
      </trkpt>
      <trkpt lat="41.93804" lon="20.05853">
        <ele>891.28002929688</ele>
        <time>2023-10-01T06:12:57.000Z</time>
      </trkpt>
      <trkpt lat="41.93802" lon="20.0586">
        <ele>891.76000976562</ele>
        <time>2023-10-01T06:12:56.000Z</time>
      </trkpt>
      <trkpt lat="41.93799" lon="20.05867">
        <ele>891.76000976562</ele>
        <time>2023-10-01T06:12:55.000Z</time>
      </trkpt>
      <trkpt lat="41.93795" lon="20.05872">
        <ele>892.23999023438</ele>
        <time>2023-10-01T06:12:54.000Z</time>
      </trkpt>
      <trkpt lat="41.93785" lon="20.05878">
        <ele>892.71997070312</ele>
        <time>2023-10-01T06:12:53.000Z</time>
      </trkpt>
      <trkpt lat="41.9378" lon="20.0588">
        <ele>893.20001220703</ele>
        <time>2023-10-01T06:12:52.000Z</time>
      </trkpt>
      <trkpt lat="41.93773" lon="20.05883">
        <ele>893.67999267578</ele>
        <time>2023-10-01T06:12:51.000Z</time>
      </trkpt>
      <trkpt lat="41.93758" lon="20.05889">
        <ele>894.64001464844</ele>
        <time>2023-10-01T06:12:50.000Z</time>
      </trkpt>
      <trkpt lat="41.9375" lon="20.05893">
        <ele>894.64001464844</ele>
        <time>2023-10-01T06:12:49.000Z</time>
      </trkpt>
      <trkpt lat="41.93739" lon="20.05901">
        <ele>894.64001464844</ele>
        <time>2023-10-01T06:12:48.000Z</time>
      </trkpt>
      <trkpt lat="41.93729" lon="20.05907">
        <ele>894.64001464844</ele>
        <time>2023-10-01T06:12:47.000Z</time>
      </trkpt>
      <trkpt lat="41.93722" lon="20.05911">
        <ele>895.11999511719</ele>
        <time>2023-10-01T06:12:46.000Z</time>
      </trkpt>
      <trkpt lat="41.93698" lon="20.0592">
        <ele>895.11999511719</ele>
        <time>2023-10-01T06:12:44.000Z</time>
      </trkpt>
      <trkpt lat="41.93692" lon="20.05923">
        <ele>895.11999511719</ele>
        <time>2023-10-01T06:12:43.000Z</time>
      </trkpt>
      <trkpt lat="41.93686" lon="20.05927">
        <ele>895.11999511719</ele>
        <time>2023-10-01T06:12:42.000Z</time>
      </trkpt>
      <trkpt lat="41.93683" lon="20.05932">
        <ele>894.64001464844</ele>
        <time>2023-10-01T06:12:41.000Z</time>
      </trkpt>
      <trkpt lat="41.93678" lon="20.05941">
        <ele>894.64001464844</ele>
        <time>2023-10-01T06:12:40.000Z</time>
      </trkpt>
      <trkpt lat="41.93675" lon="20.05948">
        <ele>894.64001464844</ele>
        <time>2023-10-01T06:12:39.000Z</time>
      </trkpt>
      <trkpt lat="41.93669" lon="20.05958">
        <ele>894.64001464844</ele>
        <time>2023-10-01T06:12:38.000Z</time>
      </trkpt>
      <trkpt lat="41.93665" lon="20.05968">
        <ele>894.15997314453</ele>
        <time>2023-10-01T06:12:37.000Z</time>
      </trkpt>
      <trkpt lat="41.93664" lon="20.05972">
        <ele>894.15997314453</ele>
        <time>2023-10-01T06:12:36.000Z</time>
      </trkpt>
      <trkpt lat="41.93657" lon="20.05995">
        <ele>893.67999267578</ele>
        <time>2023-10-01T06:12:34.000Z</time>
      </trkpt>
      <trkpt lat="41.93649" lon="20.06017">
        <ele>893.67999267578</ele>
        <time>2023-10-01T06:12:33.000Z</time>
      </trkpt>
      <trkpt lat="41.93648" lon="20.06023">
        <ele>893.67999267578</ele>
        <time>2023-10-01T06:12:32.000Z</time>
      </trkpt>
      <trkpt lat="41.93639" lon="20.0606">
        <ele>893.20001220703</ele>
        <time>2023-10-01T06:12:30.000Z</time>
      </trkpt>
      <trkpt lat="41.93635" lon="20.06072">
        <ele>892.71997070312</ele>
        <time>2023-10-01T06:12:29.000Z</time>
      </trkpt>
      <trkpt lat="41.93629" lon="20.06083">
        <ele>891.76000976562</ele>
        <time>2023-10-01T06:12:28.000Z</time>
      </trkpt>
      <trkpt lat="41.93622" lon="20.06093">
        <ele>891.28002929688</ele>
        <time>2023-10-01T06:12:27.000Z</time>
      </trkpt>
      <trkpt lat="41.93615" lon="20.06101">
        <ele>890.79998779297</ele>
        <time>2023-10-01T06:12:26.000Z</time>
      </trkpt>
      <trkpt lat="41.93587" lon="20.06128">
        <ele>888.88000488281</ele>
        <time>2023-10-01T06:12:22.000Z</time>
      </trkpt>
      <trkpt lat="41.93582" lon="20.06132">
        <ele>888.88000488281</ele>
        <time>2023-10-01T06:12:21.000Z</time>
      </trkpt>
      <trkpt lat="41.93578" lon="20.06136">
        <ele>888.40002441406</ele>
        <time>2023-10-01T06:12:20.000Z</time>
      </trkpt>
      <trkpt lat="41.93573" lon="20.06138">
        <ele>887.90997314453</ele>
        <time>2023-10-01T06:12:19.000Z</time>
      </trkpt>
      <trkpt lat="41.93568" lon="20.06136">
        <ele>887.90997314453</ele>
        <time>2023-10-01T06:12:18.000Z</time>
      </trkpt>
      <trkpt lat="41.93562" lon="20.06132">
        <ele>887.90997314453</ele>
        <time>2023-10-01T06:12:17.000Z</time>
      </trkpt>
      <trkpt lat="41.93557" lon="20.06126">
        <ele>887.90997314453</ele>
        <time>2023-10-01T06:12:16.000Z</time>
      </trkpt>
      <trkpt lat="41.93552" lon="20.06117">
        <ele>888.40002441406</ele>
        <time>2023-10-01T06:12:15.000Z</time>
      </trkpt>
      <trkpt lat="41.93549" lon="20.06108">
        <ele>888.88000488281</ele>
        <time>2023-10-01T06:12:14.000Z</time>
      </trkpt>
      <trkpt lat="41.93541" lon="20.06082">
        <ele>889.84002685547</ele>
        <time>2023-10-01T06:12:12.000Z</time>
      </trkpt>
      <trkpt lat="41.93537" lon="20.06071">
        <ele>890.79998779297</ele>
        <time>2023-10-01T06:12:11.000Z</time>
      </trkpt>
      <trkpt lat="41.93532" lon="20.0606">
        <ele>891.28002929688</ele>
        <time>2023-10-01T06:12:10.000Z</time>
      </trkpt>
      <trkpt lat="41.93527" lon="20.06052">
        <ele>892.23999023438</ele>
        <time>2023-10-01T06:12:09.000Z</time>
      </trkpt>
      <trkpt lat="41.9352" lon="20.06045">
        <ele>892.71997070312</ele>
        <time>2023-10-01T06:12:08.000Z</time>
      </trkpt>
      <trkpt lat="41.93515" lon="20.06041">
        <ele>893.20001220703</ele>
        <time>2023-10-01T06:12:07.000Z</time>
      </trkpt>
      <trkpt lat="41.93506" lon="20.06033">
        <ele>894.15997314453</ele>
        <time>2023-10-01T06:12:06.000Z</time>
      </trkpt>
      <trkpt lat="41.935" lon="20.06027">
        <ele>895.11999511719</ele>
        <time>2023-10-01T06:12:05.000Z</time>
      </trkpt>
      <trkpt lat="41.93495" lon="20.06017">
        <ele>895.60998535156</ele>
        <time>2023-10-01T06:12:04.000Z</time>
      </trkpt>
      <trkpt lat="41.93492" lon="20.0601">
        <ele>896.09002685547</ele>
        <time>2023-10-01T06:12:03.000Z</time>
      </trkpt>
      <trkpt lat="41.93483" lon="20.05987">
        <ele>897.53002929688</ele>
        <time>2023-10-01T06:12:01.000Z</time>
      </trkpt>
      <trkpt lat="41.93478" lon="20.05976">
        <ele>898.01000976562</ele>
        <time>2023-10-01T06:12:00.000Z</time>
      </trkpt>
      <trkpt lat="41.93473" lon="20.05967">
        <ele>898.48999023438</ele>
        <time>2023-10-01T06:11:59.000Z</time>
      </trkpt>
      <trkpt lat="41.93467" lon="20.05959">
        <ele>898.96997070312</ele>
        <time>2023-10-01T06:11:58.000Z</time>
      </trkpt>
      <trkpt lat="41.93461" lon="20.05952">
        <ele>899.45001220703</ele>
        <time>2023-10-01T06:11:57.000Z</time>
      </trkpt>
      <trkpt lat="41.93454" lon="20.05949">
        <ele>899.92999267578</ele>
        <time>2023-10-01T06:11:56.000Z</time>
      </trkpt>
      <trkpt lat="41.93448" lon="20.05948">
        <ele>900.40997314453</ele>
        <time>2023-10-01T06:11:55.000Z</time>
      </trkpt>
      <trkpt lat="41.93442" lon="20.05947">
        <ele>901.36999511719</ele>
        <time>2023-10-01T06:11:54.000Z</time>
      </trkpt>
      <trkpt lat="41.93427" lon="20.05946">
        <ele>902.33001708984</ele>
        <time>2023-10-01T06:11:53.000Z</time>
      </trkpt>
      <trkpt lat="41.93423" lon="20.05945">
        <ele>902.33001708984</ele>
        <time>2023-10-01T06:11:52.000Z</time>
      </trkpt>
      <trkpt lat="41.93413" lon="20.05942">
        <ele>903.78002929688</ele>
        <time>2023-10-01T06:11:51.000Z</time>
      </trkpt>
      <trkpt lat="41.934" lon="20.05938">
        <ele>904.73999023438</ele>
        <time>2023-10-01T06:11:50.000Z</time>
      </trkpt>
      <trkpt lat="41.93392" lon="20.05935">
        <ele>905.70001220703</ele>
        <time>2023-10-01T06:11:49.000Z</time>
      </trkpt>
      <trkpt lat="41.93382" lon="20.05933">
        <ele>907.14001464844</ele>
        <time>2023-10-01T06:11:48.000Z</time>
      </trkpt>
      <trkpt lat="41.93375" lon="20.05935">
        <ele>907.61999511719</ele>
        <time>2023-10-01T06:11:47.000Z</time>
      </trkpt>
      <trkpt lat="41.93367" lon="20.05939">
        <ele>908.09997558594</ele>
        <time>2023-10-01T06:11:46.000Z</time>
      </trkpt>
      <trkpt lat="41.9336" lon="20.05942">
        <ele>909.05999755859</ele>
        <time>2023-10-01T06:11:45.000Z</time>
      </trkpt>
      <trkpt lat="41.93356" lon="20.05945">
        <ele>909.53997802734</ele>
        <time>2023-10-01T06:11:44.000Z</time>
      </trkpt>
      <trkpt lat="41.93345" lon="20.05956">
        <ele>910.98999023438</ele>
        <time>2023-10-01T06:11:43.000Z</time>
      </trkpt>
      <trkpt lat="41.93341" lon="20.0596">
        <ele>910.98999023438</ele>
        <time>2023-10-01T06:11:42.000Z</time>
      </trkpt>
      <trkpt lat="41.93333" lon="20.05966">
        <ele>911.46997070312</ele>
        <time>2023-10-01T06:11:41.000Z</time>
      </trkpt>
      <trkpt lat="41.93328" lon="20.05968">
        <ele>911.95001220703</ele>
        <time>2023-10-01T06:11:40.000Z</time>
      </trkpt>
      <trkpt lat="41.93321" lon="20.05966">
        <ele>912.42999267578</ele>
        <time>2023-10-01T06:11:38.000Z</time>
      </trkpt>
      <trkpt lat="41.93318" lon="20.05961">
        <ele>912.42999267578</ele>
        <time>2023-10-01T06:11:37.000Z</time>
      </trkpt>
      <trkpt lat="41.93315" lon="20.05955">
        <ele>912.42999267578</ele>
        <time>2023-10-01T06:11:36.000Z</time>
      </trkpt>
      <trkpt lat="41.93313" lon="20.05947">
        <ele>912.90997314453</ele>
        <time>2023-10-01T06:11:35.000Z</time>
      </trkpt>
      <trkpt lat="41.93309" lon="20.05937">
        <ele>913.86999511719</ele>
        <time>2023-10-01T06:11:34.000Z</time>
      </trkpt>
      <trkpt lat="41.93305" lon="20.05927">
        <ele>914.34997558594</ele>
        <time>2023-10-01T06:11:33.000Z</time>
      </trkpt>
      <trkpt lat="41.933" lon="20.05917">
        <ele>915.30999755859</ele>
        <time>2023-10-01T06:11:32.000Z</time>
      </trkpt>
      <trkpt lat="41.93294" lon="20.05907">
        <ele>916.27001953125</ele>
        <time>2023-10-01T06:11:31.000Z</time>
      </trkpt>
      <trkpt lat="41.93283" lon="20.05892">
        <ele>917.71997070312</ele>
        <time>2023-10-01T06:11:29.000Z</time>
      </trkpt>
      <trkpt lat="41.93276" lon="20.05882">
        <ele>919.15997314453</ele>
        <time>2023-10-01T06:11:28.000Z</time>
      </trkpt>
      <trkpt lat="41.93271" lon="20.05876">
        <ele>920.11999511719</ele>
        <time>2023-10-01T06:11:27.000Z</time>
      </trkpt>
      <trkpt lat="41.93267" lon="20.05873">
        <ele>920.59997558594</ele>
        <time>2023-10-01T06:11:26.000Z</time>
      </trkpt>
      <trkpt lat="41.93262" lon="20.05872">
        <ele>921.08001708984</ele>
        <time>2023-10-01T06:11:25.000Z</time>
      </trkpt>
      <trkpt lat="41.93257" lon="20.05872">
        <ele>921.55999755859</ele>
        <time>2023-10-01T06:11:24.000Z</time>
      </trkpt>
      <trkpt lat="41.93252" lon="20.05874">
        <ele>923</ele>
        <time>2023-10-01T06:11:23.000Z</time>
      </trkpt>
      <trkpt lat="41.93246" lon="20.05876">
        <ele>923.96002197266</ele>
        <time>2023-10-01T06:11:22.000Z</time>
      </trkpt>
      <trkpt lat="41.9324" lon="20.05877">
        <ele>924.92999267578</ele>
        <time>2023-10-01T06:11:21.000Z</time>
      </trkpt>
      <trkpt lat="41.93233" lon="20.05876">
        <ele>925.89001464844</ele>
        <time>2023-10-01T06:11:20.000Z</time>
      </trkpt>
      <trkpt lat="41.93227" lon="20.05871">
        <ele>926.36999511719</ele>
        <time>2023-10-01T06:11:19.000Z</time>
      </trkpt>
      <trkpt lat="41.93221" lon="20.05865">
        <ele>926.84997558594</ele>
        <time>2023-10-01T06:11:18.000Z</time>
      </trkpt>
      <trkpt lat="41.93215" lon="20.05859">
        <ele>927.33001708984</ele>
        <time>2023-10-01T06:11:17.000Z</time>
      </trkpt>
      <trkpt lat="41.93201" lon="20.05846">
        <ele>929.72998046875</ele>
        <time>2023-10-01T06:11:15.000Z</time>
      </trkpt>
      <trkpt lat="41.93189" lon="20.05837">
        <ele>931.16998291016</ele>
        <time>2023-10-01T06:11:14.000Z</time>
      </trkpt>
      <trkpt lat="41.93183" lon="20.0583">
        <ele>931.65002441406</ele>
        <time>2023-10-01T06:11:13.000Z</time>
      </trkpt>
      <trkpt lat="41.93178" lon="20.05824">
        <ele>932.61999511719</ele>
        <time>2023-10-01T06:11:12.000Z</time>
      </trkpt>
      <trkpt lat="41.93173" lon="20.05815">
        <ele>933.58001708984</ele>
        <time>2023-10-01T06:11:11.000Z</time>
      </trkpt>
      <trkpt lat="41.93171" lon="20.05806">
        <ele>935.02001953125</ele>
        <time>2023-10-01T06:11:10.000Z</time>
      </trkpt>
      <trkpt lat="41.93169" lon="20.05797">
        <ele>935.5</ele>
        <time>2023-10-01T06:11:09.000Z</time>
      </trkpt>
      <trkpt lat="41.93168" lon="20.05789">
        <ele>936.46002197266</ele>
        <time>2023-10-01T06:11:08.000Z</time>
      </trkpt>
      <trkpt lat="41.93168" lon="20.05777">
        <ele>936.94000244141</ele>
        <time>2023-10-01T06:11:07.000Z</time>
      </trkpt>
      <trkpt lat="41.93169" lon="20.05761">
        <ele>938.38000488281</ele>
        <time>2023-10-01T06:11:06.000Z</time>
      </trkpt>
      <trkpt lat="41.9317" lon="20.05749">
        <ele>938.85998535156</ele>
        <time>2023-10-01T06:11:05.000Z</time>
      </trkpt>
      <trkpt lat="41.93171" lon="20.05739">
        <ele>939.34997558594</ele>
        <time>2023-10-01T06:11:04.000Z</time>
      </trkpt>
      <trkpt lat="41.93173" lon="20.05728">
        <ele>940.30999755859</ele>
        <time>2023-10-01T06:11:03.000Z</time>
      </trkpt>
      <trkpt lat="41.93175" lon="20.05718">
        <ele>941.27001953125</ele>
        <time>2023-10-01T06:11:02.000Z</time>
      </trkpt>
      <trkpt lat="41.93175" lon="20.05711">
        <ele>942.22998046875</ele>
        <time>2023-10-01T06:11:01.000Z</time>
      </trkpt>
      <trkpt lat="41.93175" lon="20.05704">
        <ele>942.71002197266</ele>
        <time>2023-10-01T06:11:00.000Z</time>
      </trkpt>
      <trkpt lat="41.93173" lon="20.05699">
        <ele>943.19000244141</ele>
        <time>2023-10-01T06:10:59.000Z</time>
      </trkpt>
      <trkpt lat="41.9317" lon="20.05693">
        <ele>943.66998291016</ele>
        <time>2023-10-01T06:10:58.000Z</time>
      </trkpt>
      <trkpt lat="41.93167" lon="20.05689">
        <ele>944.15002441406</ele>
        <time>2023-10-01T06:10:57.000Z</time>
      </trkpt>
      <trkpt lat="41.9316" lon="20.05683">
        <ele>945.10998535156</ele>
        <time>2023-10-01T06:10:56.000Z</time>
      </trkpt>
      <trkpt lat="41.93156" lon="20.05679">
        <ele>945.59002685547</ele>
        <time>2023-10-01T06:10:55.000Z</time>
      </trkpt>
      <trkpt lat="41.93154" lon="20.05677">
        <ele>946.07000732422</ele>
        <time>2023-10-01T06:10:54.000Z</time>
      </trkpt>
      <trkpt lat="41.93147" lon="20.05666">
        <ele>947.03997802734</ele>
        <time>2023-10-01T06:10:53.000Z</time>
      </trkpt>
      <trkpt lat="41.93143" lon="20.05659">
        <ele>948</ele>
        <time>2023-10-01T06:10:52.000Z</time>
      </trkpt>
      <trkpt lat="41.93142" lon="20.05653">
        <ele>948</ele>
        <time>2023-10-01T06:10:51.000Z</time>
      </trkpt>
      <trkpt lat="41.9314" lon="20.05645">
        <ele>948.47998046875</ele>
        <time>2023-10-01T06:10:50.000Z</time>
      </trkpt>
      <trkpt lat="41.93138" lon="20.05639">
        <ele>948.96002197266</ele>
        <time>2023-10-01T06:10:49.000Z</time>
      </trkpt>
      <trkpt lat="41.93137" lon="20.05638">
        <ele>948.96002197266</ele>
        <time>2023-10-01T06:10:48.000Z</time>
      </trkpt>
      <trkpt lat="41.93133" lon="20.05629">
        <ele>947.52001953125</ele>
        <time>2023-10-01T06:10:34.000Z</time>
      </trkpt>
      <trkpt lat="41.93124" lon="20.05623">
        <ele>947.03997802734</ele>
        <time>2023-10-01T06:10:27.000Z</time>
      </trkpt>
      <trkpt lat="41.9312" lon="20.05622">
        <ele>947.03997802734</ele>
        <time>2023-10-01T06:10:26.000Z</time>
      </trkpt>
      <trkpt lat="41.93116" lon="20.05623">
        <ele>947.03997802734</ele>
        <time>2023-10-01T06:10:25.000Z</time>
      </trkpt>
      <trkpt lat="41.93112" lon="20.05626">
        <ele>947.03997802734</ele>
        <time>2023-10-01T06:10:24.000Z</time>
      </trkpt>
      <trkpt lat="41.93108" lon="20.0563">
        <ele>947.03997802734</ele>
        <time>2023-10-01T06:10:23.000Z</time>
      </trkpt>
      <trkpt lat="41.93104" lon="20.05636">
        <ele>946.55999755859</ele>
        <time>2023-10-01T06:10:22.000Z</time>
      </trkpt>
      <trkpt lat="41.93098" lon="20.0565">
        <ele>944.15002441406</ele>
        <time>2023-10-01T06:10:21.000Z</time>
      </trkpt>
      <trkpt lat="41.93093" lon="20.05658">
        <ele>944.15002441406</ele>
        <time>2023-10-01T06:10:20.000Z</time>
      </trkpt>
      <trkpt lat="41.9309" lon="20.05661">
        <ele>943.66998291016</ele>
        <time>2023-10-01T06:10:19.000Z</time>
      </trkpt>
      <trkpt lat="41.93077" lon="20.05674">
        <ele>942.71002197266</ele>
        <time>2023-10-01T06:10:18.000Z</time>
      </trkpt>
      <trkpt lat="41.93072" lon="20.0568">
        <ele>942.22998046875</ele>
        <time>2023-10-01T06:10:17.000Z</time>
      </trkpt>
      <trkpt lat="41.93066" lon="20.05689">
        <ele>941.27001953125</ele>
        <time>2023-10-01T06:10:16.000Z</time>
      </trkpt>
      <trkpt lat="41.93062" lon="20.05697">
        <ele>940.30999755859</ele>
        <time>2023-10-01T06:10:15.000Z</time>
      </trkpt>
      <trkpt lat="41.93059" lon="20.05709">
        <ele>939.83001708984</ele>
        <time>2023-10-01T06:10:14.000Z</time>
      </trkpt>
      <trkpt lat="41.93052" lon="20.05744">
        <ele>937.41998291016</ele>
        <time>2023-10-01T06:10:11.000Z</time>
      </trkpt>
      <trkpt lat="41.93047" lon="20.05766">
        <ele>935.97998046875</ele>
        <time>2023-10-01T06:10:10.000Z</time>
      </trkpt>
      <trkpt lat="41.93045" lon="20.05778">
        <ele>935.5</ele>
        <time>2023-10-01T06:10:09.000Z</time>
      </trkpt>
      <trkpt lat="41.93044" lon="20.05793">
        <ele>934.53997802734</ele>
        <time>2023-10-01T06:10:08.000Z</time>
      </trkpt>
      <trkpt lat="41.93044" lon="20.05803">
        <ele>934.05999755859</ele>
        <time>2023-10-01T06:10:07.000Z</time>
      </trkpt>
      <trkpt lat="41.93045" lon="20.05814">
        <ele>932.61999511719</ele>
        <time>2023-10-01T06:10:06.000Z</time>
      </trkpt>
      <trkpt lat="41.93044" lon="20.05823">
        <ele>932.14001464844</ele>
        <time>2023-10-01T06:10:05.000Z</time>
      </trkpt>
      <trkpt lat="41.93041" lon="20.0583">
        <ele>931.65002441406</ele>
        <time>2023-10-01T06:10:04.000Z</time>
      </trkpt>
      <trkpt lat="41.93036" lon="20.05836">
        <ele>931.16998291016</ele>
        <time>2023-10-01T06:10:03.000Z</time>
      </trkpt>
      <trkpt lat="41.93029" lon="20.0584">
        <ele>930.69000244141</ele>
        <time>2023-10-01T06:10:02.000Z</time>
      </trkpt>
      <trkpt lat="41.93023" lon="20.05842">
        <ele>930.21002197266</ele>
        <time>2023-10-01T06:10:01.000Z</time>
      </trkpt>
      <trkpt lat="41.93016" lon="20.05843">
        <ele>929.72998046875</ele>
        <time>2023-10-01T06:10:00.000Z</time>
      </trkpt>
      <trkpt lat="41.93011" lon="20.05842">
        <ele>929.25</ele>
        <time>2023-10-01T06:09:59.000Z</time>
      </trkpt>
      <trkpt lat="41.93006" lon="20.05838">
        <ele>929.25</ele>
        <time>2023-10-01T06:09:58.000Z</time>
      </trkpt>
      <trkpt lat="41.93003" lon="20.05833">
        <ele>928.77001953125</ele>
        <time>2023-10-01T06:09:57.000Z</time>
      </trkpt>
      <trkpt lat="41.92998" lon="20.05824">
        <ele>928.28997802734</ele>
        <time>2023-10-01T06:09:56.000Z</time>
      </trkpt>
      <trkpt lat="41.92993" lon="20.05817">
        <ele>927.80999755859</ele>
        <time>2023-10-01T06:09:55.000Z</time>
      </trkpt>
      <trkpt lat="41.92986" lon="20.05812">
        <ele>927.80999755859</ele>
        <time>2023-10-01T06:09:54.000Z</time>
      </trkpt>
      <trkpt lat="41.92979" lon="20.05807">
        <ele>927.80999755859</ele>
        <time>2023-10-01T06:09:53.000Z</time>
      </trkpt>
      <trkpt lat="41.92971" lon="20.05805">
        <ele>927.80999755859</ele>
        <time>2023-10-01T06:09:52.000Z</time>
      </trkpt>
      <trkpt lat="41.92964" lon="20.05806">
        <ele>927.33001708984</ele>
        <time>2023-10-01T06:09:51.000Z</time>
      </trkpt>
      <trkpt lat="41.92958" lon="20.05808">
        <ele>926.84997558594</ele>
        <time>2023-10-01T06:09:50.000Z</time>
      </trkpt>
      <trkpt lat="41.92953" lon="20.05811">
        <ele>926.36999511719</ele>
        <time>2023-10-01T06:09:49.000Z</time>
      </trkpt>
      <trkpt lat="41.92949" lon="20.05816">
        <ele>926.84997558594</ele>
        <time>2023-10-01T06:09:48.000Z</time>
      </trkpt>
      <trkpt lat="41.92945" lon="20.05824">
        <ele>926.36999511719</ele>
        <time>2023-10-01T06:09:47.000Z</time>
      </trkpt>
      <trkpt lat="41.92942" lon="20.05835">
        <ele>925.89001464844</ele>
        <time>2023-10-01T06:09:46.000Z</time>
      </trkpt>
      <trkpt lat="41.9294" lon="20.05856">
        <ele>924.45001220703</ele>
        <time>2023-10-01T06:09:44.000Z</time>
      </trkpt>
      <trkpt lat="41.92938" lon="20.05865">
        <ele>923.96002197266</ele>
        <time>2023-10-01T06:09:43.000Z</time>
      </trkpt>
      <trkpt lat="41.92934" lon="20.05872">
        <ele>923.96002197266</ele>
        <time>2023-10-01T06:09:42.000Z</time>
      </trkpt>
      <trkpt lat="41.9293" lon="20.05878">
        <ele>923</ele>
        <time>2023-10-01T06:09:41.000Z</time>
      </trkpt>
      <trkpt lat="41.92926" lon="20.05881">
        <ele>922.52001953125</ele>
        <time>2023-10-01T06:09:40.000Z</time>
      </trkpt>
      <trkpt lat="41.92916" lon="20.05887">
        <ele>922.03997802734</ele>
        <time>2023-10-01T06:09:39.000Z</time>
      </trkpt>
      <trkpt lat="41.9291" lon="20.05892">
        <ele>921.55999755859</ele>
        <time>2023-10-01T06:09:38.000Z</time>
      </trkpt>
      <trkpt lat="41.92906" lon="20.05899">
        <ele>921.08001708984</ele>
        <time>2023-10-01T06:09:37.000Z</time>
      </trkpt>
      <trkpt lat="41.92904" lon="20.05907">
        <ele>920.11999511719</ele>
        <time>2023-10-01T06:09:36.000Z</time>
      </trkpt>
      <trkpt lat="41.92902" lon="20.05913">
        <ele>919.64001464844</ele>
        <time>2023-10-01T06:09:35.000Z</time>
      </trkpt>
      <trkpt lat="41.92899" lon="20.05919">
        <ele>919.15997314453</ele>
        <time>2023-10-01T06:09:34.000Z</time>
      </trkpt>
      <trkpt lat="41.92896" lon="20.05923">
        <ele>918.67999267578</ele>
        <time>2023-10-01T06:09:33.000Z</time>
      </trkpt>
      <trkpt lat="41.92891" lon="20.05926">
        <ele>918.20001220703</ele>
        <time>2023-10-01T06:09:32.000Z</time>
      </trkpt>
      <trkpt lat="41.92887" lon="20.05927">
        <ele>918.20001220703</ele>
        <time>2023-10-01T06:09:31.000Z</time>
      </trkpt>
      <trkpt lat="41.92879" lon="20.05927">
        <ele>917.23999023438</ele>
        <time>2023-10-01T06:09:30.000Z</time>
      </trkpt>
      <trkpt lat="41.92866" lon="20.05926">
        <ele>915.78997802734</ele>
        <time>2023-10-01T06:09:29.000Z</time>
      </trkpt>
      <trkpt lat="41.92856" lon="20.05923">
        <ele>914.34997558594</ele>
        <time>2023-10-01T06:09:28.000Z</time>
      </trkpt>
      <trkpt lat="41.92845" lon="20.05917">
        <ele>913.86999511719</ele>
        <time>2023-10-01T06:09:27.000Z</time>
      </trkpt>
      <trkpt lat="41.9284" lon="20.05914">
        <ele>913.39001464844</ele>
        <time>2023-10-01T06:09:26.000Z</time>
      </trkpt>
      <trkpt lat="41.92828" lon="20.05904">
        <ele>912.90997314453</ele>
        <time>2023-10-01T06:09:25.000Z</time>
      </trkpt>
      <trkpt lat="41.9282" lon="20.05898">
        <ele>912.42999267578</ele>
        <time>2023-10-01T06:09:24.000Z</time>
      </trkpt>
      <trkpt lat="41.92812" lon="20.05894">
        <ele>911.95001220703</ele>
        <time>2023-10-01T06:09:23.000Z</time>
      </trkpt>
      <trkpt lat="41.92804" lon="20.05892">
        <ele>911.46997070312</ele>
        <time>2023-10-01T06:09:22.000Z</time>
      </trkpt>
      <trkpt lat="41.92796" lon="20.0589">
        <ele>910.51000976562</ele>
        <time>2023-10-01T06:09:21.000Z</time>
      </trkpt>
      <trkpt lat="41.92782" lon="20.05886">
        <ele>910.03002929688</ele>
        <time>2023-10-01T06:09:20.000Z</time>
      </trkpt>
      <trkpt lat="41.92756" lon="20.05878">
        <ele>909.05999755859</ele>
        <time>2023-10-01T06:09:18.000Z</time>
      </trkpt>
      <trkpt lat="41.92747" lon="20.05878">
        <ele>908.58001708984</ele>
        <time>2023-10-01T06:09:17.000Z</time>
      </trkpt>
      <trkpt lat="41.92737" lon="20.05879">
        <ele>908.09997558594</ele>
        <time>2023-10-01T06:09:16.000Z</time>
      </trkpt>
      <trkpt lat="41.92721" lon="20.05882">
        <ele>907.61999511719</ele>
        <time>2023-10-01T06:09:14.000Z</time>
      </trkpt>
      <trkpt lat="41.92709" lon="20.05882">
        <ele>906.65997314453</ele>
        <time>2023-10-01T06:09:13.000Z</time>
      </trkpt>
      <trkpt lat="41.92699" lon="20.05877">
        <ele>905.70001220703</ele>
        <time>2023-10-01T06:09:12.000Z</time>
      </trkpt>
      <trkpt lat="41.92697" lon="20.05876">
        <ele>905.21997070312</ele>
        <time>2023-10-01T06:09:11.000Z</time>
      </trkpt>
      <trkpt lat="41.92682" lon="20.05868">
        <ele>904.73999023438</ele>
        <time>2023-10-01T06:09:10.000Z</time>
      </trkpt>
      <trkpt lat="41.92672" lon="20.05862">
        <ele>904.26000976562</ele>
        <time>2023-10-01T06:09:09.000Z</time>
      </trkpt>
      <trkpt lat="41.92666" lon="20.05859">
        <ele>903.78002929688</ele>
        <time>2023-10-01T06:09:08.000Z</time>
      </trkpt>
      <trkpt lat="41.92657" lon="20.05856">
        <ele>903.29998779297</ele>
        <time>2023-10-01T06:09:07.000Z</time>
      </trkpt>
      <trkpt lat="41.92651" lon="20.05852">
        <ele>902.33001708984</ele>
        <time>2023-10-01T06:09:06.000Z</time>
      </trkpt>
      <trkpt lat="41.92647" lon="20.05846">
        <ele>901.84997558594</ele>
        <time>2023-10-01T06:09:05.000Z</time>
      </trkpt>
      <trkpt lat="41.92646" lon="20.05839">
        <ele>900.89001464844</ele>
        <time>2023-10-01T06:09:04.000Z</time>
      </trkpt>
      <trkpt lat="41.92647" lon="20.05834">
        <ele>900.89001464844</ele>
        <time>2023-10-01T06:09:03.000Z</time>
      </trkpt>
      <trkpt lat="41.92648" lon="20.05833">
        <ele>900.89001464844</ele>
        <time>2023-10-01T06:09:02.000Z</time>
      </trkpt>
      <trkpt lat="41.92654" lon="20.05828">
        <ele>900.89001464844</ele>
        <time>2023-10-01T06:09:01.000Z</time>
      </trkpt>
      <trkpt lat="41.92659" lon="20.0583">
        <ele>900.89001464844</ele>
        <time>2023-10-01T06:09:00.000Z</time>
      </trkpt>
      <trkpt lat="41.92666" lon="20.05835">
        <ele>899.92999267578</ele>
        <time>2023-10-01T06:08:59.000Z</time>
      </trkpt>
      <trkpt lat="41.92673" lon="20.0584">
        <ele>899.92999267578</ele>
        <time>2023-10-01T06:08:58.000Z</time>
      </trkpt>
      <trkpt lat="41.92703" lon="20.05856">
        <ele>898.96997070312</ele>
        <time>2023-10-01T06:08:55.000Z</time>
      </trkpt>
      <trkpt lat="41.9271" lon="20.05858">
        <ele>898.48999023438</ele>
        <time>2023-10-01T06:08:54.000Z</time>
      </trkpt>
      <trkpt lat="41.92717" lon="20.0586">
        <ele>898.01000976562</ele>
        <time>2023-10-01T06:08:53.000Z</time>
      </trkpt>
      <trkpt lat="41.92722" lon="20.05858">
        <ele>897.53002929688</ele>
        <time>2023-10-01T06:08:52.000Z</time>
      </trkpt>
      <trkpt lat="41.92732" lon="20.05853">
        <ele>896.57000732422</ele>
        <time>2023-10-01T06:08:51.000Z</time>
      </trkpt>
      <trkpt lat="41.92742" lon="20.05849">
        <ele>896.09002685547</ele>
        <time>2023-10-01T06:08:50.000Z</time>
      </trkpt>
      <trkpt lat="41.92752" lon="20.05846">
        <ele>896.09002685547</ele>
        <time>2023-10-01T06:08:49.000Z</time>
      </trkpt>
      <trkpt lat="41.92763" lon="20.05844">
        <ele>895.11999511719</ele>
        <time>2023-10-01T06:08:48.000Z</time>
      </trkpt>
      <trkpt lat="41.92773" lon="20.05842">
        <ele>894.64001464844</ele>
        <time>2023-10-01T06:08:47.000Z</time>
      </trkpt>
      <trkpt lat="41.92779" lon="20.05842">
        <ele>894.64001464844</ele>
        <time>2023-10-01T06:08:46.000Z</time>
      </trkpt>
      <trkpt lat="41.92787" lon="20.05842">
        <ele>894.64001464844</ele>
        <time>2023-10-01T06:08:45.000Z</time>
      </trkpt>
      <trkpt lat="41.9282" lon="20.05844">
        <ele>893.20001220703</ele>
        <time>2023-10-01T06:08:42.000Z</time>
      </trkpt>
      <trkpt lat="41.92834" lon="20.05844">
        <ele>892.23999023438</ele>
        <time>2023-10-01T06:08:41.000Z</time>
      </trkpt>
      <trkpt lat="41.9284" lon="20.05843">
        <ele>891.76000976562</ele>
        <time>2023-10-01T06:08:40.000Z</time>
      </trkpt>
      <trkpt lat="41.92843" lon="20.0584">
        <ele>890.79998779297</ele>
        <time>2023-10-01T06:08:39.000Z</time>
      </trkpt>
      <trkpt lat="41.92846" lon="20.05835">
        <ele>890.32000732422</ele>
        <time>2023-10-01T06:08:38.000Z</time>
      </trkpt>
      <trkpt lat="41.92846" lon="20.05828">
        <ele>889.35998535156</ele>
        <time>2023-10-01T06:08:37.000Z</time>
      </trkpt>
      <trkpt lat="41.92846" lon="20.05826">
        <ele>888.88000488281</ele>
        <time>2023-10-01T06:08:36.000Z</time>
      </trkpt>
      <trkpt lat="41.92838" lon="20.05819">
        <ele>887.42999267578</ele>
        <time>2023-10-01T06:08:34.000Z</time>
      </trkpt>
      <trkpt lat="41.92833" lon="20.0582">
        <ele>886.95001220703</ele>
        <time>2023-10-01T06:08:33.000Z</time>
      </trkpt>
      <trkpt lat="41.92826" lon="20.05823">
        <ele>885.51000976562</ele>
        <time>2023-10-01T06:08:32.000Z</time>
      </trkpt>
      <trkpt lat="41.92821" lon="20.05824">
        <ele>885.03002929688</ele>
        <time>2023-10-01T06:08:31.000Z</time>
      </trkpt>
      <trkpt lat="41.92814" lon="20.05823">
        <ele>884.07000732422</ele>
        <time>2023-10-01T06:08:30.000Z</time>
      </trkpt>
      <trkpt lat="41.92808" lon="20.0582">
        <ele>883.10998535156</ele>
        <time>2023-10-01T06:08:29.000Z</time>
      </trkpt>
      <trkpt lat="41.92802" lon="20.05816">
        <ele>882.15002441406</ele>
        <time>2023-10-01T06:08:28.000Z</time>
      </trkpt>
      <trkpt lat="41.92795" lon="20.05811">
        <ele>881.66998291016</ele>
        <time>2023-10-01T06:08:27.000Z</time>
      </trkpt>
      <trkpt lat="41.92784" lon="20.05805">
        <ele>880.21997070312</ele>
        <time>2023-10-01T06:08:26.000Z</time>
      </trkpt>
      <trkpt lat="41.92776" lon="20.05802">
        <ele>879.26000976562</ele>
        <time>2023-10-01T06:08:25.000Z</time>
      </trkpt>
      <trkpt lat="41.92744" lon="20.05798">
        <ele>876.85998535156</ele>
        <time>2023-10-01T06:08:22.000Z</time>
      </trkpt>
      <trkpt lat="41.92736" lon="20.05798">
        <ele>876.38000488281</ele>
        <time>2023-10-01T06:08:21.000Z</time>
      </trkpt>
      <trkpt lat="41.92727" lon="20.05797">
        <ele>875.41998291016</ele>
        <time>2023-10-01T06:08:20.000Z</time>
      </trkpt>
      <trkpt lat="41.92719" lon="20.05794">
        <ele>874.46002197266</ele>
        <time>2023-10-01T06:08:19.000Z</time>
      </trkpt>
      <trkpt lat="41.92712" lon="20.05789">
        <ele>873.97998046875</ele>
        <time>2023-10-01T06:08:18.000Z</time>
      </trkpt>
      <trkpt lat="41.92707" lon="20.05782">
        <ele>873.01000976562</ele>
        <time>2023-10-01T06:08:17.000Z</time>
      </trkpt>
      <trkpt lat="41.92703" lon="20.05773">
        <ele>872.04998779297</ele>
        <time>2023-10-01T06:08:16.000Z</time>
      </trkpt>
      <trkpt lat="41.927" lon="20.0576">
        <ele>871.57000732422</ele>
        <time>2023-10-01T06:08:15.000Z</time>
      </trkpt>
      <trkpt lat="41.92698" lon="20.0575">
        <ele>870.60998535156</ele>
        <time>2023-10-01T06:08:14.000Z</time>
      </trkpt>
      <trkpt lat="41.92698" lon="20.05747">
        <ele>870.13000488281</ele>
        <time>2023-10-01T06:08:13.000Z</time>
      </trkpt>
      <trkpt lat="41.92696" lon="20.0573">
        <ele>868.69000244141</ele>
        <time>2023-10-01T06:08:12.000Z</time>
      </trkpt>
      <trkpt lat="41.92693" lon="20.0572">
        <ele>868.21002197266</ele>
        <time>2023-10-01T06:08:11.000Z</time>
      </trkpt>
      <trkpt lat="41.92691" lon="20.05715">
        <ele>867.72998046875</ele>
        <time>2023-10-01T06:08:10.000Z</time>
      </trkpt>
      <trkpt lat="41.92689" lon="20.0571">
        <ele>867.72998046875</ele>
        <time>2023-10-01T06:08:09.000Z</time>
      </trkpt>
      <trkpt lat="41.92682" lon="20.05696">
        <ele>866.28997802734</ele>
        <time>2023-10-01T06:08:08.000Z</time>
      </trkpt>
      <trkpt lat="41.92678" lon="20.05689">
        <ele>865.79998779297</ele>
        <time>2023-10-01T06:08:07.000Z</time>
      </trkpt>
      <trkpt lat="41.92674" lon="20.05683">
        <ele>864.84002685547</ele>
        <time>2023-10-01T06:08:06.000Z</time>
      </trkpt>
      <trkpt lat="41.92671" lon="20.05678">
        <ele>863.88000488281</ele>
        <time>2023-10-01T06:08:05.000Z</time>
      </trkpt>
      <trkpt lat="41.92667" lon="20.05674">
        <ele>863.88000488281</ele>
        <time>2023-10-01T06:08:04.000Z</time>
      </trkpt>
      <trkpt lat="41.92662" lon="20.05673">
        <ele>862.91998291016</ele>
        <time>2023-10-01T06:08:03.000Z</time>
      </trkpt>
      <trkpt lat="41.92657" lon="20.05675">
        <ele>862.44000244141</ele>
        <time>2023-10-01T06:08:02.000Z</time>
      </trkpt>
      <trkpt lat="41.9265" lon="20.05679">
        <ele>861</ele>
        <time>2023-10-01T06:08:01.000Z</time>
      </trkpt>
      <trkpt lat="41.92649" lon="20.05681">
        <ele>861</ele>
        <time>2023-10-01T06:08:00.000Z</time>
      </trkpt>
      <trkpt lat="41.9262" lon="20.05706">
        <ele>858.10998535156</ele>
        <time>2023-10-01T06:07:57.000Z</time>
      </trkpt>
      <trkpt lat="41.92615" lon="20.05713">
        <ele>857.63000488281</ele>
        <time>2023-10-01T06:07:56.000Z</time>
      </trkpt>
      <trkpt lat="41.92611" lon="20.05722">
        <ele>857.15002441406</ele>
        <time>2023-10-01T06:07:55.000Z</time>
      </trkpt>
      <trkpt lat="41.92607" lon="20.05734">
        <ele>856.66998291016</ele>
        <time>2023-10-01T06:07:54.000Z</time>
      </trkpt>
      <trkpt lat="41.92604" lon="20.05743">
        <ele>856.19000244141</ele>
        <time>2023-10-01T06:07:53.000Z</time>
      </trkpt>
      <trkpt lat="41.92598" lon="20.05757">
        <ele>855.22998046875</ele>
        <time>2023-10-01T06:07:52.000Z</time>
      </trkpt>
      <trkpt lat="41.92592" lon="20.05769">
        <ele>854.27001953125</ele>
        <time>2023-10-01T06:07:51.000Z</time>
      </trkpt>
      <trkpt lat="41.92585" lon="20.05779">
        <ele>852.83001708984</ele>
        <time>2023-10-01T06:07:50.000Z</time>
      </trkpt>
      <trkpt lat="41.92576" lon="20.05787">
        <ele>852.34997558594</ele>
        <time>2023-10-01T06:07:49.000Z</time>
      </trkpt>
      <trkpt lat="41.92569" lon="20.05791">
        <ele>851.86999511719</ele>
        <time>2023-10-01T06:07:48.000Z</time>
      </trkpt>
      <trkpt lat="41.92562" lon="20.05793">
        <ele>851.38000488281</ele>
        <time>2023-10-01T06:07:47.000Z</time>
      </trkpt>
      <trkpt lat="41.92554" lon="20.05793">
        <ele>850.90002441406</ele>
        <time>2023-10-01T06:07:46.000Z</time>
      </trkpt>
      <trkpt lat="41.92547" lon="20.05791">
        <ele>850.90002441406</ele>
        <time>2023-10-01T06:07:45.000Z</time>
      </trkpt>
      <trkpt lat="41.92538" lon="20.05787">
        <ele>850.41998291016</ele>
        <time>2023-10-01T06:07:44.000Z</time>
      </trkpt>
      <trkpt lat="41.92536" lon="20.05786">
        <ele>850.41998291016</ele>
        <time>2023-10-01T06:07:43.000Z</time>
      </trkpt>
      <trkpt lat="41.92516" lon="20.05777">
        <ele>850.41998291016</ele>
        <time>2023-10-01T06:07:41.000Z</time>
      </trkpt>
      <trkpt lat="41.92511" lon="20.05775">
        <ele>850.41998291016</ele>
        <time>2023-10-01T06:07:40.000Z</time>
      </trkpt>
      <trkpt lat="41.92508" lon="20.05775">
        <ele>850.90002441406</ele>
        <time>2023-10-01T06:07:39.000Z</time>
      </trkpt>
      <trkpt lat="41.92503" lon="20.05778">
        <ele>851.38000488281</ele>
        <time>2023-10-01T06:07:38.000Z</time>
      </trkpt>
      <trkpt lat="41.92501" lon="20.05783">
        <ele>851.86999511719</ele>
        <time>2023-10-01T06:07:37.000Z</time>
      </trkpt>
      <trkpt lat="41.925" lon="20.05788">
        <ele>851.86999511719</ele>
        <time>2023-10-01T06:07:36.000Z</time>
      </trkpt>
      <trkpt lat="41.92501" lon="20.05794">
        <ele>852.34997558594</ele>
        <time>2023-10-01T06:07:35.000Z</time>
      </trkpt>
      <trkpt lat="41.92503" lon="20.058">
        <ele>851.86999511719</ele>
        <time>2023-10-01T06:07:34.000Z</time>
      </trkpt>
      <trkpt lat="41.92506" lon="20.05804">
        <ele>851.86999511719</ele>
        <time>2023-10-01T06:07:33.000Z</time>
      </trkpt>
      <trkpt lat="41.92513" lon="20.0581">
        <ele>851.38000488281</ele>
        <time>2023-10-01T06:07:32.000Z</time>
      </trkpt>
      <trkpt lat="41.92517" lon="20.05815">
        <ele>851.38000488281</ele>
        <time>2023-10-01T06:07:31.000Z</time>
      </trkpt>
      <trkpt lat="41.92522" lon="20.05822">
        <ele>850.41998291016</ele>
        <time>2023-10-01T06:07:30.000Z</time>
      </trkpt>
      <trkpt lat="41.92525" lon="20.05827">
        <ele>849.94000244141</ele>
        <time>2023-10-01T06:07:29.000Z</time>
      </trkpt>
      <trkpt lat="41.92528" lon="20.05834">
        <ele>849.46002197266</ele>
        <time>2023-10-01T06:07:28.000Z</time>
      </trkpt>
      <trkpt lat="41.92529" lon="20.05841">
        <ele>848.5</ele>
        <time>2023-10-01T06:07:27.000Z</time>
      </trkpt>
      <trkpt lat="41.92529" lon="20.05849">
        <ele>848.02001953125</ele>
        <time>2023-10-01T06:07:26.000Z</time>
      </trkpt>
      <trkpt lat="41.92527" lon="20.05857">
        <ele>847.05999755859</ele>
        <time>2023-10-01T06:07:25.000Z</time>
      </trkpt>
      <trkpt lat="41.92525" lon="20.05863">
        <ele>846.58001708984</ele>
        <time>2023-10-01T06:07:24.000Z</time>
      </trkpt>
      <trkpt lat="41.92521" lon="20.05867">
        <ele>846.09997558594</ele>
        <time>2023-10-01T06:07:23.000Z</time>
      </trkpt>
      <trkpt lat="41.92519" lon="20.05869">
        <ele>846.09997558594</ele>
        <time>2023-10-01T06:07:22.000Z</time>
      </trkpt>
      <trkpt lat="41.92512" lon="20.05851">
        <ele>842.25</ele>
        <time>2023-10-01T06:07:16.000Z</time>
      </trkpt>
      <trkpt lat="41.92513" lon="20.05846">
        <ele>841.77001953125</ele>
        <time>2023-10-01T06:07:15.000Z</time>
      </trkpt>
      <trkpt lat="41.92514" lon="20.05839">
        <ele>841.28997802734</ele>
        <time>2023-10-01T06:07:14.000Z</time>
      </trkpt>
      <trkpt lat="41.92512" lon="20.05831">
        <ele>840.33001708984</ele>
        <time>2023-10-01T06:07:13.000Z</time>
      </trkpt>
      <trkpt lat="41.92508" lon="20.05824">
        <ele>839.84997558594</ele>
        <time>2023-10-01T06:07:12.000Z</time>
      </trkpt>
      <trkpt lat="41.92504" lon="20.05819">
        <ele>839.36999511719</ele>
        <time>2023-10-01T06:07:11.000Z</time>
      </trkpt>
      <trkpt lat="41.92495" lon="20.05813">
        <ele>838.40997314453</ele>
        <time>2023-10-01T06:07:10.000Z</time>
      </trkpt>
      <trkpt lat="41.92488" lon="20.05809">
        <ele>837.45001220703</ele>
        <time>2023-10-01T06:07:09.000Z</time>
      </trkpt>
      <trkpt lat="41.92481" lon="20.05804">
        <ele>836.96002197266</ele>
        <time>2023-10-01T06:07:08.000Z</time>
      </trkpt>
      <trkpt lat="41.92476" lon="20.05798">
        <ele>836.47998046875</ele>
        <time>2023-10-01T06:07:07.000Z</time>
      </trkpt>
      <trkpt lat="41.92472" lon="20.05791">
        <ele>835.52001953125</ele>
        <time>2023-10-01T06:07:06.000Z</time>
      </trkpt>
      <trkpt lat="41.92469" lon="20.05784">
        <ele>835.03997802734</ele>
        <time>2023-10-01T06:07:05.000Z</time>
      </trkpt>
      <trkpt lat="41.92468" lon="20.05777">
        <ele>833.59997558594</ele>
        <time>2023-10-01T06:07:04.000Z</time>
      </trkpt>
      <trkpt lat="41.92468" lon="20.05768">
        <ele>832.15997314453</ele>
        <time>2023-10-01T06:07:03.000Z</time>
      </trkpt>
      <trkpt lat="41.92469" lon="20.05762">
        <ele>832.15997314453</ele>
        <time>2023-10-01T06:07:02.000Z</time>
      </trkpt>
      <trkpt lat="41.9247" lon="20.05755">
        <ele>831.67999267578</ele>
        <time>2023-10-01T06:07:01.000Z</time>
      </trkpt>
      <trkpt lat="41.92473" lon="20.05735">
        <ele>830.71997070312</ele>
        <time>2023-10-01T06:07:00.000Z</time>
      </trkpt>
      <trkpt lat="41.92475" lon="20.05727">
        <ele>830.71997070312</ele>
        <time>2023-10-01T06:06:59.000Z</time>
      </trkpt>
      <trkpt lat="41.92478" lon="20.05721">
        <ele>830.23999023438</ele>
        <time>2023-10-01T06:06:58.000Z</time>
      </trkpt>
      <trkpt lat="41.92482" lon="20.05717">
        <ele>829.76000976562</ele>
        <time>2023-10-01T06:06:57.000Z</time>
      </trkpt>
      <trkpt lat="41.92487" lon="20.05716">
        <ele>828.78997802734</ele>
        <time>2023-10-01T06:06:56.000Z</time>
      </trkpt>
      <trkpt lat="41.92493" lon="20.05717">
        <ele>827.83001708984</ele>
        <time>2023-10-01T06:06:55.000Z</time>
      </trkpt>
      <trkpt lat="41.92498" lon="20.05719">
        <ele>826.86999511719</ele>
        <time>2023-10-01T06:06:54.000Z</time>
      </trkpt>
      <trkpt lat="41.92504" lon="20.05722">
        <ele>825.42999267578</ele>
        <time>2023-10-01T06:06:53.000Z</time>
      </trkpt>
      <trkpt lat="41.92509" lon="20.05723">
        <ele>825.42999267578</ele>
        <time>2023-10-01T06:06:52.000Z</time>
      </trkpt>
      <trkpt lat="41.92516" lon="20.05726">
        <ele>824.95001220703</ele>
        <time>2023-10-01T06:06:51.000Z</time>
      </trkpt>
      <trkpt lat="41.92525" lon="20.05731">
        <ele>824.95001220703</ele>
        <time>2023-10-01T06:06:50.000Z</time>
      </trkpt>
      <trkpt lat="41.9253" lon="20.05733">
        <ele>824.46997070312</ele>
        <time>2023-10-01T06:06:49.000Z</time>
      </trkpt>
      <trkpt lat="41.92536" lon="20.05733">
        <ele>824.46997070312</ele>
        <time>2023-10-01T06:06:48.000Z</time>
      </trkpt>
      <trkpt lat="41.92541" lon="20.05729">
        <ele>823.98999023438</ele>
        <time>2023-10-01T06:06:47.000Z</time>
      </trkpt>
      <trkpt lat="41.92544" lon="20.05723">
        <ele>823.51000976562</ele>
        <time>2023-10-01T06:06:46.000Z</time>
      </trkpt>
      <trkpt lat="41.92547" lon="20.05713">
        <ele>823.03002929688</ele>
        <time>2023-10-01T06:06:45.000Z</time>
      </trkpt>
      <trkpt lat="41.92547" lon="20.05701">
        <ele>822.05999755859</ele>
        <time>2023-10-01T06:06:44.000Z</time>
      </trkpt>
      <trkpt lat="41.92547" lon="20.05691">
        <ele>821.58001708984</ele>
        <time>2023-10-01T06:06:43.000Z</time>
      </trkpt>
      <trkpt lat="41.92545" lon="20.05673">
        <ele>821.09997558594</ele>
        <time>2023-10-01T06:06:42.000Z</time>
      </trkpt>
      <trkpt lat="41.92544" lon="20.0566">
        <ele>820.61999511719</ele>
        <time>2023-10-01T06:06:41.000Z</time>
      </trkpt>
      <trkpt lat="41.92543" lon="20.05647">
        <ele>820.14001464844</ele>
        <time>2023-10-01T06:06:40.000Z</time>
      </trkpt>
      <trkpt lat="41.92544" lon="20.05638">
        <ele>819.65997314453</ele>
        <time>2023-10-01T06:06:39.000Z</time>
      </trkpt>
      <trkpt lat="41.92545" lon="20.0563">
        <ele>819.17999267578</ele>
        <time>2023-10-01T06:06:38.000Z</time>
      </trkpt>
      <trkpt lat="41.92548" lon="20.05623">
        <ele>819.17999267578</ele>
        <time>2023-10-01T06:06:37.000Z</time>
      </trkpt>
      <trkpt lat="41.92552" lon="20.05618">
        <ele>819.65997314453</ele>
        <time>2023-10-01T06:06:36.000Z</time>
      </trkpt>
      <trkpt lat="41.92557" lon="20.05615">
        <ele>820.14001464844</ele>
        <time>2023-10-01T06:06:35.000Z</time>
      </trkpt>
      <trkpt lat="41.92563" lon="20.05612">
        <ele>820.14001464844</ele>
        <time>2023-10-01T06:06:34.000Z</time>
      </trkpt>
      <trkpt lat="41.9257" lon="20.05611">
        <ele>820.14001464844</ele>
        <time>2023-10-01T06:06:33.000Z</time>
      </trkpt>
      <trkpt lat="41.92575" lon="20.05607">
        <ele>820.14001464844</ele>
        <time>2023-10-01T06:06:32.000Z</time>
      </trkpt>
      <trkpt lat="41.92578" lon="20.05602">
        <ele>820.14001464844</ele>
        <time>2023-10-01T06:06:31.000Z</time>
      </trkpt>
      <trkpt lat="41.92579" lon="20.05594">
        <ele>820.14001464844</ele>
        <time>2023-10-01T06:06:30.000Z</time>
      </trkpt>
      <trkpt lat="41.92579" lon="20.05586">
        <ele>820.14001464844</ele>
        <time>2023-10-01T06:06:29.000Z</time>
      </trkpt>
      <trkpt lat="41.92578" lon="20.05578">
        <ele>820.14001464844</ele>
        <time>2023-10-01T06:06:28.000Z</time>
      </trkpt>
      <trkpt lat="41.92575" lon="20.05568">
        <ele>819.65997314453</ele>
        <time>2023-10-01T06:06:27.000Z</time>
      </trkpt>
      <trkpt lat="41.92571" lon="20.05559">
        <ele>819.17999267578</ele>
        <time>2023-10-01T06:06:26.000Z</time>
      </trkpt>
      <trkpt lat="41.92567" lon="20.0555">
        <ele>818.70001220703</ele>
        <time>2023-10-01T06:06:25.000Z</time>
      </trkpt>
      <trkpt lat="41.92563" lon="20.0554">
        <ele>817.73999023438</ele>
        <time>2023-10-01T06:06:24.000Z</time>
      </trkpt>
      <trkpt lat="41.92562" lon="20.05529">
        <ele>817.26000976562</ele>
        <time>2023-10-01T06:06:23.000Z</time>
      </trkpt>
      <trkpt lat="41.92563" lon="20.05518">
        <ele>816.29998779297</ele>
        <time>2023-10-01T06:06:22.000Z</time>
      </trkpt>
      <trkpt lat="41.92564" lon="20.05512">
        <ele>815.82000732422</ele>
        <time>2023-10-01T06:06:21.000Z</time>
      </trkpt>
      <trkpt lat="41.92565" lon="20.055">
        <ele>814.36999511719</ele>
        <time>2023-10-01T06:06:20.000Z</time>
      </trkpt>
      <trkpt lat="41.92566" lon="20.0549">
        <ele>813.89001464844</ele>
        <time>2023-10-01T06:06:19.000Z</time>
      </trkpt>
      <trkpt lat="41.92568" lon="20.05482">
        <ele>812.92999267578</ele>
        <time>2023-10-01T06:06:18.000Z</time>
      </trkpt>
      <trkpt lat="41.92572" lon="20.05476">
        <ele>812.45001220703</ele>
        <time>2023-10-01T06:06:17.000Z</time>
      </trkpt>
      <trkpt lat="41.92577" lon="20.05472">
        <ele>811.48999023438</ele>
        <time>2023-10-01T06:06:16.000Z</time>
      </trkpt>
      <trkpt lat="41.92583" lon="20.05469">
        <ele>811.01000976562</ele>
        <time>2023-10-01T06:06:15.000Z</time>
      </trkpt>
      <trkpt lat="41.9259" lon="20.05467">
        <ele>810.04998779297</ele>
        <time>2023-10-01T06:06:14.000Z</time>
      </trkpt>
      <trkpt lat="41.92604" lon="20.05466">
        <ele>809.09002685547</ele>
        <time>2023-10-01T06:06:12.000Z</time>
      </trkpt>
      <trkpt lat="41.92615" lon="20.05466">
        <ele>808.60998535156</ele>
        <time>2023-10-01T06:06:11.000Z</time>
      </trkpt>
      <trkpt lat="41.9262" lon="20.05464">
        <ele>808.13000488281</ele>
        <time>2023-10-01T06:06:10.000Z</time>
      </trkpt>
      <trkpt lat="41.92626" lon="20.05459">
        <ele>808.13000488281</ele>
        <time>2023-10-01T06:06:09.000Z</time>
      </trkpt>
      <trkpt lat="41.92632" lon="20.05451">
        <ele>807.64001464844</ele>
        <time>2023-10-01T06:06:08.000Z</time>
      </trkpt>
      <trkpt lat="41.92636" lon="20.05445">
        <ele>807.15997314453</ele>
        <time>2023-10-01T06:06:07.000Z</time>
      </trkpt>
      <trkpt lat="41.92641" lon="20.05434">
        <ele>806.67999267578</ele>
        <time>2023-10-01T06:06:06.000Z</time>
      </trkpt>
      <trkpt lat="41.92643" lon="20.05428">
        <ele>806.20001220703</ele>
        <time>2023-10-01T06:06:05.000Z</time>
      </trkpt>
      <trkpt lat="41.92643" lon="20.05422">
        <ele>805.71997070312</ele>
        <time>2023-10-01T06:06:04.000Z</time>
      </trkpt>
      <trkpt lat="41.92642" lon="20.05416">
        <ele>805.23999023438</ele>
        <time>2023-10-01T06:06:03.000Z</time>
      </trkpt>
      <trkpt lat="41.92638" lon="20.05408">
        <ele>804.76000976562</ele>
        <time>2023-10-01T06:06:02.000Z</time>
      </trkpt>
      <trkpt lat="41.92633" lon="20.05401">
        <ele>804.28002929688</ele>
        <time>2023-10-01T06:06:01.000Z</time>
      </trkpt>
      <trkpt lat="41.92627" lon="20.05395">
        <ele>803.32000732422</ele>
        <time>2023-10-01T06:06:00.000Z</time>
      </trkpt>
      <trkpt lat="41.92622" lon="20.05389">
        <ele>802.84002685547</ele>
        <time>2023-10-01T06:05:59.000Z</time>
      </trkpt>
      <trkpt lat="41.92608" lon="20.05379">
        <ele>801.40002441406</ele>
        <time>2023-10-01T06:05:58.000Z</time>
      </trkpt>
      <trkpt lat="41.92598" lon="20.05372">
        <ele>800.44000244141</ele>
        <time>2023-10-01T06:05:57.000Z</time>
      </trkpt>
      <trkpt lat="41.92589" lon="20.05368">
        <ele>799.46997070312</ele>
        <time>2023-10-01T06:05:56.000Z</time>
      </trkpt>
      <trkpt lat="41.9258" lon="20.05366">
        <ele>798.03002929688</ele>
        <time>2023-10-01T06:05:55.000Z</time>
      </trkpt>
      <trkpt lat="41.92569" lon="20.05365">
        <ele>796.59002685547</ele>
        <time>2023-10-01T06:05:54.000Z</time>
      </trkpt>
      <trkpt lat="41.92559" lon="20.05366">
        <ele>795.15002441406</ele>
        <time>2023-10-01T06:05:53.000Z</time>
      </trkpt>
      <trkpt lat="41.92557" lon="20.05366">
        <ele>794.66998291016</ele>
        <time>2023-10-01T06:05:52.000Z</time>
      </trkpt>
      <trkpt lat="41.92539" lon="20.05369">
        <ele>791.78002929688</ele>
        <time>2023-10-01T06:05:51.000Z</time>
      </trkpt>
      <trkpt lat="41.92529" lon="20.05372">
        <ele>791.29998779297</ele>
        <time>2023-10-01T06:05:50.000Z</time>
      </trkpt>
      <trkpt lat="41.92521" lon="20.05376">
        <ele>790.34002685547</ele>
        <time>2023-10-01T06:05:49.000Z</time>
      </trkpt>
      <trkpt lat="41.92513" lon="20.05381">
        <ele>789.85998535156</ele>
        <time>2023-10-01T06:05:48.000Z</time>
      </trkpt>
      <trkpt lat="41.92506" lon="20.05384">
        <ele>789.38000488281</ele>
        <time>2023-10-01T06:05:47.000Z</time>
      </trkpt>
      <trkpt lat="41.92498" lon="20.05386">
        <ele>788.90002441406</ele>
        <time>2023-10-01T06:05:46.000Z</time>
      </trkpt>
      <trkpt lat="41.92492" lon="20.05386">
        <ele>788.41998291016</ele>
        <time>2023-10-01T06:05:45.000Z</time>
      </trkpt>
      <trkpt lat="41.92489" lon="20.05386">
        <ele>787.94000244141</ele>
        <time>2023-10-01T06:05:44.000Z</time>
      </trkpt>
      <trkpt lat="41.92479" lon="20.05384">
        <ele>786.97998046875</ele>
        <time>2023-10-01T06:05:43.000Z</time>
      </trkpt>
      <trkpt lat="41.92475" lon="20.05383">
        <ele>786.5</ele>
        <time>2023-10-01T06:05:42.000Z</time>
      </trkpt>
      <trkpt lat="41.92471" lon="20.05384">
        <ele>786.02001953125</ele>
        <time>2023-10-01T06:05:41.000Z</time>
      </trkpt>
      <trkpt lat="41.92466" lon="20.05384">
        <ele>785.53002929688</ele>
        <time>2023-10-01T06:05:40.000Z</time>
      </trkpt>
      <trkpt lat="41.9246" lon="20.05385">
        <ele>784.57000732422</ele>
        <time>2023-10-01T06:05:39.000Z</time>
      </trkpt>
      <trkpt lat="41.92451" lon="20.05388">
        <ele>783.13000488281</ele>
        <time>2023-10-01T06:05:38.000Z</time>
      </trkpt>
      <trkpt lat="41.92446" lon="20.0539">
        <ele>782.65002441406</ele>
        <time>2023-10-01T06:05:37.000Z</time>
      </trkpt>
      <trkpt lat="41.92433" lon="20.05395">
        <ele>780.72998046875</ele>
        <time>2023-10-01T06:05:36.000Z</time>
      </trkpt>
      <trkpt lat="41.92422" lon="20.05399">
        <ele>779.28997802734</ele>
        <time>2023-10-01T06:05:35.000Z</time>
      </trkpt>
      <trkpt lat="41.92416" lon="20.05399">
        <ele>778.32000732422</ele>
        <time>2023-10-01T06:05:34.000Z</time>
      </trkpt>
      <trkpt lat="41.92411" lon="20.05399">
        <ele>777.84002685547</ele>
        <time>2023-10-01T06:05:33.000Z</time>
      </trkpt>
      <trkpt lat="41.92387" lon="20.05401">
        <ele>775.44000244141</ele>
        <time>2023-10-01T06:05:31.000Z</time>
      </trkpt>
      <trkpt lat="41.92369" lon="20.05403">
        <ele>774.47998046875</ele>
        <time>2023-10-01T06:05:30.000Z</time>
      </trkpt>
      <trkpt lat="41.92359" lon="20.05402">
        <ele>774</ele>
        <time>2023-10-01T06:05:29.000Z</time>
      </trkpt>
      <trkpt lat="41.9235" lon="20.05399">
        <ele>773.03997802734</ele>
        <time>2023-10-01T06:05:28.000Z</time>
      </trkpt>
      <trkpt lat="41.92341" lon="20.05394">
        <ele>772.55999755859</ele>
        <time>2023-10-01T06:05:27.000Z</time>
      </trkpt>
      <trkpt lat="41.92334" lon="20.05388">
        <ele>771.59997558594</ele>
        <time>2023-10-01T06:05:26.000Z</time>
      </trkpt>
      <trkpt lat="41.92328" lon="20.05384">
        <ele>771.10998535156</ele>
        <time>2023-10-01T06:05:25.000Z</time>
      </trkpt>
      <trkpt lat="41.92318" lon="20.05373">
        <ele>770.15002441406</ele>
        <time>2023-10-01T06:05:24.000Z</time>
      </trkpt>
      <trkpt lat="41.92313" lon="20.05367">
        <ele>769.66998291016</ele>
        <time>2023-10-01T06:05:23.000Z</time>
      </trkpt>
      <trkpt lat="41.92306" lon="20.05356">
        <ele>768.71002197266</ele>
        <time>2023-10-01T06:05:22.000Z</time>
      </trkpt>
      <trkpt lat="41.92302" lon="20.05348">
        <ele>768.22998046875</ele>
        <time>2023-10-01T06:05:21.000Z</time>
      </trkpt>
      <trkpt lat="41.92294" lon="20.05324">
        <ele>766.78997802734</ele>
        <time>2023-10-01T06:05:19.000Z</time>
      </trkpt>
      <trkpt lat="41.9229" lon="20.05315">
        <ele>766.30999755859</ele>
        <time>2023-10-01T06:05:18.000Z</time>
      </trkpt>
      <trkpt lat="41.92284" lon="20.05308">
        <ele>765.83001708984</ele>
        <time>2023-10-01T06:05:17.000Z</time>
      </trkpt>
      <trkpt lat="41.92276" lon="20.05303">
        <ele>764.86999511719</ele>
        <time>2023-10-01T06:05:16.000Z</time>
      </trkpt>
      <trkpt lat="41.92268" lon="20.053">
        <ele>764.39001464844</ele>
        <time>2023-10-01T06:05:15.000Z</time>
      </trkpt>
      <trkpt lat="41.9226" lon="20.05299">
        <ele>763.90002441406</ele>
        <time>2023-10-01T06:05:14.000Z</time>
      </trkpt>
      <trkpt lat="41.92254" lon="20.05297">
        <ele>762.94000244141</ele>
        <time>2023-10-01T06:05:13.000Z</time>
      </trkpt>
      <trkpt lat="41.92248" lon="20.05293">
        <ele>762.46002197266</ele>
        <time>2023-10-01T06:05:12.000Z</time>
      </trkpt>
      <trkpt lat="41.92243" lon="20.05288">
        <ele>761.97998046875</ele>
        <time>2023-10-01T06:05:11.000Z</time>
      </trkpt>
      <trkpt lat="41.9224" lon="20.05283">
        <ele>761.5</ele>
        <time>2023-10-01T06:05:10.000Z</time>
      </trkpt>
      <trkpt lat="41.92234" lon="20.05274">
        <ele>760.53997802734</ele>
        <time>2023-10-01T06:05:09.000Z</time>
      </trkpt>
      <trkpt lat="41.9223" lon="20.05268">
        <ele>760.05999755859</ele>
        <time>2023-10-01T06:05:08.000Z</time>
      </trkpt>
      <trkpt lat="41.92227" lon="20.05261">
        <ele>759.09997558594</ele>
        <time>2023-10-01T06:05:07.000Z</time>
      </trkpt>
      <trkpt lat="41.92223" lon="20.05254">
        <ele>758.14001464844</ele>
        <time>2023-10-01T06:05:06.000Z</time>
      </trkpt>
      <trkpt lat="41.92219" lon="20.05249">
        <ele>757.17999267578</ele>
        <time>2023-10-01T06:05:05.000Z</time>
      </trkpt>
      <trkpt lat="41.92215" lon="20.05244">
        <ele>756.69000244141</ele>
        <time>2023-10-01T06:05:04.000Z</time>
      </trkpt>
      <trkpt lat="41.92209" lon="20.05241">
        <ele>755.72998046875</ele>
        <time>2023-10-01T06:05:03.000Z</time>
      </trkpt>
      <trkpt lat="41.92202" lon="20.05241">
        <ele>755.25</ele>
        <time>2023-10-01T06:05:02.000Z</time>
      </trkpt>
      <trkpt lat="41.92196" lon="20.05244">
        <ele>754.77001953125</ele>
        <time>2023-10-01T06:05:01.000Z</time>
      </trkpt>
      <trkpt lat="41.92191" lon="20.05249">
        <ele>754.28997802734</ele>
        <time>2023-10-01T06:05:00.000Z</time>
      </trkpt>
      <trkpt lat="41.92189" lon="20.0525">
        <ele>754.28997802734</ele>
        <time>2023-10-01T06:04:59.000Z</time>
      </trkpt>
      <trkpt lat="41.92177" lon="20.05263">
        <ele>753.33001708984</ele>
        <time>2023-10-01T06:04:58.000Z</time>
      </trkpt>
      <trkpt lat="41.92172" lon="20.05268">
        <ele>752.84997558594</ele>
        <time>2023-10-01T06:04:57.000Z</time>
      </trkpt>
      <trkpt lat="41.92165" lon="20.05271">
        <ele>752.36999511719</ele>
        <time>2023-10-01T06:04:56.000Z</time>
      </trkpt>
      <trkpt lat="41.92158" lon="20.05273">
        <ele>751.40997314453</ele>
        <time>2023-10-01T06:04:55.000Z</time>
      </trkpt>
      <trkpt lat="41.92151" lon="20.05273">
        <ele>750.45001220703</ele>
        <time>2023-10-01T06:04:54.000Z</time>
      </trkpt>
      <trkpt lat="41.92144" lon="20.05272">
        <ele>749.48999023438</ele>
        <time>2023-10-01T06:04:53.000Z</time>
      </trkpt>
      <trkpt lat="41.92136" lon="20.05269">
        <ele>749</ele>
        <time>2023-10-01T06:04:52.000Z</time>
      </trkpt>
      <trkpt lat="41.92127" lon="20.05266">
        <ele>748.52001953125</ele>
        <time>2023-10-01T06:04:51.000Z</time>
      </trkpt>
      <trkpt lat="41.92116" lon="20.05264">
        <ele>747.08001708984</ele>
        <time>2023-10-01T06:04:50.000Z</time>
      </trkpt>
      <trkpt lat="41.92106" lon="20.05264">
        <ele>746.59997558594</ele>
        <time>2023-10-01T06:04:49.000Z</time>
      </trkpt>
      <trkpt lat="41.92096" lon="20.05263">
        <ele>745.64001464844</ele>
        <time>2023-10-01T06:04:48.000Z</time>
      </trkpt>
      <trkpt lat="41.92088" lon="20.05261">
        <ele>744.67999267578</ele>
        <time>2023-10-01T06:04:47.000Z</time>
      </trkpt>
      <trkpt lat="41.92057" lon="20.05253">
        <ele>741.78997802734</ele>
        <time>2023-10-01T06:04:44.000Z</time>
      </trkpt>
      <trkpt lat="41.92054" lon="20.05252">
        <ele>741.78997802734</ele>
        <time>2023-10-01T06:04:43.000Z</time>
      </trkpt>
      <trkpt lat="41.92041" lon="20.05248">
        <ele>740.83001708984</ele>
        <time>2023-10-01T06:04:42.000Z</time>
      </trkpt>
      <trkpt lat="41.92036" lon="20.05246">
        <ele>739.86999511719</ele>
        <time>2023-10-01T06:04:41.000Z</time>
      </trkpt>
      <trkpt lat="41.92016" lon="20.05236">
        <ele>738.42999267578</ele>
        <time>2023-10-01T06:04:39.000Z</time>
      </trkpt>
      <trkpt lat="41.92008" lon="20.05232">
        <ele>737.95001220703</ele>
        <time>2023-10-01T06:04:38.000Z</time>
      </trkpt>
      <trkpt lat="41.92002" lon="20.05227">
        <ele>737.46997070312</ele>
        <time>2023-10-01T06:04:37.000Z</time>
      </trkpt>
      <trkpt lat="41.91996" lon="20.05221">
        <ele>736.98999023438</ele>
        <time>2023-10-01T06:04:36.000Z</time>
      </trkpt>
      <trkpt lat="41.9199" lon="20.05215">
        <ele>736.51000976562</ele>
        <time>2023-10-01T06:04:35.000Z</time>
      </trkpt>
      <trkpt lat="41.91984" lon="20.05208">
        <ele>736.03002929688</ele>
        <time>2023-10-01T06:04:34.000Z</time>
      </trkpt>
      <trkpt lat="41.91979" lon="20.05199">
        <ele>735.54998779297</ele>
        <time>2023-10-01T06:04:33.000Z</time>
      </trkpt>
      <trkpt lat="41.91975" lon="20.0519">
        <ele>735.07000732422</ele>
        <time>2023-10-01T06:04:32.000Z</time>
      </trkpt>
      <trkpt lat="41.91973" lon="20.05183">
        <ele>734.58001708984</ele>
        <time>2023-10-01T06:04:31.000Z</time>
      </trkpt>
      <trkpt lat="41.91971" lon="20.05174">
        <ele>734.09997558594</ele>
        <time>2023-10-01T06:04:30.000Z</time>
      </trkpt>
      <trkpt lat="41.9197" lon="20.05168">
        <ele>733.14001464844</ele>
        <time>2023-10-01T06:04:29.000Z</time>
      </trkpt>
      <trkpt lat="41.91967" lon="20.0516">
        <ele>732.65997314453</ele>
        <time>2023-10-01T06:04:28.000Z</time>
      </trkpt>
      <trkpt lat="41.91963" lon="20.05155">
        <ele>732.65997314453</ele>
        <time>2023-10-01T06:04:27.000Z</time>
      </trkpt>
      <trkpt lat="41.91958" lon="20.05151">
        <ele>732.17999267578</ele>
        <time>2023-10-01T06:04:26.000Z</time>
      </trkpt>
      <trkpt lat="41.91953" lon="20.05149">
        <ele>732.17999267578</ele>
        <time>2023-10-01T06:04:25.000Z</time>
      </trkpt>
      <trkpt lat="41.91949" lon="20.05149">
        <ele>732.17999267578</ele>
        <time>2023-10-01T06:04:24.000Z</time>
      </trkpt>
      <trkpt lat="41.91945" lon="20.05153">
        <ele>732.17999267578</ele>
        <time>2023-10-01T06:04:23.000Z</time>
      </trkpt>
      <trkpt lat="41.91941" lon="20.05158">
        <ele>731.70001220703</ele>
        <time>2023-10-01T06:04:22.000Z</time>
      </trkpt>
      <trkpt lat="41.91939" lon="20.0516">
        <ele>731.70001220703</ele>
        <time>2023-10-01T06:04:21.000Z</time>
      </trkpt>
      <trkpt lat="41.9193" lon="20.05173">
        <ele>730.73999023438</ele>
        <time>2023-10-01T06:04:20.000Z</time>
      </trkpt>
      <trkpt lat="41.91924" lon="20.05181">
        <ele>730.26000976562</ele>
        <time>2023-10-01T06:04:19.000Z</time>
      </trkpt>
      <trkpt lat="41.91913" lon="20.05194">
        <ele>728.34002685547</ele>
        <time>2023-10-01T06:04:17.000Z</time>
      </trkpt>
      <trkpt lat="41.91907" lon="20.05198">
        <ele>727.85998535156</ele>
        <time>2023-10-01T06:04:16.000Z</time>
      </trkpt>
      <trkpt lat="41.919" lon="20.05199">
        <ele>726.89001464844</ele>
        <time>2023-10-01T06:04:15.000Z</time>
      </trkpt>
      <trkpt lat="41.91892" lon="20.05199">
        <ele>725.92999267578</ele>
        <time>2023-10-01T06:04:14.000Z</time>
      </trkpt>
      <trkpt lat="41.91888" lon="20.05199">
        <ele>725.45001220703</ele>
        <time>2023-10-01T06:04:13.000Z</time>
      </trkpt>
      <trkpt lat="41.91843" lon="20.0519">
        <ele>720.65002441406</ele>
        <time>2023-10-01T06:04:08.000Z</time>
      </trkpt>
      <trkpt lat="41.91835" lon="20.05188">
        <ele>719.67999267578</ele>
        <time>2023-10-01T06:04:07.000Z</time>
      </trkpt>
      <trkpt lat="41.91828" lon="20.05186">
        <ele>718.71997070312</ele>
        <time>2023-10-01T06:04:06.000Z</time>
      </trkpt>
      <trkpt lat="41.91824" lon="20.05186">
        <ele>718.23999023438</ele>
        <time>2023-10-01T06:04:05.000Z</time>
      </trkpt>
      <trkpt lat="41.91817" lon="20.05185">
        <ele>717.28002929688</ele>
        <time>2023-10-01T06:04:04.000Z</time>
      </trkpt>
      <trkpt lat="41.91807" lon="20.05186">
        <ele>715.84002685547</ele>
        <time>2023-10-01T06:04:03.000Z</time>
      </trkpt>
      <trkpt lat="41.91802" lon="20.05187">
        <ele>715.35998535156</ele>
        <time>2023-10-01T06:04:02.000Z</time>
      </trkpt>
      <trkpt lat="41.91784" lon="20.05189">
        <ele>713.44000244141</ele>
        <time>2023-10-01T06:04:00.000Z</time>
      </trkpt>
      <trkpt lat="41.91777" lon="20.0519">
        <ele>712.95001220703</ele>
        <time>2023-10-01T06:03:59.000Z</time>
      </trkpt>
      <trkpt lat="41.9177" lon="20.05191">
        <ele>712.46997070312</ele>
        <time>2023-10-01T06:03:58.000Z</time>
      </trkpt>
      <trkpt lat="41.91763" lon="20.05194">
        <ele>711.98999023438</ele>
        <time>2023-10-01T06:03:57.000Z</time>
      </trkpt>
      <trkpt lat="41.91758" lon="20.05195">
        <ele>711.51000976562</ele>
        <time>2023-10-01T06:03:56.000Z</time>
      </trkpt>
      <trkpt lat="41.91753" lon="20.05194">
        <ele>711.03002929688</ele>
        <time>2023-10-01T06:03:55.000Z</time>
      </trkpt>
      <trkpt lat="41.91748" lon="20.05191">
        <ele>710.54998779297</ele>
        <time>2023-10-01T06:03:54.000Z</time>
      </trkpt>
      <trkpt lat="41.91743" lon="20.05186">
        <ele>710.07000732422</ele>
        <time>2023-10-01T06:03:53.000Z</time>
      </trkpt>
      <trkpt lat="41.91738" lon="20.05182">
        <ele>709.10998535156</ele>
        <time>2023-10-01T06:03:52.000Z</time>
      </trkpt>
      <trkpt lat="41.91734" lon="20.05181">
        <ele>708.63000488281</ele>
        <time>2023-10-01T06:03:51.000Z</time>
      </trkpt>
      <trkpt lat="41.91729" lon="20.05182">
        <ele>708.15002441406</ele>
        <time>2023-10-01T06:03:50.000Z</time>
      </trkpt>
      <trkpt lat="41.91724" lon="20.05184">
        <ele>707.66998291016</ele>
        <time>2023-10-01T06:03:49.000Z</time>
      </trkpt>
      <trkpt lat="41.91708" lon="20.05192">
        <ele>705.75</ele>
        <time>2023-10-01T06:03:47.000Z</time>
      </trkpt>
      <trkpt lat="41.91704" lon="20.05195">
        <ele>705.75</ele>
        <time>2023-10-01T06:03:46.000Z</time>
      </trkpt>
      <trkpt lat="41.91694" lon="20.05201">
        <ele>704.29998779297</ele>
        <time>2023-10-01T06:03:45.000Z</time>
      </trkpt>
      <trkpt lat="41.91687" lon="20.05204">
        <ele>703.82000732422</ele>
        <time>2023-10-01T06:03:44.000Z</time>
      </trkpt>
      <trkpt lat="41.9168" lon="20.05205">
        <ele>702.85998535156</ele>
        <time>2023-10-01T06:03:43.000Z</time>
      </trkpt>
      <trkpt lat="41.91674" lon="20.05204">
        <ele>701.90002441406</ele>
        <time>2023-10-01T06:03:42.000Z</time>
      </trkpt>
      <trkpt lat="41.91665" lon="20.052">
        <ele>700.94000244141</ele>
        <time>2023-10-01T06:03:41.000Z</time>
      </trkpt>
      <trkpt lat="41.91658" lon="20.05198">
        <ele>699.97998046875</ele>
        <time>2023-10-01T06:03:40.000Z</time>
      </trkpt>
      <trkpt lat="41.91653" lon="20.05197">
        <ele>699.5</ele>
        <time>2023-10-01T06:03:39.000Z</time>
      </trkpt>
      <trkpt lat="41.91646" lon="20.05196">
        <ele>698.53002929688</ele>
        <time>2023-10-01T06:03:38.000Z</time>
      </trkpt>
      <trkpt lat="41.91641" lon="20.05193">
        <ele>698.04998779297</ele>
        <time>2023-10-01T06:03:37.000Z</time>
      </trkpt>
      <trkpt lat="41.91636" lon="20.05189">
        <ele>697.09002685547</ele>
        <time>2023-10-01T06:03:36.000Z</time>
      </trkpt>
      <trkpt lat="41.91631" lon="20.05185">
        <ele>696.60998535156</ele>
        <time>2023-10-01T06:03:35.000Z</time>
      </trkpt>
      <trkpt lat="41.91628" lon="20.0518">
        <ele>695.65002441406</ele>
        <time>2023-10-01T06:03:34.000Z</time>
      </trkpt>
      <trkpt lat="41.91623" lon="20.05176">
        <ele>695.16998291016</ele>
        <time>2023-10-01T06:03:33.000Z</time>
      </trkpt>
      <trkpt lat="41.91619" lon="20.05173">
        <ele>694.21002197266</ele>
        <time>2023-10-01T06:03:32.000Z</time>
      </trkpt>
      <trkpt lat="41.91614" lon="20.05172">
        <ele>693.72998046875</ele>
        <time>2023-10-01T06:03:31.000Z</time>
      </trkpt>
      <trkpt lat="41.91609" lon="20.05175">
        <ele>693.72998046875</ele>
        <time>2023-10-01T06:03:30.000Z</time>
      </trkpt>
      <trkpt lat="41.91603" lon="20.05182">
        <ele>693.72998046875</ele>
        <time>2023-10-01T06:03:29.000Z</time>
      </trkpt>
      <trkpt lat="41.91602" lon="20.05183">
        <ele>693.72998046875</ele>
        <time>2023-10-01T06:03:28.000Z</time>
      </trkpt>
      <trkpt lat="41.91591" lon="20.05199">
        <ele>692.77001953125</ele>
        <time>2023-10-01T06:03:27.000Z</time>
      </trkpt>
      <trkpt lat="41.91589" lon="20.05202">
        <ele>692.28997802734</ele>
        <time>2023-10-01T06:03:26.000Z</time>
      </trkpt>
      <trkpt lat="41.91574" lon="20.05223">
        <ele>690.35998535156</ele>
        <time>2023-10-01T06:03:24.000Z</time>
      </trkpt>
      <trkpt lat="41.9157" lon="20.05229">
        <ele>689.88000488281</ele>
        <time>2023-10-01T06:03:23.000Z</time>
      </trkpt>
      <trkpt lat="41.91566" lon="20.05232">
        <ele>689.40002441406</ele>
        <time>2023-10-01T06:03:22.000Z</time>
      </trkpt>
      <trkpt lat="41.91561" lon="20.05236">
        <ele>688.44000244141</ele>
        <time>2023-10-01T06:03:21.000Z</time>
      </trkpt>
      <trkpt lat="41.91557" lon="20.05238">
        <ele>687.47998046875</ele>
        <time>2023-10-01T06:03:20.000Z</time>
      </trkpt>
      <trkpt lat="41.91552" lon="20.05237">
        <ele>686.52001953125</ele>
        <time>2023-10-01T06:03:19.000Z</time>
      </trkpt>
      <trkpt lat="41.91548" lon="20.05237">
        <ele>686.03997802734</ele>
        <time>2023-10-01T06:03:18.000Z</time>
      </trkpt>
      <trkpt lat="41.91537" lon="20.05234">
        <ele>684.59997558594</ele>
        <time>2023-10-01T06:03:17.000Z</time>
      </trkpt>
      <trkpt lat="41.91527" lon="20.05231">
        <ele>683.63000488281</ele>
        <time>2023-10-01T06:03:16.000Z</time>
      </trkpt>
      <trkpt lat="41.91518" lon="20.05229">
        <ele>682.66998291016</ele>
        <time>2023-10-01T06:03:15.000Z</time>
      </trkpt>
      <trkpt lat="41.91509" lon="20.0523">
        <ele>682.19000244141</ele>
        <time>2023-10-01T06:03:14.000Z</time>
      </trkpt>
      <trkpt lat="41.91505" lon="20.05231">
        <ele>681.71002197266</ele>
        <time>2023-10-01T06:03:13.000Z</time>
      </trkpt>
      <trkpt lat="41.91495" lon="20.05235">
        <ele>680.75</ele>
        <time>2023-10-01T06:03:12.000Z</time>
      </trkpt>
      <trkpt lat="41.91477" lon="20.05241">
        <ele>679.30999755859</ele>
        <time>2023-10-01T06:03:10.000Z</time>
      </trkpt>
      <trkpt lat="41.91469" lon="20.05246">
        <ele>678.34997558594</ele>
        <time>2023-10-01T06:03:09.000Z</time>
      </trkpt>
      <trkpt lat="41.91463" lon="20.05247">
        <ele>678.34997558594</ele>
        <time>2023-10-01T06:03:08.000Z</time>
      </trkpt>
      <trkpt lat="41.91458" lon="20.05246">
        <ele>677.39001464844</ele>
        <time>2023-10-01T06:03:07.000Z</time>
      </trkpt>
      <trkpt lat="41.91452" lon="20.05243">
        <ele>676.90997314453</ele>
        <time>2023-10-01T06:03:06.000Z</time>
      </trkpt>
      <trkpt lat="41.91449" lon="20.05241">
        <ele>676.41998291016</ele>
        <time>2023-10-01T06:03:05.000Z</time>
      </trkpt>
      <trkpt lat="41.91437" lon="20.05233">
        <ele>674.97998046875</ele>
        <time>2023-10-01T06:03:04.000Z</time>
      </trkpt>
      <trkpt lat="41.91429" lon="20.0523">
        <ele>674.02001953125</ele>
        <time>2023-10-01T06:03:03.000Z</time>
      </trkpt>
      <trkpt lat="41.91421" lon="20.05228">
        <ele>673.53997802734</ele>
        <time>2023-10-01T06:03:02.000Z</time>
      </trkpt>
      <trkpt lat="41.91415" lon="20.05226">
        <ele>672.58001708984</ele>
        <time>2023-10-01T06:03:01.000Z</time>
      </trkpt>
      <trkpt lat="41.9141" lon="20.05223">
        <ele>671.61999511719</ele>
        <time>2023-10-01T06:03:00.000Z</time>
      </trkpt>
      <trkpt lat="41.91405" lon="20.05219">
        <ele>670.65997314453</ele>
        <time>2023-10-01T06:02:59.000Z</time>
      </trkpt>
      <trkpt lat="41.91402" lon="20.05214">
        <ele>669.70001220703</ele>
        <time>2023-10-01T06:02:58.000Z</time>
      </trkpt>
      <trkpt lat="41.91398" lon="20.05209">
        <ele>668.72998046875</ele>
        <time>2023-10-01T06:02:57.000Z</time>
      </trkpt>
      <trkpt lat="41.91394" lon="20.05205">
        <ele>668.72998046875</ele>
        <time>2023-10-01T06:02:56.000Z</time>
      </trkpt>
      <trkpt lat="41.91389" lon="20.05202">
        <ele>668.72998046875</ele>
        <time>2023-10-01T06:02:55.000Z</time>
      </trkpt>
      <trkpt lat="41.91383" lon="20.05202">
        <ele>668.25</ele>
        <time>2023-10-01T06:02:54.000Z</time>
      </trkpt>
      <trkpt lat="41.91379" lon="20.05205">
        <ele>667.77001953125</ele>
        <time>2023-10-01T06:02:53.000Z</time>
      </trkpt>
      <trkpt lat="41.91375" lon="20.05209">
        <ele>667.28997802734</ele>
        <time>2023-10-01T06:02:52.000Z</time>
      </trkpt>
      <trkpt lat="41.91371" lon="20.05217">
        <ele>666.80999755859</ele>
        <time>2023-10-01T06:02:51.000Z</time>
      </trkpt>
      <trkpt lat="41.91366" lon="20.05224">
        <ele>665.84997558594</ele>
        <time>2023-10-01T06:02:50.000Z</time>
      </trkpt>
      <trkpt lat="41.9136" lon="20.0523">
        <ele>665.36999511719</ele>
        <time>2023-10-01T06:02:49.000Z</time>
      </trkpt>
      <trkpt lat="41.91354" lon="20.05234">
        <ele>664.40997314453</ele>
        <time>2023-10-01T06:02:48.000Z</time>
      </trkpt>
      <trkpt lat="41.91349" lon="20.05238">
        <ele>663.92999267578</ele>
        <time>2023-10-01T06:02:47.000Z</time>
      </trkpt>
      <trkpt lat="41.9134" lon="20.05243">
        <ele>662.96997070312</ele>
        <time>2023-10-01T06:02:46.000Z</time>
      </trkpt>
      <trkpt lat="41.91332" lon="20.05247">
        <ele>662.01000976562</ele>
        <time>2023-10-01T06:02:45.000Z</time>
      </trkpt>
      <trkpt lat="41.91326" lon="20.05251">
        <ele>661.03997802734</ele>
        <time>2023-10-01T06:02:44.000Z</time>
      </trkpt>
      <trkpt lat="41.9132" lon="20.05252">
        <ele>660.55999755859</ele>
        <time>2023-10-01T06:02:43.000Z</time>
      </trkpt>
      <trkpt lat="41.91314" lon="20.05252">
        <ele>659.59997558594</ele>
        <time>2023-10-01T06:02:42.000Z</time>
      </trkpt>
      <trkpt lat="41.91307" lon="20.05249">
        <ele>659.11999511719</ele>
        <time>2023-10-01T06:02:41.000Z</time>
      </trkpt>
      <trkpt lat="41.91301" lon="20.05245">
        <ele>658.64001464844</ele>
        <time>2023-10-01T06:02:40.000Z</time>
      </trkpt>
      <trkpt lat="41.91296" lon="20.05241">
        <ele>658.15997314453</ele>
        <time>2023-10-01T06:02:39.000Z</time>
      </trkpt>
      <trkpt lat="41.91293" lon="20.05237">
        <ele>657.67999267578</ele>
        <time>2023-10-01T06:02:38.000Z</time>
      </trkpt>
      <trkpt lat="41.91288" lon="20.05229">
        <ele>656.71997070312</ele>
        <time>2023-10-01T06:02:37.000Z</time>
      </trkpt>
      <trkpt lat="41.91283" lon="20.05225">
        <ele>656.23999023438</ele>
        <time>2023-10-01T06:02:36.000Z</time>
      </trkpt>
      <trkpt lat="41.91278" lon="20.05223">
        <ele>655.76000976562</ele>
        <time>2023-10-01T06:02:35.000Z</time>
      </trkpt>
      <trkpt lat="41.91272" lon="20.05224">
        <ele>655.76000976562</ele>
        <time>2023-10-01T06:02:34.000Z</time>
      </trkpt>
      <trkpt lat="41.91269" lon="20.05226">
        <ele>655.28002929688</ele>
        <time>2023-10-01T06:02:33.000Z</time>
      </trkpt>
      <trkpt lat="41.91265" lon="20.05231">
        <ele>654.79998779297</ele>
        <time>2023-10-01T06:02:32.000Z</time>
      </trkpt>
      <trkpt lat="41.91263" lon="20.05236">
        <ele>653.83001708984</ele>
        <time>2023-10-01T06:02:31.000Z</time>
      </trkpt>
      <trkpt lat="41.91259" lon="20.05246">
        <ele>652.86999511719</ele>
        <time>2023-10-01T06:02:30.000Z</time>
      </trkpt>
      <trkpt lat="41.91256" lon="20.05254">
        <ele>651.90997314453</ele>
        <time>2023-10-01T06:02:29.000Z</time>
      </trkpt>
      <trkpt lat="41.91253" lon="20.05259">
        <ele>650.95001220703</ele>
        <time>2023-10-01T06:02:28.000Z</time>
      </trkpt>
      <trkpt lat="41.91248" lon="20.05266">
        <ele>649.98999023438</ele>
        <time>2023-10-01T06:02:27.000Z</time>
      </trkpt>
      <trkpt lat="41.91243" lon="20.05271">
        <ele>649.03002929688</ele>
        <time>2023-10-01T06:02:26.000Z</time>
      </trkpt>
      <trkpt lat="41.91237" lon="20.05275">
        <ele>648.07000732422</ele>
        <time>2023-10-01T06:02:25.000Z</time>
      </trkpt>
      <trkpt lat="41.9123" lon="20.05278">
        <ele>647.59002685547</ele>
        <time>2023-10-01T06:02:24.000Z</time>
      </trkpt>
      <trkpt lat="41.9122" lon="20.0528">
        <ele>646.61999511719</ele>
        <time>2023-10-01T06:02:23.000Z</time>
      </trkpt>
      <trkpt lat="41.91214" lon="20.05281">
        <ele>646.14001464844</ele>
        <time>2023-10-01T06:02:22.000Z</time>
      </trkpt>
      <trkpt lat="41.91201" lon="20.05283">
        <ele>645.17999267578</ele>
        <time>2023-10-01T06:02:21.000Z</time>
      </trkpt>
      <trkpt lat="41.91197" lon="20.05284">
        <ele>644.70001220703</ele>
        <time>2023-10-01T06:02:20.000Z</time>
      </trkpt>
      <trkpt lat="41.91178" lon="20.05291">
        <ele>643.26000976562</ele>
        <time>2023-10-01T06:02:18.000Z</time>
      </trkpt>
      <trkpt lat="41.91157" lon="20.05299">
        <ele>640.85998535156</ele>
        <time>2023-10-01T06:02:16.000Z</time>
      </trkpt>
      <trkpt lat="41.91148" lon="20.05301">
        <ele>639.89001464844</ele>
        <time>2023-10-01T06:02:15.000Z</time>
      </trkpt>
      <trkpt lat="41.9114" lon="20.05302">
        <ele>638.92999267578</ele>
        <time>2023-10-01T06:02:14.000Z</time>
      </trkpt>
      <trkpt lat="41.91134" lon="20.05302">
        <ele>638.45001220703</ele>
        <time>2023-10-01T06:02:13.000Z</time>
      </trkpt>
      <trkpt lat="41.91126" lon="20.05301">
        <ele>637.48999023438</ele>
        <time>2023-10-01T06:02:12.000Z</time>
      </trkpt>
      <trkpt lat="41.91121" lon="20.05299">
        <ele>637.01000976562</ele>
        <time>2023-10-01T06:02:11.000Z</time>
      </trkpt>
      <trkpt lat="41.91115" lon="20.05297">
        <ele>636.04998779297</ele>
        <time>2023-10-01T06:02:10.000Z</time>
      </trkpt>
      <trkpt lat="41.9111" lon="20.05294">
        <ele>635.09002685547</ele>
        <time>2023-10-01T06:02:09.000Z</time>
      </trkpt>
      <trkpt lat="41.91104" lon="20.05289">
        <ele>634.13000488281</ele>
        <time>2023-10-01T06:02:08.000Z</time>
      </trkpt>
      <trkpt lat="41.91098" lon="20.05284">
        <ele>633.16998291016</ele>
        <time>2023-10-01T06:02:07.000Z</time>
      </trkpt>
      <trkpt lat="41.91091" lon="20.05279">
        <ele>632.20001220703</ele>
        <time>2023-10-01T06:02:06.000Z</time>
      </trkpt>
      <trkpt lat="41.91085" lon="20.05275">
        <ele>631.23999023438</ele>
        <time>2023-10-01T06:02:05.000Z</time>
      </trkpt>
      <trkpt lat="41.91077" lon="20.05268">
        <ele>630.28002929688</ele>
        <time>2023-10-01T06:02:04.000Z</time>
      </trkpt>
      <trkpt lat="41.91071" lon="20.05263">
        <ele>629.79998779297</ele>
        <time>2023-10-01T06:02:03.000Z</time>
      </trkpt>
      <trkpt lat="41.91064" lon="20.05261">
        <ele>629.32000732422</ele>
        <time>2023-10-01T06:02:02.000Z</time>
      </trkpt>
      <trkpt lat="41.91058" lon="20.0526">
        <ele>628.84002685547</ele>
        <time>2023-10-01T06:02:01.000Z</time>
      </trkpt>
      <trkpt lat="41.91052" lon="20.05263">
        <ele>628.35998535156</ele>
        <time>2023-10-01T06:02:00.000Z</time>
      </trkpt>
      <trkpt lat="41.91047" lon="20.05268">
        <ele>627.40002441406</ele>
        <time>2023-10-01T06:01:59.000Z</time>
      </trkpt>
      <trkpt lat="41.91042" lon="20.05274">
        <ele>626.44000244141</ele>
        <time>2023-10-01T06:01:58.000Z</time>
      </trkpt>
      <trkpt lat="41.91038" lon="20.05279">
        <ele>625.96002197266</ele>
        <time>2023-10-01T06:01:57.000Z</time>
      </trkpt>
      <trkpt lat="41.91033" lon="20.05283">
        <ele>625.46997070312</ele>
        <time>2023-10-01T06:01:56.000Z</time>
      </trkpt>
      <trkpt lat="41.91027" lon="20.05285">
        <ele>624.51000976562</ele>
        <time>2023-10-01T06:01:55.000Z</time>
      </trkpt>
      <trkpt lat="41.9102" lon="20.05285">
        <ele>624.03002929688</ele>
        <time>2023-10-01T06:01:54.000Z</time>
      </trkpt>
      <trkpt lat="41.91014" lon="20.05283">
        <ele>623.07000732422</ele>
        <time>2023-10-01T06:01:53.000Z</time>
      </trkpt>
      <trkpt lat="41.91009" lon="20.05279">
        <ele>622.59002685547</ele>
        <time>2023-10-01T06:01:52.000Z</time>
      </trkpt>
      <trkpt lat="41.91005" lon="20.05274">
        <ele>621.63000488281</ele>
        <time>2023-10-01T06:01:51.000Z</time>
      </trkpt>
      <trkpt lat="41.90997" lon="20.05265">
        <ele>620.66998291016</ele>
        <time>2023-10-01T06:01:50.000Z</time>
      </trkpt>
      <trkpt lat="41.90991" lon="20.05258">
        <ele>620.19000244141</ele>
        <time>2023-10-01T06:01:49.000Z</time>
      </trkpt>
      <trkpt lat="41.90984" lon="20.05252">
        <ele>619.22998046875</ele>
        <time>2023-10-01T06:01:48.000Z</time>
      </trkpt>
      <trkpt lat="41.90976" lon="20.05246">
        <ele>618.75</ele>
        <time>2023-10-01T06:01:47.000Z</time>
      </trkpt>
      <trkpt lat="41.90969" lon="20.05241">
        <ele>617.78002929688</ele>
        <time>2023-10-01T06:01:46.000Z</time>
      </trkpt>
      <trkpt lat="41.90963" lon="20.05235">
        <ele>617.29998779297</ele>
        <time>2023-10-01T06:01:45.000Z</time>
      </trkpt>
      <trkpt lat="41.90959" lon="20.05227">
        <ele>616.34002685547</ele>
        <time>2023-10-01T06:01:44.000Z</time>
      </trkpt>
      <trkpt lat="41.90957" lon="20.05222">
        <ele>615.85998535156</ele>
        <time>2023-10-01T06:01:43.000Z</time>
      </trkpt>
      <trkpt lat="41.90953" lon="20.05211">
        <ele>614.41998291016</ele>
        <time>2023-10-01T06:01:42.000Z</time>
      </trkpt>
      <trkpt lat="41.90949" lon="20.05203">
        <ele>613.94000244141</ele>
        <time>2023-10-01T06:01:41.000Z</time>
      </trkpt>
      <trkpt lat="41.90944" lon="20.05197">
        <ele>613.46002197266</ele>
        <time>2023-10-01T06:01:40.000Z</time>
      </trkpt>
      <trkpt lat="41.90937" lon="20.0519">
        <ele>612.5</ele>
        <time>2023-10-01T06:01:39.000Z</time>
      </trkpt>
      <trkpt lat="41.90932" lon="20.05184">
        <ele>612.02001953125</ele>
        <time>2023-10-01T06:01:38.000Z</time>
      </trkpt>
      <trkpt lat="41.90927" lon="20.05178">
        <ele>611.53997802734</ele>
        <time>2023-10-01T06:01:37.000Z</time>
      </trkpt>
      <trkpt lat="41.90924" lon="20.05171">
        <ele>611.05999755859</ele>
        <time>2023-10-01T06:01:36.000Z</time>
      </trkpt>
      <trkpt lat="41.90918" lon="20.05158">
        <ele>610.09002685547</ele>
        <time>2023-10-01T06:01:35.000Z</time>
      </trkpt>
      <trkpt lat="41.90913" lon="20.0515">
        <ele>609.13000488281</ele>
        <time>2023-10-01T06:01:34.000Z</time>
      </trkpt>
      <trkpt lat="41.90906" lon="20.05144">
        <ele>608.16998291016</ele>
        <time>2023-10-01T06:01:33.000Z</time>
      </trkpt>
      <trkpt lat="41.90899" lon="20.05141">
        <ele>607.21002197266</ele>
        <time>2023-10-01T06:01:32.000Z</time>
      </trkpt>
      <trkpt lat="41.90892" lon="20.05141">
        <ele>606.25</ele>
        <time>2023-10-01T06:01:31.000Z</time>
      </trkpt>
      <trkpt lat="41.90863" lon="20.05142">
        <ele>603.84997558594</ele>
        <time>2023-10-01T06:01:28.000Z</time>
      </trkpt>
      <trkpt lat="41.90855" lon="20.05141">
        <ele>603.35998535156</ele>
        <time>2023-10-01T06:01:27.000Z</time>
      </trkpt>
      <trkpt lat="41.90849" lon="20.05138">
        <ele>603.35998535156</ele>
        <time>2023-10-01T06:01:26.000Z</time>
      </trkpt>
      <trkpt lat="41.90844" lon="20.05134">
        <ele>602.88000488281</ele>
        <time>2023-10-01T06:01:25.000Z</time>
      </trkpt>
      <trkpt lat="41.90837" lon="20.05129">
        <ele>602.40002441406</ele>
        <time>2023-10-01T06:01:24.000Z</time>
      </trkpt>
      <trkpt lat="41.90831" lon="20.05123">
        <ele>601.91998291016</ele>
        <time>2023-10-01T06:01:23.000Z</time>
      </trkpt>
      <trkpt lat="41.90825" lon="20.05116">
        <ele>600.96002197266</ele>
        <time>2023-10-01T06:01:22.000Z</time>
      </trkpt>
      <trkpt lat="41.9082" lon="20.0511">
        <ele>599.52001953125</ele>
        <time>2023-10-01T06:01:21.000Z</time>
      </trkpt>
      <trkpt lat="41.90816" lon="20.05105">
        <ele>598.55999755859</ele>
        <time>2023-10-01T06:01:20.000Z</time>
      </trkpt>
      <trkpt lat="41.90812" lon="20.05098">
        <ele>597.59997558594</ele>
        <time>2023-10-01T06:01:19.000Z</time>
      </trkpt>
      <trkpt lat="41.90806" lon="20.05088">
        <ele>597.11999511719</ele>
        <time>2023-10-01T06:01:18.000Z</time>
      </trkpt>
      <trkpt lat="41.90802" lon="20.05082">
        <ele>596.64001464844</ele>
        <time>2023-10-01T06:01:17.000Z</time>
      </trkpt>
      <trkpt lat="41.90795" lon="20.05079">
        <ele>596.15002441406</ele>
        <time>2023-10-01T06:01:16.000Z</time>
      </trkpt>
      <trkpt lat="41.9079" lon="20.05078">
        <ele>595.66998291016</ele>
        <time>2023-10-01T06:01:15.000Z</time>
      </trkpt>
      <trkpt lat="41.90786" lon="20.05078">
        <ele>595.66998291016</ele>
        <time>2023-10-01T06:01:14.000Z</time>
      </trkpt>
      <trkpt lat="41.90774" lon="20.05078">
        <ele>594.71002197266</ele>
        <time>2023-10-01T06:01:13.000Z</time>
      </trkpt>
      <trkpt lat="41.90766" lon="20.05076">
        <ele>594.22998046875</ele>
        <time>2023-10-01T06:01:12.000Z</time>
      </trkpt>
      <trkpt lat="41.9076" lon="20.05071">
        <ele>594.22998046875</ele>
        <time>2023-10-01T06:01:11.000Z</time>
      </trkpt>
      <trkpt lat="41.90753" lon="20.05064">
        <ele>593.75</ele>
        <time>2023-10-01T06:01:10.000Z</time>
      </trkpt>
      <trkpt lat="41.90749" lon="20.0506">
        <ele>593.75</ele>
        <time>2023-10-01T06:01:09.000Z</time>
      </trkpt>
      <trkpt lat="41.90743" lon="20.05053">
        <ele>594.22998046875</ele>
        <time>2023-10-01T06:01:08.000Z</time>
      </trkpt>
      <trkpt lat="41.90736" lon="20.05048">
        <ele>594.71002197266</ele>
        <time>2023-10-01T06:01:07.000Z</time>
      </trkpt>
      <trkpt lat="41.9073" lon="20.05046">
        <ele>595.19000244141</ele>
        <time>2023-10-01T06:01:06.000Z</time>
      </trkpt>
      <trkpt lat="41.90723" lon="20.05046">
        <ele>595.19000244141</ele>
        <time>2023-10-01T06:01:05.000Z</time>
      </trkpt>
      <trkpt lat="41.90714" lon="20.05047">
        <ele>595.19000244141</ele>
        <time>2023-10-01T06:01:04.000Z</time>
      </trkpt>
      <trkpt lat="41.90713" lon="20.05047">
        <ele>595.66998291016</ele>
        <time>2023-10-01T06:01:03.000Z</time>
      </trkpt>
      <trkpt lat="41.907" lon="20.0505">
        <ele>595.66998291016</ele>
        <time>2023-10-01T06:01:02.000Z</time>
      </trkpt>
      <trkpt lat="41.90692" lon="20.0505">
        <ele>596.15002441406</ele>
        <time>2023-10-01T06:01:01.000Z</time>
      </trkpt>
      <trkpt lat="41.90685" lon="20.05049">
        <ele>596.15002441406</ele>
        <time>2023-10-01T06:01:00.000Z</time>
      </trkpt>
      <trkpt lat="41.90679" lon="20.05045">
        <ele>595.66998291016</ele>
        <time>2023-10-01T06:00:59.000Z</time>
      </trkpt>
      <trkpt lat="41.90674" lon="20.05039">
        <ele>595.66998291016</ele>
        <time>2023-10-01T06:00:58.000Z</time>
      </trkpt>
      <trkpt lat="41.90669" lon="20.05033">
        <ele>595.19000244141</ele>
        <time>2023-10-01T06:00:57.000Z</time>
      </trkpt>
      <trkpt lat="41.90663" lon="20.05021">
        <ele>595.19000244141</ele>
        <time>2023-10-01T06:00:55.000Z</time>
      </trkpt>
      <trkpt lat="41.90647" lon="20.04989">
        <ele>594.71002197266</ele>
        <time>2023-10-01T06:00:53.000Z</time>
      </trkpt>
      <trkpt lat="41.9064" lon="20.04978">
        <ele>594.22998046875</ele>
        <time>2023-10-01T06:00:52.000Z</time>
      </trkpt>
      <trkpt lat="41.90627" lon="20.0496">
        <ele>594.22998046875</ele>
        <time>2023-10-01T06:00:50.000Z</time>
      </trkpt>
      <trkpt lat="41.90621" lon="20.04953">
        <ele>593.75</ele>
        <time>2023-10-01T06:00:49.000Z</time>
      </trkpt>
      <trkpt lat="41.90614" lon="20.04946">
        <ele>593.75</ele>
        <time>2023-10-01T06:00:48.000Z</time>
      </trkpt>
      <trkpt lat="41.90612" lon="20.04944">
        <ele>593.75</ele>
        <time>2023-10-01T06:00:47.000Z</time>
      </trkpt>
      <trkpt lat="41.906" lon="20.04934">
        <ele>593.27001953125</ele>
        <time>2023-10-01T06:00:46.000Z</time>
      </trkpt>
      <trkpt lat="41.90594" lon="20.04927">
        <ele>593.27001953125</ele>
        <time>2023-10-01T06:00:45.000Z</time>
      </trkpt>
      <trkpt lat="41.90589" lon="20.0492">
        <ele>592.78997802734</ele>
        <time>2023-10-01T06:00:44.000Z</time>
      </trkpt>
      <trkpt lat="41.90584" lon="20.04913">
        <ele>592.78997802734</ele>
        <time>2023-10-01T06:00:43.000Z</time>
      </trkpt>
      <trkpt lat="41.90582" lon="20.04905">
        <ele>592.30999755859</ele>
        <time>2023-10-01T06:00:42.000Z</time>
      </trkpt>
      <trkpt lat="41.90581" lon="20.04896">
        <ele>592.30999755859</ele>
        <time>2023-10-01T06:00:41.000Z</time>
      </trkpt>
      <trkpt lat="41.90582" lon="20.04888">
        <ele>592.30999755859</ele>
        <time>2023-10-01T06:00:40.000Z</time>
      </trkpt>
      <trkpt lat="41.90585" lon="20.0488">
        <ele>592.30999755859</ele>
        <time>2023-10-01T06:00:39.000Z</time>
      </trkpt>
      <trkpt lat="41.90588" lon="20.04873">
        <ele>591.83001708984</ele>
        <time>2023-10-01T06:00:38.000Z</time>
      </trkpt>
      <trkpt lat="41.90592" lon="20.04868">
        <ele>591.34997558594</ele>
        <time>2023-10-01T06:00:37.000Z</time>
      </trkpt>
      <trkpt lat="41.90595" lon="20.04861">
        <ele>591.34997558594</ele>
        <time>2023-10-01T06:00:36.000Z</time>
      </trkpt>
      <trkpt lat="41.90598" lon="20.04852">
        <ele>591.34997558594</ele>
        <time>2023-10-01T06:00:35.000Z</time>
      </trkpt>
      <trkpt lat="41.906" lon="20.04842">
        <ele>591.34997558594</ele>
        <time>2023-10-01T06:00:34.000Z</time>
      </trkpt>
      <trkpt lat="41.906" lon="20.04832">
        <ele>591.34997558594</ele>
        <time>2023-10-01T06:00:33.000Z</time>
      </trkpt>
      <trkpt lat="41.906" lon="20.04824">
        <ele>591.34997558594</ele>
        <time>2023-10-01T06:00:32.000Z</time>
      </trkpt>
      <trkpt lat="41.90599" lon="20.04818">
        <ele>591.34997558594</ele>
        <time>2023-10-01T06:00:31.000Z</time>
      </trkpt>
      <trkpt lat="41.90596" lon="20.04807">
        <ele>590.86999511719</ele>
        <time>2023-10-01T06:00:29.000Z</time>
      </trkpt>
      <trkpt lat="41.90594" lon="20.04802">
        <ele>590.86999511719</ele>
        <time>2023-10-01T06:00:28.000Z</time>
      </trkpt>
      <trkpt lat="41.90588" lon="20.04789">
        <ele>590.39001464844</ele>
        <time>2023-10-01T06:00:26.000Z</time>
      </trkpt>
      <trkpt lat="41.90587" lon="20.04787">
        <ele>590.39001464844</ele>
        <time>2023-10-01T06:00:25.000Z</time>
      </trkpt>
      <trkpt lat="41.90583" lon="20.04777">
        <ele>590.39001464844</ele>
        <time>2023-10-01T06:00:24.000Z</time>
      </trkpt>
      <trkpt lat="41.9058" lon="20.04768">
        <ele>590.39001464844</ele>
        <time>2023-10-01T06:00:23.000Z</time>
      </trkpt>
      <trkpt lat="41.90578" lon="20.04762">
        <ele>589.90997314453</ele>
        <time>2023-10-01T06:00:22.000Z</time>
      </trkpt>
      <trkpt lat="41.90575" lon="20.04757">
        <ele>589.90997314453</ele>
        <time>2023-10-01T06:00:21.000Z</time>
      </trkpt>
      <trkpt lat="41.90572" lon="20.04753">
        <ele>589.42999267578</ele>
        <time>2023-10-01T06:00:20.000Z</time>
      </trkpt>
      <trkpt lat="41.90569" lon="20.04748">
        <ele>589.42999267578</ele>
        <time>2023-10-01T06:00:19.000Z</time>
      </trkpt>
      <trkpt lat="41.90566" lon="20.04743">
        <ele>588.95001220703</ele>
        <time>2023-10-01T06:00:18.000Z</time>
      </trkpt>
      <trkpt lat="41.90564" lon="20.04741">
        <ele>588.95001220703</ele>
        <time>2023-10-01T06:00:17.000Z</time>
      </trkpt>
      <trkpt lat="41.90557" lon="20.0473">
        <ele>588.46002197266</ele>
        <time>2023-10-01T06:00:16.000Z</time>
      </trkpt>
      <trkpt lat="41.90554" lon="20.04723">
        <ele>587.97998046875</ele>
        <time>2023-10-01T06:00:15.000Z</time>
      </trkpt>
      <trkpt lat="41.90551" lon="20.04716">
        <ele>587.02001953125</ele>
        <time>2023-10-01T06:00:14.000Z</time>
      </trkpt>
      <trkpt lat="41.90547" lon="20.04709">
        <ele>586.53997802734</ele>
        <time>2023-10-01T06:00:13.000Z</time>
      </trkpt>
      <trkpt lat="41.90542" lon="20.04705">
        <ele>585.58001708984</ele>
        <time>2023-10-01T06:00:12.000Z</time>
      </trkpt>
      <trkpt lat="41.9054" lon="20.04704">
        <ele>585.58001708984</ele>
        <time>2023-10-01T06:00:11.000Z</time>
      </trkpt>
      <trkpt lat="41.90532" lon="20.04701">
        <ele>584.61999511719</ele>
        <time>2023-10-01T06:00:10.000Z</time>
      </trkpt>
      <trkpt lat="41.90524" lon="20.04697">
        <ele>583.65997314453</ele>
        <time>2023-10-01T06:00:09.000Z</time>
      </trkpt>
      <trkpt lat="41.90508" lon="20.04689">
        <ele>582.21997070312</ele>
        <time>2023-10-01T06:00:06.000Z</time>
      </trkpt>
      <trkpt lat="41.90506" lon="20.04688">
        <ele>582.21997070312</ele>
        <time>2023-10-01T06:00:05.000Z</time>
      </trkpt>
      <trkpt lat="41.90498" lon="20.04683">
        <ele>581.25</ele>
        <time>2023-10-01T06:00:04.000Z</time>
      </trkpt>
      <trkpt lat="41.90494" lon="20.04678">
        <ele>580.28997802734</ele>
        <time>2023-10-01T06:00:03.000Z</time>
      </trkpt>
      <trkpt lat="41.90491" lon="20.04671">
        <ele>579.80999755859</ele>
        <time>2023-10-01T06:00:02.000Z</time>
      </trkpt>
      <trkpt lat="41.9049" lon="20.04663">
        <ele>579.33001708984</ele>
        <time>2023-10-01T06:00:01.000Z</time>
      </trkpt>
      <trkpt lat="41.9049" lon="20.04654">
        <ele>578.36999511719</ele>
        <time>2023-10-01T06:00:00.000Z</time>
      </trkpt>
      <trkpt lat="41.90492" lon="20.04646">
        <ele>577.89001464844</ele>
        <time>2023-10-01T05:59:59.000Z</time>
      </trkpt>
      <trkpt lat="41.90496" lon="20.04637">
        <ele>576.92999267578</ele>
        <time>2023-10-01T05:59:58.000Z</time>
      </trkpt>
      <trkpt lat="41.90502" lon="20.04628">
        <ele>575.96997070312</ele>
        <time>2023-10-01T05:59:57.000Z</time>
      </trkpt>
      <trkpt lat="41.90509" lon="20.04621">
        <ele>574.53002929688</ele>
        <time>2023-10-01T05:59:56.000Z</time>
      </trkpt>
      <trkpt lat="41.90516" lon="20.04614">
        <ele>573.08001708984</ele>
        <time>2023-10-01T05:59:55.000Z</time>
      </trkpt>
      <trkpt lat="41.9052" lon="20.0461">
        <ele>572.59997558594</ele>
        <time>2023-10-01T05:59:54.000Z</time>
      </trkpt>
      <trkpt lat="41.90532" lon="20.04597">
        <ele>571.15997314453</ele>
        <time>2023-10-01T05:59:53.000Z</time>
      </trkpt>
      <trkpt lat="41.90538" lon="20.04589">
        <ele>570.20001220703</ele>
        <time>2023-10-01T05:59:52.000Z</time>
      </trkpt>
      <trkpt lat="41.90543" lon="20.04579">
        <ele>569.23999023438</ele>
        <time>2023-10-01T05:59:51.000Z</time>
      </trkpt>
      <trkpt lat="41.90546" lon="20.04571">
        <ele>568.28002929688</ele>
        <time>2023-10-01T05:59:50.000Z</time>
      </trkpt>
      <trkpt lat="41.90549" lon="20.04558">
        <ele>566.83001708984</ele>
        <time>2023-10-01T05:59:49.000Z</time>
      </trkpt>
      <trkpt lat="41.90553" lon="20.0455">
        <ele>566.34997558594</ele>
        <time>2023-10-01T05:59:48.000Z</time>
      </trkpt>
      <trkpt lat="41.90557" lon="20.04543">
        <ele>565.39001464844</ele>
        <time>2023-10-01T05:59:47.000Z</time>
      </trkpt>
      <trkpt lat="41.90562" lon="20.04539">
        <ele>564.42999267578</ele>
        <time>2023-10-01T05:59:46.000Z</time>
      </trkpt>
      <trkpt lat="41.90571" lon="20.04531">
        <ele>562.51000976562</ele>
        <time>2023-10-01T05:59:45.000Z</time>
      </trkpt>
      <trkpt lat="41.90579" lon="20.04522">
        <ele>561.54998779297</ele>
        <time>2023-10-01T05:59:44.000Z</time>
      </trkpt>
      <trkpt lat="41.90581" lon="20.04519">
        <ele>561.07000732422</ele>
        <time>2023-10-01T05:59:43.000Z</time>
      </trkpt>
      <trkpt lat="41.90591" lon="20.04504">
        <ele>559.14001464844</ele>
        <time>2023-10-01T05:59:42.000Z</time>
      </trkpt>
      <trkpt lat="41.90597" lon="20.04497">
        <ele>558.17999267578</ele>
        <time>2023-10-01T05:59:41.000Z</time>
      </trkpt>
      <trkpt lat="41.90604" lon="20.04491">
        <ele>557.70001220703</ele>
        <time>2023-10-01T05:59:40.000Z</time>
      </trkpt>
      <trkpt lat="41.90612" lon="20.04484">
        <ele>555.78002929688</ele>
        <time>2023-10-01T05:59:39.000Z</time>
      </trkpt>
      <trkpt lat="41.90617" lon="20.04477">
        <ele>555.29998779297</ele>
        <time>2023-10-01T05:59:38.000Z</time>
      </trkpt>
      <trkpt lat="41.90621" lon="20.0447">
        <ele>554.34002685547</ele>
        <time>2023-10-01T05:59:37.000Z</time>
      </trkpt>
      <trkpt lat="41.90624" lon="20.04463">
        <ele>553.38000488281</ele>
        <time>2023-10-01T05:59:36.000Z</time>
      </trkpt>
      <trkpt lat="41.90627" lon="20.04456">
        <ele>552.90002441406</ele>
        <time>2023-10-01T05:59:35.000Z</time>
      </trkpt>
      <trkpt lat="41.90628" lon="20.04451">
        <ele>552.90002441406</ele>
        <time>2023-10-01T05:59:34.000Z</time>
      </trkpt>
      <trkpt lat="41.90627" lon="20.04445">
        <ele>552.90002441406</ele>
        <time>2023-10-01T05:59:33.000Z</time>
      </trkpt>
      <trkpt lat="41.90625" lon="20.0444">
        <ele>552.40997314453</ele>
        <time>2023-10-01T05:59:32.000Z</time>
      </trkpt>
      <trkpt lat="41.90621" lon="20.04436">
        <ele>552.90002441406</ele>
        <time>2023-10-01T05:59:31.000Z</time>
      </trkpt>
      <trkpt lat="41.90617" lon="20.04435">
        <ele>552.90002441406</ele>
        <time>2023-10-01T05:59:30.000Z</time>
      </trkpt>
      <trkpt lat="41.90611" lon="20.04437">
        <ele>552.40997314453</ele>
        <time>2023-10-01T05:59:29.000Z</time>
      </trkpt>
      <trkpt lat="41.90607" lon="20.04441">
        <ele>551.92999267578</ele>
        <time>2023-10-01T05:59:28.000Z</time>
      </trkpt>
      <trkpt lat="41.906" lon="20.04446">
        <ele>551.45001220703</ele>
        <time>2023-10-01T05:59:27.000Z</time>
      </trkpt>
      <trkpt lat="41.90594" lon="20.04451">
        <ele>550.96997070312</ele>
        <time>2023-10-01T05:59:26.000Z</time>
      </trkpt>
      <trkpt lat="41.90588" lon="20.04454">
        <ele>550.01000976562</ele>
        <time>2023-10-01T05:59:25.000Z</time>
      </trkpt>
      <trkpt lat="41.90586" lon="20.04455">
        <ele>550.01000976562</ele>
        <time>2023-10-01T05:59:24.000Z</time>
      </trkpt>
      <trkpt lat="41.90571" lon="20.04461">
        <ele>549.04998779297</ele>
        <time>2023-10-01T05:59:23.000Z</time>
      </trkpt>
      <trkpt lat="41.90566" lon="20.04463">
        <ele>548.57000732422</ele>
        <time>2023-10-01T05:59:22.000Z</time>
      </trkpt>
      <trkpt lat="41.90558" lon="20.04469">
        <ele>547.60998535156</ele>
        <time>2023-10-01T05:59:21.000Z</time>
      </trkpt>
      <trkpt lat="41.90551" lon="20.04471">
        <ele>547.13000488281</ele>
        <time>2023-10-01T05:59:20.000Z</time>
      </trkpt>
      <trkpt lat="41.90545" lon="20.04471">
        <ele>546.65002441406</ele>
        <time>2023-10-01T05:59:19.000Z</time>
      </trkpt>
      <trkpt lat="41.90538" lon="20.0447">
        <ele>545.20001220703</ele>
        <time>2023-10-01T05:59:18.000Z</time>
      </trkpt>
      <trkpt lat="41.90531" lon="20.0447">
        <ele>544.23999023438</ele>
        <time>2023-10-01T05:59:17.000Z</time>
      </trkpt>
      <trkpt lat="41.90525" lon="20.04472">
        <ele>543.76000976562</ele>
        <time>2023-10-01T05:59:16.000Z</time>
      </trkpt>
      <trkpt lat="41.90518" lon="20.04476">
        <ele>543.28002929688</ele>
        <time>2023-10-01T05:59:15.000Z</time>
      </trkpt>
      <trkpt lat="41.9051" lon="20.04483">
        <ele>542.79998779297</ele>
        <time>2023-10-01T05:59:14.000Z</time>
      </trkpt>
      <trkpt lat="41.90504" lon="20.04489">
        <ele>542.32000732422</ele>
        <time>2023-10-01T05:59:13.000Z</time>
      </trkpt>
      <trkpt lat="41.90497" lon="20.04497">
        <ele>541.84002685547</ele>
        <time>2023-10-01T05:59:12.000Z</time>
      </trkpt>
      <trkpt lat="41.90486" lon="20.04513">
        <ele>540.88000488281</ele>
        <time>2023-10-01T05:59:10.000Z</time>
      </trkpt>
      <trkpt lat="41.90481" lon="20.04518">
        <ele>539.91998291016</ele>
        <time>2023-10-01T05:59:09.000Z</time>
      </trkpt>
      <trkpt lat="41.90475" lon="20.04521">
        <ele>539.44000244141</ele>
        <time>2023-10-01T05:59:08.000Z</time>
      </trkpt>
      <trkpt lat="41.90468" lon="20.04521">
        <ele>538.47998046875</ele>
        <time>2023-10-01T05:59:07.000Z</time>
      </trkpt>
      <trkpt lat="41.90463" lon="20.0452">
        <ele>538.47998046875</ele>
        <time>2023-10-01T05:59:06.000Z</time>
      </trkpt>
      <trkpt lat="41.90452" lon="20.04518">
        <ele>537.98999023438</ele>
        <time>2023-10-01T05:59:05.000Z</time>
      </trkpt>
      <trkpt lat="41.90444" lon="20.04517">
        <ele>537.98999023438</ele>
        <time>2023-10-01T05:59:04.000Z</time>
      </trkpt>
      <trkpt lat="41.90436" lon="20.04518">
        <ele>537.98999023438</ele>
        <time>2023-10-01T05:59:03.000Z</time>
      </trkpt>
      <trkpt lat="41.90429" lon="20.04521">
        <ele>537.98999023438</ele>
        <time>2023-10-01T05:59:02.000Z</time>
      </trkpt>
      <trkpt lat="41.90423" lon="20.04525">
        <ele>537.98999023438</ele>
        <time>2023-10-01T05:59:01.000Z</time>
      </trkpt>
      <trkpt lat="41.90415" lon="20.04531">
        <ele>537.98999023438</ele>
        <time>2023-10-01T05:59:00.000Z</time>
      </trkpt>
      <trkpt lat="41.90409" lon="20.04536">
        <ele>537.98999023438</ele>
        <time>2023-10-01T05:58:59.000Z</time>
      </trkpt>
      <trkpt lat="41.90403" lon="20.04538">
        <ele>537.98999023438</ele>
        <time>2023-10-01T05:58:58.000Z</time>
      </trkpt>
      <trkpt lat="41.90398" lon="20.04538">
        <ele>538.47998046875</ele>
        <time>2023-10-01T05:58:57.000Z</time>
      </trkpt>
      <trkpt lat="41.90393" lon="20.04536">
        <ele>537.51000976562</ele>
        <time>2023-10-01T05:58:56.000Z</time>
      </trkpt>
      <trkpt lat="41.90389" lon="20.04533">
        <ele>537.03002929688</ele>
        <time>2023-10-01T05:58:55.000Z</time>
      </trkpt>
      <trkpt lat="41.90386" lon="20.04528">
        <ele>536.54998779297</ele>
        <time>2023-10-01T05:58:54.000Z</time>
      </trkpt>
      <trkpt lat="41.90383" lon="20.0452">
        <ele>535.59002685547</ele>
        <time>2023-10-01T05:58:53.000Z</time>
      </trkpt>
      <trkpt lat="41.90379" lon="20.04509">
        <ele>534.15002441406</ele>
        <time>2023-10-01T05:58:52.000Z</time>
      </trkpt>
      <trkpt lat="41.90375" lon="20.04498">
        <ele>533.66998291016</ele>
        <time>2023-10-01T05:58:51.000Z</time>
      </trkpt>
      <trkpt lat="41.9037" lon="20.0449">
        <ele>532.71002197266</ele>
        <time>2023-10-01T05:58:50.000Z</time>
      </trkpt>
      <trkpt lat="41.90364" lon="20.04482">
        <ele>531.27001953125</ele>
        <time>2023-10-01T05:58:49.000Z</time>
      </trkpt>
      <trkpt lat="41.90355" lon="20.04474">
        <ele>529.34002685547</ele>
        <time>2023-10-01T05:58:47.000Z</time>
      </trkpt>
      <trkpt lat="41.90342" lon="20.04462">
        <ele>526.46002197266</ele>
        <time>2023-10-01T05:58:46.000Z</time>
      </trkpt>
      <trkpt lat="41.90336" lon="20.04458">
        <ele>525.97998046875</ele>
        <time>2023-10-01T05:58:45.000Z</time>
      </trkpt>
      <trkpt lat="41.9033" lon="20.04456">
        <ele>525.97998046875</ele>
        <time>2023-10-01T05:58:44.000Z</time>
      </trkpt>
      <trkpt lat="41.90321" lon="20.04453">
        <ele>525.5</ele>
        <time>2023-10-01T05:58:43.000Z</time>
      </trkpt>
      <trkpt lat="41.90314" lon="20.04453">
        <ele>525.97998046875</ele>
        <time>2023-10-01T05:58:42.000Z</time>
      </trkpt>
      <trkpt lat="41.90308" lon="20.04454">
        <ele>525.5</ele>
        <time>2023-10-01T05:58:41.000Z</time>
      </trkpt>
      <trkpt lat="41.90301" lon="20.04456">
        <ele>525.02001953125</ele>
        <time>2023-10-01T05:58:40.000Z</time>
      </trkpt>
      <trkpt lat="41.90292" lon="20.04462">
        <ele>524.53997802734</ele>
        <time>2023-10-01T05:58:39.000Z</time>
      </trkpt>
      <trkpt lat="41.90287" lon="20.04467">
        <ele>524.53997802734</ele>
        <time>2023-10-01T05:58:38.000Z</time>
      </trkpt>
      <trkpt lat="41.90277" lon="20.04476">
        <ele>524.05999755859</ele>
        <time>2023-10-01T05:58:37.000Z</time>
      </trkpt>
      <trkpt lat="41.90269" lon="20.04484">
        <ele>523.58001708984</ele>
        <time>2023-10-01T05:58:36.000Z</time>
      </trkpt>
      <trkpt lat="41.90263" lon="20.0449">
        <ele>523.09002685547</ele>
        <time>2023-10-01T05:58:35.000Z</time>
      </trkpt>
      <trkpt lat="41.9025" lon="20.04506">
        <ele>522.13000488281</ele>
        <time>2023-10-01T05:58:33.000Z</time>
      </trkpt>
      <trkpt lat="41.90246" lon="20.04511">
        <ele>521.65002441406</ele>
        <time>2023-10-01T05:58:32.000Z</time>
      </trkpt>
      <trkpt lat="41.90241" lon="20.04514">
        <ele>520.69000244141</ele>
        <time>2023-10-01T05:58:31.000Z</time>
      </trkpt>
      <trkpt lat="41.90237" lon="20.04516">
        <ele>520.21002197266</ele>
        <time>2023-10-01T05:58:30.000Z</time>
      </trkpt>
      <trkpt lat="41.90232" lon="20.04516">
        <ele>519.25</ele>
        <time>2023-10-01T05:58:29.000Z</time>
      </trkpt>
      <trkpt lat="41.90227" lon="20.04513">
        <ele>518.77001953125</ele>
        <time>2023-10-01T05:58:28.000Z</time>
      </trkpt>
      <trkpt lat="41.90221" lon="20.04509">
        <ele>518.28997802734</ele>
        <time>2023-10-01T05:58:27.000Z</time>
      </trkpt>
      <trkpt lat="41.90213" lon="20.04503">
        <ele>517.80999755859</ele>
        <time>2023-10-01T05:58:26.000Z</time>
      </trkpt>
      <trkpt lat="41.90204" lon="20.04496">
        <ele>516.84997558594</ele>
        <time>2023-10-01T05:58:25.000Z</time>
      </trkpt>
      <trkpt lat="41.90197" lon="20.0449">
        <ele>516.36999511719</ele>
        <time>2023-10-01T05:58:24.000Z</time>
      </trkpt>
      <trkpt lat="41.90189" lon="20.04483">
        <ele>514.91998291016</ele>
        <time>2023-10-01T05:58:23.000Z</time>
      </trkpt>
      <trkpt lat="41.90182" lon="20.0448">
        <ele>513.96002197266</ele>
        <time>2023-10-01T05:58:22.000Z</time>
      </trkpt>
      <trkpt lat="41.90174" lon="20.04478">
        <ele>513</ele>
        <time>2023-10-01T05:58:21.000Z</time>
      </trkpt>
      <trkpt lat="41.90159" lon="20.04476">
        <ele>511.07998657227</ele>
        <time>2023-10-01T05:58:19.000Z</time>
      </trkpt>
      <trkpt lat="41.9015" lon="20.04474">
        <ele>510.11999511719</ele>
        <time>2023-10-01T05:58:18.000Z</time>
      </trkpt>
      <trkpt lat="41.90143" lon="20.04472">
        <ele>509.64001464844</ele>
        <time>2023-10-01T05:58:17.000Z</time>
      </trkpt>
      <trkpt lat="41.90136" lon="20.04468">
        <ele>508.19000244141</ele>
        <time>2023-10-01T05:58:16.000Z</time>
      </trkpt>
      <trkpt lat="41.9013" lon="20.04463">
        <ele>506.75</ele>
        <time>2023-10-01T05:58:15.000Z</time>
      </trkpt>
      <trkpt lat="41.90125" lon="20.04458">
        <ele>506.26998901367</ele>
        <time>2023-10-01T05:58:14.000Z</time>
      </trkpt>
      <trkpt lat="41.90122" lon="20.04454">
        <ele>505.79000854492</ele>
        <time>2023-10-01T05:58:13.000Z</time>
      </trkpt>
      <trkpt lat="41.90113" lon="20.04443">
        <ele>504.82998657227</ele>
        <time>2023-10-01T05:58:12.000Z</time>
      </trkpt>
      <trkpt lat="41.90107" lon="20.04435">
        <ele>502.91000366211</ele>
        <time>2023-10-01T05:58:11.000Z</time>
      </trkpt>
      <trkpt lat="41.90101" lon="20.04429">
        <ele>501.95001220703</ele>
        <time>2023-10-01T05:58:10.000Z</time>
      </trkpt>
      <trkpt lat="41.90096" lon="20.04425">
        <ele>500.5</ele>
        <time>2023-10-01T05:58:09.000Z</time>
      </trkpt>
      <trkpt lat="41.90088" lon="20.04426">
        <ele>498.10000610352</ele>
        <time>2023-10-01T05:58:07.000Z</time>
      </trkpt>
      <trkpt lat="41.90084" lon="20.04431">
        <ele>498.10000610352</ele>
        <time>2023-10-01T05:58:06.000Z</time>
      </trkpt>
      <trkpt lat="41.90081" lon="20.04437">
        <ele>497.61999511719</ele>
        <time>2023-10-01T05:58:05.000Z</time>
      </trkpt>
      <trkpt lat="41.90074" lon="20.04448">
        <ele>497.14001464844</ele>
        <time>2023-10-01T05:58:04.000Z</time>
      </trkpt>
      <trkpt lat="41.9007" lon="20.04457">
        <ele>496.66000366211</ele>
        <time>2023-10-01T05:58:03.000Z</time>
      </trkpt>
      <trkpt lat="41.90068" lon="20.04467">
        <ele>496.17999267578</ele>
        <time>2023-10-01T05:58:02.000Z</time>
      </trkpt>
      <trkpt lat="41.90067" lon="20.0448">
        <ele>495.2200012207</ele>
        <time>2023-10-01T05:58:01.000Z</time>
      </trkpt>
      <trkpt lat="41.90066" lon="20.04492">
        <ele>495.2200012207</ele>
        <time>2023-10-01T05:58:00.000Z</time>
      </trkpt>
      <trkpt lat="41.90067" lon="20.045">
        <ele>494.73999023438</ele>
        <time>2023-10-01T05:57:59.000Z</time>
      </trkpt>
      <trkpt lat="41.90069" lon="20.04504">
        <ele>494.26000976562</ele>
        <time>2023-10-01T05:57:58.000Z</time>
      </trkpt>
      <trkpt lat="41.90073" lon="20.04518">
        <ele>493.76998901367</ele>
        <time>2023-10-01T05:57:57.000Z</time>
      </trkpt>
      <trkpt lat="41.90075" lon="20.04525">
        <ele>493.29000854492</ele>
        <time>2023-10-01T05:57:56.000Z</time>
      </trkpt>
      <trkpt lat="41.90076" lon="20.04533">
        <ele>492.80999755859</ele>
        <time>2023-10-01T05:57:55.000Z</time>
      </trkpt>
      <trkpt lat="41.90074" lon="20.04542">
        <ele>492.32998657227</ele>
        <time>2023-10-01T05:57:54.000Z</time>
      </trkpt>
      <trkpt lat="41.90073" lon="20.04547">
        <ele>491.85000610352</ele>
        <time>2023-10-01T05:57:53.000Z</time>
      </trkpt>
      <trkpt lat="41.90066" lon="20.04567">
        <ele>490.89001464844</ele>
        <time>2023-10-01T05:57:51.000Z</time>
      </trkpt>
      <trkpt lat="41.9006" lon="20.04581">
        <ele>489.92999267578</ele>
        <time>2023-10-01T05:57:50.000Z</time>
      </trkpt>
      <trkpt lat="41.90056" lon="20.04589">
        <ele>489.45001220703</ele>
        <time>2023-10-01T05:57:49.000Z</time>
      </trkpt>
      <trkpt lat="41.90051" lon="20.04594">
        <ele>489.45001220703</ele>
        <time>2023-10-01T05:57:48.000Z</time>
      </trkpt>
      <trkpt lat="41.90046" lon="20.04598">
        <ele>488.48999023438</ele>
        <time>2023-10-01T05:57:47.000Z</time>
      </trkpt>
      <trkpt lat="41.90041" lon="20.04599">
        <ele>488.48999023438</ele>
        <time>2023-10-01T05:57:46.000Z</time>
      </trkpt>
      <trkpt lat="41.90034" lon="20.046">
        <ele>488.01000976562</ele>
        <time>2023-10-01T05:57:45.000Z</time>
      </trkpt>
      <trkpt lat="41.90032" lon="20.046">
        <ele>488.01000976562</ele>
        <time>2023-10-01T05:57:44.000Z</time>
      </trkpt>
      <trkpt lat="41.90022" lon="20.04599">
        <ele>488.48999023438</ele>
        <time>2023-10-01T05:57:43.000Z</time>
      </trkpt>
      <trkpt lat="41.90018" lon="20.04599">
        <ele>488.9700012207</ele>
        <time>2023-10-01T05:57:42.000Z</time>
      </trkpt>
      <trkpt lat="41.90013" lon="20.04597">
        <ele>488.9700012207</ele>
        <time>2023-10-01T05:57:41.000Z</time>
      </trkpt>
      <trkpt lat="41.90007" lon="20.04594">
        <ele>489.92999267578</ele>
        <time>2023-10-01T05:57:40.000Z</time>
      </trkpt>
      <trkpt lat="41.90003" lon="20.04591">
        <ele>490.41000366211</ele>
        <time>2023-10-01T05:57:39.000Z</time>
      </trkpt>
      <trkpt lat="41.89999" lon="20.04585">
        <ele>490.89001464844</ele>
        <time>2023-10-01T05:57:38.000Z</time>
      </trkpt>
      <trkpt lat="41.89996" lon="20.0458">
        <ele>490.89001464844</ele>
        <time>2023-10-01T05:57:37.000Z</time>
      </trkpt>
      <trkpt lat="41.89992" lon="20.04574">
        <ele>491.36999511719</ele>
        <time>2023-10-01T05:57:36.000Z</time>
      </trkpt>
      <trkpt lat="41.89986" lon="20.04567">
        <ele>491.85000610352</ele>
        <time>2023-10-01T05:57:35.000Z</time>
      </trkpt>
      <trkpt lat="41.89982" lon="20.04561">
        <ele>492.32998657227</ele>
        <time>2023-10-01T05:57:34.000Z</time>
      </trkpt>
      <trkpt lat="41.89977" lon="20.04557">
        <ele>492.32998657227</ele>
        <time>2023-10-01T05:57:33.000Z</time>
      </trkpt>
      <trkpt lat="41.89971" lon="20.04551">
        <ele>492.32998657227</ele>
        <time>2023-10-01T05:57:32.000Z</time>
      </trkpt>
      <trkpt lat="41.89967" lon="20.04549">
        <ele>492.32998657227</ele>
        <time>2023-10-01T05:57:31.000Z</time>
      </trkpt>
      <trkpt lat="41.89959" lon="20.04542">
        <ele>492.32998657227</ele>
        <time>2023-10-01T05:57:30.000Z</time>
      </trkpt>
      <trkpt lat="41.89949" lon="20.04534">
        <ele>492.80999755859</ele>
        <time>2023-10-01T05:57:29.000Z</time>
      </trkpt>
      <trkpt lat="41.89943" lon="20.04529">
        <ele>492.80999755859</ele>
        <time>2023-10-01T05:57:28.000Z</time>
      </trkpt>
      <trkpt lat="41.89935" lon="20.04526">
        <ele>492.80999755859</ele>
        <time>2023-10-01T05:57:27.000Z</time>
      </trkpt>
      <trkpt lat="41.89933" lon="20.04525">
        <ele>493.29000854492</ele>
        <time>2023-10-01T05:57:26.000Z</time>
      </trkpt>
      <trkpt lat="41.89908" lon="20.04518">
        <ele>493.76998901367</ele>
        <time>2023-10-01T05:57:24.000Z</time>
      </trkpt>
      <trkpt lat="41.899" lon="20.04518">
        <ele>494.26000976562</ele>
        <time>2023-10-01T05:57:23.000Z</time>
      </trkpt>
      <trkpt lat="41.89893" lon="20.04519">
        <ele>494.73999023438</ele>
        <time>2023-10-01T05:57:22.000Z</time>
      </trkpt>
      <trkpt lat="41.89885" lon="20.04522">
        <ele>495.70001220703</ele>
        <time>2023-10-01T05:57:21.000Z</time>
      </trkpt>
      <trkpt lat="41.89877" lon="20.04525">
        <ele>496.17999267578</ele>
        <time>2023-10-01T05:57:20.000Z</time>
      </trkpt>
      <trkpt lat="41.89872" lon="20.04527">
        <ele>496.66000366211</ele>
        <time>2023-10-01T05:57:19.000Z</time>
      </trkpt>
      <trkpt lat="41.89869" lon="20.0453">
        <ele>496.66000366211</ele>
        <time>2023-10-01T05:57:18.000Z</time>
      </trkpt>
      <trkpt lat="41.8986" lon="20.04538">
        <ele>497.61999511719</ele>
        <time>2023-10-01T05:57:17.000Z</time>
      </trkpt>
      <trkpt lat="41.89855" lon="20.04541">
        <ele>498.57998657227</ele>
        <time>2023-10-01T05:57:16.000Z</time>
      </trkpt>
      <trkpt lat="41.8985" lon="20.04543">
        <ele>499.54000854492</ele>
        <time>2023-10-01T05:57:15.000Z</time>
      </trkpt>
      <trkpt lat="41.89845" lon="20.04543">
        <ele>500.01998901367</ele>
        <time>2023-10-01T05:57:14.000Z</time>
      </trkpt>
      <trkpt lat="41.89841" lon="20.0454">
        <ele>500.01998901367</ele>
        <time>2023-10-01T05:57:13.000Z</time>
      </trkpt>
      <trkpt lat="41.89837" lon="20.04536">
        <ele>500.5</ele>
        <time>2023-10-01T05:57:12.000Z</time>
      </trkpt>
      <trkpt lat="41.89833" lon="20.0453">
        <ele>500.5</ele>
        <time>2023-10-01T05:57:11.000Z</time>
      </trkpt>
      <trkpt lat="41.89816" lon="20.04506">
        <ele>500.98001098633</ele>
        <time>2023-10-01T05:57:08.000Z</time>
      </trkpt>
      <trkpt lat="41.89812" lon="20.04498">
        <ele>501.45999145508</ele>
        <time>2023-10-01T05:57:07.000Z</time>
      </trkpt>
      <trkpt lat="41.8981" lon="20.04491">
        <ele>501.45999145508</ele>
        <time>2023-10-01T05:57:06.000Z</time>
      </trkpt>
      <trkpt lat="41.89808" lon="20.04482">
        <ele>501.95001220703</ele>
        <time>2023-10-01T05:57:05.000Z</time>
      </trkpt>
      <trkpt lat="41.89807" lon="20.04477">
        <ele>501.95001220703</ele>
        <time>2023-10-01T05:57:04.000Z</time>
      </trkpt>
      <trkpt lat="41.89806" lon="20.04466">
        <ele>501.95001220703</ele>
        <time>2023-10-01T05:57:03.000Z</time>
      </trkpt>
      <trkpt lat="41.89807" lon="20.04459">
        <ele>501.95001220703</ele>
        <time>2023-10-01T05:57:02.000Z</time>
      </trkpt>
      <trkpt lat="41.89807" lon="20.04451">
        <ele>501.95001220703</ele>
        <time>2023-10-01T05:57:01.000Z</time>
      </trkpt>
      <trkpt lat="41.89808" lon="20.04445">
        <ele>501.95001220703</ele>
        <time>2023-10-01T05:57:00.000Z</time>
      </trkpt>
      <trkpt lat="41.8981" lon="20.04436">
        <ele>501.95001220703</ele>
        <time>2023-10-01T05:56:59.000Z</time>
      </trkpt>
      <trkpt lat="41.89811" lon="20.04432">
        <ele>501.95001220703</ele>
        <time>2023-10-01T05:56:58.000Z</time>
      </trkpt>
      <trkpt lat="41.89813" lon="20.04422">
        <ele>501.95001220703</ele>
        <time>2023-10-01T05:56:57.000Z</time>
      </trkpt>
      <trkpt lat="41.89814" lon="20.04419">
        <ele>501.95001220703</ele>
        <time>2023-10-01T05:56:56.000Z</time>
      </trkpt>
      <trkpt lat="41.8981" lon="20.04402">
        <ele>502.42999267578</ele>
        <time>2023-10-01T05:56:53.000Z</time>
      </trkpt>
      <trkpt lat="41.89808" lon="20.044">
        <ele>502.42999267578</ele>
        <time>2023-10-01T05:56:52.000Z</time>
      </trkpt>
      <trkpt lat="41.89802" lon="20.04393">
        <ele>501.95001220703</ele>
        <time>2023-10-01T05:56:50.000Z</time>
      </trkpt>
      <trkpt lat="41.89797" lon="20.04388">
        <ele>502.42999267578</ele>
        <time>2023-10-01T05:56:49.000Z</time>
      </trkpt>
      <trkpt lat="41.89793" lon="20.04386">
        <ele>502.91000366211</ele>
        <time>2023-10-01T05:56:48.000Z</time>
      </trkpt>
      <trkpt lat="41.89788" lon="20.04385">
        <ele>503.39001464844</ele>
        <time>2023-10-01T05:56:47.000Z</time>
      </trkpt>
      <trkpt lat="41.89784" lon="20.04386">
        <ele>503.86999511719</ele>
        <time>2023-10-01T05:56:46.000Z</time>
      </trkpt>
      <trkpt lat="41.8978" lon="20.04388">
        <ele>503.86999511719</ele>
        <time>2023-10-01T05:56:45.000Z</time>
      </trkpt>
      <trkpt lat="41.89776" lon="20.04393">
        <ele>504.35000610352</ele>
        <time>2023-10-01T05:56:44.000Z</time>
      </trkpt>
      <trkpt lat="41.89774" lon="20.04395">
        <ele>504.82998657227</ele>
        <time>2023-10-01T05:56:43.000Z</time>
      </trkpt>
      <trkpt lat="41.89769" lon="20.04404">
        <ele>505.30999755859</ele>
        <time>2023-10-01T05:56:42.000Z</time>
      </trkpt>
      <trkpt lat="41.89765" lon="20.04409">
        <ele>505.30999755859</ele>
        <time>2023-10-01T05:56:41.000Z</time>
      </trkpt>
      <trkpt lat="41.89763" lon="20.04411">
        <ele>505.79000854492</ele>
        <time>2023-10-01T05:56:40.000Z</time>
      </trkpt>
      <trkpt lat="41.89751" lon="20.0441">
        <ele>505.79000854492</ele>
        <time>2023-10-01T05:56:37.000Z</time>
      </trkpt>
      <trkpt lat="41.89749" lon="20.04405">
        <ele>505.30999755859</ele>
        <time>2023-10-01T05:56:36.000Z</time>
      </trkpt>
      <trkpt lat="41.89746" lon="20.04399">
        <ele>505.30999755859</ele>
        <time>2023-10-01T05:56:35.000Z</time>
      </trkpt>
      <trkpt lat="41.89744" lon="20.04391">
        <ele>505.30999755859</ele>
        <time>2023-10-01T05:56:34.000Z</time>
      </trkpt>
      <trkpt lat="41.89743" lon="20.04384">
        <ele>505.30999755859</ele>
        <time>2023-10-01T05:56:33.000Z</time>
      </trkpt>
      <trkpt lat="41.89742" lon="20.04374">
        <ele>505.79000854492</ele>
        <time>2023-10-01T05:56:32.000Z</time>
      </trkpt>
      <trkpt lat="41.89741" lon="20.04364">
        <ele>506.26998901367</ele>
        <time>2023-10-01T05:56:31.000Z</time>
      </trkpt>
      <trkpt lat="41.89741" lon="20.04362">
        <ele>505.79000854492</ele>
        <time>2023-10-01T05:56:30.000Z</time>
      </trkpt>
      <trkpt lat="41.8974" lon="20.0435">
        <ele>506.26998901367</ele>
        <time>2023-10-01T05:56:29.000Z</time>
      </trkpt>
      <trkpt lat="41.89739" lon="20.04343">
        <ele>506.26998901367</ele>
        <time>2023-10-01T05:56:28.000Z</time>
      </trkpt>
      <trkpt lat="41.89738" lon="20.04337">
        <ele>506.26998901367</ele>
        <time>2023-10-01T05:56:27.000Z</time>
      </trkpt>
      <trkpt lat="41.89729" lon="20.04328">
        <ele>502.42999267578</ele>
        <time>2023-10-01T05:55:54.000Z</time>
      </trkpt>
      <trkpt lat="41.89723" lon="20.04323">
        <ele>501.45999145508</ele>
        <time>2023-10-01T05:55:47.000Z</time>
      </trkpt>
      <trkpt lat="41.89719" lon="20.04321">
        <ele>500.98001098633</ele>
        <time>2023-10-01T05:55:46.000Z</time>
      </trkpt>
      <trkpt lat="41.89712" lon="20.04322">
        <ele>499.54000854492</ele>
        <time>2023-10-01T05:55:45.000Z</time>
      </trkpt>
      <trkpt lat="41.8971" lon="20.04323">
        <ele>499.54000854492</ele>
        <time>2023-10-01T05:55:44.000Z</time>
      </trkpt>
      <trkpt lat="41.89699" lon="20.04327">
        <ele>498.57998657227</ele>
        <time>2023-10-01T05:55:43.000Z</time>
      </trkpt>
      <trkpt lat="41.89692" lon="20.04327">
        <ele>497.61999511719</ele>
        <time>2023-10-01T05:55:42.000Z</time>
      </trkpt>
      <trkpt lat="41.89685" lon="20.04326">
        <ele>497.14001464844</ele>
        <time>2023-10-01T05:55:41.000Z</time>
      </trkpt>
      <trkpt lat="41.89678" lon="20.04321">
        <ele>496.17999267578</ele>
        <time>2023-10-01T05:55:40.000Z</time>
      </trkpt>
      <trkpt lat="41.89672" lon="20.04316">
        <ele>495.70001220703</ele>
        <time>2023-10-01T05:55:39.000Z</time>
      </trkpt>
      <trkpt lat="41.89664" lon="20.0431">
        <ele>494.73999023438</ele>
        <time>2023-10-01T05:55:38.000Z</time>
      </trkpt>
      <trkpt lat="41.89657" lon="20.04306">
        <ele>494.26000976562</ele>
        <time>2023-10-01T05:55:37.000Z</time>
      </trkpt>
      <trkpt lat="41.89649" lon="20.04304">
        <ele>493.76998901367</ele>
        <time>2023-10-01T05:55:36.000Z</time>
      </trkpt>
      <trkpt lat="41.89643" lon="20.04301">
        <ele>492.80999755859</ele>
        <time>2023-10-01T05:55:35.000Z</time>
      </trkpt>
      <trkpt lat="41.89637" lon="20.04296">
        <ele>491.85000610352</ele>
        <time>2023-10-01T05:55:34.000Z</time>
      </trkpt>
      <trkpt lat="41.89632" lon="20.04287">
        <ele>490.89001464844</ele>
        <time>2023-10-01T05:55:33.000Z</time>
      </trkpt>
      <trkpt lat="41.8963" lon="20.04281">
        <ele>490.89001464844</ele>
        <time>2023-10-01T05:55:32.000Z</time>
      </trkpt>
      <trkpt lat="41.89625" lon="20.04265">
        <ele>489.45001220703</ele>
        <time>2023-10-01T05:55:31.000Z</time>
      </trkpt>
      <trkpt lat="41.89622" lon="20.04258">
        <ele>488.9700012207</ele>
        <time>2023-10-01T05:55:30.000Z</time>
      </trkpt>
      <trkpt lat="41.89619" lon="20.04246">
        <ele>488.01000976562</ele>
        <time>2023-10-01T05:55:29.000Z</time>
      </trkpt>
      <trkpt lat="41.89615" lon="20.04236">
        <ele>486.55999755859</ele>
        <time>2023-10-01T05:55:28.000Z</time>
      </trkpt>
      <trkpt lat="41.89611" lon="20.04229">
        <ele>486.55999755859</ele>
        <time>2023-10-01T05:55:27.000Z</time>
      </trkpt>
      <trkpt lat="41.89607" lon="20.04224">
        <ele>486.55999755859</ele>
        <time>2023-10-01T05:55:26.000Z</time>
      </trkpt>
      <trkpt lat="41.89601" lon="20.0422">
        <ele>486.55999755859</ele>
        <time>2023-10-01T05:55:25.000Z</time>
      </trkpt>
      <trkpt lat="41.89595" lon="20.0422">
        <ele>485.60000610352</ele>
        <time>2023-10-01T05:55:24.000Z</time>
      </trkpt>
      <trkpt lat="41.8959" lon="20.0422">
        <ele>485.11999511719</ele>
        <time>2023-10-01T05:55:23.000Z</time>
      </trkpt>
      <trkpt lat="41.89582" lon="20.04223">
        <ele>484.64001464844</ele>
        <time>2023-10-01T05:55:22.000Z</time>
      </trkpt>
      <trkpt lat="41.8958" lon="20.04224">
        <ele>484.64001464844</ele>
        <time>2023-10-01T05:55:21.000Z</time>
      </trkpt>
      <trkpt lat="41.89558" lon="20.04235">
        <ele>482.7200012207</ele>
        <time>2023-10-01T05:55:19.000Z</time>
      </trkpt>
      <trkpt lat="41.89548" lon="20.04237">
        <ele>482.23999023438</ele>
        <time>2023-10-01T05:55:18.000Z</time>
      </trkpt>
      <trkpt lat="41.89532" lon="20.04239">
        <ele>481.2799987793</ele>
        <time>2023-10-01T05:55:16.000Z</time>
      </trkpt>
      <trkpt lat="41.89525" lon="20.04243">
        <ele>480.79998779297</ele>
        <time>2023-10-01T05:55:15.000Z</time>
      </trkpt>
      <trkpt lat="41.89522" lon="20.04244">
        <ele>480.32000732422</ele>
        <time>2023-10-01T05:55:14.000Z</time>
      </trkpt>
      <trkpt lat="41.89512" lon="20.04253">
        <ele>478.86999511719</ele>
        <time>2023-10-01T05:55:13.000Z</time>
      </trkpt>
      <trkpt lat="41.89506" lon="20.04256">
        <ele>478.39001464844</ele>
        <time>2023-10-01T05:55:12.000Z</time>
      </trkpt>
      <trkpt lat="41.89501" lon="20.04258">
        <ele>477.91000366211</ele>
        <time>2023-10-01T05:55:11.000Z</time>
      </trkpt>
      <trkpt lat="41.89495" lon="20.04256">
        <ele>477.42999267578</ele>
        <time>2023-10-01T05:55:10.000Z</time>
      </trkpt>
      <trkpt lat="41.89491" lon="20.04253">
        <ele>476.4700012207</ele>
        <time>2023-10-01T05:55:09.000Z</time>
      </trkpt>
      <trkpt lat="41.89487" lon="20.04248">
        <ele>475.51000976562</ele>
        <time>2023-10-01T05:55:08.000Z</time>
      </trkpt>
      <trkpt lat="41.89482" lon="20.04238">
        <ele>474.07000732422</ele>
        <time>2023-10-01T05:55:07.000Z</time>
      </trkpt>
      <trkpt lat="41.89477" lon="20.04231">
        <ele>473.10998535156</ele>
        <time>2023-10-01T05:55:06.000Z</time>
      </trkpt>
      <trkpt lat="41.89472" lon="20.04223">
        <ele>472.14001464844</ele>
        <time>2023-10-01T05:55:05.000Z</time>
      </trkpt>
      <trkpt lat="41.89466" lon="20.04215">
        <ele>470.70001220703</ele>
        <time>2023-10-01T05:55:04.000Z</time>
      </trkpt>
      <trkpt lat="41.8946" lon="20.04205">
        <ele>469.26000976562</ele>
        <time>2023-10-01T05:55:03.000Z</time>
      </trkpt>
      <trkpt lat="41.89455" lon="20.04197">
        <ele>468.29998779297</ele>
        <time>2023-10-01T05:55:02.000Z</time>
      </trkpt>
      <trkpt lat="41.89452" lon="20.04191">
        <ele>467.82000732422</ele>
        <time>2023-10-01T05:55:01.000Z</time>
      </trkpt>
      <trkpt lat="41.89446" lon="20.04175">
        <ele>466.38000488281</ele>
        <time>2023-10-01T05:55:00.000Z</time>
      </trkpt>
      <trkpt lat="41.89441" lon="20.0416">
        <ele>465.42001342773</ele>
        <time>2023-10-01T05:54:58.000Z</time>
      </trkpt>
      <trkpt lat="41.89435" lon="20.04142">
        <ele>463.9700012207</ele>
        <time>2023-10-01T05:54:57.000Z</time>
      </trkpt>
      <trkpt lat="41.89431" lon="20.04129">
        <ele>463.01000976562</ele>
        <time>2023-10-01T05:54:56.000Z</time>
      </trkpt>
      <trkpt lat="41.89427" lon="20.04119">
        <ele>462.5299987793</ele>
        <time>2023-10-01T05:54:55.000Z</time>
      </trkpt>
      <trkpt lat="41.89423" lon="20.04108">
        <ele>461.57000732422</ele>
        <time>2023-10-01T05:54:54.000Z</time>
      </trkpt>
      <trkpt lat="41.89417" lon="20.04097">
        <ele>461.08999633789</ele>
        <time>2023-10-01T05:54:52.000Z</time>
      </trkpt>
      <trkpt lat="41.89403" lon="20.04065">
        <ele>459.64999389648</ele>
        <time>2023-10-01T05:54:50.000Z</time>
      </trkpt>
      <trkpt lat="41.89398" lon="20.04056">
        <ele>459.17001342773</ele>
        <time>2023-10-01T05:54:49.000Z</time>
      </trkpt>
      <trkpt lat="41.89393" lon="20.04047">
        <ele>459.17001342773</ele>
        <time>2023-10-01T05:54:48.000Z</time>
      </trkpt>
      <trkpt lat="41.89388" lon="20.0404">
        <ele>458.20999145508</ele>
        <time>2023-10-01T05:54:47.000Z</time>
      </trkpt>
      <trkpt lat="41.89384" lon="20.04035">
        <ele>457.7200012207</ele>
        <time>2023-10-01T05:54:46.000Z</time>
      </trkpt>
      <trkpt lat="41.8938" lon="20.04033">
        <ele>456.2799987793</ele>
        <time>2023-10-01T05:54:45.000Z</time>
      </trkpt>
      <trkpt lat="41.89375" lon="20.04033">
        <ele>455.79998779297</ele>
        <time>2023-10-01T05:54:44.000Z</time>
      </trkpt>
      <trkpt lat="41.89369" lon="20.04034">
        <ele>455.32000732422</ele>
        <time>2023-10-01T05:54:43.000Z</time>
      </trkpt>
      <trkpt lat="41.89363" lon="20.04037">
        <ele>454.83999633789</ele>
        <time>2023-10-01T05:54:42.000Z</time>
      </trkpt>
      <trkpt lat="41.89356" lon="20.04043">
        <ele>453.88000488281</ele>
        <time>2023-10-01T05:54:41.000Z</time>
      </trkpt>
      <trkpt lat="41.8935" lon="20.04049">
        <ele>453.88000488281</ele>
        <time>2023-10-01T05:54:40.000Z</time>
      </trkpt>
      <trkpt lat="41.89345" lon="20.04057">
        <ele>453.39999389648</ele>
        <time>2023-10-01T05:54:39.000Z</time>
      </trkpt>
      <trkpt lat="41.89341" lon="20.04064">
        <ele>452.92001342773</ele>
        <time>2023-10-01T05:54:38.000Z</time>
      </trkpt>
      <trkpt lat="41.89337" lon="20.04074">
        <ele>452.44000244141</ele>
        <time>2023-10-01T05:54:37.000Z</time>
      </trkpt>
      <trkpt lat="41.8933" lon="20.04095">
        <ele>452.92001342773</ele>
        <time>2023-10-01T05:54:35.000Z</time>
      </trkpt>
      <trkpt lat="41.89325" lon="20.04107">
        <ele>452.44000244141</ele>
        <time>2023-10-01T05:54:34.000Z</time>
      </trkpt>
      <trkpt lat="41.8932" lon="20.04116">
        <ele>451.95999145508</ele>
        <time>2023-10-01T05:54:33.000Z</time>
      </trkpt>
      <trkpt lat="41.89316" lon="20.04122">
        <ele>451.48001098633</ele>
        <time>2023-10-01T05:54:32.000Z</time>
      </trkpt>
      <trkpt lat="41.89311" lon="20.04126">
        <ele>451</ele>
        <time>2023-10-01T05:54:31.000Z</time>
      </trkpt>
      <trkpt lat="41.89306" lon="20.04128">
        <ele>451</ele>
        <time>2023-10-01T05:54:30.000Z</time>
      </trkpt>
      <trkpt lat="41.89301" lon="20.04127">
        <ele>451</ele>
        <time>2023-10-01T05:54:29.000Z</time>
      </trkpt>
      <trkpt lat="41.89296" lon="20.04122">
        <ele>450.51998901367</ele>
        <time>2023-10-01T05:54:28.000Z</time>
      </trkpt>
      <trkpt lat="41.89293" lon="20.04116">
        <ele>450.0299987793</ele>
        <time>2023-10-01T05:54:27.000Z</time>
      </trkpt>
      <trkpt lat="41.89291" lon="20.04107">
        <ele>449.07000732422</ele>
        <time>2023-10-01T05:54:26.000Z</time>
      </trkpt>
      <trkpt lat="41.8929" lon="20.041">
        <ele>448.58999633789</ele>
        <time>2023-10-01T05:54:25.000Z</time>
      </trkpt>
      <trkpt lat="41.89288" lon="20.04087">
        <ele>447.63000488281</ele>
        <time>2023-10-01T05:54:24.000Z</time>
      </trkpt>
      <trkpt lat="41.89286" lon="20.04079">
        <ele>446.67001342773</ele>
        <time>2023-10-01T05:54:23.000Z</time>
      </trkpt>
      <trkpt lat="41.89285" lon="20.04075">
        <ele>446.19000244141</ele>
        <time>2023-10-01T05:54:22.000Z</time>
      </trkpt>
      <trkpt lat="41.89281" lon="20.04059">
        <ele>445.23001098633</ele>
        <time>2023-10-01T05:54:21.000Z</time>
      </trkpt>
      <trkpt lat="41.89278" lon="20.04047">
        <ele>444.26998901367</ele>
        <time>2023-10-01T05:54:20.000Z</time>
      </trkpt>
      <trkpt lat="41.89275" lon="20.04039">
        <ele>443.79000854492</ele>
        <time>2023-10-01T05:54:19.000Z</time>
      </trkpt>
      <trkpt lat="41.89271" lon="20.04031">
        <ele>442.82000732422</ele>
        <time>2023-10-01T05:54:18.000Z</time>
      </trkpt>
      <trkpt lat="41.89267" lon="20.04026">
        <ele>442.33999633789</ele>
        <time>2023-10-01T05:54:17.000Z</time>
      </trkpt>
      <trkpt lat="41.89262" lon="20.04019">
        <ele>441.85998535156</ele>
        <time>2023-10-01T05:54:16.000Z</time>
      </trkpt>
      <trkpt lat="41.89256" lon="20.04011">
        <ele>441.38000488281</ele>
        <time>2023-10-01T05:54:15.000Z</time>
      </trkpt>
      <trkpt lat="41.89253" lon="20.04002">
        <ele>440.89999389648</ele>
        <time>2023-10-01T05:54:14.000Z</time>
      </trkpt>
      <trkpt lat="41.89252" lon="20.03993">
        <ele>440.89999389648</ele>
        <time>2023-10-01T05:54:13.000Z</time>
      </trkpt>
      <trkpt lat="41.89252" lon="20.03981">
        <ele>440.42001342773</ele>
        <time>2023-10-01T05:54:12.000Z</time>
      </trkpt>
      <trkpt lat="41.89251" lon="20.03972">
        <ele>439.94000244141</ele>
        <time>2023-10-01T05:54:11.000Z</time>
      </trkpt>
      <trkpt lat="41.89249" lon="20.03964">
        <ele>439.94000244141</ele>
        <time>2023-10-01T05:54:10.000Z</time>
      </trkpt>
      <trkpt lat="41.89245" lon="20.03952">
        <ele>439.45999145508</ele>
        <time>2023-10-01T05:54:09.000Z</time>
      </trkpt>
      <trkpt lat="41.89244" lon="20.0395">
        <ele>439.45999145508</ele>
        <time>2023-10-01T05:54:08.000Z</time>
      </trkpt>
      <trkpt lat="41.89239" lon="20.03934">
        <ele>438.98001098633</ele>
        <time>2023-10-01T05:54:07.000Z</time>
      </trkpt>
      <trkpt lat="41.89236" lon="20.0392">
        <ele>438.5</ele>
        <time>2023-10-01T05:54:06.000Z</time>
      </trkpt>
      <trkpt lat="41.89234" lon="20.03912">
        <ele>438.5</ele>
        <time>2023-10-01T05:54:05.000Z</time>
      </trkpt>
      <trkpt lat="41.8923" lon="20.03896">
        <ele>437.54000854492</ele>
        <time>2023-10-01T05:54:04.000Z</time>
      </trkpt>
      <trkpt lat="41.89227" lon="20.03886">
        <ele>437.05999755859</ele>
        <time>2023-10-01T05:54:03.000Z</time>
      </trkpt>
      <trkpt lat="41.89224" lon="20.03878">
        <ele>436.57998657227</ele>
        <time>2023-10-01T05:54:02.000Z</time>
      </trkpt>
      <trkpt lat="41.8922" lon="20.03873">
        <ele>436.10000610352</ele>
        <time>2023-10-01T05:54:01.000Z</time>
      </trkpt>
      <trkpt lat="41.89215" lon="20.0387">
        <ele>436.10000610352</ele>
        <time>2023-10-01T05:54:00.000Z</time>
      </trkpt>
      <trkpt lat="41.89209" lon="20.0387">
        <ele>436.57998657227</ele>
        <time>2023-10-01T05:53:59.000Z</time>
      </trkpt>
      <trkpt lat="41.89203" lon="20.03874">
        <ele>436.57998657227</ele>
        <time>2023-10-01T05:53:58.000Z</time>
      </trkpt>
      <trkpt lat="41.89198" lon="20.03877">
        <ele>436.57998657227</ele>
        <time>2023-10-01T05:53:57.000Z</time>
      </trkpt>
      <trkpt lat="41.89191" lon="20.03883">
        <ele>436.57998657227</ele>
        <time>2023-10-01T05:53:56.000Z</time>
      </trkpt>
      <trkpt lat="41.8918" lon="20.03895">
        <ele>437.05999755859</ele>
        <time>2023-10-01T05:53:54.000Z</time>
      </trkpt>
      <trkpt lat="41.89171" lon="20.03906">
        <ele>437.05999755859</ele>
        <time>2023-10-01T05:53:53.000Z</time>
      </trkpt>
      <trkpt lat="41.89163" lon="20.03913">
        <ele>437.05999755859</ele>
        <time>2023-10-01T05:53:52.000Z</time>
      </trkpt>
      <trkpt lat="41.89156" lon="20.03917">
        <ele>437.54000854492</ele>
        <time>2023-10-01T05:53:51.000Z</time>
      </trkpt>
      <trkpt lat="41.89154" lon="20.03918">
        <ele>437.54000854492</ele>
        <time>2023-10-01T05:53:50.000Z</time>
      </trkpt>
      <trkpt lat="41.89142" lon="20.03922">
        <ele>438.5</ele>
        <time>2023-10-01T05:53:49.000Z</time>
      </trkpt>
      <trkpt lat="41.89131" lon="20.03927">
        <ele>439.45999145508</ele>
        <time>2023-10-01T05:53:48.000Z</time>
      </trkpt>
      <trkpt lat="41.89124" lon="20.03929">
        <ele>439.45999145508</ele>
        <time>2023-10-01T05:53:47.000Z</time>
      </trkpt>
      <trkpt lat="41.89117" lon="20.03929">
        <ele>440.42001342773</ele>
        <time>2023-10-01T05:53:46.000Z</time>
      </trkpt>
      <trkpt lat="41.89112" lon="20.03925">
        <ele>440.42001342773</ele>
        <time>2023-10-01T05:53:45.000Z</time>
      </trkpt>
      <trkpt lat="41.89109" lon="20.03922">
        <ele>440.42001342773</ele>
        <time>2023-10-01T05:53:44.000Z</time>
      </trkpt>
      <trkpt lat="41.89101" lon="20.0391">
        <ele>440.42001342773</ele>
        <time>2023-10-01T05:53:43.000Z</time>
      </trkpt>
      <trkpt lat="41.89094" lon="20.03902">
        <ele>440.42001342773</ele>
        <time>2023-10-01T05:53:42.000Z</time>
      </trkpt>
      <trkpt lat="41.89079" lon="20.03889">
        <ele>440.42001342773</ele>
        <time>2023-10-01T05:53:40.000Z</time>
      </trkpt>
      <trkpt lat="41.89078" lon="20.03888">
        <ele>440.42001342773</ele>
        <time>2023-10-01T05:53:39.000Z</time>
      </trkpt>
      <trkpt lat="41.89064" lon="20.03873">
        <ele>440.89999389648</ele>
        <time>2023-10-01T05:53:38.000Z</time>
      </trkpt>
      <trkpt lat="41.8906" lon="20.03869">
        <ele>440.89999389648</ele>
        <time>2023-10-01T05:53:37.000Z</time>
      </trkpt>
      <trkpt lat="41.89041" lon="20.03855">
        <ele>441.38000488281</ele>
        <time>2023-10-01T05:53:35.000Z</time>
      </trkpt>
      <trkpt lat="41.89032" lon="20.0385">
        <ele>441.38000488281</ele>
        <time>2023-10-01T05:53:34.000Z</time>
      </trkpt>
      <trkpt lat="41.89015" lon="20.03843">
        <ele>441.38000488281</ele>
        <time>2023-10-01T05:53:32.000Z</time>
      </trkpt>
      <trkpt lat="41.89008" lon="20.0384">
        <ele>441.85998535156</ele>
        <time>2023-10-01T05:53:31.000Z</time>
      </trkpt>
      <trkpt lat="41.89001" lon="20.03835">
        <ele>441.85998535156</ele>
        <time>2023-10-01T05:53:30.000Z</time>
      </trkpt>
      <trkpt lat="41.88996" lon="20.03829">
        <ele>441.38000488281</ele>
        <time>2023-10-01T05:53:29.000Z</time>
      </trkpt>
      <trkpt lat="41.88993" lon="20.03821">
        <ele>441.38000488281</ele>
        <time>2023-10-01T05:53:28.000Z</time>
      </trkpt>
      <trkpt lat="41.88992" lon="20.03814">
        <ele>441.38000488281</ele>
        <time>2023-10-01T05:53:27.000Z</time>
      </trkpt>
      <trkpt lat="41.88991" lon="20.03804">
        <ele>440.89999389648</ele>
        <time>2023-10-01T05:53:26.000Z</time>
      </trkpt>
      <trkpt lat="41.88992" lon="20.03793">
        <ele>440.89999389648</ele>
        <time>2023-10-01T05:53:25.000Z</time>
      </trkpt>
      <trkpt lat="41.88992" lon="20.0378">
        <ele>440.42001342773</ele>
        <time>2023-10-01T05:53:24.000Z</time>
      </trkpt>
      <trkpt lat="41.8899" lon="20.03769">
        <ele>439.94000244141</ele>
        <time>2023-10-01T05:53:23.000Z</time>
      </trkpt>
      <trkpt lat="41.88988" lon="20.03759">
        <ele>439.45999145508</ele>
        <time>2023-10-01T05:53:22.000Z</time>
      </trkpt>
      <trkpt lat="41.88985" lon="20.03747">
        <ele>438.98001098633</ele>
        <time>2023-10-01T05:53:21.000Z</time>
      </trkpt>
      <trkpt lat="41.88981" lon="20.03737">
        <ele>438.98001098633</ele>
        <time>2023-10-01T05:53:20.000Z</time>
      </trkpt>
      <trkpt lat="41.88978" lon="20.0373">
        <ele>438.5</ele>
        <time>2023-10-01T05:53:19.000Z</time>
      </trkpt>
      <trkpt lat="41.88973" lon="20.03724">
        <ele>438.01998901367</ele>
        <time>2023-10-01T05:53:18.000Z</time>
      </trkpt>
      <trkpt lat="41.88967" lon="20.03721">
        <ele>438.01998901367</ele>
        <time>2023-10-01T05:53:17.000Z</time>
      </trkpt>
      <trkpt lat="41.88961" lon="20.03721">
        <ele>437.54000854492</ele>
        <time>2023-10-01T05:53:16.000Z</time>
      </trkpt>
      <trkpt lat="41.88956" lon="20.03723">
        <ele>437.05999755859</ele>
        <time>2023-10-01T05:53:15.000Z</time>
      </trkpt>
      <trkpt lat="41.88951" lon="20.03728">
        <ele>436.57998657227</ele>
        <time>2023-10-01T05:53:14.000Z</time>
      </trkpt>
      <trkpt lat="41.88948" lon="20.03731">
        <ele>436.57998657227</ele>
        <time>2023-10-01T05:53:13.000Z</time>
      </trkpt>
      <trkpt lat="41.8894" lon="20.03742">
        <ele>435.60998535156</ele>
        <time>2023-10-01T05:53:12.000Z</time>
      </trkpt>
      <trkpt lat="41.88934" lon="20.03749">
        <ele>434.64999389648</ele>
        <time>2023-10-01T05:53:11.000Z</time>
      </trkpt>
      <trkpt lat="41.8893" lon="20.03753">
        <ele>434.17001342773</ele>
        <time>2023-10-01T05:53:10.000Z</time>
      </trkpt>
      <trkpt lat="41.88913" lon="20.03765">
        <ele>433.20999145508</ele>
        <time>2023-10-01T05:53:08.000Z</time>
      </trkpt>
      <trkpt lat="41.88907" lon="20.0377">
        <ele>432.25</ele>
        <time>2023-10-01T05:53:07.000Z</time>
      </trkpt>
      <trkpt lat="41.88901" lon="20.03776">
        <ele>431.76998901367</ele>
        <time>2023-10-01T05:53:06.000Z</time>
      </trkpt>
      <trkpt lat="41.88895" lon="20.03782">
        <ele>431.29000854492</ele>
        <time>2023-10-01T05:53:05.000Z</time>
      </trkpt>
      <trkpt lat="41.88889" lon="20.03786">
        <ele>431.29000854492</ele>
        <time>2023-10-01T05:53:04.000Z</time>
      </trkpt>
      <trkpt lat="41.88883" lon="20.03787">
        <ele>430.80999755859</ele>
        <time>2023-10-01T05:53:03.000Z</time>
      </trkpt>
      <trkpt lat="41.88877" lon="20.03786">
        <ele>430.32998657227</ele>
        <time>2023-10-01T05:53:02.000Z</time>
      </trkpt>
      <trkpt lat="41.8887" lon="20.03782">
        <ele>429.85000610352</ele>
        <time>2023-10-01T05:53:01.000Z</time>
      </trkpt>
      <trkpt lat="41.88864" lon="20.03777">
        <ele>429.36999511719</ele>
        <time>2023-10-01T05:53:00.000Z</time>
      </trkpt>
      <trkpt lat="41.88858" lon="20.03774">
        <ele>428.89001464844</ele>
        <time>2023-10-01T05:52:59.000Z</time>
      </trkpt>
      <trkpt lat="41.88851" lon="20.03772">
        <ele>428.89001464844</ele>
        <time>2023-10-01T05:52:58.000Z</time>
      </trkpt>
      <trkpt lat="41.88844" lon="20.03773">
        <ele>428.39999389648</ele>
        <time>2023-10-01T05:52:57.000Z</time>
      </trkpt>
      <trkpt lat="41.88837" lon="20.03775">
        <ele>428.39999389648</ele>
        <time>2023-10-01T05:52:56.000Z</time>
      </trkpt>
      <trkpt lat="41.8883" lon="20.03775">
        <ele>427.92001342773</ele>
        <time>2023-10-01T05:52:55.000Z</time>
      </trkpt>
      <trkpt lat="41.88824" lon="20.03773">
        <ele>427.44000244141</ele>
        <time>2023-10-01T05:52:54.000Z</time>
      </trkpt>
      <trkpt lat="41.88819" lon="20.03768">
        <ele>426.48001098633</ele>
        <time>2023-10-01T05:52:53.000Z</time>
      </trkpt>
      <trkpt lat="41.88815" lon="20.03763">
        <ele>425.51998901367</ele>
        <time>2023-10-01T05:52:52.000Z</time>
      </trkpt>
      <trkpt lat="41.8881" lon="20.03754">
        <ele>424.55999755859</ele>
        <time>2023-10-01T05:52:51.000Z</time>
      </trkpt>
      <trkpt lat="41.88806" lon="20.03746">
        <ele>424.07998657227</ele>
        <time>2023-10-01T05:52:50.000Z</time>
      </trkpt>
      <trkpt lat="41.888" lon="20.03742">
        <ele>423.11999511719</ele>
        <time>2023-10-01T05:52:49.000Z</time>
      </trkpt>
      <trkpt lat="41.88795" lon="20.03739">
        <ele>422.64001464844</ele>
        <time>2023-10-01T05:52:48.000Z</time>
      </trkpt>
      <trkpt lat="41.88787" lon="20.03735">
        <ele>422.16000366211</ele>
        <time>2023-10-01T05:52:47.000Z</time>
      </trkpt>
      <trkpt lat="41.88777" lon="20.0373">
        <ele>421.19000244141</ele>
        <time>2023-10-01T05:52:46.000Z</time>
      </trkpt>
      <trkpt lat="41.8877" lon="20.03725">
        <ele>420.23001098633</ele>
        <time>2023-10-01T05:52:45.000Z</time>
      </trkpt>
      <trkpt lat="41.88764" lon="20.03717">
        <ele>419.75</ele>
        <time>2023-10-01T05:52:44.000Z</time>
      </trkpt>
      <trkpt lat="41.88759" lon="20.03706">
        <ele>419.26998901367</ele>
        <time>2023-10-01T05:52:43.000Z</time>
      </trkpt>
      <trkpt lat="41.88757" lon="20.03699">
        <ele>419.26998901367</ele>
        <time>2023-10-01T05:52:42.000Z</time>
      </trkpt>
      <trkpt lat="41.88753" lon="20.03685">
        <ele>418.30999755859</ele>
        <time>2023-10-01T05:52:41.000Z</time>
      </trkpt>
      <trkpt lat="41.8875" lon="20.03674">
        <ele>417.82998657227</ele>
        <time>2023-10-01T05:52:40.000Z</time>
      </trkpt>
      <trkpt lat="41.88747" lon="20.03664">
        <ele>417.82998657227</ele>
        <time>2023-10-01T05:52:39.000Z</time>
      </trkpt>
      <trkpt lat="41.88743" lon="20.03654">
        <ele>417.35000610352</ele>
        <time>2023-10-01T05:52:38.000Z</time>
      </trkpt>
      <trkpt lat="41.88739" lon="20.03647">
        <ele>416.86999511719</ele>
        <time>2023-10-01T05:52:37.000Z</time>
      </trkpt>
      <trkpt lat="41.88734" lon="20.03642">
        <ele>416.39001464844</ele>
        <time>2023-10-01T05:52:36.000Z</time>
      </trkpt>
      <trkpt lat="41.88729" lon="20.03638">
        <ele>416.39001464844</ele>
        <time>2023-10-01T05:52:35.000Z</time>
      </trkpt>
      <trkpt lat="41.88724" lon="20.03635">
        <ele>415.91000366211</ele>
        <time>2023-10-01T05:52:34.000Z</time>
      </trkpt>
      <trkpt lat="41.88719" lon="20.03631">
        <ele>415.91000366211</ele>
        <time>2023-10-01T05:52:33.000Z</time>
      </trkpt>
      <trkpt lat="41.88715" lon="20.03626">
        <ele>415.42999267578</ele>
        <time>2023-10-01T05:52:32.000Z</time>
      </trkpt>
      <trkpt lat="41.88712" lon="20.03619">
        <ele>414.95001220703</ele>
        <time>2023-10-01T05:52:31.000Z</time>
      </trkpt>
      <trkpt lat="41.88712" lon="20.03611">
        <ele>414.4700012207</ele>
        <time>2023-10-01T05:52:30.000Z</time>
      </trkpt>
      <trkpt lat="41.88713" lon="20.03604">
        <ele>414.4700012207</ele>
        <time>2023-10-01T05:52:29.000Z</time>
      </trkpt>
      <trkpt lat="41.88713" lon="20.03597">
        <ele>413.98001098633</ele>
        <time>2023-10-01T05:52:28.000Z</time>
      </trkpt>
      <trkpt lat="41.88712" lon="20.03591">
        <ele>413.5</ele>
        <time>2023-10-01T05:52:27.000Z</time>
      </trkpt>
      <trkpt lat="41.8871" lon="20.03585">
        <ele>413.01998901367</ele>
        <time>2023-10-01T05:52:26.000Z</time>
      </trkpt>
      <trkpt lat="41.88705" lon="20.0358">
        <ele>412.05999755859</ele>
        <time>2023-10-01T05:52:25.000Z</time>
      </trkpt>
      <trkpt lat="41.887" lon="20.03577">
        <ele>412.05999755859</ele>
        <time>2023-10-01T05:52:24.000Z</time>
      </trkpt>
      <trkpt lat="41.88691" lon="20.03574">
        <ele>411.10000610352</ele>
        <time>2023-10-01T05:52:23.000Z</time>
      </trkpt>
      <trkpt lat="41.88684" lon="20.0357">
        <ele>411.10000610352</ele>
        <time>2023-10-01T05:52:22.000Z</time>
      </trkpt>
      <trkpt lat="41.88677" lon="20.03566">
        <ele>410.14001464844</ele>
        <time>2023-10-01T05:52:21.000Z</time>
      </trkpt>
      <trkpt lat="41.88663" lon="20.03554">
        <ele>409.66000366211</ele>
        <time>2023-10-01T05:52:19.000Z</time>
      </trkpt>
      <trkpt lat="41.88659" lon="20.03551">
        <ele>409.66000366211</ele>
        <time>2023-10-01T05:52:18.000Z</time>
      </trkpt>
      <trkpt lat="41.8865" lon="20.03546">
        <ele>409.66000366211</ele>
        <time>2023-10-01T05:52:17.000Z</time>
      </trkpt>
      <trkpt lat="41.88645" lon="20.03544">
        <ele>409.66000366211</ele>
        <time>2023-10-01T05:52:16.000Z</time>
      </trkpt>
      <trkpt lat="41.88639" lon="20.03544">
        <ele>409.17999267578</ele>
        <time>2023-10-01T05:52:15.000Z</time>
      </trkpt>
      <trkpt lat="41.88634" lon="20.03545">
        <ele>408.70001220703</ele>
        <time>2023-10-01T05:52:14.000Z</time>
      </trkpt>
      <trkpt lat="41.8863" lon="20.03548">
        <ele>408.2200012207</ele>
        <time>2023-10-01T05:52:13.000Z</time>
      </trkpt>
      <trkpt lat="41.88626" lon="20.03553">
        <ele>407.73999023438</ele>
        <time>2023-10-01T05:52:12.000Z</time>
      </trkpt>
      <trkpt lat="41.88623" lon="20.03559">
        <ele>407.26000976562</ele>
        <time>2023-10-01T05:52:11.000Z</time>
      </trkpt>
      <trkpt lat="41.88621" lon="20.03569">
        <ele>406.76998901367</ele>
        <time>2023-10-01T05:52:10.000Z</time>
      </trkpt>
      <trkpt lat="41.88618" lon="20.03578">
        <ele>406.29000854492</ele>
        <time>2023-10-01T05:52:09.000Z</time>
      </trkpt>
      <trkpt lat="41.88617" lon="20.0359">
        <ele>405.80999755859</ele>
        <time>2023-10-01T05:52:08.000Z</time>
      </trkpt>
      <trkpt lat="41.88616" lon="20.03599">
        <ele>405.32998657227</ele>
        <time>2023-10-01T05:52:07.000Z</time>
      </trkpt>
      <trkpt lat="41.88616" lon="20.03612">
        <ele>404.36999511719</ele>
        <time>2023-10-01T05:52:06.000Z</time>
      </trkpt>
      <trkpt lat="41.88615" lon="20.03624">
        <ele>404.36999511719</ele>
        <time>2023-10-01T05:52:05.000Z</time>
      </trkpt>
      <trkpt lat="41.88613" lon="20.03634">
        <ele>403.89001464844</ele>
        <time>2023-10-01T05:52:04.000Z</time>
      </trkpt>
      <trkpt lat="41.88611" lon="20.0364">
        <ele>403.41000366211</ele>
        <time>2023-10-01T05:52:03.000Z</time>
      </trkpt>
      <trkpt lat="41.88606" lon="20.03651">
        <ele>402.45001220703</ele>
        <time>2023-10-01T05:52:02.000Z</time>
      </trkpt>
      <trkpt lat="41.88601" lon="20.03662">
        <ele>401.9700012207</ele>
        <time>2023-10-01T05:52:01.000Z</time>
      </trkpt>
      <trkpt lat="41.88596" lon="20.03671">
        <ele>401.01000976562</ele>
        <time>2023-10-01T05:52:00.000Z</time>
      </trkpt>
      <trkpt lat="41.8859" lon="20.0368">
        <ele>400.5299987793</ele>
        <time>2023-10-01T05:51:59.000Z</time>
      </trkpt>
      <trkpt lat="41.88586" lon="20.03686">
        <ele>400.5299987793</ele>
        <time>2023-10-01T05:51:58.000Z</time>
      </trkpt>
      <trkpt lat="41.88577" lon="20.03696">
        <ele>399.57000732422</ele>
        <time>2023-10-01T05:51:57.000Z</time>
      </trkpt>
      <trkpt lat="41.8857" lon="20.03703">
        <ele>398.60000610352</ele>
        <time>2023-10-01T05:51:56.000Z</time>
      </trkpt>
      <trkpt lat="41.88564" lon="20.03707">
        <ele>398.11999511719</ele>
        <time>2023-10-01T05:51:55.000Z</time>
      </trkpt>
      <trkpt lat="41.88561" lon="20.03709">
        <ele>398.11999511719</ele>
        <time>2023-10-01T05:51:54.000Z</time>
      </trkpt>
      <trkpt lat="41.88549" lon="20.03714">
        <ele>396.67999267578</ele>
        <time>2023-10-01T05:51:53.000Z</time>
      </trkpt>
      <trkpt lat="41.88543" lon="20.03717">
        <ele>396.20001220703</ele>
        <time>2023-10-01T05:51:52.000Z</time>
      </trkpt>
      <trkpt lat="41.88536" lon="20.03722">
        <ele>395.7200012207</ele>
        <time>2023-10-01T05:51:51.000Z</time>
      </trkpt>
      <trkpt lat="41.8853" lon="20.0373">
        <ele>394.76000976562</ele>
        <time>2023-10-01T05:51:50.000Z</time>
      </trkpt>
      <trkpt lat="41.88528" lon="20.03734">
        <ele>394.76000976562</ele>
        <time>2023-10-01T05:51:49.000Z</time>
      </trkpt>
      <trkpt lat="41.88522" lon="20.03746">
        <ele>393.79998779297</ele>
        <time>2023-10-01T05:51:48.000Z</time>
      </trkpt>
      <trkpt lat="41.88518" lon="20.03751">
        <ele>393.32000732422</ele>
        <time>2023-10-01T05:51:47.000Z</time>
      </trkpt>
      <trkpt lat="41.88513" lon="20.03755">
        <ele>392.83999633789</ele>
        <time>2023-10-01T05:51:46.000Z</time>
      </trkpt>
      <trkpt lat="41.88509" lon="20.03756">
        <ele>391.86999511719</ele>
        <time>2023-10-01T05:51:45.000Z</time>
      </trkpt>
      <trkpt lat="41.88505" lon="20.03754">
        <ele>391.39001464844</ele>
        <time>2023-10-01T05:51:44.000Z</time>
      </trkpt>
      <trkpt lat="41.88502" lon="20.0375">
        <ele>390.42999267578</ele>
        <time>2023-10-01T05:51:43.000Z</time>
      </trkpt>
      <trkpt lat="41.88501" lon="20.03745">
        <ele>389.95001220703</ele>
        <time>2023-10-01T05:51:42.000Z</time>
      </trkpt>
      <trkpt lat="41.88501" lon="20.03739">
        <ele>389.4700012207</ele>
        <time>2023-10-01T05:51:41.000Z</time>
      </trkpt>
      <trkpt lat="41.88503" lon="20.03733">
        <ele>388.98999023438</ele>
        <time>2023-10-01T05:51:40.000Z</time>
      </trkpt>
      <trkpt lat="41.88505" lon="20.03729">
        <ele>388.98999023438</ele>
        <time>2023-10-01T05:51:39.000Z</time>
      </trkpt>
      <trkpt lat="41.88513" lon="20.03718">
        <ele>388.0299987793</ele>
        <time>2023-10-01T05:51:38.000Z</time>
      </trkpt>
      <trkpt lat="41.88527" lon="20.03704">
        <ele>387.07000732422</ele>
        <time>2023-10-01T05:51:36.000Z</time>
      </trkpt>
      <trkpt lat="41.88535" lon="20.03697">
        <ele>386.10998535156</ele>
        <time>2023-10-01T05:51:35.000Z</time>
      </trkpt>
      <trkpt lat="41.88547" lon="20.03688">
        <ele>385.14999389648</ele>
        <time>2023-10-01T05:51:34.000Z</time>
      </trkpt>
      <trkpt lat="41.88553" lon="20.03683">
        <ele>384.66000366211</ele>
        <time>2023-10-01T05:51:33.000Z</time>
      </trkpt>
      <trkpt lat="41.88562" lon="20.03673">
        <ele>384.17999267578</ele>
        <time>2023-10-01T05:51:32.000Z</time>
      </trkpt>
      <trkpt lat="41.88569" lon="20.03663">
        <ele>383.2200012207</ele>
        <time>2023-10-01T05:51:31.000Z</time>
      </trkpt>
      <trkpt lat="41.88573" lon="20.03656">
        <ele>383.2200012207</ele>
        <time>2023-10-01T05:51:30.000Z</time>
      </trkpt>
      <trkpt lat="41.8858" lon="20.03642">
        <ele>382.26000976562</ele>
        <time>2023-10-01T05:51:29.000Z</time>
      </trkpt>
      <trkpt lat="41.88583" lon="20.03635">
        <ele>381.7799987793</ele>
        <time>2023-10-01T05:51:28.000Z</time>
      </trkpt>
      <trkpt lat="41.88586" lon="20.03627">
        <ele>380.82000732422</ele>
        <time>2023-10-01T05:51:27.000Z</time>
      </trkpt>
      <trkpt lat="41.8859" lon="20.03617">
        <ele>379.85998535156</ele>
        <time>2023-10-01T05:51:26.000Z</time>
      </trkpt>
      <trkpt lat="41.88591" lon="20.0361">
        <ele>379.38000488281</ele>
        <time>2023-10-01T05:51:25.000Z</time>
      </trkpt>
      <trkpt lat="41.8859" lon="20.03605">
        <ele>378.89999389648</ele>
        <time>2023-10-01T05:51:24.000Z</time>
      </trkpt>
      <trkpt lat="41.88581" lon="20.03596">
        <ele>378.42001342773</ele>
        <time>2023-10-01T05:51:20.000Z</time>
      </trkpt>
      <trkpt lat="41.8857" lon="20.03614">
        <ele>377.45001220703</ele>
        <time>2023-10-01T05:51:13.000Z</time>
      </trkpt>
      <trkpt lat="41.88567" lon="20.03625">
        <ele>376.9700012207</ele>
        <time>2023-10-01T05:51:12.000Z</time>
      </trkpt>
      <trkpt lat="41.88564" lon="20.03633">
        <ele>376.01000976562</ele>
        <time>2023-10-01T05:51:11.000Z</time>
      </trkpt>
      <trkpt lat="41.8856" lon="20.0364">
        <ele>374.57000732422</ele>
        <time>2023-10-01T05:51:10.000Z</time>
      </trkpt>
      <trkpt lat="41.88553" lon="20.03646">
        <ele>373.60998535156</ele>
        <time>2023-10-01T05:51:09.000Z</time>
      </trkpt>
      <trkpt lat="41.88548" lon="20.03649">
        <ele>372.64999389648</ele>
        <time>2023-10-01T05:51:08.000Z</time>
      </trkpt>
      <trkpt lat="41.8854" lon="20.03652">
        <ele>371.20999145508</ele>
        <time>2023-10-01T05:51:07.000Z</time>
      </trkpt>
      <trkpt lat="41.88532" lon="20.03654">
        <ele>370.73001098633</ele>
        <time>2023-10-01T05:51:06.000Z</time>
      </trkpt>
      <trkpt lat="41.88526" lon="20.03655">
        <ele>370.23999023438</ele>
        <time>2023-10-01T05:51:05.000Z</time>
      </trkpt>
      <trkpt lat="41.88521" lon="20.03657">
        <ele>369.76000976562</ele>
        <time>2023-10-01T05:51:04.000Z</time>
      </trkpt>
      <trkpt lat="41.88516" lon="20.03661">
        <ele>369.2799987793</ele>
        <time>2023-10-01T05:51:03.000Z</time>
      </trkpt>
      <trkpt lat="41.88513" lon="20.03666">
        <ele>368.79998779297</ele>
        <time>2023-10-01T05:51:02.000Z</time>
      </trkpt>
      <trkpt lat="41.8851" lon="20.0367">
        <ele>368.79998779297</ele>
        <time>2023-10-01T05:51:01.000Z</time>
      </trkpt>
      <trkpt lat="41.88508" lon="20.03674">
        <ele>368.32000732422</ele>
        <time>2023-10-01T05:51:00.000Z</time>
      </trkpt>
      <trkpt lat="41.88503" lon="20.03684">
        <ele>368.32000732422</ele>
        <time>2023-10-01T05:50:59.000Z</time>
      </trkpt>
      <trkpt lat="41.88499" lon="20.03689">
        <ele>368.32000732422</ele>
        <time>2023-10-01T05:50:58.000Z</time>
      </trkpt>
      <trkpt lat="41.88495" lon="20.03693">
        <ele>367.35998535156</ele>
        <time>2023-10-01T05:50:57.000Z</time>
      </trkpt>
      <trkpt lat="41.8849" lon="20.03694">
        <ele>366.88000488281</ele>
        <time>2023-10-01T05:50:56.000Z</time>
      </trkpt>
      <trkpt lat="41.88486" lon="20.03694">
        <ele>366.39999389648</ele>
        <time>2023-10-01T05:50:55.000Z</time>
      </trkpt>
      <trkpt lat="41.88482" lon="20.0369">
        <ele>365.92001342773</ele>
        <time>2023-10-01T05:50:54.000Z</time>
      </trkpt>
      <trkpt lat="41.8848" lon="20.03686">
        <ele>365.44000244141</ele>
        <time>2023-10-01T05:50:53.000Z</time>
      </trkpt>
      <trkpt lat="41.8848" lon="20.03679">
        <ele>364.95999145508</ele>
        <time>2023-10-01T05:50:52.000Z</time>
      </trkpt>
      <trkpt lat="41.88483" lon="20.03673">
        <ele>364.48001098633</ele>
        <time>2023-10-01T05:50:51.000Z</time>
      </trkpt>
      <trkpt lat="41.88487" lon="20.03667">
        <ele>364</ele>
        <time>2023-10-01T05:50:50.000Z</time>
      </trkpt>
      <trkpt lat="41.88495" lon="20.03657">
        <ele>362.54998779297</ele>
        <time>2023-10-01T05:50:49.000Z</time>
      </trkpt>
      <trkpt lat="41.88502" lon="20.03648">
        <ele>361.58999633789</ele>
        <time>2023-10-01T05:50:48.000Z</time>
      </trkpt>
      <trkpt lat="41.88524" lon="20.03614">
        <ele>358.70999145508</ele>
        <time>2023-10-01T05:50:45.000Z</time>
      </trkpt>
      <trkpt lat="41.88526" lon="20.03612">
        <ele>358.23001098633</ele>
        <time>2023-10-01T05:50:44.000Z</time>
      </trkpt>
      <trkpt lat="41.88532" lon="20.03599">
        <ele>357.26998901367</ele>
        <time>2023-10-01T05:50:43.000Z</time>
      </trkpt>
      <trkpt lat="41.8854" lon="20.03583">
        <ele>355.33999633789</ele>
        <time>2023-10-01T05:50:42.000Z</time>
      </trkpt>
      <trkpt lat="41.88544" lon="20.03572">
        <ele>354.38000488281</ele>
        <time>2023-10-01T05:50:41.000Z</time>
      </trkpt>
      <trkpt lat="41.88545" lon="20.03563">
        <ele>353.42001342773</ele>
        <time>2023-10-01T05:50:40.000Z</time>
      </trkpt>
      <trkpt lat="41.88545" lon="20.03554">
        <ele>352.94000244141</ele>
        <time>2023-10-01T05:50:39.000Z</time>
      </trkpt>
      <trkpt lat="41.88544" lon="20.03544">
        <ele>351.5</ele>
        <time>2023-10-01T05:50:38.000Z</time>
      </trkpt>
      <trkpt lat="41.88541" lon="20.03532">
        <ele>350.54000854492</ele>
        <time>2023-10-01T05:50:37.000Z</time>
      </trkpt>
      <trkpt lat="41.88538" lon="20.03522">
        <ele>349.10000610352</ele>
        <time>2023-10-01T05:50:36.000Z</time>
      </trkpt>
      <trkpt lat="41.88536" lon="20.03517">
        <ele>348.61999511719</ele>
        <time>2023-10-01T05:50:35.000Z</time>
      </trkpt>
      <trkpt lat="41.88532" lon="20.03507">
        <ele>347.17001342773</ele>
        <time>2023-10-01T05:50:34.000Z</time>
      </trkpt>
      <trkpt lat="41.88528" lon="20.035">
        <ele>346.20999145508</ele>
        <time>2023-10-01T05:50:33.000Z</time>
      </trkpt>
      <trkpt lat="41.88526" lon="20.03496">
        <ele>345.73001098633</ele>
        <time>2023-10-01T05:50:32.000Z</time>
      </trkpt>
      <trkpt lat="41.88519" lon="20.03487">
        <ele>344.29000854492</ele>
        <time>2023-10-01T05:50:31.000Z</time>
      </trkpt>
      <trkpt lat="41.88509" lon="20.03477">
        <ele>342.85000610352</ele>
        <time>2023-10-01T05:50:30.000Z</time>
      </trkpt>
      <trkpt lat="41.88501" lon="20.03469">
        <ele>341.41000366211</ele>
        <time>2023-10-01T05:50:29.000Z</time>
      </trkpt>
      <trkpt lat="41.88493" lon="20.03464">
        <ele>340.92001342773</ele>
        <time>2023-10-01T05:50:28.000Z</time>
      </trkpt>
      <trkpt lat="41.88486" lon="20.03461">
        <ele>340.92001342773</ele>
        <time>2023-10-01T05:50:27.000Z</time>
      </trkpt>
      <trkpt lat="41.8848" lon="20.0346">
        <ele>340.92001342773</ele>
        <time>2023-10-01T05:50:26.000Z</time>
      </trkpt>
      <trkpt lat="41.88473" lon="20.03462">
        <ele>340.44000244141</ele>
        <time>2023-10-01T05:50:25.000Z</time>
      </trkpt>
      <trkpt lat="41.88466" lon="20.03466">
        <ele>340.44000244141</ele>
        <time>2023-10-01T05:50:24.000Z</time>
      </trkpt>
      <trkpt lat="41.8846" lon="20.03471">
        <ele>339.95999145508</ele>
        <time>2023-10-01T05:50:23.000Z</time>
      </trkpt>
      <trkpt lat="41.88455" lon="20.03476">
        <ele>339.48001098633</ele>
        <time>2023-10-01T05:50:22.000Z</time>
      </trkpt>
      <trkpt lat="41.88451" lon="20.03483">
        <ele>339</ele>
        <time>2023-10-01T05:50:21.000Z</time>
      </trkpt>
      <trkpt lat="41.88448" lon="20.03491">
        <ele>339</ele>
        <time>2023-10-01T05:50:20.000Z</time>
      </trkpt>
      <trkpt lat="41.88447" lon="20.03498">
        <ele>338.51998901367</ele>
        <time>2023-10-01T05:50:19.000Z</time>
      </trkpt>
      <trkpt lat="41.88448" lon="20.03506">
        <ele>338.04000854492</ele>
        <time>2023-10-01T05:50:18.000Z</time>
      </trkpt>
      <trkpt lat="41.8845" lon="20.03514">
        <ele>337.55999755859</ele>
        <time>2023-10-01T05:50:17.000Z</time>
      </trkpt>
      <trkpt lat="41.88452" lon="20.03523">
        <ele>337.07998657227</ele>
        <time>2023-10-01T05:50:16.000Z</time>
      </trkpt>
      <trkpt lat="41.88452" lon="20.03532">
        <ele>336.60000610352</ele>
        <time>2023-10-01T05:50:15.000Z</time>
      </trkpt>
      <trkpt lat="41.88451" lon="20.03541">
        <ele>335.64001464844</ele>
        <time>2023-10-01T05:50:14.000Z</time>
      </trkpt>
      <trkpt lat="41.88449" lon="20.03548">
        <ele>334.67999267578</ele>
        <time>2023-10-01T05:50:13.000Z</time>
      </trkpt>
      <trkpt lat="41.88446" lon="20.03554">
        <ele>334.67999267578</ele>
        <time>2023-10-01T05:50:12.000Z</time>
      </trkpt>
      <trkpt lat="41.88442" lon="20.03558">
        <ele>334.20001220703</ele>
        <time>2023-10-01T05:50:11.000Z</time>
      </trkpt>
      <trkpt lat="41.88438" lon="20.0356">
        <ele>334.20001220703</ele>
        <time>2023-10-01T05:50:10.000Z</time>
      </trkpt>
      <trkpt lat="41.88433" lon="20.03559">
        <ele>333.70999145508</ele>
        <time>2023-10-01T05:50:09.000Z</time>
      </trkpt>
      <trkpt lat="41.88428" lon="20.03556">
        <ele>333.23001098633</ele>
        <time>2023-10-01T05:50:08.000Z</time>
      </trkpt>
      <trkpt lat="41.88422" lon="20.03551">
        <ele>332.75</ele>
        <time>2023-10-01T05:50:07.000Z</time>
      </trkpt>
      <trkpt lat="41.88417" lon="20.03545">
        <ele>331.79000854492</ele>
        <time>2023-10-01T05:50:06.000Z</time>
      </trkpt>
      <trkpt lat="41.88411" lon="20.03535">
        <ele>330.35000610352</ele>
        <time>2023-10-01T05:50:05.000Z</time>
      </trkpt>
      <trkpt lat="41.88407" lon="20.03528">
        <ele>329.86999511719</ele>
        <time>2023-10-01T05:50:04.000Z</time>
      </trkpt>
      <trkpt lat="41.88396" lon="20.03504">
        <ele>327.95001220703</ele>
        <time>2023-10-01T05:50:02.000Z</time>
      </trkpt>
      <trkpt lat="41.88392" lon="20.03496">
        <ele>327.4700012207</ele>
        <time>2023-10-01T05:50:01.000Z</time>
      </trkpt>
      <trkpt lat="41.88387" lon="20.03489">
        <ele>326.98999023438</ele>
        <time>2023-10-01T05:50:00.000Z</time>
      </trkpt>
      <trkpt lat="41.88383" lon="20.03484">
        <ele>326.98999023438</ele>
        <time>2023-10-01T05:49:59.000Z</time>
      </trkpt>
      <trkpt lat="41.88375" lon="20.03479">
        <ele>326.5</ele>
        <time>2023-10-01T05:49:58.000Z</time>
      </trkpt>
      <trkpt lat="41.8837" lon="20.03476">
        <ele>326.5</ele>
        <time>2023-10-01T05:49:57.000Z</time>
      </trkpt>
      <trkpt lat="41.88365" lon="20.03471">
        <ele>326.5</ele>
        <time>2023-10-01T05:49:56.000Z</time>
      </trkpt>
      <trkpt lat="41.88362" lon="20.03467">
        <ele>326.01998901367</ele>
        <time>2023-10-01T05:49:55.000Z</time>
      </trkpt>
      <trkpt lat="41.88359" lon="20.03462">
        <ele>326.01998901367</ele>
        <time>2023-10-01T05:49:54.000Z</time>
      </trkpt>
      <trkpt lat="41.88358" lon="20.03456">
        <ele>326.01998901367</ele>
        <time>2023-10-01T05:49:53.000Z</time>
      </trkpt>
      <trkpt lat="41.88358" lon="20.03451">
        <ele>325.54000854492</ele>
        <time>2023-10-01T05:49:52.000Z</time>
      </trkpt>
      <trkpt lat="41.88359" lon="20.0344">
        <ele>326.01998901367</ele>
        <time>2023-10-01T05:49:51.000Z</time>
      </trkpt>
      <trkpt lat="41.88359" lon="20.03431">
        <ele>326.01998901367</ele>
        <time>2023-10-01T05:49:50.000Z</time>
      </trkpt>
      <trkpt lat="41.88358" lon="20.03426">
        <ele>325.54000854492</ele>
        <time>2023-10-01T05:49:49.000Z</time>
      </trkpt>
      <trkpt lat="41.88356" lon="20.0342">
        <ele>325.54000854492</ele>
        <time>2023-10-01T05:49:48.000Z</time>
      </trkpt>
      <trkpt lat="41.88351" lon="20.03416">
        <ele>325.05999755859</ele>
        <time>2023-10-01T05:49:47.000Z</time>
      </trkpt>
      <trkpt lat="41.88346" lon="20.03413">
        <ele>324.57998657227</ele>
        <time>2023-10-01T05:49:46.000Z</time>
      </trkpt>
      <trkpt lat="41.88339" lon="20.0341">
        <ele>324.10000610352</ele>
        <time>2023-10-01T05:49:45.000Z</time>
      </trkpt>
      <trkpt lat="41.8833" lon="20.03408">
        <ele>323.14001464844</ele>
        <time>2023-10-01T05:49:44.000Z</time>
      </trkpt>
      <trkpt lat="41.88323" lon="20.03407">
        <ele>322.66000366211</ele>
        <time>2023-10-01T05:49:43.000Z</time>
      </trkpt>
      <trkpt lat="41.88314" lon="20.03406">
        <ele>321.70001220703</ele>
        <time>2023-10-01T05:49:42.000Z</time>
      </trkpt>
      <trkpt lat="41.88302" lon="20.03406">
        <ele>320.73999023438</ele>
        <time>2023-10-01T05:49:41.000Z</time>
      </trkpt>
      <trkpt lat="41.88294" lon="20.03409">
        <ele>319.7799987793</ele>
        <time>2023-10-01T05:49:40.000Z</time>
      </trkpt>
      <trkpt lat="41.88287" lon="20.03414">
        <ele>319.29998779297</ele>
        <time>2023-10-01T05:49:39.000Z</time>
      </trkpt>
      <trkpt lat="41.8828" lon="20.03422">
        <ele>318.80999755859</ele>
        <time>2023-10-01T05:49:38.000Z</time>
      </trkpt>
      <trkpt lat="41.88274" lon="20.03431">
        <ele>318.32998657227</ele>
        <time>2023-10-01T05:49:37.000Z</time>
      </trkpt>
      <trkpt lat="41.88271" lon="20.03436">
        <ele>317.85000610352</ele>
        <time>2023-10-01T05:49:36.000Z</time>
      </trkpt>
      <trkpt lat="41.88263" lon="20.03451">
        <ele>316.41000366211</ele>
        <time>2023-10-01T05:49:35.000Z</time>
      </trkpt>
      <trkpt lat="41.88257" lon="20.03459">
        <ele>315.45001220703</ele>
        <time>2023-10-01T05:49:34.000Z</time>
      </trkpt>
      <trkpt lat="41.88249" lon="20.03467">
        <ele>314.9700012207</ele>
        <time>2023-10-01T05:49:33.000Z</time>
      </trkpt>
      <trkpt lat="41.88239" lon="20.03474">
        <ele>314.48999023438</ele>
        <time>2023-10-01T05:49:32.000Z</time>
      </trkpt>
      <trkpt lat="41.8823" lon="20.03481">
        <ele>314.01000976562</ele>
        <time>2023-10-01T05:49:31.000Z</time>
      </trkpt>
      <trkpt lat="41.88223" lon="20.0349">
        <ele>313.04998779297</ele>
        <time>2023-10-01T05:49:30.000Z</time>
      </trkpt>
      <trkpt lat="41.88219" lon="20.03494">
        <ele>312.57000732422</ele>
        <time>2023-10-01T05:49:29.000Z</time>
      </trkpt>
      <trkpt lat="41.88207" lon="20.03513">
        <ele>311.11999511719</ele>
        <time>2023-10-01T05:49:27.000Z</time>
      </trkpt>
      <trkpt lat="41.88203" lon="20.03517">
        <ele>310.64001464844</ele>
        <time>2023-10-01T05:49:26.000Z</time>
      </trkpt>
      <trkpt lat="41.88198" lon="20.03518">
        <ele>309.67999267578</ele>
        <time>2023-10-01T05:49:25.000Z</time>
      </trkpt>
      <trkpt lat="41.88192" lon="20.03517">
        <ele>309.20001220703</ele>
        <time>2023-10-01T05:49:24.000Z</time>
      </trkpt>
      <trkpt lat="41.88185" lon="20.03513">
        <ele>308.7200012207</ele>
        <time>2023-10-01T05:49:23.000Z</time>
      </trkpt>
      <trkpt lat="41.88179" lon="20.03508">
        <ele>308.23999023438</ele>
        <time>2023-10-01T05:49:22.000Z</time>
      </trkpt>
      <trkpt lat="41.88171" lon="20.03499">
        <ele>307.2799987793</ele>
        <time>2023-10-01T05:49:21.000Z</time>
      </trkpt>
      <trkpt lat="41.88166" lon="20.03491">
        <ele>306.32000732422</ele>
        <time>2023-10-01T05:49:20.000Z</time>
      </trkpt>
      <trkpt lat="41.88162" lon="20.03482">
        <ele>305.83999633789</ele>
        <time>2023-10-01T05:49:19.000Z</time>
      </trkpt>
      <trkpt lat="41.8816" lon="20.03472">
        <ele>304.88000488281</ele>
        <time>2023-10-01T05:49:18.000Z</time>
      </trkpt>
      <trkpt lat="41.88159" lon="20.03462">
        <ele>303.91000366211</ele>
        <time>2023-10-01T05:49:17.000Z</time>
      </trkpt>
      <trkpt lat="41.88159" lon="20.03459">
        <ele>303.91000366211</ele>
        <time>2023-10-01T05:49:16.000Z</time>
      </trkpt>
      <trkpt lat="41.88158" lon="20.03439">
        <ele>302.95001220703</ele>
        <time>2023-10-01T05:49:15.000Z</time>
      </trkpt>
      <trkpt lat="41.88157" lon="20.03423">
        <ele>301.98999023438</ele>
        <time>2023-10-01T05:49:14.000Z</time>
      </trkpt>
      <trkpt lat="41.88156" lon="20.03409">
        <ele>301.51000976562</ele>
        <time>2023-10-01T05:49:13.000Z</time>
      </trkpt>
      <trkpt lat="41.88154" lon="20.03397">
        <ele>301.0299987793</ele>
        <time>2023-10-01T05:49:12.000Z</time>
      </trkpt>
      <trkpt lat="41.88151" lon="20.03386">
        <ele>300.54998779297</ele>
        <time>2023-10-01T05:49:11.000Z</time>
      </trkpt>
      <trkpt lat="41.88146" lon="20.03376">
        <ele>300.07000732422</ele>
        <time>2023-10-01T05:49:10.000Z</time>
      </trkpt>
      <trkpt lat="41.8814" lon="20.03367">
        <ele>299.10998535156</ele>
        <time>2023-10-01T05:49:09.000Z</time>
      </trkpt>
      <trkpt lat="41.88133" lon="20.03362">
        <ele>299.10998535156</ele>
        <time>2023-10-01T05:49:08.000Z</time>
      </trkpt>
      <trkpt lat="41.88125" lon="20.03359">
        <ele>298.63000488281</ele>
        <time>2023-10-01T05:49:07.000Z</time>
      </trkpt>
      <trkpt lat="41.88118" lon="20.03359">
        <ele>298.14999389648</ele>
        <time>2023-10-01T05:49:06.000Z</time>
      </trkpt>
      <trkpt lat="41.8811" lon="20.03363">
        <ele>298.14999389648</ele>
        <time>2023-10-01T05:49:05.000Z</time>
      </trkpt>
      <trkpt lat="41.88104" lon="20.03369">
        <ele>298.14999389648</ele>
        <time>2023-10-01T05:49:04.000Z</time>
      </trkpt>
      <trkpt lat="41.88098" lon="20.03377">
        <ele>298.14999389648</ele>
        <time>2023-10-01T05:49:03.000Z</time>
      </trkpt>
      <trkpt lat="41.88095" lon="20.03385">
        <ele>297.67001342773</ele>
        <time>2023-10-01T05:49:02.000Z</time>
      </trkpt>
      <trkpt lat="41.88093" lon="20.03395">
        <ele>297.17999267578</ele>
        <time>2023-10-01T05:49:01.000Z</time>
      </trkpt>
      <trkpt lat="41.8809" lon="20.03402">
        <ele>296.70001220703</ele>
        <time>2023-10-01T05:49:00.000Z</time>
      </trkpt>
      <trkpt lat="41.88087" lon="20.03408">
        <ele>296.70001220703</ele>
        <time>2023-10-01T05:48:59.000Z</time>
      </trkpt>
      <trkpt lat="41.88083" lon="20.03412">
        <ele>296.70001220703</ele>
        <time>2023-10-01T05:48:58.000Z</time>
      </trkpt>
      <trkpt lat="41.88078" lon="20.03414">
        <ele>296.2200012207</ele>
        <time>2023-10-01T05:48:57.000Z</time>
      </trkpt>
      <trkpt lat="41.88072" lon="20.03412">
        <ele>295.73999023438</ele>
        <time>2023-10-01T05:48:56.000Z</time>
      </trkpt>
      <trkpt lat="41.88066" lon="20.03407">
        <ele>295.26000976562</ele>
        <time>2023-10-01T05:48:55.000Z</time>
      </trkpt>
      <trkpt lat="41.88062" lon="20.03399">
        <ele>294.29998779297</ele>
        <time>2023-10-01T05:48:54.000Z</time>
      </trkpt>
      <trkpt lat="41.8806" lon="20.03392">
        <ele>293.82000732422</ele>
        <time>2023-10-01T05:48:53.000Z</time>
      </trkpt>
      <trkpt lat="41.88056" lon="20.03378">
        <ele>292.85998535156</ele>
        <time>2023-10-01T05:48:52.000Z</time>
      </trkpt>
      <trkpt lat="41.88051" lon="20.03366">
        <ele>292.38000488281</ele>
        <time>2023-10-01T05:48:51.000Z</time>
      </trkpt>
      <trkpt lat="41.88044" lon="20.03355">
        <ele>292.38000488281</ele>
        <time>2023-10-01T05:48:50.000Z</time>
      </trkpt>
      <trkpt lat="41.8804" lon="20.03348">
        <ele>292.38000488281</ele>
        <time>2023-10-01T05:48:49.000Z</time>
      </trkpt>
      <trkpt lat="41.88028" lon="20.03332">
        <ele>291.42001342773</ele>
        <time>2023-10-01T05:48:48.000Z</time>
      </trkpt>
      <trkpt lat="41.88019" lon="20.03322">
        <ele>291.42001342773</ele>
        <time>2023-10-01T05:48:47.000Z</time>
      </trkpt>
      <trkpt lat="41.88009" lon="20.03314">
        <ele>291.42001342773</ele>
        <time>2023-10-01T05:48:46.000Z</time>
      </trkpt>
      <trkpt lat="41.87998" lon="20.03307">
        <ele>291.89999389648</ele>
        <time>2023-10-01T05:48:45.000Z</time>
      </trkpt>
      <trkpt lat="41.87988" lon="20.03303">
        <ele>292.85998535156</ele>
        <time>2023-10-01T05:48:44.000Z</time>
      </trkpt>
      <trkpt lat="41.87977" lon="20.033">
        <ele>293.82000732422</ele>
        <time>2023-10-01T05:48:43.000Z</time>
      </trkpt>
      <trkpt lat="41.87966" lon="20.033">
        <ele>294.7799987793</ele>
        <time>2023-10-01T05:48:42.000Z</time>
      </trkpt>
      <trkpt lat="41.87956" lon="20.03302">
        <ele>295.26000976562</ele>
        <time>2023-10-01T05:48:41.000Z</time>
      </trkpt>
      <trkpt lat="41.87947" lon="20.03306">
        <ele>296.2200012207</ele>
        <time>2023-10-01T05:48:40.000Z</time>
      </trkpt>
      <trkpt lat="41.87938" lon="20.03311">
        <ele>297.17999267578</ele>
        <time>2023-10-01T05:48:39.000Z</time>
      </trkpt>
      <trkpt lat="41.87931" lon="20.03315">
        <ele>298.14999389648</ele>
        <time>2023-10-01T05:48:38.000Z</time>
      </trkpt>
      <trkpt lat="41.87923" lon="20.03316">
        <ele>299.10998535156</ele>
        <time>2023-10-01T05:48:37.000Z</time>
      </trkpt>
      <trkpt lat="41.87917" lon="20.03315">
        <ele>299.58999633789</ele>
        <time>2023-10-01T05:48:36.000Z</time>
      </trkpt>
      <trkpt lat="41.8791" lon="20.0331">
        <ele>300.54998779297</ele>
        <time>2023-10-01T05:48:35.000Z</time>
      </trkpt>
      <trkpt lat="41.87905" lon="20.03304">
        <ele>301.0299987793</ele>
        <time>2023-10-01T05:48:34.000Z</time>
      </trkpt>
      <trkpt lat="41.879" lon="20.03296">
        <ele>301.0299987793</ele>
        <time>2023-10-01T05:48:33.000Z</time>
      </trkpt>
      <trkpt lat="41.87897" lon="20.03288">
        <ele>301.51000976562</ele>
        <time>2023-10-01T05:48:32.000Z</time>
      </trkpt>
      <trkpt lat="41.87892" lon="20.03277">
        <ele>301.98999023438</ele>
        <time>2023-10-01T05:48:31.000Z</time>
      </trkpt>
      <trkpt lat="41.87887" lon="20.03266">
        <ele>302.95001220703</ele>
        <time>2023-10-01T05:48:30.000Z</time>
      </trkpt>
      <trkpt lat="41.87882" lon="20.03259">
        <ele>303.91000366211</ele>
        <time>2023-10-01T05:48:29.000Z</time>
      </trkpt>
      <trkpt lat="41.87874" lon="20.03251">
        <ele>304.88000488281</ele>
        <time>2023-10-01T05:48:28.000Z</time>
      </trkpt>
      <trkpt lat="41.87867" lon="20.03243">
        <ele>305.35998535156</ele>
        <time>2023-10-01T05:48:27.000Z</time>
      </trkpt>
      <trkpt lat="41.87863" lon="20.03235">
        <ele>306.32000732422</ele>
        <time>2023-10-01T05:48:26.000Z</time>
      </trkpt>
      <trkpt lat="41.87861" lon="20.03229">
        <ele>306.79998779297</ele>
        <time>2023-10-01T05:48:25.000Z</time>
      </trkpt>
      <trkpt lat="41.8786" lon="20.03223">
        <ele>307.2799987793</ele>
        <time>2023-10-01T05:48:24.000Z</time>
      </trkpt>
      <trkpt lat="41.87859" lon="20.03208">
        <ele>307.76000976562</ele>
        <time>2023-10-01T05:48:23.000Z</time>
      </trkpt>
      <trkpt lat="41.87856" lon="20.03198">
        <ele>308.23999023438</ele>
        <time>2023-10-01T05:48:22.000Z</time>
      </trkpt>
      <trkpt lat="41.87852" lon="20.03189">
        <ele>308.23999023438</ele>
        <time>2023-10-01T05:48:21.000Z</time>
      </trkpt>
      <trkpt lat="41.87846" lon="20.03181">
        <ele>308.7200012207</ele>
        <time>2023-10-01T05:48:20.000Z</time>
      </trkpt>
      <trkpt lat="41.87841" lon="20.03178">
        <ele>309.20001220703</ele>
        <time>2023-10-01T05:48:19.000Z</time>
      </trkpt>
      <trkpt lat="41.87835" lon="20.03176">
        <ele>309.20001220703</ele>
        <time>2023-10-01T05:48:18.000Z</time>
      </trkpt>
      <trkpt lat="41.87829" lon="20.03177">
        <ele>309.20001220703</ele>
        <time>2023-10-01T05:48:17.000Z</time>
      </trkpt>
      <trkpt lat="41.87825" lon="20.03182">
        <ele>308.7200012207</ele>
        <time>2023-10-01T05:48:16.000Z</time>
      </trkpt>
      <trkpt lat="41.87821" lon="20.03189">
        <ele>308.7200012207</ele>
        <time>2023-10-01T05:48:15.000Z</time>
      </trkpt>
      <trkpt lat="41.87818" lon="20.03199">
        <ele>308.23999023438</ele>
        <time>2023-10-01T05:48:14.000Z</time>
      </trkpt>
      <trkpt lat="41.87815" lon="20.03209">
        <ele>308.23999023438</ele>
        <time>2023-10-01T05:48:13.000Z</time>
      </trkpt>
      <trkpt lat="41.8781" lon="20.03218">
        <ele>307.76000976562</ele>
        <time>2023-10-01T05:48:12.000Z</time>
      </trkpt>
      <trkpt lat="41.87804" lon="20.03226">
        <ele>307.2799987793</ele>
        <time>2023-10-01T05:48:11.000Z</time>
      </trkpt>
      <trkpt lat="41.87799" lon="20.03231">
        <ele>306.79998779297</ele>
        <time>2023-10-01T05:48:10.000Z</time>
      </trkpt>
      <trkpt lat="41.87789" lon="20.03237">
        <ele>306.32000732422</ele>
        <time>2023-10-01T05:48:09.000Z</time>
      </trkpt>
      <trkpt lat="41.87772" lon="20.03248">
        <ele>305.35998535156</ele>
        <time>2023-10-01T05:48:07.000Z</time>
      </trkpt>
      <trkpt lat="41.87764" lon="20.03252">
        <ele>304.39001464844</ele>
        <time>2023-10-01T05:48:06.000Z</time>
      </trkpt>
      <trkpt lat="41.87755" lon="20.03254">
        <ele>303.91000366211</ele>
        <time>2023-10-01T05:48:05.000Z</time>
      </trkpt>
      <trkpt lat="41.87753" lon="20.03254">
        <ele>303.42999267578</ele>
        <time>2023-10-01T05:48:04.000Z</time>
      </trkpt>
      <trkpt lat="41.87735" lon="20.03257">
        <ele>302.95001220703</ele>
        <time>2023-10-01T05:48:03.000Z</time>
      </trkpt>
      <trkpt lat="41.87726" lon="20.03257">
        <ele>302.4700012207</ele>
        <time>2023-10-01T05:48:02.000Z</time>
      </trkpt>
      <trkpt lat="41.87718" lon="20.03255">
        <ele>302.4700012207</ele>
        <time>2023-10-01T05:48:01.000Z</time>
      </trkpt>
      <trkpt lat="41.8771" lon="20.03249">
        <ele>302.4700012207</ele>
        <time>2023-10-01T05:48:00.000Z</time>
      </trkpt>
      <trkpt lat="41.87705" lon="20.03244">
        <ele>302.4700012207</ele>
        <time>2023-10-01T05:47:59.000Z</time>
      </trkpt>
      <trkpt lat="41.87654" lon="20.0318">
        <ele>302.95001220703</ele>
        <time>2023-10-01T05:47:53.000Z</time>
      </trkpt>
      <trkpt lat="41.87648" lon="20.03172">
        <ele>303.42999267578</ele>
        <time>2023-10-01T05:47:52.000Z</time>
      </trkpt>
      <trkpt lat="41.8764" lon="20.03164">
        <ele>303.91000366211</ele>
        <time>2023-10-01T05:47:51.000Z</time>
      </trkpt>
      <trkpt lat="41.87632" lon="20.03157">
        <ele>304.39001464844</ele>
        <time>2023-10-01T05:47:50.000Z</time>
      </trkpt>
      <trkpt lat="41.87624" lon="20.03154">
        <ele>304.39001464844</ele>
        <time>2023-10-01T05:47:49.000Z</time>
      </trkpt>
      <trkpt lat="41.87614" lon="20.03153">
        <ele>304.39001464844</ele>
        <time>2023-10-01T05:47:48.000Z</time>
      </trkpt>
      <trkpt lat="41.87604" lon="20.03154">
        <ele>303.91000366211</ele>
        <time>2023-10-01T05:47:47.000Z</time>
      </trkpt>
      <trkpt lat="41.87597" lon="20.03156">
        <ele>303.42999267578</ele>
        <time>2023-10-01T05:47:46.000Z</time>
      </trkpt>
      <trkpt lat="41.87584" lon="20.03162">
        <ele>302.4700012207</ele>
        <time>2023-10-01T05:47:44.000Z</time>
      </trkpt>
      <trkpt lat="41.87565" lon="20.03171">
        <ele>301.51000976562</ele>
        <time>2023-10-01T05:47:43.000Z</time>
      </trkpt>
      <trkpt lat="41.87557" lon="20.03178">
        <ele>301.98999023438</ele>
        <time>2023-10-01T05:47:42.000Z</time>
      </trkpt>
      <trkpt lat="41.87551" lon="20.03186">
        <ele>301.98999023438</ele>
        <time>2023-10-01T05:47:41.000Z</time>
      </trkpt>
      <trkpt lat="41.87545" lon="20.03197">
        <ele>301.0299987793</ele>
        <time>2023-10-01T05:47:40.000Z</time>
      </trkpt>
      <trkpt lat="41.87541" lon="20.03209">
        <ele>301.0299987793</ele>
        <time>2023-10-01T05:47:39.000Z</time>
      </trkpt>
      <trkpt lat="41.87539" lon="20.0322">
        <ele>300.54998779297</ele>
        <time>2023-10-01T05:47:38.000Z</time>
      </trkpt>
      <trkpt lat="41.87535" lon="20.03243">
        <ele>300.07000732422</ele>
        <time>2023-10-01T05:47:36.000Z</time>
      </trkpt>
      <trkpt lat="41.87532" lon="20.03253">
        <ele>299.58999633789</ele>
        <time>2023-10-01T05:47:35.000Z</time>
      </trkpt>
      <trkpt lat="41.87529" lon="20.03261">
        <ele>299.10998535156</ele>
        <time>2023-10-01T05:47:34.000Z</time>
      </trkpt>
      <trkpt lat="41.87525" lon="20.03267">
        <ele>298.63000488281</ele>
        <time>2023-10-01T05:47:33.000Z</time>
      </trkpt>
      <trkpt lat="41.87519" lon="20.03273">
        <ele>298.14999389648</ele>
        <time>2023-10-01T05:47:32.000Z</time>
      </trkpt>
      <trkpt lat="41.87512" lon="20.03276">
        <ele>297.17999267578</ele>
        <time>2023-10-01T05:47:31.000Z</time>
      </trkpt>
      <trkpt lat="41.87504" lon="20.03277">
        <ele>296.70001220703</ele>
        <time>2023-10-01T05:47:30.000Z</time>
      </trkpt>
      <trkpt lat="41.87498" lon="20.03278">
        <ele>296.2200012207</ele>
        <time>2023-10-01T05:47:29.000Z</time>
      </trkpt>
      <trkpt lat="41.87488" lon="20.03276">
        <ele>296.2200012207</ele>
        <time>2023-10-01T05:47:28.000Z</time>
      </trkpt>
      <trkpt lat="41.87482" lon="20.03274">
        <ele>296.2200012207</ele>
        <time>2023-10-01T05:47:27.000Z</time>
      </trkpt>
      <trkpt lat="41.87473" lon="20.03271">
        <ele>295.73999023438</ele>
        <time>2023-10-01T05:47:26.000Z</time>
      </trkpt>
      <trkpt lat="41.8747" lon="20.03271">
        <ele>295.73999023438</ele>
        <time>2023-10-01T05:47:25.000Z</time>
      </trkpt>
      <trkpt lat="41.87455" lon="20.03269">
        <ele>295.73999023438</ele>
        <time>2023-10-01T05:47:24.000Z</time>
      </trkpt>
      <trkpt lat="41.87452" lon="20.03269">
        <ele>295.73999023438</ele>
        <time>2023-10-01T05:47:23.000Z</time>
      </trkpt>
      <trkpt lat="41.87436" lon="20.0327">
        <ele>295.26000976562</ele>
        <time>2023-10-01T05:47:22.000Z</time>
      </trkpt>
      <trkpt lat="41.87427" lon="20.03269">
        <ele>294.7799987793</ele>
        <time>2023-10-01T05:47:21.000Z</time>
      </trkpt>
      <trkpt lat="41.87419" lon="20.03267">
        <ele>294.7799987793</ele>
        <time>2023-10-01T05:47:20.000Z</time>
      </trkpt>
      <trkpt lat="41.87412" lon="20.03262">
        <ele>294.29998779297</ele>
        <time>2023-10-01T05:47:19.000Z</time>
      </trkpt>
      <trkpt lat="41.87405" lon="20.03255">
        <ele>293.82000732422</ele>
        <time>2023-10-01T05:47:18.000Z</time>
      </trkpt>
      <trkpt lat="41.874" lon="20.03247">
        <ele>293.33999633789</ele>
        <time>2023-10-01T05:47:17.000Z</time>
      </trkpt>
      <trkpt lat="41.87396" lon="20.03237">
        <ele>292.85998535156</ele>
        <time>2023-10-01T05:47:16.000Z</time>
      </trkpt>
      <trkpt lat="41.87394" lon="20.03226">
        <ele>292.38000488281</ele>
        <time>2023-10-01T05:47:15.000Z</time>
      </trkpt>
      <trkpt lat="41.87394" lon="20.03214">
        <ele>291.89999389648</ele>
        <time>2023-10-01T05:47:14.000Z</time>
      </trkpt>
      <trkpt lat="41.87395" lon="20.03205">
        <ele>291.42001342773</ele>
        <time>2023-10-01T05:47:13.000Z</time>
      </trkpt>
      <trkpt lat="41.87397" lon="20.03194">
        <ele>291.42001342773</ele>
        <time>2023-10-01T05:47:12.000Z</time>
      </trkpt>
      <trkpt lat="41.87398" lon="20.03184">
        <ele>291.42001342773</ele>
        <time>2023-10-01T05:47:11.000Z</time>
      </trkpt>
      <trkpt lat="41.87397" lon="20.03175">
        <ele>290.94000244141</ele>
        <time>2023-10-01T05:47:10.000Z</time>
      </trkpt>
      <trkpt lat="41.87393" lon="20.03166">
        <ele>289.9700012207</ele>
        <time>2023-10-01T05:47:09.000Z</time>
      </trkpt>
      <trkpt lat="41.87388" lon="20.03159">
        <ele>289.48999023438</ele>
        <time>2023-10-01T05:47:08.000Z</time>
      </trkpt>
      <trkpt lat="41.87382" lon="20.03155">
        <ele>289.01000976562</ele>
        <time>2023-10-01T05:47:07.000Z</time>
      </trkpt>
      <trkpt lat="41.87375" lon="20.03152">
        <ele>288.5299987793</ele>
        <time>2023-10-01T05:47:06.000Z</time>
      </trkpt>
      <trkpt lat="41.87368" lon="20.03149">
        <ele>288.04998779297</ele>
        <time>2023-10-01T05:47:05.000Z</time>
      </trkpt>
      <trkpt lat="41.87362" lon="20.03147">
        <ele>287.57000732422</ele>
        <time>2023-10-01T05:47:04.000Z</time>
      </trkpt>
      <trkpt lat="41.87358" lon="20.03144">
        <ele>287.08999633789</ele>
        <time>2023-10-01T05:47:03.000Z</time>
      </trkpt>
      <trkpt lat="41.87353" lon="20.03139">
        <ele>286.60998535156</ele>
        <time>2023-10-01T05:47:02.000Z</time>
      </trkpt>
      <trkpt lat="41.87348" lon="20.03134">
        <ele>286.60998535156</ele>
        <time>2023-10-01T05:47:01.000Z</time>
      </trkpt>
      <trkpt lat="41.87346" lon="20.03131">
        <ele>286.60998535156</ele>
        <time>2023-10-01T05:47:00.000Z</time>
      </trkpt>
      <trkpt lat="41.87337" lon="20.03122">
        <ele>285.64999389648</ele>
        <time>2023-10-01T05:46:58.000Z</time>
      </trkpt>
      <trkpt lat="41.87328" lon="20.03114">
        <ele>284.69000244141</ele>
        <time>2023-10-01T05:46:57.000Z</time>
      </trkpt>
      <trkpt lat="41.87323" lon="20.0311">
        <ele>284.20999145508</ele>
        <time>2023-10-01T05:46:56.000Z</time>
      </trkpt>
      <trkpt lat="41.87318" lon="20.03106">
        <ele>284.20999145508</ele>
        <time>2023-10-01T05:46:55.000Z</time>
      </trkpt>
      <trkpt lat="41.87308" lon="20.031">
        <ele>283.73001098633</ele>
        <time>2023-10-01T05:46:54.000Z</time>
      </trkpt>
      <trkpt lat="41.87302" lon="20.03096">
        <ele>283.73001098633</ele>
        <time>2023-10-01T05:46:53.000Z</time>
      </trkpt>
      <trkpt lat="41.87299" lon="20.03092">
        <ele>283.73001098633</ele>
        <time>2023-10-01T05:46:52.000Z</time>
      </trkpt>
      <trkpt lat="41.87293" lon="20.03086">
        <ele>283.25</ele>
        <time>2023-10-01T05:46:51.000Z</time>
      </trkpt>
      <trkpt lat="41.87289" lon="20.03081">
        <ele>283.25</ele>
        <time>2023-10-01T05:46:50.000Z</time>
      </trkpt>
      <trkpt lat="41.87287" lon="20.03076">
        <ele>283.25</ele>
        <time>2023-10-01T05:46:49.000Z</time>
      </trkpt>
      <trkpt lat="41.87286" lon="20.03073">
        <ele>283.25</ele>
        <time>2023-10-01T05:46:48.000Z</time>
      </trkpt>
      <trkpt lat="41.87284" lon="20.03066">
        <ele>283.25</ele>
        <time>2023-10-01T05:46:47.000Z</time>
      </trkpt>
      <trkpt lat="41.87281" lon="20.03059">
        <ele>283.25</ele>
        <time>2023-10-01T05:46:46.000Z</time>
      </trkpt>
      <trkpt lat="41.87278" lon="20.03051">
        <ele>282.76998901367</ele>
        <time>2023-10-01T05:46:45.000Z</time>
      </trkpt>
      <trkpt lat="41.87276" lon="20.03043">
        <ele>282.76998901367</ele>
        <time>2023-10-01T05:46:44.000Z</time>
      </trkpt>
      <trkpt lat="41.87273" lon="20.03034">
        <ele>282.76998901367</ele>
        <time>2023-10-01T05:46:43.000Z</time>
      </trkpt>
      <trkpt lat="41.87272" lon="20.03033">
        <ele>282.2799987793</ele>
        <time>2023-10-01T05:46:42.000Z</time>
      </trkpt>
      <trkpt lat="41.87269" lon="20.03025">
        <ele>282.2799987793</ele>
        <time>2023-10-01T05:46:41.000Z</time>
      </trkpt>
      <trkpt lat="41.87263" lon="20.03005">
        <ele>281.32000732422</ele>
        <time>2023-10-01T05:46:39.000Z</time>
      </trkpt>
      <trkpt lat="41.8726" lon="20.03001">
        <ele>281.32000732422</ele>
        <time>2023-10-01T05:46:38.000Z</time>
      </trkpt>
      <trkpt lat="41.87257" lon="20.02994">
        <ele>281.32000732422</ele>
        <time>2023-10-01T05:46:37.000Z</time>
      </trkpt>
      <trkpt lat="41.87255" lon="20.0299">
        <ele>280.83999633789</ele>
        <time>2023-10-01T05:46:36.000Z</time>
      </trkpt>
      <trkpt lat="41.87254" lon="20.02988">
        <ele>280.83999633789</ele>
        <time>2023-10-01T05:46:35.000Z</time>
      </trkpt>
      <trkpt lat="41.87245" lon="20.02976">
        <ele>280.35998535156</ele>
        <time>2023-10-01T05:46:32.000Z</time>
      </trkpt>
      <trkpt lat="41.87238" lon="20.02967">
        <ele>279.88000488281</ele>
        <time>2023-10-01T05:46:30.000Z</time>
      </trkpt>
      <trkpt lat="41.87236" lon="20.02964">
        <ele>279.88000488281</ele>
        <time>2023-10-01T05:46:29.000Z</time>
      </trkpt>
      <trkpt lat="41.8723" lon="20.02953">
        <ele>278.92001342773</ele>
        <time>2023-10-01T05:46:28.000Z</time>
      </trkpt>
      <trkpt lat="41.87227" lon="20.02948">
        <ele>278.44000244141</ele>
        <time>2023-10-01T05:46:27.000Z</time>
      </trkpt>
      <trkpt lat="41.87223" lon="20.0294">
        <ele>277.95999145508</ele>
        <time>2023-10-01T05:46:26.000Z</time>
      </trkpt>
      <trkpt lat="41.8722" lon="20.02931">
        <ele>277.48001098633</ele>
        <time>2023-10-01T05:46:25.000Z</time>
      </trkpt>
      <trkpt lat="41.87217" lon="20.02923">
        <ele>276.51998901367</ele>
        <time>2023-10-01T05:46:24.000Z</time>
      </trkpt>
      <trkpt lat="41.87214" lon="20.02914">
        <ele>276.51998901367</ele>
        <time>2023-10-01T05:46:23.000Z</time>
      </trkpt>
      <trkpt lat="41.87211" lon="20.02904">
        <ele>275.55999755859</ele>
        <time>2023-10-01T05:46:22.000Z</time>
      </trkpt>
      <trkpt lat="41.8721" lon="20.02895">
        <ele>275.07000732422</ele>
        <time>2023-10-01T05:46:21.000Z</time>
      </trkpt>
      <trkpt lat="41.87211" lon="20.02885">
        <ele>274.58999633789</ele>
        <time>2023-10-01T05:46:20.000Z</time>
      </trkpt>
      <trkpt lat="41.87213" lon="20.02875">
        <ele>274.10998535156</ele>
        <time>2023-10-01T05:46:19.000Z</time>
      </trkpt>
      <trkpt lat="41.87217" lon="20.02867">
        <ele>273.63000488281</ele>
        <time>2023-10-01T05:46:18.000Z</time>
      </trkpt>
      <trkpt lat="41.87221" lon="20.0286">
        <ele>273.14999389648</ele>
        <time>2023-10-01T05:46:17.000Z</time>
      </trkpt>
      <trkpt lat="41.87222" lon="20.02858">
        <ele>273.14999389648</ele>
        <time>2023-10-01T05:46:16.000Z</time>
      </trkpt>
      <trkpt lat="41.87231" lon="20.02846">
        <ele>272.67001342773</ele>
        <time>2023-10-01T05:46:15.000Z</time>
      </trkpt>
      <trkpt lat="41.87236" lon="20.02837">
        <ele>272.67001342773</ele>
        <time>2023-10-01T05:46:14.000Z</time>
      </trkpt>
      <trkpt lat="41.87239" lon="20.02829">
        <ele>273.14999389648</ele>
        <time>2023-10-01T05:46:13.000Z</time>
      </trkpt>
      <trkpt lat="41.87242" lon="20.0282">
        <ele>273.14999389648</ele>
        <time>2023-10-01T05:46:12.000Z</time>
      </trkpt>
      <trkpt lat="41.87245" lon="20.02809">
        <ele>273.63000488281</ele>
        <time>2023-10-01T05:46:11.000Z</time>
      </trkpt>
      <trkpt lat="41.87246" lon="20.02799">
        <ele>273.63000488281</ele>
        <time>2023-10-01T05:46:10.000Z</time>
      </trkpt>
      <trkpt lat="41.87246" lon="20.02788">
        <ele>273.63000488281</ele>
        <time>2023-10-01T05:46:09.000Z</time>
      </trkpt>
      <trkpt lat="41.87246" lon="20.02778">
        <ele>273.63000488281</ele>
        <time>2023-10-01T05:46:08.000Z</time>
      </trkpt>
      <trkpt lat="41.87245" lon="20.02769">
        <ele>273.14999389648</ele>
        <time>2023-10-01T05:46:07.000Z</time>
      </trkpt>
      <trkpt lat="41.87244" lon="20.02759">
        <ele>273.14999389648</ele>
        <time>2023-10-01T05:46:06.000Z</time>
      </trkpt>
      <trkpt lat="41.87241" lon="20.02749">
        <ele>272.67001342773</ele>
        <time>2023-10-01T05:46:05.000Z</time>
      </trkpt>
      <trkpt lat="41.87235" lon="20.02731">
        <ele>271.70999145508</ele>
        <time>2023-10-01T05:46:03.000Z</time>
      </trkpt>
      <trkpt lat="41.87233" lon="20.02723">
        <ele>271.23001098633</ele>
        <time>2023-10-01T05:46:02.000Z</time>
      </trkpt>
      <trkpt lat="41.87228" lon="20.02702">
        <ele>271.23001098633</ele>
        <time>2023-10-01T05:46:00.000Z</time>
      </trkpt>
      <trkpt lat="41.87222" lon="20.0268">
        <ele>270.26998901367</ele>
        <time>2023-10-01T05:45:58.000Z</time>
      </trkpt>
      <trkpt lat="41.8722" lon="20.02673">
        <ele>270.26998901367</ele>
        <time>2023-10-01T05:45:57.000Z</time>
      </trkpt>
      <trkpt lat="41.87217" lon="20.0266">
        <ele>270.26998901367</ele>
        <time>2023-10-01T05:45:56.000Z</time>
      </trkpt>
      <trkpt lat="41.8721" lon="20.02641">
        <ele>269.79000854492</ele>
        <time>2023-10-01T05:45:55.000Z</time>
      </trkpt>
      <trkpt lat="41.87208" lon="20.02635">
        <ele>269.79000854492</ele>
        <time>2023-10-01T05:45:54.000Z</time>
      </trkpt>
      <trkpt lat="41.87204" lon="20.02624">
        <ele>269.30999755859</ele>
        <time>2023-10-01T05:45:53.000Z</time>
      </trkpt>
      <trkpt lat="41.87198" lon="20.02612">
        <ele>268.82998657227</ele>
        <time>2023-10-01T05:45:52.000Z</time>
      </trkpt>
      <trkpt lat="41.87193" lon="20.02602">
        <ele>268.35000610352</ele>
        <time>2023-10-01T05:45:51.000Z</time>
      </trkpt>
      <trkpt lat="41.87189" lon="20.02596">
        <ele>267.85998535156</ele>
        <time>2023-10-01T05:45:50.000Z</time>
      </trkpt>
      <trkpt lat="41.87183" lon="20.02587">
        <ele>267.85998535156</ele>
        <time>2023-10-01T05:45:49.000Z</time>
      </trkpt>
      <trkpt lat="41.87176" lon="20.0258">
        <ele>267.38000488281</ele>
        <time>2023-10-01T05:45:48.000Z</time>
      </trkpt>
      <trkpt lat="41.87169" lon="20.02574">
        <ele>267.38000488281</ele>
        <time>2023-10-01T05:45:47.000Z</time>
      </trkpt>
      <trkpt lat="41.87161" lon="20.0257">
        <ele>267.38000488281</ele>
        <time>2023-10-01T05:45:46.000Z</time>
      </trkpt>
      <trkpt lat="41.87157" lon="20.02568">
        <ele>267.38000488281</ele>
        <time>2023-10-01T05:45:45.000Z</time>
      </trkpt>
      <trkpt lat="41.87136" lon="20.0256">
        <ele>266.89999389648</ele>
        <time>2023-10-01T05:45:43.000Z</time>
      </trkpt>
      <trkpt lat="41.87133" lon="20.02559">
        <ele>266.42001342773</ele>
        <time>2023-10-01T05:45:42.000Z</time>
      </trkpt>
      <trkpt lat="41.87123" lon="20.02557">
        <ele>266.42001342773</ele>
        <time>2023-10-01T05:45:41.000Z</time>
      </trkpt>
      <trkpt lat="41.87117" lon="20.02554">
        <ele>265.94000244141</ele>
        <time>2023-10-01T05:45:40.000Z</time>
      </trkpt>
      <trkpt lat="41.87111" lon="20.02549">
        <ele>265.45999145508</ele>
        <time>2023-10-01T05:45:39.000Z</time>
      </trkpt>
      <trkpt lat="41.87106" lon="20.02543">
        <ele>265.45999145508</ele>
        <time>2023-10-01T05:45:38.000Z</time>
      </trkpt>
      <trkpt lat="41.87102" lon="20.02536">
        <ele>264.98001098633</ele>
        <time>2023-10-01T05:45:37.000Z</time>
      </trkpt>
      <trkpt lat="41.87097" lon="20.02525">
        <ele>264.5</ele>
        <time>2023-10-01T05:45:36.000Z</time>
      </trkpt>
      <trkpt lat="41.87096" lon="20.02521">
        <ele>264.01998901367</ele>
        <time>2023-10-01T05:45:35.000Z</time>
      </trkpt>
      <trkpt lat="41.87092" lon="20.0251">
        <ele>263.54000854492</ele>
        <time>2023-10-01T05:45:34.000Z</time>
      </trkpt>
      <trkpt lat="41.8708" lon="20.02472">
        <ele>261.14001464844</ele>
        <time>2023-10-01T05:45:31.000Z</time>
      </trkpt>
      <trkpt lat="41.87079" lon="20.02467">
        <ele>261.14001464844</ele>
        <time>2023-10-01T05:45:30.000Z</time>
      </trkpt>
      <trkpt lat="41.87072" lon="20.0245">
        <ele>260.17001342773</ele>
        <time>2023-10-01T05:45:29.000Z</time>
      </trkpt>
      <trkpt lat="41.8707" lon="20.02441">
        <ele>259.69000244141</ele>
        <time>2023-10-01T05:45:28.000Z</time>
      </trkpt>
      <trkpt lat="41.87067" lon="20.0243">
        <ele>259.20999145508</ele>
        <time>2023-10-01T05:45:27.000Z</time>
      </trkpt>
      <trkpt lat="41.87066" lon="20.02421">
        <ele>258.73001098633</ele>
        <time>2023-10-01T05:45:26.000Z</time>
      </trkpt>
      <trkpt lat="41.87065" lon="20.02413">
        <ele>258.25</ele>
        <time>2023-10-01T05:45:25.000Z</time>
      </trkpt>
      <trkpt lat="41.87065" lon="20.02405">
        <ele>257.29000854492</ele>
        <time>2023-10-01T05:45:24.000Z</time>
      </trkpt>
      <trkpt lat="41.87067" lon="20.02396">
        <ele>256.80999755859</ele>
        <time>2023-10-01T05:45:23.000Z</time>
      </trkpt>
      <trkpt lat="41.87069" lon="20.0239">
        <ele>256.32998657227</ele>
        <time>2023-10-01T05:45:22.000Z</time>
      </trkpt>
      <trkpt lat="41.87075" lon="20.02372">
        <ele>255.85000610352</ele>
        <time>2023-10-01T05:45:20.000Z</time>
      </trkpt>
      <trkpt lat="41.87077" lon="20.02365">
        <ele>255.85000610352</ele>
        <time>2023-10-01T05:45:19.000Z</time>
      </trkpt>
      <trkpt lat="41.8708" lon="20.02355">
        <ele>255.85000610352</ele>
        <time>2023-10-01T05:45:18.000Z</time>
      </trkpt>
      <trkpt lat="41.87082" lon="20.02347">
        <ele>255.85000610352</ele>
        <time>2023-10-01T05:45:17.000Z</time>
      </trkpt>
      <trkpt lat="41.87084" lon="20.02337">
        <ele>255.85000610352</ele>
        <time>2023-10-01T05:45:16.000Z</time>
      </trkpt>
      <trkpt lat="41.87086" lon="20.02328">
        <ele>255.85000610352</ele>
        <time>2023-10-01T05:45:15.000Z</time>
      </trkpt>
      <trkpt lat="41.87089" lon="20.02316">
        <ele>255.85000610352</ele>
        <time>2023-10-01T05:45:13.000Z</time>
      </trkpt>
      <trkpt lat="41.8709" lon="20.02309">
        <ele>256.32998657227</ele>
        <time>2023-10-01T05:45:12.000Z</time>
      </trkpt>
      <trkpt lat="41.87091" lon="20.02304">
        <ele>256.32998657227</ele>
        <time>2023-10-01T05:45:11.000Z</time>
      </trkpt>
      <trkpt lat="41.87091" lon="20.02298">
        <ele>255.85000610352</ele>
        <time>2023-10-01T05:45:10.000Z</time>
      </trkpt>
      <trkpt lat="41.87091" lon="20.02291">
        <ele>256.32998657227</ele>
        <time>2023-10-01T05:45:09.000Z</time>
      </trkpt>
      <trkpt lat="41.87091" lon="20.02282">
        <ele>255.85000610352</ele>
        <time>2023-10-01T05:45:08.000Z</time>
      </trkpt>
      <trkpt lat="41.87091" lon="20.02268">
        <ele>255.85000610352</ele>
        <time>2023-10-01T05:45:07.000Z</time>
      </trkpt>
      <trkpt lat="41.87089" lon="20.02258">
        <ele>256.32998657227</ele>
        <time>2023-10-01T05:45:06.000Z</time>
      </trkpt>
      <trkpt lat="41.87087" lon="20.02249">
        <ele>256.32998657227</ele>
        <time>2023-10-01T05:45:05.000Z</time>
      </trkpt>
      <trkpt lat="41.87083" lon="20.02239">
        <ele>256.80999755859</ele>
        <time>2023-10-01T05:45:04.000Z</time>
      </trkpt>
      <trkpt lat="41.87079" lon="20.02228">
        <ele>256.80999755859</ele>
        <time>2023-10-01T05:45:03.000Z</time>
      </trkpt>
      <trkpt lat="41.87074" lon="20.0222">
        <ele>256.80999755859</ele>
        <time>2023-10-01T05:45:02.000Z</time>
      </trkpt>
      <trkpt lat="41.8707" lon="20.02212">
        <ele>256.80999755859</ele>
        <time>2023-10-01T05:45:01.000Z</time>
      </trkpt>
      <trkpt lat="41.87064" lon="20.02205">
        <ele>256.80999755859</ele>
        <time>2023-10-01T05:45:00.000Z</time>
      </trkpt>
      <trkpt lat="41.87037" lon="20.02171">
        <ele>256.80999755859</ele>
        <time>2023-10-01T05:44:57.000Z</time>
      </trkpt>
      <trkpt lat="41.87027" lon="20.02158">
        <ele>256.32998657227</ele>
        <time>2023-10-01T05:44:56.000Z</time>
      </trkpt>
      <trkpt lat="41.87013" lon="20.02138">
        <ele>256.32998657227</ele>
        <time>2023-10-01T05:44:54.000Z</time>
      </trkpt>
      <trkpt lat="41.87009" lon="20.02134">
        <ele>256.32998657227</ele>
        <time>2023-10-01T05:44:53.000Z</time>
      </trkpt>
      <trkpt lat="41.86995" lon="20.02116">
        <ele>255.85000610352</ele>
        <time>2023-10-01T05:44:52.000Z</time>
      </trkpt>
      <trkpt lat="41.86991" lon="20.02111">
        <ele>255.85000610352</ele>
        <time>2023-10-01T05:44:51.000Z</time>
      </trkpt>
      <trkpt lat="41.86978" lon="20.02095">
        <ele>255.85000610352</ele>
        <time>2023-10-01T05:44:50.000Z</time>
      </trkpt>
      <trkpt lat="41.8697" lon="20.02086">
        <ele>255.85000610352</ele>
        <time>2023-10-01T05:44:49.000Z</time>
      </trkpt>
      <trkpt lat="41.86966" lon="20.02081">
        <ele>255.85000610352</ele>
        <time>2023-10-01T05:44:48.000Z</time>
      </trkpt>
      <trkpt lat="41.86958" lon="20.02074">
        <ele>255.36999511719</ele>
        <time>2023-10-01T05:44:47.000Z</time>
      </trkpt>
      <trkpt lat="41.86932" lon="20.02053">
        <ele>254.88999938965</ele>
        <time>2023-10-01T05:44:45.000Z</time>
      </trkpt>
      <trkpt lat="41.86929" lon="20.02051">
        <ele>254.88999938965</ele>
        <time>2023-10-01T05:44:44.000Z</time>
      </trkpt>
      <trkpt lat="41.86913" lon="20.02039">
        <ele>254.88999938965</ele>
        <time>2023-10-01T05:44:43.000Z</time>
      </trkpt>
      <trkpt lat="41.86883" lon="20.02017">
        <ele>254.88999938965</ele>
        <time>2023-10-01T05:44:40.000Z</time>
      </trkpt>
      <trkpt lat="41.86871" lon="20.0201">
        <ele>254.88999938965</ele>
        <time>2023-10-01T05:44:39.000Z</time>
      </trkpt>
      <trkpt lat="41.86863" lon="20.02006">
        <ele>254.41000366211</ele>
        <time>2023-10-01T05:44:38.000Z</time>
      </trkpt>
      <trkpt lat="41.8685" lon="20.02002">
        <ele>254.88999938965</ele>
        <time>2023-10-01T05:44:37.000Z</time>
      </trkpt>
      <trkpt lat="41.86777" lon="20.01973">
        <ele>253.92999267578</ele>
        <time>2023-10-01T05:44:31.000Z</time>
      </trkpt>
      <trkpt lat="41.86757" lon="20.01963">
        <ele>252.47999572754</ele>
        <time>2023-10-01T05:44:29.000Z</time>
      </trkpt>
      <trkpt lat="41.86741" lon="20.01955">
        <ele>252</ele>
        <time>2023-10-01T05:44:28.000Z</time>
      </trkpt>
      <trkpt lat="41.86703" lon="20.01932">
        <ele>251.03999328613</ele>
        <time>2023-10-01T05:44:25.000Z</time>
      </trkpt>
      <trkpt lat="41.86697" lon="20.01928">
        <ele>251.03999328613</ele>
        <time>2023-10-01T05:44:24.000Z</time>
      </trkpt>
      <trkpt lat="41.86684" lon="20.0192">
        <ele>250.55999755859</ele>
        <time>2023-10-01T05:44:23.000Z</time>
      </trkpt>
      <trkpt lat="41.86664" lon="20.01909">
        <ele>250.08000183105</ele>
        <time>2023-10-01T05:44:21.000Z</time>
      </trkpt>
      <trkpt lat="41.86625" lon="20.01885">
        <ele>249.60000610352</ele>
        <time>2023-10-01T05:44:18.000Z</time>
      </trkpt>
      <trkpt lat="41.86614" lon="20.01879">
        <ele>249.11999511719</ele>
        <time>2023-10-01T05:44:17.000Z</time>
      </trkpt>
      <trkpt lat="41.86591" lon="20.01869">
        <ele>249.11999511719</ele>
        <time>2023-10-01T05:44:15.000Z</time>
      </trkpt>
      <trkpt lat="41.86582" lon="20.01867">
        <ele>249.60000610352</ele>
        <time>2023-10-01T05:44:14.000Z</time>
      </trkpt>
      <trkpt lat="41.86579" lon="20.01866">
        <ele>249.11999511719</ele>
        <time>2023-10-01T05:44:13.000Z</time>
      </trkpt>
      <trkpt lat="41.8656" lon="20.01865">
        <ele>249.60000610352</ele>
        <time>2023-10-01T05:44:12.000Z</time>
      </trkpt>
      <trkpt lat="41.86551" lon="20.01864">
        <ele>250.08000183105</ele>
        <time>2023-10-01T05:44:11.000Z</time>
      </trkpt>
      <trkpt lat="41.86541" lon="20.01862">
        <ele>250.08000183105</ele>
        <time>2023-10-01T05:44:10.000Z</time>
      </trkpt>
      <trkpt lat="41.86532" lon="20.01858">
        <ele>250.08000183105</ele>
        <time>2023-10-01T05:44:09.000Z</time>
      </trkpt>
      <trkpt lat="41.86522" lon="20.01852">
        <ele>250.08000183105</ele>
        <time>2023-10-01T05:44:08.000Z</time>
      </trkpt>
      <trkpt lat="41.86512" lon="20.01844">
        <ele>250.55999755859</ele>
        <time>2023-10-01T05:44:07.000Z</time>
      </trkpt>
      <trkpt lat="41.86503" lon="20.01838">
        <ele>251.52000427246</ele>
        <time>2023-10-01T05:44:06.000Z</time>
      </trkpt>
      <trkpt lat="41.86498" lon="20.01835">
        <ele>252</ele>
        <time>2023-10-01T05:44:05.000Z</time>
      </trkpt>
      <trkpt lat="41.86481" lon="20.01826">
        <ele>252.47999572754</ele>
        <time>2023-10-01T05:44:04.000Z</time>
      </trkpt>
      <trkpt lat="41.86476" lon="20.01824">
        <ele>252.47999572754</ele>
        <time>2023-10-01T05:44:03.000Z</time>
      </trkpt>
      <trkpt lat="41.86454" lon="20.01812">
        <ele>251.52000427246</ele>
        <time>2023-10-01T05:44:01.000Z</time>
      </trkpt>
      <trkpt lat="41.86447" lon="20.01808">
        <ele>250.55999755859</ele>
        <time>2023-10-01T05:44:00.000Z</time>
      </trkpt>
      <trkpt lat="41.86434" lon="20.01803">
        <ele>249.11999511719</ele>
        <time>2023-10-01T05:43:59.000Z</time>
      </trkpt>
      <trkpt lat="41.86413" lon="20.01794">
        <ele>248.37109375</ele>
      </trkpt>
      <trkpt lat="41.86415" lon="20.01835">
        <ele>236.8</ele>
      </trkpt>
      <trkpt lat="41.86411" lon="20.01872">
        <ele>246</ele>
      </trkpt>
      <trkpt lat="41.86409" lon="20.01891">
        <ele>250.7</ele>
      </trkpt>
      <trkpt lat="41.86409" lon="20.01898">
        <ele>252.1</ele>
      </trkpt>
      <trkpt lat="41.86411" lon="20.01913">
        <ele>255</ele>
      </trkpt>
      <trkpt lat="41.86415" lon="20.01921">
        <ele>256.6</ele>
      </trkpt>
      <trkpt lat="41.8642" lon="20.01926">
        <ele>257.3</ele>
      </trkpt>
      <trkpt lat="41.86415" lon="20.01934">
        <ele>260.3</ele>
      </trkpt>
      <trkpt lat="41.86407" lon="20.01939">
        <ele>262.6</ele>
      </trkpt>
      <trkpt lat="41.86366" lon="20.01934">
        <ele>266.9</ele>
      </trkpt>
      <trkpt lat="41.86362" lon="20.01939">
        <ele>268.5</ele>
      </trkpt>
      <trkpt lat="41.86343" lon="20.01941">
        <ele>271.4</ele>
      </trkpt>
      <trkpt lat="41.8633" lon="20.01941">
        <ele>273.4</ele>
      </trkpt>
      <trkpt lat="41.86312" lon="20.01932">
        <ele>275.4</ele>
      </trkpt>
      <trkpt lat="41.8628" lon="20.01904">
        <ele>277.2</ele>
      </trkpt>
      <trkpt lat="41.86276" lon="20.01889">
        <ele>277</ele>
      </trkpt>
      <trkpt lat="41.86276" lon="20.01879">
        <ele>276.2</ele>
      </trkpt>
      <trkpt lat="41.86274" lon="20.0187">
        <ele>276.1</ele>
      </trkpt>
      <trkpt lat="41.86272" lon="20.01864">
        <ele>276.1</ele>
      </trkpt>
      <trkpt lat="41.86267" lon="20.01853">
        <ele>276.5</ele>
      </trkpt>
      <trkpt lat="41.86261" lon="20.01844">
        <ele>277.6</ele>
      </trkpt>
      <trkpt lat="41.86252" lon="20.01827">
        <ele>278.9</ele>
      </trkpt>
      <trkpt lat="41.86227" lon="20.01773">
        <ele>282.9</ele>
      </trkpt>
      <trkpt lat="41.86214" lon="20.01741">
        <ele>284.4</ele>
      </trkpt>
      <trkpt lat="41.86207" lon="20.01713">
        <ele>282.1</ele>
      </trkpt>
      <trkpt lat="41.86197" lon="20.01692">
        <ele>282</ele>
      </trkpt>
      <trkpt lat="41.86192" lon="20.01688">
        <ele>282.7</ele>
      </trkpt>
      <trkpt lat="41.86179" lon="20.01685">
        <ele>286.3</ele>
      </trkpt>
      <trkpt lat="41.86152" lon="20.01688">
        <ele>296</ele>
      </trkpt>
      <trkpt lat="41.86145" lon="20.01685">
        <ele>297.9</ele>
      </trkpt>
      <trkpt lat="41.86113" lon="20.01662">
        <ele>306.2</ele>
      </trkpt>
      <trkpt lat="41.86102" lon="20.01653">
        <ele>311.1</ele>
      </trkpt>
      <trkpt lat="41.86094" lon="20.01649">
        <ele>314.6</ele>
      </trkpt>
      <trkpt lat="41.86089" lon="20.0164">
        <ele>317.3</ele>
      </trkpt>
      <trkpt lat="41.86089" lon="20.01634">
        <ele>318.1</ele>
      </trkpt>
      <trkpt lat="41.86091" lon="20.0163">
        <ele>317.9</ele>
      </trkpt>
      <trkpt lat="41.86124" lon="20.01623">
        <ele>306.5</ele>
      </trkpt>
      <trkpt lat="41.86149" lon="20.01608">
        <ele>298</ele>
      </trkpt>
      <trkpt lat="41.86158" lon="20.016">
        <ele>295.3</ele>
      </trkpt>
      <trkpt lat="41.86169" lon="20.01587">
        <ele>292.2</ele>
      </trkpt>
      <trkpt lat="41.86173" lon="20.01576">
        <ele>293.3</ele>
      </trkpt>
      <trkpt lat="41.86182" lon="20.01537">
        <ele>300.8</ele>
      </trkpt>
      <trkpt lat="41.86186" lon="20.01524">
        <ele>302.6</ele>
      </trkpt>
      <trkpt lat="41.86197" lon="20.01512">
        <ele>301.8</ele>
      </trkpt>
      <trkpt lat="41.86199" lon="20.01507">
        <ele>302</ele>
      </trkpt>
      <trkpt lat="41.86199" lon="20.01486">
        <ele>304.1</ele>
      </trkpt>
      <trkpt lat="41.86192" lon="20.01473">
        <ele>307.1</ele>
      </trkpt>
      <trkpt lat="41.86175" lon="20.01445">
        <ele>315.1</ele>
      </trkpt>
      <trkpt lat="41.86169" lon="20.01428">
        <ele>318.6</ele>
      </trkpt>
      <trkpt lat="41.86164" lon="20.01389">
        <ele>319.5</ele>
      </trkpt>
      <trkpt lat="41.8613" lon="20.01293">
        <ele>325.2</ele>
      </trkpt>
      <trkpt lat="41.86122" lon="20.01286">
        <ele>327.5</ele>
      </trkpt>
      <trkpt lat="41.86119" lon="20.01282">
        <ele>327.7</ele>
      </trkpt>
      <trkpt lat="41.86119" lon="20.01276">
        <ele>326.8</ele>
      </trkpt>
      <trkpt lat="41.86122" lon="20.01265">
        <ele>324.4</ele>
      </trkpt>
      <trkpt lat="41.86122" lon="20.01252">
        <ele>322.5</ele>
      </trkpt>
      <trkpt lat="41.86113" lon="20.0122">
        <ele>318.2</ele>
      </trkpt>
      <trkpt lat="41.86111" lon="20.01213">
        <ele>317.4</ele>
      </trkpt>
      <trkpt lat="41.86106" lon="20.01209">
        <ele>317.8</ele>
      </trkpt>
      <trkpt lat="41.86098" lon="20.01205">
        <ele>319.5</ele>
      </trkpt>
      <trkpt lat="41.86089" lon="20.01203">
        <ele>321.7</ele>
      </trkpt>
      <trkpt lat="41.86059" lon="20.01207">
        <ele>334.1</ele>
      </trkpt>
      <trkpt lat="41.86053" lon="20.01209">
        <ele>337.1</ele>
      </trkpt>
      <trkpt lat="41.86042" lon="20.01209">
        <ele>341.2</ele>
      </trkpt>
      <trkpt lat="41.86025" lon="20.012">
        <ele>345.8</ele>
      </trkpt>
      <trkpt lat="41.86021" lon="20.012">
        <ele>347.5</ele>
      </trkpt>
      <trkpt lat="41.8601" lon="20.01198">
        <ele>351.1</ele>
      </trkpt>
      <trkpt lat="41.85999" lon="20.01192">
        <ele>353.7</ele>
      </trkpt>
      <trkpt lat="41.85995" lon="20.01185">
        <ele>353.8</ele>
      </trkpt>
      <trkpt lat="41.85993" lon="20.01177">
        <ele>352.3</ele>
      </trkpt>
      <trkpt lat="41.85991" lon="20.01166">
        <ele>350</ele>
      </trkpt>
      <trkpt lat="41.85993" lon="20.01153">
        <ele>347</ele>
      </trkpt>
      <trkpt lat="41.85997" lon="20.01145">
        <ele>344.3</ele>
      </trkpt>
      <trkpt lat="41.85999" lon="20.01136">
        <ele>342.4</ele>
      </trkpt>
      <trkpt lat="41.85999" lon="20.01132">
        <ele>341.7</ele>
      </trkpt>
      <trkpt lat="41.85997" lon="20.01128">
        <ele>341.4</ele>
      </trkpt>
      <trkpt lat="41.85986" lon="20.01119">
        <ele>341.6</ele>
      </trkpt>
      <trkpt lat="41.85982" lon="20.01113">
        <ele>340.8</ele>
      </trkpt>
      <trkpt lat="41.8598" lon="20.01102">
        <ele>338.6</ele>
      </trkpt>
      <trkpt lat="41.8598" lon="20.01085">
        <ele>334.5</ele>
      </trkpt>
      <trkpt lat="41.85982" lon="20.01076">
        <ele>333.3</ele>
      </trkpt>
      <trkpt lat="41.85982" lon="20.01061">
        <ele>331.5</ele>
      </trkpt>
      <trkpt lat="41.85971" lon="20.01031">
        <ele>327.1</ele>
      </trkpt>
      <trkpt lat="41.85961" lon="20.01007">
        <ele>322.9</ele>
      </trkpt>
      <trkpt lat="41.85961" lon="20.00997">
        <ele>320.8</ele>
      </trkpt>
      <trkpt lat="41.85956" lon="20.00988">
        <ele>318.1</ele>
      </trkpt>
      <trkpt lat="41.85948" lon="20.00986">
        <ele>316.7</ele>
      </trkpt>
      <trkpt lat="41.85931" lon="20.00975">
        <ele>312.3</ele>
      </trkpt>
      <trkpt lat="41.8592" lon="20.00975">
        <ele>311.3</ele>
      </trkpt>
      <trkpt lat="41.85916" lon="20.00977">
        <ele>311.8</ele>
      </trkpt>
      <trkpt lat="41.85911" lon="20.00982">
        <ele>313.9</ele>
      </trkpt>
      <trkpt lat="41.85911" lon="20.00988">
        <ele>315.4</ele>
      </trkpt>
      <trkpt lat="41.85916" lon="20.0101">
        <ele>319.3</ele>
      </trkpt>
      <trkpt lat="41.85916" lon="20.01016">
        <ele>320.7</ele>
      </trkpt>
      <trkpt lat="41.85911" lon="20.01029">
        <ele>324.8</ele>
      </trkpt>
      <trkpt lat="41.85903" lon="20.01042">
        <ele>330.3</ele>
      </trkpt>
      <trkpt lat="41.85877" lon="20.01067">
        <ele>345.4</ele>
      </trkpt>
      <trkpt lat="41.8586" lon="20.01089">
        <ele>358.5</ele>
      </trkpt>
      <trkpt lat="41.85849" lon="20.01091">
        <ele>363.4</ele>
      </trkpt>
      <trkpt lat="41.85832" lon="20.01093">
        <ele>370.2</ele>
      </trkpt>
      <trkpt lat="41.85808" lon="20.011">
        <ele>376.8</ele>
      </trkpt>
      <trkpt lat="41.85802" lon="20.01102">
        <ele>378.6</ele>
      </trkpt>
      <trkpt lat="41.85787" lon="20.01093">
        <ele>378.5</ele>
      </trkpt>
      <trkpt lat="41.85767" lon="20.01089">
        <ele>381</ele>
      </trkpt>
      <trkpt lat="41.85757" lon="20.01091">
        <ele>383.6</ele>
      </trkpt>
      <trkpt lat="41.85742" lon="20.01097">
        <ele>385.4</ele>
      </trkpt>
      <trkpt lat="41.85737" lon="20.01097">
        <ele>384.9</ele>
      </trkpt>
      <trkpt lat="41.85735" lon="20.01093">
        <ele>383.6</ele>
      </trkpt>
      <trkpt lat="41.85733" lon="20.01078">
        <ele>379.3</ele>
      </trkpt>
      <trkpt lat="41.85725" lon="20.01059">
        <ele>372.6</ele>
      </trkpt>
      <trkpt lat="41.85725" lon="20.01042">
        <ele>367.4</ele>
      </trkpt>
      <trkpt lat="41.85722" lon="20.01033">
        <ele>364.8</ele>
      </trkpt>
      <trkpt lat="41.8571" lon="20.01029">
        <ele>363.3</ele>
      </trkpt>
      <trkpt lat="41.85679" lon="20.01025">
        <ele>361.8</ele>
      </trkpt>
      <trkpt lat="41.85673" lon="20.01027">
        <ele>362.2</ele>
      </trkpt>
      <trkpt lat="41.85669" lon="20.01031">
        <ele>363</ele>
      </trkpt>
      <trkpt lat="41.85634" lon="20.01089">
        <ele>376.1</ele>
      </trkpt>
      <trkpt lat="41.85617" lon="20.01093">
        <ele>378.1</ele>
      </trkpt>
      <trkpt lat="41.856" lon="20.01104">
        <ele>381.9</ele>
      </trkpt>
      <trkpt lat="41.85544" lon="20.01125">
        <ele>392.6</ele>
      </trkpt>
      <trkpt lat="41.8554" lon="20.01128">
        <ele>393.5</ele>
      </trkpt>
      <trkpt lat="41.85536" lon="20.01128">
        <ele>394</ele>
      </trkpt>
      <trkpt lat="41.85529" lon="20.01123">
        <ele>393.6</ele>
      </trkpt>
      <trkpt lat="41.85525" lon="20.01123">
        <ele>394</ele>
      </trkpt>
      <trkpt lat="41.85514" lon="20.01125">
        <ele>395.6</ele>
      </trkpt>
      <trkpt lat="41.85504" lon="20.01132">
        <ele>398.1</ele>
      </trkpt>
      <trkpt lat="41.85499" lon="20.01136">
        <ele>399.5</ele>
      </trkpt>
      <trkpt lat="41.85486" lon="20.01153">
        <ele>405</ele>
      </trkpt>
      <trkpt lat="41.8548" lon="20.01158">
        <ele>406.8</ele>
      </trkpt>
      <trkpt lat="41.85467" lon="20.01158">
        <ele>408.6</ele>
      </trkpt>
      <trkpt lat="41.85426" lon="20.01153">
        <ele>413.4</ele>
      </trkpt>
      <trkpt lat="41.85407" lon="20.01136">
        <ele>413.3</ele>
      </trkpt>
      <trkpt lat="41.85396" lon="20.01138">
        <ele>415.2</ele>
      </trkpt>
      <trkpt lat="41.85392" lon="20.0114">
        <ele>416.2</ele>
      </trkpt>
      <trkpt lat="41.85375" lon="20.01136">
        <ele>417.9</ele>
      </trkpt>
      <trkpt lat="41.85358" lon="20.01117">
        <ele>416.5</ele>
      </trkpt>
      <trkpt lat="41.85349" lon="20.0111">
        <ele>416.4</ele>
      </trkpt>
      <trkpt lat="41.8534" lon="20.011">
        <ele>415.4</ele>
      </trkpt>
      <trkpt lat="41.85325" lon="20.01067">
        <ele>411</ele>
      </trkpt>
      <trkpt lat="41.85319" lon="20.01063">
        <ele>411.4</ele>
      </trkpt>
      <trkpt lat="41.85313" lon="20.01061">
        <ele>412.3</ele>
      </trkpt>
      <trkpt lat="41.85302" lon="20.01065">
        <ele>415.4</ele>
      </trkpt>
      <trkpt lat="41.85293" lon="20.0108">
        <ele>420.1</ele>
      </trkpt>
      <trkpt lat="41.85289" lon="20.01082">
        <ele>421.3</ele>
      </trkpt>
      <trkpt lat="41.85283" lon="20.01085">
        <ele>423</ele>
      </trkpt>
      <trkpt lat="41.8527" lon="20.01082">
        <ele>425.1</ele>
      </trkpt>
      <trkpt lat="41.85259" lon="20.01085">
        <ele>427.5</ele>
      </trkpt>
      <trkpt lat="41.85252" lon="20.01089">
        <ele>429.6</ele>
      </trkpt>
      <trkpt lat="41.85242" lon="20.01104">
        <ele>434.9</ele>
      </trkpt>
      <trkpt lat="41.85235" lon="20.01106">
        <ele>436.9</ele>
      </trkpt>
      <trkpt lat="41.85227" lon="20.01104">
        <ele>438.5</ele>
      </trkpt>
      <trkpt lat="41.85227" lon="20.01085">
        <ele>435.1</ele>
      </trkpt>
      <trkpt lat="41.85222" lon="20.01074">
        <ele>434.8</ele>
      </trkpt>
      <trkpt lat="41.85216" lon="20.01063">
        <ele>435.2</ele>
      </trkpt>
      <trkpt lat="41.8521" lon="20.01061">
        <ele>436.8</ele>
      </trkpt>
      <trkpt lat="41.85201" lon="20.01063">
        <ele>439.4</ele>
      </trkpt>
      <trkpt lat="41.85192" lon="20.0107">
        <ele>442.3</ele>
      </trkpt>
      <trkpt lat="41.8518" lon="20.01074">
        <ele>446.1</ele>
      </trkpt>
      <trkpt lat="41.85175" lon="20.01072">
        <ele>447</ele>
      </trkpt>
      <trkpt lat="41.85173" lon="20.01067">
        <ele>447.3</ele>
      </trkpt>
      <trkpt lat="41.85177" lon="20.01046">
        <ele>444.6</ele>
      </trkpt>
      <trkpt lat="41.85182" lon="20.01033">
        <ele>442.4</ele>
      </trkpt>
      <trkpt lat="41.85186" lon="20.01014">
        <ele>439.4</ele>
      </trkpt>
      <trkpt lat="41.85188" lon="20.00999">
        <ele>437.5</ele>
      </trkpt>
      <trkpt lat="41.85184" lon="20.00984">
        <ele>438.8</ele>
      </trkpt>
      <trkpt lat="41.85175" lon="20.00973">
        <ele>441.5</ele>
      </trkpt>
      <trkpt lat="41.85148" lon="20.00947">
        <ele>448.2</ele>
      </trkpt>
      <trkpt lat="41.85139" lon="20.00937">
        <ele>449.4</ele>
      </trkpt>
      <trkpt lat="41.85137" lon="20.0093">
        <ele>449.2</ele>
      </trkpt>
      <trkpt lat="41.85134" lon="20.00926">
        <ele>449.3</ele>
      </trkpt>
      <trkpt lat="41.8513" lon="20.00924">
        <ele>449.9</ele>
      </trkpt>
      <trkpt lat="41.85124" lon="20.00934">
        <ele>452.3</ele>
      </trkpt>
      <trkpt lat="41.85122" lon="20.00947">
        <ele>454.3</ele>
      </trkpt>
      <trkpt lat="41.85128" lon="20.01025">
        <ele>459.9</ele>
      </trkpt>
      <trkpt lat="41.85128" lon="20.01031">
        <ele>460.3</ele>
      </trkpt>
      <trkpt lat="41.85126" lon="20.01035">
        <ele>461.3</ele>
      </trkpt>
      <trkpt lat="41.85119" lon="20.01033">
        <ele>463.4</ele>
      </trkpt>
      <trkpt lat="41.85113" lon="20.01016">
        <ele>464.7</ele>
      </trkpt>
      <trkpt lat="41.85083" lon="20.00979">
        <ele>469.9</ele>
      </trkpt>
      <trkpt lat="41.85068" lon="20.00943">
        <ele>464.3</ele>
      </trkpt>
      <trkpt lat="41.85057" lon="20.00919">
        <ele>460.4</ele>
      </trkpt>
      <trkpt lat="41.85034" lon="20.00913">
        <ele>461.6</ele>
      </trkpt>
      <trkpt lat="41.85006" lon="20.00907">
        <ele>463.3</ele>
      </trkpt>
      <trkpt lat="41.84989" lon="20.00898">
        <ele>464.3</ele>
      </trkpt>
      <trkpt lat="41.84978" lon="20.00887">
        <ele>464.3</ele>
      </trkpt>
      <trkpt lat="41.84967" lon="20.00883">
        <ele>465.5</ele>
      </trkpt>
      <trkpt lat="41.84963" lon="20.00881">
        <ele>466</ele>
      </trkpt>
      <trkpt lat="41.84956" lon="20.00881">
        <ele>467.2</ele>
      </trkpt>
      <trkpt lat="41.84952" lon="20.00879">
        <ele>467.7</ele>
      </trkpt>
      <trkpt lat="41.84935" lon="20.00879">
        <ele>471</ele>
      </trkpt>
      <trkpt lat="41.84918" lon="20.00883">
        <ele>475.1</ele>
      </trkpt>
      <trkpt lat="41.84901" lon="20.00881">
        <ele>480.8</ele>
      </trkpt>
      <trkpt lat="41.8489" lon="20.00879">
        <ele>484.2</ele>
      </trkpt>
      <trkpt lat="41.8484" lon="20.0087">
        <ele>500.7</ele>
      </trkpt>
      <trkpt lat="41.84823" lon="20.00827">
        <ele>500.3</ele>
      </trkpt>
      <trkpt lat="41.84823" lon="20.00801">
        <ele>495.6</ele>
      </trkpt>
      <trkpt lat="41.84849" lon="20.0078">
        <ele>485.9</ele>
      </trkpt>
      <trkpt lat="41.84853" lon="20.00748">
        <ele>481.2</ele>
      </trkpt>
      <trkpt lat="41.84858" lon="20.00728">
        <ele>477.2</ele>
      </trkpt>
      <trkpt lat="41.84864" lon="20.00714">
        <ele>474.2</ele>
      </trkpt>
      <trkpt lat="41.84877" lon="20.00688">
        <ele>470.1</ele>
      </trkpt>
      <trkpt lat="41.84877" lon="20.00677">
        <ele>468.9</ele>
      </trkpt>
      <trkpt lat="41.84871" lon="20.00658">
        <ele>464.5</ele>
      </trkpt>
      <trkpt lat="41.84864" lon="20.0066">
        <ele>464.8</ele>
      </trkpt>
      <trkpt lat="41.84845" lon="20.0067">
        <ele>466.5</ele>
      </trkpt>
      <trkpt lat="41.84821" lon="20.00694">
        <ele>472.8</ele>
      </trkpt>
      <trkpt lat="41.8478" lon="20.00713">
        <ele>482.4</ele>
      </trkpt>
      <trkpt lat="41.8474" lon="20.00741">
        <ele>495.4</ele>
      </trkpt>
      <trkpt lat="41.84703" lon="20.00741">
        <ele>499.3</ele>
      </trkpt>
      <trkpt lat="41.8468" lon="20.00743">
        <ele>502</ele>
      </trkpt>
      <trkpt lat="41.84665" lon="20.0075">
        <ele>504.5</ele>
      </trkpt>
      <trkpt lat="41.84645" lon="20.00746">
        <ele>508.9</ele>
      </trkpt>
      <trkpt lat="41.84632" lon="20.00748">
        <ele>512.4</ele>
      </trkpt>
      <trkpt lat="41.8463" lon="20.00752">
        <ele>513.7</ele>
      </trkpt>
      <trkpt lat="41.84628" lon="20.00758">
        <ele>516</ele>
      </trkpt>
      <trkpt lat="41.84622" lon="20.00782">
        <ele>523.6</ele>
      </trkpt>
      <trkpt lat="41.84615" lon="20.00786">
        <ele>526.1</ele>
      </trkpt>
      <trkpt lat="41.84611" lon="20.00788">
        <ele>527.4</ele>
      </trkpt>
      <trkpt lat="41.84596" lon="20.00788">
        <ele>530.4</ele>
      </trkpt>
      <trkpt lat="41.84592" lon="20.00786">
        <ele>530.8</ele>
      </trkpt>
      <trkpt lat="41.84579" lon="20.00765">
        <ele>528.7</ele>
      </trkpt>
      <trkpt lat="41.84572" lon="20.00761">
        <ele>528.9</ele>
      </trkpt>
      <trkpt lat="41.84534" lon="20.00758">
        <ele>534.5</ele>
      </trkpt>
      <trkpt lat="41.84497" lon="20.00758">
        <ele>539.9</ele>
      </trkpt>
      <trkpt lat="41.84489" lon="20.00767">
        <ele>541.2</ele>
      </trkpt>
      <trkpt lat="41.84484" lon="20.00767">
        <ele>541.4</ele>
      </trkpt>
      <trkpt lat="41.84478" lon="20.0075">
        <ele>539.5</ele>
      </trkpt>
      <trkpt lat="41.84478" lon="20.00743">
        <ele>538.8</ele>
      </trkpt>
      <trkpt lat="41.84478" lon="20.00733">
        <ele>537.7</ele>
      </trkpt>
      <trkpt lat="41.84493" lon="20.00705">
        <ele>533.6</ele>
      </trkpt>
      <trkpt lat="41.84495" lon="20.00701">
        <ele>532.9</ele>
      </trkpt>
      <trkpt lat="41.84497" lon="20.0069">
        <ele>531.3</ele>
      </trkpt>
      <trkpt lat="41.84497" lon="20.00681">
        <ele>530.2</ele>
      </trkpt>
      <trkpt lat="41.84495" lon="20.00677">
        <ele>529.9</ele>
      </trkpt>
      <trkpt lat="41.84491" lon="20.00673">
        <ele>529.8</ele>
      </trkpt>
      <trkpt lat="41.84487" lon="20.00673">
        <ele>530.3</ele>
      </trkpt>
      <trkpt lat="41.84484" lon="20.00675">
        <ele>530.8</ele>
      </trkpt>
      <trkpt lat="41.84478" lon="20.00679">
        <ele>532</ele>
      </trkpt>
      <trkpt lat="41.84424" lon="20.00733">
        <ele>540.1</ele>
      </trkpt>
      <trkpt lat="41.84401" lon="20.00756">
        <ele>546.7</ele>
      </trkpt>
      <trkpt lat="41.8439" lon="20.00763">
        <ele>551</ele>
      </trkpt>
      <trkpt lat="41.84381" lon="20.00765">
        <ele>553.8</ele>
      </trkpt>
      <trkpt lat="41.84358" lon="20.00767">
        <ele>560.8</ele>
      </trkpt>
      <trkpt lat="41.84351" lon="20.00769">
        <ele>563</ele>
      </trkpt>
      <trkpt lat="41.84326" lon="20.00786">
        <ele>574.9</ele>
      </trkpt>
      <trkpt lat="41.84317" lon="20.00788">
        <ele>579.1</ele>
      </trkpt>
      <trkpt lat="41.84313" lon="20.00788">
        <ele>580.9</ele>
      </trkpt>
      <trkpt lat="41.84306" lon="20.00784">
        <ele>583.2</ele>
      </trkpt>
      <trkpt lat="41.84302" lon="20.00776">
        <ele>584</ele>
      </trkpt>
      <trkpt lat="41.84289" lon="20.00728">
        <ele>585.2</ele>
      </trkpt>
      <trkpt lat="41.8427" lon="20.00688">
        <ele>588.8</ele>
      </trkpt>
      <trkpt lat="41.8427" lon="20.0067">
        <ele>586.4</ele>
      </trkpt>
      <trkpt lat="41.84272" lon="20.00658">
        <ele>584.9</ele>
      </trkpt>
      <trkpt lat="41.84283" lon="20.0064">
        <ele>581.1</ele>
      </trkpt>
      <trkpt lat="41.84285" lon="20.0063">
        <ele>580.3</ele>
      </trkpt>
      <trkpt lat="41.84289" lon="20.00593">
        <ele>579.1</ele>
      </trkpt>
      <trkpt lat="41.843" lon="20.00531">
        <ele>576.3</ele>
      </trkpt>
      <trkpt lat="41.8431" lon="20.00503">
        <ele>574.7</ele>
      </trkpt>
      <trkpt lat="41.84315" lon="20.00484">
        <ele>572.7</ele>
      </trkpt>
      <trkpt lat="41.84315" lon="20.00477">
        <ele>572.1</ele>
      </trkpt>
      <trkpt lat="41.8431" lon="20.00469">
        <ele>571.7</ele>
      </trkpt>
      <trkpt lat="41.84302" lon="20.00458">
        <ele>571.8</ele>
      </trkpt>
      <trkpt lat="41.84285" lon="20.00447">
        <ele>572.8</ele>
      </trkpt>
      <trkpt lat="41.84256" lon="20.00452">
        <ele>576.6</ele>
      </trkpt>
      <trkpt lat="41.84231" lon="20.00456">
        <ele>580.5</ele>
      </trkpt>
      <trkpt lat="41.84223" lon="20.0046">
        <ele>582.1</ele>
      </trkpt>
      <trkpt lat="41.84201" lon="20.0048">
        <ele>586.5</ele>
      </trkpt>
      <trkpt lat="41.84195" lon="20.00492">
        <ele>588.2</ele>
      </trkpt>
      <trkpt lat="41.84182" lon="20.00572">
        <ele>601</ele>
      </trkpt>
      <trkpt lat="41.84182" lon="20.00593">
        <ele>605.4</ele>
      </trkpt>
      <trkpt lat="41.84188" lon="20.00632">
        <ele>613.4</ele>
      </trkpt>
      <trkpt lat="41.84186" lon="20.00647">
        <ele>617.9</ele>
      </trkpt>
      <trkpt lat="41.84186" lon="20.00677">
        <ele>624.8</ele>
      </trkpt>
      <trkpt lat="41.84188" lon="20.00688">
        <ele>625.7</ele>
      </trkpt>
      <trkpt lat="41.84186" lon="20.00698">
        <ele>628.6</ele>
      </trkpt>
      <trkpt lat="41.8418" lon="20.00701">
        <ele>632.1</ele>
      </trkpt>
      <trkpt lat="41.84111" lon="20.00613">
        <ele>638</ele>
      </trkpt>
      <trkpt lat="41.84083" lon="20.00598">
        <ele>643</ele>
      </trkpt>
      <trkpt lat="41.84074" lon="20.00591">
        <ele>640.9</ele>
      </trkpt>
      <trkpt lat="41.84055" lon="20.00572">
        <ele>636.8</ele>
      </trkpt>
      <trkpt lat="41.84038" lon="20.00559">
        <ele>635.6</ele>
      </trkpt>
      <trkpt lat="41.84027" lon="20.00548">
        <ele>634.4</ele>
      </trkpt>
      <trkpt lat="41.84017" lon="20.00525">
        <ele>630.6</ele>
      </trkpt>
      <trkpt lat="41.8401" lon="20.00505">
        <ele>627.4</ele>
      </trkpt>
      <trkpt lat="41.83999" lon="20.00488">
        <ele>625.4</ele>
      </trkpt>
      <trkpt lat="41.83997" lon="20.00469">
        <ele>621.1</ele>
      </trkpt>
      <trkpt lat="41.8398" lon="20.00445">
        <ele>615</ele>
      </trkpt>
      <trkpt lat="41.83967" lon="20.00434">
        <ele>612.1</ele>
      </trkpt>
      <trkpt lat="41.83963" lon="20.00432">
        <ele>611.4</ele>
      </trkpt>
      <trkpt lat="41.83956" lon="20.00428">
        <ele>610.2</ele>
      </trkpt>
      <trkpt lat="41.83948" lon="20.00426">
        <ele>609.3</ele>
      </trkpt>
      <trkpt lat="41.83941" lon="20.00428">
        <ele>609.4</ele>
      </trkpt>
      <trkpt lat="41.83937" lon="20.00434">
        <ele>610.5</ele>
      </trkpt>
      <trkpt lat="41.83924" lon="20.00456">
        <ele>614</ele>
      </trkpt>
      <trkpt lat="41.83909" lon="20.0049">
        <ele>621.6</ele>
      </trkpt>
      <trkpt lat="41.83907" lon="20.00495">
        <ele>622.9</ele>
      </trkpt>
      <trkpt lat="41.83901" lon="20.00499">
        <ele>625</ele>
      </trkpt>
      <trkpt lat="41.83868" lon="20.00512">
        <ele>634.6</ele>
      </trkpt>
      <trkpt lat="41.83864" lon="20.00518">
        <ele>637</ele>
      </trkpt>
      <trkpt lat="41.83864" lon="20.00525">
        <ele>638.5</ele>
      </trkpt>
      <trkpt lat="41.83866" lon="20.00529">
        <ele>639.1</ele>
      </trkpt>
      <trkpt lat="41.83875" lon="20.00544">
        <ele>641.1</ele>
      </trkpt>
      <trkpt lat="41.83875" lon="20.00563">
        <ele>645.7</ele>
      </trkpt>
      <trkpt lat="41.83873" lon="20.00574">
        <ele>648.7</ele>
      </trkpt>
      <trkpt lat="41.83866" lon="20.00583">
        <ele>651.9</ele>
      </trkpt>
      <trkpt lat="41.8386" lon="20.00585">
        <ele>653.4</ele>
      </trkpt>
      <trkpt lat="41.83849" lon="20.0058">
        <ele>654.5</ele>
      </trkpt>
      <trkpt lat="41.83832" lon="20.00576">
        <ele>656.4</ele>
      </trkpt>
      <trkpt lat="41.83815" lon="20.00583">
        <ele>658.3</ele>
      </trkpt>
      <trkpt lat="41.83802" lon="20.00583">
        <ele>658.6</ele>
      </trkpt>
      <trkpt lat="41.83795" lon="20.0058">
        <ele>658.3</ele>
      </trkpt>
      <trkpt lat="41.83748" lon="20.0052">
        <ele>650.8</ele>
      </trkpt>
      <trkpt lat="41.83742" lon="20.00516">
        <ele>649.8</ele>
      </trkpt>
      <trkpt lat="41.83718" lon="20.00516">
        <ele>648.3</ele>
      </trkpt>
      <trkpt lat="41.8371" lon="20.00512">
        <ele>647.4</ele>
      </trkpt>
      <trkpt lat="41.83684" lon="20.00495">
        <ele>645.3</ele>
      </trkpt>
      <trkpt lat="41.83624" lon="20.0043">
        <ele>631.8</ele>
      </trkpt>
      <trkpt lat="41.83613" lon="20.00428">
        <ele>629.1</ele>
      </trkpt>
      <trkpt lat="41.8359" lon="20.00454">
        <ele>622.8</ele>
      </trkpt>
      <trkpt lat="41.83572" lon="20.00495">
        <ele>617.4</ele>
      </trkpt>
      <trkpt lat="41.83566" lon="20.00527">
        <ele>615.7</ele>
      </trkpt>
      <trkpt lat="41.83566" lon="20.0058">
        <ele>615.8</ele>
      </trkpt>
      <trkpt lat="41.83559" lon="20.0061">
        <ele>614.2</ele>
      </trkpt>
      <trkpt lat="41.83536" lon="20.00653">
        <ele>606.4</ele>
      </trkpt>
      <trkpt lat="41.83521" lon="20.00668">
        <ele>600.9</ele>
      </trkpt>
      <trkpt lat="41.83519" lon="20.00675">
        <ele>599.6</ele>
      </trkpt>
      <trkpt lat="41.83521" lon="20.00681">
        <ele>599.8</ele>
      </trkpt>
      <trkpt lat="41.83553" lon="20.00728">
        <ele>605.9</ele>
      </trkpt>
      <trkpt lat="41.83553" lon="20.00739">
        <ele>604.9</ele>
      </trkpt>
      <trkpt lat="41.83529" lon="20.00791">
        <ele>594.9</ele>
      </trkpt>
      <trkpt lat="41.83508" lon="20.00827">
        <ele>586</ele>
      </trkpt>
      <trkpt lat="41.83504" lon="20.00851">
        <ele>584.2</ele>
      </trkpt>
      <trkpt lat="41.83498" lon="20.00868">
        <ele>582.3</ele>
      </trkpt>
      <trkpt lat="41.83498" lon="20.00868">
        <ele>582.3</ele>
      </trkpt>
      <trkpt lat="41.83495" lon="20.00876">
        <ele>581.4</ele>
      </trkpt>
      <trkpt lat="41.83486" lon="20.00917">
        <ele>578.4</ele>
      </trkpt>
      <trkpt lat="41.83486" lon="20.00932">
        <ele>578.4</ele>
      </trkpt>
      <trkpt lat="41.83489" lon="20.00941">
        <ele>579</ele>
      </trkpt>
      <trkpt lat="41.83493" lon="20.00949">
        <ele>580.2</ele>
      </trkpt>
      <trkpt lat="41.83508" lon="20.00962">
        <ele>584.6</ele>
      </trkpt>
      <trkpt lat="41.8351" lon="20.00967">
        <ele>585.2</ele>
      </trkpt>
      <trkpt lat="41.83512" lon="20.00975">
        <ele>585.8</ele>
      </trkpt>
      <trkpt lat="41.83512" lon="20.00979">
        <ele>585.7</ele>
      </trkpt>
      <trkpt lat="41.8351" lon="20.00986">
        <ele>584.8</ele>
      </trkpt>
      <trkpt lat="41.83506" lon="20.0099">
        <ele>583.2</ele>
      </trkpt>
      <trkpt lat="41.83491" lon="20.01003">
        <ele>579.3</ele>
      </trkpt>
      <trkpt lat="41.83478" lon="20.0102">
        <ele>578.1</ele>
      </trkpt>
      <trkpt lat="41.83463" lon="20.01044">
        <ele>577.3</ele>
      </trkpt>
      <trkpt lat="41.83461" lon="20.0105">
        <ele>577.4</ele>
      </trkpt>
      <trkpt lat="41.83456" lon="20.01078">
        <ele>579.2</ele>
      </trkpt>
      <trkpt lat="41.83448" lon="20.01087">
        <ele>578.4</ele>
      </trkpt>
      <trkpt lat="41.83439" lon="20.01089">
        <ele>577</ele>
      </trkpt>
      <trkpt lat="41.83429" lon="20.01087">
        <ele>575.1</ele>
      </trkpt>
      <trkpt lat="41.8342" lon="20.01082">
        <ele>573.4</ele>
      </trkpt>
      <trkpt lat="41.83409" lon="20.01076">
        <ele>570.4</ele>
      </trkpt>
      <trkpt lat="41.83405" lon="20.01074">
        <ele>569.1</ele>
      </trkpt>
      <trkpt lat="41.83399" lon="20.01078">
        <ele>567.9</ele>
      </trkpt>
      <trkpt lat="41.83381" lon="20.01102">
        <ele>564.7</ele>
      </trkpt>
      <trkpt lat="41.83373" lon="20.01106">
        <ele>562.8</ele>
      </trkpt>
      <trkpt lat="41.83362" lon="20.01104">
        <ele>560.1</ele>
      </trkpt>
      <trkpt lat="41.83341" lon="20.01108">
        <ele>555.2</ele>
      </trkpt>
      <trkpt lat="41.83315" lon="20.01149">
        <ele>552.2</ele>
      </trkpt>
      <trkpt lat="41.83287" lon="20.01166">
        <ele>547.5</ele>
      </trkpt>
      <trkpt lat="41.83259" lon="20.0117">
        <ele>541.9</ele>
      </trkpt>
      <trkpt lat="41.83235" lon="20.0117">
        <ele>540.4</ele>
      </trkpt>
      <trkpt lat="41.83205" lon="20.01164">
        <ele>540.8</ele>
      </trkpt>
      <trkpt lat="41.83199" lon="20.01162">
        <ele>540.7</ele>
      </trkpt>
      <trkpt lat="41.83197" lon="20.01153">
        <ele>539.8</ele>
      </trkpt>
      <trkpt lat="41.83195" lon="20.0114">
        <ele>538.5</ele>
      </trkpt>
      <trkpt lat="41.83195" lon="20.01125">
        <ele>536.9</ele>
      </trkpt>
      <trkpt lat="41.8319" lon="20.01117">
        <ele>535.9</ele>
      </trkpt>
      <trkpt lat="41.83169" lon="20.01093">
        <ele>532.4</ele>
      </trkpt>
      <trkpt lat="41.83165" lon="20.01091">
        <ele>532.3</ele>
      </trkpt>
      <trkpt lat="41.8316" lon="20.01093">
        <ele>533.2</ele>
      </trkpt>
      <trkpt lat="41.83143" lon="20.01117">
        <ele>539.3</ele>
      </trkpt>
      <trkpt lat="41.83137" lon="20.0114">
        <ele>544.2</ele>
      </trkpt>
      <trkpt lat="41.83135" lon="20.01173">
        <ele>549.4</ele>
      </trkpt>
      <trkpt lat="41.83132" lon="20.01194">
        <ele>551.9</ele>
      </trkpt>
      <trkpt lat="41.83109" lon="20.01188">
        <ele>557.1</ele>
      </trkpt>
      <trkpt lat="41.83105" lon="20.01177">
        <ele>556.7</ele>
      </trkpt>
      <trkpt lat="41.831" lon="20.01164">
        <ele>555.8</ele>
      </trkpt>
      <trkpt lat="41.83098" lon="20.01145">
        <ele>552.4</ele>
      </trkpt>
      <trkpt lat="41.83098" lon="20.01128">
        <ele>548.9</ele>
      </trkpt>
      <trkpt lat="41.83096" lon="20.01119">
        <ele>547.6</ele>
      </trkpt>
      <trkpt lat="41.8309" lon="20.01115">
        <ele>547.7</ele>
      </trkpt>
      <trkpt lat="41.83055" lon="20.01138">
        <ele>558.4</ele>
      </trkpt>
      <trkpt lat="41.83047" lon="20.01138">
        <ele>559.7</ele>
      </trkpt>
      <trkpt lat="41.82997" lon="20.0111">
        <ele>562.1</ele>
      </trkpt>
      <trkpt lat="41.82989" lon="20.01106">
        <ele>563.2</ele>
      </trkpt>
      <trkpt lat="41.82984" lon="20.011">
        <ele>562.9</ele>
      </trkpt>
      <trkpt lat="41.82976" lon="20.01085">
        <ele>562</ele>
      </trkpt>
      <trkpt lat="41.82972" lon="20.01082">
        <ele>562.8</ele>
      </trkpt>
      <trkpt lat="41.82948" lon="20.01087">
        <ele>569.1</ele>
      </trkpt>
      <trkpt lat="41.82935" lon="20.01093">
        <ele>573.1</ele>
      </trkpt>
      <trkpt lat="41.82926" lon="20.01089">
        <ele>574.5</ele>
      </trkpt>
      <trkpt lat="41.82922" lon="20.01082">
        <ele>574.6</ele>
      </trkpt>
      <trkpt lat="41.82918" lon="20.01065">
        <ele>574.2</ele>
      </trkpt>
      <trkpt lat="41.82918" lon="20.01052">
        <ele>573.1</ele>
      </trkpt>
      <trkpt lat="41.8292" lon="20.01042">
        <ele>571.8</ele>
      </trkpt>
      <trkpt lat="41.82924" lon="20.01033">
        <ele>570.2</ele>
      </trkpt>
      <trkpt lat="41.82929" lon="20.01027">
        <ele>568.8</ele>
      </trkpt>
      <trkpt lat="41.82931" lon="20.0102">
        <ele>567.8</ele>
      </trkpt>
      <trkpt lat="41.82931" lon="20.01014">
        <ele>567.4</ele>
      </trkpt>
      <trkpt lat="41.82922" lon="20.00954">
        <ele>560.9</ele>
      </trkpt>
      <trkpt lat="41.8292" lon="20.00949">
        <ele>560.6</ele>
      </trkpt>
      <trkpt lat="41.82911" lon="20.00945">
        <ele>561.8</ele>
      </trkpt>
      <trkpt lat="41.82899" lon="20.00949">
        <ele>565.8</ele>
      </trkpt>
      <trkpt lat="41.82894" lon="20.00952">
        <ele>567.3</ele>
      </trkpt>
      <trkpt lat="41.82884" lon="20.00969">
        <ele>572.6</ele>
      </trkpt>
      <trkpt lat="41.82847" lon="20.01037">
        <ele>589.3</ele>
      </trkpt>
      <trkpt lat="41.82826" lon="20.01067">
        <ele>596.6</ele>
      </trkpt>
      <trkpt lat="41.82817" lon="20.01078">
        <ele>599.2</ele>
      </trkpt>
      <trkpt lat="41.82808" lon="20.01082">
        <ele>601.3</ele>
      </trkpt>
      <trkpt lat="41.82804" lon="20.01082">
        <ele>602.3</ele>
      </trkpt>
      <trkpt lat="41.82798" lon="20.01037">
        <ele>601.1</ele>
      </trkpt>
      <trkpt lat="41.82796" lon="20.01025">
        <ele>600.9</ele>
      </trkpt>
      <trkpt lat="41.8277" lon="20.00992">
        <ele>605.4</ele>
      </trkpt>
      <trkpt lat="41.8274" lon="20.00964">
        <ele>612.8</ele>
      </trkpt>
      <trkpt lat="41.82714" lon="20.00952">
        <ele>621.4</ele>
      </trkpt>
      <trkpt lat="41.82682" lon="20.00915">
        <ele>627.8</ele>
      </trkpt>
      <trkpt lat="41.8266" lon="20.00876">
        <ele>628.6</ele>
      </trkpt>
      <trkpt lat="41.82635" lon="20.00842">
        <ele>635</ele>
      </trkpt>
      <trkpt lat="41.8263" lon="20.00823">
        <ele>632.6</ele>
      </trkpt>
      <trkpt lat="41.82626" lon="20.00814">
        <ele>632.4</ele>
      </trkpt>
      <trkpt lat="41.8262" lon="20.00808">
        <ele>633.6</ele>
      </trkpt>
      <trkpt lat="41.82594" lon="20.00788">
        <ele>639</ele>
      </trkpt>
      <trkpt lat="41.82572" lon="20.00748">
        <ele>633.3</ele>
      </trkpt>
      <trkpt lat="41.82566" lon="20.00737">
        <ele>632.1</ele>
      </trkpt>
      <trkpt lat="41.82553" lon="20.00728">
        <ele>633.8</ele>
      </trkpt>
      <trkpt lat="41.82534" lon="20.00713">
        <ele>634.9</ele>
      </trkpt>
      <trkpt lat="41.82514" lon="20.0066">
        <ele>621.4</ele>
      </trkpt>
      <trkpt lat="41.8251" lon="20.00655">
        <ele>621.5</ele>
      </trkpt>
      <trkpt lat="41.82502" lon="20.00651">
        <ele>622.9</ele>
      </trkpt>
      <trkpt lat="41.8248" lon="20.00647">
        <ele>628.1</ele>
      </trkpt>
      <trkpt lat="41.82454" lon="20.00628">
        <ele>630.3</ele>
      </trkpt>
      <trkpt lat="41.82424" lon="20.00604">
        <ele>631.4</ele>
      </trkpt>
      <trkpt lat="41.82405" lon="20.00578">
        <ele>626.9</ele>
      </trkpt>
      <trkpt lat="41.82349" lon="20.00548">
        <ele>623.7</ele>
      </trkpt>
      <trkpt lat="41.82341" lon="20.00548">
        <ele>624.4</ele>
      </trkpt>
      <trkpt lat="41.82321" lon="20.00557">
        <ele>628.1</ele>
      </trkpt>
      <trkpt lat="41.82298" lon="20.00565">
        <ele>631.4</ele>
      </trkpt>
      <trkpt lat="41.82278" lon="20.00565">
        <ele>632</ele>
      </trkpt>
      <trkpt lat="41.82261" lon="20.00563">
        <ele>631.8</ele>
      </trkpt>
      <trkpt lat="41.82225" lon="20.0054">
        <ele>627.9</ele>
      </trkpt>
      <trkpt lat="41.82218" lon="20.00531">
        <ele>626</ele>
      </trkpt>
      <trkpt lat="41.82214" lon="20.00529">
        <ele>625.8</ele>
      </trkpt>
      <trkpt lat="41.82197" lon="20.00525">
        <ele>626.1</ele>
      </trkpt>
      <trkpt lat="41.82105" lon="20.0048">
        <ele>628.2</ele>
      </trkpt>
      <trkpt lat="41.8207" lon="20.00458">
        <ele>627.2</ele>
      </trkpt>
      <trkpt lat="41.82038" lon="20.0043">
        <ele>622.1</ele>
      </trkpt>
      <trkpt lat="41.82012" lon="20.00396">
        <ele>618.8</ele>
      </trkpt>
      <trkpt lat="41.82004" lon="20.00368">
        <ele>616.2</ele>
      </trkpt>
      <trkpt lat="41.81999" lon="20.00336">
        <ele>613.1</ele>
      </trkpt>
      <trkpt lat="41.81997" lon="20.00301">
        <ele>607.9</ele>
      </trkpt>
      <trkpt lat="41.81984" lon="20.00278">
        <ele>602.5</ele>
      </trkpt>
      <trkpt lat="41.81976" lon="20.00254">
        <ele>598</ele>
      </trkpt>
      <trkpt lat="41.81969" lon="20.00216">
        <ele>594.3</ele>
      </trkpt>
      <trkpt lat="41.81974" lon="20.00155">
        <ele>591.5</ele>
      </trkpt>
      <trkpt lat="41.81961" lon="20.001">
        <ele>588.8</ele>
      </trkpt>
      <trkpt lat="41.81944" lon="20.00046">
        <ele>585.6</ele>
      </trkpt>
      <trkpt lat="41.81944" lon="20.00018">
        <ele>586.2</ele>
      </trkpt>
      <trkpt lat="41.81937" lon="19.99984">
        <ele>295.4</ele>
      </trkpt>
      <trkpt lat="41.81927" lon="19.99967">
        <ele>371.1</ele>
      </trkpt>
      <trkpt lat="41.8192" lon="19.99922">
        <ele>565.3</ele>
      </trkpt>
      <trkpt lat="41.81903" lon="19.99887">
        <ele>585.6</ele>
      </trkpt>
      <trkpt lat="41.8189" lon="19.99847">
        <ele>584.7</ele>
      </trkpt>
      <trkpt lat="41.81871" lon="19.99823">
        <ele>581.1</ele>
      </trkpt>
      <trkpt lat="41.81856" lon="19.99814">
        <ele>578.1</ele>
      </trkpt>
      <trkpt lat="41.81849" lon="19.99759">
        <ele>575.9</ele>
      </trkpt>
      <trkpt lat="41.81828" lon="19.99739">
        <ele>572.9</ele>
      </trkpt>
      <trkpt lat="41.81787" lon="19.99598">
        <ele>577</ele>
      </trkpt>
      <trkpt lat="41.81778" lon="19.99544">
        <ele>578.7</ele>
      </trkpt>
      <trkpt lat="41.81776" lon="19.99522">
        <ele>579.7</ele>
      </trkpt>
      <trkpt lat="41.8174" lon="19.99404">
        <ele>581.6</ele>
      </trkpt>
      <trkpt lat="41.8174" lon="19.99334">
        <ele>587.8</ele>
      </trkpt>
      <trkpt lat="41.81729" lon="19.99271">
        <ele>591.2</ele>
      </trkpt>
      <trkpt lat="41.81716" lon="19.99224">
        <ele>592.3</ele>
      </trkpt>
      <trkpt lat="41.8168" lon="19.99177">
        <ele>588</ele>
      </trkpt>
      <trkpt lat="41.81675" lon="19.99128">
        <ele>592.7</ele>
      </trkpt>
      <trkpt lat="41.81663" lon="19.99042">
        <ele>603.3</ele>
      </trkpt>
      <trkpt lat="41.81654" lon="19.9902">
        <ele>605.4</ele>
      </trkpt>
      <trkpt lat="41.81635" lon="19.98995">
        <ele>605.9</ele>
      </trkpt>
      <trkpt lat="41.81585" lon="19.98943">
        <ele>601.9</ele>
      </trkpt>
      <trkpt lat="41.81577" lon="19.98889">
        <ele>603.2</ele>
      </trkpt>
      <trkpt lat="41.81577" lon="19.98844">
        <ele>604.9</ele>
      </trkpt>
      <trkpt lat="41.81583" lon="19.98782">
        <ele>604.5</ele>
      </trkpt>
      <trkpt lat="41.81577" lon="19.98705">
        <ele>602.8</ele>
      </trkpt>
      <trkpt lat="41.81572" lon="19.98686">
        <ele>602.8</ele>
      </trkpt>
      <trkpt lat="41.81562" lon="19.98641">
        <ele>605.8</ele>
      </trkpt>
      <trkpt lat="41.81549" lon="19.98617">
        <ele>608</ele>
      </trkpt>
      <trkpt lat="41.81534" lon="19.98598">
        <ele>610</ele>
      </trkpt>
      <trkpt lat="41.81521" lon="19.98572">
        <ele>613.2</ele>
      </trkpt>
      <trkpt lat="41.81517" lon="19.98557">
        <ele>615.3</ele>
      </trkpt>
      <trkpt lat="41.81515" lon="19.98525">
        <ele>619.9</ele>
      </trkpt>
      <trkpt lat="41.8151" lon="19.98514">
        <ele>621.3</ele>
      </trkpt>
      <trkpt lat="41.81495" lon="19.98501">
        <ele>622.6</ele>
      </trkpt>
      <trkpt lat="41.81472" lon="19.98439">
        <ele>618.3</ele>
      </trkpt>
      <trkpt lat="41.81465" lon="19.98426">
        <ele>616.7</ele>
      </trkpt>
      <trkpt lat="41.81435" lon="19.98458">
        <ele>615.1</ele>
      </trkpt>
      <trkpt lat="41.81435" lon="19.98465">
        <ele>615.7</ele>
      </trkpt>
      <trkpt lat="41.81433" lon="19.98471">
        <ele>616.1</ele>
      </trkpt>
      <trkpt lat="41.81429" lon="19.98478">
        <ele>616.4</ele>
      </trkpt>
      <trkpt lat="41.81422" lon="19.98482">
        <ele>616.3</ele>
      </trkpt>
      <trkpt lat="41.81412" lon="19.98482">
        <ele>615</ele>
      </trkpt>
      <trkpt lat="41.81394" lon="19.98482">
        <ele>612.3</ele>
      </trkpt>
      <trkpt lat="41.81384" lon="19.98478">
        <ele>610</ele>
      </trkpt>
      <trkpt lat="41.8136" lon="19.98486">
        <ele>607.4</ele>
      </trkpt>
      <trkpt lat="41.81351" lon="19.98486">
        <ele>606</ele>
      </trkpt>
      <trkpt lat="41.81319" lon="19.98478">
        <ele>600.7</ele>
      </trkpt>
      <trkpt lat="41.8127" lon="19.98473">
        <ele>595.6</ele>
      </trkpt>
      <trkpt lat="41.81253" lon="19.98482">
        <ele>594.4</ele>
      </trkpt>
      <trkpt lat="41.81244" lon="19.98484">
        <ele>593.2</ele>
      </trkpt>
      <trkpt lat="41.81236" lon="19.98484">
        <ele>591.8</ele>
      </trkpt>
      <trkpt lat="41.81231" lon="19.98482">
        <ele>591</ele>
      </trkpt>
      <trkpt lat="41.81199" lon="19.98456">
        <ele>585.3</ele>
      </trkpt>
      <trkpt lat="41.81193" lon="19.98447">
        <ele>584.3</ele>
      </trkpt>
      <trkpt lat="41.81182" lon="19.98424">
        <ele>582.8</ele>
      </trkpt>
      <trkpt lat="41.81176" lon="19.98417">
        <ele>582.1</ele>
      </trkpt>
      <trkpt lat="41.81156" lon="19.98402">
        <ele>577.6</ele>
      </trkpt>
      <trkpt lat="41.81137" lon="19.98398">
        <ele>574.3</ele>
      </trkpt>
      <trkpt lat="41.8109" lon="19.98409">
        <ele>567.1</ele>
      </trkpt>
      <trkpt lat="41.81083" lon="19.98409">
        <ele>566.1</ele>
      </trkpt>
      <trkpt lat="41.81068" lon="19.98398">
        <ele>564.1</ele>
      </trkpt>
      <trkpt lat="41.8106" lon="19.98394">
        <ele>563.1</ele>
      </trkpt>
      <trkpt lat="41.81055" lon="19.98392">
        <ele>562.6</ele>
      </trkpt>
      <trkpt lat="41.80997" lon="19.98355">
        <ele>558.7</ele>
      </trkpt>
      <trkpt lat="41.80972" lon="19.98344">
        <ele>557.3</ele>
      </trkpt>
      <trkpt lat="41.8095" lon="19.98332">
        <ele>556.3</ele>
      </trkpt>
      <trkpt lat="41.80918" lon="19.98304">
        <ele>554.9</ele>
      </trkpt>
      <trkpt lat="41.80871" lon="19.9828">
        <ele>553.1</ele>
      </trkpt>
      <trkpt lat="41.80845" lon="19.98261">
        <ele>552.3</ele>
      </trkpt>
      <trkpt lat="41.8077" lon="19.98211">
        <ele>550.3</ele>
      </trkpt>
      <trkpt lat="41.80764" lon="19.98205">
        <ele>549.8</ele>
      </trkpt>
      <trkpt lat="41.80753" lon="19.98181">
        <ele>548</ele>
      </trkpt>
      <trkpt lat="41.80736" lon="19.98166">
        <ele>548.4</ele>
      </trkpt>
      <trkpt lat="41.80725" lon="19.98145">
        <ele>548</ele>
      </trkpt>
      <trkpt lat="41.80716" lon="19.98138">
        <ele>548.4</ele>
      </trkpt>
      <trkpt lat="41.80695" lon="19.98134">
        <ele>550.1</ele>
      </trkpt>
      <trkpt lat="41.80688" lon="19.98134">
        <ele>550.7</ele>
      </trkpt>
      <trkpt lat="41.80658" lon="19.98143">
        <ele>552.2</ele>
      </trkpt>
      <trkpt lat="41.80652" lon="19.98147">
        <ele>551.6</ele>
      </trkpt>
      <trkpt lat="41.80646" lon="19.98143">
        <ele>550.4</ele>
      </trkpt>
      <trkpt lat="41.80635" lon="19.98143">
        <ele>549</ele>
      </trkpt>
      <trkpt lat="41.8063" lon="19.98153">
        <ele>549</ele>
      </trkpt>
      <trkpt lat="41.80622" lon="19.98164">
        <ele>548.4</ele>
      </trkpt>
      <trkpt lat="41.80615" lon="19.98177">
        <ele>547.7</ele>
      </trkpt>
      <trkpt lat="41.80598" lon="19.98216">
        <ele>546.8</ele>
      </trkpt>
      <trkpt lat="41.80596" lon="19.9822">
        <ele>546.9</ele>
      </trkpt>
      <trkpt lat="41.80592" lon="19.98222">
        <ele>546.7</ele>
      </trkpt>
      <trkpt lat="41.80583" lon="19.98218">
        <ele>546.1</ele>
      </trkpt>
      <trkpt lat="41.80555" lon="19.98179">
        <ele>539.6</ele>
      </trkpt>
      <trkpt lat="41.80547" lon="19.98175">
        <ele>537.9</ele>
      </trkpt>
      <trkpt lat="41.8054" lon="19.98177">
        <ele>537.2</ele>
      </trkpt>
      <trkpt lat="41.80444" lon="19.98295">
        <ele>572.7</ele>
      </trkpt>
      <trkpt lat="41.80429" lon="19.98295">
        <ele>577.7</ele>
      </trkpt>
      <trkpt lat="41.80422" lon="19.98293">
        <ele>579.4</ele>
      </trkpt>
      <trkpt lat="41.80403" lon="19.98269">
        <ele>580.5</ele>
      </trkpt>
      <trkpt lat="41.80397" lon="19.98265">
        <ele>581.6</ele>
      </trkpt>
      <trkpt lat="41.80379" lon="19.98261">
        <ele>586</ele>
      </trkpt>
      <trkpt lat="41.80375" lon="19.98259">
        <ele>587</ele>
      </trkpt>
      <trkpt lat="41.80373" lon="19.98254">
        <ele>587.2</ele>
      </trkpt>
      <trkpt lat="41.80373" lon="19.98244">
        <ele>585.8</ele>
      </trkpt>
      <trkpt lat="41.80371" lon="19.98237">
        <ele>585.5</ele>
      </trkpt>
      <trkpt lat="41.80369" lon="19.98233">
        <ele>585.7</ele>
      </trkpt>
      <trkpt lat="41.80345" lon="19.98209">
        <ele>591.6</ele>
      </trkpt>
      <trkpt lat="41.80341" lon="19.98201">
        <ele>592.5</ele>
      </trkpt>
      <trkpt lat="41.80341" lon="19.98194">
        <ele>591.9</ele>
      </trkpt>
      <trkpt lat="41.80343" lon="19.98186">
        <ele>590.3</ele>
      </trkpt>
      <trkpt lat="41.80356" lon="19.98173">
        <ele>583.4</ele>
      </trkpt>
      <trkpt lat="41.80356" lon="19.98164">
        <ele>582.3</ele>
      </trkpt>
      <trkpt lat="41.80354" lon="19.98156">
        <ele>581.8</ele>
      </trkpt>
      <trkpt lat="41.80315" lon="19.98106">
        <ele>582</ele>
      </trkpt>
      <trkpt lat="41.803" lon="19.98091">
        <ele>580.5</ele>
      </trkpt>
      <trkpt lat="41.80294" lon="19.98089">
        <ele>580.6</ele>
      </trkpt>
      <trkpt lat="41.80289" lon="19.98085">
        <ele>580.3</ele>
      </trkpt>
      <trkpt lat="41.80285" lon="19.98076">
        <ele>580.4</ele>
      </trkpt>
      <trkpt lat="41.80287" lon="19.98061">
        <ele>580</ele>
      </trkpt>
      <trkpt lat="41.80283" lon="19.98014">
        <ele>579.5</ele>
      </trkpt>
      <trkpt lat="41.80285" lon="19.9799">
        <ele>578.6</ele>
      </trkpt>
      <trkpt lat="41.80287" lon="19.9798">
        <ele>577.9</ele>
      </trkpt>
      <trkpt lat="41.80289" lon="19.97975">
        <ele>577.8</ele>
      </trkpt>
      <trkpt lat="41.80294" lon="19.97973">
        <ele>577.8</ele>
      </trkpt>
      <trkpt lat="41.803" lon="19.97975">
        <ele>578</ele>
      </trkpt>
      <trkpt lat="41.80313" lon="19.97982">
        <ele>578.4</ele>
      </trkpt>
      <trkpt lat="41.80328" lon="19.97978">
        <ele>578.7</ele>
      </trkpt>
      <trkpt lat="41.80337" lon="19.97971">
        <ele>578.3</ele>
      </trkpt>
      <trkpt lat="41.80341" lon="19.97965">
        <ele>577.6</ele>
      </trkpt>
      <trkpt lat="41.80343" lon="19.97952">
        <ele>577.8</ele>
      </trkpt>
      <trkpt lat="41.8033" lon="19.97911">
        <ele>580.2</ele>
      </trkpt>
      <trkpt lat="41.80324" lon="19.97885">
        <ele>577.7</ele>
      </trkpt>
      <trkpt lat="41.80319" lon="19.97872">
        <ele>576</ele>
      </trkpt>
      <trkpt lat="41.80311" lon="19.97862">
        <ele>573.5</ele>
      </trkpt>
      <trkpt lat="41.80304" lon="19.97857">
        <ele>571.7</ele>
      </trkpt>
      <trkpt lat="41.80304" lon="19.97823">
        <ele>569.7</ele>
      </trkpt>
      <trkpt lat="41.80302" lon="19.97814">
        <ele>569.1</ele>
      </trkpt>
      <trkpt lat="41.803" lon="19.97808">
        <ele>568.6</ele>
      </trkpt>
      <trkpt lat="41.80291" lon="19.97778">
        <ele>566.4</ele>
      </trkpt>
      <trkpt lat="41.80272" lon="19.97726">
        <ele>561.5</ele>
      </trkpt>
      <trkpt lat="41.80253" lon="19.97669">
        <ele>554.9</ele>
      </trkpt>
      <trkpt lat="41.80251" lon="19.9766">
        <ele>554</ele>
      </trkpt>
      <trkpt lat="41.80253" lon="19.97641">
        <ele>554</ele>
      </trkpt>
      <trkpt lat="41.80259" lon="19.97617">
        <ele>555.3</ele>
      </trkpt>
      <trkpt lat="41.80259" lon="19.97591">
        <ele>554.5</ele>
      </trkpt>
      <trkpt lat="41.80251" lon="19.97576">
        <ele>551</ele>
      </trkpt>
      <trkpt lat="41.80246" lon="19.9757">
        <ele>549.9</ele>
      </trkpt>
      <trkpt lat="41.80242" lon="19.97559">
        <ele>548.7</ele>
      </trkpt>
      <trkpt lat="41.8024" lon="19.97546">
        <ele>547.9</ele>
      </trkpt>
      <trkpt lat="41.80242" lon="19.97527">
        <ele>547.9</ele>
      </trkpt>
      <trkpt lat="41.8024" lon="19.97512">
        <ele>547</ele>
      </trkpt>
      <trkpt lat="41.80236" lon="19.97508">
        <ele>545.9</ele>
      </trkpt>
      <trkpt lat="41.80234" lon="19.97493">
        <ele>545.4</ele>
      </trkpt>
      <trkpt lat="41.80236" lon="19.97484">
        <ele>546.1</ele>
      </trkpt>
      <trkpt lat="41.80236" lon="19.97475">
        <ele>546.3</ele>
      </trkpt>
      <trkpt lat="41.80249" lon="19.97435">
        <ele>550.2</ele>
      </trkpt>
      <trkpt lat="41.80249" lon="19.97426">
        <ele>550.4</ele>
      </trkpt>
      <trkpt lat="41.80246" lon="19.97417">
        <ele>550.1</ele>
      </trkpt>
      <trkpt lat="41.80234" lon="19.97381">
        <ele>547.1</ele>
      </trkpt>
      <trkpt lat="41.80231" lon="19.97372">
        <ele>546.6</ele>
      </trkpt>
      <trkpt lat="41.8024" lon="19.9733">
        <ele>549.1</ele>
      </trkpt>
      <trkpt lat="41.80253" lon="19.97304">
        <ele>552.8</ele>
      </trkpt>
      <trkpt lat="41.80257" lon="19.97297">
        <ele>553.7</ele>
      </trkpt>
      <trkpt lat="41.80259" lon="19.97291">
        <ele>554.2</ele>
      </trkpt>
      <trkpt lat="41.80261" lon="19.97282">
        <ele>554.8</ele>
      </trkpt>
      <trkpt lat="41.80259" lon="19.97278">
        <ele>554.3</ele>
      </trkpt>
      <trkpt lat="41.80244" lon="19.97261">
        <ele>550.3</ele>
      </trkpt>
      <trkpt lat="41.80234" lon="19.97254">
        <ele>547.1</ele>
      </trkpt>
      <trkpt lat="41.80225" lon="19.97252">
        <ele>544.5</ele>
      </trkpt>
      <trkpt lat="41.80219" lon="19.97239">
        <ele>543.5</ele>
      </trkpt>
      <trkpt lat="41.8021" lon="19.97209">
        <ele>543.6</ele>
      </trkpt>
      <trkpt lat="41.80191" lon="19.97177">
        <ele>540.5</ele>
      </trkpt>
      <trkpt lat="41.80161" lon="19.97104">
        <ele>542.7</ele>
      </trkpt>
      <trkpt lat="41.80148" lon="19.97061">
        <ele>546.6</ele>
      </trkpt>
      <trkpt lat="41.80131" lon="19.97006">
        <ele>550.4</ele>
      </trkpt>
      <trkpt lat="41.80109" lon="19.96956">
        <ele>548.7</ele>
      </trkpt>
      <trkpt lat="41.80107" lon="19.96937">
        <ele>549</ele>
      </trkpt>
      <trkpt lat="41.80113" lon="19.969">
        <ele>549.7</ele>
      </trkpt>
      <trkpt lat="41.80115" lon="19.96885">
        <ele>548.8</ele>
      </trkpt>
      <trkpt lat="41.80124" lon="19.96868">
        <ele>548.9</ele>
      </trkpt>
      <trkpt lat="41.80135" lon="19.96851">
        <ele>549.5</ele>
      </trkpt>
      <trkpt lat="41.8015" lon="19.96836">
        <ele>551</ele>
      </trkpt>
      <trkpt lat="41.80152" lon="19.96823">
        <ele>550</ele>
      </trkpt>
      <trkpt lat="41.80152" lon="19.96815">
        <ele>549</ele>
      </trkpt>
      <trkpt lat="41.80137" lon="19.96774">
        <ele>541.1</ele>
      </trkpt>
      <trkpt lat="41.80135" lon="19.96748">
        <ele>537.8</ele>
      </trkpt>
      <trkpt lat="41.80126" lon="19.96722">
        <ele>536.4</ele>
      </trkpt>
      <trkpt lat="41.80126" lon="19.96701">
        <ele>536.9</ele>
      </trkpt>
      <trkpt lat="41.80124" lon="19.96684">
        <ele>536.9</ele>
      </trkpt>
      <trkpt lat="41.8012" lon="19.96673">
        <ele>536.3</ele>
      </trkpt>
      <trkpt lat="41.80115" lon="19.96666">
        <ele>535.6</ele>
      </trkpt>
      <trkpt lat="41.80092" lon="19.96654">
        <ele>532.2</ele>
      </trkpt>
      <trkpt lat="41.80058" lon="19.96628">
        <ele>530.1</ele>
      </trkpt>
      <trkpt lat="41.80043" lon="19.96604">
        <ele>531</ele>
      </trkpt>
      <trkpt lat="41.80021" lon="19.96578">
        <ele>531.1</ele>
      </trkpt>
      <trkpt lat="41.8" lon="19.96559">
        <ele>530.3</ele>
      </trkpt>
      <trkpt lat="41.7995" lon="19.96516">
        <ele>529.5</ele>
      </trkpt>
      <trkpt lat="41.79907" lon="19.96454">
        <ele>529.1</ele>
      </trkpt>
      <trkpt lat="41.79894" lon="19.96405">
        <ele>526.4</ele>
      </trkpt>
      <trkpt lat="41.79894" lon="19.96396">
        <ele>525.2</ele>
      </trkpt>
      <trkpt lat="41.79897" lon="19.96388">
        <ele>524.5</ele>
      </trkpt>
      <trkpt lat="41.79899" lon="19.96383">
        <ele>524.3</ele>
      </trkpt>
      <trkpt lat="41.79907" lon="19.96377">
        <ele>525.2</ele>
      </trkpt>
      <trkpt lat="41.7991" lon="19.96373">
        <ele>525.2</ele>
      </trkpt>
      <trkpt lat="41.79912" lon="19.96366">
        <ele>524.8</ele>
      </trkpt>
      <trkpt lat="41.79912" lon="19.96357">
        <ele>523.8</ele>
      </trkpt>
      <trkpt lat="41.7991" lon="19.96351">
        <ele>522.5</ele>
      </trkpt>
      <trkpt lat="41.79905" lon="19.96345">
        <ele>520.7</ele>
      </trkpt>
      <trkpt lat="41.79899" lon="19.96336">
        <ele>518</ele>
      </trkpt>
      <trkpt lat="41.79892" lon="19.96323">
        <ele>514.4</ele>
      </trkpt>
      <trkpt lat="41.79879" lon="19.96304">
        <ele>508</ele>
      </trkpt>
      <trkpt lat="41.79879" lon="19.96297">
        <ele>506.9</ele>
      </trkpt>
      <trkpt lat="41.79884" lon="19.96278">
        <ele>504.7</ele>
      </trkpt>
      <trkpt lat="41.79884" lon="19.96274">
        <ele>504</ele>
      </trkpt>
      <trkpt lat="41.79882" lon="19.96267">
        <ele>502.3</ele>
      </trkpt>
      <trkpt lat="41.79867" lon="19.96254">
        <ele>495.9</ele>
      </trkpt>
      <trkpt lat="41.79845" lon="19.96242">
        <ele>487.9</ele>
      </trkpt>
      <trkpt lat="41.79843" lon="19.96235">
        <ele>486.2</ele>
      </trkpt>
      <trkpt lat="41.79839" lon="19.96233">
        <ele>484.7</ele>
      </trkpt>
      <trkpt lat="41.79839" lon="19.96229">
        <ele>484</ele>
      </trkpt>
      <trkpt lat="41.7983" lon="19.96192">
        <ele>475.4</ele>
      </trkpt>
      <trkpt lat="41.7983" lon="19.96164">
        <ele>470.8</ele>
      </trkpt>
      <trkpt lat="41.79824" lon="19.96145">
        <ele>466.7</ele>
      </trkpt>
      <trkpt lat="41.79822" lon="19.96136">
        <ele>465.2</ele>
      </trkpt>
      <trkpt lat="41.79815" lon="19.96104">
        <ele>459.3</ele>
      </trkpt>
      <trkpt lat="41.79815" lon="19.96096">
        <ele>458.3</ele>
      </trkpt>
      <trkpt lat="41.79807" lon="19.96018">
        <ele>453</ele>
      </trkpt>
      <trkpt lat="41.79802" lon="19.95982">
        <ele>450.9</ele>
      </trkpt>
      <trkpt lat="41.79785" lon="19.95937">
        <ele>444.5</ele>
      </trkpt>
      <trkpt lat="41.79783" lon="19.95924">
        <ele>443.7</ele>
      </trkpt>
      <trkpt lat="41.79781" lon="19.95864">
        <ele>440.7</ele>
      </trkpt>
      <trkpt lat="41.79781" lon="19.95855">
        <ele>440.4</ele>
      </trkpt>
      <trkpt lat="41.79781" lon="19.9583">
        <ele>439.9</ele>
      </trkpt>
      <trkpt lat="41.79783" lon="19.95797">
        <ele>444.5</ele>
      </trkpt>
      <trkpt lat="41.79783" lon="19.95793">
        <ele>445</ele>
      </trkpt>
      <trkpt lat="41.79776" lon="19.95774">
        <ele>446.3</ele>
      </trkpt>
      <trkpt lat="41.79772" lon="19.95746">
        <ele>449.5</ele>
      </trkpt>
      <trkpt lat="41.79772" lon="19.95737">
        <ele>450.8</ele>
      </trkpt>
      <trkpt lat="41.79785" lon="19.95709">
        <ele>456.2</ele>
      </trkpt>
      <trkpt lat="41.79794" lon="19.95701">
        <ele>458.2</ele>
      </trkpt>
      <trkpt lat="41.798" lon="19.95686">
        <ele>460.6</ele>
      </trkpt>
      <trkpt lat="41.79813" lon="19.95667">
        <ele>463.8</ele>
      </trkpt>
      <trkpt lat="41.79819" lon="19.95662">
        <ele>464.4</ele>
      </trkpt>
      <trkpt lat="41.7983" lon="19.95662">
        <ele>465</ele>
      </trkpt>
      <trkpt lat="41.79837" lon="19.9566">
        <ele>465.3</ele>
      </trkpt>
      <trkpt lat="41.79847" lon="19.95647">
        <ele>465.6</ele>
      </trkpt>
      <trkpt lat="41.79849" lon="19.95641">
        <ele>465.7</ele>
      </trkpt>
      <trkpt lat="41.79849" lon="19.95626">
        <ele>466.1</ele>
      </trkpt>
      <trkpt lat="41.79828" lon="19.95551">
        <ele>468.5</ele>
      </trkpt>
      <trkpt lat="41.79826" lon="19.95536">
        <ele>468.3</ele>
      </trkpt>
      <trkpt lat="41.79828" lon="19.95525">
        <ele>468.2</ele>
      </trkpt>
      <trkpt lat="41.79845" lon="19.95482">
        <ele>465.8</ele>
      </trkpt>
      <trkpt lat="41.79847" lon="19.95473">
        <ele>465.4</ele>
      </trkpt>
      <trkpt lat="41.79845" lon="19.95411">
        <ele>464.9</ele>
      </trkpt>
      <trkpt lat="41.79847" lon="19.95403">
        <ele>464.1</ele>
      </trkpt>
      <trkpt lat="41.79854" lon="19.95381">
        <ele>462.1</ele>
      </trkpt>
      <trkpt lat="41.79856" lon="19.9537">
        <ele>461.3</ele>
      </trkpt>
      <trkpt lat="41.79854" lon="19.9536">
        <ele>461.1</ele>
      </trkpt>
      <trkpt lat="41.79847" lon="19.95349">
        <ele>461.3</ele>
      </trkpt>
      <trkpt lat="41.79837" lon="19.95304">
        <ele>457.6</ele>
      </trkpt>
      <trkpt lat="41.7983" lon="19.95291">
        <ele>456</ele>
      </trkpt>
      <trkpt lat="41.79807" lon="19.95278">
        <ele>455.1</ele>
      </trkpt>
      <trkpt lat="41.798" lon="19.95265">
        <ele>454.2</ele>
      </trkpt>
      <trkpt lat="41.79794" lon="19.9525">
        <ele>453.4</ele>
      </trkpt>
      <trkpt lat="41.79789" lon="19.9524">
        <ele>453.3</ele>
      </trkpt>
      <trkpt lat="41.79787" lon="19.95225">
        <ele>453</ele>
      </trkpt>
      <trkpt lat="41.79785" lon="19.95212">
        <ele>452.8</ele>
      </trkpt>
      <trkpt lat="41.79776" lon="19.95201">
        <ele>453.4</ele>
      </trkpt>
      <trkpt lat="41.79768" lon="19.95156">
        <ele>452.6</ele>
      </trkpt>
      <trkpt lat="41.79766" lon="19.95141">
        <ele>451.5</ele>
      </trkpt>
      <trkpt lat="41.79772" lon="19.95109">
        <ele>447.1</ele>
      </trkpt>
      <trkpt lat="41.79781" lon="19.95096">
        <ele>443.7</ele>
      </trkpt>
      <trkpt lat="41.79785" lon="19.95085">
        <ele>441.4</ele>
      </trkpt>
      <trkpt lat="41.79783" lon="19.95053">
        <ele>442.1</ele>
      </trkpt>
      <trkpt lat="41.79787" lon="19.95008">
        <ele>441.3</ele>
      </trkpt>
      <trkpt lat="41.79787" lon="19.94997">
        <ele>441</ele>
      </trkpt>
      <trkpt lat="41.79783" lon="19.94984">
        <ele>440.6</ele>
      </trkpt>
      <trkpt lat="41.79783" lon="19.94973">
        <ele>439.2</ele>
      </trkpt>
      <trkpt lat="41.79776" lon="19.94954">
        <ele>438.5</ele>
      </trkpt>
      <trkpt lat="41.79774" lon="19.94941">
        <ele>437.3</ele>
      </trkpt>
      <trkpt lat="41.79774" lon="19.94923">
        <ele>434.7</ele>
      </trkpt>
      <trkpt lat="41.79774" lon="19.94911">
        <ele>432.5</ele>
      </trkpt>
      <trkpt lat="41.7977" lon="19.94898">
        <ele>430.2</ele>
      </trkpt>
      <trkpt lat="41.7977" lon="19.9489">
        <ele>428</ele>
      </trkpt>
      <trkpt lat="41.79768" lon="19.94877">
        <ele>425</ele>
      </trkpt>
      <trkpt lat="41.79766" lon="19.94868">
        <ele>423</ele>
      </trkpt>
      <trkpt lat="41.79757" lon="19.9486">
        <ele>421.5</ele>
      </trkpt>
      <trkpt lat="41.79751" lon="19.94845">
        <ele>417.5</ele>
      </trkpt>
      <trkpt lat="41.79727" lon="19.9481">
        <ele>418.2</ele>
      </trkpt>
      <trkpt lat="41.79723" lon="19.94795">
        <ele>416.6</ele>
      </trkpt>
      <trkpt lat="41.79719" lon="19.94776">
        <ele>414</ele>
      </trkpt>
      <trkpt lat="41.79721" lon="19.94744">
        <ele>406.3</ele>
      </trkpt>
      <trkpt lat="41.79719" lon="19.94725">
        <ele>403.6</ele>
      </trkpt>
      <trkpt lat="41.79716" lon="19.94707">
        <ele>401.1</ele>
      </trkpt>
      <trkpt lat="41.79708" lon="19.94684">
        <ele>398.7</ele>
      </trkpt>
      <trkpt lat="41.79699" lon="19.94675">
        <ele>398.8</ele>
      </trkpt>
      <trkpt lat="41.79688" lon="19.94667">
        <ele>398.8</ele>
      </trkpt>
      <trkpt lat="41.7968" lon="19.94658">
        <ele>398.4</ele>
      </trkpt>
      <trkpt lat="41.79646" lon="19.94592">
        <ele>389.2</ele>
      </trkpt>
      <trkpt lat="41.79631" lon="19.94553">
        <ele>385.1</ele>
      </trkpt>
      <trkpt lat="41.79609" lon="19.94478">
        <ele>364.4</ele>
      </trkpt>
      <trkpt lat="41.79603" lon="19.94446">
        <ele>349.4</ele>
      </trkpt>
      <trkpt lat="41.79603" lon="19.94416">
        <ele>335.2</ele>
      </trkpt>
      <trkpt lat="41.79607" lon="19.94411">
        <ele>334.5</ele>
      </trkpt>
      <trkpt lat="41.79616" lon="19.94407">
        <ele>335</ele>
      </trkpt>
      <trkpt lat="41.79626" lon="19.94411">
        <ele>339.3</ele>
      </trkpt>
      <trkpt lat="41.79633" lon="19.94409">
        <ele>340.1</ele>
      </trkpt>
      <trkpt lat="41.79639" lon="19.94396">
        <ele>337.2</ele>
      </trkpt>
      <trkpt lat="41.79643" lon="19.94381">
        <ele>333.2</ele>
      </trkpt>
      <trkpt lat="41.79648" lon="19.94373">
        <ele>331.5</ele>
      </trkpt>
      <trkpt lat="41.79658" lon="19.94366">
        <ele>332.7</ele>
      </trkpt>
      <trkpt lat="41.79669" lon="19.94364">
        <ele>335.4</ele>
      </trkpt>
      <trkpt lat="41.79673" lon="19.94362">
        <ele>336.3</ele>
      </trkpt>
      <trkpt lat="41.79676" lon="19.94358">
        <ele>335.7</ele>
      </trkpt>
      <trkpt lat="41.79684" lon="19.94313">
        <ele>327.9</ele>
      </trkpt>
      <trkpt lat="41.79691" lon="19.94257">
        <ele>321.5</ele>
      </trkpt>
      <trkpt lat="41.79684" lon="19.94143">
        <ele>317.9</ele>
      </trkpt>
      <trkpt lat="41.7965" lon="19.94098">
        <ele>311.4</ele>
      </trkpt>
      <trkpt lat="41.79643" lon="19.94087">
        <ele>310.4</ele>
      </trkpt>
      <trkpt lat="41.79641" lon="19.94077">
        <ele>310.7</ele>
      </trkpt>
      <trkpt lat="41.79624" lon="19.94046">
        <ele>308</ele>
      </trkpt>
      <trkpt lat="41.79588" lon="19.93971">
        <ele>302.5</ele>
      </trkpt>
      <trkpt lat="41.7956" lon="19.93939">
        <ele>296.7</ele>
      </trkpt>
      <trkpt lat="41.79553" lon="19.93924">
        <ele>296.3</ele>
      </trkpt>
      <trkpt lat="41.79543" lon="19.93843">
        <ele>297.7</ele>
      </trkpt>
      <trkpt lat="41.79538" lon="19.93832">
        <ele>296.9</ele>
      </trkpt>
      <trkpt lat="41.79536" lon="19.93823">
        <ele>297.2</ele>
      </trkpt>
      <trkpt lat="41.79536" lon="19.93813">
        <ele>298.4</ele>
      </trkpt>
      <trkpt lat="41.79543" lon="19.93787">
        <ele>303.6</ele>
      </trkpt>
      <trkpt lat="41.79543" lon="19.93778">
        <ele>304.6</ele>
      </trkpt>
      <trkpt lat="41.79536" lon="19.93753">
        <ele>305.5</ele>
      </trkpt>
      <trkpt lat="41.79534" lon="19.93725">
        <ele>308.1</ele>
      </trkpt>
      <trkpt lat="41.79528" lon="19.93712">
        <ele>307.5</ele>
      </trkpt>
      <trkpt lat="41.7951" lon="19.93697">
        <ele>303.9</ele>
      </trkpt>
      <trkpt lat="41.79498" lon="19.9366">
        <ele>304.1</ele>
      </trkpt>
      <trkpt lat="41.79495" lon="19.93641">
        <ele>306.1</ele>
      </trkpt>
      <trkpt lat="41.79495" lon="19.93622">
        <ele>308.8</ele>
      </trkpt>
      <trkpt lat="41.79493" lon="19.93609">
        <ele>310</ele>
      </trkpt>
      <trkpt lat="41.79483" lon="19.93583">
        <ele>311.3</ele>
      </trkpt>
      <trkpt lat="41.79478" lon="19.93562">
        <ele>314</ele>
      </trkpt>
      <trkpt lat="41.79472" lon="19.93549">
        <ele>315</ele>
      </trkpt>
      <trkpt lat="41.79461" lon="19.93532">
        <ele>316.4</ele>
      </trkpt>
      <trkpt lat="41.79448" lon="19.93519">
        <ele>317</ele>
      </trkpt>
      <trkpt lat="41.79429" lon="19.93497">
        <ele>318.8</ele>
      </trkpt>
      <trkpt lat="41.79414" lon="19.93486">
        <ele>318.8</ele>
      </trkpt>
      <trkpt lat="41.79397" lon="19.93469">
        <ele>319.5</ele>
      </trkpt>
      <trkpt lat="41.7939" lon="19.93461">
        <ele>320</ele>
      </trkpt>
      <trkpt lat="41.79354" lon="19.93424">
        <ele>320.6</ele>
      </trkpt>
      <trkpt lat="41.79343" lon="19.93373">
        <ele>322.7</ele>
      </trkpt>
      <trkpt lat="41.7933" lon="19.9333">
        <ele>323.5</ele>
      </trkpt>
      <trkpt lat="41.79317" lon="19.93308">
        <ele>322</ele>
      </trkpt>
      <trkpt lat="41.79272" lon="19.93265">
        <ele>315.9</ele>
      </trkpt>
      <trkpt lat="41.79264" lon="19.93255">
        <ele>315.2</ele>
      </trkpt>
      <trkpt lat="41.79255" lon="19.93229">
        <ele>314.5</ele>
      </trkpt>
      <trkpt lat="41.79246" lon="19.93214">
        <ele>313.3</ele>
      </trkpt>
      <trkpt lat="41.79238" lon="19.93207">
        <ele>312.1</ele>
      </trkpt>
      <trkpt lat="41.79225" lon="19.93199">
        <ele>310.4</ele>
      </trkpt>
      <trkpt lat="41.79219" lon="19.93188">
        <ele>309.8</ele>
      </trkpt>
      <trkpt lat="41.79208" lon="19.93165">
        <ele>308.7</ele>
      </trkpt>
      <trkpt lat="41.79208" lon="19.9316">
        <ele>308.1</ele>
      </trkpt>
      <trkpt lat="41.79219" lon="19.93105">
        <ele>303.6</ele>
      </trkpt>
      <trkpt lat="41.79231" lon="19.93062">
        <ele>301.9</ele>
      </trkpt>
      <trkpt lat="41.79225" lon="19.93023">
        <ele>296.7</ele>
      </trkpt>
      <trkpt lat="41.7921" lon="19.92989">
        <ele>290.8</ele>
      </trkpt>
      <trkpt lat="41.79208" lon="19.92974">
        <ele>290.8</ele>
      </trkpt>
      <trkpt lat="41.79204" lon="19.92916">
        <ele>291.9</ele>
      </trkpt>
      <trkpt lat="41.79214" lon="19.92847">
        <ele>295.1</ele>
      </trkpt>
      <trkpt lat="41.79214" lon="19.92841">
        <ele>295.2</ele>
      </trkpt>
      <trkpt lat="41.79212" lon="19.92836">
        <ele>294.8</ele>
      </trkpt>
      <trkpt lat="41.79186" lon="19.92789">
        <ele>291.1</ele>
      </trkpt>
      <trkpt lat="41.79143" lon="19.92763">
        <ele>280.9</ele>
      </trkpt>
      <trkpt lat="41.79135" lon="19.92746">
        <ele>279.6</ele>
      </trkpt>
      <trkpt lat="41.79133" lon="19.92735">
        <ele>279.9</ele>
      </trkpt>
      <trkpt lat="41.79135" lon="19.92714">
        <ele>281.8</ele>
      </trkpt>
      <trkpt lat="41.79133" lon="19.92695">
        <ele>282.7</ele>
      </trkpt>
      <trkpt lat="41.79128" lon="19.9266">
        <ele>284</ele>
      </trkpt>
      <trkpt lat="41.79128" lon="19.92639">
        <ele>284.9</ele>
      </trkpt>
      <trkpt lat="41.79124" lon="19.92626">
        <ele>284.5</ele>
      </trkpt>
      <trkpt lat="41.79118" lon="19.92609">
        <ele>283.7</ele>
      </trkpt>
      <trkpt lat="41.79105" lon="19.92585">
        <ele>281.3</ele>
      </trkpt>
      <trkpt lat="41.79101" lon="19.92574">
        <ele>280.7</ele>
      </trkpt>
      <trkpt lat="41.79094" lon="19.9254">
        <ele>280.6</ele>
      </trkpt>
      <trkpt lat="41.79075" lon="19.92491">
        <ele>279.1</ele>
      </trkpt>
      <trkpt lat="41.79068" lon="19.92444">
        <ele>283.2</ele>
      </trkpt>
      <trkpt lat="41.7906" lon="19.92414">
        <ele>285</ele>
      </trkpt>
      <trkpt lat="41.79055" lon="19.92401">
        <ele>285.2</ele>
      </trkpt>
      <trkpt lat="41.79032" lon="19.92377">
        <ele>282.9</ele>
      </trkpt>
      <trkpt lat="41.79015" lon="19.92366">
        <ele>280.8</ele>
      </trkpt>
      <trkpt lat="41.79012" lon="19.92366">
        <ele>280.4</ele>
      </trkpt>
      <trkpt lat="41.79008" lon="19.92362">
        <ele>280</ele>
      </trkpt>
      <trkpt lat="41.78989" lon="19.92343">
        <ele>278.2</ele>
      </trkpt>
      <trkpt lat="41.78968" lon="19.92336">
        <ele>274.9</ele>
      </trkpt>
      <trkpt lat="41.78961" lon="19.92332">
        <ele>274</ele>
      </trkpt>
      <trkpt lat="41.78955" lon="19.92321">
        <ele>273.5</ele>
      </trkpt>
      <trkpt lat="41.78946" lon="19.92302">
        <ele>273.3</ele>
      </trkpt>
      <trkpt lat="41.78942" lon="19.92281">
        <ele>274</ele>
      </trkpt>
      <trkpt lat="41.78937" lon="19.92272">
        <ele>274</ele>
      </trkpt>
      <trkpt lat="41.78922" lon="19.92255">
        <ele>273.3</ele>
      </trkpt>
      <trkpt lat="41.78907" lon="19.92244">
        <ele>271.2</ele>
      </trkpt>
      <trkpt lat="41.78882" lon="19.9222">
        <ele>266.2</ele>
      </trkpt>
      <trkpt lat="41.78875" lon="19.9221">
        <ele>265</ele>
      </trkpt>
      <trkpt lat="41.78869" lon="19.9219">
        <ele>264</ele>
      </trkpt>
      <trkpt lat="41.78858" lon="19.92169">
        <ele>262</ele>
      </trkpt>
      <trkpt lat="41.78826" lon="19.92137">
        <ele>257.9</ele>
      </trkpt>
      <trkpt lat="41.78822" lon="19.9213">
        <ele>257.6</ele>
      </trkpt>
      <trkpt lat="41.78809" lon="19.921">
        <ele>258.3</ele>
      </trkpt>
      <trkpt lat="41.78802" lon="19.92087">
        <ele>258.7</ele>
      </trkpt>
      <trkpt lat="41.78781" lon="19.92062">
        <ele>255.5</ele>
      </trkpt>
      <trkpt lat="41.78766" lon="19.92036">
        <ele>254</ele>
      </trkpt>
      <trkpt lat="41.78751" lon="19.92021">
        <ele>253.3</ele>
      </trkpt>
      <trkpt lat="41.78742" lon="19.92014">
        <ele>252.9</ele>
      </trkpt>
      <trkpt lat="41.78736" lon="19.9201">
        <ele>252.6</ele>
      </trkpt>
      <trkpt lat="41.78729" lon="19.9201">
        <ele>252.2</ele>
      </trkpt>
      <trkpt lat="41.78725" lon="19.92012">
        <ele>251.8</ele>
      </trkpt>
      <trkpt lat="41.78712" lon="19.92021">
        <ele>250.6</ele>
      </trkpt>
      <trkpt lat="41.78697" lon="19.9204">
        <ele>249.1</ele>
      </trkpt>
      <trkpt lat="41.78691" lon="19.92044">
        <ele>248.5</ele>
      </trkpt>
      <trkpt lat="41.78678" lon="19.92044">
        <ele>247.7</ele>
      </trkpt>
      <trkpt lat="41.78669" lon="19.9204">
        <ele>247.2</ele>
      </trkpt>
      <trkpt lat="41.7865" lon="19.92029">
        <ele>244.4</ele>
      </trkpt>
      <trkpt lat="41.78637" lon="19.92023">
        <ele>242.4</ele>
      </trkpt>
      <trkpt lat="41.78628" lon="19.92014">
        <ele>241.1</ele>
      </trkpt>
      <trkpt lat="41.78592" lon="19.91995">
        <ele>235.8</ele>
      </trkpt>
      <trkpt lat="41.78571" lon="19.91982">
        <ele>231.8</ele>
      </trkpt>
      <trkpt lat="41.78556" lon="19.91969">
        <ele>228.8</ele>
      </trkpt>
      <trkpt lat="41.78541" lon="19.91952">
        <ele>226.4</ele>
      </trkpt>
      <trkpt lat="41.78536" lon="19.91944">
        <ele>226.2</ele>
      </trkpt>
      <trkpt lat="41.78521" lon="19.91907">
        <ele>226.5</ele>
      </trkpt>
      <trkpt lat="41.78517" lon="19.91901">
        <ele>226.1</ele>
      </trkpt>
      <trkpt lat="41.78504" lon="19.91886">
        <ele>224.6</ele>
      </trkpt>
      <trkpt lat="41.78442" lon="19.91768">
        <ele>222.5</ele>
      </trkpt>
      <trkpt lat="41.78431" lon="19.91744">
        <ele>222.3</ele>
      </trkpt>
      <trkpt lat="41.78427" lon="19.91729">
        <ele>223</ele>
      </trkpt>
      <trkpt lat="41.78425" lon="19.91708">
        <ele>224.8</ele>
      </trkpt>
      <trkpt lat="41.78425" lon="19.9162">
        <ele>230</ele>
      </trkpt>
      <trkpt lat="41.78427" lon="19.91605">
        <ele>230.5</ele>
      </trkpt>
      <trkpt lat="41.78431" lon="19.91583">
        <ele>231.3</ele>
      </trkpt>
      <trkpt lat="41.78435" lon="19.91536">
        <ele>225.7</ele>
      </trkpt>
      <trkpt lat="41.78435" lon="19.91523">
        <ele>224</ele>
      </trkpt>
      <trkpt lat="41.78418" lon="19.91452">
        <ele>216.8</ele>
      </trkpt>
      <trkpt lat="41.78412" lon="19.91429">
        <ele>215.1</ele>
      </trkpt>
      <trkpt lat="41.78367" lon="19.91345">
        <ele>208.7</ele>
      </trkpt>
      <trkpt lat="41.78326" lon="19.91272">
        <ele>206.2</ele>
      </trkpt>
      <trkpt lat="41.78319" lon="19.91255">
        <ele>206.3</ele>
      </trkpt>
      <trkpt lat="41.78309" lon="19.91223">
        <ele>203.5</ele>
      </trkpt>
      <trkpt lat="41.78307" lon="19.91173">
        <ele>200.8</ele>
      </trkpt>
      <trkpt lat="41.78313" lon="19.91137">
        <ele>198.6</ele>
      </trkpt>
      <trkpt lat="41.78313" lon="19.91128">
        <ele>197.8</ele>
      </trkpt>
      <trkpt lat="41.783" lon="19.91096">
        <ele>193.5</ele>
      </trkpt>
      <trkpt lat="41.78296" lon="19.91081">
        <ele>192.1</ele>
      </trkpt>
      <trkpt lat="41.78294" lon="19.91064">
        <ele>192.6</ele>
      </trkpt>
      <trkpt lat="41.78287" lon="19.91049">
        <ele>192.8</ele>
      </trkpt>
      <trkpt lat="41.78264" lon="19.91019">
        <ele>193.1</ele>
      </trkpt>
      <trkpt lat="41.78255" lon="19.9101">
        <ele>193.4</ele>
      </trkpt>
      <trkpt lat="41.78242" lon="19.91">
        <ele>193.9</ele>
      </trkpt>
      <trkpt lat="41.7818" lon="19.90916">
        <ele>205.7</ele>
      </trkpt>
      <trkpt lat="41.7815" lon="19.9089">
        <ele>207.2</ele>
      </trkpt>
      <trkpt lat="41.78131" lon="19.90854">
        <ele>208.9</ele>
      </trkpt>
      <trkpt lat="41.78107" lon="19.90813">
        <ele>209.8</ele>
      </trkpt>
      <trkpt lat="41.78066" lon="19.90757">
        <ele>205.4</ele>
      </trkpt>
      <trkpt lat="41.78049" lon="19.90736">
        <ele>202</ele>
      </trkpt>
      <trkpt lat="41.78036" lon="19.90725">
        <ele>199.6</ele>
      </trkpt>
      <trkpt lat="41.78008" lon="19.90684">
        <ele>195.1</ele>
      </trkpt>
      <trkpt lat="41.78004" lon="19.90675">
        <ele>194.5</ele>
      </trkpt>
      <trkpt lat="41.77995" lon="19.90648">
        <ele>196.4</ele>
      </trkpt>
      <trkpt lat="41.77983" lon="19.9062">
        <ele>198.8</ele>
      </trkpt>
      <trkpt lat="41.77965" lon="19.90607">
        <ele>198</ele>
      </trkpt>
      <trkpt lat="41.77953" lon="19.90594">
        <ele>198.1</ele>
      </trkpt>
      <trkpt lat="41.77929" lon="19.90566">
        <ele>199</ele>
      </trkpt>
      <trkpt lat="41.77903" lon="19.90525">
        <ele>203.2</ele>
      </trkpt>
      <trkpt lat="41.7789" lon="19.90502">
        <ele>205.9</ele>
      </trkpt>
      <trkpt lat="41.77856" lon="19.9045">
        <ele>206.5</ele>
      </trkpt>
      <trkpt lat="41.77843" lon="19.90427">
        <ele>207.1</ele>
      </trkpt>
      <trkpt lat="41.77822" lon="19.9039">
        <ele>204.7</ele>
      </trkpt>
      <trkpt lat="41.77809" lon="19.90373">
        <ele>201.7</ele>
      </trkpt>
      <trkpt lat="41.77766" lon="19.90321">
        <ele>194</ele>
      </trkpt>
      <trkpt lat="41.77723" lon="19.90264">
        <ele>196</ele>
      </trkpt>
      <trkpt lat="41.77714" lon="19.90251">
        <ele>197.6</ele>
      </trkpt>
      <trkpt lat="41.77708" lon="19.90236">
        <ele>198.6</ele>
      </trkpt>
      <trkpt lat="41.77699" lon="19.90176">
        <ele>203.9</ele>
      </trkpt>
      <trkpt lat="41.77691" lon="19.90152">
        <ele>203.9</ele>
      </trkpt>
      <trkpt lat="41.77684" lon="19.90124">
        <ele>204</ele>
      </trkpt>
      <trkpt lat="41.77684" lon="19.90094">
        <ele>205.3</ele>
      </trkpt>
      <trkpt lat="41.77686" lon="19.90079">
        <ele>206.7</ele>
      </trkpt>
      <trkpt lat="41.77697" lon="19.90042">
        <ele>212.8</ele>
      </trkpt>
      <trkpt lat="41.77702" lon="19.90015">
        <ele>216.5</ele>
      </trkpt>
      <trkpt lat="41.77702" lon="19.9">
        <ele>218.2</ele>
      </trkpt>
      <trkpt lat="41.77697" lon="19.89963">
        <ele>217.7</ele>
      </trkpt>
      <trkpt lat="41.77697" lon="19.89946">
        <ele>217.5</ele>
      </trkpt>
      <trkpt lat="41.77702" lon="19.89877">
        <ele>212.7</ele>
      </trkpt>
      <trkpt lat="41.7771" lon="19.89806">
        <ele>205.3</ele>
      </trkpt>
      <trkpt lat="41.77706" lon="19.89665">
        <ele>200.2</ele>
      </trkpt>
      <trkpt lat="41.77704" lon="19.89658">
        <ele>200</ele>
      </trkpt>
      <trkpt lat="41.77702" lon="19.89652">
        <ele>199.8</ele>
      </trkpt>
      <trkpt lat="41.77702" lon="19.89643">
        <ele>199.9</ele>
      </trkpt>
      <trkpt lat="41.77708" lon="19.89605">
        <ele>201.2</ele>
      </trkpt>
      <trkpt lat="41.77708" lon="19.89598">
        <ele>201.3</ele>
      </trkpt>
      <trkpt lat="41.77706" lon="19.89588">
        <ele>201.1</ele>
      </trkpt>
      <trkpt lat="41.77626" lon="19.89399">
        <ele>193.3</ele>
      </trkpt>
      <trkpt lat="41.77596" lon="19.89315">
        <ele>192.1</ele>
      </trkpt>
      <trkpt lat="41.77581" lon="19.89266">
        <ele>194</ele>
      </trkpt>
      <trkpt lat="41.77575" lon="19.89242">
        <ele>192.4</ele>
      </trkpt>
      <trkpt lat="41.77568" lon="19.89186">
        <ele>186.6</ele>
      </trkpt>
      <trkpt lat="41.77558" lon="19.8915">
        <ele>181.4</ele>
      </trkpt>
      <trkpt lat="41.77545" lon="19.89124">
        <ele>176.4</ele>
      </trkpt>
      <trkpt lat="41.77532" lon="19.89103">
        <ele>172</ele>
      </trkpt>
      <trkpt lat="41.77521" lon="19.8909">
        <ele>168.8</ele>
      </trkpt>
      <trkpt lat="41.77517" lon="19.89081">
        <ele>167.3</ele>
      </trkpt>
      <trkpt lat="41.77513" lon="19.8907">
        <ele>165.9</ele>
      </trkpt>
      <trkpt lat="41.77511" lon="19.89064">
        <ele>165.1</ele>
      </trkpt>
      <trkpt lat="41.77508" lon="19.89047">
        <ele>163.8</ele>
      </trkpt>
      <trkpt lat="41.77508" lon="19.89">
        <ele>161.4</ele>
      </trkpt>
      <trkpt lat="41.77502" lon="19.88982">
        <ele>160.5</ele>
      </trkpt>
      <trkpt lat="41.77493" lon="19.88967">
        <ele>158.6</ele>
      </trkpt>
      <trkpt lat="41.77483" lon="19.88955">
        <ele>155.9</ele>
      </trkpt>
      <trkpt lat="41.77472" lon="19.88944">
        <ele>153.1</ele>
      </trkpt>
      <trkpt lat="41.77463" lon="19.88929">
        <ele>150.9</ele>
      </trkpt>
      <trkpt lat="41.77444" lon="19.88879">
        <ele>144.9</ele>
      </trkpt>
      <trkpt lat="41.77429" lon="19.888">
        <ele>140</ele>
      </trkpt>
      <trkpt lat="41.77414" lon="19.88667">
        <ele>135.5</ele>
      </trkpt>
      <trkpt lat="41.77399" lon="19.88631">
        <ele>134.5</ele>
      </trkpt>
      <trkpt lat="41.77388" lon="19.88609">
        <ele>132.7</ele>
      </trkpt>
      <trkpt lat="41.77375" lon="19.88581">
        <ele>129.8</ele>
      </trkpt>
      <trkpt lat="41.77354" lon="19.8853">
        <ele>127.7</ele>
      </trkpt>
      <trkpt lat="41.77332" lon="19.88472">
        <ele>123.5</ele>
      </trkpt>
      <trkpt lat="41.77326" lon="19.88442">
        <ele>123.1</ele>
      </trkpt>
      <trkpt lat="41.77326" lon="19.88431">
        <ele>123.3</ele>
      </trkpt>
      <trkpt lat="41.77328" lon="19.88418">
        <ele>123.9</ele>
      </trkpt>
      <trkpt lat="41.77332" lon="19.88403">
        <ele>125.5</ele>
      </trkpt>
      <trkpt lat="41.77341" lon="19.8838">
        <ele>128.4</ele>
      </trkpt>
      <trkpt lat="41.77341" lon="19.88369">
        <ele>128.8</ele>
      </trkpt>
      <trkpt lat="41.77335" lon="19.88341">
        <ele>128.8</ele>
      </trkpt>
      <trkpt lat="41.77332" lon="19.88332">
        <ele>129</ele>
      </trkpt>
      <trkpt lat="41.77317" lon="19.88315">
        <ele>129.5</ele>
      </trkpt>
      <trkpt lat="41.773" lon="19.883">
        <ele>128.7</ele>
      </trkpt>
      <trkpt lat="41.77294" lon="19.88289">
        <ele>129</ele>
      </trkpt>
      <trkpt lat="41.77287" lon="19.88283">
        <ele>128.6</ele>
      </trkpt>
      <trkpt lat="41.77279" lon="19.88279">
        <ele>127.3</ele>
      </trkpt>
      <trkpt lat="41.77255" lon="19.88277">
        <ele>122.3</ele>
      </trkpt>
      <trkpt lat="41.77234" lon="19.88264">
        <ele>119.2</ele>
      </trkpt>
      <trkpt lat="41.77227" lon="19.88259">
        <ele>118.3</ele>
      </trkpt>
      <trkpt lat="41.77223" lon="19.88255">
        <ele>117.7</ele>
      </trkpt>
      <trkpt lat="41.77221" lon="19.88219">
        <ele>120.1</ele>
      </trkpt>
      <trkpt lat="41.77217" lon="19.88206">
        <ele>120.1</ele>
      </trkpt>
      <trkpt lat="41.77212" lon="19.88199">
        <ele>119.5</ele>
      </trkpt>
      <trkpt lat="41.7721" lon="19.88195">
        <ele>119.4</ele>
      </trkpt>
      <trkpt lat="41.77208" lon="19.8818">
        <ele>119.9</ele>
      </trkpt>
      <trkpt lat="41.77206" lon="19.88174">
        <ele>119.9</ele>
      </trkpt>
      <trkpt lat="41.77206" lon="19.88165">
        <ele>120.3</ele>
      </trkpt>
      <trkpt lat="41.77204" lon="19.88152">
        <ele>118.9</ele>
      </trkpt>
      <trkpt lat="41.77195" lon="19.88122">
        <ele>114.8</ele>
      </trkpt>
      <trkpt lat="41.77195" lon="19.88111">
        <ele>114.1</ele>
      </trkpt>
      <trkpt lat="41.77197" lon="19.88098">
        <ele>113.7</ele>
      </trkpt>
      <trkpt lat="41.77197" lon="19.88092">
        <ele>113.3</ele>
      </trkpt>
      <trkpt lat="41.77193" lon="19.88086">
        <ele>111.8</ele>
      </trkpt>
      <trkpt lat="41.77184" lon="19.88081">
        <ele>109.3</ele>
      </trkpt>
      <trkpt lat="41.7718" lon="19.88086">
        <ele>108.5</ele>
      </trkpt>
      <trkpt lat="41.77176" lon="19.88092">
        <ele>107.9</ele>
      </trkpt>
      <trkpt lat="41.77165" lon="19.88131">
        <ele>108.1</ele>
      </trkpt>
      <trkpt lat="41.77161" lon="19.88137">
        <ele>107.8</ele>
      </trkpt>
      <trkpt lat="41.77152" lon="19.88146">
        <ele>106.9</ele>
      </trkpt>
      <trkpt lat="41.77137" lon="19.88159">
        <ele>104.9</ele>
      </trkpt>
      <trkpt lat="41.77126" lon="19.88165">
        <ele>103.2</ele>
      </trkpt>
      <trkpt lat="41.7712" lon="19.88165">
        <ele>102</ele>
      </trkpt>
      <trkpt lat="41.77114" lon="19.88165">
        <ele>100.7</ele>
      </trkpt>
      <trkpt lat="41.77105" lon="19.88163">
        <ele>99</ele>
      </trkpt>
      <trkpt lat="41.77096" lon="19.88154">
        <ele>97.2</ele>
      </trkpt>
      <trkpt lat="41.7709" lon="19.88146">
        <ele>95.9</ele>
      </trkpt>
      <trkpt lat="41.77086" lon="19.88143">
        <ele>95.1</ele>
      </trkpt>
      <trkpt lat="41.77081" lon="19.88146">
        <ele>94.7</ele>
      </trkpt>
      <trkpt lat="41.77077" lon="19.88152">
        <ele>94.6</ele>
      </trkpt>
      <trkpt lat="41.77077" lon="19.88156">
        <ele>94.6</ele>
      </trkpt>
      <trkpt lat="41.77081" lon="19.88169">
        <ele>95.1</ele>
      </trkpt>
      <trkpt lat="41.7709" lon="19.8818">
        <ele>97.2</ele>
      </trkpt>
      <trkpt lat="41.7709" lon="19.88184">
        <ele>97.5</ele>
      </trkpt>
      <trkpt lat="41.77088" lon="19.88189">
        <ele>97.5</ele>
      </trkpt>
      <trkpt lat="41.77079" lon="19.88193">
        <ele>97</ele>
      </trkpt>
      <trkpt lat="41.77069" lon="19.88193">
        <ele>96.5</ele>
      </trkpt>
      <trkpt lat="41.77051" lon="19.88189">
        <ele>95.5</ele>
      </trkpt>
      <trkpt lat="41.77047" lon="19.8818">
        <ele>94.7</ele>
      </trkpt>
      <trkpt lat="41.77045" lon="19.88171">
        <ele>94</ele>
      </trkpt>
      <trkpt lat="41.77049" lon="19.88111">
        <ele>93.1</ele>
      </trkpt>
      <trkpt lat="41.77049" lon="19.88077">
        <ele>92.4</ele>
      </trkpt>
      <trkpt lat="41.77047" lon="19.88049">
        <ele>91</ele>
      </trkpt>
      <trkpt lat="41.77049" lon="19.88045">
        <ele>90.8</ele>
      </trkpt>
      <trkpt lat="41.77051" lon="19.88034">
        <ele>90.3</ele>
      </trkpt>
      <trkpt lat="41.77066" lon="19.88008">
        <ele>89.3</ele>
      </trkpt>
      <trkpt lat="41.77086" lon="19.87987">
        <ele>88.8</ele>
      </trkpt>
      <trkpt lat="41.77088" lon="19.8798">
        <ele>88.8</ele>
      </trkpt>
      <trkpt lat="41.77088" lon="19.87976">
        <ele>88.6</ele>
      </trkpt>
      <trkpt lat="41.77084" lon="19.87974">
        <ele>88.1</ele>
      </trkpt>
      <trkpt lat="41.77075" lon="19.87974">
        <ele>88</ele>
      </trkpt>
      <trkpt lat="41.77062" lon="19.87978">
        <ele>88</ele>
      </trkpt>
      <trkpt lat="41.77038" lon="19.87983">
        <ele>87.9</ele>
      </trkpt>
      <trkpt lat="41.77064" lon="19.87922">
        <ele>86.2</ele>
      </trkpt>
      <trkpt lat="41.77066" lon="19.8791">
        <ele>85.8</ele>
      </trkpt>
      <trkpt lat="41.77066" lon="19.87888">
        <ele>85.3</ele>
      </trkpt>
      <trkpt lat="41.77064" lon="19.87877">
        <ele>85.1</ele>
      </trkpt>
      <trkpt lat="41.77058" lon="19.87865">
        <ele>84.7</ele>
      </trkpt>
      <trkpt lat="41.77043" lon="19.87837">
        <ele>84.1</ele>
      </trkpt>
      <trkpt lat="41.77036" lon="19.87826">
        <ele>84</ele>
      </trkpt>
      <trkpt lat="41.77023" lon="19.87807">
        <ele>84</ele>
      </trkpt>
      <trkpt lat="41.77019" lon="19.87813">
        <ele>84</ele>
      </trkpt>
      <trkpt lat="41.77004" lon="19.87834">
        <ele>84</ele>
      </trkpt>
      <trkpt lat="41.76987" lon="19.87858">
        <ele>85</ele>
      </trkpt>
      <trkpt lat="41.76946" lon="19.8791">
        <ele>86.6</ele>
      </trkpt>
      <trkpt lat="41.76935" lon="19.8792">
        <ele>86.8</ele>
      </trkpt>
      <trkpt lat="41.76929" lon="19.87922">
        <ele>86.8</ele>
      </trkpt>
      <trkpt lat="41.76923" lon="19.8792">
        <ele>86.9</ele>
      </trkpt>
      <trkpt lat="41.76918" lon="19.87918">
        <ele>87</ele>
      </trkpt>
      <trkpt lat="41.76912" lon="19.87914">
        <ele>86.8</ele>
      </trkpt>
      <trkpt lat="41.76893" lon="19.87875">
        <ele>86.3</ele>
      </trkpt>
      <trkpt lat="41.7686" lon="19.87811">
        <ele>85.7</ele>
      </trkpt>
      <trkpt lat="41.76858" lon="19.87804">
        <ele>85.7</ele>
      </trkpt>
      <trkpt lat="41.7681" lon="19.87695">
        <ele>89.1</ele>
        <extensions>
          <visugpx:TrkExtension xmlns:visugpx="https://www.visugpx.com/editgpx/">
            <visugpx:node>1</visugpx:node>
            </visugpx:TrkExtension>
        </extensions>
      </trkpt>
    </trkseg>
  </trk>
</gpx>